<?xml version="1.0" encoding="UTF-8" standalone="no" ?>
<gpx xmlns="http://www.topografix.com/GPX/1/1" xmlns:xsi="http://www.w3.org/2001/XMLSchema-instance" xsi:schemaLocation="http://www.topografix.com/GPX/1/1 http://www.topografix.com/GPX/1/1/gpx.xsd" version="1.1" creator="VisuGPX - https://www.visugpx.com">
  <metadata>
    <name>Fondettes -vernou</name>
  </metadata>
  <trk>
    <name><![CDATA[Fondettes -vernou_1]]></name>
    <extensions>
      <line xmlns="http://www.topografix.com/GPX/gpx_style/0/2">
        <color>0000FF</color>
        <width>4</width>
      </line>
    </extensions>
    <trkseg>
      <trkpt lat="47.4085" lon="0.60839">
        <ele>106.2</ele>
        <time>2023-07-14T06:40:23Z</time>
      </trkpt>
      <trkpt lat="47.4085" lon="0.60839">
        <ele>106.2</ele>
        <time>2023-07-14T06:40:24Z</time>
      </trkpt>
      <trkpt lat="47.4085" lon="0.6084">
        <ele>106.2</ele>
        <time>2023-07-14T06:40:25Z</time>
      </trkpt>
      <trkpt lat="47.4085" lon="0.6084">
        <ele>106.2</ele>
        <time>2023-07-14T06:40:26Z</time>
      </trkpt>
      <trkpt lat="47.4085" lon="0.6084">
        <ele>106.2</ele>
        <time>2023-07-14T06:40:27Z</time>
      </trkpt>
      <trkpt lat="47.4085" lon="0.6084">
        <ele>106.2</ele>
        <time>2023-07-14T06:40:28Z</time>
      </trkpt>
      <trkpt lat="47.4085" lon="0.6084">
        <ele>106.2</ele>
        <time>2023-07-14T06:40:29Z</time>
      </trkpt>
      <trkpt lat="47.4085" lon="0.6084">
        <ele>106.2</ele>
        <time>2023-07-14T06:40:30Z</time>
      </trkpt>
      <trkpt lat="47.4085" lon="0.6084">
        <ele>106.2</ele>
        <time>2023-07-14T06:40:31Z</time>
      </trkpt>
      <trkpt lat="47.4085" lon="0.6084">
        <ele>106.2</ele>
        <time>2023-07-14T06:40:32Z</time>
      </trkpt>
      <trkpt lat="47.40852" lon="0.6084">
        <ele>106.2</ele>
        <time>2023-07-14T06:40:33Z</time>
      </trkpt>
      <trkpt lat="47.40853" lon="0.6084">
        <ele>106.2</ele>
        <time>2023-07-14T06:40:34Z</time>
      </trkpt>
      <trkpt lat="47.40854" lon="0.60839">
        <ele>106.2</ele>
        <time>2023-07-14T06:40:35Z</time>
      </trkpt>
      <trkpt lat="47.40855" lon="0.60837">
        <ele>106.2</ele>
        <time>2023-07-14T06:40:36Z</time>
      </trkpt>
      <trkpt lat="47.40857" lon="0.60836">
        <ele>106.2</ele>
        <time>2023-07-14T06:40:37Z</time>
      </trkpt>
      <trkpt lat="47.40858" lon="0.60834">
        <ele>106.2</ele>
        <time>2023-07-14T06:40:38Z</time>
      </trkpt>
      <trkpt lat="47.40859" lon="0.60833">
        <ele>106.2</ele>
        <time>2023-07-14T06:40:39Z</time>
      </trkpt>
      <trkpt lat="47.40861" lon="0.60832">
        <ele>106.2</ele>
        <time>2023-07-14T06:40:40Z</time>
      </trkpt>
      <trkpt lat="47.40862" lon="0.60831">
        <ele>106.2</ele>
        <time>2023-07-14T06:40:41Z</time>
      </trkpt>
      <trkpt lat="47.40863" lon="0.60829">
        <ele>106.2</ele>
        <time>2023-07-14T06:40:42Z</time>
      </trkpt>
      <trkpt lat="47.40865" lon="0.60828">
        <ele>106.2</ele>
        <time>2023-07-14T06:40:43Z</time>
      </trkpt>
      <trkpt lat="47.40867" lon="0.60825">
        <ele>106.2</ele>
        <time>2023-07-14T06:40:44Z</time>
      </trkpt>
      <trkpt lat="47.40868" lon="0.60823">
        <ele>106.2</ele>
        <time>2023-07-14T06:40:45Z</time>
      </trkpt>
      <trkpt lat="47.4087" lon="0.6082">
        <ele>106.2</ele>
        <time>2023-07-14T06:40:46Z</time>
      </trkpt>
      <trkpt lat="47.40872" lon="0.60818">
        <ele>106.2</ele>
        <time>2023-07-14T06:40:47Z</time>
      </trkpt>
      <trkpt lat="47.40874" lon="0.60815">
        <ele>106.2</ele>
        <time>2023-07-14T06:40:48Z</time>
      </trkpt>
      <trkpt lat="47.40876" lon="0.60811">
        <ele>106.4</ele>
        <time>2023-07-14T06:40:49Z</time>
      </trkpt>
      <trkpt lat="47.40879" lon="0.60807">
        <ele>106.4</ele>
        <time>2023-07-14T06:40:50Z</time>
      </trkpt>
      <trkpt lat="47.40881" lon="0.60802">
        <ele>106.4</ele>
        <time>2023-07-14T06:40:51Z</time>
      </trkpt>
      <trkpt lat="47.40884" lon="0.60797">
        <ele>106.4</ele>
        <time>2023-07-14T06:40:52Z</time>
      </trkpt>
      <trkpt lat="47.40886" lon="0.60793">
        <ele>106.4</ele>
        <time>2023-07-14T06:40:53Z</time>
      </trkpt>
      <trkpt lat="47.40888" lon="0.60789">
        <ele>106.4</ele>
        <time>2023-07-14T06:40:54Z</time>
      </trkpt>
      <trkpt lat="47.40891" lon="0.60786">
        <ele>106.4</ele>
        <time>2023-07-14T06:40:55Z</time>
      </trkpt>
      <trkpt lat="47.40892" lon="0.60783">
        <ele>106.4</ele>
        <time>2023-07-14T06:40:56Z</time>
      </trkpt>
      <trkpt lat="47.40893" lon="0.60781">
        <ele>106.4</ele>
        <time>2023-07-14T06:40:57Z</time>
      </trkpt>
      <trkpt lat="47.40893" lon="0.6078">
        <ele>106.4</ele>
        <time>2023-07-14T06:40:58Z</time>
      </trkpt>
      <trkpt lat="47.40894" lon="0.60779">
        <ele>106.6</ele>
        <time>2023-07-14T06:40:59Z</time>
      </trkpt>
      <trkpt lat="47.40894" lon="0.60779">
        <ele>106.6</ele>
        <time>2023-07-14T06:41:00Z</time>
      </trkpt>
      <trkpt lat="47.40893" lon="0.60777">
        <ele>106.6</ele>
        <time>2023-07-14T06:41:01Z</time>
      </trkpt>
      <trkpt lat="47.40893" lon="0.60773">
        <ele>106.6</ele>
        <time>2023-07-14T06:41:02Z</time>
      </trkpt>
      <trkpt lat="47.40893" lon="0.60769">
        <ele>106.8</ele>
        <time>2023-07-14T06:41:03Z</time>
      </trkpt>
      <trkpt lat="47.40892" lon="0.60765">
        <ele>106.8</ele>
        <time>2023-07-14T06:41:04Z</time>
      </trkpt>
      <trkpt lat="47.4089" lon="0.60762">
        <ele>106.8</ele>
        <time>2023-07-14T06:41:05Z</time>
      </trkpt>
      <trkpt lat="47.40889" lon="0.60759">
        <ele>106.6</ele>
        <time>2023-07-14T06:41:06Z</time>
      </trkpt>
      <trkpt lat="47.40887" lon="0.60757">
        <ele>106.6</ele>
        <time>2023-07-14T06:41:07Z</time>
      </trkpt>
      <trkpt lat="47.40884" lon="0.60755">
        <ele>106.8</ele>
        <time>2023-07-14T06:41:08Z</time>
      </trkpt>
      <trkpt lat="47.40882" lon="0.60753">
        <ele>106.8</ele>
        <time>2023-07-14T06:41:09Z</time>
      </trkpt>
      <trkpt lat="47.4088" lon="0.60751">
        <ele>106.8</ele>
        <time>2023-07-14T06:41:10Z</time>
      </trkpt>
      <trkpt lat="47.40878" lon="0.6075">
        <ele>106.8</ele>
        <time>2023-07-14T06:41:11Z</time>
      </trkpt>
      <trkpt lat="47.40875" lon="0.60748">
        <ele>106.8</ele>
        <time>2023-07-14T06:41:12Z</time>
      </trkpt>
      <trkpt lat="47.40872" lon="0.60746">
        <ele>106.8</ele>
        <time>2023-07-14T06:41:13Z</time>
      </trkpt>
      <trkpt lat="47.40869" lon="0.60744">
        <ele>107</ele>
        <time>2023-07-14T06:41:14Z</time>
      </trkpt>
      <trkpt lat="47.40866" lon="0.60741">
        <ele>107</ele>
        <time>2023-07-14T06:41:15Z</time>
      </trkpt>
      <trkpt lat="47.40862" lon="0.60738">
        <ele>107</ele>
        <time>2023-07-14T06:41:16Z</time>
      </trkpt>
      <trkpt lat="47.40858" lon="0.60736">
        <ele>107</ele>
        <time>2023-07-14T06:41:17Z</time>
      </trkpt>
      <trkpt lat="47.40855" lon="0.60733">
        <ele>107</ele>
        <time>2023-07-14T06:41:18Z</time>
      </trkpt>
      <trkpt lat="47.40851" lon="0.6073">
        <ele>107</ele>
        <time>2023-07-14T06:41:19Z</time>
      </trkpt>
      <trkpt lat="47.40847" lon="0.60727">
        <ele>107.2</ele>
        <time>2023-07-14T06:41:20Z</time>
      </trkpt>
      <trkpt lat="47.40843" lon="0.60724">
        <ele>107.2</ele>
        <time>2023-07-14T06:41:21Z</time>
      </trkpt>
      <trkpt lat="47.40839" lon="0.60721">
        <ele>107.2</ele>
        <time>2023-07-14T06:41:22Z</time>
      </trkpt>
      <trkpt lat="47.40835" lon="0.60718">
        <ele>107.2</ele>
        <time>2023-07-14T06:41:23Z</time>
      </trkpt>
      <trkpt lat="47.40831" lon="0.60716">
        <ele>107.2</ele>
        <time>2023-07-14T06:41:24Z</time>
      </trkpt>
      <trkpt lat="47.40827" lon="0.60714">
        <ele>107.2</ele>
        <time>2023-07-14T06:41:25Z</time>
      </trkpt>
      <trkpt lat="47.40823" lon="0.60712">
        <ele>107.2</ele>
        <time>2023-07-14T06:41:26Z</time>
      </trkpt>
      <trkpt lat="47.40819" lon="0.6071">
        <ele>107.2</ele>
        <time>2023-07-14T06:41:27Z</time>
      </trkpt>
      <trkpt lat="47.40815" lon="0.60708">
        <ele>107.2</ele>
        <time>2023-07-14T06:41:28Z</time>
      </trkpt>
      <trkpt lat="47.4081" lon="0.60705">
        <ele>107</ele>
        <time>2023-07-14T06:41:29Z</time>
      </trkpt>
      <trkpt lat="47.40806" lon="0.60702">
        <ele>107</ele>
        <time>2023-07-14T06:41:30Z</time>
      </trkpt>
      <trkpt lat="47.40802" lon="0.60698">
        <ele>107</ele>
        <time>2023-07-14T06:41:31Z</time>
      </trkpt>
      <trkpt lat="47.40798" lon="0.60695">
        <ele>107</ele>
        <time>2023-07-14T06:41:32Z</time>
      </trkpt>
      <trkpt lat="47.40794" lon="0.60693">
        <ele>107</ele>
        <time>2023-07-14T06:41:33Z</time>
      </trkpt>
      <trkpt lat="47.40789" lon="0.60693">
        <ele>107.2</ele>
        <time>2023-07-14T06:41:34Z</time>
      </trkpt>
      <trkpt lat="47.40784" lon="0.60695">
        <ele>107.2</ele>
        <time>2023-07-14T06:41:35Z</time>
      </trkpt>
      <trkpt lat="47.4078" lon="0.60699">
        <ele>107.2</ele>
        <time>2023-07-14T06:41:36Z</time>
      </trkpt>
      <trkpt lat="47.40776" lon="0.60705">
        <ele>107.2</ele>
        <time>2023-07-14T06:41:37Z</time>
      </trkpt>
      <trkpt lat="47.40772" lon="0.60711">
        <ele>107.2</ele>
        <time>2023-07-14T06:41:38Z</time>
      </trkpt>
      <trkpt lat="47.40769" lon="0.60717">
        <ele>107.4</ele>
        <time>2023-07-14T06:41:39Z</time>
      </trkpt>
      <trkpt lat="47.40765" lon="0.60722">
        <ele>107.4</ele>
        <time>2023-07-14T06:41:40Z</time>
      </trkpt>
      <trkpt lat="47.40761" lon="0.60728">
        <ele>107.4</ele>
        <time>2023-07-14T06:41:41Z</time>
      </trkpt>
      <trkpt lat="47.40758" lon="0.60734">
        <ele>107.4</ele>
        <time>2023-07-14T06:41:42Z</time>
      </trkpt>
      <trkpt lat="47.40754" lon="0.60739">
        <ele>107.2</ele>
        <time>2023-07-14T06:41:43Z</time>
      </trkpt>
      <trkpt lat="47.4075" lon="0.60745">
        <ele>107.2</ele>
        <time>2023-07-14T06:41:44Z</time>
      </trkpt>
      <trkpt lat="47.40746" lon="0.60751">
        <ele>107.2</ele>
        <time>2023-07-14T06:41:45Z</time>
      </trkpt>
      <trkpt lat="47.40743" lon="0.60756">
        <ele>107.2</ele>
        <time>2023-07-14T06:41:46Z</time>
      </trkpt>
      <trkpt lat="47.40739" lon="0.60762">
        <ele>107.4</ele>
        <time>2023-07-14T06:41:47Z</time>
      </trkpt>
      <trkpt lat="47.40735" lon="0.60767">
        <ele>107.4</ele>
        <time>2023-07-14T06:41:48Z</time>
      </trkpt>
      <trkpt lat="47.40731" lon="0.60772">
        <ele>107.4</ele>
        <time>2023-07-14T06:41:49Z</time>
      </trkpt>
      <trkpt lat="47.40728" lon="0.60778">
        <ele>107.4</ele>
        <time>2023-07-14T06:41:50Z</time>
      </trkpt>
      <trkpt lat="47.40724" lon="0.60784">
        <ele>107.4</ele>
        <time>2023-07-14T06:41:51Z</time>
      </trkpt>
      <trkpt lat="47.4072" lon="0.6079">
        <ele>107.4</ele>
        <time>2023-07-14T06:41:52Z</time>
      </trkpt>
      <trkpt lat="47.40717" lon="0.60796">
        <ele>107.4</ele>
        <time>2023-07-14T06:41:53Z</time>
      </trkpt>
      <trkpt lat="47.40713" lon="0.60802">
        <ele>107.4</ele>
        <time>2023-07-14T06:41:54Z</time>
      </trkpt>
      <trkpt lat="47.40709" lon="0.60808">
        <ele>107.4</ele>
        <time>2023-07-14T06:41:55Z</time>
      </trkpt>
      <trkpt lat="47.40705" lon="0.60814">
        <ele>107.6</ele>
        <time>2023-07-14T06:41:56Z</time>
      </trkpt>
      <trkpt lat="47.40702" lon="0.6082">
        <ele>107.6</ele>
        <time>2023-07-14T06:41:57Z</time>
      </trkpt>
      <trkpt lat="47.40699" lon="0.60826">
        <ele>107.6</ele>
        <time>2023-07-14T06:41:58Z</time>
      </trkpt>
      <trkpt lat="47.40695" lon="0.60831">
        <ele>107.6</ele>
        <time>2023-07-14T06:41:59Z</time>
      </trkpt>
      <trkpt lat="47.40691" lon="0.60837">
        <ele>107.6</ele>
        <time>2023-07-14T06:42:00Z</time>
      </trkpt>
      <trkpt lat="47.40687" lon="0.60843">
        <ele>107.6</ele>
        <time>2023-07-14T06:42:01Z</time>
      </trkpt>
      <trkpt lat="47.40683" lon="0.60849">
        <ele>107.6</ele>
        <time>2023-07-14T06:42:02Z</time>
      </trkpt>
      <trkpt lat="47.4068" lon="0.60855">
        <ele>107.6</ele>
        <time>2023-07-14T06:42:03Z</time>
      </trkpt>
      <trkpt lat="47.40676" lon="0.6086">
        <ele>107.8</ele>
        <time>2023-07-14T06:42:04Z</time>
      </trkpt>
      <trkpt lat="47.40672" lon="0.60866">
        <ele>107.8</ele>
        <time>2023-07-14T06:42:05Z</time>
      </trkpt>
      <trkpt lat="47.40668" lon="0.60872">
        <ele>107.8</ele>
        <time>2023-07-14T06:42:06Z</time>
      </trkpt>
      <trkpt lat="47.40665" lon="0.60877">
        <ele>107.8</ele>
        <time>2023-07-14T06:42:07Z</time>
      </trkpt>
      <trkpt lat="47.40661" lon="0.60882">
        <ele>107.8</ele>
        <time>2023-07-14T06:42:08Z</time>
      </trkpt>
      <trkpt lat="47.40658" lon="0.60888">
        <ele>107.8</ele>
        <time>2023-07-14T06:42:09Z</time>
      </trkpt>
      <trkpt lat="47.40654" lon="0.60894">
        <ele>107.8</ele>
        <time>2023-07-14T06:42:10Z</time>
      </trkpt>
      <trkpt lat="47.40651" lon="0.609">
        <ele>108</ele>
        <time>2023-07-14T06:42:11Z</time>
      </trkpt>
      <trkpt lat="47.40647" lon="0.60906">
        <ele>108.2</ele>
        <time>2023-07-14T06:42:12Z</time>
      </trkpt>
      <trkpt lat="47.40643" lon="0.60912">
        <ele>108.2</ele>
        <time>2023-07-14T06:42:13Z</time>
      </trkpt>
      <trkpt lat="47.40639" lon="0.60919">
        <ele>108.2</ele>
        <time>2023-07-14T06:42:14Z</time>
      </trkpt>
      <trkpt lat="47.40636" lon="0.60925">
        <ele>108.2</ele>
        <time>2023-07-14T06:42:15Z</time>
      </trkpt>
      <trkpt lat="47.40632" lon="0.60931">
        <ele>108.2</ele>
        <time>2023-07-14T06:42:16Z</time>
      </trkpt>
      <trkpt lat="47.40629" lon="0.60937">
        <ele>108.2</ele>
        <time>2023-07-14T06:42:17Z</time>
      </trkpt>
      <trkpt lat="47.40625" lon="0.60944">
        <ele>108.2</ele>
        <time>2023-07-14T06:42:18Z</time>
      </trkpt>
      <trkpt lat="47.40621" lon="0.6095">
        <ele>108.2</ele>
        <time>2023-07-14T06:42:19Z</time>
      </trkpt>
      <trkpt lat="47.40618" lon="0.60957">
        <ele>108.2</ele>
        <time>2023-07-14T06:42:20Z</time>
      </trkpt>
      <trkpt lat="47.40614" lon="0.60964">
        <ele>108.2</ele>
        <time>2023-07-14T06:42:21Z</time>
      </trkpt>
      <trkpt lat="47.4061" lon="0.6097">
        <ele>108.2</ele>
        <time>2023-07-14T06:42:22Z</time>
      </trkpt>
      <trkpt lat="47.40606" lon="0.60977">
        <ele>108.4</ele>
        <time>2023-07-14T06:42:23Z</time>
      </trkpt>
      <trkpt lat="47.40603" lon="0.60983">
        <ele>108.4</ele>
        <time>2023-07-14T06:42:24Z</time>
      </trkpt>
      <trkpt lat="47.406" lon="0.6099">
        <ele>108.4</ele>
        <time>2023-07-14T06:42:25Z</time>
      </trkpt>
      <trkpt lat="47.40596" lon="0.60997">
        <ele>108.4</ele>
        <time>2023-07-14T06:42:26Z</time>
      </trkpt>
      <trkpt lat="47.40593" lon="0.61004">
        <ele>108.4</ele>
        <time>2023-07-14T06:42:27Z</time>
      </trkpt>
      <trkpt lat="47.40589" lon="0.61011">
        <ele>108.4</ele>
        <time>2023-07-14T06:42:28Z</time>
      </trkpt>
      <trkpt lat="47.40586" lon="0.61017">
        <ele>108.2</ele>
        <time>2023-07-14T06:42:29Z</time>
      </trkpt>
      <trkpt lat="47.40583" lon="0.61024">
        <ele>108.2</ele>
        <time>2023-07-14T06:42:30Z</time>
      </trkpt>
      <trkpt lat="47.40579" lon="0.61031">
        <ele>108.4</ele>
        <time>2023-07-14T06:42:31Z</time>
      </trkpt>
      <trkpt lat="47.40576" lon="0.61038">
        <ele>108.4</ele>
        <time>2023-07-14T06:42:32Z</time>
      </trkpt>
      <trkpt lat="47.40573" lon="0.61045">
        <ele>108.4</ele>
        <time>2023-07-14T06:42:33Z</time>
      </trkpt>
      <trkpt lat="47.4057" lon="0.61052">
        <ele>108.2</ele>
        <time>2023-07-14T06:42:34Z</time>
      </trkpt>
      <trkpt lat="47.40567" lon="0.6106">
        <ele>108</ele>
        <time>2023-07-14T06:42:35Z</time>
      </trkpt>
      <trkpt lat="47.40563" lon="0.61067">
        <ele>108</ele>
        <time>2023-07-14T06:42:36Z</time>
      </trkpt>
      <trkpt lat="47.4056" lon="0.61074">
        <ele>107.8</ele>
        <time>2023-07-14T06:42:37Z</time>
      </trkpt>
      <trkpt lat="47.40557" lon="0.61082">
        <ele>107.8</ele>
        <time>2023-07-14T06:42:38Z</time>
      </trkpt>
      <trkpt lat="47.40554" lon="0.61089">
        <ele>107.8</ele>
        <time>2023-07-14T06:42:39Z</time>
      </trkpt>
      <trkpt lat="47.40551" lon="0.61097">
        <ele>108</ele>
        <time>2023-07-14T06:42:40Z</time>
      </trkpt>
      <trkpt lat="47.40548" lon="0.61105">
        <ele>107.8</ele>
        <time>2023-07-14T06:42:41Z</time>
      </trkpt>
      <trkpt lat="47.40546" lon="0.61113">
        <ele>108</ele>
        <time>2023-07-14T06:42:42Z</time>
      </trkpt>
      <trkpt lat="47.40543" lon="0.61122">
        <ele>107.8</ele>
        <time>2023-07-14T06:42:43Z</time>
      </trkpt>
      <trkpt lat="47.4054" lon="0.6113">
        <ele>107.8</ele>
        <time>2023-07-14T06:42:44Z</time>
      </trkpt>
      <trkpt lat="47.40537" lon="0.61138">
        <ele>107.6</ele>
        <time>2023-07-14T06:42:45Z</time>
      </trkpt>
      <trkpt lat="47.40535" lon="0.61147">
        <ele>107.6</ele>
        <time>2023-07-14T06:42:46Z</time>
      </trkpt>
      <trkpt lat="47.40532" lon="0.61154">
        <ele>107.4</ele>
        <time>2023-07-14T06:42:47Z</time>
      </trkpt>
      <trkpt lat="47.40529" lon="0.61162">
        <ele>107.4</ele>
        <time>2023-07-14T06:42:48Z</time>
      </trkpt>
      <trkpt lat="47.40527" lon="0.61171">
        <ele>107.4</ele>
        <time>2023-07-14T06:42:49Z</time>
      </trkpt>
      <trkpt lat="47.40524" lon="0.61179">
        <ele>107.4</ele>
        <time>2023-07-14T06:42:50Z</time>
      </trkpt>
      <trkpt lat="47.40521" lon="0.61187">
        <ele>107.2</ele>
        <time>2023-07-14T06:42:51Z</time>
      </trkpt>
      <trkpt lat="47.40518" lon="0.61195">
        <ele>107.2</ele>
        <time>2023-07-14T06:42:52Z</time>
      </trkpt>
      <trkpt lat="47.40516" lon="0.61203">
        <ele>107.2</ele>
        <time>2023-07-14T06:42:53Z</time>
      </trkpt>
      <trkpt lat="47.40513" lon="0.61211">
        <ele>107.2</ele>
        <time>2023-07-14T06:42:54Z</time>
      </trkpt>
      <trkpt lat="47.40511" lon="0.61219">
        <ele>107.2</ele>
        <time>2023-07-14T06:42:55Z</time>
      </trkpt>
      <trkpt lat="47.40508" lon="0.61228">
        <ele>107.2</ele>
        <time>2023-07-14T06:42:56Z</time>
      </trkpt>
      <trkpt lat="47.40506" lon="0.61236">
        <ele>107.2</ele>
        <time>2023-07-14T06:42:57Z</time>
      </trkpt>
      <trkpt lat="47.40503" lon="0.61243">
        <ele>107.2</ele>
        <time>2023-07-14T06:42:58Z</time>
      </trkpt>
      <trkpt lat="47.405" lon="0.61251">
        <ele>107.2</ele>
        <time>2023-07-14T06:42:59Z</time>
      </trkpt>
      <trkpt lat="47.40498" lon="0.61259">
        <ele>107.2</ele>
        <time>2023-07-14T06:43:00Z</time>
      </trkpt>
      <trkpt lat="47.40495" lon="0.61266">
        <ele>107.2</ele>
        <time>2023-07-14T06:43:01Z</time>
      </trkpt>
      <trkpt lat="47.40493" lon="0.61274">
        <ele>107</ele>
        <time>2023-07-14T06:43:02Z</time>
      </trkpt>
      <trkpt lat="47.40489" lon="0.6128">
        <ele>106.8</ele>
        <time>2023-07-14T06:43:03Z</time>
      </trkpt>
      <trkpt lat="47.40486" lon="0.61285">
        <ele>106.8</ele>
        <time>2023-07-14T06:43:04Z</time>
      </trkpt>
      <trkpt lat="47.40482" lon="0.61289">
        <ele>107</ele>
        <time>2023-07-14T06:43:05Z</time>
      </trkpt>
      <trkpt lat="47.40477" lon="0.61294">
        <ele>107</ele>
        <time>2023-07-14T06:43:06Z</time>
      </trkpt>
      <trkpt lat="47.40475" lon="0.613">
        <ele>107</ele>
        <time>2023-07-14T06:43:07Z</time>
      </trkpt>
      <trkpt lat="47.40473" lon="0.61308">
        <ele>107</ele>
        <time>2023-07-14T06:43:08Z</time>
      </trkpt>
      <trkpt lat="47.40472" lon="0.61316">
        <ele>107</ele>
        <time>2023-07-14T06:43:09Z</time>
      </trkpt>
      <trkpt lat="47.40472" lon="0.61325">
        <ele>107.2</ele>
        <time>2023-07-14T06:43:10Z</time>
      </trkpt>
      <trkpt lat="47.40472" lon="0.61333">
        <ele>107</ele>
        <time>2023-07-14T06:43:11Z</time>
      </trkpt>
      <trkpt lat="47.40472" lon="0.61342">
        <ele>107</ele>
        <time>2023-07-14T06:43:12Z</time>
      </trkpt>
      <trkpt lat="47.40473" lon="0.61351">
        <ele>107</ele>
        <time>2023-07-14T06:43:13Z</time>
      </trkpt>
      <trkpt lat="47.40473" lon="0.6136">
        <ele>107</ele>
        <time>2023-07-14T06:43:14Z</time>
      </trkpt>
      <trkpt lat="47.40473" lon="0.61369">
        <ele>107</ele>
        <time>2023-07-14T06:43:15Z</time>
      </trkpt>
      <trkpt lat="47.40473" lon="0.61379">
        <ele>107</ele>
        <time>2023-07-14T06:43:16Z</time>
      </trkpt>
      <trkpt lat="47.40472" lon="0.61388">
        <ele>107</ele>
        <time>2023-07-14T06:43:17Z</time>
      </trkpt>
      <trkpt lat="47.40471" lon="0.61398">
        <ele>107</ele>
        <time>2023-07-14T06:43:18Z</time>
      </trkpt>
      <trkpt lat="47.40471" lon="0.61407">
        <ele>107</ele>
        <time>2023-07-14T06:43:19Z</time>
      </trkpt>
      <trkpt lat="47.4047" lon="0.61416">
        <ele>107</ele>
        <time>2023-07-14T06:43:20Z</time>
      </trkpt>
      <trkpt lat="47.4047" lon="0.61426">
        <ele>107</ele>
        <time>2023-07-14T06:43:21Z</time>
      </trkpt>
      <trkpt lat="47.4047" lon="0.61436">
        <ele>106.8</ele>
        <time>2023-07-14T06:43:22Z</time>
      </trkpt>
      <trkpt lat="47.40469" lon="0.61446">
        <ele>106.6</ele>
        <time>2023-07-14T06:43:23Z</time>
      </trkpt>
      <trkpt lat="47.40469" lon="0.61456">
        <ele>106.6</ele>
        <time>2023-07-14T06:43:24Z</time>
      </trkpt>
      <trkpt lat="47.40468" lon="0.61466">
        <ele>106.4</ele>
        <time>2023-07-14T06:43:25Z</time>
      </trkpt>
      <trkpt lat="47.40467" lon="0.61476">
        <ele>106.2</ele>
        <time>2023-07-14T06:43:26Z</time>
      </trkpt>
      <trkpt lat="47.40467" lon="0.61486">
        <ele>106</ele>
        <time>2023-07-14T06:43:27Z</time>
      </trkpt>
      <trkpt lat="47.40466" lon="0.61496">
        <ele>105.8</ele>
        <time>2023-07-14T06:43:28Z</time>
      </trkpt>
      <trkpt lat="47.40466" lon="0.61506">
        <ele>105.8</ele>
        <time>2023-07-14T06:43:29Z</time>
      </trkpt>
      <trkpt lat="47.40465" lon="0.61516">
        <ele>105.6</ele>
        <time>2023-07-14T06:43:30Z</time>
      </trkpt>
      <trkpt lat="47.40464" lon="0.61526">
        <ele>105.6</ele>
        <time>2023-07-14T06:43:31Z</time>
      </trkpt>
      <trkpt lat="47.40464" lon="0.61537">
        <ele>105.6</ele>
        <time>2023-07-14T06:43:32Z</time>
      </trkpt>
      <trkpt lat="47.40463" lon="0.61547">
        <ele>105.4</ele>
        <time>2023-07-14T06:43:33Z</time>
      </trkpt>
      <trkpt lat="47.40463" lon="0.61557">
        <ele>105.4</ele>
        <time>2023-07-14T06:43:34Z</time>
      </trkpt>
      <trkpt lat="47.40462" lon="0.61567">
        <ele>105.2</ele>
        <time>2023-07-14T06:43:35Z</time>
      </trkpt>
      <trkpt lat="47.40462" lon="0.61577">
        <ele>105</ele>
        <time>2023-07-14T06:43:36Z</time>
      </trkpt>
      <trkpt lat="47.40462" lon="0.61587">
        <ele>104.8</ele>
        <time>2023-07-14T06:43:37Z</time>
      </trkpt>
      <trkpt lat="47.40462" lon="0.61597">
        <ele>104.8</ele>
        <time>2023-07-14T06:43:38Z</time>
      </trkpt>
      <trkpt lat="47.40462" lon="0.61608">
        <ele>104.6</ele>
        <time>2023-07-14T06:43:39Z</time>
      </trkpt>
      <trkpt lat="47.40462" lon="0.61618">
        <ele>104.6</ele>
        <time>2023-07-14T06:43:40Z</time>
      </trkpt>
      <trkpt lat="47.40462" lon="0.61628">
        <ele>104.4</ele>
        <time>2023-07-14T06:43:41Z</time>
      </trkpt>
      <trkpt lat="47.40462" lon="0.61637">
        <ele>104.2</ele>
        <time>2023-07-14T06:43:42Z</time>
      </trkpt>
      <trkpt lat="47.40462" lon="0.61648">
        <ele>104</ele>
        <time>2023-07-14T06:43:43Z</time>
      </trkpt>
      <trkpt lat="47.40462" lon="0.61658">
        <ele>104</ele>
        <time>2023-07-14T06:43:44Z</time>
      </trkpt>
      <trkpt lat="47.40462" lon="0.61668">
        <ele>103.8</ele>
        <time>2023-07-14T06:43:45Z</time>
      </trkpt>
      <trkpt lat="47.40463" lon="0.61677">
        <ele>103.8</ele>
        <time>2023-07-14T06:43:46Z</time>
      </trkpt>
      <trkpt lat="47.40464" lon="0.61686">
        <ele>103.4</ele>
        <time>2023-07-14T06:43:47Z</time>
      </trkpt>
      <trkpt lat="47.40467" lon="0.61694">
        <ele>103.2</ele>
        <time>2023-07-14T06:43:48Z</time>
      </trkpt>
      <trkpt lat="47.40469" lon="0.617">
        <ele>103.2</ele>
        <time>2023-07-14T06:43:49Z</time>
      </trkpt>
      <trkpt lat="47.40471" lon="0.61707">
        <ele>103.2</ele>
        <time>2023-07-14T06:43:50Z</time>
      </trkpt>
      <trkpt lat="47.40472" lon="0.61715">
        <ele>103.2</ele>
        <time>2023-07-14T06:43:51Z</time>
      </trkpt>
      <trkpt lat="47.40472" lon="0.61723">
        <ele>103</ele>
        <time>2023-07-14T06:43:52Z</time>
      </trkpt>
      <trkpt lat="47.40472" lon="0.61731">
        <ele>103</ele>
        <time>2023-07-14T06:43:53Z</time>
      </trkpt>
      <trkpt lat="47.40472" lon="0.6174">
        <ele>103.2</ele>
        <time>2023-07-14T06:43:54Z</time>
      </trkpt>
      <trkpt lat="47.40472" lon="0.61748">
        <ele>103.2</ele>
        <time>2023-07-14T06:43:55Z</time>
      </trkpt>
      <trkpt lat="47.40472" lon="0.61757">
        <ele>103.4</ele>
        <time>2023-07-14T06:43:56Z</time>
      </trkpt>
      <trkpt lat="47.40473" lon="0.61765">
        <ele>103.4</ele>
        <time>2023-07-14T06:43:57Z</time>
      </trkpt>
      <trkpt lat="47.40473" lon="0.61773">
        <ele>103.2</ele>
        <time>2023-07-14T06:43:58Z</time>
      </trkpt>
      <trkpt lat="47.40472" lon="0.61782">
        <ele>103.4</ele>
        <time>2023-07-14T06:43:59Z</time>
      </trkpt>
      <trkpt lat="47.40471" lon="0.6179">
        <ele>103.4</ele>
        <time>2023-07-14T06:44:00Z</time>
      </trkpt>
      <trkpt lat="47.4047" lon="0.61797">
        <ele>103.4</ele>
        <time>2023-07-14T06:44:01Z</time>
      </trkpt>
      <trkpt lat="47.40469" lon="0.61807">
        <ele>103.6</ele>
        <time>2023-07-14T06:44:02Z</time>
      </trkpt>
      <trkpt lat="47.40468" lon="0.61816">
        <ele>103.8</ele>
        <time>2023-07-14T06:44:03Z</time>
      </trkpt>
      <trkpt lat="47.40467" lon="0.61824">
        <ele>104</ele>
        <time>2023-07-14T06:44:04Z</time>
      </trkpt>
      <trkpt lat="47.40467" lon="0.61832">
        <ele>104</ele>
        <time>2023-07-14T06:44:05Z</time>
      </trkpt>
      <trkpt lat="47.40466" lon="0.61841">
        <ele>104.2</ele>
        <time>2023-07-14T06:44:06Z</time>
      </trkpt>
      <trkpt lat="47.40466" lon="0.61849">
        <ele>104.2</ele>
        <time>2023-07-14T06:44:07Z</time>
      </trkpt>
      <trkpt lat="47.40465" lon="0.61858">
        <ele>104.2</ele>
        <time>2023-07-14T06:44:08Z</time>
      </trkpt>
      <trkpt lat="47.40464" lon="0.61866">
        <ele>104.2</ele>
        <time>2023-07-14T06:44:09Z</time>
      </trkpt>
      <trkpt lat="47.40463" lon="0.61874">
        <ele>104.2</ele>
        <time>2023-07-14T06:44:10Z</time>
      </trkpt>
      <trkpt lat="47.40462" lon="0.61883">
        <ele>104.4</ele>
        <time>2023-07-14T06:44:11Z</time>
      </trkpt>
      <trkpt lat="47.40461" lon="0.61891">
        <ele>104.4</ele>
        <time>2023-07-14T06:44:12Z</time>
      </trkpt>
      <trkpt lat="47.4046" lon="0.61899">
        <ele>104.4</ele>
        <time>2023-07-14T06:44:13Z</time>
      </trkpt>
      <trkpt lat="47.40459" lon="0.61907">
        <ele>104.6</ele>
        <time>2023-07-14T06:44:14Z</time>
      </trkpt>
      <trkpt lat="47.40458" lon="0.61916">
        <ele>104.8</ele>
        <time>2023-07-14T06:44:15Z</time>
      </trkpt>
      <trkpt lat="47.40456" lon="0.61924">
        <ele>105</ele>
        <time>2023-07-14T06:44:16Z</time>
      </trkpt>
      <trkpt lat="47.40454" lon="0.61932">
        <ele>105.2</ele>
        <time>2023-07-14T06:44:17Z</time>
      </trkpt>
      <trkpt lat="47.40453" lon="0.6194">
        <ele>105.2</ele>
        <time>2023-07-14T06:44:18Z</time>
      </trkpt>
      <trkpt lat="47.40452" lon="0.61948">
        <ele>105.4</ele>
        <time>2023-07-14T06:44:19Z</time>
      </trkpt>
      <trkpt lat="47.4045" lon="0.61956">
        <ele>105.6</ele>
        <time>2023-07-14T06:44:20Z</time>
      </trkpt>
      <trkpt lat="47.40449" lon="0.61965">
        <ele>105.6</ele>
        <time>2023-07-14T06:44:21Z</time>
      </trkpt>
      <trkpt lat="47.40448" lon="0.61973">
        <ele>105.8</ele>
        <time>2023-07-14T06:44:22Z</time>
      </trkpt>
      <trkpt lat="47.40446" lon="0.61981">
        <ele>105.8</ele>
        <time>2023-07-14T06:44:23Z</time>
      </trkpt>
      <trkpt lat="47.40445" lon="0.61988">
        <ele>106</ele>
        <time>2023-07-14T06:44:24Z</time>
      </trkpt>
      <trkpt lat="47.40442" lon="0.61996">
        <ele>106</ele>
        <time>2023-07-14T06:44:25Z</time>
      </trkpt>
      <trkpt lat="47.40441" lon="0.62004">
        <ele>106</ele>
        <time>2023-07-14T06:44:26Z</time>
      </trkpt>
      <trkpt lat="47.40439" lon="0.62011">
        <ele>106.2</ele>
        <time>2023-07-14T06:44:27Z</time>
      </trkpt>
      <trkpt lat="47.40438" lon="0.62019">
        <ele>106</ele>
        <time>2023-07-14T06:44:28Z</time>
      </trkpt>
      <trkpt lat="47.40436" lon="0.62027">
        <ele>105.8</ele>
        <time>2023-07-14T06:44:29Z</time>
      </trkpt>
      <trkpt lat="47.40435" lon="0.62034">
        <ele>105.8</ele>
        <time>2023-07-14T06:44:30Z</time>
      </trkpt>
      <trkpt lat="47.40433" lon="0.62043">
        <ele>105.8</ele>
        <time>2023-07-14T06:44:31Z</time>
      </trkpt>
      <trkpt lat="47.40432" lon="0.62051">
        <ele>105.6</ele>
        <time>2023-07-14T06:44:32Z</time>
      </trkpt>
      <trkpt lat="47.4043" lon="0.62059">
        <ele>105.8</ele>
        <time>2023-07-14T06:44:33Z</time>
      </trkpt>
      <trkpt lat="47.40429" lon="0.62067">
        <ele>105.8</ele>
        <time>2023-07-14T06:44:34Z</time>
      </trkpt>
      <trkpt lat="47.40427" lon="0.62076">
        <ele>106</ele>
        <time>2023-07-14T06:44:35Z</time>
      </trkpt>
      <trkpt lat="47.40425" lon="0.62084">
        <ele>106</ele>
        <time>2023-07-14T06:44:36Z</time>
      </trkpt>
      <trkpt lat="47.40424" lon="0.62093">
        <ele>106</ele>
        <time>2023-07-14T06:44:37Z</time>
      </trkpt>
      <trkpt lat="47.40422" lon="0.62101">
        <ele>105.8</ele>
        <time>2023-07-14T06:44:38Z</time>
      </trkpt>
      <trkpt lat="47.4042" lon="0.62109">
        <ele>105.8</ele>
        <time>2023-07-14T06:44:39Z</time>
      </trkpt>
      <trkpt lat="47.40418" lon="0.62117">
        <ele>105.8</ele>
        <time>2023-07-14T06:44:40Z</time>
      </trkpt>
      <trkpt lat="47.40417" lon="0.62126">
        <ele>105.8</ele>
        <time>2023-07-14T06:44:41Z</time>
      </trkpt>
      <trkpt lat="47.40415" lon="0.62134">
        <ele>105.8</ele>
        <time>2023-07-14T06:44:42Z</time>
      </trkpt>
      <trkpt lat="47.40414" lon="0.62142">
        <ele>105.8</ele>
        <time>2023-07-14T06:44:43Z</time>
      </trkpt>
      <trkpt lat="47.40412" lon="0.6215">
        <ele>106</ele>
        <time>2023-07-14T06:44:44Z</time>
      </trkpt>
      <trkpt lat="47.4041" lon="0.62159">
        <ele>106</ele>
        <time>2023-07-14T06:44:45Z</time>
      </trkpt>
      <trkpt lat="47.40409" lon="0.62166">
        <ele>106.2</ele>
        <time>2023-07-14T06:44:46Z</time>
      </trkpt>
      <trkpt lat="47.40407" lon="0.62174">
        <ele>106.2</ele>
        <time>2023-07-14T06:44:47Z</time>
      </trkpt>
      <trkpt lat="47.40406" lon="0.62183">
        <ele>106.2</ele>
        <time>2023-07-14T06:44:48Z</time>
      </trkpt>
      <trkpt lat="47.40405" lon="0.62191">
        <ele>106.4</ele>
        <time>2023-07-14T06:44:49Z</time>
      </trkpt>
      <trkpt lat="47.40403" lon="0.622">
        <ele>106.4</ele>
        <time>2023-07-14T06:44:50Z</time>
      </trkpt>
      <trkpt lat="47.40401" lon="0.62208">
        <ele>106.6</ele>
        <time>2023-07-14T06:44:51Z</time>
      </trkpt>
      <trkpt lat="47.404" lon="0.62216">
        <ele>106.6</ele>
        <time>2023-07-14T06:44:52Z</time>
      </trkpt>
      <trkpt lat="47.40398" lon="0.62224">
        <ele>106.6</ele>
        <time>2023-07-14T06:44:53Z</time>
      </trkpt>
      <trkpt lat="47.40396" lon="0.62232">
        <ele>106.8</ele>
        <time>2023-07-14T06:44:54Z</time>
      </trkpt>
      <trkpt lat="47.40395" lon="0.6224">
        <ele>106.8</ele>
        <time>2023-07-14T06:44:55Z</time>
      </trkpt>
      <trkpt lat="47.40394" lon="0.62249">
        <ele>106.8</ele>
        <time>2023-07-14T06:44:56Z</time>
      </trkpt>
      <trkpt lat="47.40392" lon="0.62257">
        <ele>107</ele>
        <time>2023-07-14T06:44:57Z</time>
      </trkpt>
      <trkpt lat="47.40391" lon="0.62264">
        <ele>107.2</ele>
        <time>2023-07-14T06:44:58Z</time>
      </trkpt>
      <trkpt lat="47.40389" lon="0.62272">
        <ele>107.2</ele>
        <time>2023-07-14T06:44:59Z</time>
      </trkpt>
      <trkpt lat="47.40388" lon="0.6228">
        <ele>107.4</ele>
        <time>2023-07-14T06:45:00Z</time>
      </trkpt>
      <trkpt lat="47.40387" lon="0.62287">
        <ele>107.6</ele>
        <time>2023-07-14T06:45:01Z</time>
      </trkpt>
      <trkpt lat="47.40385" lon="0.62295">
        <ele>107.6</ele>
        <time>2023-07-14T06:45:02Z</time>
      </trkpt>
      <trkpt lat="47.40384" lon="0.62302">
        <ele>107.6</ele>
        <time>2023-07-14T06:45:03Z</time>
      </trkpt>
      <trkpt lat="47.40383" lon="0.6231">
        <ele>107.4</ele>
        <time>2023-07-14T06:45:04Z</time>
      </trkpt>
      <trkpt lat="47.40382" lon="0.62317">
        <ele>107.4</ele>
        <time>2023-07-14T06:45:05Z</time>
      </trkpt>
      <trkpt lat="47.4038" lon="0.62324">
        <ele>107.6</ele>
        <time>2023-07-14T06:45:06Z</time>
      </trkpt>
      <trkpt lat="47.40379" lon="0.62331">
        <ele>107.6</ele>
        <time>2023-07-14T06:45:07Z</time>
      </trkpt>
      <trkpt lat="47.40378" lon="0.62339">
        <ele>107.8</ele>
        <time>2023-07-14T06:45:08Z</time>
      </trkpt>
      <trkpt lat="47.40377" lon="0.62347">
        <ele>107.8</ele>
        <time>2023-07-14T06:45:09Z</time>
      </trkpt>
      <trkpt lat="47.40376" lon="0.62355">
        <ele>107.8</ele>
        <time>2023-07-14T06:45:10Z</time>
      </trkpt>
      <trkpt lat="47.40375" lon="0.62363">
        <ele>107.8</ele>
        <time>2023-07-14T06:45:11Z</time>
      </trkpt>
      <trkpt lat="47.40374" lon="0.62372">
        <ele>107.8</ele>
        <time>2023-07-14T06:45:12Z</time>
      </trkpt>
      <trkpt lat="47.40372" lon="0.6238">
        <ele>107.8</ele>
        <time>2023-07-14T06:45:13Z</time>
      </trkpt>
      <trkpt lat="47.40371" lon="0.62389">
        <ele>107.8</ele>
        <time>2023-07-14T06:45:14Z</time>
      </trkpt>
      <trkpt lat="47.40369" lon="0.62397">
        <ele>107.8</ele>
        <time>2023-07-14T06:45:15Z</time>
      </trkpt>
      <trkpt lat="47.40368" lon="0.62406">
        <ele>107.8</ele>
        <time>2023-07-14T06:45:16Z</time>
      </trkpt>
      <trkpt lat="47.40367" lon="0.62415">
        <ele>107.6</ele>
        <time>2023-07-14T06:45:17Z</time>
      </trkpt>
      <trkpt lat="47.40365" lon="0.62424">
        <ele>107.6</ele>
        <time>2023-07-14T06:45:18Z</time>
      </trkpt>
      <trkpt lat="47.40364" lon="0.62432">
        <ele>107.6</ele>
        <time>2023-07-14T06:45:19Z</time>
      </trkpt>
      <trkpt lat="47.40362" lon="0.62441">
        <ele>107.6</ele>
        <time>2023-07-14T06:45:20Z</time>
      </trkpt>
      <trkpt lat="47.40361" lon="0.6245">
        <ele>107.8</ele>
        <time>2023-07-14T06:45:21Z</time>
      </trkpt>
      <trkpt lat="47.40359" lon="0.62459">
        <ele>107.8</ele>
        <time>2023-07-14T06:45:22Z</time>
      </trkpt>
      <trkpt lat="47.40358" lon="0.62468">
        <ele>107.6</ele>
        <time>2023-07-14T06:45:23Z</time>
      </trkpt>
      <trkpt lat="47.40356" lon="0.62477">
        <ele>107.4</ele>
        <time>2023-07-14T06:45:24Z</time>
      </trkpt>
      <trkpt lat="47.40355" lon="0.62486">
        <ele>107.4</ele>
        <time>2023-07-14T06:45:25Z</time>
      </trkpt>
      <trkpt lat="47.40353" lon="0.62495">
        <ele>107.2</ele>
        <time>2023-07-14T06:45:26Z</time>
      </trkpt>
      <trkpt lat="47.40352" lon="0.62504">
        <ele>107.2</ele>
        <time>2023-07-14T06:45:27Z</time>
      </trkpt>
      <trkpt lat="47.40351" lon="0.62513">
        <ele>107</ele>
        <time>2023-07-14T06:45:28Z</time>
      </trkpt>
      <trkpt lat="47.4035" lon="0.62521">
        <ele>107</ele>
        <time>2023-07-14T06:45:29Z</time>
      </trkpt>
      <trkpt lat="47.40349" lon="0.62528">
        <ele>106.8</ele>
        <time>2023-07-14T06:45:30Z</time>
      </trkpt>
      <trkpt lat="47.40347" lon="0.62534">
        <ele>106.6</ele>
        <time>2023-07-14T06:45:31Z</time>
      </trkpt>
      <trkpt lat="47.40345" lon="0.6254">
        <ele>106.4</ele>
        <time>2023-07-14T06:45:32Z</time>
      </trkpt>
      <trkpt lat="47.40343" lon="0.62547">
        <ele>106.2</ele>
        <time>2023-07-14T06:45:33Z</time>
      </trkpt>
      <trkpt lat="47.40342" lon="0.62555">
        <ele>106.4</ele>
        <time>2023-07-14T06:45:34Z</time>
      </trkpt>
      <trkpt lat="47.4034" lon="0.62563">
        <ele>106.4</ele>
        <time>2023-07-14T06:45:35Z</time>
      </trkpt>
      <trkpt lat="47.40339" lon="0.62571">
        <ele>106.4</ele>
        <time>2023-07-14T06:45:36Z</time>
      </trkpt>
      <trkpt lat="47.40337" lon="0.62579">
        <ele>106.4</ele>
        <time>2023-07-14T06:45:37Z</time>
      </trkpt>
      <trkpt lat="47.40336" lon="0.62587">
        <ele>106.4</ele>
        <time>2023-07-14T06:45:38Z</time>
      </trkpt>
      <trkpt lat="47.40334" lon="0.62596">
        <ele>106.4</ele>
        <time>2023-07-14T06:45:39Z</time>
      </trkpt>
      <trkpt lat="47.40332" lon="0.62605">
        <ele>106.4</ele>
        <time>2023-07-14T06:45:40Z</time>
      </trkpt>
      <trkpt lat="47.4033" lon="0.62613">
        <ele>106.4</ele>
        <time>2023-07-14T06:45:41Z</time>
      </trkpt>
      <trkpt lat="47.40327" lon="0.62622">
        <ele>106.4</ele>
        <time>2023-07-14T06:45:42Z</time>
      </trkpt>
      <trkpt lat="47.40325" lon="0.62631">
        <ele>106.4</ele>
        <time>2023-07-14T06:45:43Z</time>
      </trkpt>
      <trkpt lat="47.40323" lon="0.6264">
        <ele>106.4</ele>
        <time>2023-07-14T06:45:44Z</time>
      </trkpt>
      <trkpt lat="47.40321" lon="0.62648">
        <ele>106.4</ele>
        <time>2023-07-14T06:45:45Z</time>
      </trkpt>
      <trkpt lat="47.40319" lon="0.62657">
        <ele>106.4</ele>
        <time>2023-07-14T06:45:46Z</time>
      </trkpt>
      <trkpt lat="47.40317" lon="0.62666">
        <ele>106.4</ele>
        <time>2023-07-14T06:45:47Z</time>
      </trkpt>
      <trkpt lat="47.40314" lon="0.62675">
        <ele>106.4</ele>
        <time>2023-07-14T06:45:48Z</time>
      </trkpt>
      <trkpt lat="47.40313" lon="0.62684">
        <ele>106.4</ele>
        <time>2023-07-14T06:45:49Z</time>
      </trkpt>
      <trkpt lat="47.4031" lon="0.62693">
        <ele>106.2</ele>
        <time>2023-07-14T06:45:50Z</time>
      </trkpt>
      <trkpt lat="47.40308" lon="0.62702">
        <ele>106.2</ele>
        <time>2023-07-14T06:45:51Z</time>
      </trkpt>
      <trkpt lat="47.40306" lon="0.62711">
        <ele>106</ele>
        <time>2023-07-14T06:45:52Z</time>
      </trkpt>
      <trkpt lat="47.40304" lon="0.62721">
        <ele>106</ele>
        <time>2023-07-14T06:45:53Z</time>
      </trkpt>
      <trkpt lat="47.40302" lon="0.6273">
        <ele>105.8</ele>
        <time>2023-07-14T06:45:54Z</time>
      </trkpt>
      <trkpt lat="47.40299" lon="0.62739">
        <ele>105.8</ele>
        <time>2023-07-14T06:45:55Z</time>
      </trkpt>
      <trkpt lat="47.40297" lon="0.62748">
        <ele>105.8</ele>
        <time>2023-07-14T06:45:56Z</time>
      </trkpt>
      <trkpt lat="47.40295" lon="0.62757">
        <ele>105.6</ele>
        <time>2023-07-14T06:45:57Z</time>
      </trkpt>
      <trkpt lat="47.40292" lon="0.62767">
        <ele>105.6</ele>
        <time>2023-07-14T06:45:58Z</time>
      </trkpt>
      <trkpt lat="47.4029" lon="0.62776">
        <ele>105.4</ele>
        <time>2023-07-14T06:45:59Z</time>
      </trkpt>
      <trkpt lat="47.40287" lon="0.62785">
        <ele>105.6</ele>
        <time>2023-07-14T06:46:00Z</time>
      </trkpt>
      <trkpt lat="47.40285" lon="0.62794">
        <ele>105.4</ele>
        <time>2023-07-14T06:46:01Z</time>
      </trkpt>
      <trkpt lat="47.40284" lon="0.62804">
        <ele>105.4</ele>
        <time>2023-07-14T06:46:02Z</time>
      </trkpt>
      <trkpt lat="47.40281" lon="0.62813">
        <ele>105.2</ele>
        <time>2023-07-14T06:46:03Z</time>
      </trkpt>
      <trkpt lat="47.40279" lon="0.62822">
        <ele>105.2</ele>
        <time>2023-07-14T06:46:04Z</time>
      </trkpt>
      <trkpt lat="47.40279" lon="0.62832">
        <ele>105</ele>
        <time>2023-07-14T06:46:05Z</time>
      </trkpt>
      <trkpt lat="47.40279" lon="0.62841">
        <ele>105</ele>
        <time>2023-07-14T06:46:06Z</time>
      </trkpt>
      <trkpt lat="47.4028" lon="0.62851">
        <ele>104.8</ele>
        <time>2023-07-14T06:46:07Z</time>
      </trkpt>
      <trkpt lat="47.4028" lon="0.6286">
        <ele>104.8</ele>
        <time>2023-07-14T06:46:08Z</time>
      </trkpt>
      <trkpt lat="47.40279" lon="0.62869">
        <ele>105</ele>
        <time>2023-07-14T06:46:09Z</time>
      </trkpt>
      <trkpt lat="47.40276" lon="0.62878">
        <ele>105</ele>
        <time>2023-07-14T06:46:10Z</time>
      </trkpt>
      <trkpt lat="47.40272" lon="0.62885">
        <ele>105</ele>
        <time>2023-07-14T06:46:11Z</time>
      </trkpt>
      <trkpt lat="47.40267" lon="0.62892">
        <ele>105.2</ele>
        <time>2023-07-14T06:46:12Z</time>
      </trkpt>
      <trkpt lat="47.40263" lon="0.62899">
        <ele>105</ele>
        <time>2023-07-14T06:46:13Z</time>
      </trkpt>
      <trkpt lat="47.40259" lon="0.62907">
        <ele>105</ele>
        <time>2023-07-14T06:46:14Z</time>
      </trkpt>
      <trkpt lat="47.40256" lon="0.62915">
        <ele>105</ele>
        <time>2023-07-14T06:46:15Z</time>
      </trkpt>
      <trkpt lat="47.40253" lon="0.62925">
        <ele>105.2</ele>
        <time>2023-07-14T06:46:16Z</time>
      </trkpt>
      <trkpt lat="47.4025" lon="0.62934">
        <ele>105</ele>
        <time>2023-07-14T06:46:17Z</time>
      </trkpt>
      <trkpt lat="47.40247" lon="0.62944">
        <ele>105</ele>
        <time>2023-07-14T06:46:18Z</time>
      </trkpt>
      <trkpt lat="47.40245" lon="0.62953">
        <ele>105</ele>
        <time>2023-07-14T06:46:19Z</time>
      </trkpt>
      <trkpt lat="47.40243" lon="0.62963">
        <ele>104.8</ele>
        <time>2023-07-14T06:46:20Z</time>
      </trkpt>
      <trkpt lat="47.4024" lon="0.62972">
        <ele>104.8</ele>
        <time>2023-07-14T06:46:21Z</time>
      </trkpt>
      <trkpt lat="47.40237" lon="0.62982">
        <ele>104.8</ele>
        <time>2023-07-14T06:46:22Z</time>
      </trkpt>
      <trkpt lat="47.40235" lon="0.62991">
        <ele>104.6</ele>
        <time>2023-07-14T06:46:23Z</time>
      </trkpt>
      <trkpt lat="47.40233" lon="0.63">
        <ele>104.6</ele>
        <time>2023-07-14T06:46:24Z</time>
      </trkpt>
      <trkpt lat="47.4023" lon="0.63009">
        <ele>104.6</ele>
        <time>2023-07-14T06:46:25Z</time>
      </trkpt>
      <trkpt lat="47.40228" lon="0.63018">
        <ele>104.6</ele>
        <time>2023-07-14T06:46:26Z</time>
      </trkpt>
      <trkpt lat="47.40225" lon="0.63027">
        <ele>104.6</ele>
        <time>2023-07-14T06:46:27Z</time>
      </trkpt>
      <trkpt lat="47.40223" lon="0.63036">
        <ele>104.6</ele>
        <time>2023-07-14T06:46:28Z</time>
      </trkpt>
      <trkpt lat="47.4022" lon="0.63045">
        <ele>104.8</ele>
        <time>2023-07-14T06:46:29Z</time>
      </trkpt>
      <trkpt lat="47.40218" lon="0.63054">
        <ele>104.8</ele>
        <time>2023-07-14T06:46:30Z</time>
      </trkpt>
      <trkpt lat="47.40215" lon="0.63063">
        <ele>105</ele>
        <time>2023-07-14T06:46:31Z</time>
      </trkpt>
      <trkpt lat="47.40213" lon="0.63072">
        <ele>105</ele>
        <time>2023-07-14T06:46:32Z</time>
      </trkpt>
      <trkpt lat="47.4021" lon="0.63081">
        <ele>105</ele>
        <time>2023-07-14T06:46:33Z</time>
      </trkpt>
      <trkpt lat="47.40207" lon="0.63089">
        <ele>104.8</ele>
        <time>2023-07-14T06:46:34Z</time>
      </trkpt>
      <trkpt lat="47.40203" lon="0.63097">
        <ele>104.8</ele>
        <time>2023-07-14T06:46:35Z</time>
      </trkpt>
      <trkpt lat="47.402" lon="0.63105">
        <ele>104.8</ele>
        <time>2023-07-14T06:46:36Z</time>
      </trkpt>
      <trkpt lat="47.40196" lon="0.63114">
        <ele>104.6</ele>
        <time>2023-07-14T06:46:37Z</time>
      </trkpt>
      <trkpt lat="47.40192" lon="0.63121">
        <ele>104.6</ele>
        <time>2023-07-14T06:46:38Z</time>
      </trkpt>
      <trkpt lat="47.40188" lon="0.63129">
        <ele>104.6</ele>
        <time>2023-07-14T06:46:39Z</time>
      </trkpt>
      <trkpt lat="47.40184" lon="0.63137">
        <ele>104.6</ele>
        <time>2023-07-14T06:46:40Z</time>
      </trkpt>
      <trkpt lat="47.4018" lon="0.63144">
        <ele>104.6</ele>
        <time>2023-07-14T06:46:41Z</time>
      </trkpt>
      <trkpt lat="47.40176" lon="0.63151">
        <ele>104.8</ele>
        <time>2023-07-14T06:46:42Z</time>
      </trkpt>
      <trkpt lat="47.40171" lon="0.63158">
        <ele>104.6</ele>
        <time>2023-07-14T06:46:43Z</time>
      </trkpt>
      <trkpt lat="47.40166" lon="0.63165">
        <ele>104.8</ele>
        <time>2023-07-14T06:46:44Z</time>
      </trkpt>
      <trkpt lat="47.40161" lon="0.63172">
        <ele>104.8</ele>
        <time>2023-07-14T06:46:45Z</time>
      </trkpt>
      <trkpt lat="47.40157" lon="0.63178">
        <ele>104.8</ele>
        <time>2023-07-14T06:46:46Z</time>
      </trkpt>
      <trkpt lat="47.40152" lon="0.63185">
        <ele>104.8</ele>
        <time>2023-07-14T06:46:47Z</time>
      </trkpt>
      <trkpt lat="47.40147" lon="0.63192">
        <ele>104.8</ele>
        <time>2023-07-14T06:46:48Z</time>
      </trkpt>
      <trkpt lat="47.40142" lon="0.63199">
        <ele>104.8</ele>
        <time>2023-07-14T06:46:49Z</time>
      </trkpt>
      <trkpt lat="47.40137" lon="0.63205">
        <ele>104.8</ele>
        <time>2023-07-14T06:46:50Z</time>
      </trkpt>
      <trkpt lat="47.40132" lon="0.63211">
        <ele>104.8</ele>
        <time>2023-07-14T06:46:51Z</time>
      </trkpt>
      <trkpt lat="47.40127" lon="0.63217">
        <ele>104.6</ele>
        <time>2023-07-14T06:46:52Z</time>
      </trkpt>
      <trkpt lat="47.40121" lon="0.63223">
        <ele>104.4</ele>
        <time>2023-07-14T06:46:53Z</time>
      </trkpt>
      <trkpt lat="47.40116" lon="0.63229">
        <ele>104.2</ele>
        <time>2023-07-14T06:46:54Z</time>
      </trkpt>
      <trkpt lat="47.4011" lon="0.63234">
        <ele>104.2</ele>
        <time>2023-07-14T06:46:55Z</time>
      </trkpt>
      <trkpt lat="47.40104" lon="0.63239">
        <ele>104.2</ele>
        <time>2023-07-14T06:46:56Z</time>
      </trkpt>
      <trkpt lat="47.40098" lon="0.63245">
        <ele>103.8</ele>
        <time>2023-07-14T06:46:57Z</time>
      </trkpt>
      <trkpt lat="47.40092" lon="0.63251">
        <ele>103.6</ele>
        <time>2023-07-14T06:46:58Z</time>
      </trkpt>
      <trkpt lat="47.40087" lon="0.63257">
        <ele>103.6</ele>
        <time>2023-07-14T06:46:59Z</time>
      </trkpt>
      <trkpt lat="47.40081" lon="0.63263">
        <ele>103.4</ele>
        <time>2023-07-14T06:47:00Z</time>
      </trkpt>
      <trkpt lat="47.40076" lon="0.63269">
        <ele>103.2</ele>
        <time>2023-07-14T06:47:01Z</time>
      </trkpt>
      <trkpt lat="47.4007" lon="0.63276">
        <ele>103.2</ele>
        <time>2023-07-14T06:47:02Z</time>
      </trkpt>
      <trkpt lat="47.40065" lon="0.63282">
        <ele>103</ele>
        <time>2023-07-14T06:47:03Z</time>
      </trkpt>
      <trkpt lat="47.4006" lon="0.63288">
        <ele>103</ele>
        <time>2023-07-14T06:47:04Z</time>
      </trkpt>
      <trkpt lat="47.40054" lon="0.63295">
        <ele>103</ele>
        <time>2023-07-14T06:47:05Z</time>
      </trkpt>
      <trkpt lat="47.40049" lon="0.63302">
        <ele>102.8</ele>
        <time>2023-07-14T06:47:06Z</time>
      </trkpt>
      <trkpt lat="47.40044" lon="0.63308">
        <ele>102.6</ele>
        <time>2023-07-14T06:47:07Z</time>
      </trkpt>
      <trkpt lat="47.40039" lon="0.63315">
        <ele>102.6</ele>
        <time>2023-07-14T06:47:08Z</time>
      </trkpt>
      <trkpt lat="47.40033" lon="0.63321">
        <ele>102.4</ele>
        <time>2023-07-14T06:47:09Z</time>
      </trkpt>
      <trkpt lat="47.40028" lon="0.63328">
        <ele>102.4</ele>
        <time>2023-07-14T06:47:10Z</time>
      </trkpt>
      <trkpt lat="47.40023" lon="0.63334">
        <ele>102.4</ele>
        <time>2023-07-14T06:47:11Z</time>
      </trkpt>
      <trkpt lat="47.40017" lon="0.63341">
        <ele>102.4</ele>
        <time>2023-07-14T06:47:12Z</time>
      </trkpt>
      <trkpt lat="47.40012" lon="0.63347">
        <ele>102.2</ele>
        <time>2023-07-14T06:47:13Z</time>
      </trkpt>
      <trkpt lat="47.40006" lon="0.63353">
        <ele>102.2</ele>
        <time>2023-07-14T06:47:14Z</time>
      </trkpt>
      <trkpt lat="47.40001" lon="0.6336">
        <ele>102</ele>
        <time>2023-07-14T06:47:15Z</time>
      </trkpt>
      <trkpt lat="47.39996" lon="0.63366">
        <ele>101.8</ele>
        <time>2023-07-14T06:47:16Z</time>
      </trkpt>
      <trkpt lat="47.3999" lon="0.63373">
        <ele>101.8</ele>
        <time>2023-07-14T06:47:17Z</time>
      </trkpt>
      <trkpt lat="47.39986" lon="0.6338">
        <ele>101.6</ele>
        <time>2023-07-14T06:47:18Z</time>
      </trkpt>
      <trkpt lat="47.39981" lon="0.63387">
        <ele>101.6</ele>
        <time>2023-07-14T06:47:19Z</time>
      </trkpt>
      <trkpt lat="47.39976" lon="0.63393">
        <ele>101.6</ele>
        <time>2023-07-14T06:47:20Z</time>
      </trkpt>
      <trkpt lat="47.39972" lon="0.63398">
        <ele>101.4</ele>
        <time>2023-07-14T06:47:21Z</time>
      </trkpt>
      <trkpt lat="47.39967" lon="0.63403">
        <ele>101.4</ele>
        <time>2023-07-14T06:47:22Z</time>
      </trkpt>
      <trkpt lat="47.39962" lon="0.63408">
        <ele>101.4</ele>
        <time>2023-07-14T06:47:23Z</time>
      </trkpt>
      <trkpt lat="47.39957" lon="0.63412">
        <ele>101.4</ele>
        <time>2023-07-14T06:47:24Z</time>
      </trkpt>
      <trkpt lat="47.39953" lon="0.63418">
        <ele>101.2</ele>
        <time>2023-07-14T06:47:25Z</time>
      </trkpt>
      <trkpt lat="47.39949" lon="0.63424">
        <ele>101.2</ele>
        <time>2023-07-14T06:47:26Z</time>
      </trkpt>
      <trkpt lat="47.39948" lon="0.63433">
        <ele>101</ele>
        <time>2023-07-14T06:47:27Z</time>
      </trkpt>
      <trkpt lat="47.39948" lon="0.63442">
        <ele>100.8</ele>
        <time>2023-07-14T06:47:28Z</time>
      </trkpt>
      <trkpt lat="47.3995" lon="0.6345">
        <ele>100.8</ele>
        <time>2023-07-14T06:47:29Z</time>
      </trkpt>
      <trkpt lat="47.39953" lon="0.63458">
        <ele>100.8</ele>
        <time>2023-07-14T06:47:30Z</time>
      </trkpt>
      <trkpt lat="47.39957" lon="0.63465">
        <ele>100.8</ele>
        <time>2023-07-14T06:47:31Z</time>
      </trkpt>
      <trkpt lat="47.39961" lon="0.63472">
        <ele>100.8</ele>
        <time>2023-07-14T06:47:32Z</time>
      </trkpt>
      <trkpt lat="47.39964" lon="0.6348">
        <ele>100.8</ele>
        <time>2023-07-14T06:47:33Z</time>
      </trkpt>
      <trkpt lat="47.39967" lon="0.63488">
        <ele>101</ele>
        <time>2023-07-14T06:47:34Z</time>
      </trkpt>
      <trkpt lat="47.3997" lon="0.63495">
        <ele>101.2</ele>
        <time>2023-07-14T06:47:35Z</time>
      </trkpt>
      <trkpt lat="47.39973" lon="0.63503">
        <ele>101.2</ele>
        <time>2023-07-14T06:47:36Z</time>
      </trkpt>
      <trkpt lat="47.39976" lon="0.63511">
        <ele>101.4</ele>
        <time>2023-07-14T06:47:37Z</time>
      </trkpt>
      <trkpt lat="47.39979" lon="0.63519">
        <ele>101.6</ele>
        <time>2023-07-14T06:47:38Z</time>
      </trkpt>
      <trkpt lat="47.39981" lon="0.63527">
        <ele>101.6</ele>
        <time>2023-07-14T06:47:39Z</time>
      </trkpt>
      <trkpt lat="47.39985" lon="0.63535">
        <ele>101.8</ele>
        <time>2023-07-14T06:47:40Z</time>
      </trkpt>
      <trkpt lat="47.39988" lon="0.63543">
        <ele>102</ele>
        <time>2023-07-14T06:47:41Z</time>
      </trkpt>
      <trkpt lat="47.39991" lon="0.6355">
        <ele>102</ele>
        <time>2023-07-14T06:47:42Z</time>
      </trkpt>
      <trkpt lat="47.39993" lon="0.63559">
        <ele>102</ele>
        <time>2023-07-14T06:47:43Z</time>
      </trkpt>
      <trkpt lat="47.39996" lon="0.63566">
        <ele>102.4</ele>
        <time>2023-07-14T06:47:44Z</time>
      </trkpt>
      <trkpt lat="47.39999" lon="0.63574">
        <ele>102.4</ele>
        <time>2023-07-14T06:47:45Z</time>
      </trkpt>
      <trkpt lat="47.40002" lon="0.63582">
        <ele>102.6</ele>
        <time>2023-07-14T06:47:46Z</time>
      </trkpt>
      <trkpt lat="47.40005" lon="0.6359">
        <ele>102.6</ele>
        <time>2023-07-14T06:47:47Z</time>
      </trkpt>
      <trkpt lat="47.40008" lon="0.63597">
        <ele>102.8</ele>
        <time>2023-07-14T06:47:48Z</time>
      </trkpt>
      <trkpt lat="47.40011" lon="0.63605">
        <ele>102.8</ele>
        <time>2023-07-14T06:47:49Z</time>
      </trkpt>
      <trkpt lat="47.40014" lon="0.63613">
        <ele>102.8</ele>
        <time>2023-07-14T06:47:50Z</time>
      </trkpt>
      <trkpt lat="47.40016" lon="0.63621">
        <ele>103</ele>
        <time>2023-07-14T06:47:51Z</time>
      </trkpt>
      <trkpt lat="47.40019" lon="0.63628">
        <ele>103</ele>
        <time>2023-07-14T06:47:52Z</time>
      </trkpt>
      <trkpt lat="47.40022" lon="0.63636">
        <ele>103</ele>
        <time>2023-07-14T06:47:53Z</time>
      </trkpt>
      <trkpt lat="47.40025" lon="0.63644">
        <ele>103.2</ele>
        <time>2023-07-14T06:47:54Z</time>
      </trkpt>
      <trkpt lat="47.40028" lon="0.63653">
        <ele>103.2</ele>
        <time>2023-07-14T06:47:55Z</time>
      </trkpt>
      <trkpt lat="47.4003" lon="0.63661">
        <ele>103.4</ele>
        <time>2023-07-14T06:47:56Z</time>
      </trkpt>
      <trkpt lat="47.40033" lon="0.63668">
        <ele>103.4</ele>
        <time>2023-07-14T06:47:57Z</time>
      </trkpt>
      <trkpt lat="47.40036" lon="0.63676">
        <ele>103.4</ele>
        <time>2023-07-14T06:47:58Z</time>
      </trkpt>
      <trkpt lat="47.40039" lon="0.63684">
        <ele>103.4</ele>
        <time>2023-07-14T06:47:59Z</time>
      </trkpt>
      <trkpt lat="47.40042" lon="0.63691">
        <ele>103.4</ele>
        <time>2023-07-14T06:48:00Z</time>
      </trkpt>
      <trkpt lat="47.40046" lon="0.637">
        <ele>103.4</ele>
        <time>2023-07-14T06:48:01Z</time>
      </trkpt>
      <trkpt lat="47.40049" lon="0.63708">
        <ele>103.4</ele>
        <time>2023-07-14T06:48:02Z</time>
      </trkpt>
      <trkpt lat="47.40051" lon="0.63717">
        <ele>103.4</ele>
        <time>2023-07-14T06:48:03Z</time>
      </trkpt>
      <trkpt lat="47.40054" lon="0.63726">
        <ele>103.4</ele>
        <time>2023-07-14T06:48:04Z</time>
      </trkpt>
      <trkpt lat="47.40055" lon="0.63736">
        <ele>103.4</ele>
        <time>2023-07-14T06:48:05Z</time>
      </trkpt>
      <trkpt lat="47.40057" lon="0.63745">
        <ele>103.4</ele>
        <time>2023-07-14T06:48:06Z</time>
      </trkpt>
      <trkpt lat="47.40059" lon="0.63755">
        <ele>103.4</ele>
        <time>2023-07-14T06:48:07Z</time>
      </trkpt>
      <trkpt lat="47.4006" lon="0.63765">
        <ele>103.4</ele>
        <time>2023-07-14T06:48:08Z</time>
      </trkpt>
      <trkpt lat="47.40062" lon="0.63774">
        <ele>103.4</ele>
        <time>2023-07-14T06:48:09Z</time>
      </trkpt>
      <trkpt lat="47.40062" lon="0.63784">
        <ele>103.4</ele>
        <time>2023-07-14T06:48:10Z</time>
      </trkpt>
      <trkpt lat="47.40063" lon="0.63794">
        <ele>103.4</ele>
        <time>2023-07-14T06:48:11Z</time>
      </trkpt>
      <trkpt lat="47.40063" lon="0.63803">
        <ele>103.2</ele>
        <time>2023-07-14T06:48:12Z</time>
      </trkpt>
      <trkpt lat="47.40063" lon="0.63813">
        <ele>103.2</ele>
        <time>2023-07-14T06:48:13Z</time>
      </trkpt>
      <trkpt lat="47.40062" lon="0.63824">
        <ele>103.2</ele>
        <time>2023-07-14T06:48:14Z</time>
      </trkpt>
      <trkpt lat="47.4006" lon="0.63834">
        <ele>103.2</ele>
        <time>2023-07-14T06:48:15Z</time>
      </trkpt>
      <trkpt lat="47.40059" lon="0.63844">
        <ele>103.2</ele>
        <time>2023-07-14T06:48:16Z</time>
      </trkpt>
      <trkpt lat="47.40057" lon="0.63854">
        <ele>103.2</ele>
        <time>2023-07-14T06:48:17Z</time>
      </trkpt>
      <trkpt lat="47.40055" lon="0.63863">
        <ele>103.2</ele>
        <time>2023-07-14T06:48:18Z</time>
      </trkpt>
      <trkpt lat="47.40053" lon="0.63872">
        <ele>103.2</ele>
        <time>2023-07-14T06:48:19Z</time>
      </trkpt>
      <trkpt lat="47.4005" lon="0.63882">
        <ele>103.2</ele>
        <time>2023-07-14T06:48:20Z</time>
      </trkpt>
      <trkpt lat="47.40047" lon="0.63891">
        <ele>103</ele>
        <time>2023-07-14T06:48:21Z</time>
      </trkpt>
      <trkpt lat="47.40043" lon="0.639">
        <ele>103</ele>
        <time>2023-07-14T06:48:22Z</time>
      </trkpt>
      <trkpt lat="47.4004" lon="0.63908">
        <ele>103</ele>
        <time>2023-07-14T06:48:23Z</time>
      </trkpt>
      <trkpt lat="47.40036" lon="0.63917">
        <ele>103</ele>
        <time>2023-07-14T06:48:24Z</time>
      </trkpt>
      <trkpt lat="47.40032" lon="0.63925">
        <ele>103</ele>
        <time>2023-07-14T06:48:25Z</time>
      </trkpt>
      <trkpt lat="47.40027" lon="0.63932">
        <ele>102.8</ele>
        <time>2023-07-14T06:48:26Z</time>
      </trkpt>
      <trkpt lat="47.40022" lon="0.6394">
        <ele>103</ele>
        <time>2023-07-14T06:48:27Z</time>
      </trkpt>
      <trkpt lat="47.40017" lon="0.63947">
        <ele>102.8</ele>
        <time>2023-07-14T06:48:28Z</time>
      </trkpt>
      <trkpt lat="47.40013" lon="0.63954">
        <ele>102.6</ele>
        <time>2023-07-14T06:48:29Z</time>
      </trkpt>
      <trkpt lat="47.40008" lon="0.63962">
        <ele>102.6</ele>
        <time>2023-07-14T06:48:30Z</time>
      </trkpt>
      <trkpt lat="47.40003" lon="0.63969">
        <ele>102.4</ele>
        <time>2023-07-14T06:48:31Z</time>
      </trkpt>
      <trkpt lat="47.39998" lon="0.63976">
        <ele>102.2</ele>
        <time>2023-07-14T06:48:32Z</time>
      </trkpt>
      <trkpt lat="47.39993" lon="0.63984">
        <ele>101.8</ele>
        <time>2023-07-14T06:48:33Z</time>
      </trkpt>
      <trkpt lat="47.39987" lon="0.63992">
        <ele>101.6</ele>
        <time>2023-07-14T06:48:34Z</time>
      </trkpt>
      <trkpt lat="47.39982" lon="0.64">
        <ele>101.4</ele>
        <time>2023-07-14T06:48:35Z</time>
      </trkpt>
      <trkpt lat="47.39976" lon="0.64007">
        <ele>101</ele>
        <time>2023-07-14T06:48:36Z</time>
      </trkpt>
      <trkpt lat="47.3997" lon="0.64016">
        <ele>100.6</ele>
        <time>2023-07-14T06:48:37Z</time>
      </trkpt>
      <trkpt lat="47.39964" lon="0.64024">
        <ele>100.4</ele>
        <time>2023-07-14T06:48:38Z</time>
      </trkpt>
      <trkpt lat="47.39957" lon="0.64033">
        <ele>100</ele>
        <time>2023-07-14T06:48:39Z</time>
      </trkpt>
      <trkpt lat="47.39951" lon="0.64042">
        <ele>99.6</ele>
        <time>2023-07-14T06:48:40Z</time>
      </trkpt>
      <trkpt lat="47.39944" lon="0.64051">
        <ele>99.2</ele>
        <time>2023-07-14T06:48:41Z</time>
      </trkpt>
      <trkpt lat="47.39937" lon="0.6406">
        <ele>98.8</ele>
        <time>2023-07-14T06:48:42Z</time>
      </trkpt>
      <trkpt lat="47.3993" lon="0.6407">
        <ele>98.6</ele>
        <time>2023-07-14T06:48:43Z</time>
      </trkpt>
      <trkpt lat="47.39923" lon="0.64079">
        <ele>98.2</ele>
        <time>2023-07-14T06:48:44Z</time>
      </trkpt>
      <trkpt lat="47.39917" lon="0.64089">
        <ele>97.6</ele>
        <time>2023-07-14T06:48:45Z</time>
      </trkpt>
      <trkpt lat="47.39911" lon="0.64098">
        <ele>97</ele>
        <time>2023-07-14T06:48:46Z</time>
      </trkpt>
      <trkpt lat="47.39904" lon="0.64109">
        <ele>96.6</ele>
        <time>2023-07-14T06:48:47Z</time>
      </trkpt>
      <trkpt lat="47.39899" lon="0.64121">
        <ele>96</ele>
        <time>2023-07-14T06:48:48Z</time>
      </trkpt>
      <trkpt lat="47.39894" lon="0.64133">
        <ele>95.4</ele>
        <time>2023-07-14T06:48:49Z</time>
      </trkpt>
      <trkpt lat="47.39891" lon="0.64147">
        <ele>94.8</ele>
        <time>2023-07-14T06:48:50Z</time>
      </trkpt>
      <trkpt lat="47.3989" lon="0.64161">
        <ele>94.2</ele>
        <time>2023-07-14T06:48:51Z</time>
      </trkpt>
      <trkpt lat="47.3989" lon="0.64176">
        <ele>93.6</ele>
        <time>2023-07-14T06:48:52Z</time>
      </trkpt>
      <trkpt lat="47.39892" lon="0.64191">
        <ele>93.2</ele>
        <time>2023-07-14T06:48:53Z</time>
      </trkpt>
      <trkpt lat="47.39896" lon="0.64205">
        <ele>92.6</ele>
        <time>2023-07-14T06:48:54Z</time>
      </trkpt>
      <trkpt lat="47.399" lon="0.6422">
        <ele>92</ele>
        <time>2023-07-14T06:48:55Z</time>
      </trkpt>
      <trkpt lat="47.39906" lon="0.64233">
        <ele>91.2</ele>
        <time>2023-07-14T06:48:56Z</time>
      </trkpt>
      <trkpt lat="47.39911" lon="0.64246">
        <ele>90.6</ele>
        <time>2023-07-14T06:48:57Z</time>
      </trkpt>
      <trkpt lat="47.39917" lon="0.6426">
        <ele>89.8</ele>
        <time>2023-07-14T06:48:58Z</time>
      </trkpt>
      <trkpt lat="47.39923" lon="0.64273">
        <ele>89.2</ele>
        <time>2023-07-14T06:48:59Z</time>
      </trkpt>
      <trkpt lat="47.39929" lon="0.64287">
        <ele>88.2</ele>
        <time>2023-07-14T06:49:00Z</time>
      </trkpt>
      <trkpt lat="47.39935" lon="0.643">
        <ele>87.4</ele>
        <time>2023-07-14T06:49:01Z</time>
      </trkpt>
      <trkpt lat="47.39941" lon="0.64313">
        <ele>86.6</ele>
        <time>2023-07-14T06:49:02Z</time>
      </trkpt>
      <trkpt lat="47.39946" lon="0.64327">
        <ele>85.8</ele>
        <time>2023-07-14T06:49:03Z</time>
      </trkpt>
      <trkpt lat="47.39952" lon="0.64342">
        <ele>85</ele>
        <time>2023-07-14T06:49:04Z</time>
      </trkpt>
      <trkpt lat="47.39957" lon="0.64357">
        <ele>84.2</ele>
        <time>2023-07-14T06:49:05Z</time>
      </trkpt>
      <trkpt lat="47.3996" lon="0.64373">
        <ele>83.4</ele>
        <time>2023-07-14T06:49:06Z</time>
      </trkpt>
      <trkpt lat="47.39964" lon="0.64388">
        <ele>82.8</ele>
        <time>2023-07-14T06:49:07Z</time>
      </trkpt>
      <trkpt lat="47.39965" lon="0.64403">
        <ele>82.2</ele>
        <time>2023-07-14T06:49:08Z</time>
      </trkpt>
      <trkpt lat="47.39965" lon="0.64419">
        <ele>81.6</ele>
        <time>2023-07-14T06:49:09Z</time>
      </trkpt>
      <trkpt lat="47.39962" lon="0.64435">
        <ele>81</ele>
        <time>2023-07-14T06:49:10Z</time>
      </trkpt>
      <trkpt lat="47.39956" lon="0.6445">
        <ele>80.2</ele>
        <time>2023-07-14T06:49:11Z</time>
      </trkpt>
      <trkpt lat="47.39949" lon="0.64464">
        <ele>79.4</ele>
        <time>2023-07-14T06:49:12Z</time>
      </trkpt>
      <trkpt lat="47.39941" lon="0.64476">
        <ele>78.6</ele>
        <time>2023-07-14T06:49:13Z</time>
      </trkpt>
      <trkpt lat="47.39932" lon="0.64486">
        <ele>77.8</ele>
        <time>2023-07-14T06:49:14Z</time>
      </trkpt>
      <trkpt lat="47.39921" lon="0.64494">
        <ele>77.2</ele>
        <time>2023-07-14T06:49:15Z</time>
      </trkpt>
      <trkpt lat="47.3991" lon="0.645">
        <ele>76.4</ele>
        <time>2023-07-14T06:49:16Z</time>
      </trkpt>
      <trkpt lat="47.39899" lon="0.64506">
        <ele>75.4</ele>
        <time>2023-07-14T06:49:17Z</time>
      </trkpt>
      <trkpt lat="47.39888" lon="0.64512">
        <ele>74.6</ele>
        <time>2023-07-14T06:49:18Z</time>
      </trkpt>
      <trkpt lat="47.39877" lon="0.64519">
        <ele>73.8</ele>
        <time>2023-07-14T06:49:19Z</time>
      </trkpt>
      <trkpt lat="47.39867" lon="0.64525">
        <ele>73.2</ele>
        <time>2023-07-14T06:49:20Z</time>
      </trkpt>
      <trkpt lat="47.39856" lon="0.64531">
        <ele>72.4</ele>
        <time>2023-07-14T06:49:21Z</time>
      </trkpt>
      <trkpt lat="47.39846" lon="0.64537">
        <ele>71.8</ele>
        <time>2023-07-14T06:49:22Z</time>
      </trkpt>
      <trkpt lat="47.39835" lon="0.64544">
        <ele>70.8</ele>
        <time>2023-07-14T06:49:23Z</time>
      </trkpt>
      <trkpt lat="47.39825" lon="0.6455">
        <ele>70.2</ele>
        <time>2023-07-14T06:49:24Z</time>
      </trkpt>
      <trkpt lat="47.39815" lon="0.64557">
        <ele>69.4</ele>
        <time>2023-07-14T06:49:25Z</time>
      </trkpt>
      <trkpt lat="47.39805" lon="0.64561">
        <ele>68.8</ele>
        <time>2023-07-14T06:49:26Z</time>
      </trkpt>
      <trkpt lat="47.39795" lon="0.64564">
        <ele>68</ele>
        <time>2023-07-14T06:49:27Z</time>
      </trkpt>
      <trkpt lat="47.39785" lon="0.64565">
        <ele>67.4</ele>
        <time>2023-07-14T06:49:28Z</time>
      </trkpt>
      <trkpt lat="47.39775" lon="0.64564">
        <ele>67</ele>
        <time>2023-07-14T06:49:29Z</time>
      </trkpt>
      <trkpt lat="47.39765" lon="0.64562">
        <ele>66.6</ele>
        <time>2023-07-14T06:49:30Z</time>
      </trkpt>
      <trkpt lat="47.39755" lon="0.6456">
        <ele>66</ele>
        <time>2023-07-14T06:49:31Z</time>
      </trkpt>
      <trkpt lat="47.39745" lon="0.64558">
        <ele>65.8</ele>
        <time>2023-07-14T06:49:32Z</time>
      </trkpt>
      <trkpt lat="47.39735" lon="0.64555">
        <ele>65.4</ele>
        <time>2023-07-14T06:49:33Z</time>
      </trkpt>
      <trkpt lat="47.39725" lon="0.64552">
        <ele>65</ele>
        <time>2023-07-14T06:49:34Z</time>
      </trkpt>
      <trkpt lat="47.39716" lon="0.6455">
        <ele>64.6</ele>
        <time>2023-07-14T06:49:35Z</time>
      </trkpt>
      <trkpt lat="47.39706" lon="0.64547">
        <ele>64.2</ele>
        <time>2023-07-14T06:49:36Z</time>
      </trkpt>
      <trkpt lat="47.39698" lon="0.64545">
        <ele>63.6</ele>
        <time>2023-07-14T06:49:37Z</time>
      </trkpt>
      <trkpt lat="47.39688" lon="0.64542">
        <ele>63</ele>
        <time>2023-07-14T06:49:38Z</time>
      </trkpt>
      <trkpt lat="47.39679" lon="0.64539">
        <ele>62.6</ele>
        <time>2023-07-14T06:49:39Z</time>
      </trkpt>
      <trkpt lat="47.3967" lon="0.64536">
        <ele>62.4</ele>
        <time>2023-07-14T06:49:40Z</time>
      </trkpt>
      <trkpt lat="47.39661" lon="0.64534">
        <ele>62.2</ele>
        <time>2023-07-14T06:49:41Z</time>
      </trkpt>
      <trkpt lat="47.39652" lon="0.64532">
        <ele>62</ele>
        <time>2023-07-14T06:49:42Z</time>
      </trkpt>
      <trkpt lat="47.39644" lon="0.64531">
        <ele>61.8</ele>
        <time>2023-07-14T06:49:43Z</time>
      </trkpt>
      <trkpt lat="47.39636" lon="0.6453">
        <ele>61.6</ele>
        <time>2023-07-14T06:49:44Z</time>
      </trkpt>
      <trkpt lat="47.39628" lon="0.6453">
        <ele>61.6</ele>
        <time>2023-07-14T06:49:45Z</time>
      </trkpt>
      <trkpt lat="47.39621" lon="0.6453">
        <ele>61.4</ele>
        <time>2023-07-14T06:49:46Z</time>
      </trkpt>
      <trkpt lat="47.39614" lon="0.6453">
        <ele>61.2</ele>
        <time>2023-07-14T06:49:47Z</time>
      </trkpt>
      <trkpt lat="47.39607" lon="0.6453">
        <ele>61</ele>
        <time>2023-07-14T06:49:48Z</time>
      </trkpt>
      <trkpt lat="47.396" lon="0.64532">
        <ele>61.2</ele>
        <time>2023-07-14T06:49:49Z</time>
      </trkpt>
      <trkpt lat="47.39594" lon="0.64533">
        <ele>61.2</ele>
        <time>2023-07-14T06:49:50Z</time>
      </trkpt>
      <trkpt lat="47.39587" lon="0.64533">
        <ele>61.4</ele>
        <time>2023-07-14T06:49:51Z</time>
      </trkpt>
      <trkpt lat="47.39581" lon="0.64533">
        <ele>61.6</ele>
        <time>2023-07-14T06:49:52Z</time>
      </trkpt>
      <trkpt lat="47.39573" lon="0.64533">
        <ele>61.8</ele>
        <time>2023-07-14T06:49:53Z</time>
      </trkpt>
      <trkpt lat="47.39566" lon="0.64533">
        <ele>62</ele>
        <time>2023-07-14T06:49:54Z</time>
      </trkpt>
      <trkpt lat="47.39559" lon="0.64534">
        <ele>62</ele>
        <time>2023-07-14T06:49:55Z</time>
      </trkpt>
      <trkpt lat="47.39552" lon="0.64535">
        <ele>62</ele>
        <time>2023-07-14T06:49:56Z</time>
      </trkpt>
      <trkpt lat="47.39544" lon="0.64534">
        <ele>62.2</ele>
        <time>2023-07-14T06:49:57Z</time>
      </trkpt>
      <trkpt lat="47.39537" lon="0.64534">
        <ele>62.2</ele>
        <time>2023-07-14T06:49:58Z</time>
      </trkpt>
      <trkpt lat="47.39529" lon="0.64536">
        <ele>62.2</ele>
        <time>2023-07-14T06:49:59Z</time>
      </trkpt>
      <trkpt lat="47.39522" lon="0.64539">
        <ele>62.2</ele>
        <time>2023-07-14T06:50:00Z</time>
      </trkpt>
      <trkpt lat="47.39515" lon="0.64543">
        <ele>62.4</ele>
        <time>2023-07-14T06:50:01Z</time>
      </trkpt>
      <trkpt lat="47.39508" lon="0.64548">
        <ele>62.4</ele>
        <time>2023-07-14T06:50:02Z</time>
      </trkpt>
      <trkpt lat="47.39501" lon="0.64553">
        <ele>62.4</ele>
        <time>2023-07-14T06:50:03Z</time>
      </trkpt>
      <trkpt lat="47.39495" lon="0.64558">
        <ele>62.6</ele>
        <time>2023-07-14T06:50:04Z</time>
      </trkpt>
      <trkpt lat="47.39488" lon="0.64563">
        <ele>62.6</ele>
        <time>2023-07-14T06:50:05Z</time>
      </trkpt>
      <trkpt lat="47.39482" lon="0.64568">
        <ele>62.8</ele>
        <time>2023-07-14T06:50:06Z</time>
      </trkpt>
      <trkpt lat="47.39476" lon="0.64572">
        <ele>63</ele>
        <time>2023-07-14T06:50:07Z</time>
      </trkpt>
      <trkpt lat="47.3947" lon="0.64577">
        <ele>63</ele>
        <time>2023-07-14T06:50:08Z</time>
      </trkpt>
      <trkpt lat="47.39463" lon="0.64582">
        <ele>63.2</ele>
        <time>2023-07-14T06:50:09Z</time>
      </trkpt>
      <trkpt lat="47.39458" lon="0.64587">
        <ele>63.4</ele>
        <time>2023-07-14T06:50:10Z</time>
      </trkpt>
      <trkpt lat="47.39452" lon="0.64592">
        <ele>63.6</ele>
        <time>2023-07-14T06:50:11Z</time>
      </trkpt>
      <trkpt lat="47.39447" lon="0.64597">
        <ele>63.8</ele>
        <time>2023-07-14T06:50:12Z</time>
      </trkpt>
      <trkpt lat="47.39441" lon="0.64602">
        <ele>63.8</ele>
        <time>2023-07-14T06:50:13Z</time>
      </trkpt>
      <trkpt lat="47.39435" lon="0.64606">
        <ele>64</ele>
        <time>2023-07-14T06:50:14Z</time>
      </trkpt>
      <trkpt lat="47.39429" lon="0.64611">
        <ele>64</ele>
        <time>2023-07-14T06:50:15Z</time>
      </trkpt>
      <trkpt lat="47.39423" lon="0.64615">
        <ele>64</ele>
        <time>2023-07-14T06:50:16Z</time>
      </trkpt>
      <trkpt lat="47.39416" lon="0.6462">
        <ele>64</ele>
        <time>2023-07-14T06:50:17Z</time>
      </trkpt>
      <trkpt lat="47.3941" lon="0.64624">
        <ele>63.8</ele>
        <time>2023-07-14T06:50:18Z</time>
      </trkpt>
      <trkpt lat="47.39404" lon="0.64628">
        <ele>63.8</ele>
        <time>2023-07-14T06:50:19Z</time>
      </trkpt>
      <trkpt lat="47.39397" lon="0.64633">
        <ele>63.8</ele>
        <time>2023-07-14T06:50:20Z</time>
      </trkpt>
      <trkpt lat="47.39391" lon="0.64637">
        <ele>63.8</ele>
        <time>2023-07-14T06:50:21Z</time>
      </trkpt>
      <trkpt lat="47.39384" lon="0.64642">
        <ele>63.6</ele>
        <time>2023-07-14T06:50:22Z</time>
      </trkpt>
      <trkpt lat="47.39377" lon="0.64647">
        <ele>63.6</ele>
        <time>2023-07-14T06:50:23Z</time>
      </trkpt>
      <trkpt lat="47.3937" lon="0.64652">
        <ele>63.4</ele>
        <time>2023-07-14T06:50:24Z</time>
      </trkpt>
      <trkpt lat="47.39363" lon="0.64657">
        <ele>63.4</ele>
        <time>2023-07-14T06:50:25Z</time>
      </trkpt>
      <trkpt lat="47.39357" lon="0.64661">
        <ele>63</ele>
        <time>2023-07-14T06:50:26Z</time>
      </trkpt>
      <trkpt lat="47.39351" lon="0.64666">
        <ele>62.6</ele>
        <time>2023-07-14T06:50:27Z</time>
      </trkpt>
      <trkpt lat="47.39344" lon="0.6467">
        <ele>62.2</ele>
        <time>2023-07-14T06:50:28Z</time>
      </trkpt>
      <trkpt lat="47.39339" lon="0.64674">
        <ele>62</ele>
        <time>2023-07-14T06:50:29Z</time>
      </trkpt>
      <trkpt lat="47.39334" lon="0.64677">
        <ele>61.6</ele>
        <time>2023-07-14T06:50:30Z</time>
      </trkpt>
      <trkpt lat="47.3933" lon="0.64679">
        <ele>61.2</ele>
        <time>2023-07-14T06:50:31Z</time>
      </trkpt>
      <trkpt lat="47.39327" lon="0.64681">
        <ele>61</ele>
        <time>2023-07-14T06:50:32Z</time>
      </trkpt>
      <trkpt lat="47.39324" lon="0.64683">
        <ele>61</ele>
        <time>2023-07-14T06:50:33Z</time>
      </trkpt>
      <trkpt lat="47.39324" lon="0.64684">
        <ele>60.8</ele>
        <time>2023-07-14T06:50:34Z</time>
      </trkpt>
      <trkpt lat="47.39324" lon="0.64684">
        <ele>60.8</ele>
        <time>2023-07-14T06:50:35Z</time>
      </trkpt>
      <trkpt lat="47.39325" lon="0.64685">
        <ele>60.8</ele>
        <time>2023-07-14T06:50:36Z</time>
      </trkpt>
      <trkpt lat="47.39326" lon="0.64687">
        <ele>60.6</ele>
        <time>2023-07-14T06:50:37Z</time>
      </trkpt>
      <trkpt lat="47.39328" lon="0.6469">
        <ele>60.6</ele>
        <time>2023-07-14T06:50:38Z</time>
      </trkpt>
      <trkpt lat="47.3933" lon="0.64694">
        <ele>60.6</ele>
        <time>2023-07-14T06:50:39Z</time>
      </trkpt>
      <trkpt lat="47.39332" lon="0.64698">
        <ele>60.6</ele>
        <time>2023-07-14T06:50:40Z</time>
      </trkpt>
      <trkpt lat="47.39335" lon="0.64701">
        <ele>60.6</ele>
        <time>2023-07-14T06:50:41Z</time>
      </trkpt>
      <trkpt lat="47.39338" lon="0.64705">
        <ele>60.6</ele>
        <time>2023-07-14T06:50:42Z</time>
      </trkpt>
      <trkpt lat="47.39341" lon="0.6471">
        <ele>60.6</ele>
        <time>2023-07-14T06:50:43Z</time>
      </trkpt>
      <trkpt lat="47.39342" lon="0.64716">
        <ele>60.4</ele>
        <time>2023-07-14T06:50:44Z</time>
      </trkpt>
      <trkpt lat="47.39344" lon="0.64723">
        <ele>60.4</ele>
        <time>2023-07-14T06:50:45Z</time>
      </trkpt>
      <trkpt lat="47.39344" lon="0.64732">
        <ele>60</ele>
        <time>2023-07-14T06:50:46Z</time>
      </trkpt>
      <trkpt lat="47.39345" lon="0.64742">
        <ele>59.6</ele>
        <time>2023-07-14T06:50:47Z</time>
      </trkpt>
      <trkpt lat="47.39346" lon="0.64751">
        <ele>59</ele>
        <time>2023-07-14T06:50:48Z</time>
      </trkpt>
      <trkpt lat="47.39346" lon="0.64761">
        <ele>58.6</ele>
        <time>2023-07-14T06:50:49Z</time>
      </trkpt>
      <trkpt lat="47.39344" lon="0.64771">
        <ele>58.4</ele>
        <time>2023-07-14T06:50:50Z</time>
      </trkpt>
      <trkpt lat="47.39344" lon="0.64781">
        <ele>58</ele>
        <time>2023-07-14T06:50:51Z</time>
      </trkpt>
      <trkpt lat="47.39344" lon="0.64789">
        <ele>57.8</ele>
        <time>2023-07-14T06:50:52Z</time>
      </trkpt>
      <trkpt lat="47.39342" lon="0.64796">
        <ele>57.6</ele>
        <time>2023-07-14T06:50:53Z</time>
      </trkpt>
      <trkpt lat="47.3934" lon="0.64803">
        <ele>57.4</ele>
        <time>2023-07-14T06:50:54Z</time>
      </trkpt>
      <trkpt lat="47.39338" lon="0.64812">
        <ele>57.2</ele>
        <time>2023-07-14T06:50:55Z</time>
      </trkpt>
      <trkpt lat="47.39336" lon="0.6482">
        <ele>57</ele>
        <time>2023-07-14T06:50:56Z</time>
      </trkpt>
      <trkpt lat="47.39337" lon="0.64831">
        <ele>57</ele>
        <time>2023-07-14T06:50:57Z</time>
      </trkpt>
      <trkpt lat="47.39338" lon="0.64842">
        <ele>56.8</ele>
        <time>2023-07-14T06:50:58Z</time>
      </trkpt>
      <trkpt lat="47.39341" lon="0.64853">
        <ele>56.8</ele>
        <time>2023-07-14T06:50:59Z</time>
      </trkpt>
      <trkpt lat="47.39343" lon="0.64863">
        <ele>56.6</ele>
        <time>2023-07-14T06:51:00Z</time>
      </trkpt>
      <trkpt lat="47.39346" lon="0.64872">
        <ele>56.6</ele>
        <time>2023-07-14T06:51:01Z</time>
      </trkpt>
      <trkpt lat="47.3935" lon="0.64882">
        <ele>56.6</ele>
        <time>2023-07-14T06:51:02Z</time>
      </trkpt>
      <trkpt lat="47.39354" lon="0.6489">
        <ele>56.6</ele>
        <time>2023-07-14T06:51:03Z</time>
      </trkpt>
      <trkpt lat="47.39358" lon="0.64898">
        <ele>56.6</ele>
        <time>2023-07-14T06:51:04Z</time>
      </trkpt>
      <trkpt lat="47.39361" lon="0.64906">
        <ele>56.6</ele>
        <time>2023-07-14T06:51:05Z</time>
      </trkpt>
      <trkpt lat="47.39364" lon="0.64914">
        <ele>56.8</ele>
        <time>2023-07-14T06:51:06Z</time>
      </trkpt>
      <trkpt lat="47.39367" lon="0.64922">
        <ele>56.8</ele>
        <time>2023-07-14T06:51:07Z</time>
      </trkpt>
      <trkpt lat="47.3937" lon="0.64931">
        <ele>56.8</ele>
        <time>2023-07-14T06:51:08Z</time>
      </trkpt>
      <trkpt lat="47.39373" lon="0.64939">
        <ele>57</ele>
        <time>2023-07-14T06:51:09Z</time>
      </trkpt>
      <trkpt lat="47.39376" lon="0.64947">
        <ele>57</ele>
        <time>2023-07-14T06:51:10Z</time>
      </trkpt>
      <trkpt lat="47.39378" lon="0.64956">
        <ele>57.2</ele>
        <time>2023-07-14T06:51:11Z</time>
      </trkpt>
      <trkpt lat="47.39381" lon="0.64964">
        <ele>57.2</ele>
        <time>2023-07-14T06:51:12Z</time>
      </trkpt>
      <trkpt lat="47.39385" lon="0.64972">
        <ele>57.4</ele>
        <time>2023-07-14T06:51:13Z</time>
      </trkpt>
      <trkpt lat="47.39388" lon="0.6498">
        <ele>57.4</ele>
        <time>2023-07-14T06:51:14Z</time>
      </trkpt>
      <trkpt lat="47.39391" lon="0.64987">
        <ele>57.6</ele>
        <time>2023-07-14T06:51:15Z</time>
      </trkpt>
      <trkpt lat="47.39394" lon="0.64995">
        <ele>57.8</ele>
        <time>2023-07-14T06:51:16Z</time>
      </trkpt>
      <trkpt lat="47.39397" lon="0.65001">
        <ele>57.8</ele>
        <time>2023-07-14T06:51:17Z</time>
      </trkpt>
      <trkpt lat="47.39399" lon="0.65008">
        <ele>57.8</ele>
        <time>2023-07-14T06:51:18Z</time>
      </trkpt>
      <trkpt lat="47.39402" lon="0.65015">
        <ele>57.8</ele>
        <time>2023-07-14T06:51:19Z</time>
      </trkpt>
      <trkpt lat="47.39404" lon="0.65023">
        <ele>57.8</ele>
        <time>2023-07-14T06:51:20Z</time>
      </trkpt>
      <trkpt lat="47.39405" lon="0.65031">
        <ele>57.8</ele>
        <time>2023-07-14T06:51:21Z</time>
      </trkpt>
      <trkpt lat="47.39406" lon="0.6504">
        <ele>57.8</ele>
        <time>2023-07-14T06:51:22Z</time>
      </trkpt>
      <trkpt lat="47.39407" lon="0.65049">
        <ele>57.8</ele>
        <time>2023-07-14T06:51:23Z</time>
      </trkpt>
      <trkpt lat="47.3941" lon="0.6506">
        <ele>57.8</ele>
        <time>2023-07-14T06:51:24Z</time>
      </trkpt>
      <trkpt lat="47.39413" lon="0.6507">
        <ele>57.8</ele>
        <time>2023-07-14T06:51:25Z</time>
      </trkpt>
      <trkpt lat="47.39415" lon="0.65079">
        <ele>57.8</ele>
        <time>2023-07-14T06:51:26Z</time>
      </trkpt>
      <trkpt lat="47.39417" lon="0.65088">
        <ele>58</ele>
        <time>2023-07-14T06:51:27Z</time>
      </trkpt>
      <trkpt lat="47.39419" lon="0.65096">
        <ele>57.8</ele>
        <time>2023-07-14T06:51:28Z</time>
      </trkpt>
      <trkpt lat="47.3942" lon="0.65104">
        <ele>57.8</ele>
        <time>2023-07-14T06:51:29Z</time>
      </trkpt>
      <trkpt lat="47.39422" lon="0.65112">
        <ele>57.8</ele>
        <time>2023-07-14T06:51:30Z</time>
      </trkpt>
      <trkpt lat="47.39424" lon="0.65121">
        <ele>57.8</ele>
        <time>2023-07-14T06:51:31Z</time>
      </trkpt>
      <trkpt lat="47.39426" lon="0.6513">
        <ele>58</ele>
        <time>2023-07-14T06:51:32Z</time>
      </trkpt>
      <trkpt lat="47.39428" lon="0.65138">
        <ele>58</ele>
        <time>2023-07-14T06:51:33Z</time>
      </trkpt>
      <trkpt lat="47.3943" lon="0.65146">
        <ele>58.2</ele>
        <time>2023-07-14T06:51:34Z</time>
      </trkpt>
      <trkpt lat="47.39433" lon="0.65155">
        <ele>58.2</ele>
        <time>2023-07-14T06:51:35Z</time>
      </trkpt>
      <trkpt lat="47.39435" lon="0.65165">
        <ele>58.2</ele>
        <time>2023-07-14T06:51:36Z</time>
      </trkpt>
      <trkpt lat="47.39438" lon="0.65174">
        <ele>58.2</ele>
        <time>2023-07-14T06:51:37Z</time>
      </trkpt>
      <trkpt lat="47.39439" lon="0.65183">
        <ele>58.2</ele>
        <time>2023-07-14T06:51:38Z</time>
      </trkpt>
      <trkpt lat="47.39439" lon="0.65192">
        <ele>58.2</ele>
        <time>2023-07-14T06:51:39Z</time>
      </trkpt>
      <trkpt lat="47.3944" lon="0.652">
        <ele>58</ele>
        <time>2023-07-14T06:51:40Z</time>
      </trkpt>
      <trkpt lat="47.39442" lon="0.65209">
        <ele>58</ele>
        <time>2023-07-14T06:51:41Z</time>
      </trkpt>
      <trkpt lat="47.39444" lon="0.65217">
        <ele>58</ele>
        <time>2023-07-14T06:51:42Z</time>
      </trkpt>
      <trkpt lat="47.39446" lon="0.65226">
        <ele>58.2</ele>
        <time>2023-07-14T06:51:43Z</time>
      </trkpt>
      <trkpt lat="47.39448" lon="0.65235">
        <ele>58.2</ele>
        <time>2023-07-14T06:51:44Z</time>
      </trkpt>
      <trkpt lat="47.3945" lon="0.65245">
        <ele>58.2</ele>
        <time>2023-07-14T06:51:45Z</time>
      </trkpt>
      <trkpt lat="47.39453" lon="0.65255">
        <ele>58.2</ele>
        <time>2023-07-14T06:51:46Z</time>
      </trkpt>
      <trkpt lat="47.39456" lon="0.65265">
        <ele>58.2</ele>
        <time>2023-07-14T06:51:47Z</time>
      </trkpt>
      <trkpt lat="47.39458" lon="0.65274">
        <ele>58.2</ele>
        <time>2023-07-14T06:51:48Z</time>
      </trkpt>
      <trkpt lat="47.3946" lon="0.65284">
        <ele>58.2</ele>
        <time>2023-07-14T06:51:49Z</time>
      </trkpt>
      <trkpt lat="47.39461" lon="0.65294">
        <ele>58.2</ele>
        <time>2023-07-14T06:51:50Z</time>
      </trkpt>
      <trkpt lat="47.39463" lon="0.65304">
        <ele>58.2</ele>
        <time>2023-07-14T06:51:51Z</time>
      </trkpt>
      <trkpt lat="47.39464" lon="0.65314">
        <ele>58</ele>
        <time>2023-07-14T06:51:52Z</time>
      </trkpt>
      <trkpt lat="47.39466" lon="0.65324">
        <ele>58</ele>
        <time>2023-07-14T06:51:53Z</time>
      </trkpt>
      <trkpt lat="47.39469" lon="0.65334">
        <ele>58</ele>
        <time>2023-07-14T06:51:54Z</time>
      </trkpt>
      <trkpt lat="47.39471" lon="0.65344">
        <ele>58</ele>
        <time>2023-07-14T06:51:55Z</time>
      </trkpt>
      <trkpt lat="47.39473" lon="0.65353">
        <ele>58</ele>
        <time>2023-07-14T06:51:56Z</time>
      </trkpt>
      <trkpt lat="47.39474" lon="0.65363">
        <ele>58</ele>
        <time>2023-07-14T06:51:57Z</time>
      </trkpt>
      <trkpt lat="47.39476" lon="0.65373">
        <ele>58</ele>
        <time>2023-07-14T06:51:58Z</time>
      </trkpt>
      <trkpt lat="47.39478" lon="0.65383">
        <ele>58</ele>
        <time>2023-07-14T06:51:59Z</time>
      </trkpt>
      <trkpt lat="47.39479" lon="0.65392">
        <ele>58</ele>
        <time>2023-07-14T06:52:00Z</time>
      </trkpt>
      <trkpt lat="47.39481" lon="0.65401">
        <ele>58</ele>
        <time>2023-07-14T06:52:01Z</time>
      </trkpt>
      <trkpt lat="47.39482" lon="0.65408">
        <ele>58.2</ele>
        <time>2023-07-14T06:52:02Z</time>
      </trkpt>
      <trkpt lat="47.39484" lon="0.65416">
        <ele>58</ele>
        <time>2023-07-14T06:52:03Z</time>
      </trkpt>
      <trkpt lat="47.39485" lon="0.65425">
        <ele>58</ele>
        <time>2023-07-14T06:52:04Z</time>
      </trkpt>
      <trkpt lat="47.39487" lon="0.65434">
        <ele>58</ele>
        <time>2023-07-14T06:52:05Z</time>
      </trkpt>
      <trkpt lat="47.39488" lon="0.65442">
        <ele>57.8</ele>
        <time>2023-07-14T06:52:06Z</time>
      </trkpt>
      <trkpt lat="47.39488" lon="0.65449">
        <ele>57.6</ele>
        <time>2023-07-14T06:52:07Z</time>
      </trkpt>
      <trkpt lat="47.39489" lon="0.65453">
        <ele>57.6</ele>
        <time>2023-07-14T06:52:08Z</time>
      </trkpt>
      <trkpt lat="47.39489" lon="0.65456">
        <ele>57.4</ele>
        <time>2023-07-14T06:52:09Z</time>
      </trkpt>
      <trkpt lat="47.3949" lon="0.65456">
        <ele>57.4</ele>
        <time>2023-07-14T06:52:10Z</time>
      </trkpt>
      <trkpt lat="47.39491" lon="0.65455">
        <ele>57.4</ele>
        <time>2023-07-14T06:52:11Z</time>
      </trkpt>
      <trkpt lat="47.39491" lon="0.65454">
        <ele>57.4</ele>
        <time>2023-07-14T06:52:12Z</time>
      </trkpt>
      <trkpt lat="47.39491" lon="0.65452">
        <ele>57.4</ele>
        <time>2023-07-14T06:52:13Z</time>
      </trkpt>
      <trkpt lat="47.3949" lon="0.65451">
        <ele>57.4</ele>
        <time>2023-07-14T06:52:14Z</time>
      </trkpt>
      <trkpt lat="47.3949" lon="0.65449">
        <ele>57.2</ele>
        <time>2023-07-14T06:52:15Z</time>
      </trkpt>
      <trkpt lat="47.3949" lon="0.65447">
        <ele>57.2</ele>
        <time>2023-07-14T06:52:16Z</time>
      </trkpt>
      <trkpt lat="47.3949" lon="0.65445">
        <ele>57.2</ele>
        <time>2023-07-14T06:52:17Z</time>
      </trkpt>
      <trkpt lat="47.39489" lon="0.65443">
        <ele>57.2</ele>
        <time>2023-07-14T06:52:18Z</time>
      </trkpt>
      <trkpt lat="47.39489" lon="0.65441">
        <ele>57.2</ele>
        <time>2023-07-14T06:52:19Z</time>
      </trkpt>
      <trkpt lat="47.39488" lon="0.6544">
        <ele>57.2</ele>
        <time>2023-07-14T06:52:20Z</time>
      </trkpt>
      <trkpt lat="47.39488" lon="0.65441">
        <ele>57.2</ele>
        <time>2023-07-14T06:52:33Z</time>
      </trkpt>
      <trkpt lat="47.39488" lon="0.65442">
        <ele>57.2</ele>
        <time>2023-07-14T06:52:34Z</time>
      </trkpt>
      <trkpt lat="47.39489" lon="0.65443">
        <ele>57.2</ele>
        <time>2023-07-14T06:52:35Z</time>
      </trkpt>
      <trkpt lat="47.39489" lon="0.65445">
        <ele>57.4</ele>
        <time>2023-07-14T06:52:36Z</time>
      </trkpt>
      <trkpt lat="47.3949" lon="0.65448">
        <ele>57.4</ele>
        <time>2023-07-14T06:52:37Z</time>
      </trkpt>
      <trkpt lat="47.39491" lon="0.65451">
        <ele>57.4</ele>
        <time>2023-07-14T06:52:38Z</time>
      </trkpt>
      <trkpt lat="47.39492" lon="0.65454">
        <ele>57.6</ele>
        <time>2023-07-14T06:52:39Z</time>
      </trkpt>
      <trkpt lat="47.39492" lon="0.65459">
        <ele>57.6</ele>
        <time>2023-07-14T06:52:40Z</time>
      </trkpt>
      <trkpt lat="47.39492" lon="0.65463">
        <ele>57.6</ele>
        <time>2023-07-14T06:52:41Z</time>
      </trkpt>
      <trkpt lat="47.39493" lon="0.65468">
        <ele>57.8</ele>
        <time>2023-07-14T06:52:42Z</time>
      </trkpt>
      <trkpt lat="47.39493" lon="0.65472">
        <ele>57.8</ele>
        <time>2023-07-14T06:52:43Z</time>
      </trkpt>
      <trkpt lat="47.39494" lon="0.65477">
        <ele>57.8</ele>
        <time>2023-07-14T06:52:44Z</time>
      </trkpt>
      <trkpt lat="47.39495" lon="0.65481">
        <ele>57.6</ele>
        <time>2023-07-14T06:52:45Z</time>
      </trkpt>
      <trkpt lat="47.39496" lon="0.65485">
        <ele>57.6</ele>
        <time>2023-07-14T06:52:46Z</time>
      </trkpt>
      <trkpt lat="47.39498" lon="0.6549">
        <ele>57.6</ele>
        <time>2023-07-14T06:52:47Z</time>
      </trkpt>
      <trkpt lat="47.39499" lon="0.65494">
        <ele>57.6</ele>
        <time>2023-07-14T06:52:48Z</time>
      </trkpt>
      <trkpt lat="47.39502" lon="0.655">
        <ele>57.6</ele>
        <time>2023-07-14T06:52:49Z</time>
      </trkpt>
      <trkpt lat="47.39503" lon="0.65505">
        <ele>57.6</ele>
        <time>2023-07-14T06:52:50Z</time>
      </trkpt>
      <trkpt lat="47.39504" lon="0.65509">
        <ele>57.6</ele>
        <time>2023-07-14T06:52:51Z</time>
      </trkpt>
      <trkpt lat="47.39505" lon="0.65514">
        <ele>57.6</ele>
        <time>2023-07-14T06:52:52Z</time>
      </trkpt>
      <trkpt lat="47.39505" lon="0.65518">
        <ele>57.6</ele>
        <time>2023-07-14T06:52:53Z</time>
      </trkpt>
      <trkpt lat="47.39507" lon="0.65522">
        <ele>57.6</ele>
        <time>2023-07-14T06:52:54Z</time>
      </trkpt>
      <trkpt lat="47.39507" lon="0.65526">
        <ele>57.6</ele>
        <time>2023-07-14T06:52:55Z</time>
      </trkpt>
      <trkpt lat="47.39508" lon="0.6553">
        <ele>57.6</ele>
        <time>2023-07-14T06:52:56Z</time>
      </trkpt>
      <trkpt lat="47.3951" lon="0.65534">
        <ele>57.6</ele>
        <time>2023-07-14T06:52:57Z</time>
      </trkpt>
      <trkpt lat="47.39511" lon="0.65537">
        <ele>57.6</ele>
        <time>2023-07-14T06:52:58Z</time>
      </trkpt>
      <trkpt lat="47.39512" lon="0.6554">
        <ele>57.6</ele>
        <time>2023-07-14T06:52:59Z</time>
      </trkpt>
      <trkpt lat="47.39513" lon="0.65544">
        <ele>57.6</ele>
        <time>2023-07-14T06:53:00Z</time>
      </trkpt>
      <trkpt lat="47.39514" lon="0.65549">
        <ele>57.8</ele>
        <time>2023-07-14T06:53:01Z</time>
      </trkpt>
      <trkpt lat="47.39515" lon="0.65555">
        <ele>57.8</ele>
        <time>2023-07-14T06:53:02Z</time>
      </trkpt>
      <trkpt lat="47.39515" lon="0.65562">
        <ele>57.8</ele>
        <time>2023-07-14T06:53:03Z</time>
      </trkpt>
      <trkpt lat="47.39516" lon="0.65569">
        <ele>57.8</ele>
        <time>2023-07-14T06:53:04Z</time>
      </trkpt>
      <trkpt lat="47.39516" lon="0.65576">
        <ele>57.8</ele>
        <time>2023-07-14T06:53:05Z</time>
      </trkpt>
      <trkpt lat="47.39517" lon="0.65583">
        <ele>57.8</ele>
        <time>2023-07-14T06:53:06Z</time>
      </trkpt>
      <trkpt lat="47.39519" lon="0.65591">
        <ele>58</ele>
        <time>2023-07-14T06:53:07Z</time>
      </trkpt>
      <trkpt lat="47.39522" lon="0.65598">
        <ele>58</ele>
        <time>2023-07-14T06:53:08Z</time>
      </trkpt>
      <trkpt lat="47.39525" lon="0.65605">
        <ele>58.2</ele>
        <time>2023-07-14T06:53:09Z</time>
      </trkpt>
      <trkpt lat="47.39528" lon="0.65612">
        <ele>58.6</ele>
        <time>2023-07-14T06:53:10Z</time>
      </trkpt>
      <trkpt lat="47.3953" lon="0.65618">
        <ele>58.8</ele>
        <time>2023-07-14T06:53:11Z</time>
      </trkpt>
      <trkpt lat="47.39532" lon="0.65624">
        <ele>59.2</ele>
        <time>2023-07-14T06:53:12Z</time>
      </trkpt>
      <trkpt lat="47.39535" lon="0.65629">
        <ele>59.8</ele>
        <time>2023-07-14T06:53:13Z</time>
      </trkpt>
      <trkpt lat="47.39536" lon="0.65635">
        <ele>60.2</ele>
        <time>2023-07-14T06:53:14Z</time>
      </trkpt>
      <trkpt lat="47.39539" lon="0.65641">
        <ele>60.6</ele>
        <time>2023-07-14T06:53:15Z</time>
      </trkpt>
      <trkpt lat="47.3954" lon="0.65645">
        <ele>60.8</ele>
        <time>2023-07-14T06:53:16Z</time>
      </trkpt>
      <trkpt lat="47.3954" lon="0.6565">
        <ele>61</ele>
        <time>2023-07-14T06:53:17Z</time>
      </trkpt>
      <trkpt lat="47.39539" lon="0.65654">
        <ele>61.2</ele>
        <time>2023-07-14T06:53:18Z</time>
      </trkpt>
      <trkpt lat="47.3954" lon="0.65657">
        <ele>61.2</ele>
        <time>2023-07-14T06:53:19Z</time>
      </trkpt>
      <trkpt lat="47.39541" lon="0.6566">
        <ele>61.2</ele>
        <time>2023-07-14T06:53:20Z</time>
      </trkpt>
      <trkpt lat="47.39542" lon="0.65665">
        <ele>61.2</ele>
        <time>2023-07-14T06:53:21Z</time>
      </trkpt>
      <trkpt lat="47.39543" lon="0.6567">
        <ele>61.4</ele>
        <time>2023-07-14T06:53:22Z</time>
      </trkpt>
      <trkpt lat="47.39544" lon="0.65678">
        <ele>61.4</ele>
        <time>2023-07-14T06:53:23Z</time>
      </trkpt>
      <trkpt lat="47.39545" lon="0.65685">
        <ele>61.4</ele>
        <time>2023-07-14T06:53:24Z</time>
      </trkpt>
      <trkpt lat="47.39546" lon="0.65694">
        <ele>61.2</ele>
        <time>2023-07-14T06:53:25Z</time>
      </trkpt>
      <trkpt lat="47.39547" lon="0.65703">
        <ele>61.2</ele>
        <time>2023-07-14T06:53:26Z</time>
      </trkpt>
      <trkpt lat="47.39548" lon="0.65712">
        <ele>61.2</ele>
        <time>2023-07-14T06:53:27Z</time>
      </trkpt>
      <trkpt lat="47.39551" lon="0.6572">
        <ele>61</ele>
        <time>2023-07-14T06:53:28Z</time>
      </trkpt>
      <trkpt lat="47.39553" lon="0.65728">
        <ele>61</ele>
        <time>2023-07-14T06:53:29Z</time>
      </trkpt>
      <trkpt lat="47.39556" lon="0.65737">
        <ele>60.8</ele>
        <time>2023-07-14T06:53:30Z</time>
      </trkpt>
      <trkpt lat="47.39559" lon="0.65745">
        <ele>60.8</ele>
        <time>2023-07-14T06:53:31Z</time>
      </trkpt>
      <trkpt lat="47.39561" lon="0.65753">
        <ele>60.8</ele>
        <time>2023-07-14T06:53:32Z</time>
      </trkpt>
      <trkpt lat="47.39565" lon="0.65761">
        <ele>60.8</ele>
        <time>2023-07-14T06:53:33Z</time>
      </trkpt>
      <trkpt lat="47.39567" lon="0.65769">
        <ele>60.8</ele>
        <time>2023-07-14T06:53:34Z</time>
      </trkpt>
      <trkpt lat="47.3957" lon="0.65777">
        <ele>60.8</ele>
        <time>2023-07-14T06:53:35Z</time>
      </trkpt>
      <trkpt lat="47.39572" lon="0.65785">
        <ele>60.8</ele>
        <time>2023-07-14T06:53:36Z</time>
      </trkpt>
      <trkpt lat="47.39575" lon="0.65792">
        <ele>60.8</ele>
        <time>2023-07-14T06:53:37Z</time>
      </trkpt>
      <trkpt lat="47.39578" lon="0.658">
        <ele>60.8</ele>
        <time>2023-07-14T06:53:38Z</time>
      </trkpt>
      <trkpt lat="47.39581" lon="0.65808">
        <ele>60.8</ele>
        <time>2023-07-14T06:53:39Z</time>
      </trkpt>
      <trkpt lat="47.39584" lon="0.65816">
        <ele>60.8</ele>
        <time>2023-07-14T06:53:40Z</time>
      </trkpt>
      <trkpt lat="47.39587" lon="0.65825">
        <ele>60.8</ele>
        <time>2023-07-14T06:53:41Z</time>
      </trkpt>
      <trkpt lat="47.3959" lon="0.65833">
        <ele>60.8</ele>
        <time>2023-07-14T06:53:42Z</time>
      </trkpt>
      <trkpt lat="47.39592" lon="0.65842">
        <ele>60.8</ele>
        <time>2023-07-14T06:53:43Z</time>
      </trkpt>
      <trkpt lat="47.39594" lon="0.65851">
        <ele>60.8</ele>
        <time>2023-07-14T06:53:44Z</time>
      </trkpt>
      <trkpt lat="47.39596" lon="0.6586">
        <ele>61</ele>
        <time>2023-07-14T06:53:45Z</time>
      </trkpt>
      <trkpt lat="47.39598" lon="0.65869">
        <ele>61</ele>
        <time>2023-07-14T06:53:46Z</time>
      </trkpt>
      <trkpt lat="47.396" lon="0.65878">
        <ele>61</ele>
        <time>2023-07-14T06:53:47Z</time>
      </trkpt>
      <trkpt lat="47.39603" lon="0.65886">
        <ele>61.2</ele>
        <time>2023-07-14T06:53:48Z</time>
      </trkpt>
      <trkpt lat="47.39605" lon="0.65895">
        <ele>61.2</ele>
        <time>2023-07-14T06:53:49Z</time>
      </trkpt>
      <trkpt lat="47.39607" lon="0.65904">
        <ele>61.2</ele>
        <time>2023-07-14T06:53:50Z</time>
      </trkpt>
      <trkpt lat="47.39609" lon="0.65912">
        <ele>61.4</ele>
        <time>2023-07-14T06:53:51Z</time>
      </trkpt>
      <trkpt lat="47.3961" lon="0.65921">
        <ele>61.4</ele>
        <time>2023-07-14T06:53:52Z</time>
      </trkpt>
      <trkpt lat="47.39612" lon="0.6593">
        <ele>61.6</ele>
        <time>2023-07-14T06:53:53Z</time>
      </trkpt>
      <trkpt lat="47.39614" lon="0.65938">
        <ele>61.6</ele>
        <time>2023-07-14T06:53:54Z</time>
      </trkpt>
      <trkpt lat="47.39616" lon="0.65946">
        <ele>61.6</ele>
        <time>2023-07-14T06:53:55Z</time>
      </trkpt>
      <trkpt lat="47.39618" lon="0.65954">
        <ele>61.8</ele>
        <time>2023-07-14T06:53:56Z</time>
      </trkpt>
      <trkpt lat="47.3962" lon="0.65961">
        <ele>62</ele>
        <time>2023-07-14T06:53:57Z</time>
      </trkpt>
      <trkpt lat="47.39621" lon="0.65969">
        <ele>62.2</ele>
        <time>2023-07-14T06:53:58Z</time>
      </trkpt>
      <trkpt lat="47.39623" lon="0.65976">
        <ele>62.6</ele>
        <time>2023-07-14T06:53:59Z</time>
      </trkpt>
      <trkpt lat="47.39626" lon="0.65982">
        <ele>63</ele>
        <time>2023-07-14T06:54:00Z</time>
      </trkpt>
      <trkpt lat="47.39627" lon="0.65988">
        <ele>63.6</ele>
        <time>2023-07-14T06:54:01Z</time>
      </trkpt>
      <trkpt lat="47.39629" lon="0.65994">
        <ele>64</ele>
        <time>2023-07-14T06:54:02Z</time>
      </trkpt>
      <trkpt lat="47.39631" lon="0.66">
        <ele>64.4</ele>
        <time>2023-07-14T06:54:03Z</time>
      </trkpt>
      <trkpt lat="47.39633" lon="0.66007">
        <ele>64.8</ele>
        <time>2023-07-14T06:54:04Z</time>
      </trkpt>
      <trkpt lat="47.39634" lon="0.66013">
        <ele>65.2</ele>
        <time>2023-07-14T06:54:05Z</time>
      </trkpt>
      <trkpt lat="47.39636" lon="0.6602">
        <ele>65.4</ele>
        <time>2023-07-14T06:54:06Z</time>
      </trkpt>
      <trkpt lat="47.39637" lon="0.66028">
        <ele>65.6</ele>
        <time>2023-07-14T06:54:07Z</time>
      </trkpt>
      <trkpt lat="47.39638" lon="0.66035">
        <ele>65.6</ele>
        <time>2023-07-14T06:54:08Z</time>
      </trkpt>
      <trkpt lat="47.3964" lon="0.66043">
        <ele>65.6</ele>
        <time>2023-07-14T06:54:09Z</time>
      </trkpt>
      <trkpt lat="47.39642" lon="0.6605">
        <ele>65.8</ele>
        <time>2023-07-14T06:54:10Z</time>
      </trkpt>
      <trkpt lat="47.39643" lon="0.66058">
        <ele>65.8</ele>
        <time>2023-07-14T06:54:11Z</time>
      </trkpt>
      <trkpt lat="47.39645" lon="0.66066">
        <ele>65.6</ele>
        <time>2023-07-14T06:54:12Z</time>
      </trkpt>
      <trkpt lat="47.39646" lon="0.66074">
        <ele>65.6</ele>
        <time>2023-07-14T06:54:13Z</time>
      </trkpt>
      <trkpt lat="47.39648" lon="0.66082">
        <ele>65.6</ele>
        <time>2023-07-14T06:54:14Z</time>
      </trkpt>
      <trkpt lat="47.3965" lon="0.6609">
        <ele>65.4</ele>
        <time>2023-07-14T06:54:15Z</time>
      </trkpt>
      <trkpt lat="47.39651" lon="0.66098">
        <ele>65.4</ele>
        <time>2023-07-14T06:54:16Z</time>
      </trkpt>
      <trkpt lat="47.39652" lon="0.66106">
        <ele>65.2</ele>
        <time>2023-07-14T06:54:17Z</time>
      </trkpt>
      <trkpt lat="47.39654" lon="0.66114">
        <ele>65.2</ele>
        <time>2023-07-14T06:54:18Z</time>
      </trkpt>
      <trkpt lat="47.39655" lon="0.66121">
        <ele>65</ele>
        <time>2023-07-14T06:54:19Z</time>
      </trkpt>
      <trkpt lat="47.39657" lon="0.66129">
        <ele>64.8</ele>
        <time>2023-07-14T06:54:20Z</time>
      </trkpt>
      <trkpt lat="47.39658" lon="0.66136">
        <ele>64.6</ele>
        <time>2023-07-14T06:54:21Z</time>
      </trkpt>
      <trkpt lat="47.39659" lon="0.66143">
        <ele>64.4</ele>
        <time>2023-07-14T06:54:22Z</time>
      </trkpt>
      <trkpt lat="47.3966" lon="0.66149">
        <ele>64.2</ele>
        <time>2023-07-14T06:54:23Z</time>
      </trkpt>
      <trkpt lat="47.39661" lon="0.66155">
        <ele>64</ele>
        <time>2023-07-14T06:54:24Z</time>
      </trkpt>
      <trkpt lat="47.39663" lon="0.66161">
        <ele>64</ele>
        <time>2023-07-14T06:54:25Z</time>
      </trkpt>
      <trkpt lat="47.39663" lon="0.66166">
        <ele>63.8</ele>
        <time>2023-07-14T06:54:26Z</time>
      </trkpt>
      <trkpt lat="47.39664" lon="0.66172">
        <ele>63.6</ele>
        <time>2023-07-14T06:54:27Z</time>
      </trkpt>
      <trkpt lat="47.39665" lon="0.66178">
        <ele>63.6</ele>
        <time>2023-07-14T06:54:28Z</time>
      </trkpt>
      <trkpt lat="47.39667" lon="0.66184">
        <ele>63.4</ele>
        <time>2023-07-14T06:54:29Z</time>
      </trkpt>
      <trkpt lat="47.39669" lon="0.6619">
        <ele>63.4</ele>
        <time>2023-07-14T06:54:30Z</time>
      </trkpt>
      <trkpt lat="47.3967" lon="0.66196">
        <ele>63.4</ele>
        <time>2023-07-14T06:54:31Z</time>
      </trkpt>
      <trkpt lat="47.39671" lon="0.66203">
        <ele>63.2</ele>
        <time>2023-07-14T06:54:32Z</time>
      </trkpt>
      <trkpt lat="47.39672" lon="0.6621">
        <ele>63.2</ele>
        <time>2023-07-14T06:54:33Z</time>
      </trkpt>
      <trkpt lat="47.39674" lon="0.66216">
        <ele>63.2</ele>
        <time>2023-07-14T06:54:34Z</time>
      </trkpt>
      <trkpt lat="47.39675" lon="0.66222">
        <ele>63.2</ele>
        <time>2023-07-14T06:54:35Z</time>
      </trkpt>
      <trkpt lat="47.39677" lon="0.66226">
        <ele>63.2</ele>
        <time>2023-07-14T06:54:36Z</time>
      </trkpt>
      <trkpt lat="47.39678" lon="0.66232">
        <ele>63.2</ele>
        <time>2023-07-14T06:54:37Z</time>
      </trkpt>
      <trkpt lat="47.39679" lon="0.66238">
        <ele>63.2</ele>
        <time>2023-07-14T06:54:38Z</time>
      </trkpt>
      <trkpt lat="47.3968" lon="0.66245">
        <ele>63.2</ele>
        <time>2023-07-14T06:54:39Z</time>
      </trkpt>
      <trkpt lat="47.39681" lon="0.66253">
        <ele>63.2</ele>
        <time>2023-07-14T06:54:40Z</time>
      </trkpt>
      <trkpt lat="47.39681" lon="0.66259">
        <ele>63.2</ele>
        <time>2023-07-14T06:54:41Z</time>
      </trkpt>
      <trkpt lat="47.39682" lon="0.66265">
        <ele>63.2</ele>
        <time>2023-07-14T06:54:42Z</time>
      </trkpt>
      <trkpt lat="47.39683" lon="0.66271">
        <ele>63</ele>
        <time>2023-07-14T06:54:43Z</time>
      </trkpt>
      <trkpt lat="47.39684" lon="0.66276">
        <ele>63</ele>
        <time>2023-07-14T06:54:44Z</time>
      </trkpt>
      <trkpt lat="47.39684" lon="0.66282">
        <ele>63</ele>
        <time>2023-07-14T06:54:45Z</time>
      </trkpt>
      <trkpt lat="47.39685" lon="0.66289">
        <ele>62.8</ele>
        <time>2023-07-14T06:54:46Z</time>
      </trkpt>
      <trkpt lat="47.39686" lon="0.66296">
        <ele>62.8</ele>
        <time>2023-07-14T06:54:47Z</time>
      </trkpt>
      <trkpt lat="47.39687" lon="0.66304">
        <ele>62.8</ele>
        <time>2023-07-14T06:54:48Z</time>
      </trkpt>
      <trkpt lat="47.39688" lon="0.66311">
        <ele>62.6</ele>
        <time>2023-07-14T06:54:49Z</time>
      </trkpt>
      <trkpt lat="47.39689" lon="0.66319">
        <ele>62.6</ele>
        <time>2023-07-14T06:54:50Z</time>
      </trkpt>
      <trkpt lat="47.39691" lon="0.66326">
        <ele>62.6</ele>
        <time>2023-07-14T06:54:51Z</time>
      </trkpt>
      <trkpt lat="47.39692" lon="0.66332">
        <ele>62.4</ele>
        <time>2023-07-14T06:54:52Z</time>
      </trkpt>
      <trkpt lat="47.39693" lon="0.66339">
        <ele>62.4</ele>
        <time>2023-07-14T06:54:53Z</time>
      </trkpt>
      <trkpt lat="47.39694" lon="0.66346">
        <ele>62.4</ele>
        <time>2023-07-14T06:54:54Z</time>
      </trkpt>
      <trkpt lat="47.39695" lon="0.66352">
        <ele>62.2</ele>
        <time>2023-07-14T06:54:55Z</time>
      </trkpt>
      <trkpt lat="47.39696" lon="0.66359">
        <ele>62.2</ele>
        <time>2023-07-14T06:54:56Z</time>
      </trkpt>
      <trkpt lat="47.39696" lon="0.66365">
        <ele>62.2</ele>
        <time>2023-07-14T06:54:57Z</time>
      </trkpt>
      <trkpt lat="47.39697" lon="0.66371">
        <ele>62.2</ele>
        <time>2023-07-14T06:54:58Z</time>
      </trkpt>
      <trkpt lat="47.39699" lon="0.66376">
        <ele>62.2</ele>
        <time>2023-07-14T06:54:59Z</time>
      </trkpt>
      <trkpt lat="47.397" lon="0.66382">
        <ele>62</ele>
        <time>2023-07-14T06:55:00Z</time>
      </trkpt>
      <trkpt lat="47.39701" lon="0.66388">
        <ele>62</ele>
        <time>2023-07-14T06:55:01Z</time>
      </trkpt>
      <trkpt lat="47.39703" lon="0.66393">
        <ele>62</ele>
        <time>2023-07-14T06:55:02Z</time>
      </trkpt>
      <trkpt lat="47.39704" lon="0.66398">
        <ele>62</ele>
        <time>2023-07-14T06:55:03Z</time>
      </trkpt>
      <trkpt lat="47.39705" lon="0.66404">
        <ele>62</ele>
        <time>2023-07-14T06:55:04Z</time>
      </trkpt>
      <trkpt lat="47.39706" lon="0.66409">
        <ele>62</ele>
        <time>2023-07-14T06:55:05Z</time>
      </trkpt>
      <trkpt lat="47.39707" lon="0.66414">
        <ele>62</ele>
        <time>2023-07-14T06:55:06Z</time>
      </trkpt>
      <trkpt lat="47.39708" lon="0.66419">
        <ele>62</ele>
        <time>2023-07-14T06:55:07Z</time>
      </trkpt>
      <trkpt lat="47.39709" lon="0.66425">
        <ele>62</ele>
        <time>2023-07-14T06:55:08Z</time>
      </trkpt>
      <trkpt lat="47.3971" lon="0.66431">
        <ele>62</ele>
        <time>2023-07-14T06:55:09Z</time>
      </trkpt>
      <trkpt lat="47.39711" lon="0.66436">
        <ele>62</ele>
        <time>2023-07-14T06:55:10Z</time>
      </trkpt>
      <trkpt lat="47.39712" lon="0.66442">
        <ele>62</ele>
        <time>2023-07-14T06:55:11Z</time>
      </trkpt>
      <trkpt lat="47.39713" lon="0.66447">
        <ele>62</ele>
        <time>2023-07-14T06:55:12Z</time>
      </trkpt>
      <trkpt lat="47.39713" lon="0.66453">
        <ele>62.2</ele>
        <time>2023-07-14T06:55:13Z</time>
      </trkpt>
      <trkpt lat="47.39714" lon="0.6646">
        <ele>62.2</ele>
        <time>2023-07-14T06:55:14Z</time>
      </trkpt>
      <trkpt lat="47.39715" lon="0.66465">
        <ele>62.2</ele>
        <time>2023-07-14T06:55:15Z</time>
      </trkpt>
      <trkpt lat="47.39715" lon="0.66471">
        <ele>62.2</ele>
        <time>2023-07-14T06:55:16Z</time>
      </trkpt>
      <trkpt lat="47.39716" lon="0.66476">
        <ele>62.2</ele>
        <time>2023-07-14T06:55:17Z</time>
      </trkpt>
      <trkpt lat="47.39717" lon="0.66482">
        <ele>62.2</ele>
        <time>2023-07-14T06:55:18Z</time>
      </trkpt>
      <trkpt lat="47.39718" lon="0.66487">
        <ele>62.2</ele>
        <time>2023-07-14T06:55:19Z</time>
      </trkpt>
      <trkpt lat="47.39719" lon="0.66493">
        <ele>62.2</ele>
        <time>2023-07-14T06:55:20Z</time>
      </trkpt>
      <trkpt lat="47.39719" lon="0.66499">
        <ele>62.2</ele>
        <time>2023-07-14T06:55:21Z</time>
      </trkpt>
      <trkpt lat="47.3972" lon="0.66505">
        <ele>62</ele>
        <time>2023-07-14T06:55:22Z</time>
      </trkpt>
      <trkpt lat="47.39721" lon="0.66511">
        <ele>62</ele>
        <time>2023-07-14T06:55:23Z</time>
      </trkpt>
      <trkpt lat="47.39722" lon="0.66517">
        <ele>62</ele>
        <time>2023-07-14T06:55:24Z</time>
      </trkpt>
      <trkpt lat="47.39723" lon="0.66523">
        <ele>62</ele>
        <time>2023-07-14T06:55:25Z</time>
      </trkpt>
      <trkpt lat="47.39724" lon="0.6653">
        <ele>62</ele>
        <time>2023-07-14T06:55:26Z</time>
      </trkpt>
      <trkpt lat="47.39725" lon="0.66537">
        <ele>62</ele>
        <time>2023-07-14T06:55:27Z</time>
      </trkpt>
      <trkpt lat="47.39726" lon="0.66543">
        <ele>62</ele>
        <time>2023-07-14T06:55:28Z</time>
      </trkpt>
      <trkpt lat="47.39727" lon="0.6655">
        <ele>62</ele>
        <time>2023-07-14T06:55:29Z</time>
      </trkpt>
      <trkpt lat="47.39727" lon="0.66556">
        <ele>62</ele>
        <time>2023-07-14T06:55:30Z</time>
      </trkpt>
      <trkpt lat="47.39728" lon="0.66563">
        <ele>62.2</ele>
        <time>2023-07-14T06:55:31Z</time>
      </trkpt>
      <trkpt lat="47.39728" lon="0.6657">
        <ele>62.2</ele>
        <time>2023-07-14T06:55:32Z</time>
      </trkpt>
      <trkpt lat="47.39729" lon="0.66576">
        <ele>62.2</ele>
        <time>2023-07-14T06:55:33Z</time>
      </trkpt>
      <trkpt lat="47.3973" lon="0.66582">
        <ele>62</ele>
        <time>2023-07-14T06:55:34Z</time>
      </trkpt>
      <trkpt lat="47.39732" lon="0.66587">
        <ele>62</ele>
        <time>2023-07-14T06:55:35Z</time>
      </trkpt>
      <trkpt lat="47.39732" lon="0.66593">
        <ele>62</ele>
        <time>2023-07-14T06:55:36Z</time>
      </trkpt>
      <trkpt lat="47.39732" lon="0.666">
        <ele>62</ele>
        <time>2023-07-14T06:55:37Z</time>
      </trkpt>
      <trkpt lat="47.39733" lon="0.66606">
        <ele>62</ele>
        <time>2023-07-14T06:55:38Z</time>
      </trkpt>
      <trkpt lat="47.39734" lon="0.66612">
        <ele>62</ele>
        <time>2023-07-14T06:55:39Z</time>
      </trkpt>
      <trkpt lat="47.39734" lon="0.66618">
        <ele>62</ele>
        <time>2023-07-14T06:55:40Z</time>
      </trkpt>
      <trkpt lat="47.39735" lon="0.66625">
        <ele>62.2</ele>
        <time>2023-07-14T06:55:41Z</time>
      </trkpt>
      <trkpt lat="47.39736" lon="0.66632">
        <ele>62.2</ele>
        <time>2023-07-14T06:55:42Z</time>
      </trkpt>
      <trkpt lat="47.39737" lon="0.66638">
        <ele>62.2</ele>
        <time>2023-07-14T06:55:43Z</time>
      </trkpt>
      <trkpt lat="47.39738" lon="0.66644">
        <ele>62.2</ele>
        <time>2023-07-14T06:55:44Z</time>
      </trkpt>
      <trkpt lat="47.39738" lon="0.6665">
        <ele>62.2</ele>
        <time>2023-07-14T06:55:45Z</time>
      </trkpt>
      <trkpt lat="47.39739" lon="0.66656">
        <ele>62.4</ele>
        <time>2023-07-14T06:55:46Z</time>
      </trkpt>
      <trkpt lat="47.3974" lon="0.66662">
        <ele>62.4</ele>
        <time>2023-07-14T06:55:47Z</time>
      </trkpt>
      <trkpt lat="47.39741" lon="0.66669">
        <ele>62.4</ele>
        <time>2023-07-14T06:55:48Z</time>
      </trkpt>
      <trkpt lat="47.39742" lon="0.66675">
        <ele>62.2</ele>
        <time>2023-07-14T06:55:49Z</time>
      </trkpt>
      <trkpt lat="47.39742" lon="0.66681">
        <ele>62.2</ele>
        <time>2023-07-14T06:55:50Z</time>
      </trkpt>
      <trkpt lat="47.39743" lon="0.66688">
        <ele>62.2</ele>
        <time>2023-07-14T06:55:51Z</time>
      </trkpt>
      <trkpt lat="47.39743" lon="0.66693">
        <ele>62</ele>
        <time>2023-07-14T06:55:52Z</time>
      </trkpt>
      <trkpt lat="47.39743" lon="0.66699">
        <ele>62</ele>
        <time>2023-07-14T06:55:53Z</time>
      </trkpt>
      <trkpt lat="47.39744" lon="0.66705">
        <ele>62</ele>
        <time>2023-07-14T06:55:54Z</time>
      </trkpt>
      <trkpt lat="47.39745" lon="0.6671">
        <ele>62</ele>
        <time>2023-07-14T06:55:55Z</time>
      </trkpt>
      <trkpt lat="47.39745" lon="0.66716">
        <ele>62</ele>
        <time>2023-07-14T06:55:56Z</time>
      </trkpt>
      <trkpt lat="47.39746" lon="0.66721">
        <ele>62</ele>
        <time>2023-07-14T06:55:57Z</time>
      </trkpt>
      <trkpt lat="47.39746" lon="0.66726">
        <ele>62</ele>
        <time>2023-07-14T06:55:58Z</time>
      </trkpt>
      <trkpt lat="47.39747" lon="0.66732">
        <ele>62.2</ele>
        <time>2023-07-14T06:55:59Z</time>
      </trkpt>
      <trkpt lat="47.39748" lon="0.66736">
        <ele>62.2</ele>
        <time>2023-07-14T06:56:00Z</time>
      </trkpt>
      <trkpt lat="47.3975" lon="0.66741">
        <ele>62.2</ele>
        <time>2023-07-14T06:56:01Z</time>
      </trkpt>
      <trkpt lat="47.3975" lon="0.66746">
        <ele>62.2</ele>
        <time>2023-07-14T06:56:02Z</time>
      </trkpt>
      <trkpt lat="47.39751" lon="0.6675">
        <ele>62.2</ele>
        <time>2023-07-14T06:56:03Z</time>
      </trkpt>
      <trkpt lat="47.39752" lon="0.66755">
        <ele>62.2</ele>
        <time>2023-07-14T06:56:04Z</time>
      </trkpt>
      <trkpt lat="47.39753" lon="0.6676">
        <ele>62.2</ele>
        <time>2023-07-14T06:56:05Z</time>
      </trkpt>
      <trkpt lat="47.39755" lon="0.66765">
        <ele>62.2</ele>
        <time>2023-07-14T06:56:06Z</time>
      </trkpt>
      <trkpt lat="47.39756" lon="0.6677">
        <ele>62.2</ele>
        <time>2023-07-14T06:56:07Z</time>
      </trkpt>
      <trkpt lat="47.39758" lon="0.66776">
        <ele>62.4</ele>
        <time>2023-07-14T06:56:08Z</time>
      </trkpt>
      <trkpt lat="47.39759" lon="0.66782">
        <ele>62.4</ele>
        <time>2023-07-14T06:56:09Z</time>
      </trkpt>
      <trkpt lat="47.39761" lon="0.66788">
        <ele>62.4</ele>
        <time>2023-07-14T06:56:10Z</time>
      </trkpt>
      <trkpt lat="47.39762" lon="0.66794">
        <ele>62.4</ele>
        <time>2023-07-14T06:56:11Z</time>
      </trkpt>
      <trkpt lat="47.39763" lon="0.66801">
        <ele>62.4</ele>
        <time>2023-07-14T06:56:12Z</time>
      </trkpt>
      <trkpt lat="47.39765" lon="0.66808">
        <ele>62.4</ele>
        <time>2023-07-14T06:56:13Z</time>
      </trkpt>
      <trkpt lat="47.39766" lon="0.66815">
        <ele>62.4</ele>
        <time>2023-07-14T06:56:14Z</time>
      </trkpt>
      <trkpt lat="47.39767" lon="0.66822">
        <ele>62.4</ele>
        <time>2023-07-14T06:56:15Z</time>
      </trkpt>
      <trkpt lat="47.39768" lon="0.66829">
        <ele>62.6</ele>
        <time>2023-07-14T06:56:16Z</time>
      </trkpt>
      <trkpt lat="47.3977" lon="0.66836">
        <ele>62.6</ele>
        <time>2023-07-14T06:56:17Z</time>
      </trkpt>
      <trkpt lat="47.39771" lon="0.66843">
        <ele>62.8</ele>
        <time>2023-07-14T06:56:18Z</time>
      </trkpt>
      <trkpt lat="47.39772" lon="0.66851">
        <ele>63</ele>
        <time>2023-07-14T06:56:19Z</time>
      </trkpt>
      <trkpt lat="47.39774" lon="0.6686">
        <ele>63</ele>
        <time>2023-07-14T06:56:20Z</time>
      </trkpt>
      <trkpt lat="47.39775" lon="0.66869">
        <ele>63.2</ele>
        <time>2023-07-14T06:56:21Z</time>
      </trkpt>
      <trkpt lat="47.39777" lon="0.66878">
        <ele>63.4</ele>
        <time>2023-07-14T06:56:22Z</time>
      </trkpt>
      <trkpt lat="47.39779" lon="0.66886">
        <ele>63.4</ele>
        <time>2023-07-14T06:56:23Z</time>
      </trkpt>
      <trkpt lat="47.39781" lon="0.66896">
        <ele>63.4</ele>
        <time>2023-07-14T06:56:24Z</time>
      </trkpt>
      <trkpt lat="47.39783" lon="0.66905">
        <ele>63.4</ele>
        <time>2023-07-14T06:56:25Z</time>
      </trkpt>
      <trkpt lat="47.39784" lon="0.66915">
        <ele>63.4</ele>
        <time>2023-07-14T06:56:26Z</time>
      </trkpt>
      <trkpt lat="47.39785" lon="0.66925">
        <ele>63.6</ele>
        <time>2023-07-14T06:56:27Z</time>
      </trkpt>
      <trkpt lat="47.39787" lon="0.66935">
        <ele>63.6</ele>
        <time>2023-07-14T06:56:28Z</time>
      </trkpt>
      <trkpt lat="47.3979" lon="0.66943">
        <ele>63.6</ele>
        <time>2023-07-14T06:56:29Z</time>
      </trkpt>
      <trkpt lat="47.39792" lon="0.66952">
        <ele>63.8</ele>
        <time>2023-07-14T06:56:30Z</time>
      </trkpt>
      <trkpt lat="47.39794" lon="0.66961">
        <ele>63.8</ele>
        <time>2023-07-14T06:56:31Z</time>
      </trkpt>
      <trkpt lat="47.39797" lon="0.6697">
        <ele>63.6</ele>
        <time>2023-07-14T06:56:32Z</time>
      </trkpt>
      <trkpt lat="47.398" lon="0.6698">
        <ele>63.6</ele>
        <time>2023-07-14T06:56:33Z</time>
      </trkpt>
      <trkpt lat="47.39803" lon="0.66988">
        <ele>63.6</ele>
        <time>2023-07-14T06:56:34Z</time>
      </trkpt>
      <trkpt lat="47.39806" lon="0.66995">
        <ele>63.6</ele>
        <time>2023-07-14T06:56:35Z</time>
      </trkpt>
      <trkpt lat="47.39809" lon="0.67004">
        <ele>63.6</ele>
        <time>2023-07-14T06:56:36Z</time>
      </trkpt>
      <trkpt lat="47.39813" lon="0.67013">
        <ele>63.4</ele>
        <time>2023-07-14T06:56:37Z</time>
      </trkpt>
      <trkpt lat="47.39816" lon="0.67021">
        <ele>63.4</ele>
        <time>2023-07-14T06:56:38Z</time>
      </trkpt>
      <trkpt lat="47.39819" lon="0.6703">
        <ele>63.4</ele>
        <time>2023-07-14T06:56:39Z</time>
      </trkpt>
      <trkpt lat="47.39822" lon="0.67038">
        <ele>63.4</ele>
        <time>2023-07-14T06:56:40Z</time>
      </trkpt>
      <trkpt lat="47.39825" lon="0.67047">
        <ele>63.2</ele>
        <time>2023-07-14T06:56:41Z</time>
      </trkpt>
      <trkpt lat="47.39827" lon="0.67056">
        <ele>63.2</ele>
        <time>2023-07-14T06:56:42Z</time>
      </trkpt>
      <trkpt lat="47.3983" lon="0.67065">
        <ele>63.2</ele>
        <time>2023-07-14T06:56:43Z</time>
      </trkpt>
      <trkpt lat="47.39832" lon="0.67075">
        <ele>63.2</ele>
        <time>2023-07-14T06:56:44Z</time>
      </trkpt>
      <trkpt lat="47.39835" lon="0.67084">
        <ele>63</ele>
        <time>2023-07-14T06:56:45Z</time>
      </trkpt>
      <trkpt lat="47.39837" lon="0.67092">
        <ele>63</ele>
        <time>2023-07-14T06:56:46Z</time>
      </trkpt>
      <trkpt lat="47.39839" lon="0.67101">
        <ele>63</ele>
        <time>2023-07-14T06:56:47Z</time>
      </trkpt>
      <trkpt lat="47.39841" lon="0.67108">
        <ele>63</ele>
        <time>2023-07-14T06:56:48Z</time>
      </trkpt>
      <trkpt lat="47.39843" lon="0.67116">
        <ele>63</ele>
        <time>2023-07-14T06:56:49Z</time>
      </trkpt>
      <trkpt lat="47.39846" lon="0.67124">
        <ele>63</ele>
        <time>2023-07-14T06:56:50Z</time>
      </trkpt>
      <trkpt lat="47.39848" lon="0.67132">
        <ele>63</ele>
        <time>2023-07-14T06:56:51Z</time>
      </trkpt>
      <trkpt lat="47.3985" lon="0.6714">
        <ele>63</ele>
        <time>2023-07-14T06:56:52Z</time>
      </trkpt>
      <trkpt lat="47.39853" lon="0.67148">
        <ele>63</ele>
        <time>2023-07-14T06:56:53Z</time>
      </trkpt>
      <trkpt lat="47.39855" lon="0.67156">
        <ele>63</ele>
        <time>2023-07-14T06:56:54Z</time>
      </trkpt>
      <trkpt lat="47.39857" lon="0.67165">
        <ele>63</ele>
        <time>2023-07-14T06:56:55Z</time>
      </trkpt>
      <trkpt lat="47.39859" lon="0.67173">
        <ele>63</ele>
        <time>2023-07-14T06:56:56Z</time>
      </trkpt>
      <trkpt lat="47.39861" lon="0.67181">
        <ele>63</ele>
        <time>2023-07-14T06:56:57Z</time>
      </trkpt>
      <trkpt lat="47.39864" lon="0.6719">
        <ele>63</ele>
        <time>2023-07-14T06:56:58Z</time>
      </trkpt>
      <trkpt lat="47.39866" lon="0.67199">
        <ele>62.8</ele>
        <time>2023-07-14T06:56:59Z</time>
      </trkpt>
      <trkpt lat="47.39869" lon="0.67207">
        <ele>62.8</ele>
        <time>2023-07-14T06:57:00Z</time>
      </trkpt>
      <trkpt lat="47.39872" lon="0.67215">
        <ele>62.8</ele>
        <time>2023-07-14T06:57:01Z</time>
      </trkpt>
      <trkpt lat="47.39874" lon="0.67223">
        <ele>62.8</ele>
        <time>2023-07-14T06:57:02Z</time>
      </trkpt>
      <trkpt lat="47.39877" lon="0.67231">
        <ele>63</ele>
        <time>2023-07-14T06:57:03Z</time>
      </trkpt>
      <trkpt lat="47.3988" lon="0.6724">
        <ele>63</ele>
        <time>2023-07-14T06:57:04Z</time>
      </trkpt>
      <trkpt lat="47.39883" lon="0.67248">
        <ele>63</ele>
        <time>2023-07-14T06:57:05Z</time>
      </trkpt>
      <trkpt lat="47.39885" lon="0.67255">
        <ele>63</ele>
        <time>2023-07-14T06:57:06Z</time>
      </trkpt>
      <trkpt lat="47.39888" lon="0.67263">
        <ele>63</ele>
        <time>2023-07-14T06:57:07Z</time>
      </trkpt>
      <trkpt lat="47.3989" lon="0.67271">
        <ele>63</ele>
        <time>2023-07-14T06:57:08Z</time>
      </trkpt>
      <trkpt lat="47.39893" lon="0.67279">
        <ele>63</ele>
        <time>2023-07-14T06:57:09Z</time>
      </trkpt>
      <trkpt lat="47.39895" lon="0.67288">
        <ele>63</ele>
        <time>2023-07-14T06:57:10Z</time>
      </trkpt>
      <trkpt lat="47.39898" lon="0.67295">
        <ele>63</ele>
        <time>2023-07-14T06:57:11Z</time>
      </trkpt>
      <trkpt lat="47.39901" lon="0.67302">
        <ele>63</ele>
        <time>2023-07-14T06:57:12Z</time>
      </trkpt>
      <trkpt lat="47.39904" lon="0.67309">
        <ele>63</ele>
        <time>2023-07-14T06:57:13Z</time>
      </trkpt>
      <trkpt lat="47.39906" lon="0.67317">
        <ele>63.2</ele>
        <time>2023-07-14T06:57:14Z</time>
      </trkpt>
      <trkpt lat="47.39909" lon="0.67324">
        <ele>63.2</ele>
        <time>2023-07-14T06:57:15Z</time>
      </trkpt>
      <trkpt lat="47.39911" lon="0.67332">
        <ele>63.4</ele>
        <time>2023-07-14T06:57:16Z</time>
      </trkpt>
      <trkpt lat="47.39912" lon="0.67339">
        <ele>63.4</ele>
        <time>2023-07-14T06:57:17Z</time>
      </trkpt>
      <trkpt lat="47.39914" lon="0.67347">
        <ele>63.6</ele>
        <time>2023-07-14T06:57:18Z</time>
      </trkpt>
      <trkpt lat="47.39915" lon="0.67356">
        <ele>63.6</ele>
        <time>2023-07-14T06:57:19Z</time>
      </trkpt>
      <trkpt lat="47.39917" lon="0.67363">
        <ele>63.8</ele>
        <time>2023-07-14T06:57:20Z</time>
      </trkpt>
      <trkpt lat="47.39918" lon="0.6737">
        <ele>63.8</ele>
        <time>2023-07-14T06:57:21Z</time>
      </trkpt>
      <trkpt lat="47.39921" lon="0.67377">
        <ele>63.8</ele>
        <time>2023-07-14T06:57:22Z</time>
      </trkpt>
      <trkpt lat="47.39923" lon="0.67386">
        <ele>64</ele>
        <time>2023-07-14T06:57:23Z</time>
      </trkpt>
      <trkpt lat="47.39926" lon="0.67396">
        <ele>64</ele>
        <time>2023-07-14T06:57:24Z</time>
      </trkpt>
      <trkpt lat="47.39928" lon="0.67405">
        <ele>64</ele>
        <time>2023-07-14T06:57:25Z</time>
      </trkpt>
      <trkpt lat="47.3993" lon="0.67414">
        <ele>64</ele>
        <time>2023-07-14T06:57:26Z</time>
      </trkpt>
      <trkpt lat="47.39933" lon="0.67422">
        <ele>63.8</ele>
        <time>2023-07-14T06:57:27Z</time>
      </trkpt>
      <trkpt lat="47.39935" lon="0.67431">
        <ele>63.8</ele>
        <time>2023-07-14T06:57:28Z</time>
      </trkpt>
      <trkpt lat="47.39938" lon="0.67441">
        <ele>63.6</ele>
        <time>2023-07-14T06:57:29Z</time>
      </trkpt>
      <trkpt lat="47.39941" lon="0.67451">
        <ele>63.6</ele>
        <time>2023-07-14T06:57:30Z</time>
      </trkpt>
      <trkpt lat="47.39943" lon="0.67462">
        <ele>63.4</ele>
        <time>2023-07-14T06:57:31Z</time>
      </trkpt>
      <trkpt lat="47.39946" lon="0.67473">
        <ele>63.4</ele>
        <time>2023-07-14T06:57:32Z</time>
      </trkpt>
      <trkpt lat="47.39948" lon="0.67484">
        <ele>63.2</ele>
        <time>2023-07-14T06:57:33Z</time>
      </trkpt>
      <trkpt lat="47.3995" lon="0.67495">
        <ele>63.2</ele>
        <time>2023-07-14T06:57:34Z</time>
      </trkpt>
      <trkpt lat="47.39951" lon="0.67505">
        <ele>63</ele>
        <time>2023-07-14T06:57:35Z</time>
      </trkpt>
      <trkpt lat="47.39952" lon="0.67516">
        <ele>62.8</ele>
        <time>2023-07-14T06:57:36Z</time>
      </trkpt>
      <trkpt lat="47.39952" lon="0.67525">
        <ele>62.8</ele>
        <time>2023-07-14T06:57:37Z</time>
      </trkpt>
      <trkpt lat="47.39951" lon="0.67534">
        <ele>62.8</ele>
        <time>2023-07-14T06:57:38Z</time>
      </trkpt>
      <trkpt lat="47.39953" lon="0.67543">
        <ele>62.8</ele>
        <time>2023-07-14T06:57:39Z</time>
      </trkpt>
      <trkpt lat="47.39959" lon="0.67553">
        <ele>62.8</ele>
        <time>2023-07-14T06:57:40Z</time>
      </trkpt>
      <trkpt lat="47.39965" lon="0.67562">
        <ele>62.8</ele>
        <time>2023-07-14T06:57:41Z</time>
      </trkpt>
      <trkpt lat="47.39968" lon="0.6757">
        <ele>63</ele>
        <time>2023-07-14T06:57:42Z</time>
      </trkpt>
      <trkpt lat="47.39971" lon="0.67578">
        <ele>63</ele>
        <time>2023-07-14T06:57:43Z</time>
      </trkpt>
      <trkpt lat="47.39974" lon="0.67587">
        <ele>63.2</ele>
        <time>2023-07-14T06:57:44Z</time>
      </trkpt>
      <trkpt lat="47.39977" lon="0.67595">
        <ele>63.2</ele>
        <time>2023-07-14T06:57:45Z</time>
      </trkpt>
      <trkpt lat="47.3998" lon="0.67603">
        <ele>63.4</ele>
        <time>2023-07-14T06:57:46Z</time>
      </trkpt>
      <trkpt lat="47.39982" lon="0.67612">
        <ele>63.4</ele>
        <time>2023-07-14T06:57:47Z</time>
      </trkpt>
      <trkpt lat="47.39985" lon="0.6762">
        <ele>63.6</ele>
        <time>2023-07-14T06:57:48Z</time>
      </trkpt>
      <trkpt lat="47.39987" lon="0.67629">
        <ele>63.8</ele>
        <time>2023-07-14T06:57:49Z</time>
      </trkpt>
      <trkpt lat="47.39989" lon="0.67637">
        <ele>63.8</ele>
        <time>2023-07-14T06:57:50Z</time>
      </trkpt>
      <trkpt lat="47.39992" lon="0.67645">
        <ele>64</ele>
        <time>2023-07-14T06:57:51Z</time>
      </trkpt>
      <trkpt lat="47.39994" lon="0.67654">
        <ele>64.2</ele>
        <time>2023-07-14T06:57:52Z</time>
      </trkpt>
      <trkpt lat="47.39996" lon="0.67662">
        <ele>64.2</ele>
        <time>2023-07-14T06:57:53Z</time>
      </trkpt>
      <trkpt lat="47.39999" lon="0.67671">
        <ele>64.2</ele>
        <time>2023-07-14T06:57:54Z</time>
      </trkpt>
      <trkpt lat="47.40001" lon="0.6768">
        <ele>64.2</ele>
        <time>2023-07-14T06:57:55Z</time>
      </trkpt>
      <trkpt lat="47.40003" lon="0.67689">
        <ele>64.2</ele>
        <time>2023-07-14T06:57:56Z</time>
      </trkpt>
      <trkpt lat="47.40005" lon="0.67699">
        <ele>64.2</ele>
        <time>2023-07-14T06:57:57Z</time>
      </trkpt>
      <trkpt lat="47.40007" lon="0.67708">
        <ele>64.2</ele>
        <time>2023-07-14T06:57:58Z</time>
      </trkpt>
      <trkpt lat="47.40009" lon="0.67718">
        <ele>64.2</ele>
        <time>2023-07-14T06:57:59Z</time>
      </trkpt>
      <trkpt lat="47.4001" lon="0.67727">
        <ele>64.2</ele>
        <time>2023-07-14T06:58:00Z</time>
      </trkpt>
      <trkpt lat="47.40012" lon="0.67737">
        <ele>64</ele>
        <time>2023-07-14T06:58:01Z</time>
      </trkpt>
      <trkpt lat="47.40014" lon="0.67747">
        <ele>63.8</ele>
        <time>2023-07-14T06:58:02Z</time>
      </trkpt>
      <trkpt lat="47.40015" lon="0.67756">
        <ele>63.8</ele>
        <time>2023-07-14T06:58:03Z</time>
      </trkpt>
      <trkpt lat="47.40017" lon="0.67766">
        <ele>63.8</ele>
        <time>2023-07-14T06:58:04Z</time>
      </trkpt>
      <trkpt lat="47.40017" lon="0.67775">
        <ele>63.8</ele>
        <time>2023-07-14T06:58:05Z</time>
      </trkpt>
      <trkpt lat="47.40017" lon="0.67785">
        <ele>63.6</ele>
        <time>2023-07-14T06:58:06Z</time>
      </trkpt>
      <trkpt lat="47.40017" lon="0.67795">
        <ele>63.4</ele>
        <time>2023-07-14T06:58:07Z</time>
      </trkpt>
      <trkpt lat="47.40017" lon="0.67804">
        <ele>63.4</ele>
        <time>2023-07-14T06:58:08Z</time>
      </trkpt>
      <trkpt lat="47.40018" lon="0.67814">
        <ele>63.4</ele>
        <time>2023-07-14T06:58:09Z</time>
      </trkpt>
      <trkpt lat="47.40019" lon="0.67823">
        <ele>63.4</ele>
        <time>2023-07-14T06:58:10Z</time>
      </trkpt>
      <trkpt lat="47.4002" lon="0.67833">
        <ele>63.2</ele>
        <time>2023-07-14T06:58:11Z</time>
      </trkpt>
      <trkpt lat="47.40022" lon="0.67843">
        <ele>63.2</ele>
        <time>2023-07-14T06:58:12Z</time>
      </trkpt>
      <trkpt lat="47.40023" lon="0.67853">
        <ele>63.2</ele>
        <time>2023-07-14T06:58:13Z</time>
      </trkpt>
      <trkpt lat="47.40025" lon="0.67862">
        <ele>63.2</ele>
        <time>2023-07-14T06:58:14Z</time>
      </trkpt>
      <trkpt lat="47.40025" lon="0.67871">
        <ele>63.2</ele>
        <time>2023-07-14T06:58:15Z</time>
      </trkpt>
      <trkpt lat="47.40027" lon="0.6788">
        <ele>63.2</ele>
        <time>2023-07-14T06:58:16Z</time>
      </trkpt>
      <trkpt lat="47.40029" lon="0.67889">
        <ele>63.2</ele>
        <time>2023-07-14T06:58:17Z</time>
      </trkpt>
      <trkpt lat="47.40031" lon="0.67897">
        <ele>63.2</ele>
        <time>2023-07-14T06:58:18Z</time>
      </trkpt>
      <trkpt lat="47.40032" lon="0.67904">
        <ele>63.2</ele>
        <time>2023-07-14T06:58:19Z</time>
      </trkpt>
      <trkpt lat="47.40033" lon="0.67912">
        <ele>63.2</ele>
        <time>2023-07-14T06:58:20Z</time>
      </trkpt>
      <trkpt lat="47.40034" lon="0.67919">
        <ele>63</ele>
        <time>2023-07-14T06:58:21Z</time>
      </trkpt>
      <trkpt lat="47.40035" lon="0.67926">
        <ele>63</ele>
        <time>2023-07-14T06:58:22Z</time>
      </trkpt>
      <trkpt lat="47.40038" lon="0.67932">
        <ele>63</ele>
        <time>2023-07-14T06:58:23Z</time>
      </trkpt>
      <trkpt lat="47.40041" lon="0.67937">
        <ele>63</ele>
        <time>2023-07-14T06:58:24Z</time>
      </trkpt>
      <trkpt lat="47.40044" lon="0.67944">
        <ele>63</ele>
        <time>2023-07-14T06:58:25Z</time>
      </trkpt>
      <trkpt lat="47.40045" lon="0.6795">
        <ele>63</ele>
        <time>2023-07-14T06:58:26Z</time>
      </trkpt>
      <trkpt lat="47.40046" lon="0.67959">
        <ele>63</ele>
        <time>2023-07-14T06:58:27Z</time>
      </trkpt>
      <trkpt lat="47.40046" lon="0.67968">
        <ele>63.2</ele>
        <time>2023-07-14T06:58:28Z</time>
      </trkpt>
      <trkpt lat="47.40047" lon="0.67977">
        <ele>63.4</ele>
        <time>2023-07-14T06:58:29Z</time>
      </trkpt>
      <trkpt lat="47.40047" lon="0.67987">
        <ele>63.4</ele>
        <time>2023-07-14T06:58:30Z</time>
      </trkpt>
      <trkpt lat="47.40046" lon="0.67996">
        <ele>63.4</ele>
        <time>2023-07-14T06:58:31Z</time>
      </trkpt>
      <trkpt lat="47.40046" lon="0.68006">
        <ele>63.4</ele>
        <time>2023-07-14T06:58:32Z</time>
      </trkpt>
      <trkpt lat="47.40046" lon="0.68015">
        <ele>63.6</ele>
        <time>2023-07-14T06:58:33Z</time>
      </trkpt>
      <trkpt lat="47.40046" lon="0.68025">
        <ele>63.6</ele>
        <time>2023-07-14T06:58:34Z</time>
      </trkpt>
      <trkpt lat="47.40046" lon="0.68035">
        <ele>63.6</ele>
        <time>2023-07-14T06:58:35Z</time>
      </trkpt>
      <trkpt lat="47.40046" lon="0.68044">
        <ele>63.6</ele>
        <time>2023-07-14T06:58:36Z</time>
      </trkpt>
      <trkpt lat="47.40046" lon="0.68054">
        <ele>63.8</ele>
        <time>2023-07-14T06:58:37Z</time>
      </trkpt>
      <trkpt lat="47.40047" lon="0.68063">
        <ele>63.8</ele>
        <time>2023-07-14T06:58:38Z</time>
      </trkpt>
      <trkpt lat="47.40046" lon="0.68073">
        <ele>63.8</ele>
        <time>2023-07-14T06:58:39Z</time>
      </trkpt>
      <trkpt lat="47.40046" lon="0.68082">
        <ele>63.8</ele>
        <time>2023-07-14T06:58:40Z</time>
      </trkpt>
      <trkpt lat="47.40047" lon="0.68092">
        <ele>63.8</ele>
        <time>2023-07-14T06:58:41Z</time>
      </trkpt>
      <trkpt lat="47.40047" lon="0.68101">
        <ele>63.8</ele>
        <time>2023-07-14T06:58:42Z</time>
      </trkpt>
      <trkpt lat="47.40049" lon="0.6811">
        <ele>63.8</ele>
        <time>2023-07-14T06:58:43Z</time>
      </trkpt>
      <trkpt lat="47.4005" lon="0.68119">
        <ele>63.8</ele>
        <time>2023-07-14T06:58:44Z</time>
      </trkpt>
      <trkpt lat="47.40052" lon="0.68127">
        <ele>63.8</ele>
        <time>2023-07-14T06:58:45Z</time>
      </trkpt>
      <trkpt lat="47.40053" lon="0.68136">
        <ele>63.8</ele>
        <time>2023-07-14T06:58:46Z</time>
      </trkpt>
      <trkpt lat="47.40055" lon="0.68144">
        <ele>64.2</ele>
        <time>2023-07-14T06:58:47Z</time>
      </trkpt>
      <trkpt lat="47.40057" lon="0.68151">
        <ele>64.4</ele>
        <time>2023-07-14T06:58:48Z</time>
      </trkpt>
      <trkpt lat="47.40059" lon="0.68159">
        <ele>64.4</ele>
        <time>2023-07-14T06:58:49Z</time>
      </trkpt>
      <trkpt lat="47.40061" lon="0.68166">
        <ele>64.4</ele>
        <time>2023-07-14T06:58:50Z</time>
      </trkpt>
      <trkpt lat="47.40062" lon="0.68173">
        <ele>64.4</ele>
        <time>2023-07-14T06:58:51Z</time>
      </trkpt>
      <trkpt lat="47.40063" lon="0.68181">
        <ele>64.4</ele>
        <time>2023-07-14T06:58:52Z</time>
      </trkpt>
      <trkpt lat="47.40064" lon="0.68187">
        <ele>64.4</ele>
        <time>2023-07-14T06:58:53Z</time>
      </trkpt>
      <trkpt lat="47.40065" lon="0.68193">
        <ele>64.2</ele>
        <time>2023-07-14T06:58:54Z</time>
      </trkpt>
      <trkpt lat="47.40066" lon="0.68199">
        <ele>64.2</ele>
        <time>2023-07-14T06:58:55Z</time>
      </trkpt>
      <trkpt lat="47.40066" lon="0.68204">
        <ele>64.2</ele>
        <time>2023-07-14T06:58:56Z</time>
      </trkpt>
      <trkpt lat="47.40065" lon="0.6821">
        <ele>64.2</ele>
        <time>2023-07-14T06:58:57Z</time>
      </trkpt>
      <trkpt lat="47.40065" lon="0.68216">
        <ele>64.2</ele>
        <time>2023-07-14T06:58:58Z</time>
      </trkpt>
      <trkpt lat="47.40065" lon="0.68224">
        <ele>64.2</ele>
        <time>2023-07-14T06:58:59Z</time>
      </trkpt>
      <trkpt lat="47.40066" lon="0.68232">
        <ele>64</ele>
        <time>2023-07-14T06:59:00Z</time>
      </trkpt>
      <trkpt lat="47.40067" lon="0.6824">
        <ele>64</ele>
        <time>2023-07-14T06:59:01Z</time>
      </trkpt>
      <trkpt lat="47.40068" lon="0.6825">
        <ele>63.8</ele>
        <time>2023-07-14T06:59:02Z</time>
      </trkpt>
      <trkpt lat="47.40068" lon="0.68261">
        <ele>63.8</ele>
        <time>2023-07-14T06:59:03Z</time>
      </trkpt>
      <trkpt lat="47.4007" lon="0.68271">
        <ele>63.6</ele>
        <time>2023-07-14T06:59:04Z</time>
      </trkpt>
      <trkpt lat="47.40071" lon="0.68281">
        <ele>63.6</ele>
        <time>2023-07-14T06:59:05Z</time>
      </trkpt>
      <trkpt lat="47.40072" lon="0.68292">
        <ele>63.6</ele>
        <time>2023-07-14T06:59:06Z</time>
      </trkpt>
      <trkpt lat="47.40073" lon="0.68303">
        <ele>63.4</ele>
        <time>2023-07-14T06:59:07Z</time>
      </trkpt>
      <trkpt lat="47.40075" lon="0.68314">
        <ele>63.2</ele>
        <time>2023-07-14T06:59:08Z</time>
      </trkpt>
      <trkpt lat="47.40076" lon="0.68326">
        <ele>63</ele>
        <time>2023-07-14T06:59:09Z</time>
      </trkpt>
      <trkpt lat="47.40077" lon="0.68338">
        <ele>62.6</ele>
        <time>2023-07-14T06:59:10Z</time>
      </trkpt>
      <trkpt lat="47.40078" lon="0.6835">
        <ele>62.4</ele>
        <time>2023-07-14T06:59:11Z</time>
      </trkpt>
      <trkpt lat="47.40079" lon="0.68362">
        <ele>62</ele>
        <time>2023-07-14T06:59:12Z</time>
      </trkpt>
      <trkpt lat="47.40081" lon="0.68374">
        <ele>61.8</ele>
        <time>2023-07-14T06:59:13Z</time>
      </trkpt>
      <trkpt lat="47.40082" lon="0.68387">
        <ele>61.4</ele>
        <time>2023-07-14T06:59:14Z</time>
      </trkpt>
      <trkpt lat="47.40084" lon="0.68399">
        <ele>61.2</ele>
        <time>2023-07-14T06:59:15Z</time>
      </trkpt>
      <trkpt lat="47.40085" lon="0.68411">
        <ele>61</ele>
        <time>2023-07-14T06:59:16Z</time>
      </trkpt>
      <trkpt lat="47.40087" lon="0.68423">
        <ele>60.8</ele>
        <time>2023-07-14T06:59:17Z</time>
      </trkpt>
      <trkpt lat="47.40088" lon="0.68435">
        <ele>60.6</ele>
        <time>2023-07-14T06:59:18Z</time>
      </trkpt>
      <trkpt lat="47.4009" lon="0.68447">
        <ele>60.6</ele>
        <time>2023-07-14T06:59:19Z</time>
      </trkpt>
      <trkpt lat="47.40091" lon="0.68458">
        <ele>60.6</ele>
        <time>2023-07-14T06:59:20Z</time>
      </trkpt>
      <trkpt lat="47.40093" lon="0.68469">
        <ele>60.4</ele>
        <time>2023-07-14T06:59:21Z</time>
      </trkpt>
      <trkpt lat="47.40096" lon="0.6848">
        <ele>60.2</ele>
        <time>2023-07-14T06:59:22Z</time>
      </trkpt>
      <trkpt lat="47.40098" lon="0.6849">
        <ele>60.2</ele>
        <time>2023-07-14T06:59:23Z</time>
      </trkpt>
      <trkpt lat="47.401" lon="0.685">
        <ele>60</ele>
        <time>2023-07-14T06:59:24Z</time>
      </trkpt>
      <trkpt lat="47.40102" lon="0.68509">
        <ele>60</ele>
        <time>2023-07-14T06:59:25Z</time>
      </trkpt>
      <trkpt lat="47.40104" lon="0.68517">
        <ele>60</ele>
        <time>2023-07-14T06:59:26Z</time>
      </trkpt>
      <trkpt lat="47.40107" lon="0.68526">
        <ele>60.2</ele>
        <time>2023-07-14T06:59:27Z</time>
      </trkpt>
      <trkpt lat="47.40108" lon="0.68533">
        <ele>60.4</ele>
        <time>2023-07-14T06:59:28Z</time>
      </trkpt>
      <trkpt lat="47.4011" lon="0.68541">
        <ele>60.6</ele>
        <time>2023-07-14T06:59:29Z</time>
      </trkpt>
      <trkpt lat="47.40112" lon="0.68548">
        <ele>60.6</ele>
        <time>2023-07-14T06:59:30Z</time>
      </trkpt>
      <trkpt lat="47.40114" lon="0.68555">
        <ele>60.8</ele>
        <time>2023-07-14T06:59:31Z</time>
      </trkpt>
      <trkpt lat="47.40115" lon="0.68561">
        <ele>61</ele>
        <time>2023-07-14T06:59:32Z</time>
      </trkpt>
      <trkpt lat="47.40116" lon="0.68567">
        <ele>61.2</ele>
        <time>2023-07-14T06:59:33Z</time>
      </trkpt>
      <trkpt lat="47.40118" lon="0.68573">
        <ele>61.4</ele>
        <time>2023-07-14T06:59:34Z</time>
      </trkpt>
      <trkpt lat="47.40119" lon="0.68579">
        <ele>61.6</ele>
        <time>2023-07-14T06:59:35Z</time>
      </trkpt>
      <trkpt lat="47.40121" lon="0.68585">
        <ele>62</ele>
        <time>2023-07-14T06:59:36Z</time>
      </trkpt>
      <trkpt lat="47.40122" lon="0.68591">
        <ele>62.2</ele>
        <time>2023-07-14T06:59:37Z</time>
      </trkpt>
      <trkpt lat="47.40124" lon="0.68597">
        <ele>62.4</ele>
        <time>2023-07-14T06:59:38Z</time>
      </trkpt>
      <trkpt lat="47.40126" lon="0.68603">
        <ele>62.6</ele>
        <time>2023-07-14T06:59:39Z</time>
      </trkpt>
      <trkpt lat="47.40128" lon="0.6861">
        <ele>62.8</ele>
        <time>2023-07-14T06:59:40Z</time>
      </trkpt>
      <trkpt lat="47.40129" lon="0.68616">
        <ele>63</ele>
        <time>2023-07-14T06:59:41Z</time>
      </trkpt>
      <trkpt lat="47.40131" lon="0.68623">
        <ele>63.2</ele>
        <time>2023-07-14T06:59:42Z</time>
      </trkpt>
      <trkpt lat="47.40133" lon="0.6863">
        <ele>63.4</ele>
        <time>2023-07-14T06:59:43Z</time>
      </trkpt>
      <trkpt lat="47.40136" lon="0.68637">
        <ele>63.4</ele>
        <time>2023-07-14T06:59:44Z</time>
      </trkpt>
      <trkpt lat="47.40137" lon="0.68644">
        <ele>63.8</ele>
        <time>2023-07-14T06:59:45Z</time>
      </trkpt>
      <trkpt lat="47.4014" lon="0.6865">
        <ele>63.8</ele>
        <time>2023-07-14T06:59:46Z</time>
      </trkpt>
      <trkpt lat="47.40141" lon="0.68657">
        <ele>64</ele>
        <time>2023-07-14T06:59:47Z</time>
      </trkpt>
      <trkpt lat="47.40144" lon="0.68666">
        <ele>64</ele>
        <time>2023-07-14T06:59:48Z</time>
      </trkpt>
      <trkpt lat="47.40145" lon="0.68675">
        <ele>64.2</ele>
        <time>2023-07-14T06:59:49Z</time>
      </trkpt>
      <trkpt lat="47.40147" lon="0.68683">
        <ele>64.2</ele>
        <time>2023-07-14T06:59:50Z</time>
      </trkpt>
      <trkpt lat="47.40147" lon="0.68692">
        <ele>64.2</ele>
        <time>2023-07-14T06:59:51Z</time>
      </trkpt>
      <trkpt lat="47.40149" lon="0.687">
        <ele>64.2</ele>
        <time>2023-07-14T06:59:52Z</time>
      </trkpt>
      <trkpt lat="47.40149" lon="0.68709">
        <ele>64.2</ele>
        <time>2023-07-14T06:59:53Z</time>
      </trkpt>
      <trkpt lat="47.4015" lon="0.68717">
        <ele>64.2</ele>
        <time>2023-07-14T06:59:54Z</time>
      </trkpt>
      <trkpt lat="47.40151" lon="0.68727">
        <ele>64.2</ele>
        <time>2023-07-14T06:59:55Z</time>
      </trkpt>
      <trkpt lat="47.40152" lon="0.68736">
        <ele>64</ele>
        <time>2023-07-14T06:59:56Z</time>
      </trkpt>
      <trkpt lat="47.40153" lon="0.68746">
        <ele>64</ele>
        <time>2023-07-14T06:59:57Z</time>
      </trkpt>
      <trkpt lat="47.40154" lon="0.68755">
        <ele>64</ele>
        <time>2023-07-14T06:59:58Z</time>
      </trkpt>
      <trkpt lat="47.40155" lon="0.68765">
        <ele>64</ele>
        <time>2023-07-14T06:59:59Z</time>
      </trkpt>
      <trkpt lat="47.40156" lon="0.68774">
        <ele>64</ele>
        <time>2023-07-14T07:00:00Z</time>
      </trkpt>
      <trkpt lat="47.40157" lon="0.68783">
        <ele>64</ele>
        <time>2023-07-14T07:00:01Z</time>
      </trkpt>
      <trkpt lat="47.40158" lon="0.68792">
        <ele>64</ele>
        <time>2023-07-14T07:00:02Z</time>
      </trkpt>
      <trkpt lat="47.40159" lon="0.688">
        <ele>64</ele>
        <time>2023-07-14T07:00:03Z</time>
      </trkpt>
      <trkpt lat="47.4016" lon="0.68809">
        <ele>64</ele>
        <time>2023-07-14T07:00:04Z</time>
      </trkpt>
      <trkpt lat="47.40161" lon="0.68817">
        <ele>63.8</ele>
        <time>2023-07-14T07:00:05Z</time>
      </trkpt>
      <trkpt lat="47.40162" lon="0.68825">
        <ele>63.8</ele>
        <time>2023-07-14T07:00:06Z</time>
      </trkpt>
      <trkpt lat="47.40163" lon="0.68834">
        <ele>63.8</ele>
        <time>2023-07-14T07:00:07Z</time>
      </trkpt>
      <trkpt lat="47.40165" lon="0.68843">
        <ele>63.8</ele>
        <time>2023-07-14T07:00:08Z</time>
      </trkpt>
      <trkpt lat="47.40165" lon="0.68852">
        <ele>63.8</ele>
        <time>2023-07-14T07:00:09Z</time>
      </trkpt>
      <trkpt lat="47.40166" lon="0.6886">
        <ele>63.8</ele>
        <time>2023-07-14T07:00:10Z</time>
      </trkpt>
      <trkpt lat="47.40167" lon="0.68869">
        <ele>64</ele>
        <time>2023-07-14T07:00:11Z</time>
      </trkpt>
      <trkpt lat="47.40168" lon="0.68878">
        <ele>64</ele>
        <time>2023-07-14T07:00:12Z</time>
      </trkpt>
      <trkpt lat="47.40168" lon="0.68887">
        <ele>64</ele>
        <time>2023-07-14T07:00:13Z</time>
      </trkpt>
      <trkpt lat="47.40169" lon="0.68896">
        <ele>64</ele>
        <time>2023-07-14T07:00:14Z</time>
      </trkpt>
      <trkpt lat="47.4017" lon="0.68906">
        <ele>64</ele>
        <time>2023-07-14T07:00:15Z</time>
      </trkpt>
      <trkpt lat="47.4017" lon="0.68915">
        <ele>64</ele>
        <time>2023-07-14T07:00:16Z</time>
      </trkpt>
      <trkpt lat="47.40171" lon="0.68925">
        <ele>64</ele>
        <time>2023-07-14T07:00:17Z</time>
      </trkpt>
      <trkpt lat="47.40172" lon="0.68934">
        <ele>64</ele>
        <time>2023-07-14T07:00:18Z</time>
      </trkpt>
      <trkpt lat="47.40173" lon="0.68944">
        <ele>64</ele>
        <time>2023-07-14T07:00:19Z</time>
      </trkpt>
      <trkpt lat="47.40173" lon="0.68953">
        <ele>64</ele>
        <time>2023-07-14T07:00:20Z</time>
      </trkpt>
      <trkpt lat="47.40174" lon="0.68963">
        <ele>64</ele>
        <time>2023-07-14T07:00:21Z</time>
      </trkpt>
      <trkpt lat="47.40175" lon="0.68972">
        <ele>64</ele>
        <time>2023-07-14T07:00:22Z</time>
      </trkpt>
      <trkpt lat="47.40176" lon="0.68981">
        <ele>64</ele>
        <time>2023-07-14T07:00:23Z</time>
      </trkpt>
      <trkpt lat="47.40178" lon="0.6899">
        <ele>64</ele>
        <time>2023-07-14T07:00:24Z</time>
      </trkpt>
      <trkpt lat="47.40179" lon="0.68999">
        <ele>64</ele>
        <time>2023-07-14T07:00:25Z</time>
      </trkpt>
      <trkpt lat="47.4018" lon="0.69008">
        <ele>64</ele>
        <time>2023-07-14T07:00:26Z</time>
      </trkpt>
      <trkpt lat="47.40181" lon="0.69018">
        <ele>64</ele>
        <time>2023-07-14T07:00:27Z</time>
      </trkpt>
      <trkpt lat="47.40181" lon="0.69028">
        <ele>64</ele>
        <time>2023-07-14T07:00:28Z</time>
      </trkpt>
      <trkpt lat="47.40181" lon="0.69038">
        <ele>64</ele>
        <time>2023-07-14T07:00:29Z</time>
      </trkpt>
      <trkpt lat="47.40181" lon="0.69048">
        <ele>64</ele>
        <time>2023-07-14T07:00:30Z</time>
      </trkpt>
      <trkpt lat="47.40182" lon="0.69058">
        <ele>64</ele>
        <time>2023-07-14T07:00:31Z</time>
      </trkpt>
      <trkpt lat="47.40183" lon="0.69067">
        <ele>64</ele>
        <time>2023-07-14T07:00:32Z</time>
      </trkpt>
      <trkpt lat="47.40184" lon="0.69076">
        <ele>64</ele>
        <time>2023-07-14T07:00:33Z</time>
      </trkpt>
      <trkpt lat="47.40185" lon="0.69085">
        <ele>64</ele>
        <time>2023-07-14T07:00:34Z</time>
      </trkpt>
      <trkpt lat="47.40186" lon="0.69094">
        <ele>64.2</ele>
        <time>2023-07-14T07:00:35Z</time>
      </trkpt>
      <trkpt lat="47.40186" lon="0.69104">
        <ele>64.2</ele>
        <time>2023-07-14T07:00:36Z</time>
      </trkpt>
      <trkpt lat="47.40187" lon="0.69114">
        <ele>64.2</ele>
        <time>2023-07-14T07:00:37Z</time>
      </trkpt>
      <trkpt lat="47.40189" lon="0.69124">
        <ele>64.2</ele>
        <time>2023-07-14T07:00:38Z</time>
      </trkpt>
      <trkpt lat="47.40189" lon="0.69134">
        <ele>64.2</ele>
        <time>2023-07-14T07:00:39Z</time>
      </trkpt>
      <trkpt lat="47.4019" lon="0.69144">
        <ele>64.4</ele>
        <time>2023-07-14T07:00:40Z</time>
      </trkpt>
      <trkpt lat="47.40191" lon="0.69154">
        <ele>64.4</ele>
        <time>2023-07-14T07:00:41Z</time>
      </trkpt>
      <trkpt lat="47.40192" lon="0.69162">
        <ele>64.4</ele>
        <time>2023-07-14T07:00:42Z</time>
      </trkpt>
      <trkpt lat="47.40194" lon="0.69172">
        <ele>64.4</ele>
        <time>2023-07-14T07:00:43Z</time>
      </trkpt>
      <trkpt lat="47.40195" lon="0.69181">
        <ele>64.4</ele>
        <time>2023-07-14T07:00:44Z</time>
      </trkpt>
      <trkpt lat="47.40196" lon="0.6919">
        <ele>64.4</ele>
        <time>2023-07-14T07:00:45Z</time>
      </trkpt>
      <trkpt lat="47.40196" lon="0.692">
        <ele>64.4</ele>
        <time>2023-07-14T07:00:46Z</time>
      </trkpt>
      <trkpt lat="47.40196" lon="0.69209">
        <ele>64.6</ele>
        <time>2023-07-14T07:00:47Z</time>
      </trkpt>
      <trkpt lat="47.40196" lon="0.69219">
        <ele>64.6</ele>
        <time>2023-07-14T07:00:48Z</time>
      </trkpt>
      <trkpt lat="47.40196" lon="0.69229">
        <ele>64.6</ele>
        <time>2023-07-14T07:00:49Z</time>
      </trkpt>
      <trkpt lat="47.40197" lon="0.69238">
        <ele>64.6</ele>
        <time>2023-07-14T07:00:50Z</time>
      </trkpt>
      <trkpt lat="47.40198" lon="0.69247">
        <ele>64.6</ele>
        <time>2023-07-14T07:00:51Z</time>
      </trkpt>
      <trkpt lat="47.40199" lon="0.69256">
        <ele>64.6</ele>
        <time>2023-07-14T07:00:52Z</time>
      </trkpt>
      <trkpt lat="47.40199" lon="0.69265">
        <ele>64.6</ele>
        <time>2023-07-14T07:00:53Z</time>
      </trkpt>
      <trkpt lat="47.402" lon="0.69274">
        <ele>64.6</ele>
        <time>2023-07-14T07:00:54Z</time>
      </trkpt>
      <trkpt lat="47.402" lon="0.69282">
        <ele>64.6</ele>
        <time>2023-07-14T07:00:55Z</time>
      </trkpt>
      <trkpt lat="47.40202" lon="0.6929">
        <ele>64.4</ele>
        <time>2023-07-14T07:00:56Z</time>
      </trkpt>
      <trkpt lat="47.40202" lon="0.69298">
        <ele>64.4</ele>
        <time>2023-07-14T07:00:57Z</time>
      </trkpt>
      <trkpt lat="47.40203" lon="0.69306">
        <ele>64.4</ele>
        <time>2023-07-14T07:00:58Z</time>
      </trkpt>
      <trkpt lat="47.40204" lon="0.69313">
        <ele>64.4</ele>
        <time>2023-07-14T07:00:59Z</time>
      </trkpt>
      <trkpt lat="47.40205" lon="0.69319">
        <ele>64.2</ele>
        <time>2023-07-14T07:01:00Z</time>
      </trkpt>
      <trkpt lat="47.40206" lon="0.69326">
        <ele>64.4</ele>
        <time>2023-07-14T07:01:01Z</time>
      </trkpt>
      <trkpt lat="47.40207" lon="0.69333">
        <ele>64.4</ele>
        <time>2023-07-14T07:01:02Z</time>
      </trkpt>
      <trkpt lat="47.40208" lon="0.6934">
        <ele>64.4</ele>
        <time>2023-07-14T07:01:03Z</time>
      </trkpt>
      <trkpt lat="47.40208" lon="0.69347">
        <ele>64.4</ele>
        <time>2023-07-14T07:01:04Z</time>
      </trkpt>
      <trkpt lat="47.40209" lon="0.69356">
        <ele>64.2</ele>
        <time>2023-07-14T07:01:05Z</time>
      </trkpt>
      <trkpt lat="47.40208" lon="0.69365">
        <ele>64.2</ele>
        <time>2023-07-14T07:01:06Z</time>
      </trkpt>
      <trkpt lat="47.40209" lon="0.69375">
        <ele>63.8</ele>
        <time>2023-07-14T07:01:07Z</time>
      </trkpt>
      <trkpt lat="47.4021" lon="0.69387">
        <ele>63.6</ele>
        <time>2023-07-14T07:01:08Z</time>
      </trkpt>
      <trkpt lat="47.40211" lon="0.69398">
        <ele>63.2</ele>
        <time>2023-07-14T07:01:09Z</time>
      </trkpt>
      <trkpt lat="47.40211" lon="0.6941">
        <ele>62.8</ele>
        <time>2023-07-14T07:01:10Z</time>
      </trkpt>
      <trkpt lat="47.40212" lon="0.69422">
        <ele>62.6</ele>
        <time>2023-07-14T07:01:11Z</time>
      </trkpt>
      <trkpt lat="47.40211" lon="0.69434">
        <ele>62.4</ele>
        <time>2023-07-14T07:01:12Z</time>
      </trkpt>
      <trkpt lat="47.4021" lon="0.69446">
        <ele>62.2</ele>
        <time>2023-07-14T07:01:13Z</time>
      </trkpt>
      <trkpt lat="47.40208" lon="0.69456">
        <ele>62</ele>
        <time>2023-07-14T07:01:14Z</time>
      </trkpt>
      <trkpt lat="47.40206" lon="0.69467">
        <ele>61.8</ele>
        <time>2023-07-14T07:01:15Z</time>
      </trkpt>
      <trkpt lat="47.40204" lon="0.69479">
        <ele>61.8</ele>
        <time>2023-07-14T07:01:16Z</time>
      </trkpt>
      <trkpt lat="47.40201" lon="0.69491">
        <ele>61.6</ele>
        <time>2023-07-14T07:01:17Z</time>
      </trkpt>
      <trkpt lat="47.40199" lon="0.69502">
        <ele>61.4</ele>
        <time>2023-07-14T07:01:18Z</time>
      </trkpt>
      <trkpt lat="47.40197" lon="0.69512">
        <ele>61.4</ele>
        <time>2023-07-14T07:01:19Z</time>
      </trkpt>
      <trkpt lat="47.40195" lon="0.69523">
        <ele>61.4</ele>
        <time>2023-07-14T07:01:20Z</time>
      </trkpt>
      <trkpt lat="47.40192" lon="0.69533">
        <ele>61.2</ele>
        <time>2023-07-14T07:01:21Z</time>
      </trkpt>
      <trkpt lat="47.4019" lon="0.69544">
        <ele>61.2</ele>
        <time>2023-07-14T07:01:22Z</time>
      </trkpt>
      <trkpt lat="47.40189" lon="0.69554">
        <ele>61</ele>
        <time>2023-07-14T07:01:23Z</time>
      </trkpt>
      <trkpt lat="47.40187" lon="0.69564">
        <ele>61</ele>
        <time>2023-07-14T07:01:24Z</time>
      </trkpt>
      <trkpt lat="47.40187" lon="0.69573">
        <ele>61</ele>
        <time>2023-07-14T07:01:25Z</time>
      </trkpt>
      <trkpt lat="47.40186" lon="0.69584">
        <ele>61</ele>
        <time>2023-07-14T07:01:26Z</time>
      </trkpt>
      <trkpt lat="47.40185" lon="0.69595">
        <ele>61</ele>
        <time>2023-07-14T07:01:27Z</time>
      </trkpt>
      <trkpt lat="47.40184" lon="0.69605">
        <ele>61</ele>
        <time>2023-07-14T07:01:28Z</time>
      </trkpt>
      <trkpt lat="47.40182" lon="0.69614">
        <ele>61</ele>
        <time>2023-07-14T07:01:29Z</time>
      </trkpt>
      <trkpt lat="47.40181" lon="0.69623">
        <ele>61</ele>
        <time>2023-07-14T07:01:30Z</time>
      </trkpt>
      <trkpt lat="47.4018" lon="0.69634">
        <ele>60.8</ele>
        <time>2023-07-14T07:01:31Z</time>
      </trkpt>
      <trkpt lat="47.40178" lon="0.69643">
        <ele>60.8</ele>
        <time>2023-07-14T07:01:32Z</time>
      </trkpt>
      <trkpt lat="47.40176" lon="0.69652">
        <ele>60.8</ele>
        <time>2023-07-14T07:01:33Z</time>
      </trkpt>
      <trkpt lat="47.40175" lon="0.69661">
        <ele>60.8</ele>
        <time>2023-07-14T07:01:34Z</time>
      </trkpt>
      <trkpt lat="47.40172" lon="0.69672">
        <ele>61</ele>
        <time>2023-07-14T07:01:35Z</time>
      </trkpt>
      <trkpt lat="47.4017" lon="0.69683">
        <ele>61</ele>
        <time>2023-07-14T07:01:36Z</time>
      </trkpt>
      <trkpt lat="47.40167" lon="0.69692">
        <ele>61.2</ele>
        <time>2023-07-14T07:01:37Z</time>
      </trkpt>
      <trkpt lat="47.40165" lon="0.69702">
        <ele>61.2</ele>
        <time>2023-07-14T07:01:38Z</time>
      </trkpt>
      <trkpt lat="47.40163" lon="0.69711">
        <ele>61.4</ele>
        <time>2023-07-14T07:01:39Z</time>
      </trkpt>
      <trkpt lat="47.40162" lon="0.6972">
        <ele>61.6</ele>
        <time>2023-07-14T07:01:40Z</time>
      </trkpt>
      <trkpt lat="47.40159" lon="0.69729">
        <ele>61.6</ele>
        <time>2023-07-14T07:01:41Z</time>
      </trkpt>
      <trkpt lat="47.40157" lon="0.69738">
        <ele>61.8</ele>
        <time>2023-07-14T07:01:42Z</time>
      </trkpt>
      <trkpt lat="47.40155" lon="0.69746">
        <ele>61.8</ele>
        <time>2023-07-14T07:01:43Z</time>
      </trkpt>
      <trkpt lat="47.40152" lon="0.69754">
        <ele>61.8</ele>
        <time>2023-07-14T07:01:44Z</time>
      </trkpt>
      <trkpt lat="47.40149" lon="0.69763">
        <ele>61.8</ele>
        <time>2023-07-14T07:01:45Z</time>
      </trkpt>
      <trkpt lat="47.40145" lon="0.69772">
        <ele>61.8</ele>
        <time>2023-07-14T07:01:46Z</time>
      </trkpt>
      <trkpt lat="47.40142" lon="0.6978">
        <ele>61.8</ele>
        <time>2023-07-14T07:01:47Z</time>
      </trkpt>
      <trkpt lat="47.4014" lon="0.69788">
        <ele>61.8</ele>
        <time>2023-07-14T07:01:48Z</time>
      </trkpt>
      <trkpt lat="47.40137" lon="0.69797">
        <ele>61.8</ele>
        <time>2023-07-14T07:01:49Z</time>
      </trkpt>
      <trkpt lat="47.40134" lon="0.69806">
        <ele>61.8</ele>
        <time>2023-07-14T07:01:50Z</time>
      </trkpt>
      <trkpt lat="47.40132" lon="0.69815">
        <ele>61.8</ele>
        <time>2023-07-14T07:01:51Z</time>
      </trkpt>
      <trkpt lat="47.40131" lon="0.69825">
        <ele>61.8</ele>
        <time>2023-07-14T07:01:52Z</time>
      </trkpt>
      <trkpt lat="47.40129" lon="0.69835">
        <ele>61.8</ele>
        <time>2023-07-14T07:01:53Z</time>
      </trkpt>
      <trkpt lat="47.40129" lon="0.69847">
        <ele>61.8</ele>
        <time>2023-07-14T07:01:54Z</time>
      </trkpt>
      <trkpt lat="47.40128" lon="0.69856">
        <ele>61.8</ele>
        <time>2023-07-14T07:01:55Z</time>
      </trkpt>
      <trkpt lat="47.40127" lon="0.69866">
        <ele>61.6</ele>
        <time>2023-07-14T07:01:56Z</time>
      </trkpt>
      <trkpt lat="47.40126" lon="0.69876">
        <ele>61.6</ele>
        <time>2023-07-14T07:01:57Z</time>
      </trkpt>
      <trkpt lat="47.40125" lon="0.69886">
        <ele>61.6</ele>
        <time>2023-07-14T07:01:58Z</time>
      </trkpt>
      <trkpt lat="47.40125" lon="0.69896">
        <ele>61.6</ele>
        <time>2023-07-14T07:01:59Z</time>
      </trkpt>
      <trkpt lat="47.40124" lon="0.69907">
        <ele>61.4</ele>
        <time>2023-07-14T07:02:00Z</time>
      </trkpt>
      <trkpt lat="47.40122" lon="0.69917">
        <ele>61.4</ele>
        <time>2023-07-14T07:02:01Z</time>
      </trkpt>
      <trkpt lat="47.40121" lon="0.69927">
        <ele>61.4</ele>
        <time>2023-07-14T07:02:02Z</time>
      </trkpt>
      <trkpt lat="47.40119" lon="0.69936">
        <ele>61.4</ele>
        <time>2023-07-14T07:02:03Z</time>
      </trkpt>
      <trkpt lat="47.40117" lon="0.69946">
        <ele>61.6</ele>
        <time>2023-07-14T07:02:04Z</time>
      </trkpt>
      <trkpt lat="47.40116" lon="0.69956">
        <ele>61.6</ele>
        <time>2023-07-14T07:02:05Z</time>
      </trkpt>
      <trkpt lat="47.40114" lon="0.69965">
        <ele>61.6</ele>
        <time>2023-07-14T07:02:06Z</time>
      </trkpt>
      <trkpt lat="47.40113" lon="0.69974">
        <ele>61.6</ele>
        <time>2023-07-14T07:02:07Z</time>
      </trkpt>
      <trkpt lat="47.40111" lon="0.69983">
        <ele>61.6</ele>
        <time>2023-07-14T07:02:08Z</time>
      </trkpt>
      <trkpt lat="47.40108" lon="0.69994">
        <ele>61.8</ele>
        <time>2023-07-14T07:02:09Z</time>
      </trkpt>
      <trkpt lat="47.40107" lon="0.70004">
        <ele>61.8</ele>
        <time>2023-07-14T07:02:10Z</time>
      </trkpt>
      <trkpt lat="47.40105" lon="0.70014">
        <ele>61.8</ele>
        <time>2023-07-14T07:02:11Z</time>
      </trkpt>
      <trkpt lat="47.40105" lon="0.70025">
        <ele>61.8</ele>
        <time>2023-07-14T07:02:12Z</time>
      </trkpt>
      <trkpt lat="47.40105" lon="0.70035">
        <ele>61.6</ele>
        <time>2023-07-14T07:02:13Z</time>
      </trkpt>
      <trkpt lat="47.40105" lon="0.70045">
        <ele>61.6</ele>
        <time>2023-07-14T07:02:14Z</time>
      </trkpt>
      <trkpt lat="47.40106" lon="0.70056">
        <ele>61.4</ele>
        <time>2023-07-14T07:02:15Z</time>
      </trkpt>
      <trkpt lat="47.40107" lon="0.70065">
        <ele>61.4</ele>
        <time>2023-07-14T07:02:16Z</time>
      </trkpt>
      <trkpt lat="47.40107" lon="0.70074">
        <ele>61.2</ele>
        <time>2023-07-14T07:02:17Z</time>
      </trkpt>
      <trkpt lat="47.40105" lon="0.70083">
        <ele>61.2</ele>
        <time>2023-07-14T07:02:18Z</time>
      </trkpt>
      <trkpt lat="47.40104" lon="0.70092">
        <ele>61.2</ele>
        <time>2023-07-14T07:02:19Z</time>
      </trkpt>
      <trkpt lat="47.40103" lon="0.701">
        <ele>61.2</ele>
        <time>2023-07-14T07:02:20Z</time>
      </trkpt>
      <trkpt lat="47.40101" lon="0.70109">
        <ele>61.2</ele>
        <time>2023-07-14T07:02:21Z</time>
      </trkpt>
      <trkpt lat="47.40099" lon="0.70118">
        <ele>61.2</ele>
        <time>2023-07-14T07:02:22Z</time>
      </trkpt>
      <trkpt lat="47.40098" lon="0.70128">
        <ele>61.4</ele>
        <time>2023-07-14T07:02:23Z</time>
      </trkpt>
      <trkpt lat="47.40097" lon="0.70137">
        <ele>61.4</ele>
        <time>2023-07-14T07:02:24Z</time>
      </trkpt>
      <trkpt lat="47.40096" lon="0.70146">
        <ele>61.4</ele>
        <time>2023-07-14T07:02:25Z</time>
      </trkpt>
      <trkpt lat="47.40094" lon="0.70154">
        <ele>61.4</ele>
        <time>2023-07-14T07:02:26Z</time>
      </trkpt>
      <trkpt lat="47.40092" lon="0.70165">
        <ele>61.4</ele>
        <time>2023-07-14T07:02:27Z</time>
      </trkpt>
      <trkpt lat="47.40089" lon="0.70175">
        <ele>61.4</ele>
        <time>2023-07-14T07:02:28Z</time>
      </trkpt>
      <trkpt lat="47.40086" lon="0.70184">
        <ele>61.4</ele>
        <time>2023-07-14T07:02:29Z</time>
      </trkpt>
      <trkpt lat="47.40085" lon="0.70193">
        <ele>61.4</ele>
        <time>2023-07-14T07:02:30Z</time>
      </trkpt>
      <trkpt lat="47.40083" lon="0.70203">
        <ele>61.4</ele>
        <time>2023-07-14T07:02:31Z</time>
      </trkpt>
      <trkpt lat="47.40082" lon="0.70212">
        <ele>61.4</ele>
        <time>2023-07-14T07:02:32Z</time>
      </trkpt>
      <trkpt lat="47.40081" lon="0.70223">
        <ele>61.4</ele>
        <time>2023-07-14T07:02:33Z</time>
      </trkpt>
      <trkpt lat="47.40081" lon="0.70234">
        <ele>61.4</ele>
        <time>2023-07-14T07:02:34Z</time>
      </trkpt>
      <trkpt lat="47.40081" lon="0.70243">
        <ele>61.4</ele>
        <time>2023-07-14T07:02:35Z</time>
      </trkpt>
      <trkpt lat="47.40081" lon="0.70252">
        <ele>61.4</ele>
        <time>2023-07-14T07:02:36Z</time>
      </trkpt>
      <trkpt lat="47.40081" lon="0.70262">
        <ele>61.4</ele>
        <time>2023-07-14T07:02:37Z</time>
      </trkpt>
      <trkpt lat="47.4008" lon="0.70272">
        <ele>61.4</ele>
        <time>2023-07-14T07:02:38Z</time>
      </trkpt>
      <trkpt lat="47.40079" lon="0.70281">
        <ele>61.4</ele>
        <time>2023-07-14T07:02:39Z</time>
      </trkpt>
      <trkpt lat="47.40078" lon="0.70291">
        <ele>61.4</ele>
        <time>2023-07-14T07:02:40Z</time>
      </trkpt>
      <trkpt lat="47.40076" lon="0.70299">
        <ele>61.4</ele>
        <time>2023-07-14T07:02:41Z</time>
      </trkpt>
      <trkpt lat="47.40074" lon="0.7031">
        <ele>61.4</ele>
        <time>2023-07-14T07:02:42Z</time>
      </trkpt>
      <trkpt lat="47.40073" lon="0.70321">
        <ele>61.4</ele>
        <time>2023-07-14T07:02:43Z</time>
      </trkpt>
      <trkpt lat="47.40071" lon="0.7033">
        <ele>61.4</ele>
        <time>2023-07-14T07:02:44Z</time>
      </trkpt>
      <trkpt lat="47.40069" lon="0.70339">
        <ele>61.6</ele>
        <time>2023-07-14T07:02:45Z</time>
      </trkpt>
      <trkpt lat="47.40068" lon="0.70348">
        <ele>61.6</ele>
        <time>2023-07-14T07:02:46Z</time>
      </trkpt>
      <trkpt lat="47.40066" lon="0.70357">
        <ele>61.6</ele>
        <time>2023-07-14T07:02:47Z</time>
      </trkpt>
      <trkpt lat="47.40064" lon="0.70365">
        <ele>61.6</ele>
        <time>2023-07-14T07:02:48Z</time>
      </trkpt>
      <trkpt lat="47.40062" lon="0.70374">
        <ele>61.6</ele>
        <time>2023-07-14T07:02:49Z</time>
      </trkpt>
      <trkpt lat="47.4006" lon="0.70384">
        <ele>61.6</ele>
        <time>2023-07-14T07:02:50Z</time>
      </trkpt>
      <trkpt lat="47.40059" lon="0.70395">
        <ele>61.6</ele>
        <time>2023-07-14T07:02:51Z</time>
      </trkpt>
      <trkpt lat="47.40057" lon="0.70404">
        <ele>61.8</ele>
        <time>2023-07-14T07:02:52Z</time>
      </trkpt>
      <trkpt lat="47.40056" lon="0.70413">
        <ele>61.8</ele>
        <time>2023-07-14T07:02:53Z</time>
      </trkpt>
      <trkpt lat="47.40055" lon="0.70421">
        <ele>61.8</ele>
        <time>2023-07-14T07:02:54Z</time>
      </trkpt>
      <trkpt lat="47.40054" lon="0.70432">
        <ele>61.8</ele>
        <time>2023-07-14T07:02:55Z</time>
      </trkpt>
      <trkpt lat="47.40053" lon="0.70442">
        <ele>61.8</ele>
        <time>2023-07-14T07:02:56Z</time>
      </trkpt>
      <trkpt lat="47.40052" lon="0.70452">
        <ele>61.8</ele>
        <time>2023-07-14T07:02:57Z</time>
      </trkpt>
      <trkpt lat="47.40052" lon="0.7046">
        <ele>61.8</ele>
        <time>2023-07-14T07:02:58Z</time>
      </trkpt>
      <trkpt lat="47.40052" lon="0.70468">
        <ele>61.8</ele>
        <time>2023-07-14T07:02:59Z</time>
      </trkpt>
      <trkpt lat="47.40051" lon="0.70479">
        <ele>61.8</ele>
        <time>2023-07-14T07:03:00Z</time>
      </trkpt>
      <trkpt lat="47.40051" lon="0.70487">
        <ele>61.8</ele>
        <time>2023-07-14T07:03:01Z</time>
      </trkpt>
      <trkpt lat="47.4005" lon="0.70496">
        <ele>61.8</ele>
        <time>2023-07-14T07:03:02Z</time>
      </trkpt>
      <trkpt lat="47.4005" lon="0.70505">
        <ele>61.8</ele>
        <time>2023-07-14T07:03:03Z</time>
      </trkpt>
      <trkpt lat="47.40049" lon="0.70513">
        <ele>61.8</ele>
        <time>2023-07-14T07:03:04Z</time>
      </trkpt>
      <trkpt lat="47.40049" lon="0.70523">
        <ele>61.8</ele>
        <time>2023-07-14T07:03:05Z</time>
      </trkpt>
      <trkpt lat="47.40049" lon="0.70531">
        <ele>61.8</ele>
        <time>2023-07-14T07:03:06Z</time>
      </trkpt>
      <trkpt lat="47.40049" lon="0.70538">
        <ele>61.8</ele>
        <time>2023-07-14T07:03:07Z</time>
      </trkpt>
      <trkpt lat="47.40049" lon="0.70549">
        <ele>61.6</ele>
        <time>2023-07-14T07:03:08Z</time>
      </trkpt>
      <trkpt lat="47.40047" lon="0.7056">
        <ele>61.4</ele>
        <time>2023-07-14T07:03:09Z</time>
      </trkpt>
      <trkpt lat="47.40046" lon="0.7057">
        <ele>61.2</ele>
        <time>2023-07-14T07:03:10Z</time>
      </trkpt>
      <trkpt lat="47.40044" lon="0.70583">
        <ele>61.2</ele>
        <time>2023-07-14T07:03:11Z</time>
      </trkpt>
      <trkpt lat="47.40042" lon="0.70593">
        <ele>61</ele>
        <time>2023-07-14T07:03:12Z</time>
      </trkpt>
      <trkpt lat="47.40041" lon="0.70604">
        <ele>60.8</ele>
        <time>2023-07-14T07:03:13Z</time>
      </trkpt>
      <trkpt lat="47.4004" lon="0.70615">
        <ele>60.8</ele>
        <time>2023-07-14T07:03:14Z</time>
      </trkpt>
      <trkpt lat="47.40038" lon="0.70626">
        <ele>60.8</ele>
        <time>2023-07-14T07:03:15Z</time>
      </trkpt>
      <trkpt lat="47.40037" lon="0.70637">
        <ele>60.6</ele>
        <time>2023-07-14T07:03:16Z</time>
      </trkpt>
      <trkpt lat="47.40036" lon="0.70647">
        <ele>60.6</ele>
        <time>2023-07-14T07:03:17Z</time>
      </trkpt>
      <trkpt lat="47.40034" lon="0.70658">
        <ele>60.6</ele>
        <time>2023-07-14T07:03:18Z</time>
      </trkpt>
      <trkpt lat="47.40033" lon="0.70668">
        <ele>60.6</ele>
        <time>2023-07-14T07:03:19Z</time>
      </trkpt>
      <trkpt lat="47.40031" lon="0.70679">
        <ele>60.6</ele>
        <time>2023-07-14T07:03:20Z</time>
      </trkpt>
      <trkpt lat="47.40029" lon="0.70691">
        <ele>60.6</ele>
        <time>2023-07-14T07:03:21Z</time>
      </trkpt>
      <trkpt lat="47.40028" lon="0.70701">
        <ele>60.6</ele>
        <time>2023-07-14T07:03:22Z</time>
      </trkpt>
      <trkpt lat="47.40027" lon="0.70711">
        <ele>60.6</ele>
        <time>2023-07-14T07:03:23Z</time>
      </trkpt>
      <trkpt lat="47.40026" lon="0.7072">
        <ele>60.6</ele>
        <time>2023-07-14T07:03:24Z</time>
      </trkpt>
      <trkpt lat="47.40025" lon="0.70731">
        <ele>60.6</ele>
        <time>2023-07-14T07:03:25Z</time>
      </trkpt>
      <trkpt lat="47.40025" lon="0.7074">
        <ele>60.6</ele>
        <time>2023-07-14T07:03:26Z</time>
      </trkpt>
      <trkpt lat="47.40025" lon="0.7075">
        <ele>60.6</ele>
        <time>2023-07-14T07:03:27Z</time>
      </trkpt>
      <trkpt lat="47.40024" lon="0.70761">
        <ele>60.6</ele>
        <time>2023-07-14T07:03:28Z</time>
      </trkpt>
      <trkpt lat="47.40023" lon="0.70771">
        <ele>60.6</ele>
        <time>2023-07-14T07:03:29Z</time>
      </trkpt>
      <trkpt lat="47.40024" lon="0.70781">
        <ele>60.6</ele>
        <time>2023-07-14T07:03:30Z</time>
      </trkpt>
      <trkpt lat="47.40026" lon="0.70789">
        <ele>60.6</ele>
        <time>2023-07-14T07:03:31Z</time>
      </trkpt>
      <trkpt lat="47.40027" lon="0.70798">
        <ele>60.6</ele>
        <time>2023-07-14T07:03:32Z</time>
      </trkpt>
      <trkpt lat="47.4003" lon="0.70808">
        <ele>60.8</ele>
        <time>2023-07-14T07:03:33Z</time>
      </trkpt>
      <trkpt lat="47.40033" lon="0.70819">
        <ele>60.8</ele>
        <time>2023-07-14T07:03:34Z</time>
      </trkpt>
      <trkpt lat="47.40036" lon="0.70827">
        <ele>60.8</ele>
        <time>2023-07-14T07:03:35Z</time>
      </trkpt>
      <trkpt lat="47.40039" lon="0.70835">
        <ele>60.8</ele>
        <time>2023-07-14T07:03:36Z</time>
      </trkpt>
      <trkpt lat="47.40042" lon="0.70841">
        <ele>60.8</ele>
        <time>2023-07-14T07:03:37Z</time>
      </trkpt>
      <trkpt lat="47.40045" lon="0.70848">
        <ele>60.8</ele>
        <time>2023-07-14T07:03:38Z</time>
      </trkpt>
      <trkpt lat="47.40049" lon="0.70857">
        <ele>60.8</ele>
        <time>2023-07-14T07:03:39Z</time>
      </trkpt>
      <trkpt lat="47.40053" lon="0.70865">
        <ele>60.8</ele>
        <time>2023-07-14T07:03:40Z</time>
      </trkpt>
      <trkpt lat="47.40057" lon="0.70873">
        <ele>60.8</ele>
        <time>2023-07-14T07:03:41Z</time>
      </trkpt>
      <trkpt lat="47.40061" lon="0.7088">
        <ele>60.8</ele>
        <time>2023-07-14T07:03:42Z</time>
      </trkpt>
      <trkpt lat="47.40065" lon="0.70886">
        <ele>60.6</ele>
        <time>2023-07-14T07:03:43Z</time>
      </trkpt>
      <trkpt lat="47.40069" lon="0.70894">
        <ele>60.6</ele>
        <time>2023-07-14T07:03:44Z</time>
      </trkpt>
      <trkpt lat="47.40073" lon="0.70903">
        <ele>60.6</ele>
        <time>2023-07-14T07:03:45Z</time>
      </trkpt>
      <trkpt lat="47.40077" lon="0.70911">
        <ele>60.6</ele>
        <time>2023-07-14T07:03:46Z</time>
      </trkpt>
      <trkpt lat="47.40082" lon="0.70918">
        <ele>60.4</ele>
        <time>2023-07-14T07:03:47Z</time>
      </trkpt>
      <trkpt lat="47.40086" lon="0.70926">
        <ele>60.4</ele>
        <time>2023-07-14T07:03:48Z</time>
      </trkpt>
      <trkpt lat="47.4009" lon="0.70933">
        <ele>60.4</ele>
        <time>2023-07-14T07:03:49Z</time>
      </trkpt>
      <trkpt lat="47.40094" lon="0.70941">
        <ele>60.4</ele>
        <time>2023-07-14T07:03:50Z</time>
      </trkpt>
      <trkpt lat="47.40097" lon="0.70948">
        <ele>60.4</ele>
        <time>2023-07-14T07:03:51Z</time>
      </trkpt>
      <trkpt lat="47.401" lon="0.70956">
        <ele>60.4</ele>
        <time>2023-07-14T07:03:52Z</time>
      </trkpt>
      <trkpt lat="47.40104" lon="0.70965">
        <ele>60.4</ele>
        <time>2023-07-14T07:03:53Z</time>
      </trkpt>
      <trkpt lat="47.40106" lon="0.70975">
        <ele>60.4</ele>
        <time>2023-07-14T07:03:54Z</time>
      </trkpt>
      <trkpt lat="47.40109" lon="0.70984">
        <ele>60.6</ele>
        <time>2023-07-14T07:03:55Z</time>
      </trkpt>
      <trkpt lat="47.40112" lon="0.70992">
        <ele>60.6</ele>
        <time>2023-07-14T07:03:56Z</time>
      </trkpt>
      <trkpt lat="47.40114" lon="0.71001">
        <ele>60.8</ele>
        <time>2023-07-14T07:03:57Z</time>
      </trkpt>
      <trkpt lat="47.40117" lon="0.7101">
        <ele>60.8</ele>
        <time>2023-07-14T07:03:58Z</time>
      </trkpt>
      <trkpt lat="47.4012" lon="0.7102">
        <ele>60.8</ele>
        <time>2023-07-14T07:03:59Z</time>
      </trkpt>
      <trkpt lat="47.40123" lon="0.71029">
        <ele>61</ele>
        <time>2023-07-14T07:04:00Z</time>
      </trkpt>
      <trkpt lat="47.40125" lon="0.71037">
        <ele>61</ele>
        <time>2023-07-14T07:04:01Z</time>
      </trkpt>
      <trkpt lat="47.40127" lon="0.71047">
        <ele>61</ele>
        <time>2023-07-14T07:04:02Z</time>
      </trkpt>
      <trkpt lat="47.40129" lon="0.71058">
        <ele>61</ele>
        <time>2023-07-14T07:04:03Z</time>
      </trkpt>
      <trkpt lat="47.4013" lon="0.71068">
        <ele>61</ele>
        <time>2023-07-14T07:04:04Z</time>
      </trkpt>
      <trkpt lat="47.40131" lon="0.71078">
        <ele>60.8</ele>
        <time>2023-07-14T07:04:05Z</time>
      </trkpt>
      <trkpt lat="47.40132" lon="0.71088">
        <ele>60.8</ele>
        <time>2023-07-14T07:04:06Z</time>
      </trkpt>
      <trkpt lat="47.40133" lon="0.71098">
        <ele>60.8</ele>
        <time>2023-07-14T07:04:07Z</time>
      </trkpt>
      <trkpt lat="47.40133" lon="0.71107">
        <ele>60.8</ele>
        <time>2023-07-14T07:04:08Z</time>
      </trkpt>
      <trkpt lat="47.40134" lon="0.71116">
        <ele>60.8</ele>
        <time>2023-07-14T07:04:09Z</time>
      </trkpt>
      <trkpt lat="47.40134" lon="0.71124">
        <ele>60.8</ele>
        <time>2023-07-14T07:04:10Z</time>
      </trkpt>
      <trkpt lat="47.40134" lon="0.71134">
        <ele>60.8</ele>
        <time>2023-07-14T07:04:11Z</time>
      </trkpt>
      <trkpt lat="47.40134" lon="0.71143">
        <ele>60.8</ele>
        <time>2023-07-14T07:04:12Z</time>
      </trkpt>
      <trkpt lat="47.40134" lon="0.71152">
        <ele>60.8</ele>
        <time>2023-07-14T07:04:13Z</time>
      </trkpt>
      <trkpt lat="47.40133" lon="0.71162">
        <ele>60.8</ele>
        <time>2023-07-14T07:04:14Z</time>
      </trkpt>
      <trkpt lat="47.40131" lon="0.71171">
        <ele>60.8</ele>
        <time>2023-07-14T07:04:15Z</time>
      </trkpt>
      <trkpt lat="47.40131" lon="0.71179">
        <ele>60.6</ele>
        <time>2023-07-14T07:04:16Z</time>
      </trkpt>
      <trkpt lat="47.4013" lon="0.71189">
        <ele>60.6</ele>
        <time>2023-07-14T07:04:17Z</time>
      </trkpt>
      <trkpt lat="47.40131" lon="0.71198">
        <ele>60.6</ele>
        <time>2023-07-14T07:04:18Z</time>
      </trkpt>
      <trkpt lat="47.40133" lon="0.71207">
        <ele>60.6</ele>
        <time>2023-07-14T07:04:19Z</time>
      </trkpt>
      <trkpt lat="47.40135" lon="0.71214">
        <ele>60.6</ele>
        <time>2023-07-14T07:04:20Z</time>
      </trkpt>
      <trkpt lat="47.40137" lon="0.7122">
        <ele>60.8</ele>
        <time>2023-07-14T07:04:21Z</time>
      </trkpt>
      <trkpt lat="47.40142" lon="0.71227">
        <ele>61</ele>
        <time>2023-07-14T07:04:22Z</time>
      </trkpt>
      <trkpt lat="47.40146" lon="0.71235">
        <ele>61.2</ele>
        <time>2023-07-14T07:04:23Z</time>
      </trkpt>
      <trkpt lat="47.4015" lon="0.71242">
        <ele>61.4</ele>
        <time>2023-07-14T07:04:24Z</time>
      </trkpt>
      <trkpt lat="47.40154" lon="0.7125">
        <ele>61.4</ele>
        <time>2023-07-14T07:04:25Z</time>
      </trkpt>
      <trkpt lat="47.40158" lon="0.71259">
        <ele>61.6</ele>
        <time>2023-07-14T07:04:26Z</time>
      </trkpt>
      <trkpt lat="47.40162" lon="0.71267">
        <ele>61.6</ele>
        <time>2023-07-14T07:04:27Z</time>
      </trkpt>
      <trkpt lat="47.40164" lon="0.71275">
        <ele>61.8</ele>
        <time>2023-07-14T07:04:28Z</time>
      </trkpt>
      <trkpt lat="47.40164" lon="0.71285">
        <ele>61.8</ele>
        <time>2023-07-14T07:04:29Z</time>
      </trkpt>
      <trkpt lat="47.40165" lon="0.71297">
        <ele>61.8</ele>
        <time>2023-07-14T07:04:30Z</time>
      </trkpt>
      <trkpt lat="47.40164" lon="0.71308">
        <ele>61.8</ele>
        <time>2023-07-14T07:04:31Z</time>
      </trkpt>
      <trkpt lat="47.40164" lon="0.71317">
        <ele>62</ele>
        <time>2023-07-14T07:04:32Z</time>
      </trkpt>
      <trkpt lat="47.40163" lon="0.71326">
        <ele>62</ele>
        <time>2023-07-14T07:04:33Z</time>
      </trkpt>
      <trkpt lat="47.40163" lon="0.71336">
        <ele>62</ele>
        <time>2023-07-14T07:04:34Z</time>
      </trkpt>
      <trkpt lat="47.40162" lon="0.71346">
        <ele>62</ele>
        <time>2023-07-14T07:04:35Z</time>
      </trkpt>
      <trkpt lat="47.40161" lon="0.71357">
        <ele>61.8</ele>
        <time>2023-07-14T07:04:36Z</time>
      </trkpt>
      <trkpt lat="47.40159" lon="0.71368">
        <ele>61.8</ele>
        <time>2023-07-14T07:04:37Z</time>
      </trkpt>
      <trkpt lat="47.40158" lon="0.71378">
        <ele>61.8</ele>
        <time>2023-07-14T07:04:38Z</time>
      </trkpt>
      <trkpt lat="47.40158" lon="0.71391">
        <ele>61.8</ele>
        <time>2023-07-14T07:04:39Z</time>
      </trkpt>
      <trkpt lat="47.40157" lon="0.71402">
        <ele>61.6</ele>
        <time>2023-07-14T07:04:40Z</time>
      </trkpt>
      <trkpt lat="47.40156" lon="0.71413">
        <ele>61.6</ele>
        <time>2023-07-14T07:04:41Z</time>
      </trkpt>
      <trkpt lat="47.40155" lon="0.71423">
        <ele>61.6</ele>
        <time>2023-07-14T07:04:42Z</time>
      </trkpt>
      <trkpt lat="47.40154" lon="0.71433">
        <ele>61.6</ele>
        <time>2023-07-14T07:04:43Z</time>
      </trkpt>
      <trkpt lat="47.40153" lon="0.71442">
        <ele>61.4</ele>
        <time>2023-07-14T07:04:44Z</time>
      </trkpt>
      <trkpt lat="47.40152" lon="0.71453">
        <ele>61.4</ele>
        <time>2023-07-14T07:04:45Z</time>
      </trkpt>
      <trkpt lat="47.40152" lon="0.71462">
        <ele>61.4</ele>
        <time>2023-07-14T07:04:46Z</time>
      </trkpt>
      <trkpt lat="47.40152" lon="0.7147">
        <ele>61.4</ele>
        <time>2023-07-14T07:04:47Z</time>
      </trkpt>
      <trkpt lat="47.40152" lon="0.7148">
        <ele>61.4</ele>
        <time>2023-07-14T07:04:48Z</time>
      </trkpt>
      <trkpt lat="47.40151" lon="0.71491">
        <ele>61.4</ele>
        <time>2023-07-14T07:04:49Z</time>
      </trkpt>
      <trkpt lat="47.4015" lon="0.715">
        <ele>61.4</ele>
        <time>2023-07-14T07:04:50Z</time>
      </trkpt>
      <trkpt lat="47.4015" lon="0.71509">
        <ele>61.4</ele>
        <time>2023-07-14T07:04:51Z</time>
      </trkpt>
      <trkpt lat="47.4015" lon="0.71517">
        <ele>61.6</ele>
        <time>2023-07-14T07:04:52Z</time>
      </trkpt>
      <trkpt lat="47.40152" lon="0.71526">
        <ele>61.6</ele>
        <time>2023-07-14T07:04:53Z</time>
      </trkpt>
      <trkpt lat="47.40153" lon="0.71536">
        <ele>61.6</ele>
        <time>2023-07-14T07:04:54Z</time>
      </trkpt>
      <trkpt lat="47.40155" lon="0.71545">
        <ele>61.8</ele>
        <time>2023-07-14T07:04:55Z</time>
      </trkpt>
      <trkpt lat="47.40155" lon="0.71553">
        <ele>62</ele>
        <time>2023-07-14T07:04:56Z</time>
      </trkpt>
      <trkpt lat="47.40156" lon="0.71562">
        <ele>62</ele>
        <time>2023-07-14T07:04:57Z</time>
      </trkpt>
      <trkpt lat="47.40156" lon="0.71572">
        <ele>62</ele>
        <time>2023-07-14T07:04:58Z</time>
      </trkpt>
      <trkpt lat="47.40156" lon="0.71583">
        <ele>62.2</ele>
        <time>2023-07-14T07:04:59Z</time>
      </trkpt>
      <trkpt lat="47.40155" lon="0.71592">
        <ele>62.2</ele>
        <time>2023-07-14T07:05:00Z</time>
      </trkpt>
      <trkpt lat="47.40156" lon="0.71601">
        <ele>62.2</ele>
        <time>2023-07-14T07:05:01Z</time>
      </trkpt>
      <trkpt lat="47.40156" lon="0.71612">
        <ele>62.2</ele>
        <time>2023-07-14T07:05:02Z</time>
      </trkpt>
      <trkpt lat="47.40156" lon="0.71623">
        <ele>62.2</ele>
        <time>2023-07-14T07:05:03Z</time>
      </trkpt>
      <trkpt lat="47.40155" lon="0.71631">
        <ele>62.2</ele>
        <time>2023-07-14T07:05:04Z</time>
      </trkpt>
      <trkpt lat="47.40155" lon="0.7164">
        <ele>62.2</ele>
        <time>2023-07-14T07:05:05Z</time>
      </trkpt>
      <trkpt lat="47.40156" lon="0.71649">
        <ele>62.2</ele>
        <time>2023-07-14T07:05:06Z</time>
      </trkpt>
      <trkpt lat="47.40156" lon="0.71659">
        <ele>62.2</ele>
        <time>2023-07-14T07:05:07Z</time>
      </trkpt>
      <trkpt lat="47.40155" lon="0.71669">
        <ele>62.4</ele>
        <time>2023-07-14T07:05:08Z</time>
      </trkpt>
      <trkpt lat="47.40154" lon="0.71678">
        <ele>62.4</ele>
        <time>2023-07-14T07:05:09Z</time>
      </trkpt>
      <trkpt lat="47.40152" lon="0.71686">
        <ele>62.2</ele>
        <time>2023-07-14T07:05:10Z</time>
      </trkpt>
      <trkpt lat="47.40151" lon="0.71696">
        <ele>62.2</ele>
        <time>2023-07-14T07:05:11Z</time>
      </trkpt>
      <trkpt lat="47.4015" lon="0.71707">
        <ele>62</ele>
        <time>2023-07-14T07:05:12Z</time>
      </trkpt>
      <trkpt lat="47.4015" lon="0.71717">
        <ele>61.8</ele>
        <time>2023-07-14T07:05:13Z</time>
      </trkpt>
      <trkpt lat="47.40152" lon="0.71727">
        <ele>61.6</ele>
        <time>2023-07-14T07:05:14Z</time>
      </trkpt>
      <trkpt lat="47.40153" lon="0.71737">
        <ele>61.4</ele>
        <time>2023-07-14T07:05:15Z</time>
      </trkpt>
      <trkpt lat="47.40155" lon="0.71748">
        <ele>61.2</ele>
        <time>2023-07-14T07:05:16Z</time>
      </trkpt>
      <trkpt lat="47.40158" lon="0.71758">
        <ele>61.2</ele>
        <time>2023-07-14T07:05:17Z</time>
      </trkpt>
      <trkpt lat="47.4016" lon="0.71769">
        <ele>61.2</ele>
        <time>2023-07-14T07:05:18Z</time>
      </trkpt>
      <trkpt lat="47.40163" lon="0.71779">
        <ele>61</ele>
        <time>2023-07-14T07:05:19Z</time>
      </trkpt>
      <trkpt lat="47.40164" lon="0.71787">
        <ele>61</ele>
        <time>2023-07-14T07:05:20Z</time>
      </trkpt>
      <trkpt lat="47.40166" lon="0.71796">
        <ele>61</ele>
        <time>2023-07-14T07:05:21Z</time>
      </trkpt>
      <trkpt lat="47.40168" lon="0.71806">
        <ele>61.2</ele>
        <time>2023-07-14T07:05:22Z</time>
      </trkpt>
      <trkpt lat="47.40169" lon="0.71815">
        <ele>61.2</ele>
        <time>2023-07-14T07:05:23Z</time>
      </trkpt>
      <trkpt lat="47.40171" lon="0.71824">
        <ele>61.2</ele>
        <time>2023-07-14T07:05:24Z</time>
      </trkpt>
      <trkpt lat="47.40173" lon="0.71833">
        <ele>61.4</ele>
        <time>2023-07-14T07:05:25Z</time>
      </trkpt>
      <trkpt lat="47.40174" lon="0.71842">
        <ele>61.4</ele>
        <time>2023-07-14T07:05:26Z</time>
      </trkpt>
      <trkpt lat="47.40177" lon="0.71852">
        <ele>61.4</ele>
        <time>2023-07-14T07:05:27Z</time>
      </trkpt>
      <trkpt lat="47.40179" lon="0.71862">
        <ele>61.4</ele>
        <time>2023-07-14T07:05:28Z</time>
      </trkpt>
      <trkpt lat="47.40181" lon="0.71871">
        <ele>61.4</ele>
        <time>2023-07-14T07:05:29Z</time>
      </trkpt>
      <trkpt lat="47.40182" lon="0.71879">
        <ele>61.4</ele>
        <time>2023-07-14T07:05:30Z</time>
      </trkpt>
      <trkpt lat="47.40184" lon="0.71887">
        <ele>61.2</ele>
        <time>2023-07-14T07:05:31Z</time>
      </trkpt>
      <trkpt lat="47.40186" lon="0.71896">
        <ele>61.2</ele>
        <time>2023-07-14T07:05:32Z</time>
      </trkpt>
      <trkpt lat="47.40189" lon="0.71908">
        <ele>61</ele>
        <time>2023-07-14T07:05:33Z</time>
      </trkpt>
      <trkpt lat="47.40191" lon="0.71918">
        <ele>61</ele>
        <time>2023-07-14T07:05:34Z</time>
      </trkpt>
      <trkpt lat="47.40192" lon="0.71927">
        <ele>61</ele>
        <time>2023-07-14T07:05:35Z</time>
      </trkpt>
      <trkpt lat="47.40194" lon="0.71936">
        <ele>61</ele>
        <time>2023-07-14T07:05:36Z</time>
      </trkpt>
      <trkpt lat="47.40195" lon="0.71946">
        <ele>61</ele>
        <time>2023-07-14T07:05:37Z</time>
      </trkpt>
      <trkpt lat="47.40197" lon="0.71958">
        <ele>61</ele>
        <time>2023-07-14T07:05:38Z</time>
      </trkpt>
      <trkpt lat="47.40198" lon="0.71967">
        <ele>61</ele>
        <time>2023-07-14T07:05:39Z</time>
      </trkpt>
      <trkpt lat="47.40199" lon="0.71976">
        <ele>61</ele>
        <time>2023-07-14T07:05:40Z</time>
      </trkpt>
      <trkpt lat="47.40201" lon="0.71987">
        <ele>60.8</ele>
        <time>2023-07-14T07:05:41Z</time>
      </trkpt>
      <trkpt lat="47.40203" lon="0.71998">
        <ele>60.8</ele>
        <time>2023-07-14T07:05:42Z</time>
      </trkpt>
      <trkpt lat="47.40205" lon="0.72008">
        <ele>60.8</ele>
        <time>2023-07-14T07:05:43Z</time>
      </trkpt>
      <trkpt lat="47.40207" lon="0.72016">
        <ele>60.8</ele>
        <time>2023-07-14T07:05:44Z</time>
      </trkpt>
      <trkpt lat="47.4021" lon="0.72026">
        <ele>61</ele>
        <time>2023-07-14T07:05:45Z</time>
      </trkpt>
      <trkpt lat="47.40213" lon="0.72035">
        <ele>60.8</ele>
        <time>2023-07-14T07:05:46Z</time>
      </trkpt>
      <trkpt lat="47.40216" lon="0.72042">
        <ele>60.8</ele>
        <time>2023-07-14T07:05:47Z</time>
      </trkpt>
      <trkpt lat="47.40219" lon="0.72051">
        <ele>60.6</ele>
        <time>2023-07-14T07:05:48Z</time>
      </trkpt>
      <trkpt lat="47.40221" lon="0.72059">
        <ele>60.4</ele>
        <time>2023-07-14T07:05:49Z</time>
      </trkpt>
      <trkpt lat="47.40224" lon="0.72067">
        <ele>60.4</ele>
        <time>2023-07-14T07:05:50Z</time>
      </trkpt>
      <trkpt lat="47.40227" lon="0.72077">
        <ele>60.4</ele>
        <time>2023-07-14T07:05:51Z</time>
      </trkpt>
      <trkpt lat="47.40229" lon="0.72087">
        <ele>60.4</ele>
        <time>2023-07-14T07:05:52Z</time>
      </trkpt>
      <trkpt lat="47.40232" lon="0.72097">
        <ele>60.4</ele>
        <time>2023-07-14T07:05:53Z</time>
      </trkpt>
      <trkpt lat="47.40235" lon="0.72106">
        <ele>60.4</ele>
        <time>2023-07-14T07:05:54Z</time>
      </trkpt>
      <trkpt lat="47.40238" lon="0.72115">
        <ele>60.6</ele>
        <time>2023-07-14T07:05:55Z</time>
      </trkpt>
      <trkpt lat="47.4024" lon="0.72124">
        <ele>60.6</ele>
        <time>2023-07-14T07:05:56Z</time>
      </trkpt>
      <trkpt lat="47.40244" lon="0.72132">
        <ele>60.8</ele>
        <time>2023-07-14T07:05:57Z</time>
      </trkpt>
      <trkpt lat="47.40246" lon="0.7214">
        <ele>61</ele>
        <time>2023-07-14T07:05:58Z</time>
      </trkpt>
      <trkpt lat="47.40248" lon="0.72148">
        <ele>61</ele>
        <time>2023-07-14T07:05:59Z</time>
      </trkpt>
      <trkpt lat="47.40252" lon="0.72156">
        <ele>61.2</ele>
        <time>2023-07-14T07:06:00Z</time>
      </trkpt>
      <trkpt lat="47.40255" lon="0.72165">
        <ele>61.2</ele>
        <time>2023-07-14T07:06:01Z</time>
      </trkpt>
      <trkpt lat="47.40258" lon="0.72174">
        <ele>61.4</ele>
        <time>2023-07-14T07:06:02Z</time>
      </trkpt>
      <trkpt lat="47.40261" lon="0.72182">
        <ele>61.4</ele>
        <time>2023-07-14T07:06:03Z</time>
      </trkpt>
      <trkpt lat="47.40264" lon="0.72191">
        <ele>61.4</ele>
        <time>2023-07-14T07:06:04Z</time>
      </trkpt>
      <trkpt lat="47.40268" lon="0.72201">
        <ele>61.4</ele>
        <time>2023-07-14T07:06:05Z</time>
      </trkpt>
      <trkpt lat="47.40271" lon="0.7221">
        <ele>61.2</ele>
        <time>2023-07-14T07:06:06Z</time>
      </trkpt>
      <trkpt lat="47.40273" lon="0.72219">
        <ele>61.2</ele>
        <time>2023-07-14T07:06:07Z</time>
      </trkpt>
      <trkpt lat="47.40276" lon="0.72228">
        <ele>61</ele>
        <time>2023-07-14T07:06:08Z</time>
      </trkpt>
      <trkpt lat="47.40279" lon="0.72238">
        <ele>60.8</ele>
        <time>2023-07-14T07:06:09Z</time>
      </trkpt>
      <trkpt lat="47.40282" lon="0.72248">
        <ele>60.6</ele>
        <time>2023-07-14T07:06:10Z</time>
      </trkpt>
      <trkpt lat="47.40285" lon="0.72259">
        <ele>60.6</ele>
        <time>2023-07-14T07:06:11Z</time>
      </trkpt>
      <trkpt lat="47.40289" lon="0.72268">
        <ele>60.6</ele>
        <time>2023-07-14T07:06:12Z</time>
      </trkpt>
      <trkpt lat="47.40292" lon="0.72277">
        <ele>60.8</ele>
        <time>2023-07-14T07:06:13Z</time>
      </trkpt>
      <trkpt lat="47.40296" lon="0.72287">
        <ele>60.8</ele>
        <time>2023-07-14T07:06:14Z</time>
      </trkpt>
      <trkpt lat="47.40299" lon="0.72296">
        <ele>61</ele>
        <time>2023-07-14T07:06:15Z</time>
      </trkpt>
      <trkpt lat="47.40302" lon="0.72304">
        <ele>61.2</ele>
        <time>2023-07-14T07:06:16Z</time>
      </trkpt>
      <trkpt lat="47.40305" lon="0.72313">
        <ele>61.2</ele>
        <time>2023-07-14T07:06:17Z</time>
      </trkpt>
      <trkpt lat="47.40307" lon="0.72322">
        <ele>61.4</ele>
        <time>2023-07-14T07:06:18Z</time>
      </trkpt>
      <trkpt lat="47.40309" lon="0.72332">
        <ele>61.6</ele>
        <time>2023-07-14T07:06:19Z</time>
      </trkpt>
      <trkpt lat="47.40311" lon="0.7234">
        <ele>61.6</ele>
        <time>2023-07-14T07:06:20Z</time>
      </trkpt>
      <trkpt lat="47.40312" lon="0.72347">
        <ele>61.8</ele>
        <time>2023-07-14T07:06:21Z</time>
      </trkpt>
      <trkpt lat="47.40314" lon="0.72357">
        <ele>61.8</ele>
        <time>2023-07-14T07:06:22Z</time>
      </trkpt>
      <trkpt lat="47.40315" lon="0.72366">
        <ele>62</ele>
        <time>2023-07-14T07:06:23Z</time>
      </trkpt>
      <trkpt lat="47.40317" lon="0.72375">
        <ele>62.2</ele>
        <time>2023-07-14T07:06:24Z</time>
      </trkpt>
      <trkpt lat="47.40319" lon="0.72385">
        <ele>62.4</ele>
        <time>2023-07-14T07:06:25Z</time>
      </trkpt>
      <trkpt lat="47.40321" lon="0.72394">
        <ele>62.6</ele>
        <time>2023-07-14T07:06:26Z</time>
      </trkpt>
      <trkpt lat="47.40322" lon="0.72403">
        <ele>63</ele>
        <time>2023-07-14T07:06:27Z</time>
      </trkpt>
      <trkpt lat="47.40324" lon="0.72412">
        <ele>63.2</ele>
        <time>2023-07-14T07:06:28Z</time>
      </trkpt>
      <trkpt lat="47.40326" lon="0.72421">
        <ele>63.4</ele>
        <time>2023-07-14T07:06:29Z</time>
      </trkpt>
      <trkpt lat="47.40327" lon="0.7243">
        <ele>63.6</ele>
        <time>2023-07-14T07:06:30Z</time>
      </trkpt>
      <trkpt lat="47.40329" lon="0.72439">
        <ele>63.8</ele>
        <time>2023-07-14T07:06:31Z</time>
      </trkpt>
      <trkpt lat="47.40331" lon="0.72447">
        <ele>64</ele>
        <time>2023-07-14T07:06:32Z</time>
      </trkpt>
      <trkpt lat="47.40332" lon="0.72456">
        <ele>64.2</ele>
        <time>2023-07-14T07:06:33Z</time>
      </trkpt>
      <trkpt lat="47.40333" lon="0.72465">
        <ele>64.4</ele>
        <time>2023-07-14T07:06:34Z</time>
      </trkpt>
      <trkpt lat="47.40334" lon="0.72474">
        <ele>64.4</ele>
        <time>2023-07-14T07:06:35Z</time>
      </trkpt>
      <trkpt lat="47.40335" lon="0.72485">
        <ele>64.2</ele>
        <time>2023-07-14T07:06:36Z</time>
      </trkpt>
      <trkpt lat="47.40336" lon="0.72497">
        <ele>63.8</ele>
        <time>2023-07-14T07:06:37Z</time>
      </trkpt>
      <trkpt lat="47.40337" lon="0.72508">
        <ele>63.6</ele>
        <time>2023-07-14T07:06:38Z</time>
      </trkpt>
      <trkpt lat="47.40338" lon="0.72519">
        <ele>63.2</ele>
        <time>2023-07-14T07:06:39Z</time>
      </trkpt>
      <trkpt lat="47.40339" lon="0.7253">
        <ele>63</ele>
        <time>2023-07-14T07:06:40Z</time>
      </trkpt>
      <trkpt lat="47.40341" lon="0.72541">
        <ele>62.8</ele>
        <time>2023-07-14T07:06:41Z</time>
      </trkpt>
      <trkpt lat="47.40343" lon="0.72553">
        <ele>62.6</ele>
        <time>2023-07-14T07:06:42Z</time>
      </trkpt>
      <trkpt lat="47.40346" lon="0.72564">
        <ele>62.2</ele>
        <time>2023-07-14T07:06:43Z</time>
      </trkpt>
      <trkpt lat="47.40348" lon="0.72575">
        <ele>62.2</ele>
        <time>2023-07-14T07:06:44Z</time>
      </trkpt>
      <trkpt lat="47.40351" lon="0.72586">
        <ele>62</ele>
        <time>2023-07-14T07:06:45Z</time>
      </trkpt>
      <trkpt lat="47.40354" lon="0.72597">
        <ele>62</ele>
        <time>2023-07-14T07:06:46Z</time>
      </trkpt>
      <trkpt lat="47.40357" lon="0.72609">
        <ele>62</ele>
        <time>2023-07-14T07:06:47Z</time>
      </trkpt>
      <trkpt lat="47.4036" lon="0.72618">
        <ele>62</ele>
        <time>2023-07-14T07:06:48Z</time>
      </trkpt>
      <trkpt lat="47.40362" lon="0.72627">
        <ele>61.8</ele>
        <time>2023-07-14T07:06:49Z</time>
      </trkpt>
      <trkpt lat="47.40364" lon="0.72637">
        <ele>61.8</ele>
        <time>2023-07-14T07:06:50Z</time>
      </trkpt>
      <trkpt lat="47.40367" lon="0.72649">
        <ele>61.8</ele>
        <time>2023-07-14T07:06:51Z</time>
      </trkpt>
      <trkpt lat="47.40369" lon="0.72658">
        <ele>61.8</ele>
        <time>2023-07-14T07:06:52Z</time>
      </trkpt>
      <trkpt lat="47.40372" lon="0.72667">
        <ele>61.8</ele>
        <time>2023-07-14T07:06:53Z</time>
      </trkpt>
      <trkpt lat="47.40374" lon="0.72676">
        <ele>61.8</ele>
        <time>2023-07-14T07:06:54Z</time>
      </trkpt>
      <trkpt lat="47.40377" lon="0.72687">
        <ele>61.8</ele>
        <time>2023-07-14T07:06:55Z</time>
      </trkpt>
      <trkpt lat="47.40379" lon="0.72697">
        <ele>61.8</ele>
        <time>2023-07-14T07:06:56Z</time>
      </trkpt>
      <trkpt lat="47.40382" lon="0.72704">
        <ele>61.8</ele>
        <time>2023-07-14T07:06:57Z</time>
      </trkpt>
      <trkpt lat="47.40385" lon="0.72711">
        <ele>61.8</ele>
        <time>2023-07-14T07:06:58Z</time>
      </trkpt>
      <trkpt lat="47.40388" lon="0.7272">
        <ele>61.8</ele>
        <time>2023-07-14T07:06:59Z</time>
      </trkpt>
      <trkpt lat="47.4039" lon="0.72731">
        <ele>61.8</ele>
        <time>2023-07-14T07:07:00Z</time>
      </trkpt>
      <trkpt lat="47.40393" lon="0.7274">
        <ele>61.8</ele>
        <time>2023-07-14T07:07:01Z</time>
      </trkpt>
      <trkpt lat="47.40395" lon="0.72748">
        <ele>61.8</ele>
        <time>2023-07-14T07:07:02Z</time>
      </trkpt>
      <trkpt lat="47.40399" lon="0.72758">
        <ele>61.8</ele>
        <time>2023-07-14T07:07:03Z</time>
      </trkpt>
      <trkpt lat="47.40401" lon="0.72768">
        <ele>61.8</ele>
        <time>2023-07-14T07:07:04Z</time>
      </trkpt>
      <trkpt lat="47.40404" lon="0.72778">
        <ele>61.8</ele>
        <time>2023-07-14T07:07:05Z</time>
      </trkpt>
      <trkpt lat="47.40405" lon="0.72788">
        <ele>61.8</ele>
        <time>2023-07-14T07:07:06Z</time>
      </trkpt>
      <trkpt lat="47.40406" lon="0.72797">
        <ele>61.8</ele>
        <time>2023-07-14T07:07:07Z</time>
      </trkpt>
      <trkpt lat="47.40408" lon="0.72806">
        <ele>61.8</ele>
        <time>2023-07-14T07:07:08Z</time>
      </trkpt>
      <trkpt lat="47.40409" lon="0.72817">
        <ele>61.8</ele>
        <time>2023-07-14T07:07:09Z</time>
      </trkpt>
      <trkpt lat="47.4041" lon="0.72826">
        <ele>61.8</ele>
        <time>2023-07-14T07:07:10Z</time>
      </trkpt>
      <trkpt lat="47.40411" lon="0.72837">
        <ele>61.8</ele>
        <time>2023-07-14T07:07:11Z</time>
      </trkpt>
      <trkpt lat="47.40413" lon="0.72848">
        <ele>61.8</ele>
        <time>2023-07-14T07:07:12Z</time>
      </trkpt>
      <trkpt lat="47.40415" lon="0.72858">
        <ele>61.8</ele>
        <time>2023-07-14T07:07:13Z</time>
      </trkpt>
      <trkpt lat="47.40417" lon="0.72867">
        <ele>61.8</ele>
        <time>2023-07-14T07:07:14Z</time>
      </trkpt>
      <trkpt lat="47.40419" lon="0.72876">
        <ele>61.6</ele>
        <time>2023-07-14T07:07:15Z</time>
      </trkpt>
      <trkpt lat="47.40421" lon="0.72885">
        <ele>61.6</ele>
        <time>2023-07-14T07:07:16Z</time>
      </trkpt>
      <trkpt lat="47.40422" lon="0.72895">
        <ele>61.6</ele>
        <time>2023-07-14T07:07:17Z</time>
      </trkpt>
      <trkpt lat="47.40425" lon="0.72906">
        <ele>61.6</ele>
        <time>2023-07-14T07:07:18Z</time>
      </trkpt>
      <trkpt lat="47.40426" lon="0.72915">
        <ele>61.6</ele>
        <time>2023-07-14T07:07:19Z</time>
      </trkpt>
      <trkpt lat="47.40428" lon="0.72924">
        <ele>61.6</ele>
        <time>2023-07-14T07:07:20Z</time>
      </trkpt>
      <trkpt lat="47.40429" lon="0.72934">
        <ele>61.6</ele>
        <time>2023-07-14T07:07:21Z</time>
      </trkpt>
      <trkpt lat="47.40431" lon="0.72944">
        <ele>61.6</ele>
        <time>2023-07-14T07:07:22Z</time>
      </trkpt>
      <trkpt lat="47.40433" lon="0.72954">
        <ele>61.6</ele>
        <time>2023-07-14T07:07:23Z</time>
      </trkpt>
      <trkpt lat="47.40434" lon="0.72964">
        <ele>61.6</ele>
        <time>2023-07-14T07:07:24Z</time>
      </trkpt>
      <trkpt lat="47.40436" lon="0.72974">
        <ele>61.8</ele>
        <time>2023-07-14T07:07:25Z</time>
      </trkpt>
      <trkpt lat="47.40438" lon="0.72983">
        <ele>61.8</ele>
        <time>2023-07-14T07:07:26Z</time>
      </trkpt>
      <trkpt lat="47.4044" lon="0.72994">
        <ele>62</ele>
        <time>2023-07-14T07:07:27Z</time>
      </trkpt>
      <trkpt lat="47.40441" lon="0.73004">
        <ele>62</ele>
        <time>2023-07-14T07:07:28Z</time>
      </trkpt>
      <trkpt lat="47.40443" lon="0.73013">
        <ele>62.2</ele>
        <time>2023-07-14T07:07:29Z</time>
      </trkpt>
      <trkpt lat="47.40445" lon="0.73023">
        <ele>62.2</ele>
        <time>2023-07-14T07:07:30Z</time>
      </trkpt>
      <trkpt lat="47.40446" lon="0.73032">
        <ele>62.2</ele>
        <time>2023-07-14T07:07:31Z</time>
      </trkpt>
      <trkpt lat="47.40447" lon="0.73042">
        <ele>62.2</ele>
        <time>2023-07-14T07:07:32Z</time>
      </trkpt>
      <trkpt lat="47.40449" lon="0.73051">
        <ele>62.2</ele>
        <time>2023-07-14T07:07:33Z</time>
      </trkpt>
      <trkpt lat="47.4045" lon="0.73061">
        <ele>62.2</ele>
        <time>2023-07-14T07:07:34Z</time>
      </trkpt>
      <trkpt lat="47.40452" lon="0.7307">
        <ele>62.2</ele>
        <time>2023-07-14T07:07:35Z</time>
      </trkpt>
      <trkpt lat="47.40454" lon="0.73079">
        <ele>62.2</ele>
        <time>2023-07-14T07:07:36Z</time>
      </trkpt>
      <trkpt lat="47.40456" lon="0.73089">
        <ele>62</ele>
        <time>2023-07-14T07:07:37Z</time>
      </trkpt>
      <trkpt lat="47.40457" lon="0.73098">
        <ele>62</ele>
        <time>2023-07-14T07:07:38Z</time>
      </trkpt>
      <trkpt lat="47.40459" lon="0.73107">
        <ele>61.8</ele>
        <time>2023-07-14T07:07:39Z</time>
      </trkpt>
      <trkpt lat="47.40461" lon="0.73117">
        <ele>61.8</ele>
        <time>2023-07-14T07:07:40Z</time>
      </trkpt>
      <trkpt lat="47.40462" lon="0.73128">
        <ele>61.6</ele>
        <time>2023-07-14T07:07:41Z</time>
      </trkpt>
      <trkpt lat="47.40464" lon="0.73138">
        <ele>61.6</ele>
        <time>2023-07-14T07:07:42Z</time>
      </trkpt>
      <trkpt lat="47.40466" lon="0.73146">
        <ele>61.8</ele>
        <time>2023-07-14T07:07:43Z</time>
      </trkpt>
      <trkpt lat="47.40467" lon="0.73155">
        <ele>61.8</ele>
        <time>2023-07-14T07:07:44Z</time>
      </trkpt>
      <trkpt lat="47.40468" lon="0.73165">
        <ele>61.6</ele>
        <time>2023-07-14T07:07:45Z</time>
      </trkpt>
      <trkpt lat="47.40469" lon="0.73175">
        <ele>61.6</ele>
        <time>2023-07-14T07:07:46Z</time>
      </trkpt>
      <trkpt lat="47.40469" lon="0.73184">
        <ele>61.6</ele>
        <time>2023-07-14T07:07:47Z</time>
      </trkpt>
      <trkpt lat="47.4047" lon="0.73195">
        <ele>61.6</ele>
        <time>2023-07-14T07:07:48Z</time>
      </trkpt>
      <trkpt lat="47.40471" lon="0.73205">
        <ele>61.6</ele>
        <time>2023-07-14T07:07:49Z</time>
      </trkpt>
      <trkpt lat="47.40472" lon="0.73214">
        <ele>61.6</ele>
        <time>2023-07-14T07:07:50Z</time>
      </trkpt>
      <trkpt lat="47.40474" lon="0.73224">
        <ele>61.6</ele>
        <time>2023-07-14T07:07:51Z</time>
      </trkpt>
      <trkpt lat="47.40476" lon="0.73234">
        <ele>61.8</ele>
        <time>2023-07-14T07:07:52Z</time>
      </trkpt>
      <trkpt lat="47.40477" lon="0.73243">
        <ele>61.8</ele>
        <time>2023-07-14T07:07:53Z</time>
      </trkpt>
      <trkpt lat="47.40478" lon="0.73252">
        <ele>61.8</ele>
        <time>2023-07-14T07:07:54Z</time>
      </trkpt>
      <trkpt lat="47.40476" lon="0.7326">
        <ele>61.8</ele>
        <time>2023-07-14T07:07:55Z</time>
      </trkpt>
      <trkpt lat="47.40473" lon="0.73267">
        <ele>61.8</ele>
        <time>2023-07-14T07:07:56Z</time>
      </trkpt>
      <trkpt lat="47.40469" lon="0.73274">
        <ele>61.6</ele>
        <time>2023-07-14T07:07:57Z</time>
      </trkpt>
      <trkpt lat="47.40465" lon="0.7328">
        <ele>61.6</ele>
        <time>2023-07-14T07:07:58Z</time>
      </trkpt>
      <trkpt lat="47.4046" lon="0.73289">
        <ele>61.8</ele>
        <time>2023-07-14T07:07:59Z</time>
      </trkpt>
      <trkpt lat="47.40456" lon="0.73299">
        <ele>61.8</ele>
        <time>2023-07-14T07:08:00Z</time>
      </trkpt>
      <trkpt lat="47.40456" lon="0.73308">
        <ele>61.8</ele>
        <time>2023-07-14T07:08:01Z</time>
      </trkpt>
      <trkpt lat="47.40455" lon="0.73318">
        <ele>62</ele>
        <time>2023-07-14T07:08:02Z</time>
      </trkpt>
      <trkpt lat="47.40455" lon="0.73328">
        <ele>62</ele>
        <time>2023-07-14T07:08:03Z</time>
      </trkpt>
      <trkpt lat="47.40454" lon="0.73338">
        <ele>62.2</ele>
        <time>2023-07-14T07:08:04Z</time>
      </trkpt>
      <trkpt lat="47.40453" lon="0.73348">
        <ele>62.4</ele>
        <time>2023-07-14T07:08:05Z</time>
      </trkpt>
      <trkpt lat="47.40451" lon="0.73358">
        <ele>62.4</ele>
        <time>2023-07-14T07:08:06Z</time>
      </trkpt>
      <trkpt lat="47.4045" lon="0.73367">
        <ele>62.4</ele>
        <time>2023-07-14T07:08:07Z</time>
      </trkpt>
      <trkpt lat="47.40448" lon="0.73376">
        <ele>62.4</ele>
        <time>2023-07-14T07:08:08Z</time>
      </trkpt>
      <trkpt lat="47.40446" lon="0.73385">
        <ele>62.4</ele>
        <time>2023-07-14T07:08:09Z</time>
      </trkpt>
      <trkpt lat="47.40445" lon="0.73395">
        <ele>62.6</ele>
        <time>2023-07-14T07:08:10Z</time>
      </trkpt>
      <trkpt lat="47.40444" lon="0.73404">
        <ele>62.8</ele>
        <time>2023-07-14T07:08:11Z</time>
      </trkpt>
      <trkpt lat="47.40443" lon="0.73412">
        <ele>63</ele>
        <time>2023-07-14T07:08:12Z</time>
      </trkpt>
      <trkpt lat="47.40442" lon="0.73421">
        <ele>63.2</ele>
        <time>2023-07-14T07:08:13Z</time>
      </trkpt>
      <trkpt lat="47.4044" lon="0.7343">
        <ele>63.2</ele>
        <time>2023-07-14T07:08:14Z</time>
      </trkpt>
      <trkpt lat="47.40438" lon="0.7344">
        <ele>63.4</ele>
        <time>2023-07-14T07:08:15Z</time>
      </trkpt>
      <trkpt lat="47.40436" lon="0.7345">
        <ele>63.4</ele>
        <time>2023-07-14T07:08:16Z</time>
      </trkpt>
      <trkpt lat="47.40435" lon="0.73459">
        <ele>63.4</ele>
        <time>2023-07-14T07:08:17Z</time>
      </trkpt>
      <trkpt lat="47.40434" lon="0.73469">
        <ele>63.4</ele>
        <time>2023-07-14T07:08:18Z</time>
      </trkpt>
      <trkpt lat="47.40434" lon="0.7348">
        <ele>63.4</ele>
        <time>2023-07-14T07:08:19Z</time>
      </trkpt>
      <trkpt lat="47.40434" lon="0.7349">
        <ele>63.4</ele>
        <time>2023-07-14T07:08:20Z</time>
      </trkpt>
      <trkpt lat="47.40435" lon="0.73499">
        <ele>63.4</ele>
        <time>2023-07-14T07:08:21Z</time>
      </trkpt>
      <trkpt lat="47.40436" lon="0.73508">
        <ele>63.2</ele>
        <time>2023-07-14T07:08:22Z</time>
      </trkpt>
      <trkpt lat="47.40438" lon="0.73518">
        <ele>63.2</ele>
        <time>2023-07-14T07:08:23Z</time>
      </trkpt>
      <trkpt lat="47.4044" lon="0.73528">
        <ele>63.2</ele>
        <time>2023-07-14T07:08:24Z</time>
      </trkpt>
      <trkpt lat="47.40442" lon="0.73537">
        <ele>63</ele>
        <time>2023-07-14T07:08:25Z</time>
      </trkpt>
      <trkpt lat="47.40444" lon="0.73546">
        <ele>63</ele>
        <time>2023-07-14T07:08:26Z</time>
      </trkpt>
      <trkpt lat="47.40447" lon="0.73556">
        <ele>62.8</ele>
        <time>2023-07-14T07:08:27Z</time>
      </trkpt>
      <trkpt lat="47.4045" lon="0.73568">
        <ele>62.8</ele>
        <time>2023-07-14T07:08:28Z</time>
      </trkpt>
      <trkpt lat="47.40453" lon="0.73578">
        <ele>62.6</ele>
        <time>2023-07-14T07:08:29Z</time>
      </trkpt>
      <trkpt lat="47.40457" lon="0.73587">
        <ele>62.6</ele>
        <time>2023-07-14T07:08:30Z</time>
      </trkpt>
      <trkpt lat="47.4046" lon="0.73595">
        <ele>62.4</ele>
        <time>2023-07-14T07:08:31Z</time>
      </trkpt>
      <trkpt lat="47.40464" lon="0.73604">
        <ele>62.4</ele>
        <time>2023-07-14T07:08:32Z</time>
      </trkpt>
      <trkpt lat="47.40466" lon="0.73613">
        <ele>62.4</ele>
        <time>2023-07-14T07:08:33Z</time>
      </trkpt>
      <trkpt lat="47.40468" lon="0.73623">
        <ele>62.4</ele>
        <time>2023-07-14T07:08:34Z</time>
      </trkpt>
      <trkpt lat="47.4047" lon="0.73632">
        <ele>62.4</ele>
        <time>2023-07-14T07:08:35Z</time>
      </trkpt>
      <trkpt lat="47.40471" lon="0.73641">
        <ele>62.4</ele>
        <time>2023-07-14T07:08:36Z</time>
      </trkpt>
      <trkpt lat="47.40472" lon="0.7365">
        <ele>62.6</ele>
        <time>2023-07-14T07:08:37Z</time>
      </trkpt>
      <trkpt lat="47.40473" lon="0.73661">
        <ele>62.6</ele>
        <time>2023-07-14T07:08:38Z</time>
      </trkpt>
      <trkpt lat="47.40474" lon="0.73671">
        <ele>62.6</ele>
        <time>2023-07-14T07:08:39Z</time>
      </trkpt>
      <trkpt lat="47.40475" lon="0.7368">
        <ele>62.8</ele>
        <time>2023-07-14T07:08:40Z</time>
      </trkpt>
      <trkpt lat="47.40477" lon="0.7369">
        <ele>62.8</ele>
        <time>2023-07-14T07:08:41Z</time>
      </trkpt>
      <trkpt lat="47.40479" lon="0.737">
        <ele>62.8</ele>
        <time>2023-07-14T07:08:42Z</time>
      </trkpt>
      <trkpt lat="47.40479" lon="0.73709">
        <ele>62.8</ele>
        <time>2023-07-14T07:08:43Z</time>
      </trkpt>
      <trkpt lat="47.4048" lon="0.73718">
        <ele>63</ele>
        <time>2023-07-14T07:08:44Z</time>
      </trkpt>
      <trkpt lat="47.4048" lon="0.73728">
        <ele>63</ele>
        <time>2023-07-14T07:08:45Z</time>
      </trkpt>
      <trkpt lat="47.4048" lon="0.73738">
        <ele>63</ele>
        <time>2023-07-14T07:08:46Z</time>
      </trkpt>
      <trkpt lat="47.4048" lon="0.73748">
        <ele>63.2</ele>
        <time>2023-07-14T07:08:47Z</time>
      </trkpt>
      <trkpt lat="47.40479" lon="0.73757">
        <ele>63.2</ele>
        <time>2023-07-14T07:08:48Z</time>
      </trkpt>
      <trkpt lat="47.4048" lon="0.73767">
        <ele>63.2</ele>
        <time>2023-07-14T07:08:49Z</time>
      </trkpt>
      <trkpt lat="47.4048" lon="0.73776">
        <ele>63.2</ele>
        <time>2023-07-14T07:08:50Z</time>
      </trkpt>
      <trkpt lat="47.40482" lon="0.73786">
        <ele>63.2</ele>
        <time>2023-07-14T07:08:51Z</time>
      </trkpt>
      <trkpt lat="47.40482" lon="0.73797">
        <ele>63.2</ele>
        <time>2023-07-14T07:08:52Z</time>
      </trkpt>
      <trkpt lat="47.40483" lon="0.73807">
        <ele>63.2</ele>
        <time>2023-07-14T07:08:53Z</time>
      </trkpt>
      <trkpt lat="47.40483" lon="0.73817">
        <ele>63.2</ele>
        <time>2023-07-14T07:08:54Z</time>
      </trkpt>
      <trkpt lat="47.40483" lon="0.73827">
        <ele>63.2</ele>
        <time>2023-07-14T07:08:55Z</time>
      </trkpt>
      <trkpt lat="47.40485" lon="0.73837">
        <ele>63.2</ele>
        <time>2023-07-14T07:08:56Z</time>
      </trkpt>
      <trkpt lat="47.40486" lon="0.73848">
        <ele>63</ele>
        <time>2023-07-14T07:08:57Z</time>
      </trkpt>
      <trkpt lat="47.40488" lon="0.73858">
        <ele>63</ele>
        <time>2023-07-14T07:08:58Z</time>
      </trkpt>
      <trkpt lat="47.4049" lon="0.73869">
        <ele>62.8</ele>
        <time>2023-07-14T07:08:59Z</time>
      </trkpt>
      <trkpt lat="47.40493" lon="0.73879">
        <ele>62.8</ele>
        <time>2023-07-14T07:09:00Z</time>
      </trkpt>
      <trkpt lat="47.40496" lon="0.73889">
        <ele>62.6</ele>
        <time>2023-07-14T07:09:01Z</time>
      </trkpt>
      <trkpt lat="47.40499" lon="0.73898">
        <ele>62.6</ele>
        <time>2023-07-14T07:09:02Z</time>
      </trkpt>
      <trkpt lat="47.40501" lon="0.73908">
        <ele>62.4</ele>
        <time>2023-07-14T07:09:03Z</time>
      </trkpt>
      <trkpt lat="47.40503" lon="0.73917">
        <ele>62.4</ele>
        <time>2023-07-14T07:09:04Z</time>
      </trkpt>
      <trkpt lat="47.40504" lon="0.73927">
        <ele>62.4</ele>
        <time>2023-07-14T07:09:05Z</time>
      </trkpt>
      <trkpt lat="47.40503" lon="0.73938">
        <ele>62.4</ele>
        <time>2023-07-14T07:09:06Z</time>
      </trkpt>
      <trkpt lat="47.40501" lon="0.73949">
        <ele>62.4</ele>
        <time>2023-07-14T07:09:07Z</time>
      </trkpt>
      <trkpt lat="47.40501" lon="0.73959">
        <ele>62.4</ele>
        <time>2023-07-14T07:09:08Z</time>
      </trkpt>
      <trkpt lat="47.405" lon="0.73968">
        <ele>62.4</ele>
        <time>2023-07-14T07:09:09Z</time>
      </trkpt>
      <trkpt lat="47.405" lon="0.73979">
        <ele>62.4</ele>
        <time>2023-07-14T07:09:10Z</time>
      </trkpt>
      <trkpt lat="47.405" lon="0.7399">
        <ele>62.4</ele>
        <time>2023-07-14T07:09:11Z</time>
      </trkpt>
      <trkpt lat="47.40501" lon="0.73999">
        <ele>62.4</ele>
        <time>2023-07-14T07:09:12Z</time>
      </trkpt>
      <trkpt lat="47.40501" lon="0.74009">
        <ele>62.4</ele>
        <time>2023-07-14T07:09:13Z</time>
      </trkpt>
      <trkpt lat="47.40503" lon="0.74019">
        <ele>62.4</ele>
        <time>2023-07-14T07:09:14Z</time>
      </trkpt>
      <trkpt lat="47.40504" lon="0.7403">
        <ele>62.4</ele>
        <time>2023-07-14T07:09:15Z</time>
      </trkpt>
      <trkpt lat="47.40504" lon="0.74041">
        <ele>62.4</ele>
        <time>2023-07-14T07:09:16Z</time>
      </trkpt>
      <trkpt lat="47.40505" lon="0.74051">
        <ele>62.4</ele>
        <time>2023-07-14T07:09:17Z</time>
      </trkpt>
      <trkpt lat="47.40505" lon="0.74061">
        <ele>62.2</ele>
        <time>2023-07-14T07:09:18Z</time>
      </trkpt>
      <trkpt lat="47.40505" lon="0.7407">
        <ele>62.4</ele>
        <time>2023-07-14T07:09:19Z</time>
      </trkpt>
      <trkpt lat="47.40506" lon="0.7408">
        <ele>62.4</ele>
        <time>2023-07-14T07:09:20Z</time>
      </trkpt>
      <trkpt lat="47.40506" lon="0.7409">
        <ele>62.4</ele>
        <time>2023-07-14T07:09:21Z</time>
      </trkpt>
      <trkpt lat="47.40508" lon="0.74097">
        <ele>62.4</ele>
        <time>2023-07-14T07:09:22Z</time>
      </trkpt>
      <trkpt lat="47.40509" lon="0.74106">
        <ele>62.4</ele>
        <time>2023-07-14T07:09:23Z</time>
      </trkpt>
      <trkpt lat="47.4051" lon="0.74115">
        <ele>62.6</ele>
        <time>2023-07-14T07:09:24Z</time>
      </trkpt>
      <trkpt lat="47.40511" lon="0.74124">
        <ele>62.6</ele>
        <time>2023-07-14T07:09:25Z</time>
      </trkpt>
      <trkpt lat="47.40512" lon="0.74132">
        <ele>62.6</ele>
        <time>2023-07-14T07:09:26Z</time>
      </trkpt>
      <trkpt lat="47.40513" lon="0.74141">
        <ele>62.8</ele>
        <time>2023-07-14T07:09:27Z</time>
      </trkpt>
      <trkpt lat="47.40513" lon="0.7415">
        <ele>62.8</ele>
        <time>2023-07-14T07:09:28Z</time>
      </trkpt>
      <trkpt lat="47.40514" lon="0.74159">
        <ele>62.8</ele>
        <time>2023-07-14T07:09:29Z</time>
      </trkpt>
      <trkpt lat="47.40514" lon="0.74168">
        <ele>62.8</ele>
        <time>2023-07-14T07:09:30Z</time>
      </trkpt>
      <trkpt lat="47.40515" lon="0.74178">
        <ele>62.8</ele>
        <time>2023-07-14T07:09:31Z</time>
      </trkpt>
      <trkpt lat="47.40516" lon="0.74188">
        <ele>62.8</ele>
        <time>2023-07-14T07:09:32Z</time>
      </trkpt>
      <trkpt lat="47.40517" lon="0.74198">
        <ele>62.8</ele>
        <time>2023-07-14T07:09:33Z</time>
      </trkpt>
      <trkpt lat="47.40519" lon="0.74207">
        <ele>62.8</ele>
        <time>2023-07-14T07:09:34Z</time>
      </trkpt>
      <trkpt lat="47.40521" lon="0.74216">
        <ele>62.8</ele>
        <time>2023-07-14T07:09:35Z</time>
      </trkpt>
      <trkpt lat="47.40524" lon="0.74227">
        <ele>62.8</ele>
        <time>2023-07-14T07:09:36Z</time>
      </trkpt>
      <trkpt lat="47.40525" lon="0.74237">
        <ele>62.8</ele>
        <time>2023-07-14T07:09:37Z</time>
      </trkpt>
      <trkpt lat="47.40527" lon="0.74247">
        <ele>62.8</ele>
        <time>2023-07-14T07:09:38Z</time>
      </trkpt>
      <trkpt lat="47.40528" lon="0.74258">
        <ele>62.8</ele>
        <time>2023-07-14T07:09:39Z</time>
      </trkpt>
      <trkpt lat="47.40531" lon="0.74267">
        <ele>62.8</ele>
        <time>2023-07-14T07:09:40Z</time>
      </trkpt>
      <trkpt lat="47.40533" lon="0.74276">
        <ele>62.8</ele>
        <time>2023-07-14T07:09:41Z</time>
      </trkpt>
      <trkpt lat="47.40535" lon="0.74284">
        <ele>62.6</ele>
        <time>2023-07-14T07:09:42Z</time>
      </trkpt>
      <trkpt lat="47.40537" lon="0.74293">
        <ele>62.6</ele>
        <time>2023-07-14T07:09:43Z</time>
      </trkpt>
      <trkpt lat="47.40539" lon="0.74301">
        <ele>62.4</ele>
        <time>2023-07-14T07:09:44Z</time>
      </trkpt>
      <trkpt lat="47.4054" lon="0.74308">
        <ele>62.4</ele>
        <time>2023-07-14T07:09:45Z</time>
      </trkpt>
      <trkpt lat="47.40541" lon="0.74316">
        <ele>62.2</ele>
        <time>2023-07-14T07:09:46Z</time>
      </trkpt>
      <trkpt lat="47.40543" lon="0.74323">
        <ele>62.2</ele>
        <time>2023-07-14T07:09:47Z</time>
      </trkpt>
      <trkpt lat="47.40544" lon="0.74331">
        <ele>62</ele>
        <time>2023-07-14T07:09:48Z</time>
      </trkpt>
      <trkpt lat="47.40545" lon="0.74337">
        <ele>61.8</ele>
        <time>2023-07-14T07:09:49Z</time>
      </trkpt>
      <trkpt lat="47.40546" lon="0.74341">
        <ele>61.8</ele>
        <time>2023-07-14T07:09:50Z</time>
      </trkpt>
      <trkpt lat="47.40545" lon="0.74344">
        <ele>61.8</ele>
        <time>2023-07-14T07:09:51Z</time>
      </trkpt>
      <trkpt lat="47.40545" lon="0.74348">
        <ele>61.8</ele>
        <time>2023-07-14T07:09:52Z</time>
      </trkpt>
      <trkpt lat="47.40546" lon="0.74354">
        <ele>61.8</ele>
        <time>2023-07-14T07:09:53Z</time>
      </trkpt>
      <trkpt lat="47.40549" lon="0.74359">
        <ele>61.8</ele>
        <time>2023-07-14T07:09:54Z</time>
      </trkpt>
      <trkpt lat="47.40551" lon="0.74363">
        <ele>61.8</ele>
        <time>2023-07-14T07:09:55Z</time>
      </trkpt>
      <trkpt lat="47.40554" lon="0.74369">
        <ele>61.8</ele>
        <time>2023-07-14T07:09:56Z</time>
      </trkpt>
      <trkpt lat="47.40557" lon="0.74376">
        <ele>61.8</ele>
        <time>2023-07-14T07:09:57Z</time>
      </trkpt>
      <trkpt lat="47.4056" lon="0.74383">
        <ele>62</ele>
        <time>2023-07-14T07:09:58Z</time>
      </trkpt>
      <trkpt lat="47.40561" lon="0.74391">
        <ele>62.2</ele>
        <time>2023-07-14T07:09:59Z</time>
      </trkpt>
      <trkpt lat="47.40562" lon="0.74398">
        <ele>62.2</ele>
        <time>2023-07-14T07:10:00Z</time>
      </trkpt>
      <trkpt lat="47.40564" lon="0.74404">
        <ele>62.2</ele>
        <time>2023-07-14T07:10:01Z</time>
      </trkpt>
      <trkpt lat="47.40567" lon="0.74412">
        <ele>62.4</ele>
        <time>2023-07-14T07:10:02Z</time>
      </trkpt>
      <trkpt lat="47.40569" lon="0.74421">
        <ele>62.4</ele>
        <time>2023-07-14T07:10:03Z</time>
      </trkpt>
      <trkpt lat="47.40572" lon="0.74429">
        <ele>62.4</ele>
        <time>2023-07-14T07:10:04Z</time>
      </trkpt>
      <trkpt lat="47.40573" lon="0.74436">
        <ele>62.2</ele>
        <time>2023-07-14T07:10:05Z</time>
      </trkpt>
      <trkpt lat="47.40575" lon="0.74442">
        <ele>62.2</ele>
        <time>2023-07-14T07:10:06Z</time>
      </trkpt>
      <trkpt lat="47.40576" lon="0.74447">
        <ele>62.2</ele>
        <time>2023-07-14T07:10:07Z</time>
      </trkpt>
      <trkpt lat="47.40575" lon="0.7445">
        <ele>62</ele>
        <time>2023-07-14T07:10:08Z</time>
      </trkpt>
      <trkpt lat="47.40574" lon="0.74455">
        <ele>62</ele>
        <time>2023-07-14T07:10:09Z</time>
      </trkpt>
      <trkpt lat="47.40574" lon="0.74459">
        <ele>62</ele>
        <time>2023-07-14T07:10:10Z</time>
      </trkpt>
      <trkpt lat="47.40575" lon="0.74465">
        <ele>62</ele>
        <time>2023-07-14T07:10:11Z</time>
      </trkpt>
      <trkpt lat="47.40577" lon="0.74472">
        <ele>62</ele>
        <time>2023-07-14T07:10:12Z</time>
      </trkpt>
      <trkpt lat="47.40578" lon="0.7448">
        <ele>62</ele>
        <time>2023-07-14T07:10:13Z</time>
      </trkpt>
      <trkpt lat="47.40578" lon="0.7449">
        <ele>62.2</ele>
        <time>2023-07-14T07:10:14Z</time>
      </trkpt>
      <trkpt lat="47.4058" lon="0.74499">
        <ele>62.2</ele>
        <time>2023-07-14T07:10:15Z</time>
      </trkpt>
      <trkpt lat="47.40582" lon="0.74507">
        <ele>62.4</ele>
        <time>2023-07-14T07:10:16Z</time>
      </trkpt>
      <trkpt lat="47.40583" lon="0.74515">
        <ele>62.4</ele>
        <time>2023-07-14T07:10:17Z</time>
      </trkpt>
      <trkpt lat="47.40585" lon="0.74524">
        <ele>62.6</ele>
        <time>2023-07-14T07:10:18Z</time>
      </trkpt>
      <trkpt lat="47.40586" lon="0.74533">
        <ele>62.6</ele>
        <time>2023-07-14T07:10:19Z</time>
      </trkpt>
      <trkpt lat="47.40586" lon="0.74542">
        <ele>62.8</ele>
        <time>2023-07-14T07:10:20Z</time>
      </trkpt>
      <trkpt lat="47.40586" lon="0.74553">
        <ele>62.6</ele>
        <time>2023-07-14T07:10:21Z</time>
      </trkpt>
      <trkpt lat="47.40586" lon="0.74563">
        <ele>62.6</ele>
        <time>2023-07-14T07:10:22Z</time>
      </trkpt>
      <trkpt lat="47.40588" lon="0.74572">
        <ele>62.6</ele>
        <time>2023-07-14T07:10:23Z</time>
      </trkpt>
      <trkpt lat="47.4059" lon="0.74582">
        <ele>62.8</ele>
        <time>2023-07-14T07:10:24Z</time>
      </trkpt>
      <trkpt lat="47.40592" lon="0.74591">
        <ele>62.8</ele>
        <time>2023-07-14T07:10:25Z</time>
      </trkpt>
      <trkpt lat="47.40594" lon="0.74599">
        <ele>62.8</ele>
        <time>2023-07-14T07:10:26Z</time>
      </trkpt>
      <trkpt lat="47.40596" lon="0.74607">
        <ele>62.8</ele>
        <time>2023-07-14T07:10:27Z</time>
      </trkpt>
      <trkpt lat="47.40598" lon="0.74616">
        <ele>62.8</ele>
        <time>2023-07-14T07:10:28Z</time>
      </trkpt>
      <trkpt lat="47.406" lon="0.74624">
        <ele>62.8</ele>
        <time>2023-07-14T07:10:29Z</time>
      </trkpt>
      <trkpt lat="47.40602" lon="0.74635">
        <ele>62.8</ele>
        <time>2023-07-14T07:10:30Z</time>
      </trkpt>
      <trkpt lat="47.40604" lon="0.74645">
        <ele>62.8</ele>
        <time>2023-07-14T07:10:31Z</time>
      </trkpt>
      <trkpt lat="47.40607" lon="0.74653">
        <ele>62.6</ele>
        <time>2023-07-14T07:10:32Z</time>
      </trkpt>
      <trkpt lat="47.40609" lon="0.74663">
        <ele>62.6</ele>
        <time>2023-07-14T07:10:33Z</time>
      </trkpt>
      <trkpt lat="47.4061" lon="0.74673">
        <ele>62.6</ele>
        <time>2023-07-14T07:10:34Z</time>
      </trkpt>
      <trkpt lat="47.40611" lon="0.74682">
        <ele>62.4</ele>
        <time>2023-07-14T07:10:35Z</time>
      </trkpt>
      <trkpt lat="47.40612" lon="0.7469">
        <ele>62.4</ele>
        <time>2023-07-14T07:10:36Z</time>
      </trkpt>
      <trkpt lat="47.40614" lon="0.74699">
        <ele>62.4</ele>
        <time>2023-07-14T07:10:37Z</time>
      </trkpt>
      <trkpt lat="47.40615" lon="0.74708">
        <ele>62.2</ele>
        <time>2023-07-14T07:10:38Z</time>
      </trkpt>
      <trkpt lat="47.40617" lon="0.74718">
        <ele>62.2</ele>
        <time>2023-07-14T07:10:39Z</time>
      </trkpt>
      <trkpt lat="47.40618" lon="0.74728">
        <ele>62.2</ele>
        <time>2023-07-14T07:10:40Z</time>
      </trkpt>
      <trkpt lat="47.40619" lon="0.74738">
        <ele>62.2</ele>
        <time>2023-07-14T07:10:41Z</time>
      </trkpt>
      <trkpt lat="47.4062" lon="0.74747">
        <ele>62.2</ele>
        <time>2023-07-14T07:10:42Z</time>
      </trkpt>
      <trkpt lat="47.40622" lon="0.74756">
        <ele>62.2</ele>
        <time>2023-07-14T07:10:43Z</time>
      </trkpt>
      <trkpt lat="47.40623" lon="0.74766">
        <ele>62.2</ele>
        <time>2023-07-14T07:10:44Z</time>
      </trkpt>
      <trkpt lat="47.40625" lon="0.74774">
        <ele>62.4</ele>
        <time>2023-07-14T07:10:45Z</time>
      </trkpt>
      <trkpt lat="47.40625" lon="0.74783">
        <ele>62.4</ele>
        <time>2023-07-14T07:10:46Z</time>
      </trkpt>
      <trkpt lat="47.40627" lon="0.74793">
        <ele>62.4</ele>
        <time>2023-07-14T07:10:47Z</time>
      </trkpt>
      <trkpt lat="47.40628" lon="0.74803">
        <ele>62.4</ele>
        <time>2023-07-14T07:10:48Z</time>
      </trkpt>
      <trkpt lat="47.40629" lon="0.74815">
        <ele>62.6</ele>
        <time>2023-07-14T07:10:49Z</time>
      </trkpt>
      <trkpt lat="47.4063" lon="0.74824">
        <ele>62.6</ele>
        <time>2023-07-14T07:10:50Z</time>
      </trkpt>
      <trkpt lat="47.40631" lon="0.74834">
        <ele>62.6</ele>
        <time>2023-07-14T07:10:51Z</time>
      </trkpt>
      <trkpt lat="47.40632" lon="0.74844">
        <ele>62.6</ele>
        <time>2023-07-14T07:10:52Z</time>
      </trkpt>
      <trkpt lat="47.40633" lon="0.74854">
        <ele>62.6</ele>
        <time>2023-07-14T07:10:53Z</time>
      </trkpt>
      <trkpt lat="47.40634" lon="0.74862">
        <ele>62.6</ele>
        <time>2023-07-14T07:10:54Z</time>
      </trkpt>
      <trkpt lat="47.40635" lon="0.74873">
        <ele>62.6</ele>
        <time>2023-07-14T07:10:55Z</time>
      </trkpt>
      <trkpt lat="47.40636" lon="0.74884">
        <ele>62.6</ele>
        <time>2023-07-14T07:10:56Z</time>
      </trkpt>
      <trkpt lat="47.40637" lon="0.74894">
        <ele>62.6</ele>
        <time>2023-07-14T07:10:57Z</time>
      </trkpt>
      <trkpt lat="47.40638" lon="0.74904">
        <ele>62.6</ele>
        <time>2023-07-14T07:10:58Z</time>
      </trkpt>
      <trkpt lat="47.40639" lon="0.74915">
        <ele>62.6</ele>
        <time>2023-07-14T07:10:59Z</time>
      </trkpt>
      <trkpt lat="47.40639" lon="0.74924">
        <ele>62.6</ele>
        <time>2023-07-14T07:11:00Z</time>
      </trkpt>
      <trkpt lat="47.40641" lon="0.74935">
        <ele>62.6</ele>
        <time>2023-07-14T07:11:01Z</time>
      </trkpt>
      <trkpt lat="47.40643" lon="0.74944">
        <ele>62.6</ele>
        <time>2023-07-14T07:11:02Z</time>
      </trkpt>
      <trkpt lat="47.40644" lon="0.74954">
        <ele>62.6</ele>
        <time>2023-07-14T07:11:03Z</time>
      </trkpt>
      <trkpt lat="47.40645" lon="0.74964">
        <ele>62.6</ele>
        <time>2023-07-14T07:11:04Z</time>
      </trkpt>
      <trkpt lat="47.40647" lon="0.74972">
        <ele>62.6</ele>
        <time>2023-07-14T07:11:05Z</time>
      </trkpt>
      <trkpt lat="47.40648" lon="0.74981">
        <ele>62.6</ele>
        <time>2023-07-14T07:11:06Z</time>
      </trkpt>
      <trkpt lat="47.4065" lon="0.7499">
        <ele>62.6</ele>
        <time>2023-07-14T07:11:07Z</time>
      </trkpt>
      <trkpt lat="47.40651" lon="0.74998">
        <ele>62.6</ele>
        <time>2023-07-14T07:11:08Z</time>
      </trkpt>
      <trkpt lat="47.40652" lon="0.75007">
        <ele>62.4</ele>
        <time>2023-07-14T07:11:09Z</time>
      </trkpt>
      <trkpt lat="47.40653" lon="0.75016">
        <ele>62.4</ele>
        <time>2023-07-14T07:11:10Z</time>
      </trkpt>
      <trkpt lat="47.40654" lon="0.75025">
        <ele>62.4</ele>
        <time>2023-07-14T07:11:11Z</time>
      </trkpt>
      <trkpt lat="47.40654" lon="0.75033">
        <ele>62.4</ele>
        <time>2023-07-14T07:11:12Z</time>
      </trkpt>
      <trkpt lat="47.40656" lon="0.75043">
        <ele>62.4</ele>
        <time>2023-07-14T07:11:13Z</time>
      </trkpt>
      <trkpt lat="47.40657" lon="0.75051">
        <ele>62.4</ele>
        <time>2023-07-14T07:11:14Z</time>
      </trkpt>
      <trkpt lat="47.40659" lon="0.75059">
        <ele>62.4</ele>
        <time>2023-07-14T07:11:15Z</time>
      </trkpt>
      <trkpt lat="47.40661" lon="0.75068">
        <ele>62.4</ele>
        <time>2023-07-14T07:11:16Z</time>
      </trkpt>
      <trkpt lat="47.40663" lon="0.75078">
        <ele>62.4</ele>
        <time>2023-07-14T07:11:17Z</time>
      </trkpt>
      <trkpt lat="47.40665" lon="0.75087">
        <ele>62.4</ele>
        <time>2023-07-14T07:11:18Z</time>
      </trkpt>
      <trkpt lat="47.40667" lon="0.75097">
        <ele>62.2</ele>
        <time>2023-07-14T07:11:19Z</time>
      </trkpt>
      <trkpt lat="47.40669" lon="0.75105">
        <ele>62.2</ele>
        <time>2023-07-14T07:11:20Z</time>
      </trkpt>
      <trkpt lat="47.40671" lon="0.75114">
        <ele>62.2</ele>
        <time>2023-07-14T07:11:21Z</time>
      </trkpt>
      <trkpt lat="47.40673" lon="0.75121">
        <ele>62</ele>
        <time>2023-07-14T07:11:22Z</time>
      </trkpt>
      <trkpt lat="47.40675" lon="0.75127">
        <ele>62</ele>
        <time>2023-07-14T07:11:23Z</time>
      </trkpt>
      <trkpt lat="47.40676" lon="0.75133">
        <ele>61.8</ele>
        <time>2023-07-14T07:11:24Z</time>
      </trkpt>
      <trkpt lat="47.40677" lon="0.75138">
        <ele>61.8</ele>
        <time>2023-07-14T07:11:25Z</time>
      </trkpt>
      <trkpt lat="47.40678" lon="0.75143">
        <ele>61.8</ele>
        <time>2023-07-14T07:11:26Z</time>
      </trkpt>
      <trkpt lat="47.40679" lon="0.75148">
        <ele>61.8</ele>
        <time>2023-07-14T07:11:27Z</time>
      </trkpt>
      <trkpt lat="47.4068" lon="0.75153">
        <ele>62</ele>
        <time>2023-07-14T07:11:28Z</time>
      </trkpt>
      <trkpt lat="47.40681" lon="0.75159">
        <ele>62</ele>
        <time>2023-07-14T07:11:29Z</time>
      </trkpt>
      <trkpt lat="47.40683" lon="0.75165">
        <ele>62</ele>
        <time>2023-07-14T07:11:30Z</time>
      </trkpt>
      <trkpt lat="47.40685" lon="0.75173">
        <ele>62.2</ele>
        <time>2023-07-14T07:11:31Z</time>
      </trkpt>
      <trkpt lat="47.40686" lon="0.75181">
        <ele>62.2</ele>
        <time>2023-07-14T07:11:32Z</time>
      </trkpt>
      <trkpt lat="47.40688" lon="0.75189">
        <ele>62.2</ele>
        <time>2023-07-14T07:11:33Z</time>
      </trkpt>
      <trkpt lat="47.40689" lon="0.75197">
        <ele>62.2</ele>
        <time>2023-07-14T07:11:34Z</time>
      </trkpt>
      <trkpt lat="47.40691" lon="0.75206">
        <ele>62.4</ele>
        <time>2023-07-14T07:11:35Z</time>
      </trkpt>
      <trkpt lat="47.40693" lon="0.75217">
        <ele>62.4</ele>
        <time>2023-07-14T07:11:36Z</time>
      </trkpt>
      <trkpt lat="47.40694" lon="0.75226">
        <ele>62.4</ele>
        <time>2023-07-14T07:11:37Z</time>
      </trkpt>
      <trkpt lat="47.40696" lon="0.75234">
        <ele>62.4</ele>
        <time>2023-07-14T07:11:38Z</time>
      </trkpt>
      <trkpt lat="47.40697" lon="0.75243">
        <ele>62.4</ele>
        <time>2023-07-14T07:11:39Z</time>
      </trkpt>
      <trkpt lat="47.40699" lon="0.75251">
        <ele>62.4</ele>
        <time>2023-07-14T07:11:40Z</time>
      </trkpt>
      <trkpt lat="47.40701" lon="0.7526">
        <ele>62.4</ele>
        <time>2023-07-14T07:11:41Z</time>
      </trkpt>
      <trkpt lat="47.40703" lon="0.7527">
        <ele>62.2</ele>
        <time>2023-07-14T07:11:42Z</time>
      </trkpt>
      <trkpt lat="47.40705" lon="0.75281">
        <ele>62.2</ele>
        <time>2023-07-14T07:11:43Z</time>
      </trkpt>
      <trkpt lat="47.40707" lon="0.75288">
        <ele>62.2</ele>
        <time>2023-07-14T07:11:44Z</time>
      </trkpt>
      <trkpt lat="47.40709" lon="0.75296">
        <ele>62.2</ele>
        <time>2023-07-14T07:11:45Z</time>
      </trkpt>
      <trkpt lat="47.40711" lon="0.75303">
        <ele>62.2</ele>
        <time>2023-07-14T07:11:46Z</time>
      </trkpt>
      <trkpt lat="47.40713" lon="0.75311">
        <ele>62</ele>
        <time>2023-07-14T07:11:47Z</time>
      </trkpt>
      <trkpt lat="47.40715" lon="0.75318">
        <ele>62</ele>
        <time>2023-07-14T07:11:48Z</time>
      </trkpt>
      <trkpt lat="47.40717" lon="0.75324">
        <ele>62</ele>
        <time>2023-07-14T07:11:49Z</time>
      </trkpt>
      <trkpt lat="47.40719" lon="0.75331">
        <ele>62</ele>
        <time>2023-07-14T07:11:50Z</time>
      </trkpt>
      <trkpt lat="47.40721" lon="0.7534">
        <ele>62.2</ele>
        <time>2023-07-14T07:11:51Z</time>
      </trkpt>
      <trkpt lat="47.40724" lon="0.75347">
        <ele>62.2</ele>
        <time>2023-07-14T07:11:52Z</time>
      </trkpt>
      <trkpt lat="47.40726" lon="0.75354">
        <ele>62.4</ele>
        <time>2023-07-14T07:11:53Z</time>
      </trkpt>
      <trkpt lat="47.40728" lon="0.75362">
        <ele>62.6</ele>
        <time>2023-07-14T07:11:54Z</time>
      </trkpt>
      <trkpt lat="47.4073" lon="0.75371">
        <ele>62.8</ele>
        <time>2023-07-14T07:11:55Z</time>
      </trkpt>
      <trkpt lat="47.40732" lon="0.7538">
        <ele>62.8</ele>
        <time>2023-07-14T07:11:56Z</time>
      </trkpt>
      <trkpt lat="47.40734" lon="0.75388">
        <ele>63</ele>
        <time>2023-07-14T07:11:57Z</time>
      </trkpt>
      <trkpt lat="47.40737" lon="0.75396">
        <ele>63</ele>
        <time>2023-07-14T07:11:58Z</time>
      </trkpt>
      <trkpt lat="47.40739" lon="0.75404">
        <ele>63</ele>
        <time>2023-07-14T07:11:59Z</time>
      </trkpt>
      <trkpt lat="47.40741" lon="0.75414">
        <ele>63.2</ele>
        <time>2023-07-14T07:12:00Z</time>
      </trkpt>
      <trkpt lat="47.40744" lon="0.75424">
        <ele>63.2</ele>
        <time>2023-07-14T07:12:01Z</time>
      </trkpt>
      <trkpt lat="47.40746" lon="0.75432">
        <ele>63</ele>
        <time>2023-07-14T07:12:02Z</time>
      </trkpt>
      <trkpt lat="47.40748" lon="0.7544">
        <ele>63</ele>
        <time>2023-07-14T07:12:03Z</time>
      </trkpt>
      <trkpt lat="47.4075" lon="0.75449">
        <ele>63</ele>
        <time>2023-07-14T07:12:04Z</time>
      </trkpt>
      <trkpt lat="47.40752" lon="0.75459">
        <ele>63.2</ele>
        <time>2023-07-14T07:12:05Z</time>
      </trkpt>
      <trkpt lat="47.40753" lon="0.75469">
        <ele>63</ele>
        <time>2023-07-14T07:12:06Z</time>
      </trkpt>
      <trkpt lat="47.40755" lon="0.75478">
        <ele>63</ele>
        <time>2023-07-14T07:12:07Z</time>
      </trkpt>
      <trkpt lat="47.40756" lon="0.75488">
        <ele>63</ele>
        <time>2023-07-14T07:12:08Z</time>
      </trkpt>
      <trkpt lat="47.40757" lon="0.75497">
        <ele>63</ele>
        <time>2023-07-14T07:12:09Z</time>
      </trkpt>
      <trkpt lat="47.40759" lon="0.75505">
        <ele>63.2</ele>
        <time>2023-07-14T07:12:10Z</time>
      </trkpt>
      <trkpt lat="47.4076" lon="0.75514">
        <ele>63.2</ele>
        <time>2023-07-14T07:12:11Z</time>
      </trkpt>
      <trkpt lat="47.4076" lon="0.75522">
        <ele>63.2</ele>
        <time>2023-07-14T07:12:12Z</time>
      </trkpt>
      <trkpt lat="47.40761" lon="0.75531">
        <ele>63.2</ele>
        <time>2023-07-14T07:12:13Z</time>
      </trkpt>
      <trkpt lat="47.40762" lon="0.75541">
        <ele>63</ele>
        <time>2023-07-14T07:12:14Z</time>
      </trkpt>
      <trkpt lat="47.40763" lon="0.75552">
        <ele>63</ele>
        <time>2023-07-14T07:12:15Z</time>
      </trkpt>
      <trkpt lat="47.40764" lon="0.75561">
        <ele>63</ele>
        <time>2023-07-14T07:12:16Z</time>
      </trkpt>
      <trkpt lat="47.40765" lon="0.75571">
        <ele>63</ele>
        <time>2023-07-14T07:12:17Z</time>
      </trkpt>
      <trkpt lat="47.40766" lon="0.75582">
        <ele>63</ele>
        <time>2023-07-14T07:12:18Z</time>
      </trkpt>
      <trkpt lat="47.40767" lon="0.75591">
        <ele>63</ele>
        <time>2023-07-14T07:12:19Z</time>
      </trkpt>
      <trkpt lat="47.40768" lon="0.756">
        <ele>63</ele>
        <time>2023-07-14T07:12:20Z</time>
      </trkpt>
      <trkpt lat="47.40768" lon="0.7561">
        <ele>63</ele>
        <time>2023-07-14T07:12:21Z</time>
      </trkpt>
      <trkpt lat="47.40769" lon="0.7562">
        <ele>63</ele>
        <time>2023-07-14T07:12:22Z</time>
      </trkpt>
      <trkpt lat="47.4077" lon="0.75629">
        <ele>63</ele>
        <time>2023-07-14T07:12:23Z</time>
      </trkpt>
      <trkpt lat="47.40771" lon="0.75639">
        <ele>63</ele>
        <time>2023-07-14T07:12:24Z</time>
      </trkpt>
      <trkpt lat="47.40772" lon="0.75648">
        <ele>63</ele>
        <time>2023-07-14T07:12:25Z</time>
      </trkpt>
      <trkpt lat="47.40772" lon="0.75658">
        <ele>63</ele>
        <time>2023-07-14T07:12:26Z</time>
      </trkpt>
      <trkpt lat="47.40773" lon="0.75668">
        <ele>63.2</ele>
        <time>2023-07-14T07:12:27Z</time>
      </trkpt>
      <trkpt lat="47.40773" lon="0.75678">
        <ele>63.2</ele>
        <time>2023-07-14T07:12:28Z</time>
      </trkpt>
      <trkpt lat="47.40774" lon="0.75687">
        <ele>63.2</ele>
        <time>2023-07-14T07:12:29Z</time>
      </trkpt>
      <trkpt lat="47.40775" lon="0.75696">
        <ele>63.2</ele>
        <time>2023-07-14T07:12:30Z</time>
      </trkpt>
      <trkpt lat="47.40777" lon="0.75706">
        <ele>63.2</ele>
        <time>2023-07-14T07:12:31Z</time>
      </trkpt>
      <trkpt lat="47.40778" lon="0.75715">
        <ele>63</ele>
        <time>2023-07-14T07:12:32Z</time>
      </trkpt>
      <trkpt lat="47.40779" lon="0.75725">
        <ele>63</ele>
        <time>2023-07-14T07:12:33Z</time>
      </trkpt>
      <trkpt lat="47.4078" lon="0.75736">
        <ele>63</ele>
        <time>2023-07-14T07:12:34Z</time>
      </trkpt>
      <trkpt lat="47.40781" lon="0.75746">
        <ele>63</ele>
        <time>2023-07-14T07:12:35Z</time>
      </trkpt>
      <trkpt lat="47.40781" lon="0.75756">
        <ele>63</ele>
        <time>2023-07-14T07:12:36Z</time>
      </trkpt>
      <trkpt lat="47.40781" lon="0.75766">
        <ele>63.2</ele>
        <time>2023-07-14T07:12:37Z</time>
      </trkpt>
      <trkpt lat="47.40781" lon="0.75776">
        <ele>63.2</ele>
        <time>2023-07-14T07:12:38Z</time>
      </trkpt>
      <trkpt lat="47.40781" lon="0.75786">
        <ele>63.2</ele>
        <time>2023-07-14T07:12:39Z</time>
      </trkpt>
      <trkpt lat="47.40781" lon="0.75797">
        <ele>63</ele>
        <time>2023-07-14T07:12:40Z</time>
      </trkpt>
      <trkpt lat="47.40782" lon="0.75807">
        <ele>63</ele>
        <time>2023-07-14T07:12:41Z</time>
      </trkpt>
      <trkpt lat="47.40782" lon="0.75816">
        <ele>63</ele>
        <time>2023-07-14T07:12:42Z</time>
      </trkpt>
      <trkpt lat="47.40782" lon="0.75827">
        <ele>63</ele>
        <time>2023-07-14T07:12:43Z</time>
      </trkpt>
      <trkpt lat="47.40782" lon="0.75837">
        <ele>63</ele>
        <time>2023-07-14T07:12:44Z</time>
      </trkpt>
      <trkpt lat="47.40783" lon="0.75846">
        <ele>62.8</ele>
        <time>2023-07-14T07:12:45Z</time>
      </trkpt>
      <trkpt lat="47.40784" lon="0.75855">
        <ele>62.8</ele>
        <time>2023-07-14T07:12:46Z</time>
      </trkpt>
      <trkpt lat="47.40786" lon="0.75862">
        <ele>63</ele>
        <time>2023-07-14T07:12:47Z</time>
      </trkpt>
      <trkpt lat="47.40789" lon="0.7587">
        <ele>63</ele>
        <time>2023-07-14T07:12:48Z</time>
      </trkpt>
      <trkpt lat="47.40793" lon="0.75878">
        <ele>63</ele>
        <time>2023-07-14T07:12:49Z</time>
      </trkpt>
      <trkpt lat="47.40797" lon="0.75886">
        <ele>63.2</ele>
        <time>2023-07-14T07:12:50Z</time>
      </trkpt>
      <trkpt lat="47.408" lon="0.75893">
        <ele>63.2</ele>
        <time>2023-07-14T07:12:51Z</time>
      </trkpt>
      <trkpt lat="47.40803" lon="0.759">
        <ele>63.2</ele>
        <time>2023-07-14T07:12:52Z</time>
      </trkpt>
      <trkpt lat="47.40806" lon="0.75909">
        <ele>63.2</ele>
        <time>2023-07-14T07:12:53Z</time>
      </trkpt>
      <trkpt lat="47.40809" lon="0.75918">
        <ele>63</ele>
        <time>2023-07-14T07:12:54Z</time>
      </trkpt>
      <trkpt lat="47.40811" lon="0.75926">
        <ele>63</ele>
        <time>2023-07-14T07:12:55Z</time>
      </trkpt>
      <trkpt lat="47.40813" lon="0.75934">
        <ele>62.8</ele>
        <time>2023-07-14T07:12:56Z</time>
      </trkpt>
      <trkpt lat="47.40814" lon="0.75941">
        <ele>62.8</ele>
        <time>2023-07-14T07:12:57Z</time>
      </trkpt>
      <trkpt lat="47.40815" lon="0.75949">
        <ele>62.6</ele>
        <time>2023-07-14T07:12:58Z</time>
      </trkpt>
      <trkpt lat="47.40816" lon="0.75956">
        <ele>62.6</ele>
        <time>2023-07-14T07:12:59Z</time>
      </trkpt>
      <trkpt lat="47.40817" lon="0.75962">
        <ele>62.6</ele>
        <time>2023-07-14T07:13:00Z</time>
      </trkpt>
      <trkpt lat="47.40818" lon="0.75969">
        <ele>62.6</ele>
        <time>2023-07-14T07:13:01Z</time>
      </trkpt>
      <trkpt lat="47.40818" lon="0.75977">
        <ele>62.6</ele>
        <time>2023-07-14T07:13:02Z</time>
      </trkpt>
      <trkpt lat="47.40819" lon="0.75984">
        <ele>62.6</ele>
        <time>2023-07-14T07:13:03Z</time>
      </trkpt>
      <trkpt lat="47.40821" lon="0.7599">
        <ele>62.8</ele>
        <time>2023-07-14T07:13:04Z</time>
      </trkpt>
      <trkpt lat="47.40823" lon="0.75997">
        <ele>62.8</ele>
        <time>2023-07-14T07:13:05Z</time>
      </trkpt>
      <trkpt lat="47.40825" lon="0.76003">
        <ele>62.8</ele>
        <time>2023-07-14T07:13:06Z</time>
      </trkpt>
      <trkpt lat="47.40827" lon="0.76007">
        <ele>62.8</ele>
        <time>2023-07-14T07:13:07Z</time>
      </trkpt>
      <trkpt lat="47.40831" lon="0.76011">
        <ele>62.8</ele>
        <time>2023-07-14T07:13:08Z</time>
      </trkpt>
      <trkpt lat="47.40834" lon="0.76014">
        <ele>62.8</ele>
        <time>2023-07-14T07:13:09Z</time>
      </trkpt>
      <trkpt lat="47.40837" lon="0.76017">
        <ele>62.8</ele>
        <time>2023-07-14T07:13:10Z</time>
      </trkpt>
      <trkpt lat="47.40841" lon="0.7602">
        <ele>62.8</ele>
        <time>2023-07-14T07:13:11Z</time>
      </trkpt>
      <trkpt lat="47.40845" lon="0.76023">
        <ele>62.8</ele>
        <time>2023-07-14T07:13:12Z</time>
      </trkpt>
      <trkpt lat="47.40849" lon="0.76025">
        <ele>62.8</ele>
        <time>2023-07-14T07:13:13Z</time>
      </trkpt>
      <trkpt lat="47.40852" lon="0.76027">
        <ele>62.8</ele>
        <time>2023-07-14T07:13:14Z</time>
      </trkpt>
      <trkpt lat="47.40854" lon="0.76028">
        <ele>62.8</ele>
        <time>2023-07-14T07:13:15Z</time>
      </trkpt>
      <trkpt lat="47.40858" lon="0.76029">
        <ele>62.8</ele>
        <time>2023-07-14T07:13:16Z</time>
      </trkpt>
      <trkpt lat="47.40861" lon="0.76029">
        <ele>62.8</ele>
        <time>2023-07-14T07:13:17Z</time>
      </trkpt>
      <trkpt lat="47.40865" lon="0.76028">
        <ele>62.8</ele>
        <time>2023-07-14T07:13:18Z</time>
      </trkpt>
      <trkpt lat="47.40868" lon="0.76027">
        <ele>63</ele>
        <time>2023-07-14T07:13:19Z</time>
      </trkpt>
      <trkpt lat="47.40871" lon="0.76025">
        <ele>63.2</ele>
        <time>2023-07-14T07:13:20Z</time>
      </trkpt>
      <trkpt lat="47.40875" lon="0.76023">
        <ele>63.6</ele>
        <time>2023-07-14T07:13:21Z</time>
      </trkpt>
      <trkpt lat="47.40878" lon="0.76021">
        <ele>64</ele>
        <time>2023-07-14T07:13:22Z</time>
      </trkpt>
      <trkpt lat="47.4088" lon="0.76019">
        <ele>64.2</ele>
        <time>2023-07-14T07:13:23Z</time>
      </trkpt>
      <trkpt lat="47.40882" lon="0.76017">
        <ele>64.6</ele>
        <time>2023-07-14T07:13:24Z</time>
      </trkpt>
      <trkpt lat="47.40884" lon="0.76015">
        <ele>64.8</ele>
        <time>2023-07-14T07:13:25Z</time>
      </trkpt>
      <trkpt lat="47.40886" lon="0.76013">
        <ele>65</ele>
        <time>2023-07-14T07:13:26Z</time>
      </trkpt>
      <trkpt lat="47.40888" lon="0.76011">
        <ele>65</ele>
        <time>2023-07-14T07:13:27Z</time>
      </trkpt>
      <trkpt lat="47.40889" lon="0.76007">
        <ele>65.2</ele>
        <time>2023-07-14T07:13:28Z</time>
      </trkpt>
      <trkpt lat="47.4089" lon="0.76003">
        <ele>65.2</ele>
        <time>2023-07-14T07:13:29Z</time>
      </trkpt>
      <trkpt lat="47.40891" lon="0.75998">
        <ele>65.4</ele>
        <time>2023-07-14T07:13:30Z</time>
      </trkpt>
      <trkpt lat="47.40893" lon="0.75992">
        <ele>65.4</ele>
        <time>2023-07-14T07:13:31Z</time>
      </trkpt>
      <trkpt lat="47.40896" lon="0.75987">
        <ele>65.4</ele>
        <time>2023-07-14T07:13:32Z</time>
      </trkpt>
      <trkpt lat="47.409" lon="0.75984">
        <ele>65.6</ele>
        <time>2023-07-14T07:13:33Z</time>
      </trkpt>
      <trkpt lat="47.40904" lon="0.75983">
        <ele>65.6</ele>
        <time>2023-07-14T07:13:34Z</time>
      </trkpt>
      <trkpt lat="47.40909" lon="0.75982">
        <ele>65.6</ele>
        <time>2023-07-14T07:13:35Z</time>
      </trkpt>
      <trkpt lat="47.40913" lon="0.75982">
        <ele>65.8</ele>
        <time>2023-07-14T07:13:36Z</time>
      </trkpt>
      <trkpt lat="47.40918" lon="0.75982">
        <ele>65.8</ele>
        <time>2023-07-14T07:13:37Z</time>
      </trkpt>
      <trkpt lat="47.40923" lon="0.75982">
        <ele>66</ele>
        <time>2023-07-14T07:13:38Z</time>
      </trkpt>
      <trkpt lat="47.40928" lon="0.75984">
        <ele>66.2</ele>
        <time>2023-07-14T07:13:39Z</time>
      </trkpt>
      <trkpt lat="47.40933" lon="0.75985">
        <ele>66.4</ele>
        <time>2023-07-14T07:13:40Z</time>
      </trkpt>
      <trkpt lat="47.40937" lon="0.75987">
        <ele>66.4</ele>
        <time>2023-07-14T07:13:41Z</time>
      </trkpt>
      <trkpt lat="47.40942" lon="0.75988">
        <ele>66.6</ele>
        <time>2023-07-14T07:13:42Z</time>
      </trkpt>
      <trkpt lat="47.40947" lon="0.7599">
        <ele>66.8</ele>
        <time>2023-07-14T07:13:43Z</time>
      </trkpt>
      <trkpt lat="47.40951" lon="0.75992">
        <ele>67</ele>
        <time>2023-07-14T07:13:44Z</time>
      </trkpt>
      <trkpt lat="47.40955" lon="0.75993">
        <ele>67</ele>
        <time>2023-07-14T07:13:45Z</time>
      </trkpt>
      <trkpt lat="47.40958" lon="0.75994">
        <ele>67.2</ele>
        <time>2023-07-14T07:13:46Z</time>
      </trkpt>
      <trkpt lat="47.40961" lon="0.75995">
        <ele>67.4</ele>
        <time>2023-07-14T07:13:47Z</time>
      </trkpt>
      <trkpt lat="47.40965" lon="0.75995">
        <ele>67.4</ele>
        <time>2023-07-14T07:13:48Z</time>
      </trkpt>
      <trkpt lat="47.40971" lon="0.75996">
        <ele>67.6</ele>
        <time>2023-07-14T07:13:49Z</time>
      </trkpt>
      <trkpt lat="47.40975" lon="0.75996">
        <ele>67.8</ele>
        <time>2023-07-14T07:13:50Z</time>
      </trkpt>
      <trkpt lat="47.4098" lon="0.75995">
        <ele>67.8</ele>
        <time>2023-07-14T07:13:51Z</time>
      </trkpt>
      <trkpt lat="47.40985" lon="0.75994">
        <ele>68</ele>
        <time>2023-07-14T07:13:52Z</time>
      </trkpt>
      <trkpt lat="47.40989" lon="0.75992">
        <ele>68</ele>
        <time>2023-07-14T07:13:53Z</time>
      </trkpt>
      <trkpt lat="47.40993" lon="0.7599">
        <ele>68</ele>
        <time>2023-07-14T07:13:54Z</time>
      </trkpt>
      <trkpt lat="47.40997" lon="0.75987">
        <ele>68.2</ele>
        <time>2023-07-14T07:13:55Z</time>
      </trkpt>
      <trkpt lat="47.41001" lon="0.75985">
        <ele>68.2</ele>
        <time>2023-07-14T07:13:56Z</time>
      </trkpt>
      <trkpt lat="47.41005" lon="0.75982">
        <ele>68.2</ele>
        <time>2023-07-14T07:13:57Z</time>
      </trkpt>
      <trkpt lat="47.41008" lon="0.75979">
        <ele>68.2</ele>
        <time>2023-07-14T07:13:58Z</time>
      </trkpt>
      <trkpt lat="47.41011" lon="0.75975">
        <ele>68.4</ele>
        <time>2023-07-14T07:13:59Z</time>
      </trkpt>
      <trkpt lat="47.41014" lon="0.75971">
        <ele>68.4</ele>
        <time>2023-07-14T07:14:00Z</time>
      </trkpt>
      <trkpt lat="47.41017" lon="0.75967">
        <ele>68.6</ele>
        <time>2023-07-14T07:14:01Z</time>
      </trkpt>
      <trkpt lat="47.4102" lon="0.75963">
        <ele>68.6</ele>
        <time>2023-07-14T07:14:02Z</time>
      </trkpt>
      <trkpt lat="47.41022" lon="0.75958">
        <ele>68.6</ele>
        <time>2023-07-14T07:14:03Z</time>
      </trkpt>
      <trkpt lat="47.41025" lon="0.75954">
        <ele>68.8</ele>
        <time>2023-07-14T07:14:04Z</time>
      </trkpt>
      <trkpt lat="47.41028" lon="0.75949">
        <ele>68.8</ele>
        <time>2023-07-14T07:14:05Z</time>
      </trkpt>
      <trkpt lat="47.41031" lon="0.75945">
        <ele>69</ele>
        <time>2023-07-14T07:14:06Z</time>
      </trkpt>
      <trkpt lat="47.41034" lon="0.75941">
        <ele>69.2</ele>
        <time>2023-07-14T07:14:07Z</time>
      </trkpt>
      <trkpt lat="47.41037" lon="0.75936">
        <ele>69.2</ele>
        <time>2023-07-14T07:14:08Z</time>
      </trkpt>
      <trkpt lat="47.4104" lon="0.75932">
        <ele>69.4</ele>
        <time>2023-07-14T07:14:09Z</time>
      </trkpt>
      <trkpt lat="47.41043" lon="0.75927">
        <ele>69.4</ele>
        <time>2023-07-14T07:14:10Z</time>
      </trkpt>
      <trkpt lat="47.41047" lon="0.75922">
        <ele>69.6</ele>
        <time>2023-07-14T07:14:11Z</time>
      </trkpt>
      <trkpt lat="47.4105" lon="0.75917">
        <ele>69.6</ele>
        <time>2023-07-14T07:14:12Z</time>
      </trkpt>
      <trkpt lat="47.41053" lon="0.75913">
        <ele>69.8</ele>
        <time>2023-07-14T07:14:13Z</time>
      </trkpt>
      <trkpt lat="47.41055" lon="0.75909">
        <ele>69.8</ele>
        <time>2023-07-14T07:14:14Z</time>
      </trkpt>
      <trkpt lat="47.41059" lon="0.75904">
        <ele>70</ele>
        <time>2023-07-14T07:14:15Z</time>
      </trkpt>
      <trkpt lat="47.41063" lon="0.759">
        <ele>70</ele>
        <time>2023-07-14T07:14:16Z</time>
      </trkpt>
      <trkpt lat="47.41067" lon="0.75896">
        <ele>70</ele>
        <time>2023-07-14T07:14:17Z</time>
      </trkpt>
      <trkpt lat="47.41072" lon="0.75893">
        <ele>69.8</ele>
        <time>2023-07-14T07:14:18Z</time>
      </trkpt>
      <trkpt lat="47.41076" lon="0.7589">
        <ele>69.8</ele>
        <time>2023-07-14T07:14:19Z</time>
      </trkpt>
      <trkpt lat="47.4108" lon="0.75888">
        <ele>69.8</ele>
        <time>2023-07-14T07:14:20Z</time>
      </trkpt>
      <trkpt lat="47.41085" lon="0.75887">
        <ele>69.8</ele>
        <time>2023-07-14T07:14:21Z</time>
      </trkpt>
      <trkpt lat="47.4109" lon="0.75887">
        <ele>69.8</ele>
        <time>2023-07-14T07:14:22Z</time>
      </trkpt>
      <trkpt lat="47.41094" lon="0.75888">
        <ele>70</ele>
        <time>2023-07-14T07:14:23Z</time>
      </trkpt>
      <trkpt lat="47.41098" lon="0.75889">
        <ele>70.2</ele>
        <time>2023-07-14T07:14:24Z</time>
      </trkpt>
      <trkpt lat="47.41103" lon="0.7589">
        <ele>70.4</ele>
        <time>2023-07-14T07:14:25Z</time>
      </trkpt>
      <trkpt lat="47.41107" lon="0.75891">
        <ele>70.6</ele>
        <time>2023-07-14T07:14:26Z</time>
      </trkpt>
      <trkpt lat="47.41111" lon="0.75893">
        <ele>71</ele>
        <time>2023-07-14T07:14:27Z</time>
      </trkpt>
      <trkpt lat="47.41114" lon="0.75894">
        <ele>71.4</ele>
        <time>2023-07-14T07:14:28Z</time>
      </trkpt>
      <trkpt lat="47.41117" lon="0.75895">
        <ele>71.8</ele>
        <time>2023-07-14T07:14:29Z</time>
      </trkpt>
      <trkpt lat="47.41121" lon="0.75895">
        <ele>72.2</ele>
        <time>2023-07-14T07:14:30Z</time>
      </trkpt>
      <trkpt lat="47.41124" lon="0.75895">
        <ele>72.6</ele>
        <time>2023-07-14T07:14:31Z</time>
      </trkpt>
      <trkpt lat="47.41128" lon="0.75894">
        <ele>73</ele>
        <time>2023-07-14T07:14:32Z</time>
      </trkpt>
      <trkpt lat="47.41131" lon="0.75894">
        <ele>73.4</ele>
        <time>2023-07-14T07:14:33Z</time>
      </trkpt>
      <trkpt lat="47.41135" lon="0.75893">
        <ele>74</ele>
        <time>2023-07-14T07:14:34Z</time>
      </trkpt>
      <trkpt lat="47.41138" lon="0.75893">
        <ele>74.4</ele>
        <time>2023-07-14T07:14:35Z</time>
      </trkpt>
      <trkpt lat="47.41141" lon="0.75894">
        <ele>74.8</ele>
        <time>2023-07-14T07:14:36Z</time>
      </trkpt>
      <trkpt lat="47.41145" lon="0.75894">
        <ele>75.2</ele>
        <time>2023-07-14T07:14:37Z</time>
      </trkpt>
      <trkpt lat="47.41148" lon="0.75894">
        <ele>75.4</ele>
        <time>2023-07-14T07:14:38Z</time>
      </trkpt>
      <trkpt lat="47.41151" lon="0.75894">
        <ele>75.8</ele>
        <time>2023-07-14T07:14:39Z</time>
      </trkpt>
      <trkpt lat="47.41154" lon="0.75894">
        <ele>76.2</ele>
        <time>2023-07-14T07:14:40Z</time>
      </trkpt>
      <trkpt lat="47.41158" lon="0.75893">
        <ele>76.6</ele>
        <time>2023-07-14T07:14:41Z</time>
      </trkpt>
      <trkpt lat="47.41161" lon="0.75892">
        <ele>76.8</ele>
        <time>2023-07-14T07:14:42Z</time>
      </trkpt>
      <trkpt lat="47.41164" lon="0.75891">
        <ele>77.2</ele>
        <time>2023-07-14T07:14:43Z</time>
      </trkpt>
      <trkpt lat="47.41168" lon="0.7589">
        <ele>77.4</ele>
        <time>2023-07-14T07:14:44Z</time>
      </trkpt>
      <trkpt lat="47.41171" lon="0.75889">
        <ele>77.6</ele>
        <time>2023-07-14T07:14:45Z</time>
      </trkpt>
      <trkpt lat="47.41175" lon="0.75889">
        <ele>78</ele>
        <time>2023-07-14T07:14:46Z</time>
      </trkpt>
      <trkpt lat="47.41179" lon="0.75889">
        <ele>78.2</ele>
        <time>2023-07-14T07:14:47Z</time>
      </trkpt>
      <trkpt lat="47.41182" lon="0.7589">
        <ele>78.4</ele>
        <time>2023-07-14T07:14:48Z</time>
      </trkpt>
      <trkpt lat="47.41186" lon="0.75891">
        <ele>78.4</ele>
        <time>2023-07-14T07:14:49Z</time>
      </trkpt>
      <trkpt lat="47.4119" lon="0.75891">
        <ele>78.6</ele>
        <time>2023-07-14T07:14:50Z</time>
      </trkpt>
      <trkpt lat="47.41194" lon="0.75892">
        <ele>78.8</ele>
        <time>2023-07-14T07:14:51Z</time>
      </trkpt>
      <trkpt lat="47.41197" lon="0.75892">
        <ele>79</ele>
        <time>2023-07-14T07:14:52Z</time>
      </trkpt>
      <trkpt lat="47.41201" lon="0.75891">
        <ele>79</ele>
        <time>2023-07-14T07:14:53Z</time>
      </trkpt>
      <trkpt lat="47.41204" lon="0.75891">
        <ele>79.2</ele>
        <time>2023-07-14T07:14:54Z</time>
      </trkpt>
      <trkpt lat="47.41208" lon="0.75891">
        <ele>79.4</ele>
        <time>2023-07-14T07:14:55Z</time>
      </trkpt>
      <trkpt lat="47.41212" lon="0.7589">
        <ele>79.4</ele>
        <time>2023-07-14T07:14:56Z</time>
      </trkpt>
      <trkpt lat="47.41216" lon="0.7589">
        <ele>79.6</ele>
        <time>2023-07-14T07:14:57Z</time>
      </trkpt>
      <trkpt lat="47.41219" lon="0.7589">
        <ele>79.8</ele>
        <time>2023-07-14T07:14:58Z</time>
      </trkpt>
      <trkpt lat="47.41223" lon="0.7589">
        <ele>80</ele>
        <time>2023-07-14T07:14:59Z</time>
      </trkpt>
      <trkpt lat="47.41226" lon="0.75891">
        <ele>80.2</ele>
        <time>2023-07-14T07:15:00Z</time>
      </trkpt>
      <trkpt lat="47.4123" lon="0.7589">
        <ele>80.4</ele>
        <time>2023-07-14T07:15:01Z</time>
      </trkpt>
      <trkpt lat="47.41233" lon="0.75889">
        <ele>80.6</ele>
        <time>2023-07-14T07:15:02Z</time>
      </trkpt>
      <trkpt lat="47.41236" lon="0.75888">
        <ele>81</ele>
        <time>2023-07-14T07:15:03Z</time>
      </trkpt>
      <trkpt lat="47.4124" lon="0.75887">
        <ele>81.2</ele>
        <time>2023-07-14T07:15:04Z</time>
      </trkpt>
      <trkpt lat="47.41243" lon="0.75886">
        <ele>81.6</ele>
        <time>2023-07-14T07:15:05Z</time>
      </trkpt>
      <trkpt lat="47.41246" lon="0.75885">
        <ele>82</ele>
        <time>2023-07-14T07:15:06Z</time>
      </trkpt>
      <trkpt lat="47.41248" lon="0.75884">
        <ele>82.2</ele>
        <time>2023-07-14T07:15:07Z</time>
      </trkpt>
      <trkpt lat="47.41251" lon="0.75885">
        <ele>82.6</ele>
        <time>2023-07-14T07:15:08Z</time>
      </trkpt>
      <trkpt lat="47.41254" lon="0.75885">
        <ele>83</ele>
        <time>2023-07-14T07:15:09Z</time>
      </trkpt>
      <trkpt lat="47.41257" lon="0.75886">
        <ele>83.4</ele>
        <time>2023-07-14T07:15:10Z</time>
      </trkpt>
      <trkpt lat="47.4126" lon="0.75887">
        <ele>83.6</ele>
        <time>2023-07-14T07:15:11Z</time>
      </trkpt>
      <trkpt lat="47.41263" lon="0.75888">
        <ele>84</ele>
        <time>2023-07-14T07:15:12Z</time>
      </trkpt>
      <trkpt lat="47.41265" lon="0.75889">
        <ele>84.4</ele>
        <time>2023-07-14T07:15:13Z</time>
      </trkpt>
      <trkpt lat="47.41268" lon="0.7589">
        <ele>84.8</ele>
        <time>2023-07-14T07:15:14Z</time>
      </trkpt>
      <trkpt lat="47.41271" lon="0.75891">
        <ele>85.4</ele>
        <time>2023-07-14T07:15:15Z</time>
      </trkpt>
      <trkpt lat="47.41273" lon="0.75893">
        <ele>85.8</ele>
        <time>2023-07-14T07:15:16Z</time>
      </trkpt>
      <trkpt lat="47.41275" lon="0.75895">
        <ele>86.2</ele>
        <time>2023-07-14T07:15:17Z</time>
      </trkpt>
      <trkpt lat="47.41277" lon="0.75898">
        <ele>86.6</ele>
        <time>2023-07-14T07:15:18Z</time>
      </trkpt>
      <trkpt lat="47.41278" lon="0.759">
        <ele>87.2</ele>
        <time>2023-07-14T07:15:19Z</time>
      </trkpt>
      <trkpt lat="47.4128" lon="0.75902">
        <ele>87.6</ele>
        <time>2023-07-14T07:15:20Z</time>
      </trkpt>
      <trkpt lat="47.41283" lon="0.75904">
        <ele>88.2</ele>
        <time>2023-07-14T07:15:21Z</time>
      </trkpt>
      <trkpt lat="47.41285" lon="0.75906">
        <ele>88.6</ele>
        <time>2023-07-14T07:15:22Z</time>
      </trkpt>
      <trkpt lat="47.41287" lon="0.75907">
        <ele>89</ele>
        <time>2023-07-14T07:15:23Z</time>
      </trkpt>
      <trkpt lat="47.41289" lon="0.75909">
        <ele>89.6</ele>
        <time>2023-07-14T07:15:24Z</time>
      </trkpt>
      <trkpt lat="47.41291" lon="0.75911">
        <ele>90</ele>
        <time>2023-07-14T07:15:25Z</time>
      </trkpt>
      <trkpt lat="47.41292" lon="0.75913">
        <ele>90.4</ele>
        <time>2023-07-14T07:15:26Z</time>
      </trkpt>
      <trkpt lat="47.41292" lon="0.75916">
        <ele>91</ele>
        <time>2023-07-14T07:15:27Z</time>
      </trkpt>
      <trkpt lat="47.41293" lon="0.7592">
        <ele>91.4</ele>
        <time>2023-07-14T07:15:28Z</time>
      </trkpt>
      <trkpt lat="47.41293" lon="0.75923">
        <ele>91.8</ele>
        <time>2023-07-14T07:15:29Z</time>
      </trkpt>
      <trkpt lat="47.41293" lon="0.75927">
        <ele>92.4</ele>
        <time>2023-07-14T07:15:30Z</time>
      </trkpt>
      <trkpt lat="47.41294" lon="0.7593">
        <ele>92.8</ele>
        <time>2023-07-14T07:15:31Z</time>
      </trkpt>
      <trkpt lat="47.41295" lon="0.75933">
        <ele>93.2</ele>
        <time>2023-07-14T07:15:32Z</time>
      </trkpt>
      <trkpt lat="47.41296" lon="0.75936">
        <ele>93.8</ele>
        <time>2023-07-14T07:15:33Z</time>
      </trkpt>
      <trkpt lat="47.41298" lon="0.75938">
        <ele>94.2</ele>
        <time>2023-07-14T07:15:34Z</time>
      </trkpt>
      <trkpt lat="47.41299" lon="0.75941">
        <ele>94.6</ele>
        <time>2023-07-14T07:15:35Z</time>
      </trkpt>
      <trkpt lat="47.41299" lon="0.75944">
        <ele>95</ele>
        <time>2023-07-14T07:15:36Z</time>
      </trkpt>
      <trkpt lat="47.413" lon="0.75946">
        <ele>95.4</ele>
        <time>2023-07-14T07:15:37Z</time>
      </trkpt>
      <trkpt lat="47.41301" lon="0.75948">
        <ele>95.8</ele>
        <time>2023-07-14T07:15:38Z</time>
      </trkpt>
      <trkpt lat="47.41302" lon="0.7595">
        <ele>96.2</ele>
        <time>2023-07-14T07:15:39Z</time>
      </trkpt>
      <trkpt lat="47.41304" lon="0.75952">
        <ele>96.8</ele>
        <time>2023-07-14T07:15:40Z</time>
      </trkpt>
      <trkpt lat="47.41305" lon="0.75954">
        <ele>97.2</ele>
        <time>2023-07-14T07:15:41Z</time>
      </trkpt>
      <trkpt lat="47.41306" lon="0.75956">
        <ele>97.6</ele>
        <time>2023-07-14T07:15:42Z</time>
      </trkpt>
      <trkpt lat="47.41307" lon="0.75959">
        <ele>98</ele>
        <time>2023-07-14T07:15:43Z</time>
      </trkpt>
      <trkpt lat="47.41307" lon="0.75961">
        <ele>98.4</ele>
        <time>2023-07-14T07:15:44Z</time>
      </trkpt>
      <trkpt lat="47.41308" lon="0.75964">
        <ele>98.8</ele>
        <time>2023-07-14T07:15:45Z</time>
      </trkpt>
      <trkpt lat="47.41309" lon="0.75967">
        <ele>99.2</ele>
        <time>2023-07-14T07:15:46Z</time>
      </trkpt>
      <trkpt lat="47.41309" lon="0.7597">
        <ele>99.6</ele>
        <time>2023-07-14T07:15:47Z</time>
      </trkpt>
      <trkpt lat="47.4131" lon="0.75973">
        <ele>100</ele>
        <time>2023-07-14T07:15:48Z</time>
      </trkpt>
      <trkpt lat="47.41312" lon="0.75976">
        <ele>100.4</ele>
        <time>2023-07-14T07:15:49Z</time>
      </trkpt>
      <trkpt lat="47.41313" lon="0.75978">
        <ele>100.8</ele>
        <time>2023-07-14T07:15:50Z</time>
      </trkpt>
      <trkpt lat="47.41314" lon="0.75981">
        <ele>101.2</ele>
        <time>2023-07-14T07:15:51Z</time>
      </trkpt>
      <trkpt lat="47.41314" lon="0.75984">
        <ele>101.6</ele>
        <time>2023-07-14T07:15:52Z</time>
      </trkpt>
      <trkpt lat="47.41315" lon="0.75987">
        <ele>102</ele>
        <time>2023-07-14T07:15:53Z</time>
      </trkpt>
      <trkpt lat="47.41316" lon="0.75991">
        <ele>102.4</ele>
        <time>2023-07-14T07:15:54Z</time>
      </trkpt>
      <trkpt lat="47.41317" lon="0.75994">
        <ele>102.8</ele>
        <time>2023-07-14T07:15:55Z</time>
      </trkpt>
      <trkpt lat="47.41319" lon="0.75998">
        <ele>103</ele>
        <time>2023-07-14T07:15:56Z</time>
      </trkpt>
      <trkpt lat="47.41319" lon="0.76001">
        <ele>103.4</ele>
        <time>2023-07-14T07:15:57Z</time>
      </trkpt>
      <trkpt lat="47.4132" lon="0.76005">
        <ele>103.8</ele>
        <time>2023-07-14T07:15:58Z</time>
      </trkpt>
      <trkpt lat="47.41321" lon="0.76008">
        <ele>104</ele>
        <time>2023-07-14T07:15:59Z</time>
      </trkpt>
      <trkpt lat="47.41322" lon="0.76012">
        <ele>104.4</ele>
        <time>2023-07-14T07:16:00Z</time>
      </trkpt>
      <trkpt lat="47.41323" lon="0.76015">
        <ele>104.6</ele>
        <time>2023-07-14T07:16:01Z</time>
      </trkpt>
      <trkpt lat="47.41323" lon="0.76019">
        <ele>104.8</ele>
        <time>2023-07-14T07:16:02Z</time>
      </trkpt>
      <trkpt lat="47.41325" lon="0.76022">
        <ele>105.2</ele>
        <time>2023-07-14T07:16:03Z</time>
      </trkpt>
      <trkpt lat="47.41326" lon="0.76026">
        <ele>105.4</ele>
        <time>2023-07-14T07:16:04Z</time>
      </trkpt>
      <trkpt lat="47.41327" lon="0.76029">
        <ele>105.6</ele>
        <time>2023-07-14T07:16:05Z</time>
      </trkpt>
      <trkpt lat="47.41329" lon="0.76032">
        <ele>106</ele>
        <time>2023-07-14T07:16:06Z</time>
      </trkpt>
      <trkpt lat="47.4133" lon="0.76035">
        <ele>106.2</ele>
        <time>2023-07-14T07:16:07Z</time>
      </trkpt>
      <trkpt lat="47.41332" lon="0.76038">
        <ele>106.4</ele>
        <time>2023-07-14T07:16:08Z</time>
      </trkpt>
      <trkpt lat="47.41333" lon="0.76041">
        <ele>106.8</ele>
        <time>2023-07-14T07:16:09Z</time>
      </trkpt>
      <trkpt lat="47.41334" lon="0.76045">
        <ele>107</ele>
        <time>2023-07-14T07:16:10Z</time>
      </trkpt>
      <trkpt lat="47.41335" lon="0.76048">
        <ele>107.2</ele>
        <time>2023-07-14T07:16:11Z</time>
      </trkpt>
      <trkpt lat="47.41336" lon="0.76052">
        <ele>107.4</ele>
        <time>2023-07-14T07:16:12Z</time>
      </trkpt>
      <trkpt lat="47.41338" lon="0.76056">
        <ele>107.6</ele>
        <time>2023-07-14T07:16:13Z</time>
      </trkpt>
      <trkpt lat="47.41338" lon="0.76059">
        <ele>107.8</ele>
        <time>2023-07-14T07:16:14Z</time>
      </trkpt>
      <trkpt lat="47.41339" lon="0.76063">
        <ele>108</ele>
        <time>2023-07-14T07:16:15Z</time>
      </trkpt>
      <trkpt lat="47.4134" lon="0.76067">
        <ele>108.2</ele>
        <time>2023-07-14T07:16:16Z</time>
      </trkpt>
      <trkpt lat="47.41341" lon="0.76071">
        <ele>108.2</ele>
        <time>2023-07-14T07:16:17Z</time>
      </trkpt>
      <trkpt lat="47.41341" lon="0.76075">
        <ele>108.4</ele>
        <time>2023-07-14T07:16:18Z</time>
      </trkpt>
      <trkpt lat="47.41342" lon="0.76079">
        <ele>108.6</ele>
        <time>2023-07-14T07:16:19Z</time>
      </trkpt>
      <trkpt lat="47.41343" lon="0.76083">
        <ele>108.6</ele>
        <time>2023-07-14T07:16:20Z</time>
      </trkpt>
      <trkpt lat="47.41344" lon="0.76087">
        <ele>108.8</ele>
        <time>2023-07-14T07:16:21Z</time>
      </trkpt>
      <trkpt lat="47.41344" lon="0.76091">
        <ele>108.8</ele>
        <time>2023-07-14T07:16:22Z</time>
      </trkpt>
      <trkpt lat="47.41345" lon="0.76095">
        <ele>108.8</ele>
        <time>2023-07-14T07:16:23Z</time>
      </trkpt>
      <trkpt lat="47.41346" lon="0.76099">
        <ele>109</ele>
        <time>2023-07-14T07:16:24Z</time>
      </trkpt>
      <trkpt lat="47.41347" lon="0.76104">
        <ele>109</ele>
        <time>2023-07-14T07:16:25Z</time>
      </trkpt>
      <trkpt lat="47.41348" lon="0.76108">
        <ele>109.2</ele>
        <time>2023-07-14T07:16:26Z</time>
      </trkpt>
      <trkpt lat="47.41349" lon="0.76112">
        <ele>109.4</ele>
        <time>2023-07-14T07:16:27Z</time>
      </trkpt>
      <trkpt lat="47.4135" lon="0.76117">
        <ele>109.6</ele>
        <time>2023-07-14T07:16:28Z</time>
      </trkpt>
      <trkpt lat="47.41351" lon="0.76121">
        <ele>109.6</ele>
        <time>2023-07-14T07:16:29Z</time>
      </trkpt>
      <trkpt lat="47.41352" lon="0.76126">
        <ele>109.6</ele>
        <time>2023-07-14T07:16:30Z</time>
      </trkpt>
      <trkpt lat="47.41353" lon="0.7613">
        <ele>109.8</ele>
        <time>2023-07-14T07:16:31Z</time>
      </trkpt>
      <trkpt lat="47.41354" lon="0.76135">
        <ele>109.8</ele>
        <time>2023-07-14T07:16:32Z</time>
      </trkpt>
      <trkpt lat="47.41355" lon="0.76139">
        <ele>109.8</ele>
        <time>2023-07-14T07:16:33Z</time>
      </trkpt>
      <trkpt lat="47.41356" lon="0.76145">
        <ele>110</ele>
        <time>2023-07-14T07:16:34Z</time>
      </trkpt>
      <trkpt lat="47.41357" lon="0.76151">
        <ele>110</ele>
        <time>2023-07-14T07:16:35Z</time>
      </trkpt>
      <trkpt lat="47.41358" lon="0.76157">
        <ele>110</ele>
        <time>2023-07-14T07:16:36Z</time>
      </trkpt>
      <trkpt lat="47.41359" lon="0.76163">
        <ele>110</ele>
        <time>2023-07-14T07:16:37Z</time>
      </trkpt>
      <trkpt lat="47.4136" lon="0.76169">
        <ele>110</ele>
        <time>2023-07-14T07:16:38Z</time>
      </trkpt>
      <trkpt lat="47.4136" lon="0.76176">
        <ele>110</ele>
        <time>2023-07-14T07:16:39Z</time>
      </trkpt>
      <trkpt lat="47.41361" lon="0.76182">
        <ele>110</ele>
        <time>2023-07-14T07:16:40Z</time>
      </trkpt>
      <trkpt lat="47.41361" lon="0.76188">
        <ele>110</ele>
        <time>2023-07-14T07:16:41Z</time>
      </trkpt>
      <trkpt lat="47.41362" lon="0.76195">
        <ele>110</ele>
        <time>2023-07-14T07:16:42Z</time>
      </trkpt>
      <trkpt lat="47.41363" lon="0.76201">
        <ele>110</ele>
        <time>2023-07-14T07:16:43Z</time>
      </trkpt>
      <trkpt lat="47.41363" lon="0.76208">
        <ele>110</ele>
        <time>2023-07-14T07:16:44Z</time>
      </trkpt>
      <trkpt lat="47.41364" lon="0.76214">
        <ele>109.8</ele>
        <time>2023-07-14T07:16:45Z</time>
      </trkpt>
      <trkpt lat="47.41364" lon="0.7622">
        <ele>109.8</ele>
        <time>2023-07-14T07:16:46Z</time>
      </trkpt>
      <trkpt lat="47.41364" lon="0.76227">
        <ele>109.8</ele>
        <time>2023-07-14T07:16:47Z</time>
      </trkpt>
      <trkpt lat="47.41365" lon="0.76233">
        <ele>109.6</ele>
        <time>2023-07-14T07:16:48Z</time>
      </trkpt>
      <trkpt lat="47.41365" lon="0.7624">
        <ele>109.6</ele>
        <time>2023-07-14T07:16:49Z</time>
      </trkpt>
      <trkpt lat="47.41365" lon="0.76247">
        <ele>109.6</ele>
        <time>2023-07-14T07:16:50Z</time>
      </trkpt>
      <trkpt lat="47.41365" lon="0.76254">
        <ele>109.6</ele>
        <time>2023-07-14T07:16:51Z</time>
      </trkpt>
      <trkpt lat="47.41365" lon="0.76261">
        <ele>109.4</ele>
        <time>2023-07-14T07:16:52Z</time>
      </trkpt>
      <trkpt lat="47.41365" lon="0.76269">
        <ele>109.2</ele>
        <time>2023-07-14T07:16:53Z</time>
      </trkpt>
      <trkpt lat="47.41365" lon="0.76278">
        <ele>109.2</ele>
        <time>2023-07-14T07:16:54Z</time>
      </trkpt>
      <trkpt lat="47.41365" lon="0.76286">
        <ele>109</ele>
        <time>2023-07-14T07:16:55Z</time>
      </trkpt>
      <trkpt lat="47.41364" lon="0.76294">
        <ele>108.8</ele>
        <time>2023-07-14T07:16:56Z</time>
      </trkpt>
      <trkpt lat="47.41364" lon="0.76303">
        <ele>108.6</ele>
        <time>2023-07-14T07:16:57Z</time>
      </trkpt>
      <trkpt lat="47.41363" lon="0.76311">
        <ele>108.2</ele>
        <time>2023-07-14T07:16:58Z</time>
      </trkpt>
      <trkpt lat="47.41363" lon="0.76319">
        <ele>107.6</ele>
        <time>2023-07-14T07:16:59Z</time>
      </trkpt>
      <trkpt lat="47.41363" lon="0.76327">
        <ele>107.2</ele>
        <time>2023-07-14T07:17:00Z</time>
      </trkpt>
      <trkpt lat="47.41363" lon="0.76336">
        <ele>106.8</ele>
        <time>2023-07-14T07:17:01Z</time>
      </trkpt>
      <trkpt lat="47.41364" lon="0.76343">
        <ele>106.2</ele>
        <time>2023-07-14T07:17:02Z</time>
      </trkpt>
      <trkpt lat="47.41364" lon="0.76348">
        <ele>105.8</ele>
        <time>2023-07-14T07:17:03Z</time>
      </trkpt>
      <trkpt lat="47.41364" lon="0.76353">
        <ele>105.2</ele>
        <time>2023-07-14T07:17:04Z</time>
      </trkpt>
      <trkpt lat="47.41364" lon="0.76357">
        <ele>104.8</ele>
        <time>2023-07-14T07:17:05Z</time>
      </trkpt>
      <trkpt lat="47.41365" lon="0.76361">
        <ele>104.4</ele>
        <time>2023-07-14T07:17:06Z</time>
      </trkpt>
      <trkpt lat="47.41365" lon="0.76367">
        <ele>104</ele>
        <time>2023-07-14T07:17:07Z</time>
      </trkpt>
      <trkpt lat="47.41366" lon="0.76373">
        <ele>103.8</ele>
        <time>2023-07-14T07:17:08Z</time>
      </trkpt>
      <trkpt lat="47.41367" lon="0.76379">
        <ele>103.8</ele>
        <time>2023-07-14T07:17:09Z</time>
      </trkpt>
      <trkpt lat="47.41368" lon="0.76386">
        <ele>103.8</ele>
        <time>2023-07-14T07:17:10Z</time>
      </trkpt>
      <trkpt lat="47.41368" lon="0.76392">
        <ele>103.8</ele>
        <time>2023-07-14T07:17:11Z</time>
      </trkpt>
      <trkpt lat="47.41369" lon="0.76399">
        <ele>104</ele>
        <time>2023-07-14T07:17:12Z</time>
      </trkpt>
      <trkpt lat="47.4137" lon="0.76405">
        <ele>104.2</ele>
        <time>2023-07-14T07:17:13Z</time>
      </trkpt>
      <trkpt lat="47.4137" lon="0.76412">
        <ele>104.4</ele>
        <time>2023-07-14T07:17:14Z</time>
      </trkpt>
      <trkpt lat="47.4137" lon="0.76418">
        <ele>104.4</ele>
        <time>2023-07-14T07:17:15Z</time>
      </trkpt>
      <trkpt lat="47.4137" lon="0.76425">
        <ele>104.6</ele>
        <time>2023-07-14T07:17:16Z</time>
      </trkpt>
      <trkpt lat="47.41371" lon="0.76431">
        <ele>104.6</ele>
        <time>2023-07-14T07:17:17Z</time>
      </trkpt>
      <trkpt lat="47.41371" lon="0.76437">
        <ele>104.8</ele>
        <time>2023-07-14T07:17:18Z</time>
      </trkpt>
      <trkpt lat="47.41372" lon="0.76444">
        <ele>105</ele>
        <time>2023-07-14T07:17:19Z</time>
      </trkpt>
      <trkpt lat="47.41372" lon="0.7645">
        <ele>105.2</ele>
        <time>2023-07-14T07:17:20Z</time>
      </trkpt>
      <trkpt lat="47.41373" lon="0.76456">
        <ele>105.4</ele>
        <time>2023-07-14T07:17:21Z</time>
      </trkpt>
      <trkpt lat="47.41373" lon="0.76461">
        <ele>105.8</ele>
        <time>2023-07-14T07:17:22Z</time>
      </trkpt>
      <trkpt lat="47.41374" lon="0.76468">
        <ele>106</ele>
        <time>2023-07-14T07:17:23Z</time>
      </trkpt>
      <trkpt lat="47.41375" lon="0.76475">
        <ele>106.2</ele>
        <time>2023-07-14T07:17:24Z</time>
      </trkpt>
      <trkpt lat="47.41375" lon="0.76481">
        <ele>106.4</ele>
        <time>2023-07-14T07:17:25Z</time>
      </trkpt>
      <trkpt lat="47.41375" lon="0.76486">
        <ele>106.6</ele>
        <time>2023-07-14T07:17:26Z</time>
      </trkpt>
      <trkpt lat="47.41376" lon="0.76493">
        <ele>106.8</ele>
        <time>2023-07-14T07:17:27Z</time>
      </trkpt>
      <trkpt lat="47.41376" lon="0.765">
        <ele>106.8</ele>
        <time>2023-07-14T07:17:28Z</time>
      </trkpt>
      <trkpt lat="47.41377" lon="0.76507">
        <ele>107</ele>
        <time>2023-07-14T07:17:29Z</time>
      </trkpt>
      <trkpt lat="47.41378" lon="0.76513">
        <ele>107</ele>
        <time>2023-07-14T07:17:30Z</time>
      </trkpt>
      <trkpt lat="47.41378" lon="0.7652">
        <ele>107.2</ele>
        <time>2023-07-14T07:17:31Z</time>
      </trkpt>
      <trkpt lat="47.41379" lon="0.76527">
        <ele>107.4</ele>
        <time>2023-07-14T07:17:32Z</time>
      </trkpt>
      <trkpt lat="47.41379" lon="0.76534">
        <ele>107.4</ele>
        <time>2023-07-14T07:17:33Z</time>
      </trkpt>
      <trkpt lat="47.41379" lon="0.7654">
        <ele>107.6</ele>
        <time>2023-07-14T07:17:34Z</time>
      </trkpt>
      <trkpt lat="47.41379" lon="0.76547">
        <ele>107.8</ele>
        <time>2023-07-14T07:17:35Z</time>
      </trkpt>
      <trkpt lat="47.41379" lon="0.76554">
        <ele>108.2</ele>
        <time>2023-07-14T07:17:36Z</time>
      </trkpt>
      <trkpt lat="47.41378" lon="0.76561">
        <ele>108.4</ele>
        <time>2023-07-14T07:17:37Z</time>
      </trkpt>
      <trkpt lat="47.41378" lon="0.76568">
        <ele>108.6</ele>
        <time>2023-07-14T07:17:38Z</time>
      </trkpt>
      <trkpt lat="47.41377" lon="0.76575">
        <ele>108.8</ele>
        <time>2023-07-14T07:17:39Z</time>
      </trkpt>
      <trkpt lat="47.41376" lon="0.76583">
        <ele>108.8</ele>
        <time>2023-07-14T07:17:40Z</time>
      </trkpt>
      <trkpt lat="47.41376" lon="0.76589">
        <ele>109</ele>
        <time>2023-07-14T07:17:41Z</time>
      </trkpt>
      <trkpt lat="47.41375" lon="0.76596">
        <ele>109.2</ele>
        <time>2023-07-14T07:17:42Z</time>
      </trkpt>
      <trkpt lat="47.41375" lon="0.76603">
        <ele>109.4</ele>
        <time>2023-07-14T07:17:43Z</time>
      </trkpt>
      <trkpt lat="47.41375" lon="0.7661">
        <ele>109.6</ele>
        <time>2023-07-14T07:17:44Z</time>
      </trkpt>
      <trkpt lat="47.41374" lon="0.76617">
        <ele>109.8</ele>
        <time>2023-07-14T07:17:45Z</time>
      </trkpt>
      <trkpt lat="47.41373" lon="0.76624">
        <ele>110</ele>
        <time>2023-07-14T07:17:46Z</time>
      </trkpt>
      <trkpt lat="47.41373" lon="0.76631">
        <ele>110.2</ele>
        <time>2023-07-14T07:17:47Z</time>
      </trkpt>
      <trkpt lat="47.41372" lon="0.76638">
        <ele>110.2</ele>
        <time>2023-07-14T07:17:48Z</time>
      </trkpt>
      <trkpt lat="47.41372" lon="0.76645">
        <ele>110.2</ele>
        <time>2023-07-14T07:17:49Z</time>
      </trkpt>
      <trkpt lat="47.41371" lon="0.76653">
        <ele>110.2</ele>
        <time>2023-07-14T07:17:50Z</time>
      </trkpt>
      <trkpt lat="47.41371" lon="0.7666">
        <ele>110.2</ele>
        <time>2023-07-14T07:17:51Z</time>
      </trkpt>
      <trkpt lat="47.4137" lon="0.76668">
        <ele>110.2</ele>
        <time>2023-07-14T07:17:52Z</time>
      </trkpt>
      <trkpt lat="47.4137" lon="0.76675">
        <ele>110.2</ele>
        <time>2023-07-14T07:17:53Z</time>
      </trkpt>
      <trkpt lat="47.4137" lon="0.76683">
        <ele>110.4</ele>
        <time>2023-07-14T07:17:54Z</time>
      </trkpt>
      <trkpt lat="47.4137" lon="0.7669">
        <ele>110.4</ele>
        <time>2023-07-14T07:17:55Z</time>
      </trkpt>
      <trkpt lat="47.41369" lon="0.76698">
        <ele>110.4</ele>
        <time>2023-07-14T07:17:56Z</time>
      </trkpt>
      <trkpt lat="47.41369" lon="0.76704">
        <ele>110.2</ele>
        <time>2023-07-14T07:17:57Z</time>
      </trkpt>
      <trkpt lat="47.41368" lon="0.76711">
        <ele>110.2</ele>
        <time>2023-07-14T07:17:58Z</time>
      </trkpt>
      <trkpt lat="47.41368" lon="0.76718">
        <ele>110.4</ele>
        <time>2023-07-14T07:17:59Z</time>
      </trkpt>
      <trkpt lat="47.41368" lon="0.76725">
        <ele>110.4</ele>
        <time>2023-07-14T07:18:00Z</time>
      </trkpt>
      <trkpt lat="47.41368" lon="0.76732">
        <ele>110.6</ele>
        <time>2023-07-14T07:18:01Z</time>
      </trkpt>
      <trkpt lat="47.41367" lon="0.76739">
        <ele>110.6</ele>
        <time>2023-07-14T07:18:02Z</time>
      </trkpt>
      <trkpt lat="47.41366" lon="0.76747">
        <ele>110.8</ele>
        <time>2023-07-14T07:18:03Z</time>
      </trkpt>
      <trkpt lat="47.41365" lon="0.76755">
        <ele>110.8</ele>
        <time>2023-07-14T07:18:04Z</time>
      </trkpt>
      <trkpt lat="47.41365" lon="0.76765">
        <ele>110.8</ele>
        <time>2023-07-14T07:18:05Z</time>
      </trkpt>
      <trkpt lat="47.41364" lon="0.76773">
        <ele>110.6</ele>
        <time>2023-07-14T07:18:06Z</time>
      </trkpt>
      <trkpt lat="47.41364" lon="0.76782">
        <ele>110.8</ele>
        <time>2023-07-14T07:18:07Z</time>
      </trkpt>
      <trkpt lat="47.41363" lon="0.76791">
        <ele>110.6</ele>
        <time>2023-07-14T07:18:08Z</time>
      </trkpt>
      <trkpt lat="47.41362" lon="0.76801">
        <ele>110.6</ele>
        <time>2023-07-14T07:18:09Z</time>
      </trkpt>
      <trkpt lat="47.41361" lon="0.7681">
        <ele>110.6</ele>
        <time>2023-07-14T07:18:10Z</time>
      </trkpt>
      <trkpt lat="47.41361" lon="0.76819">
        <ele>110.6</ele>
        <time>2023-07-14T07:18:11Z</time>
      </trkpt>
      <trkpt lat="47.4136" lon="0.76829">
        <ele>110.4</ele>
        <time>2023-07-14T07:18:12Z</time>
      </trkpt>
      <trkpt lat="47.4136" lon="0.76839">
        <ele>110.4</ele>
        <time>2023-07-14T07:18:13Z</time>
      </trkpt>
      <trkpt lat="47.4136" lon="0.76849">
        <ele>110.2</ele>
        <time>2023-07-14T07:18:14Z</time>
      </trkpt>
      <trkpt lat="47.41359" lon="0.76858">
        <ele>110.2</ele>
        <time>2023-07-14T07:18:15Z</time>
      </trkpt>
      <trkpt lat="47.41359" lon="0.76868">
        <ele>110.2</ele>
        <time>2023-07-14T07:18:16Z</time>
      </trkpt>
      <trkpt lat="47.41358" lon="0.76878">
        <ele>110.2</ele>
        <time>2023-07-14T07:18:17Z</time>
      </trkpt>
      <trkpt lat="47.41357" lon="0.76888">
        <ele>110</ele>
        <time>2023-07-14T07:18:18Z</time>
      </trkpt>
      <trkpt lat="47.41357" lon="0.76898">
        <ele>110</ele>
        <time>2023-07-14T07:18:19Z</time>
      </trkpt>
      <trkpt lat="47.41356" lon="0.76908">
        <ele>109.8</ele>
        <time>2023-07-14T07:18:20Z</time>
      </trkpt>
      <trkpt lat="47.41356" lon="0.76918">
        <ele>109.8</ele>
        <time>2023-07-14T07:18:21Z</time>
      </trkpt>
      <trkpt lat="47.41355" lon="0.76928">
        <ele>110</ele>
        <time>2023-07-14T07:18:22Z</time>
      </trkpt>
      <trkpt lat="47.41354" lon="0.76937">
        <ele>109.8</ele>
        <time>2023-07-14T07:18:23Z</time>
      </trkpt>
      <trkpt lat="47.41354" lon="0.76948">
        <ele>109.8</ele>
        <time>2023-07-14T07:18:24Z</time>
      </trkpt>
      <trkpt lat="47.41352" lon="0.76959">
        <ele>109.8</ele>
        <time>2023-07-14T07:18:25Z</time>
      </trkpt>
      <trkpt lat="47.41352" lon="0.7697">
        <ele>109.6</ele>
        <time>2023-07-14T07:18:26Z</time>
      </trkpt>
      <trkpt lat="47.41351" lon="0.76979">
        <ele>109.4</ele>
        <time>2023-07-14T07:18:27Z</time>
      </trkpt>
      <trkpt lat="47.4135" lon="0.76988">
        <ele>109.2</ele>
        <time>2023-07-14T07:18:28Z</time>
      </trkpt>
      <trkpt lat="47.41349" lon="0.76999">
        <ele>109.2</ele>
        <time>2023-07-14T07:18:29Z</time>
      </trkpt>
      <trkpt lat="47.41348" lon="0.77011">
        <ele>109.2</ele>
        <time>2023-07-14T07:18:30Z</time>
      </trkpt>
      <trkpt lat="47.41347" lon="0.77021">
        <ele>109.2</ele>
        <time>2023-07-14T07:18:31Z</time>
      </trkpt>
      <trkpt lat="47.41346" lon="0.77031">
        <ele>109</ele>
        <time>2023-07-14T07:18:32Z</time>
      </trkpt>
      <trkpt lat="47.41346" lon="0.7704">
        <ele>109</ele>
        <time>2023-07-14T07:18:33Z</time>
      </trkpt>
      <trkpt lat="47.41344" lon="0.7705">
        <ele>109</ele>
        <time>2023-07-14T07:18:34Z</time>
      </trkpt>
      <trkpt lat="47.41344" lon="0.7706">
        <ele>108.8</ele>
        <time>2023-07-14T07:18:35Z</time>
      </trkpt>
      <trkpt lat="47.41343" lon="0.7707">
        <ele>108.8</ele>
        <time>2023-07-14T07:18:36Z</time>
      </trkpt>
      <trkpt lat="47.41342" lon="0.77081">
        <ele>108.6</ele>
        <time>2023-07-14T07:18:37Z</time>
      </trkpt>
      <trkpt lat="47.41341" lon="0.77092">
        <ele>108.4</ele>
        <time>2023-07-14T07:18:38Z</time>
      </trkpt>
      <trkpt lat="47.4134" lon="0.77103">
        <ele>108.2</ele>
        <time>2023-07-14T07:18:39Z</time>
      </trkpt>
      <trkpt lat="47.4134" lon="0.77112">
        <ele>108</ele>
        <time>2023-07-14T07:18:40Z</time>
      </trkpt>
      <trkpt lat="47.41339" lon="0.77122">
        <ele>108</ele>
        <time>2023-07-14T07:18:41Z</time>
      </trkpt>
      <trkpt lat="47.41338" lon="0.77132">
        <ele>108</ele>
        <time>2023-07-14T07:18:42Z</time>
      </trkpt>
      <trkpt lat="47.41337" lon="0.77143">
        <ele>108</ele>
        <time>2023-07-14T07:18:43Z</time>
      </trkpt>
      <trkpt lat="47.41336" lon="0.77154">
        <ele>107.8</ele>
        <time>2023-07-14T07:18:44Z</time>
      </trkpt>
      <trkpt lat="47.41336" lon="0.77164">
        <ele>107.6</ele>
        <time>2023-07-14T07:18:45Z</time>
      </trkpt>
      <trkpt lat="47.41335" lon="0.77175">
        <ele>107.4</ele>
        <time>2023-07-14T07:18:46Z</time>
      </trkpt>
      <trkpt lat="47.41335" lon="0.77186">
        <ele>107.2</ele>
        <time>2023-07-14T07:18:47Z</time>
      </trkpt>
      <trkpt lat="47.41334" lon="0.77196">
        <ele>107</ele>
        <time>2023-07-14T07:18:48Z</time>
      </trkpt>
      <trkpt lat="47.41334" lon="0.77206">
        <ele>106.8</ele>
        <time>2023-07-14T07:18:49Z</time>
      </trkpt>
      <trkpt lat="47.41333" lon="0.77217">
        <ele>106.8</ele>
        <time>2023-07-14T07:18:50Z</time>
      </trkpt>
      <trkpt lat="47.41333" lon="0.77227">
        <ele>106.6</ele>
        <time>2023-07-14T07:18:51Z</time>
      </trkpt>
      <trkpt lat="47.41333" lon="0.77237">
        <ele>106.6</ele>
        <time>2023-07-14T07:18:52Z</time>
      </trkpt>
      <trkpt lat="47.41333" lon="0.77248">
        <ele>106.4</ele>
        <time>2023-07-14T07:18:53Z</time>
      </trkpt>
      <trkpt lat="47.41334" lon="0.77258">
        <ele>106.2</ele>
        <time>2023-07-14T07:18:54Z</time>
      </trkpt>
      <trkpt lat="47.41335" lon="0.77267">
        <ele>106</ele>
        <time>2023-07-14T07:18:55Z</time>
      </trkpt>
      <trkpt lat="47.41336" lon="0.77278">
        <ele>106</ele>
        <time>2023-07-14T07:18:56Z</time>
      </trkpt>
      <trkpt lat="47.41337" lon="0.77288">
        <ele>106</ele>
        <time>2023-07-14T07:18:57Z</time>
      </trkpt>
      <trkpt lat="47.41338" lon="0.77298">
        <ele>105.8</ele>
        <time>2023-07-14T07:18:58Z</time>
      </trkpt>
      <trkpt lat="47.41339" lon="0.77308">
        <ele>105.8</ele>
        <time>2023-07-14T07:18:59Z</time>
      </trkpt>
      <trkpt lat="47.4134" lon="0.77319">
        <ele>105.8</ele>
        <time>2023-07-14T07:19:00Z</time>
      </trkpt>
      <trkpt lat="47.41341" lon="0.77329">
        <ele>105.6</ele>
        <time>2023-07-14T07:19:01Z</time>
      </trkpt>
      <trkpt lat="47.41341" lon="0.77339">
        <ele>105.6</ele>
        <time>2023-07-14T07:19:02Z</time>
      </trkpt>
      <trkpt lat="47.41343" lon="0.7735">
        <ele>105.6</ele>
        <time>2023-07-14T07:19:03Z</time>
      </trkpt>
      <trkpt lat="47.41343" lon="0.7736">
        <ele>105.6</ele>
        <time>2023-07-14T07:19:04Z</time>
      </trkpt>
      <trkpt lat="47.41344" lon="0.7737">
        <ele>105.4</ele>
        <time>2023-07-14T07:19:05Z</time>
      </trkpt>
      <trkpt lat="47.41345" lon="0.77381">
        <ele>105.4</ele>
        <time>2023-07-14T07:19:06Z</time>
      </trkpt>
      <trkpt lat="47.41346" lon="0.77392">
        <ele>105.2</ele>
        <time>2023-07-14T07:19:07Z</time>
      </trkpt>
      <trkpt lat="47.41346" lon="0.77403">
        <ele>105</ele>
        <time>2023-07-14T07:19:08Z</time>
      </trkpt>
      <trkpt lat="47.41347" lon="0.77413">
        <ele>104.6</ele>
        <time>2023-07-14T07:19:09Z</time>
      </trkpt>
      <trkpt lat="47.41347" lon="0.77425">
        <ele>104.6</ele>
        <time>2023-07-14T07:19:10Z</time>
      </trkpt>
      <trkpt lat="47.41348" lon="0.77437">
        <ele>104.4</ele>
        <time>2023-07-14T07:19:11Z</time>
      </trkpt>
      <trkpt lat="47.41348" lon="0.77446">
        <ele>104</ele>
        <time>2023-07-14T07:19:12Z</time>
      </trkpt>
      <trkpt lat="47.41349" lon="0.77457">
        <ele>103.8</ele>
        <time>2023-07-14T07:19:13Z</time>
      </trkpt>
      <trkpt lat="47.41349" lon="0.77468">
        <ele>103.6</ele>
        <time>2023-07-14T07:19:14Z</time>
      </trkpt>
      <trkpt lat="47.4135" lon="0.77479">
        <ele>103.4</ele>
        <time>2023-07-14T07:19:15Z</time>
      </trkpt>
      <trkpt lat="47.4135" lon="0.7749">
        <ele>103.2</ele>
        <time>2023-07-14T07:19:16Z</time>
      </trkpt>
      <trkpt lat="47.41351" lon="0.77501">
        <ele>103.2</ele>
        <time>2023-07-14T07:19:17Z</time>
      </trkpt>
      <trkpt lat="47.41351" lon="0.77512">
        <ele>103</ele>
        <time>2023-07-14T07:19:18Z</time>
      </trkpt>
      <trkpt lat="47.41352" lon="0.77523">
        <ele>102.6</ele>
        <time>2023-07-14T07:19:19Z</time>
      </trkpt>
      <trkpt lat="47.41352" lon="0.77536">
        <ele>102.4</ele>
        <time>2023-07-14T07:19:20Z</time>
      </trkpt>
      <trkpt lat="47.41353" lon="0.77545">
        <ele>102.4</ele>
        <time>2023-07-14T07:19:21Z</time>
      </trkpt>
      <trkpt lat="47.41353" lon="0.77555">
        <ele>102</ele>
        <time>2023-07-14T07:19:22Z</time>
      </trkpt>
      <trkpt lat="47.41353" lon="0.77565">
        <ele>101.8</ele>
        <time>2023-07-14T07:19:23Z</time>
      </trkpt>
      <trkpt lat="47.41352" lon="0.77573">
        <ele>101.4</ele>
        <time>2023-07-14T07:19:24Z</time>
      </trkpt>
      <trkpt lat="47.41351" lon="0.77582">
        <ele>101.2</ele>
        <time>2023-07-14T07:19:25Z</time>
      </trkpt>
      <trkpt lat="47.4136" lon="0.77592">
        <ele>98.8</ele>
        <time>2023-07-14T07:20:30Z</time>
      </trkpt>
      <trkpt lat="47.41365" lon="0.77591">
        <ele>99</ele>
        <time>2023-07-14T07:20:31Z</time>
      </trkpt>
      <trkpt lat="47.4137" lon="0.77592">
        <ele>99.2</ele>
        <time>2023-07-14T07:20:32Z</time>
      </trkpt>
      <trkpt lat="47.41376" lon="0.77592">
        <ele>99.4</ele>
        <time>2023-07-14T07:20:33Z</time>
      </trkpt>
      <trkpt lat="47.41381" lon="0.77594">
        <ele>99.6</ele>
        <time>2023-07-14T07:20:34Z</time>
      </trkpt>
      <trkpt lat="47.41386" lon="0.77595">
        <ele>99.6</ele>
        <time>2023-07-14T07:20:35Z</time>
      </trkpt>
      <trkpt lat="47.41391" lon="0.77596">
        <ele>99.8</ele>
        <time>2023-07-14T07:20:36Z</time>
      </trkpt>
      <trkpt lat="47.41397" lon="0.77598">
        <ele>99.8</ele>
        <time>2023-07-14T07:20:37Z</time>
      </trkpt>
      <trkpt lat="47.41402" lon="0.77599">
        <ele>100</ele>
        <time>2023-07-14T07:20:38Z</time>
      </trkpt>
      <trkpt lat="47.41408" lon="0.77601">
        <ele>100.2</ele>
        <time>2023-07-14T07:20:39Z</time>
      </trkpt>
      <trkpt lat="47.41414" lon="0.77603">
        <ele>100.2</ele>
        <time>2023-07-14T07:20:40Z</time>
      </trkpt>
      <trkpt lat="47.41419" lon="0.77605">
        <ele>100.4</ele>
        <time>2023-07-14T07:20:41Z</time>
      </trkpt>
      <trkpt lat="47.41424" lon="0.77607">
        <ele>100.6</ele>
        <time>2023-07-14T07:20:42Z</time>
      </trkpt>
      <trkpt lat="47.4143" lon="0.77609">
        <ele>100.6</ele>
        <time>2023-07-14T07:20:43Z</time>
      </trkpt>
      <trkpt lat="47.41435" lon="0.77611">
        <ele>100.8</ele>
        <time>2023-07-14T07:20:44Z</time>
      </trkpt>
      <trkpt lat="47.41439" lon="0.77612">
        <ele>100.8</ele>
        <time>2023-07-14T07:20:45Z</time>
      </trkpt>
      <trkpt lat="47.41445" lon="0.77613">
        <ele>101</ele>
        <time>2023-07-14T07:20:46Z</time>
      </trkpt>
      <trkpt lat="47.4145" lon="0.77615">
        <ele>101.2</ele>
        <time>2023-07-14T07:20:47Z</time>
      </trkpt>
      <trkpt lat="47.41455" lon="0.77616">
        <ele>101.2</ele>
        <time>2023-07-14T07:20:48Z</time>
      </trkpt>
      <trkpt lat="47.4146" lon="0.77618">
        <ele>101.4</ele>
        <time>2023-07-14T07:20:49Z</time>
      </trkpt>
      <trkpt lat="47.41466" lon="0.77619">
        <ele>101.8</ele>
        <time>2023-07-14T07:20:50Z</time>
      </trkpt>
      <trkpt lat="47.41471" lon="0.77619">
        <ele>102</ele>
        <time>2023-07-14T07:20:51Z</time>
      </trkpt>
      <trkpt lat="47.41476" lon="0.7762">
        <ele>102.2</ele>
        <time>2023-07-14T07:20:52Z</time>
      </trkpt>
      <trkpt lat="47.41482" lon="0.77621">
        <ele>102.4</ele>
        <time>2023-07-14T07:20:53Z</time>
      </trkpt>
      <trkpt lat="47.41488" lon="0.77622">
        <ele>102.6</ele>
        <time>2023-07-14T07:20:54Z</time>
      </trkpt>
      <trkpt lat="47.41492" lon="0.77622">
        <ele>102.6</ele>
        <time>2023-07-14T07:20:55Z</time>
      </trkpt>
      <trkpt lat="47.41497" lon="0.77623">
        <ele>102.8</ele>
        <time>2023-07-14T07:20:56Z</time>
      </trkpt>
      <trkpt lat="47.41503" lon="0.77623">
        <ele>103.2</ele>
        <time>2023-07-14T07:20:57Z</time>
      </trkpt>
      <trkpt lat="47.41508" lon="0.77624">
        <ele>103.4</ele>
        <time>2023-07-14T07:20:58Z</time>
      </trkpt>
      <trkpt lat="47.41512" lon="0.77624">
        <ele>103.6</ele>
        <time>2023-07-14T07:20:59Z</time>
      </trkpt>
      <trkpt lat="47.41518" lon="0.77625">
        <ele>103.8</ele>
        <time>2023-07-14T07:21:00Z</time>
      </trkpt>
      <trkpt lat="47.41523" lon="0.77625">
        <ele>103.8</ele>
        <time>2023-07-14T07:21:01Z</time>
      </trkpt>
      <trkpt lat="47.41529" lon="0.77625">
        <ele>104</ele>
        <time>2023-07-14T07:21:02Z</time>
      </trkpt>
      <trkpt lat="47.41534" lon="0.77625">
        <ele>104.2</ele>
        <time>2023-07-14T07:21:03Z</time>
      </trkpt>
      <trkpt lat="47.41538" lon="0.77625">
        <ele>104.4</ele>
        <time>2023-07-14T07:21:04Z</time>
      </trkpt>
      <trkpt lat="47.41544" lon="0.77625">
        <ele>104.6</ele>
        <time>2023-07-14T07:21:05Z</time>
      </trkpt>
      <trkpt lat="47.4155" lon="0.77625">
        <ele>104.8</ele>
        <time>2023-07-14T07:21:06Z</time>
      </trkpt>
      <trkpt lat="47.41555" lon="0.77625">
        <ele>105</ele>
        <time>2023-07-14T07:21:07Z</time>
      </trkpt>
      <trkpt lat="47.4156" lon="0.77625">
        <ele>105.2</ele>
        <time>2023-07-14T07:21:08Z</time>
      </trkpt>
      <trkpt lat="47.41565" lon="0.77624">
        <ele>105.4</ele>
        <time>2023-07-14T07:21:09Z</time>
      </trkpt>
      <trkpt lat="47.4157" lon="0.77623">
        <ele>105.6</ele>
        <time>2023-07-14T07:21:10Z</time>
      </trkpt>
      <trkpt lat="47.41576" lon="0.77623">
        <ele>105.8</ele>
        <time>2023-07-14T07:21:11Z</time>
      </trkpt>
      <trkpt lat="47.41582" lon="0.77623">
        <ele>106</ele>
        <time>2023-07-14T07:21:12Z</time>
      </trkpt>
      <trkpt lat="47.41587" lon="0.77623">
        <ele>106.2</ele>
        <time>2023-07-14T07:21:13Z</time>
      </trkpt>
      <trkpt lat="47.41592" lon="0.77623">
        <ele>106.4</ele>
        <time>2023-07-14T07:21:14Z</time>
      </trkpt>
      <trkpt lat="47.41598" lon="0.77622">
        <ele>106.4</ele>
        <time>2023-07-14T07:21:15Z</time>
      </trkpt>
      <trkpt lat="47.41603" lon="0.77622">
        <ele>106.6</ele>
        <time>2023-07-14T07:21:16Z</time>
      </trkpt>
      <trkpt lat="47.41609" lon="0.77622">
        <ele>106.8</ele>
        <time>2023-07-14T07:21:17Z</time>
      </trkpt>
      <trkpt lat="47.41615" lon="0.77622">
        <ele>107</ele>
        <time>2023-07-14T07:21:18Z</time>
      </trkpt>
      <trkpt lat="47.41619" lon="0.77622">
        <ele>107.2</ele>
        <time>2023-07-14T07:21:19Z</time>
      </trkpt>
      <trkpt lat="47.41625" lon="0.77621">
        <ele>107.4</ele>
        <time>2023-07-14T07:21:20Z</time>
      </trkpt>
      <trkpt lat="47.41631" lon="0.77621">
        <ele>107.6</ele>
        <time>2023-07-14T07:21:21Z</time>
      </trkpt>
      <trkpt lat="47.41637" lon="0.77621">
        <ele>107.8</ele>
        <time>2023-07-14T07:21:22Z</time>
      </trkpt>
      <trkpt lat="47.41642" lon="0.77621">
        <ele>108</ele>
        <time>2023-07-14T07:21:23Z</time>
      </trkpt>
      <trkpt lat="47.41648" lon="0.77621">
        <ele>108.2</ele>
        <time>2023-07-14T07:21:24Z</time>
      </trkpt>
      <trkpt lat="47.41653" lon="0.77622">
        <ele>108.2</ele>
        <time>2023-07-14T07:21:25Z</time>
      </trkpt>
      <trkpt lat="47.41657" lon="0.77622">
        <ele>108.4</ele>
        <time>2023-07-14T07:21:26Z</time>
      </trkpt>
      <trkpt lat="47.41662" lon="0.77622">
        <ele>108.6</ele>
        <time>2023-07-14T07:21:27Z</time>
      </trkpt>
      <trkpt lat="47.41668" lon="0.77622">
        <ele>108.8</ele>
        <time>2023-07-14T07:21:28Z</time>
      </trkpt>
      <trkpt lat="47.41674" lon="0.77623">
        <ele>109</ele>
        <time>2023-07-14T07:21:29Z</time>
      </trkpt>
      <trkpt lat="47.41678" lon="0.77623">
        <ele>109.2</ele>
        <time>2023-07-14T07:21:30Z</time>
      </trkpt>
      <trkpt lat="47.41683" lon="0.77623">
        <ele>109.4</ele>
        <time>2023-07-14T07:21:31Z</time>
      </trkpt>
      <trkpt lat="47.41688" lon="0.77623">
        <ele>109.6</ele>
        <time>2023-07-14T07:21:32Z</time>
      </trkpt>
      <trkpt lat="47.41693" lon="0.77623">
        <ele>109.8</ele>
        <time>2023-07-14T07:21:33Z</time>
      </trkpt>
      <trkpt lat="47.41699" lon="0.77623">
        <ele>110</ele>
        <time>2023-07-14T07:21:34Z</time>
      </trkpt>
      <trkpt lat="47.41705" lon="0.77624">
        <ele>110</ele>
        <time>2023-07-14T07:21:35Z</time>
      </trkpt>
      <trkpt lat="47.41709" lon="0.77624">
        <ele>110.2</ele>
        <time>2023-07-14T07:21:36Z</time>
      </trkpt>
      <trkpt lat="47.41714" lon="0.77625">
        <ele>110.4</ele>
        <time>2023-07-14T07:21:37Z</time>
      </trkpt>
      <trkpt lat="47.41719" lon="0.77625">
        <ele>110.6</ele>
        <time>2023-07-14T07:21:38Z</time>
      </trkpt>
      <trkpt lat="47.41724" lon="0.77625">
        <ele>110.6</ele>
        <time>2023-07-14T07:21:39Z</time>
      </trkpt>
      <trkpt lat="47.4173" lon="0.77626">
        <ele>110.8</ele>
        <time>2023-07-14T07:21:40Z</time>
      </trkpt>
      <trkpt lat="47.41735" lon="0.77626">
        <ele>111</ele>
        <time>2023-07-14T07:21:41Z</time>
      </trkpt>
      <trkpt lat="47.4174" lon="0.77626">
        <ele>111.2</ele>
        <time>2023-07-14T07:21:42Z</time>
      </trkpt>
      <trkpt lat="47.41745" lon="0.77626">
        <ele>111.4</ele>
        <time>2023-07-14T07:21:43Z</time>
      </trkpt>
      <trkpt lat="47.41751" lon="0.77626">
        <ele>111.6</ele>
        <time>2023-07-14T07:21:44Z</time>
      </trkpt>
      <trkpt lat="47.41756" lon="0.77627">
        <ele>111.8</ele>
        <time>2023-07-14T07:21:45Z</time>
      </trkpt>
      <trkpt lat="47.41762" lon="0.77627">
        <ele>112</ele>
        <time>2023-07-14T07:21:46Z</time>
      </trkpt>
      <trkpt lat="47.41767" lon="0.77627">
        <ele>112.2</ele>
        <time>2023-07-14T07:21:47Z</time>
      </trkpt>
      <trkpt lat="47.41773" lon="0.77628">
        <ele>112.4</ele>
        <time>2023-07-14T07:21:48Z</time>
      </trkpt>
      <trkpt lat="47.41779" lon="0.77629">
        <ele>112.4</ele>
        <time>2023-07-14T07:21:49Z</time>
      </trkpt>
      <trkpt lat="47.41784" lon="0.77629">
        <ele>112.6</ele>
        <time>2023-07-14T07:21:50Z</time>
      </trkpt>
      <trkpt lat="47.41789" lon="0.7763">
        <ele>112.8</ele>
        <time>2023-07-14T07:21:51Z</time>
      </trkpt>
      <trkpt lat="47.41794" lon="0.7763">
        <ele>113</ele>
        <time>2023-07-14T07:21:52Z</time>
      </trkpt>
      <trkpt lat="47.418" lon="0.77631">
        <ele>113</ele>
        <time>2023-07-14T07:21:53Z</time>
      </trkpt>
      <trkpt lat="47.41806" lon="0.77631">
        <ele>113.2</ele>
        <time>2023-07-14T07:21:54Z</time>
      </trkpt>
      <trkpt lat="47.41812" lon="0.77632">
        <ele>113.4</ele>
        <time>2023-07-14T07:21:55Z</time>
      </trkpt>
      <trkpt lat="47.41817" lon="0.77633">
        <ele>113.6</ele>
        <time>2023-07-14T07:21:56Z</time>
      </trkpt>
      <trkpt lat="47.41822" lon="0.77634">
        <ele>113.6</ele>
        <time>2023-07-14T07:21:57Z</time>
      </trkpt>
      <trkpt lat="47.41827" lon="0.77634">
        <ele>113.6</ele>
        <time>2023-07-14T07:21:58Z</time>
      </trkpt>
      <trkpt lat="47.41833" lon="0.77635">
        <ele>113.8</ele>
        <time>2023-07-14T07:21:59Z</time>
      </trkpt>
      <trkpt lat="47.4184" lon="0.77636">
        <ele>114</ele>
        <time>2023-07-14T07:22:00Z</time>
      </trkpt>
      <trkpt lat="47.41845" lon="0.77637">
        <ele>114</ele>
        <time>2023-07-14T07:22:01Z</time>
      </trkpt>
      <trkpt lat="47.4185" lon="0.77637">
        <ele>114</ele>
        <time>2023-07-14T07:22:02Z</time>
      </trkpt>
      <trkpt lat="47.41856" lon="0.77638">
        <ele>114.2</ele>
        <time>2023-07-14T07:22:03Z</time>
      </trkpt>
      <trkpt lat="47.41861" lon="0.77639">
        <ele>114.2</ele>
        <time>2023-07-14T07:22:04Z</time>
      </trkpt>
      <trkpt lat="47.41866" lon="0.7764">
        <ele>114.4</ele>
        <time>2023-07-14T07:22:05Z</time>
      </trkpt>
      <trkpt lat="47.41872" lon="0.77641">
        <ele>114.4</ele>
        <time>2023-07-14T07:22:06Z</time>
      </trkpt>
      <trkpt lat="47.41878" lon="0.77642">
        <ele>114.6</ele>
        <time>2023-07-14T07:22:07Z</time>
      </trkpt>
      <trkpt lat="47.41883" lon="0.77643">
        <ele>114.8</ele>
        <time>2023-07-14T07:22:08Z</time>
      </trkpt>
      <trkpt lat="47.41888" lon="0.77644">
        <ele>114.8</ele>
        <time>2023-07-14T07:22:09Z</time>
      </trkpt>
      <trkpt lat="47.41893" lon="0.77644">
        <ele>114.8</ele>
        <time>2023-07-14T07:22:10Z</time>
      </trkpt>
      <trkpt lat="47.41899" lon="0.77645">
        <ele>114.8</ele>
        <time>2023-07-14T07:22:11Z</time>
      </trkpt>
      <trkpt lat="47.41906" lon="0.77646">
        <ele>115</ele>
        <time>2023-07-14T07:22:12Z</time>
      </trkpt>
      <trkpt lat="47.41911" lon="0.77646">
        <ele>115</ele>
        <time>2023-07-14T07:22:13Z</time>
      </trkpt>
      <trkpt lat="47.41915" lon="0.77646">
        <ele>115.2</ele>
        <time>2023-07-14T07:22:14Z</time>
      </trkpt>
      <trkpt lat="47.4192" lon="0.77646">
        <ele>115.2</ele>
        <time>2023-07-14T07:22:15Z</time>
      </trkpt>
      <trkpt lat="47.41926" lon="0.77646">
        <ele>115.4</ele>
        <time>2023-07-14T07:22:16Z</time>
      </trkpt>
      <trkpt lat="47.41932" lon="0.77646">
        <ele>115.4</ele>
        <time>2023-07-14T07:22:17Z</time>
      </trkpt>
      <trkpt lat="47.41937" lon="0.77645">
        <ele>115.4</ele>
        <time>2023-07-14T07:22:18Z</time>
      </trkpt>
      <trkpt lat="47.41943" lon="0.77645">
        <ele>115.6</ele>
        <time>2023-07-14T07:22:19Z</time>
      </trkpt>
      <trkpt lat="47.41949" lon="0.77644">
        <ele>115.6</ele>
        <time>2023-07-14T07:22:20Z</time>
      </trkpt>
      <trkpt lat="47.41955" lon="0.77643">
        <ele>115.6</ele>
        <time>2023-07-14T07:22:21Z</time>
      </trkpt>
      <trkpt lat="47.41962" lon="0.77642">
        <ele>115.6</ele>
        <time>2023-07-14T07:22:22Z</time>
      </trkpt>
      <trkpt lat="47.41967" lon="0.77641">
        <ele>115.6</ele>
        <time>2023-07-14T07:22:23Z</time>
      </trkpt>
      <trkpt lat="47.41973" lon="0.7764">
        <ele>115.8</ele>
        <time>2023-07-14T07:22:24Z</time>
      </trkpt>
      <trkpt lat="47.41979" lon="0.7764">
        <ele>115.8</ele>
        <time>2023-07-14T07:22:25Z</time>
      </trkpt>
      <trkpt lat="47.41984" lon="0.77639">
        <ele>115.8</ele>
        <time>2023-07-14T07:22:26Z</time>
      </trkpt>
      <trkpt lat="47.41991" lon="0.77638">
        <ele>115.8</ele>
        <time>2023-07-14T07:22:27Z</time>
      </trkpt>
      <trkpt lat="47.41996" lon="0.77637">
        <ele>116</ele>
        <time>2023-07-14T07:22:28Z</time>
      </trkpt>
      <trkpt lat="47.42002" lon="0.77637">
        <ele>116</ele>
        <time>2023-07-14T07:22:29Z</time>
      </trkpt>
      <trkpt lat="47.42008" lon="0.77636">
        <ele>116</ele>
        <time>2023-07-14T07:22:30Z</time>
      </trkpt>
      <trkpt lat="47.42015" lon="0.77635">
        <ele>116</ele>
        <time>2023-07-14T07:22:31Z</time>
      </trkpt>
      <trkpt lat="47.4202" lon="0.77634">
        <ele>116.2</ele>
        <time>2023-07-14T07:22:32Z</time>
      </trkpt>
      <trkpt lat="47.42025" lon="0.77634">
        <ele>116.4</ele>
        <time>2023-07-14T07:22:33Z</time>
      </trkpt>
      <trkpt lat="47.42031" lon="0.77633">
        <ele>116.4</ele>
        <time>2023-07-14T07:22:34Z</time>
      </trkpt>
      <trkpt lat="47.42036" lon="0.77632">
        <ele>116.6</ele>
        <time>2023-07-14T07:22:35Z</time>
      </trkpt>
      <trkpt lat="47.42042" lon="0.77631">
        <ele>116.6</ele>
        <time>2023-07-14T07:22:36Z</time>
      </trkpt>
      <trkpt lat="47.42048" lon="0.7763">
        <ele>116.4</ele>
        <time>2023-07-14T07:22:37Z</time>
      </trkpt>
      <trkpt lat="47.42054" lon="0.77629">
        <ele>116.4</ele>
        <time>2023-07-14T07:22:38Z</time>
      </trkpt>
      <trkpt lat="47.42059" lon="0.77627">
        <ele>116.6</ele>
        <time>2023-07-14T07:22:39Z</time>
      </trkpt>
      <trkpt lat="47.42065" lon="0.77626">
        <ele>116.6</ele>
        <time>2023-07-14T07:22:40Z</time>
      </trkpt>
      <trkpt lat="47.42072" lon="0.77624">
        <ele>116.6</ele>
        <time>2023-07-14T07:22:41Z</time>
      </trkpt>
      <trkpt lat="47.42077" lon="0.77622">
        <ele>116.6</ele>
        <time>2023-07-14T07:22:42Z</time>
      </trkpt>
      <trkpt lat="47.42083" lon="0.7762">
        <ele>116.6</ele>
        <time>2023-07-14T07:22:43Z</time>
      </trkpt>
      <trkpt lat="47.42089" lon="0.77618">
        <ele>116.6</ele>
        <time>2023-07-14T07:22:44Z</time>
      </trkpt>
      <trkpt lat="47.42096" lon="0.77616">
        <ele>116.8</ele>
        <time>2023-07-14T07:22:45Z</time>
      </trkpt>
      <trkpt lat="47.42101" lon="0.77614">
        <ele>116.8</ele>
        <time>2023-07-14T07:22:46Z</time>
      </trkpt>
      <trkpt lat="47.42107" lon="0.77613">
        <ele>117</ele>
        <time>2023-07-14T07:22:47Z</time>
      </trkpt>
      <trkpt lat="47.42113" lon="0.77611">
        <ele>116.8</ele>
        <time>2023-07-14T07:22:48Z</time>
      </trkpt>
      <trkpt lat="47.4212" lon="0.77609">
        <ele>117</ele>
        <time>2023-07-14T07:22:49Z</time>
      </trkpt>
      <trkpt lat="47.42126" lon="0.77607">
        <ele>117</ele>
        <time>2023-07-14T07:22:50Z</time>
      </trkpt>
      <trkpt lat="47.42132" lon="0.77605">
        <ele>117</ele>
        <time>2023-07-14T07:22:51Z</time>
      </trkpt>
      <trkpt lat="47.42137" lon="0.77603">
        <ele>117</ele>
        <time>2023-07-14T07:22:52Z</time>
      </trkpt>
      <trkpt lat="47.42142" lon="0.77601">
        <ele>117</ele>
        <time>2023-07-14T07:22:53Z</time>
      </trkpt>
      <trkpt lat="47.42149" lon="0.77599">
        <ele>117.2</ele>
        <time>2023-07-14T07:22:54Z</time>
      </trkpt>
      <trkpt lat="47.42155" lon="0.77598">
        <ele>117.2</ele>
        <time>2023-07-14T07:22:55Z</time>
      </trkpt>
      <trkpt lat="47.4216" lon="0.77596">
        <ele>117.2</ele>
        <time>2023-07-14T07:22:56Z</time>
      </trkpt>
      <trkpt lat="47.42166" lon="0.77595">
        <ele>117.2</ele>
        <time>2023-07-14T07:22:57Z</time>
      </trkpt>
      <trkpt lat="47.42172" lon="0.77593">
        <ele>117.4</ele>
        <time>2023-07-14T07:22:58Z</time>
      </trkpt>
      <trkpt lat="47.42178" lon="0.77591">
        <ele>117.4</ele>
        <time>2023-07-14T07:22:59Z</time>
      </trkpt>
      <trkpt lat="47.42185" lon="0.77589">
        <ele>117.4</ele>
        <time>2023-07-14T07:23:00Z</time>
      </trkpt>
      <trkpt lat="47.4219" lon="0.77588">
        <ele>117.6</ele>
        <time>2023-07-14T07:23:01Z</time>
      </trkpt>
      <trkpt lat="47.42196" lon="0.77586">
        <ele>117.6</ele>
        <time>2023-07-14T07:23:02Z</time>
      </trkpt>
      <trkpt lat="47.42202" lon="0.77584">
        <ele>117.8</ele>
        <time>2023-07-14T07:23:03Z</time>
      </trkpt>
      <trkpt lat="47.42207" lon="0.77583">
        <ele>117.8</ele>
        <time>2023-07-14T07:23:04Z</time>
      </trkpt>
      <trkpt lat="47.42213" lon="0.77581">
        <ele>117.8</ele>
        <time>2023-07-14T07:23:05Z</time>
      </trkpt>
      <trkpt lat="47.4222" lon="0.77579">
        <ele>117.8</ele>
        <time>2023-07-14T07:23:06Z</time>
      </trkpt>
      <trkpt lat="47.42225" lon="0.77577">
        <ele>118</ele>
        <time>2023-07-14T07:23:07Z</time>
      </trkpt>
      <trkpt lat="47.42232" lon="0.77575">
        <ele>118</ele>
        <time>2023-07-14T07:23:08Z</time>
      </trkpt>
      <trkpt lat="47.42237" lon="0.77573">
        <ele>118</ele>
        <time>2023-07-14T07:23:09Z</time>
      </trkpt>
      <trkpt lat="47.42243" lon="0.77571">
        <ele>118</ele>
        <time>2023-07-14T07:23:10Z</time>
      </trkpt>
      <trkpt lat="47.42249" lon="0.7757">
        <ele>118</ele>
        <time>2023-07-14T07:23:11Z</time>
      </trkpt>
      <trkpt lat="47.42255" lon="0.77568">
        <ele>118</ele>
        <time>2023-07-14T07:23:12Z</time>
      </trkpt>
      <trkpt lat="47.42263" lon="0.77566">
        <ele>118</ele>
        <time>2023-07-14T07:23:13Z</time>
      </trkpt>
      <trkpt lat="47.42268" lon="0.77564">
        <ele>118</ele>
        <time>2023-07-14T07:23:14Z</time>
      </trkpt>
      <trkpt lat="47.42274" lon="0.77563">
        <ele>118</ele>
        <time>2023-07-14T07:23:15Z</time>
      </trkpt>
      <trkpt lat="47.42279" lon="0.77561">
        <ele>118</ele>
        <time>2023-07-14T07:23:16Z</time>
      </trkpt>
      <trkpt lat="47.42286" lon="0.77559">
        <ele>117.8</ele>
        <time>2023-07-14T07:23:17Z</time>
      </trkpt>
      <trkpt lat="47.42292" lon="0.77558">
        <ele>117.8</ele>
        <time>2023-07-14T07:23:18Z</time>
      </trkpt>
      <trkpt lat="47.42298" lon="0.77556">
        <ele>117.8</ele>
        <time>2023-07-14T07:23:19Z</time>
      </trkpt>
      <trkpt lat="47.42303" lon="0.77555">
        <ele>117.8</ele>
        <time>2023-07-14T07:23:20Z</time>
      </trkpt>
      <trkpt lat="47.4231" lon="0.77553">
        <ele>117.6</ele>
        <time>2023-07-14T07:23:21Z</time>
      </trkpt>
      <trkpt lat="47.42316" lon="0.77551">
        <ele>117.6</ele>
        <time>2023-07-14T07:23:22Z</time>
      </trkpt>
      <trkpt lat="47.42321" lon="0.7755">
        <ele>117.6</ele>
        <time>2023-07-14T07:23:23Z</time>
      </trkpt>
      <trkpt lat="47.42326" lon="0.7755">
        <ele>117.6</ele>
        <time>2023-07-14T07:23:24Z</time>
      </trkpt>
      <trkpt lat="47.42332" lon="0.77553">
        <ele>117.6</ele>
        <time>2023-07-14T07:23:25Z</time>
      </trkpt>
      <trkpt lat="47.42336" lon="0.77558">
        <ele>117.6</ele>
        <time>2023-07-14T07:23:26Z</time>
      </trkpt>
      <trkpt lat="47.4234" lon="0.77565">
        <ele>117.6</ele>
        <time>2023-07-14T07:23:27Z</time>
      </trkpt>
      <trkpt lat="47.42343" lon="0.77573">
        <ele>117.6</ele>
        <time>2023-07-14T07:23:28Z</time>
      </trkpt>
      <trkpt lat="47.42346" lon="0.7758">
        <ele>117.6</ele>
        <time>2023-07-14T07:23:29Z</time>
      </trkpt>
      <trkpt lat="47.42348" lon="0.77586">
        <ele>117.6</ele>
        <time>2023-07-14T07:23:30Z</time>
      </trkpt>
      <trkpt lat="47.42352" lon="0.77594">
        <ele>117.6</ele>
        <time>2023-07-14T07:23:31Z</time>
      </trkpt>
      <trkpt lat="47.42355" lon="0.77602">
        <ele>117.8</ele>
        <time>2023-07-14T07:23:32Z</time>
      </trkpt>
      <trkpt lat="47.42358" lon="0.77609">
        <ele>117.8</ele>
        <time>2023-07-14T07:23:33Z</time>
      </trkpt>
      <trkpt lat="47.42362" lon="0.77617">
        <ele>117.8</ele>
        <time>2023-07-14T07:23:34Z</time>
      </trkpt>
      <trkpt lat="47.42366" lon="0.77624">
        <ele>117.8</ele>
        <time>2023-07-14T07:23:35Z</time>
      </trkpt>
      <trkpt lat="47.42369" lon="0.77631">
        <ele>117.8</ele>
        <time>2023-07-14T07:23:36Z</time>
      </trkpt>
      <trkpt lat="47.42373" lon="0.77638">
        <ele>117.8</ele>
        <time>2023-07-14T07:23:37Z</time>
      </trkpt>
      <trkpt lat="47.42377" lon="0.77646">
        <ele>117.6</ele>
        <time>2023-07-14T07:23:38Z</time>
      </trkpt>
      <trkpt lat="47.4238" lon="0.77654">
        <ele>117.6</ele>
        <time>2023-07-14T07:23:39Z</time>
      </trkpt>
      <trkpt lat="47.42384" lon="0.77662">
        <ele>117.6</ele>
        <time>2023-07-14T07:23:40Z</time>
      </trkpt>
      <trkpt lat="47.42388" lon="0.7767">
        <ele>117.4</ele>
        <time>2023-07-14T07:23:41Z</time>
      </trkpt>
      <trkpt lat="47.42392" lon="0.77678">
        <ele>117.4</ele>
        <time>2023-07-14T07:23:42Z</time>
      </trkpt>
      <trkpt lat="47.42397" lon="0.77686">
        <ele>117.4</ele>
        <time>2023-07-14T07:23:43Z</time>
      </trkpt>
      <trkpt lat="47.42401" lon="0.77695">
        <ele>117.4</ele>
        <time>2023-07-14T07:23:44Z</time>
      </trkpt>
      <trkpt lat="47.42406" lon="0.77705">
        <ele>117.2</ele>
        <time>2023-07-14T07:23:45Z</time>
      </trkpt>
      <trkpt lat="47.4241" lon="0.77712">
        <ele>117</ele>
        <time>2023-07-14T07:23:46Z</time>
      </trkpt>
      <trkpt lat="47.42414" lon="0.7772">
        <ele>116.8</ele>
        <time>2023-07-14T07:23:47Z</time>
      </trkpt>
      <trkpt lat="47.42419" lon="0.77728">
        <ele>116.6</ele>
        <time>2023-07-14T07:23:48Z</time>
      </trkpt>
      <trkpt lat="47.42425" lon="0.77737">
        <ele>116.4</ele>
        <time>2023-07-14T07:23:49Z</time>
      </trkpt>
      <trkpt lat="47.42431" lon="0.77745">
        <ele>116.2</ele>
        <time>2023-07-14T07:23:50Z</time>
      </trkpt>
      <trkpt lat="47.42436" lon="0.77752">
        <ele>116</ele>
        <time>2023-07-14T07:23:51Z</time>
      </trkpt>
      <trkpt lat="47.42441" lon="0.77759">
        <ele>115.8</ele>
        <time>2023-07-14T07:23:52Z</time>
      </trkpt>
      <trkpt lat="47.42447" lon="0.77766">
        <ele>115.8</ele>
        <time>2023-07-14T07:23:53Z</time>
      </trkpt>
      <trkpt lat="47.42454" lon="0.77774">
        <ele>115.6</ele>
        <time>2023-07-14T07:23:54Z</time>
      </trkpt>
      <trkpt lat="47.42459" lon="0.77781">
        <ele>115.4</ele>
        <time>2023-07-14T07:23:55Z</time>
      </trkpt>
      <trkpt lat="47.42465" lon="0.77787">
        <ele>115</ele>
        <time>2023-07-14T07:23:56Z</time>
      </trkpt>
      <trkpt lat="47.4247" lon="0.77793">
        <ele>115</ele>
        <time>2023-07-14T07:23:57Z</time>
      </trkpt>
      <trkpt lat="47.42476" lon="0.778">
        <ele>114.6</ele>
        <time>2023-07-14T07:23:58Z</time>
      </trkpt>
      <trkpt lat="47.42482" lon="0.77807">
        <ele>114.6</ele>
        <time>2023-07-14T07:23:59Z</time>
      </trkpt>
      <trkpt lat="47.42488" lon="0.77814">
        <ele>114.4</ele>
        <time>2023-07-14T07:24:00Z</time>
      </trkpt>
      <trkpt lat="47.42493" lon="0.7782">
        <ele>114.4</ele>
        <time>2023-07-14T07:24:01Z</time>
      </trkpt>
      <trkpt lat="47.425" lon="0.77827">
        <ele>114.2</ele>
        <time>2023-07-14T07:24:02Z</time>
      </trkpt>
      <trkpt lat="47.42506" lon="0.77835">
        <ele>114.2</ele>
        <time>2023-07-14T07:24:03Z</time>
      </trkpt>
      <trkpt lat="47.42512" lon="0.77841">
        <ele>114</ele>
        <time>2023-07-14T07:24:04Z</time>
      </trkpt>
      <trkpt lat="47.42517" lon="0.77847">
        <ele>114</ele>
        <time>2023-07-14T07:24:05Z</time>
      </trkpt>
      <trkpt lat="47.42523" lon="0.77854">
        <ele>114</ele>
        <time>2023-07-14T07:24:06Z</time>
      </trkpt>
      <trkpt lat="47.42529" lon="0.77861">
        <ele>114.2</ele>
        <time>2023-07-14T07:24:07Z</time>
      </trkpt>
      <trkpt lat="47.42535" lon="0.77868">
        <ele>114.2</ele>
        <time>2023-07-14T07:24:08Z</time>
      </trkpt>
      <trkpt lat="47.4254" lon="0.77874">
        <ele>114.2</ele>
        <time>2023-07-14T07:24:09Z</time>
      </trkpt>
      <trkpt lat="47.42545" lon="0.77879">
        <ele>114.4</ele>
        <time>2023-07-14T07:24:10Z</time>
      </trkpt>
      <trkpt lat="47.4255" lon="0.77884">
        <ele>114.4</ele>
        <time>2023-07-14T07:24:11Z</time>
      </trkpt>
      <trkpt lat="47.42556" lon="0.7789">
        <ele>114.6</ele>
        <time>2023-07-14T07:24:12Z</time>
      </trkpt>
      <trkpt lat="47.42561" lon="0.77896">
        <ele>114.8</ele>
        <time>2023-07-14T07:24:13Z</time>
      </trkpt>
      <trkpt lat="47.42565" lon="0.77901">
        <ele>114.8</ele>
        <time>2023-07-14T07:24:14Z</time>
      </trkpt>
      <trkpt lat="47.4257" lon="0.77906">
        <ele>115</ele>
        <time>2023-07-14T07:24:15Z</time>
      </trkpt>
      <trkpt lat="47.42575" lon="0.77912">
        <ele>115</ele>
        <time>2023-07-14T07:24:16Z</time>
      </trkpt>
      <trkpt lat="47.42581" lon="0.77919">
        <ele>115</ele>
        <time>2023-07-14T07:24:17Z</time>
      </trkpt>
      <trkpt lat="47.42587" lon="0.77926">
        <ele>115</ele>
        <time>2023-07-14T07:24:18Z</time>
      </trkpt>
      <trkpt lat="47.42591" lon="0.77933">
        <ele>114.8</ele>
        <time>2023-07-14T07:24:19Z</time>
      </trkpt>
      <trkpt lat="47.42596" lon="0.77939">
        <ele>114.8</ele>
        <time>2023-07-14T07:24:20Z</time>
      </trkpt>
      <trkpt lat="47.42601" lon="0.77947">
        <ele>114.6</ele>
        <time>2023-07-14T07:24:21Z</time>
      </trkpt>
      <trkpt lat="47.42606" lon="0.77955">
        <ele>114.6</ele>
        <time>2023-07-14T07:24:22Z</time>
      </trkpt>
      <trkpt lat="47.4261" lon="0.77964">
        <ele>114.4</ele>
        <time>2023-07-14T07:24:23Z</time>
      </trkpt>
      <trkpt lat="47.42614" lon="0.77974">
        <ele>114.2</ele>
        <time>2023-07-14T07:24:24Z</time>
      </trkpt>
      <trkpt lat="47.42618" lon="0.77983">
        <ele>113.8</ele>
        <time>2023-07-14T07:24:25Z</time>
      </trkpt>
      <trkpt lat="47.42623" lon="0.77995">
        <ele>113.4</ele>
        <time>2023-07-14T07:24:26Z</time>
      </trkpt>
      <trkpt lat="47.42628" lon="0.78006">
        <ele>113</ele>
        <time>2023-07-14T07:24:27Z</time>
      </trkpt>
      <trkpt lat="47.42633" lon="0.78016">
        <ele>112.6</ele>
        <time>2023-07-14T07:24:28Z</time>
      </trkpt>
      <trkpt lat="47.42637" lon="0.78026">
        <ele>112</ele>
        <time>2023-07-14T07:24:29Z</time>
      </trkpt>
      <trkpt lat="47.42642" lon="0.78038">
        <ele>111.6</ele>
        <time>2023-07-14T07:24:30Z</time>
      </trkpt>
      <trkpt lat="47.42647" lon="0.7805">
        <ele>111</ele>
        <time>2023-07-14T07:24:31Z</time>
      </trkpt>
      <trkpt lat="47.42651" lon="0.7806">
        <ele>110.2</ele>
        <time>2023-07-14T07:24:32Z</time>
      </trkpt>
      <trkpt lat="47.42654" lon="0.78072">
        <ele>109.4</ele>
        <time>2023-07-14T07:24:33Z</time>
      </trkpt>
      <trkpt lat="47.42657" lon="0.78084">
        <ele>108.8</ele>
        <time>2023-07-14T07:24:34Z</time>
      </trkpt>
      <trkpt lat="47.42659" lon="0.78095">
        <ele>108</ele>
        <time>2023-07-14T07:24:35Z</time>
      </trkpt>
      <trkpt lat="47.4266" lon="0.78107">
        <ele>107.2</ele>
        <time>2023-07-14T07:24:36Z</time>
      </trkpt>
      <trkpt lat="47.4266" lon="0.78115">
        <ele>106.6</ele>
        <time>2023-07-14T07:24:37Z</time>
      </trkpt>
      <trkpt lat="47.42661" lon="0.78123">
        <ele>106</ele>
        <time>2023-07-14T07:24:38Z</time>
      </trkpt>
      <trkpt lat="47.42662" lon="0.78132">
        <ele>105.4</ele>
        <time>2023-07-14T07:24:39Z</time>
      </trkpt>
      <trkpt lat="47.42664" lon="0.78141">
        <ele>105.2</ele>
        <time>2023-07-14T07:24:40Z</time>
      </trkpt>
      <trkpt lat="47.42666" lon="0.7815">
        <ele>105</ele>
        <time>2023-07-14T07:24:41Z</time>
      </trkpt>
      <trkpt lat="47.42668" lon="0.78158">
        <ele>104.8</ele>
        <time>2023-07-14T07:24:42Z</time>
      </trkpt>
      <trkpt lat="47.4267" lon="0.78167">
        <ele>104.8</ele>
        <time>2023-07-14T07:24:43Z</time>
      </trkpt>
      <trkpt lat="47.42673" lon="0.78174">
        <ele>104.8</ele>
        <time>2023-07-14T07:24:44Z</time>
      </trkpt>
      <trkpt lat="47.42676" lon="0.78184">
        <ele>104.8</ele>
        <time>2023-07-14T07:24:45Z</time>
      </trkpt>
      <trkpt lat="47.4268" lon="0.78194">
        <ele>105</ele>
        <time>2023-07-14T07:24:46Z</time>
      </trkpt>
      <trkpt lat="47.42683" lon="0.78202">
        <ele>105</ele>
        <time>2023-07-14T07:24:47Z</time>
      </trkpt>
      <trkpt lat="47.42687" lon="0.7821">
        <ele>105.2</ele>
        <time>2023-07-14T07:24:48Z</time>
      </trkpt>
      <trkpt lat="47.42691" lon="0.78218">
        <ele>105.4</ele>
        <time>2023-07-14T07:24:49Z</time>
      </trkpt>
      <trkpt lat="47.42694" lon="0.78226">
        <ele>105.4</ele>
        <time>2023-07-14T07:24:50Z</time>
      </trkpt>
      <trkpt lat="47.42698" lon="0.78234">
        <ele>105.6</ele>
        <time>2023-07-14T07:24:51Z</time>
      </trkpt>
      <trkpt lat="47.42702" lon="0.78241">
        <ele>105.8</ele>
        <time>2023-07-14T07:24:52Z</time>
      </trkpt>
      <trkpt lat="47.42706" lon="0.78249">
        <ele>106</ele>
        <time>2023-07-14T07:24:53Z</time>
      </trkpt>
      <trkpt lat="47.4271" lon="0.78256">
        <ele>106.2</ele>
        <time>2023-07-14T07:24:54Z</time>
      </trkpt>
      <trkpt lat="47.42715" lon="0.78263">
        <ele>106.4</ele>
        <time>2023-07-14T07:24:55Z</time>
      </trkpt>
      <trkpt lat="47.42719" lon="0.7827">
        <ele>106.6</ele>
        <time>2023-07-14T07:24:56Z</time>
      </trkpt>
      <trkpt lat="47.42723" lon="0.78276">
        <ele>106.8</ele>
        <time>2023-07-14T07:24:57Z</time>
      </trkpt>
      <trkpt lat="47.42727" lon="0.78284">
        <ele>107</ele>
        <time>2023-07-14T07:24:58Z</time>
      </trkpt>
      <trkpt lat="47.42729" lon="0.78291">
        <ele>107.4</ele>
        <time>2023-07-14T07:24:59Z</time>
      </trkpt>
      <trkpt lat="47.42732" lon="0.78299">
        <ele>107.6</ele>
        <time>2023-07-14T07:25:00Z</time>
      </trkpt>
      <trkpt lat="47.42735" lon="0.78307">
        <ele>107.8</ele>
        <time>2023-07-14T07:25:01Z</time>
      </trkpt>
      <trkpt lat="47.42738" lon="0.78314">
        <ele>108.2</ele>
        <time>2023-07-14T07:25:02Z</time>
      </trkpt>
      <trkpt lat="47.42741" lon="0.78321">
        <ele>108.6</ele>
        <time>2023-07-14T07:25:03Z</time>
      </trkpt>
      <trkpt lat="47.42743" lon="0.78329">
        <ele>108.8</ele>
        <time>2023-07-14T07:25:04Z</time>
      </trkpt>
      <trkpt lat="47.42746" lon="0.78336">
        <ele>109.2</ele>
        <time>2023-07-14T07:25:05Z</time>
      </trkpt>
      <trkpt lat="47.42749" lon="0.78344">
        <ele>109.2</ele>
        <time>2023-07-14T07:25:06Z</time>
      </trkpt>
      <trkpt lat="47.42751" lon="0.78353">
        <ele>109.4</ele>
        <time>2023-07-14T07:25:07Z</time>
      </trkpt>
      <trkpt lat="47.42752" lon="0.78361">
        <ele>109.6</ele>
        <time>2023-07-14T07:25:08Z</time>
      </trkpt>
      <trkpt lat="47.42755" lon="0.7837">
        <ele>109.8</ele>
        <time>2023-07-14T07:25:09Z</time>
      </trkpt>
      <trkpt lat="47.42757" lon="0.78378">
        <ele>110</ele>
        <time>2023-07-14T07:25:10Z</time>
      </trkpt>
      <trkpt lat="47.42759" lon="0.78386">
        <ele>110.2</ele>
        <time>2023-07-14T07:25:11Z</time>
      </trkpt>
      <trkpt lat="47.4276" lon="0.78396">
        <ele>110.4</ele>
        <time>2023-07-14T07:25:12Z</time>
      </trkpt>
      <trkpt lat="47.42762" lon="0.78404">
        <ele>110.4</ele>
        <time>2023-07-14T07:25:13Z</time>
      </trkpt>
      <trkpt lat="47.42764" lon="0.78413">
        <ele>110.6</ele>
        <time>2023-07-14T07:25:14Z</time>
      </trkpt>
      <trkpt lat="47.42766" lon="0.78422">
        <ele>110.6</ele>
        <time>2023-07-14T07:25:15Z</time>
      </trkpt>
      <trkpt lat="47.42768" lon="0.7843">
        <ele>110.8</ele>
        <time>2023-07-14T07:25:16Z</time>
      </trkpt>
      <trkpt lat="47.4277" lon="0.78439">
        <ele>110.8</ele>
        <time>2023-07-14T07:25:17Z</time>
      </trkpt>
      <trkpt lat="47.42772" lon="0.78448">
        <ele>111</ele>
        <time>2023-07-14T07:25:18Z</time>
      </trkpt>
      <trkpt lat="47.42774" lon="0.78457">
        <ele>111.2</ele>
        <time>2023-07-14T07:25:19Z</time>
      </trkpt>
      <trkpt lat="47.42777" lon="0.78465">
        <ele>111.4</ele>
        <time>2023-07-14T07:25:20Z</time>
      </trkpt>
      <trkpt lat="47.42779" lon="0.78474">
        <ele>111.6</ele>
        <time>2023-07-14T07:25:21Z</time>
      </trkpt>
      <trkpt lat="47.42781" lon="0.78482">
        <ele>111.6</ele>
        <time>2023-07-14T07:25:22Z</time>
      </trkpt>
      <trkpt lat="47.42784" lon="0.7849">
        <ele>111.8</ele>
        <time>2023-07-14T07:25:23Z</time>
      </trkpt>
      <trkpt lat="47.42787" lon="0.78499">
        <ele>112</ele>
        <time>2023-07-14T07:25:24Z</time>
      </trkpt>
      <trkpt lat="47.42789" lon="0.78506">
        <ele>112.2</ele>
        <time>2023-07-14T07:25:25Z</time>
      </trkpt>
      <trkpt lat="47.42792" lon="0.78514">
        <ele>112.2</ele>
        <time>2023-07-14T07:25:26Z</time>
      </trkpt>
      <trkpt lat="47.42795" lon="0.78523">
        <ele>112.4</ele>
        <time>2023-07-14T07:25:27Z</time>
      </trkpt>
      <trkpt lat="47.42797" lon="0.7853">
        <ele>112.8</ele>
        <time>2023-07-14T07:25:28Z</time>
      </trkpt>
      <trkpt lat="47.428" lon="0.78538">
        <ele>112.8</ele>
        <time>2023-07-14T07:25:29Z</time>
      </trkpt>
      <trkpt lat="47.42803" lon="0.78546">
        <ele>113.2</ele>
        <time>2023-07-14T07:25:30Z</time>
      </trkpt>
      <trkpt lat="47.42805" lon="0.78554">
        <ele>113.4</ele>
        <time>2023-07-14T07:25:31Z</time>
      </trkpt>
      <trkpt lat="47.42808" lon="0.78562">
        <ele>113.4</ele>
        <time>2023-07-14T07:25:32Z</time>
      </trkpt>
      <trkpt lat="47.42811" lon="0.78569">
        <ele>113.6</ele>
        <time>2023-07-14T07:25:33Z</time>
      </trkpt>
      <trkpt lat="47.42813" lon="0.78577">
        <ele>113.8</ele>
        <time>2023-07-14T07:25:34Z</time>
      </trkpt>
      <trkpt lat="47.42815" lon="0.78584">
        <ele>114</ele>
        <time>2023-07-14T07:25:35Z</time>
      </trkpt>
      <trkpt lat="47.42817" lon="0.78592">
        <ele>114.4</ele>
        <time>2023-07-14T07:25:36Z</time>
      </trkpt>
      <trkpt lat="47.42819" lon="0.78599">
        <ele>114.6</ele>
        <time>2023-07-14T07:25:37Z</time>
      </trkpt>
      <trkpt lat="47.42821" lon="0.78606">
        <ele>114.8</ele>
        <time>2023-07-14T07:25:38Z</time>
      </trkpt>
      <trkpt lat="47.42823" lon="0.78613">
        <ele>115</ele>
        <time>2023-07-14T07:25:39Z</time>
      </trkpt>
      <trkpt lat="47.42825" lon="0.78621">
        <ele>115.2</ele>
        <time>2023-07-14T07:25:40Z</time>
      </trkpt>
      <trkpt lat="47.42826" lon="0.78628">
        <ele>115.4</ele>
        <time>2023-07-14T07:25:41Z</time>
      </trkpt>
      <trkpt lat="47.42828" lon="0.78635">
        <ele>115.6</ele>
        <time>2023-07-14T07:25:42Z</time>
      </trkpt>
      <trkpt lat="47.4283" lon="0.78643">
        <ele>115.8</ele>
        <time>2023-07-14T07:25:43Z</time>
      </trkpt>
      <trkpt lat="47.42831" lon="0.7865">
        <ele>116</ele>
        <time>2023-07-14T07:25:44Z</time>
      </trkpt>
      <trkpt lat="47.42832" lon="0.78658">
        <ele>116.2</ele>
        <time>2023-07-14T07:25:45Z</time>
      </trkpt>
      <trkpt lat="47.42833" lon="0.78664">
        <ele>116.4</ele>
        <time>2023-07-14T07:25:46Z</time>
      </trkpt>
      <trkpt lat="47.42834" lon="0.78671">
        <ele>116.6</ele>
        <time>2023-07-14T07:25:47Z</time>
      </trkpt>
      <trkpt lat="47.42835" lon="0.78679">
        <ele>116.8</ele>
        <time>2023-07-14T07:25:48Z</time>
      </trkpt>
      <trkpt lat="47.42836" lon="0.78686">
        <ele>117.2</ele>
        <time>2023-07-14T07:25:49Z</time>
      </trkpt>
      <trkpt lat="47.42836" lon="0.78694">
        <ele>117.4</ele>
        <time>2023-07-14T07:25:50Z</time>
      </trkpt>
      <trkpt lat="47.42838" lon="0.78702">
        <ele>117.8</ele>
        <time>2023-07-14T07:25:51Z</time>
      </trkpt>
      <trkpt lat="47.42839" lon="0.7871">
        <ele>117.8</ele>
        <time>2023-07-14T07:25:52Z</time>
      </trkpt>
      <trkpt lat="47.4284" lon="0.78717">
        <ele>117.8</ele>
        <time>2023-07-14T07:25:53Z</time>
      </trkpt>
      <trkpt lat="47.42842" lon="0.78725">
        <ele>118</ele>
        <time>2023-07-14T07:25:54Z</time>
      </trkpt>
      <trkpt lat="47.42843" lon="0.78732">
        <ele>118</ele>
        <time>2023-07-14T07:25:55Z</time>
      </trkpt>
      <trkpt lat="47.42844" lon="0.7874">
        <ele>118.2</ele>
        <time>2023-07-14T07:25:56Z</time>
      </trkpt>
      <trkpt lat="47.42846" lon="0.78748">
        <ele>118.2</ele>
        <time>2023-07-14T07:25:57Z</time>
      </trkpt>
      <trkpt lat="47.42847" lon="0.78755">
        <ele>118.2</ele>
        <time>2023-07-14T07:25:58Z</time>
      </trkpt>
      <trkpt lat="47.42849" lon="0.78763">
        <ele>118.2</ele>
        <time>2023-07-14T07:25:59Z</time>
      </trkpt>
      <trkpt lat="47.42851" lon="0.7877">
        <ele>118.2</ele>
        <time>2023-07-14T07:26:00Z</time>
      </trkpt>
      <trkpt lat="47.42854" lon="0.78778">
        <ele>118.4</ele>
        <time>2023-07-14T07:26:01Z</time>
      </trkpt>
      <trkpt lat="47.42856" lon="0.78786">
        <ele>118.4</ele>
        <time>2023-07-14T07:26:02Z</time>
      </trkpt>
      <trkpt lat="47.42858" lon="0.78794">
        <ele>118.4</ele>
        <time>2023-07-14T07:26:03Z</time>
      </trkpt>
      <trkpt lat="47.4286" lon="0.78802">
        <ele>118.4</ele>
        <time>2023-07-14T07:26:04Z</time>
      </trkpt>
      <trkpt lat="47.42862" lon="0.7881">
        <ele>118.4</ele>
        <time>2023-07-14T07:26:05Z</time>
      </trkpt>
      <trkpt lat="47.42864" lon="0.78818">
        <ele>118.2</ele>
        <time>2023-07-14T07:26:06Z</time>
      </trkpt>
      <trkpt lat="47.42867" lon="0.78826">
        <ele>118.2</ele>
        <time>2023-07-14T07:26:07Z</time>
      </trkpt>
      <trkpt lat="47.42869" lon="0.78834">
        <ele>118.2</ele>
        <time>2023-07-14T07:26:08Z</time>
      </trkpt>
      <trkpt lat="47.42871" lon="0.78842">
        <ele>118.2</ele>
        <time>2023-07-14T07:26:09Z</time>
      </trkpt>
      <trkpt lat="47.42873" lon="0.78851">
        <ele>118</ele>
        <time>2023-07-14T07:26:10Z</time>
      </trkpt>
      <trkpt lat="47.42876" lon="0.78859">
        <ele>117.8</ele>
        <time>2023-07-14T07:26:11Z</time>
      </trkpt>
      <trkpt lat="47.42878" lon="0.78867">
        <ele>117.6</ele>
        <time>2023-07-14T07:26:12Z</time>
      </trkpt>
      <trkpt lat="47.4288" lon="0.78876">
        <ele>117.6</ele>
        <time>2023-07-14T07:26:13Z</time>
      </trkpt>
      <trkpt lat="47.42883" lon="0.78885">
        <ele>117.4</ele>
        <time>2023-07-14T07:26:14Z</time>
      </trkpt>
      <trkpt lat="47.42885" lon="0.78894">
        <ele>117.2</ele>
        <time>2023-07-14T07:26:15Z</time>
      </trkpt>
      <trkpt lat="47.42887" lon="0.78902">
        <ele>117</ele>
        <time>2023-07-14T07:26:16Z</time>
      </trkpt>
      <trkpt lat="47.4289" lon="0.78911">
        <ele>117</ele>
        <time>2023-07-14T07:26:17Z</time>
      </trkpt>
      <trkpt lat="47.42892" lon="0.78921">
        <ele>116.8</ele>
        <time>2023-07-14T07:26:18Z</time>
      </trkpt>
      <trkpt lat="47.42895" lon="0.78929">
        <ele>116.8</ele>
        <time>2023-07-14T07:26:19Z</time>
      </trkpt>
      <trkpt lat="47.42897" lon="0.78937">
        <ele>116.6</ele>
        <time>2023-07-14T07:26:20Z</time>
      </trkpt>
      <trkpt lat="47.42899" lon="0.78946">
        <ele>116.4</ele>
        <time>2023-07-14T07:26:21Z</time>
      </trkpt>
      <trkpt lat="47.42901" lon="0.78953">
        <ele>116.4</ele>
        <time>2023-07-14T07:26:22Z</time>
      </trkpt>
      <trkpt lat="47.42903" lon="0.78961">
        <ele>116.2</ele>
        <time>2023-07-14T07:26:23Z</time>
      </trkpt>
      <trkpt lat="47.42905" lon="0.78968">
        <ele>116</ele>
        <time>2023-07-14T07:26:24Z</time>
      </trkpt>
      <trkpt lat="47.42907" lon="0.78975">
        <ele>116</ele>
        <time>2023-07-14T07:26:25Z</time>
      </trkpt>
      <trkpt lat="47.4291" lon="0.78983">
        <ele>115.8</ele>
        <time>2023-07-14T07:26:26Z</time>
      </trkpt>
      <trkpt lat="47.42913" lon="0.7899">
        <ele>115.8</ele>
        <time>2023-07-14T07:26:27Z</time>
      </trkpt>
      <trkpt lat="47.42916" lon="0.78997">
        <ele>115.6</ele>
        <time>2023-07-14T07:26:28Z</time>
      </trkpt>
      <trkpt lat="47.4292" lon="0.79004">
        <ele>115.6</ele>
        <time>2023-07-14T07:26:29Z</time>
      </trkpt>
      <trkpt lat="47.42923" lon="0.79011">
        <ele>115.6</ele>
        <time>2023-07-14T07:26:30Z</time>
      </trkpt>
      <trkpt lat="47.42927" lon="0.79018">
        <ele>115.6</ele>
        <time>2023-07-14T07:26:31Z</time>
      </trkpt>
      <trkpt lat="47.42931" lon="0.79024">
        <ele>115.6</ele>
        <time>2023-07-14T07:26:32Z</time>
      </trkpt>
      <trkpt lat="47.42936" lon="0.79032">
        <ele>115.6</ele>
        <time>2023-07-14T07:26:33Z</time>
      </trkpt>
      <trkpt lat="47.42939" lon="0.79038">
        <ele>115.6</ele>
        <time>2023-07-14T07:26:34Z</time>
      </trkpt>
      <trkpt lat="47.42943" lon="0.79045">
        <ele>115.4</ele>
        <time>2023-07-14T07:26:35Z</time>
      </trkpt>
      <trkpt lat="47.42947" lon="0.79052">
        <ele>115.4</ele>
        <time>2023-07-14T07:26:36Z</time>
      </trkpt>
      <trkpt lat="47.42951" lon="0.79059">
        <ele>115.4</ele>
        <time>2023-07-14T07:26:37Z</time>
      </trkpt>
      <trkpt lat="47.42955" lon="0.79066">
        <ele>115.4</ele>
        <time>2023-07-14T07:26:38Z</time>
      </trkpt>
      <trkpt lat="47.42958" lon="0.79073">
        <ele>115.4</ele>
        <time>2023-07-14T07:26:39Z</time>
      </trkpt>
      <trkpt lat="47.42962" lon="0.79081">
        <ele>115.4</ele>
        <time>2023-07-14T07:26:40Z</time>
      </trkpt>
      <trkpt lat="47.42966" lon="0.79089">
        <ele>115.4</ele>
        <time>2023-07-14T07:26:41Z</time>
      </trkpt>
      <trkpt lat="47.42969" lon="0.79097">
        <ele>115.4</ele>
        <time>2023-07-14T07:26:42Z</time>
      </trkpt>
      <trkpt lat="47.42971" lon="0.79105">
        <ele>115.4</ele>
        <time>2023-07-14T07:26:43Z</time>
      </trkpt>
      <trkpt lat="47.42975" lon="0.79112">
        <ele>115.4</ele>
        <time>2023-07-14T07:26:44Z</time>
      </trkpt>
      <trkpt lat="47.42978" lon="0.79119">
        <ele>115.4</ele>
        <time>2023-07-14T07:26:45Z</time>
      </trkpt>
      <trkpt lat="47.4298" lon="0.79127">
        <ele>115.4</ele>
        <time>2023-07-14T07:26:46Z</time>
      </trkpt>
      <trkpt lat="47.42982" lon="0.79135">
        <ele>115.6</ele>
        <time>2023-07-14T07:26:47Z</time>
      </trkpt>
      <trkpt lat="47.42985" lon="0.79143">
        <ele>115.8</ele>
        <time>2023-07-14T07:26:48Z</time>
      </trkpt>
      <trkpt lat="47.42988" lon="0.79151">
        <ele>116</ele>
        <time>2023-07-14T07:26:49Z</time>
      </trkpt>
      <trkpt lat="47.4299" lon="0.79157">
        <ele>116.2</ele>
        <time>2023-07-14T07:26:50Z</time>
      </trkpt>
      <trkpt lat="47.42992" lon="0.79164">
        <ele>116.4</ele>
        <time>2023-07-14T07:26:51Z</time>
      </trkpt>
      <trkpt lat="47.42995" lon="0.79172">
        <ele>116.6</ele>
        <time>2023-07-14T07:26:52Z</time>
      </trkpt>
      <trkpt lat="47.42998" lon="0.79179">
        <ele>117</ele>
        <time>2023-07-14T07:26:53Z</time>
      </trkpt>
      <trkpt lat="47.43" lon="0.79186">
        <ele>117.2</ele>
        <time>2023-07-14T07:26:54Z</time>
      </trkpt>
      <trkpt lat="47.43003" lon="0.79193">
        <ele>117.4</ele>
        <time>2023-07-14T07:26:55Z</time>
      </trkpt>
      <trkpt lat="47.43006" lon="0.79199">
        <ele>117.6</ele>
        <time>2023-07-14T07:26:56Z</time>
      </trkpt>
      <trkpt lat="47.43008" lon="0.79206">
        <ele>117.8</ele>
        <time>2023-07-14T07:26:57Z</time>
      </trkpt>
      <trkpt lat="47.43011" lon="0.79213">
        <ele>118</ele>
        <time>2023-07-14T07:26:58Z</time>
      </trkpt>
      <trkpt lat="47.43014" lon="0.79219">
        <ele>118</ele>
        <time>2023-07-14T07:26:59Z</time>
      </trkpt>
      <trkpt lat="47.43016" lon="0.79224">
        <ele>118.2</ele>
        <time>2023-07-14T07:27:00Z</time>
      </trkpt>
      <trkpt lat="47.43019" lon="0.79231">
        <ele>118.2</ele>
        <time>2023-07-14T07:27:01Z</time>
      </trkpt>
      <trkpt lat="47.43023" lon="0.79238">
        <ele>118.4</ele>
        <time>2023-07-14T07:27:02Z</time>
      </trkpt>
      <trkpt lat="47.43025" lon="0.79243">
        <ele>118.6</ele>
        <time>2023-07-14T07:27:03Z</time>
      </trkpt>
      <trkpt lat="47.43026" lon="0.79248">
        <ele>118.6</ele>
        <time>2023-07-14T07:27:04Z</time>
      </trkpt>
      <trkpt lat="47.43024" lon="0.79251">
        <ele>118.8</ele>
        <time>2023-07-14T07:27:05Z</time>
      </trkpt>
      <trkpt lat="47.43022" lon="0.79252">
        <ele>118.8</ele>
        <time>2023-07-14T07:27:06Z</time>
      </trkpt>
      <trkpt lat="47.43019" lon="0.79251">
        <ele>118.8</ele>
        <time>2023-07-14T07:27:07Z</time>
      </trkpt>
      <trkpt lat="47.43015" lon="0.79249">
        <ele>118.8</ele>
        <time>2023-07-14T07:27:08Z</time>
      </trkpt>
      <trkpt lat="47.43012" lon="0.79247">
        <ele>118.8</ele>
        <time>2023-07-14T07:27:09Z</time>
      </trkpt>
      <trkpt lat="47.43008" lon="0.79245">
        <ele>118.8</ele>
        <time>2023-07-14T07:27:10Z</time>
      </trkpt>
      <trkpt lat="47.43005" lon="0.79242">
        <ele>118.8</ele>
        <time>2023-07-14T07:27:11Z</time>
      </trkpt>
      <trkpt lat="47.43002" lon="0.7924">
        <ele>118.8</ele>
        <time>2023-07-14T07:27:12Z</time>
      </trkpt>
      <trkpt lat="47.42999" lon="0.79238">
        <ele>118.8</ele>
        <time>2023-07-14T07:27:13Z</time>
      </trkpt>
      <trkpt lat="47.42995" lon="0.79235">
        <ele>118.8</ele>
        <time>2023-07-14T07:27:14Z</time>
      </trkpt>
      <trkpt lat="47.4299" lon="0.79232">
        <ele>118.8</ele>
        <time>2023-07-14T07:27:15Z</time>
      </trkpt>
      <trkpt lat="47.42986" lon="0.7923">
        <ele>118.8</ele>
        <time>2023-07-14T07:27:16Z</time>
      </trkpt>
      <trkpt lat="47.42981" lon="0.79227">
        <ele>119</ele>
        <time>2023-07-14T07:27:17Z</time>
      </trkpt>
      <trkpt lat="47.42976" lon="0.79224">
        <ele>119</ele>
        <time>2023-07-14T07:27:18Z</time>
      </trkpt>
      <trkpt lat="47.42972" lon="0.79222">
        <ele>118.8</ele>
        <time>2023-07-14T07:27:19Z</time>
      </trkpt>
      <trkpt lat="47.42967" lon="0.7922">
        <ele>118.8</ele>
        <time>2023-07-14T07:27:20Z</time>
      </trkpt>
      <trkpt lat="47.42961" lon="0.79217">
        <ele>118.6</ele>
        <time>2023-07-14T07:27:21Z</time>
      </trkpt>
      <trkpt lat="47.42956" lon="0.79214">
        <ele>118.4</ele>
        <time>2023-07-14T07:27:22Z</time>
      </trkpt>
      <trkpt lat="47.4295" lon="0.7921">
        <ele>118.2</ele>
        <time>2023-07-14T07:27:23Z</time>
      </trkpt>
      <trkpt lat="47.42945" lon="0.79206">
        <ele>118.2</ele>
        <time>2023-07-14T07:27:24Z</time>
      </trkpt>
      <trkpt lat="47.42938" lon="0.79202">
        <ele>118</ele>
        <time>2023-07-14T07:27:25Z</time>
      </trkpt>
      <trkpt lat="47.42932" lon="0.79199">
        <ele>117.8</ele>
        <time>2023-07-14T07:27:26Z</time>
      </trkpt>
      <trkpt lat="47.42926" lon="0.79195">
        <ele>117.8</ele>
        <time>2023-07-14T07:27:27Z</time>
      </trkpt>
      <trkpt lat="47.4292" lon="0.79192">
        <ele>117.6</ele>
        <time>2023-07-14T07:27:28Z</time>
      </trkpt>
      <trkpt lat="47.42914" lon="0.79189">
        <ele>117.4</ele>
        <time>2023-07-14T07:27:29Z</time>
      </trkpt>
      <trkpt lat="47.42908" lon="0.79186">
        <ele>117.4</ele>
        <time>2023-07-14T07:27:30Z</time>
      </trkpt>
      <trkpt lat="47.42902" lon="0.79184">
        <ele>117.4</ele>
        <time>2023-07-14T07:27:31Z</time>
      </trkpt>
      <trkpt lat="47.42897" lon="0.79181">
        <ele>117.4</ele>
        <time>2023-07-14T07:27:32Z</time>
      </trkpt>
      <trkpt lat="47.42892" lon="0.79179">
        <ele>117.4</ele>
        <time>2023-07-14T07:27:33Z</time>
      </trkpt>
      <trkpt lat="47.42886" lon="0.79176">
        <ele>117.2</ele>
        <time>2023-07-14T07:27:34Z</time>
      </trkpt>
      <trkpt lat="47.42881" lon="0.79174">
        <ele>117</ele>
        <time>2023-07-14T07:27:35Z</time>
      </trkpt>
      <trkpt lat="47.42875" lon="0.79171">
        <ele>117</ele>
        <time>2023-07-14T07:27:36Z</time>
      </trkpt>
      <trkpt lat="47.42868" lon="0.79169">
        <ele>117</ele>
        <time>2023-07-14T07:27:37Z</time>
      </trkpt>
      <trkpt lat="47.42862" lon="0.79166">
        <ele>116.8</ele>
        <time>2023-07-14T07:27:38Z</time>
      </trkpt>
      <trkpt lat="47.42856" lon="0.79164">
        <ele>116.8</ele>
        <time>2023-07-14T07:27:39Z</time>
      </trkpt>
      <trkpt lat="47.4285" lon="0.79162">
        <ele>116.6</ele>
        <time>2023-07-14T07:27:40Z</time>
      </trkpt>
      <trkpt lat="47.42845" lon="0.7916">
        <ele>116.6</ele>
        <time>2023-07-14T07:27:41Z</time>
      </trkpt>
      <trkpt lat="47.4284" lon="0.79158">
        <ele>116.6</ele>
        <time>2023-07-14T07:27:42Z</time>
      </trkpt>
      <trkpt lat="47.42834" lon="0.79156">
        <ele>116.6</ele>
        <time>2023-07-14T07:27:43Z</time>
      </trkpt>
      <trkpt lat="47.42829" lon="0.79154">
        <ele>116.6</ele>
        <time>2023-07-14T07:27:44Z</time>
      </trkpt>
      <trkpt lat="47.42823" lon="0.79152">
        <ele>116.8</ele>
        <time>2023-07-14T07:27:45Z</time>
      </trkpt>
      <trkpt lat="47.42818" lon="0.7915">
        <ele>116.8</ele>
        <time>2023-07-14T07:27:46Z</time>
      </trkpt>
      <trkpt lat="47.42813" lon="0.79148">
        <ele>116.6</ele>
        <time>2023-07-14T07:27:47Z</time>
      </trkpt>
      <trkpt lat="47.42808" lon="0.79145">
        <ele>116.6</ele>
        <time>2023-07-14T07:27:48Z</time>
      </trkpt>
      <trkpt lat="47.42802" lon="0.79143">
        <ele>116.8</ele>
        <time>2023-07-14T07:27:49Z</time>
      </trkpt>
      <trkpt lat="47.42797" lon="0.7914">
        <ele>116.8</ele>
        <time>2023-07-14T07:27:50Z</time>
      </trkpt>
      <trkpt lat="47.42793" lon="0.79137">
        <ele>116.6</ele>
        <time>2023-07-14T07:27:51Z</time>
      </trkpt>
      <trkpt lat="47.42787" lon="0.79133">
        <ele>116.4</ele>
        <time>2023-07-14T07:27:52Z</time>
      </trkpt>
      <trkpt lat="47.42781" lon="0.79129">
        <ele>116.4</ele>
        <time>2023-07-14T07:27:53Z</time>
      </trkpt>
      <trkpt lat="47.42776" lon="0.79126">
        <ele>116.2</ele>
        <time>2023-07-14T07:27:54Z</time>
      </trkpt>
      <trkpt lat="47.42771" lon="0.79123">
        <ele>116.2</ele>
        <time>2023-07-14T07:27:55Z</time>
      </trkpt>
      <trkpt lat="47.42766" lon="0.79121">
        <ele>116</ele>
        <time>2023-07-14T07:27:56Z</time>
      </trkpt>
      <trkpt lat="47.4276" lon="0.79119">
        <ele>115.8</ele>
        <time>2023-07-14T07:27:57Z</time>
      </trkpt>
      <trkpt lat="47.42755" lon="0.79117">
        <ele>115.8</ele>
        <time>2023-07-14T07:27:58Z</time>
      </trkpt>
      <trkpt lat="47.42748" lon="0.79116">
        <ele>115.6</ele>
        <time>2023-07-14T07:27:59Z</time>
      </trkpt>
      <trkpt lat="47.42743" lon="0.79115">
        <ele>115.6</ele>
        <time>2023-07-14T07:28:00Z</time>
      </trkpt>
      <trkpt lat="47.42736" lon="0.79115">
        <ele>115.4</ele>
        <time>2023-07-14T07:28:01Z</time>
      </trkpt>
      <trkpt lat="47.4273" lon="0.79113">
        <ele>115.2</ele>
        <time>2023-07-14T07:28:02Z</time>
      </trkpt>
      <trkpt lat="47.42723" lon="0.79111">
        <ele>115</ele>
        <time>2023-07-14T07:28:03Z</time>
      </trkpt>
      <trkpt lat="47.42717" lon="0.79109">
        <ele>114.8</ele>
        <time>2023-07-14T07:28:04Z</time>
      </trkpt>
      <trkpt lat="47.42711" lon="0.79107">
        <ele>114.6</ele>
        <time>2023-07-14T07:28:05Z</time>
      </trkpt>
      <trkpt lat="47.42706" lon="0.79106">
        <ele>114.4</ele>
        <time>2023-07-14T07:28:06Z</time>
      </trkpt>
      <trkpt lat="47.42699" lon="0.79104">
        <ele>114.2</ele>
        <time>2023-07-14T07:28:07Z</time>
      </trkpt>
      <trkpt lat="47.42693" lon="0.79102">
        <ele>114</ele>
        <time>2023-07-14T07:28:08Z</time>
      </trkpt>
      <trkpt lat="47.42688" lon="0.791">
        <ele>113.6</ele>
        <time>2023-07-14T07:28:09Z</time>
      </trkpt>
      <trkpt lat="47.42683" lon="0.79098">
        <ele>113.4</ele>
        <time>2023-07-14T07:28:10Z</time>
      </trkpt>
      <trkpt lat="47.42679" lon="0.79096">
        <ele>113</ele>
        <time>2023-07-14T07:28:11Z</time>
      </trkpt>
      <trkpt lat="47.42675" lon="0.79094">
        <ele>112.8</ele>
        <time>2023-07-14T07:28:12Z</time>
      </trkpt>
      <trkpt lat="47.42672" lon="0.79091">
        <ele>112.4</ele>
        <time>2023-07-14T07:28:13Z</time>
      </trkpt>
      <trkpt lat="47.4267" lon="0.79089">
        <ele>112.4</ele>
        <time>2023-07-14T07:28:14Z</time>
      </trkpt>
      <trkpt lat="47.42668" lon="0.79088">
        <ele>112.2</ele>
        <time>2023-07-14T07:28:15Z</time>
      </trkpt>
      <trkpt lat="47.42666" lon="0.79087">
        <ele>112.2</ele>
        <time>2023-07-14T07:28:16Z</time>
      </trkpt>
      <trkpt lat="47.42663" lon="0.79088">
        <ele>112</ele>
        <time>2023-07-14T07:28:17Z</time>
      </trkpt>
      <trkpt lat="47.42659" lon="0.79088">
        <ele>112.2</ele>
        <time>2023-07-14T07:28:18Z</time>
      </trkpt>
      <trkpt lat="47.42655" lon="0.79088">
        <ele>112.2</ele>
        <time>2023-07-14T07:28:19Z</time>
      </trkpt>
      <trkpt lat="47.42651" lon="0.79087">
        <ele>112.4</ele>
        <time>2023-07-14T07:28:20Z</time>
      </trkpt>
      <trkpt lat="47.42646" lon="0.79087">
        <ele>112.4</ele>
        <time>2023-07-14T07:28:21Z</time>
      </trkpt>
      <trkpt lat="47.4264" lon="0.79087">
        <ele>112.4</ele>
        <time>2023-07-14T07:28:22Z</time>
      </trkpt>
      <trkpt lat="47.42635" lon="0.79088">
        <ele>112.4</ele>
        <time>2023-07-14T07:28:23Z</time>
      </trkpt>
      <trkpt lat="47.4263" lon="0.7909">
        <ele>112.4</ele>
        <time>2023-07-14T07:28:24Z</time>
      </trkpt>
      <trkpt lat="47.42625" lon="0.79091">
        <ele>112.6</ele>
        <time>2023-07-14T07:28:25Z</time>
      </trkpt>
      <trkpt lat="47.4262" lon="0.79092">
        <ele>112.8</ele>
        <time>2023-07-14T07:28:26Z</time>
      </trkpt>
      <trkpt lat="47.42615" lon="0.79094">
        <ele>113.2</ele>
        <time>2023-07-14T07:28:27Z</time>
      </trkpt>
      <trkpt lat="47.4261" lon="0.79095">
        <ele>113.4</ele>
        <time>2023-07-14T07:28:28Z</time>
      </trkpt>
      <trkpt lat="47.42605" lon="0.79096">
        <ele>113.6</ele>
        <time>2023-07-14T07:28:29Z</time>
      </trkpt>
      <trkpt lat="47.426" lon="0.79098">
        <ele>113.8</ele>
        <time>2023-07-14T07:28:30Z</time>
      </trkpt>
      <trkpt lat="47.42596" lon="0.791">
        <ele>114.2</ele>
        <time>2023-07-14T07:28:31Z</time>
      </trkpt>
      <trkpt lat="47.42591" lon="0.79102">
        <ele>114.4</ele>
        <time>2023-07-14T07:28:32Z</time>
      </trkpt>
      <trkpt lat="47.42586" lon="0.79105">
        <ele>114.6</ele>
        <time>2023-07-14T07:28:33Z</time>
      </trkpt>
      <trkpt lat="47.42582" lon="0.79108">
        <ele>114.8</ele>
        <time>2023-07-14T07:28:34Z</time>
      </trkpt>
      <trkpt lat="47.42577" lon="0.79112">
        <ele>115</ele>
        <time>2023-07-14T07:28:35Z</time>
      </trkpt>
      <trkpt lat="47.42573" lon="0.79116">
        <ele>115</ele>
        <time>2023-07-14T07:28:36Z</time>
      </trkpt>
      <trkpt lat="47.42569" lon="0.79119">
        <ele>115.2</ele>
        <time>2023-07-14T07:28:37Z</time>
      </trkpt>
      <trkpt lat="47.42564" lon="0.79123">
        <ele>115.4</ele>
        <time>2023-07-14T07:28:38Z</time>
      </trkpt>
      <trkpt lat="47.42559" lon="0.79128">
        <ele>115.6</ele>
        <time>2023-07-14T07:28:39Z</time>
      </trkpt>
      <trkpt lat="47.42554" lon="0.79132">
        <ele>115.8</ele>
        <time>2023-07-14T07:28:40Z</time>
      </trkpt>
      <trkpt lat="47.4255" lon="0.79137">
        <ele>115.8</ele>
        <time>2023-07-14T07:28:41Z</time>
      </trkpt>
      <trkpt lat="47.42545" lon="0.79141">
        <ele>116</ele>
        <time>2023-07-14T07:28:42Z</time>
      </trkpt>
      <trkpt lat="47.4254" lon="0.79144">
        <ele>116</ele>
        <time>2023-07-14T07:28:43Z</time>
      </trkpt>
      <trkpt lat="47.42535" lon="0.79148">
        <ele>116.2</ele>
        <time>2023-07-14T07:28:44Z</time>
      </trkpt>
      <trkpt lat="47.42531" lon="0.79151">
        <ele>116.4</ele>
        <time>2023-07-14T07:28:45Z</time>
      </trkpt>
      <trkpt lat="47.42526" lon="0.79154">
        <ele>116.6</ele>
        <time>2023-07-14T07:28:46Z</time>
      </trkpt>
      <trkpt lat="47.42521" lon="0.79158">
        <ele>116.6</ele>
        <time>2023-07-14T07:28:47Z</time>
      </trkpt>
      <trkpt lat="47.42516" lon="0.79161">
        <ele>116.8</ele>
        <time>2023-07-14T07:28:48Z</time>
      </trkpt>
      <trkpt lat="47.42512" lon="0.79165">
        <ele>116.8</ele>
        <time>2023-07-14T07:28:49Z</time>
      </trkpt>
      <trkpt lat="47.42507" lon="0.79168">
        <ele>116.8</ele>
        <time>2023-07-14T07:28:50Z</time>
      </trkpt>
      <trkpt lat="47.42503" lon="0.79172">
        <ele>116.8</ele>
        <time>2023-07-14T07:28:51Z</time>
      </trkpt>
      <trkpt lat="47.42498" lon="0.79176">
        <ele>117</ele>
        <time>2023-07-14T07:28:52Z</time>
      </trkpt>
      <trkpt lat="47.42493" lon="0.7918">
        <ele>116.8</ele>
        <time>2023-07-14T07:28:53Z</time>
      </trkpt>
      <trkpt lat="47.42488" lon="0.79184">
        <ele>116.8</ele>
        <time>2023-07-14T07:28:54Z</time>
      </trkpt>
      <trkpt lat="47.42484" lon="0.79187">
        <ele>116.8</ele>
        <time>2023-07-14T07:28:55Z</time>
      </trkpt>
      <trkpt lat="47.42479" lon="0.79191">
        <ele>116.8</ele>
        <time>2023-07-14T07:28:56Z</time>
      </trkpt>
      <trkpt lat="47.42474" lon="0.79195">
        <ele>117</ele>
        <time>2023-07-14T07:28:57Z</time>
      </trkpt>
      <trkpt lat="47.42469" lon="0.79199">
        <ele>117</ele>
        <time>2023-07-14T07:28:58Z</time>
      </trkpt>
      <trkpt lat="47.42464" lon="0.79203">
        <ele>117</ele>
        <time>2023-07-14T07:28:59Z</time>
      </trkpt>
      <trkpt lat="47.42459" lon="0.79207">
        <ele>117</ele>
        <time>2023-07-14T07:29:00Z</time>
      </trkpt>
      <trkpt lat="47.42455" lon="0.79211">
        <ele>117</ele>
        <time>2023-07-14T07:29:01Z</time>
      </trkpt>
      <trkpt lat="47.4245" lon="0.79215">
        <ele>117</ele>
        <time>2023-07-14T07:29:02Z</time>
      </trkpt>
      <trkpt lat="47.42445" lon="0.79219">
        <ele>117</ele>
        <time>2023-07-14T07:29:03Z</time>
      </trkpt>
      <trkpt lat="47.4244" lon="0.79223">
        <ele>117</ele>
        <time>2023-07-14T07:29:04Z</time>
      </trkpt>
      <trkpt lat="47.42435" lon="0.79227">
        <ele>117</ele>
        <time>2023-07-14T07:29:05Z</time>
      </trkpt>
      <trkpt lat="47.4243" lon="0.7923">
        <ele>116.8</ele>
        <time>2023-07-14T07:29:06Z</time>
      </trkpt>
      <trkpt lat="47.42424" lon="0.79234">
        <ele>116.8</ele>
        <time>2023-07-14T07:29:07Z</time>
      </trkpt>
      <trkpt lat="47.42419" lon="0.79237">
        <ele>116.8</ele>
        <time>2023-07-14T07:29:08Z</time>
      </trkpt>
      <trkpt lat="47.42414" lon="0.79241">
        <ele>116.8</ele>
        <time>2023-07-14T07:29:09Z</time>
      </trkpt>
      <trkpt lat="47.42408" lon="0.79244">
        <ele>116.6</ele>
        <time>2023-07-14T07:29:10Z</time>
      </trkpt>
      <trkpt lat="47.42403" lon="0.79248">
        <ele>116.6</ele>
        <time>2023-07-14T07:29:11Z</time>
      </trkpt>
      <trkpt lat="47.42397" lon="0.79251">
        <ele>116.6</ele>
        <time>2023-07-14T07:29:12Z</time>
      </trkpt>
      <trkpt lat="47.42391" lon="0.79254">
        <ele>116.6</ele>
        <time>2023-07-14T07:29:13Z</time>
      </trkpt>
      <trkpt lat="47.42385" lon="0.79257">
        <ele>116.6</ele>
        <time>2023-07-14T07:29:14Z</time>
      </trkpt>
      <trkpt lat="47.4238" lon="0.7926">
        <ele>116.4</ele>
        <time>2023-07-14T07:29:15Z</time>
      </trkpt>
      <trkpt lat="47.42374" lon="0.79263">
        <ele>116.2</ele>
        <time>2023-07-14T07:29:16Z</time>
      </trkpt>
      <trkpt lat="47.42368" lon="0.79266">
        <ele>116</ele>
        <time>2023-07-14T07:29:17Z</time>
      </trkpt>
      <trkpt lat="47.42362" lon="0.79268">
        <ele>116</ele>
        <time>2023-07-14T07:29:18Z</time>
      </trkpt>
      <trkpt lat="47.42356" lon="0.7927">
        <ele>115.8</ele>
        <time>2023-07-14T07:29:19Z</time>
      </trkpt>
      <trkpt lat="47.42349" lon="0.79273">
        <ele>115.6</ele>
        <time>2023-07-14T07:29:20Z</time>
      </trkpt>
      <trkpt lat="47.42342" lon="0.79275">
        <ele>115.6</ele>
        <time>2023-07-14T07:29:21Z</time>
      </trkpt>
      <trkpt lat="47.42336" lon="0.79277">
        <ele>115.4</ele>
        <time>2023-07-14T07:29:22Z</time>
      </trkpt>
      <trkpt lat="47.4233" lon="0.79278">
        <ele>115.4</ele>
        <time>2023-07-14T07:29:23Z</time>
      </trkpt>
      <trkpt lat="47.42324" lon="0.79279">
        <ele>115.2</ele>
        <time>2023-07-14T07:29:24Z</time>
      </trkpt>
      <trkpt lat="47.42318" lon="0.7928">
        <ele>115</ele>
        <time>2023-07-14T07:29:25Z</time>
      </trkpt>
      <trkpt lat="47.42311" lon="0.79281">
        <ele>114.8</ele>
        <time>2023-07-14T07:29:26Z</time>
      </trkpt>
      <trkpt lat="47.42303" lon="0.79281">
        <ele>114.8</ele>
        <time>2023-07-14T07:29:27Z</time>
      </trkpt>
      <trkpt lat="47.42297" lon="0.79282">
        <ele>114.8</ele>
        <time>2023-07-14T07:29:28Z</time>
      </trkpt>
      <trkpt lat="47.4229" lon="0.79283">
        <ele>114.6</ele>
        <time>2023-07-14T07:29:29Z</time>
      </trkpt>
      <trkpt lat="47.42284" lon="0.79285">
        <ele>114.6</ele>
        <time>2023-07-14T07:29:30Z</time>
      </trkpt>
      <trkpt lat="47.42278" lon="0.79285">
        <ele>114.4</ele>
        <time>2023-07-14T07:29:31Z</time>
      </trkpt>
      <trkpt lat="47.42271" lon="0.79286">
        <ele>114.2</ele>
        <time>2023-07-14T07:29:32Z</time>
      </trkpt>
      <trkpt lat="47.42265" lon="0.79286">
        <ele>114.2</ele>
        <time>2023-07-14T07:29:33Z</time>
      </trkpt>
      <trkpt lat="47.42258" lon="0.79287">
        <ele>114</ele>
        <time>2023-07-14T07:29:34Z</time>
      </trkpt>
      <trkpt lat="47.42252" lon="0.79287">
        <ele>113.8</ele>
        <time>2023-07-14T07:29:35Z</time>
      </trkpt>
      <trkpt lat="47.42245" lon="0.79288">
        <ele>113.6</ele>
        <time>2023-07-14T07:29:36Z</time>
      </trkpt>
      <trkpt lat="47.42239" lon="0.79288">
        <ele>113.6</ele>
        <time>2023-07-14T07:29:37Z</time>
      </trkpt>
      <trkpt lat="47.42233" lon="0.79288">
        <ele>113.6</ele>
        <time>2023-07-14T07:29:38Z</time>
      </trkpt>
      <trkpt lat="47.42227" lon="0.79289">
        <ele>113.4</ele>
        <time>2023-07-14T07:29:39Z</time>
      </trkpt>
      <trkpt lat="47.4222" lon="0.79289">
        <ele>113.4</ele>
        <time>2023-07-14T07:29:40Z</time>
      </trkpt>
      <trkpt lat="47.42214" lon="0.7929">
        <ele>113.2</ele>
        <time>2023-07-14T07:29:41Z</time>
      </trkpt>
      <trkpt lat="47.42208" lon="0.7929">
        <ele>113</ele>
        <time>2023-07-14T07:29:42Z</time>
      </trkpt>
      <trkpt lat="47.42203" lon="0.79291">
        <ele>113</ele>
        <time>2023-07-14T07:29:43Z</time>
      </trkpt>
      <trkpt lat="47.42196" lon="0.79293">
        <ele>112.8</ele>
        <time>2023-07-14T07:29:44Z</time>
      </trkpt>
      <trkpt lat="47.42189" lon="0.79296">
        <ele>112.6</ele>
        <time>2023-07-14T07:29:45Z</time>
      </trkpt>
      <trkpt lat="47.42183" lon="0.793">
        <ele>112.4</ele>
        <time>2023-07-14T07:29:46Z</time>
      </trkpt>
      <trkpt lat="47.42179" lon="0.79306">
        <ele>112</ele>
        <time>2023-07-14T07:29:47Z</time>
      </trkpt>
      <trkpt lat="47.42175" lon="0.79314">
        <ele>111.8</ele>
        <time>2023-07-14T07:29:48Z</time>
      </trkpt>
      <trkpt lat="47.42173" lon="0.79324">
        <ele>111.6</ele>
        <time>2023-07-14T07:29:49Z</time>
      </trkpt>
      <trkpt lat="47.42172" lon="0.79333">
        <ele>111.4</ele>
        <time>2023-07-14T07:29:50Z</time>
      </trkpt>
      <trkpt lat="47.42171" lon="0.79343">
        <ele>111.2</ele>
        <time>2023-07-14T07:29:51Z</time>
      </trkpt>
      <trkpt lat="47.4217" lon="0.79352">
        <ele>111</ele>
        <time>2023-07-14T07:29:52Z</time>
      </trkpt>
      <trkpt lat="47.42168" lon="0.79362">
        <ele>111</ele>
        <time>2023-07-14T07:29:53Z</time>
      </trkpt>
      <trkpt lat="47.42165" lon="0.7937">
        <ele>110.8</ele>
        <time>2023-07-14T07:29:54Z</time>
      </trkpt>
      <trkpt lat="47.42161" lon="0.79378">
        <ele>110.8</ele>
        <time>2023-07-14T07:29:55Z</time>
      </trkpt>
      <trkpt lat="47.42156" lon="0.79385">
        <ele>110.8</ele>
        <time>2023-07-14T07:29:56Z</time>
      </trkpt>
      <trkpt lat="47.42151" lon="0.79392">
        <ele>110.8</ele>
        <time>2023-07-14T07:29:57Z</time>
      </trkpt>
      <trkpt lat="47.42146" lon="0.79398">
        <ele>110.8</ele>
        <time>2023-07-14T07:29:58Z</time>
      </trkpt>
      <trkpt lat="47.4214" lon="0.79404">
        <ele>110.6</ele>
        <time>2023-07-14T07:29:59Z</time>
      </trkpt>
      <trkpt lat="47.42135" lon="0.7941">
        <ele>110.6</ele>
        <time>2023-07-14T07:30:00Z</time>
      </trkpt>
      <trkpt lat="47.42131" lon="0.79416">
        <ele>110.6</ele>
        <time>2023-07-14T07:30:01Z</time>
      </trkpt>
      <trkpt lat="47.42125" lon="0.79421">
        <ele>110.4</ele>
        <time>2023-07-14T07:30:02Z</time>
      </trkpt>
      <trkpt lat="47.42119" lon="0.79428">
        <ele>110.4</ele>
        <time>2023-07-14T07:30:03Z</time>
      </trkpt>
      <trkpt lat="47.42114" lon="0.79434">
        <ele>110.2</ele>
        <time>2023-07-14T07:30:04Z</time>
      </trkpt>
      <trkpt lat="47.42109" lon="0.79439">
        <ele>110.2</ele>
        <time>2023-07-14T07:30:05Z</time>
      </trkpt>
      <trkpt lat="47.42104" lon="0.79446">
        <ele>110</ele>
        <time>2023-07-14T07:30:06Z</time>
      </trkpt>
      <trkpt lat="47.42098" lon="0.79451">
        <ele>110</ele>
        <time>2023-07-14T07:30:07Z</time>
      </trkpt>
      <trkpt lat="47.42093" lon="0.79458">
        <ele>110</ele>
        <time>2023-07-14T07:30:08Z</time>
      </trkpt>
      <trkpt lat="47.42088" lon="0.79464">
        <ele>109.8</ele>
        <time>2023-07-14T07:30:09Z</time>
      </trkpt>
      <trkpt lat="47.42083" lon="0.7947">
        <ele>109.8</ele>
        <time>2023-07-14T07:30:10Z</time>
      </trkpt>
      <trkpt lat="47.42078" lon="0.79476">
        <ele>109.6</ele>
        <time>2023-07-14T07:30:11Z</time>
      </trkpt>
      <trkpt lat="47.42072" lon="0.79482">
        <ele>109.6</ele>
        <time>2023-07-14T07:30:12Z</time>
      </trkpt>
      <trkpt lat="47.42067" lon="0.79487">
        <ele>109.4</ele>
        <time>2023-07-14T07:30:13Z</time>
      </trkpt>
      <trkpt lat="47.42062" lon="0.79493">
        <ele>109.2</ele>
        <time>2023-07-14T07:30:14Z</time>
      </trkpt>
      <trkpt lat="47.42056" lon="0.79498">
        <ele>109</ele>
        <time>2023-07-14T07:30:15Z</time>
      </trkpt>
      <trkpt lat="47.42051" lon="0.79504">
        <ele>108.8</ele>
        <time>2023-07-14T07:30:16Z</time>
      </trkpt>
      <trkpt lat="47.42046" lon="0.7951">
        <ele>108.4</ele>
        <time>2023-07-14T07:30:17Z</time>
      </trkpt>
      <trkpt lat="47.42041" lon="0.79516">
        <ele>108.2</ele>
        <time>2023-07-14T07:30:18Z</time>
      </trkpt>
      <trkpt lat="47.42037" lon="0.7952">
        <ele>107.8</ele>
        <time>2023-07-14T07:30:19Z</time>
      </trkpt>
      <trkpt lat="47.42035" lon="0.79525">
        <ele>107.4</ele>
        <time>2023-07-14T07:30:20Z</time>
      </trkpt>
      <trkpt lat="47.42034" lon="0.79531">
        <ele>107.2</ele>
        <time>2023-07-14T07:30:21Z</time>
      </trkpt>
      <trkpt lat="47.42036" lon="0.79537">
        <ele>107</ele>
        <time>2023-07-14T07:30:22Z</time>
      </trkpt>
      <trkpt lat="47.42039" lon="0.7954">
        <ele>106.8</ele>
        <time>2023-07-14T07:30:23Z</time>
      </trkpt>
      <trkpt lat="47.42044" lon="0.79542">
        <ele>106.8</ele>
        <time>2023-07-14T07:30:24Z</time>
      </trkpt>
      <trkpt lat="47.42049" lon="0.79542">
        <ele>106.8</ele>
        <time>2023-07-14T07:30:25Z</time>
      </trkpt>
      <trkpt lat="47.42056" lon="0.79543">
        <ele>106.8</ele>
        <time>2023-07-14T07:30:26Z</time>
      </trkpt>
      <trkpt lat="47.42062" lon="0.79543">
        <ele>106.8</ele>
        <time>2023-07-14T07:30:27Z</time>
      </trkpt>
      <trkpt lat="47.42068" lon="0.79544">
        <ele>106.6</ele>
        <time>2023-07-14T07:30:28Z</time>
      </trkpt>
      <trkpt lat="47.42075" lon="0.79544">
        <ele>106.6</ele>
        <time>2023-07-14T07:30:29Z</time>
      </trkpt>
      <trkpt lat="47.42081" lon="0.79545">
        <ele>106.6</ele>
        <time>2023-07-14T07:30:30Z</time>
      </trkpt>
      <trkpt lat="47.42087" lon="0.79546">
        <ele>106.6</ele>
        <time>2023-07-14T07:30:31Z</time>
      </trkpt>
      <trkpt lat="47.42094" lon="0.79546">
        <ele>106.4</ele>
        <time>2023-07-14T07:30:32Z</time>
      </trkpt>
      <trkpt lat="47.421" lon="0.79548">
        <ele>106.4</ele>
        <time>2023-07-14T07:30:33Z</time>
      </trkpt>
      <trkpt lat="47.42107" lon="0.79549">
        <ele>106.6</ele>
        <time>2023-07-14T07:30:34Z</time>
      </trkpt>
      <trkpt lat="47.42114" lon="0.79551">
        <ele>106.6</ele>
        <time>2023-07-14T07:30:35Z</time>
      </trkpt>
      <trkpt lat="47.42121" lon="0.79553">
        <ele>106.6</ele>
        <time>2023-07-14T07:30:36Z</time>
      </trkpt>
      <trkpt lat="47.42127" lon="0.79555">
        <ele>106.6</ele>
        <time>2023-07-14T07:30:37Z</time>
      </trkpt>
      <trkpt lat="47.42134" lon="0.79557">
        <ele>106.4</ele>
        <time>2023-07-14T07:30:38Z</time>
      </trkpt>
      <trkpt lat="47.42141" lon="0.79558">
        <ele>106.4</ele>
        <time>2023-07-14T07:30:39Z</time>
      </trkpt>
      <trkpt lat="47.42148" lon="0.7956">
        <ele>106.4</ele>
        <time>2023-07-14T07:30:40Z</time>
      </trkpt>
      <trkpt lat="47.42155" lon="0.79562">
        <ele>106.4</ele>
        <time>2023-07-14T07:30:41Z</time>
      </trkpt>
      <trkpt lat="47.42162" lon="0.79564">
        <ele>106.4</ele>
        <time>2023-07-14T07:30:42Z</time>
      </trkpt>
      <trkpt lat="47.42168" lon="0.79566">
        <ele>106.2</ele>
        <time>2023-07-14T07:30:43Z</time>
      </trkpt>
      <trkpt lat="47.42175" lon="0.79567">
        <ele>106.2</ele>
        <time>2023-07-14T07:30:44Z</time>
      </trkpt>
      <trkpt lat="47.42181" lon="0.79569">
        <ele>106.2</ele>
        <time>2023-07-14T07:30:45Z</time>
      </trkpt>
      <trkpt lat="47.42187" lon="0.7957">
        <ele>106.2</ele>
        <time>2023-07-14T07:30:46Z</time>
      </trkpt>
      <trkpt lat="47.42193" lon="0.79571">
        <ele>106.2</ele>
        <time>2023-07-14T07:30:47Z</time>
      </trkpt>
      <trkpt lat="47.422" lon="0.79573">
        <ele>106.2</ele>
        <time>2023-07-14T07:30:48Z</time>
      </trkpt>
      <trkpt lat="47.42208" lon="0.79575">
        <ele>106.2</ele>
        <time>2023-07-14T07:30:49Z</time>
      </trkpt>
      <trkpt lat="47.42214" lon="0.79577">
        <ele>106</ele>
        <time>2023-07-14T07:30:50Z</time>
      </trkpt>
      <trkpt lat="47.4222" lon="0.79579">
        <ele>106</ele>
        <time>2023-07-14T07:30:51Z</time>
      </trkpt>
      <trkpt lat="47.42225" lon="0.7958">
        <ele>106.2</ele>
        <time>2023-07-14T07:30:52Z</time>
      </trkpt>
      <trkpt lat="47.42232" lon="0.79581">
        <ele>106.2</ele>
        <time>2023-07-14T07:30:53Z</time>
      </trkpt>
      <trkpt lat="47.42238" lon="0.79584">
        <ele>106.2</ele>
        <time>2023-07-14T07:30:54Z</time>
      </trkpt>
      <trkpt lat="47.42245" lon="0.79586">
        <ele>106.4</ele>
        <time>2023-07-14T07:30:55Z</time>
      </trkpt>
      <trkpt lat="47.42252" lon="0.79588">
        <ele>106.2</ele>
        <time>2023-07-14T07:30:56Z</time>
      </trkpt>
      <trkpt lat="47.42257" lon="0.79589">
        <ele>106.2</ele>
        <time>2023-07-14T07:30:57Z</time>
      </trkpt>
      <trkpt lat="47.42263" lon="0.79591">
        <ele>106.4</ele>
        <time>2023-07-14T07:30:58Z</time>
      </trkpt>
      <trkpt lat="47.4227" lon="0.79592">
        <ele>106.6</ele>
        <time>2023-07-14T07:30:59Z</time>
      </trkpt>
      <trkpt lat="47.42276" lon="0.79593">
        <ele>106.8</ele>
        <time>2023-07-14T07:31:00Z</time>
      </trkpt>
      <trkpt lat="47.42282" lon="0.79595">
        <ele>106.8</ele>
        <time>2023-07-14T07:31:01Z</time>
      </trkpt>
      <trkpt lat="47.42288" lon="0.79596">
        <ele>107</ele>
        <time>2023-07-14T07:31:02Z</time>
      </trkpt>
      <trkpt lat="47.42294" lon="0.79597">
        <ele>107</ele>
        <time>2023-07-14T07:31:03Z</time>
      </trkpt>
      <trkpt lat="47.423" lon="0.79597">
        <ele>107.2</ele>
        <time>2023-07-14T07:31:04Z</time>
      </trkpt>
      <trkpt lat="47.42306" lon="0.79598">
        <ele>107.2</ele>
        <time>2023-07-14T07:31:05Z</time>
      </trkpt>
      <trkpt lat="47.42312" lon="0.79599">
        <ele>107.4</ele>
        <time>2023-07-14T07:31:06Z</time>
      </trkpt>
      <trkpt lat="47.42318" lon="0.796">
        <ele>107.4</ele>
        <time>2023-07-14T07:31:07Z</time>
      </trkpt>
      <trkpt lat="47.42324" lon="0.796">
        <ele>107.6</ele>
        <time>2023-07-14T07:31:08Z</time>
      </trkpt>
      <trkpt lat="47.42331" lon="0.79601">
        <ele>107.6</ele>
        <time>2023-07-14T07:31:09Z</time>
      </trkpt>
      <trkpt lat="47.42337" lon="0.79601">
        <ele>107.6</ele>
        <time>2023-07-14T07:31:10Z</time>
      </trkpt>
      <trkpt lat="47.42343" lon="0.79602">
        <ele>107.6</ele>
        <time>2023-07-14T07:31:11Z</time>
      </trkpt>
      <trkpt lat="47.42349" lon="0.79603">
        <ele>107.4</ele>
        <time>2023-07-14T07:31:12Z</time>
      </trkpt>
      <trkpt lat="47.42356" lon="0.79604">
        <ele>107.4</ele>
        <time>2023-07-14T07:31:13Z</time>
      </trkpt>
      <trkpt lat="47.42363" lon="0.79605">
        <ele>107.4</ele>
        <time>2023-07-14T07:31:14Z</time>
      </trkpt>
      <trkpt lat="47.42369" lon="0.79605">
        <ele>107.4</ele>
        <time>2023-07-14T07:31:15Z</time>
      </trkpt>
      <trkpt lat="47.42376" lon="0.79606">
        <ele>107.2</ele>
        <time>2023-07-14T07:31:16Z</time>
      </trkpt>
      <trkpt lat="47.42383" lon="0.79607">
        <ele>107.2</ele>
        <time>2023-07-14T07:31:17Z</time>
      </trkpt>
      <trkpt lat="47.4239" lon="0.79608">
        <ele>107.2</ele>
        <time>2023-07-14T07:31:18Z</time>
      </trkpt>
      <trkpt lat="47.42397" lon="0.79608">
        <ele>107</ele>
        <time>2023-07-14T07:31:19Z</time>
      </trkpt>
      <trkpt lat="47.42403" lon="0.79609">
        <ele>107</ele>
        <time>2023-07-14T07:31:20Z</time>
      </trkpt>
      <trkpt lat="47.4241" lon="0.7961">
        <ele>106.8</ele>
        <time>2023-07-14T07:31:21Z</time>
      </trkpt>
      <trkpt lat="47.42417" lon="0.7961">
        <ele>106.6</ele>
        <time>2023-07-14T07:31:22Z</time>
      </trkpt>
      <trkpt lat="47.42424" lon="0.79611">
        <ele>106.4</ele>
        <time>2023-07-14T07:31:23Z</time>
      </trkpt>
      <trkpt lat="47.42431" lon="0.79612">
        <ele>106.2</ele>
        <time>2023-07-14T07:31:24Z</time>
      </trkpt>
      <trkpt lat="47.42438" lon="0.79613">
        <ele>106</ele>
        <time>2023-07-14T07:31:25Z</time>
      </trkpt>
      <trkpt lat="47.42445" lon="0.79614">
        <ele>106</ele>
        <time>2023-07-14T07:31:26Z</time>
      </trkpt>
      <trkpt lat="47.42451" lon="0.79615">
        <ele>105.8</ele>
        <time>2023-07-14T07:31:27Z</time>
      </trkpt>
      <trkpt lat="47.42458" lon="0.79615">
        <ele>105.6</ele>
        <time>2023-07-14T07:31:28Z</time>
      </trkpt>
      <trkpt lat="47.42465" lon="0.79617">
        <ele>105.4</ele>
        <time>2023-07-14T07:31:29Z</time>
      </trkpt>
      <trkpt lat="47.42473" lon="0.79618">
        <ele>105.2</ele>
        <time>2023-07-14T07:31:30Z</time>
      </trkpt>
      <trkpt lat="47.42482" lon="0.7962">
        <ele>105</ele>
        <time>2023-07-14T07:31:31Z</time>
      </trkpt>
      <trkpt lat="47.42491" lon="0.79621">
        <ele>104.8</ele>
        <time>2023-07-14T07:31:32Z</time>
      </trkpt>
      <trkpt lat="47.42499" lon="0.79624">
        <ele>104.8</ele>
        <time>2023-07-14T07:31:33Z</time>
      </trkpt>
      <trkpt lat="47.42506" lon="0.79627">
        <ele>104.2</ele>
        <time>2023-07-14T07:31:34Z</time>
      </trkpt>
      <trkpt lat="47.42511" lon="0.79631">
        <ele>103.8</ele>
        <time>2023-07-14T07:31:35Z</time>
      </trkpt>
      <trkpt lat="47.42514" lon="0.79635">
        <ele>103.2</ele>
        <time>2023-07-14T07:31:36Z</time>
      </trkpt>
      <trkpt lat="47.42516" lon="0.7964">
        <ele>102.8</ele>
        <time>2023-07-14T07:31:37Z</time>
      </trkpt>
      <trkpt lat="47.42518" lon="0.79644">
        <ele>102.4</ele>
        <time>2023-07-14T07:31:38Z</time>
      </trkpt>
      <trkpt lat="47.42521" lon="0.79648">
        <ele>102.2</ele>
        <time>2023-07-14T07:31:39Z</time>
      </trkpt>
      <trkpt lat="47.42525" lon="0.79651">
        <ele>102.2</ele>
        <time>2023-07-14T07:31:40Z</time>
      </trkpt>
      <trkpt lat="47.4253" lon="0.79652">
        <ele>102</ele>
        <time>2023-07-14T07:31:41Z</time>
      </trkpt>
      <trkpt lat="47.42535" lon="0.79653">
        <ele>102.2</ele>
        <time>2023-07-14T07:31:42Z</time>
      </trkpt>
      <trkpt lat="47.42541" lon="0.79654">
        <ele>102.4</ele>
        <time>2023-07-14T07:31:43Z</time>
      </trkpt>
      <trkpt lat="47.42546" lon="0.79655">
        <ele>102.4</ele>
        <time>2023-07-14T07:31:44Z</time>
      </trkpt>
      <trkpt lat="47.42552" lon="0.79656">
        <ele>102.6</ele>
        <time>2023-07-14T07:31:45Z</time>
      </trkpt>
      <trkpt lat="47.42557" lon="0.79658">
        <ele>102.8</ele>
        <time>2023-07-14T07:31:46Z</time>
      </trkpt>
      <trkpt lat="47.42562" lon="0.79661">
        <ele>103</ele>
        <time>2023-07-14T07:31:47Z</time>
      </trkpt>
      <trkpt lat="47.42569" lon="0.79663">
        <ele>103.2</ele>
        <time>2023-07-14T07:31:48Z</time>
      </trkpt>
      <trkpt lat="47.42574" lon="0.79664">
        <ele>103.4</ele>
        <time>2023-07-14T07:31:49Z</time>
      </trkpt>
      <trkpt lat="47.42579" lon="0.79666">
        <ele>103.6</ele>
        <time>2023-07-14T07:31:50Z</time>
      </trkpt>
      <trkpt lat="47.42585" lon="0.79668">
        <ele>103.6</ele>
        <time>2023-07-14T07:31:51Z</time>
      </trkpt>
      <trkpt lat="47.4259" lon="0.7967">
        <ele>103.8</ele>
        <time>2023-07-14T07:31:52Z</time>
      </trkpt>
      <trkpt lat="47.42596" lon="0.79671">
        <ele>104</ele>
        <time>2023-07-14T07:31:53Z</time>
      </trkpt>
      <trkpt lat="47.42602" lon="0.79671">
        <ele>104.2</ele>
        <time>2023-07-14T07:31:54Z</time>
      </trkpt>
      <trkpt lat="47.42609" lon="0.79672">
        <ele>104.2</ele>
        <time>2023-07-14T07:31:55Z</time>
      </trkpt>
      <trkpt lat="47.42614" lon="0.79673">
        <ele>104.4</ele>
        <time>2023-07-14T07:31:56Z</time>
      </trkpt>
      <trkpt lat="47.42619" lon="0.79674">
        <ele>104.6</ele>
        <time>2023-07-14T07:31:57Z</time>
      </trkpt>
      <trkpt lat="47.42625" lon="0.79675">
        <ele>104.8</ele>
        <time>2023-07-14T07:31:58Z</time>
      </trkpt>
      <trkpt lat="47.42631" lon="0.79678">
        <ele>105</ele>
        <time>2023-07-14T07:31:59Z</time>
      </trkpt>
      <trkpt lat="47.42638" lon="0.79679">
        <ele>105.2</ele>
        <time>2023-07-14T07:32:00Z</time>
      </trkpt>
      <trkpt lat="47.42644" lon="0.79681">
        <ele>105.4</ele>
        <time>2023-07-14T07:32:01Z</time>
      </trkpt>
      <trkpt lat="47.4265" lon="0.79683">
        <ele>105.6</ele>
        <time>2023-07-14T07:32:02Z</time>
      </trkpt>
      <trkpt lat="47.42655" lon="0.79685">
        <ele>105.8</ele>
        <time>2023-07-14T07:32:03Z</time>
      </trkpt>
      <trkpt lat="47.4266" lon="0.79685">
        <ele>106.2</ele>
        <time>2023-07-14T07:32:04Z</time>
      </trkpt>
      <trkpt lat="47.42665" lon="0.79686">
        <ele>106.6</ele>
        <time>2023-07-14T07:32:05Z</time>
      </trkpt>
      <trkpt lat="47.4267" lon="0.79687">
        <ele>106.8</ele>
        <time>2023-07-14T07:32:06Z</time>
      </trkpt>
      <trkpt lat="47.42676" lon="0.79688">
        <ele>107.2</ele>
        <time>2023-07-14T07:32:07Z</time>
      </trkpt>
      <trkpt lat="47.42682" lon="0.79689">
        <ele>107.4</ele>
        <time>2023-07-14T07:32:08Z</time>
      </trkpt>
      <trkpt lat="47.42688" lon="0.7969">
        <ele>107.6</ele>
        <time>2023-07-14T07:32:09Z</time>
      </trkpt>
      <trkpt lat="47.42693" lon="0.7969">
        <ele>108</ele>
        <time>2023-07-14T07:32:10Z</time>
      </trkpt>
      <trkpt lat="47.42698" lon="0.7969">
        <ele>108.2</ele>
        <time>2023-07-14T07:32:11Z</time>
      </trkpt>
      <trkpt lat="47.42704" lon="0.79688">
        <ele>108.4</ele>
        <time>2023-07-14T07:32:12Z</time>
      </trkpt>
      <trkpt lat="47.4271" lon="0.79686">
        <ele>108.6</ele>
        <time>2023-07-14T07:32:13Z</time>
      </trkpt>
      <trkpt lat="47.42715" lon="0.79684">
        <ele>109</ele>
        <time>2023-07-14T07:32:14Z</time>
      </trkpt>
      <trkpt lat="47.42721" lon="0.79682">
        <ele>109.2</ele>
        <time>2023-07-14T07:32:15Z</time>
      </trkpt>
      <trkpt lat="47.42726" lon="0.7968">
        <ele>109.4</ele>
        <time>2023-07-14T07:32:16Z</time>
      </trkpt>
      <trkpt lat="47.42731" lon="0.79677">
        <ele>109.6</ele>
        <time>2023-07-14T07:32:17Z</time>
      </trkpt>
      <trkpt lat="47.42737" lon="0.79676">
        <ele>110</ele>
        <time>2023-07-14T07:32:18Z</time>
      </trkpt>
      <trkpt lat="47.42742" lon="0.79675">
        <ele>110.2</ele>
        <time>2023-07-14T07:32:19Z</time>
      </trkpt>
      <trkpt lat="47.42747" lon="0.79675">
        <ele>110.4</ele>
        <time>2023-07-14T07:32:20Z</time>
      </trkpt>
      <trkpt lat="47.42753" lon="0.79675">
        <ele>110.6</ele>
        <time>2023-07-14T07:32:21Z</time>
      </trkpt>
      <trkpt lat="47.42759" lon="0.79675">
        <ele>110.8</ele>
        <time>2023-07-14T07:32:22Z</time>
      </trkpt>
      <trkpt lat="47.42764" lon="0.79676">
        <ele>111</ele>
        <time>2023-07-14T07:32:23Z</time>
      </trkpt>
      <trkpt lat="47.4277" lon="0.79677">
        <ele>111.4</ele>
        <time>2023-07-14T07:32:24Z</time>
      </trkpt>
      <trkpt lat="47.42776" lon="0.79678">
        <ele>111.4</ele>
        <time>2023-07-14T07:32:25Z</time>
      </trkpt>
      <trkpt lat="47.42783" lon="0.79679">
        <ele>111.6</ele>
        <time>2023-07-14T07:32:26Z</time>
      </trkpt>
      <trkpt lat="47.42789" lon="0.7968">
        <ele>112</ele>
        <time>2023-07-14T07:32:27Z</time>
      </trkpt>
      <trkpt lat="47.42795" lon="0.79681">
        <ele>112.2</ele>
        <time>2023-07-14T07:32:28Z</time>
      </trkpt>
      <trkpt lat="47.42802" lon="0.79681">
        <ele>112.4</ele>
        <time>2023-07-14T07:32:29Z</time>
      </trkpt>
      <trkpt lat="47.42807" lon="0.79682">
        <ele>112.6</ele>
        <time>2023-07-14T07:32:30Z</time>
      </trkpt>
      <trkpt lat="47.42813" lon="0.79683">
        <ele>112.8</ele>
        <time>2023-07-14T07:32:31Z</time>
      </trkpt>
      <trkpt lat="47.42818" lon="0.79684">
        <ele>113</ele>
        <time>2023-07-14T07:32:32Z</time>
      </trkpt>
      <trkpt lat="47.42825" lon="0.79684">
        <ele>113.2</ele>
        <time>2023-07-14T07:32:33Z</time>
      </trkpt>
      <trkpt lat="47.42831" lon="0.79685">
        <ele>113.2</ele>
        <time>2023-07-14T07:32:34Z</time>
      </trkpt>
      <trkpt lat="47.42837" lon="0.79686">
        <ele>113.4</ele>
        <time>2023-07-14T07:32:35Z</time>
      </trkpt>
      <trkpt lat="47.42843" lon="0.79687">
        <ele>113.4</ele>
        <time>2023-07-14T07:32:36Z</time>
      </trkpt>
      <trkpt lat="47.4285" lon="0.79688">
        <ele>113.6</ele>
        <time>2023-07-14T07:32:37Z</time>
      </trkpt>
      <trkpt lat="47.42857" lon="0.79688">
        <ele>113.6</ele>
        <time>2023-07-14T07:32:38Z</time>
      </trkpt>
      <trkpt lat="47.42863" lon="0.79689">
        <ele>113.8</ele>
        <time>2023-07-14T07:32:39Z</time>
      </trkpt>
      <trkpt lat="47.42868" lon="0.7969">
        <ele>113.8</ele>
        <time>2023-07-14T07:32:40Z</time>
      </trkpt>
      <trkpt lat="47.42876" lon="0.79691">
        <ele>114</ele>
        <time>2023-07-14T07:32:41Z</time>
      </trkpt>
      <trkpt lat="47.42883" lon="0.79692">
        <ele>114.2</ele>
        <time>2023-07-14T07:32:42Z</time>
      </trkpt>
      <trkpt lat="47.42889" lon="0.79693">
        <ele>114.2</ele>
        <time>2023-07-14T07:32:43Z</time>
      </trkpt>
      <trkpt lat="47.42895" lon="0.79693">
        <ele>114.4</ele>
        <time>2023-07-14T07:32:44Z</time>
      </trkpt>
      <trkpt lat="47.42901" lon="0.79694">
        <ele>114.4</ele>
        <time>2023-07-14T07:32:45Z</time>
      </trkpt>
      <trkpt lat="47.42909" lon="0.79695">
        <ele>114.6</ele>
        <time>2023-07-14T07:32:46Z</time>
      </trkpt>
      <trkpt lat="47.42915" lon="0.79696">
        <ele>114.4</ele>
        <time>2023-07-14T07:32:47Z</time>
      </trkpt>
      <trkpt lat="47.42922" lon="0.79697">
        <ele>114.4</ele>
        <time>2023-07-14T07:32:48Z</time>
      </trkpt>
      <trkpt lat="47.42929" lon="0.79697">
        <ele>114.4</ele>
        <time>2023-07-14T07:32:49Z</time>
      </trkpt>
      <trkpt lat="47.42936" lon="0.79698">
        <ele>114.4</ele>
        <time>2023-07-14T07:32:50Z</time>
      </trkpt>
      <trkpt lat="47.42942" lon="0.79699">
        <ele>114.4</ele>
        <time>2023-07-14T07:32:51Z</time>
      </trkpt>
      <trkpt lat="47.42949" lon="0.797">
        <ele>114.4</ele>
        <time>2023-07-14T07:32:52Z</time>
      </trkpt>
      <trkpt lat="47.42955" lon="0.79701">
        <ele>114.4</ele>
        <time>2023-07-14T07:32:53Z</time>
      </trkpt>
      <trkpt lat="47.4296" lon="0.79701">
        <ele>114.4</ele>
        <time>2023-07-14T07:32:54Z</time>
      </trkpt>
      <trkpt lat="47.42968" lon="0.79703">
        <ele>114.6</ele>
        <time>2023-07-14T07:32:55Z</time>
      </trkpt>
      <trkpt lat="47.42975" lon="0.79704">
        <ele>114.6</ele>
        <time>2023-07-14T07:32:56Z</time>
      </trkpt>
      <trkpt lat="47.42981" lon="0.79704">
        <ele>114.8</ele>
        <time>2023-07-14T07:32:57Z</time>
      </trkpt>
      <trkpt lat="47.42987" lon="0.79705">
        <ele>114.8</ele>
        <time>2023-07-14T07:32:58Z</time>
      </trkpt>
      <trkpt lat="47.42993" lon="0.79705">
        <ele>115</ele>
        <time>2023-07-14T07:32:59Z</time>
      </trkpt>
      <trkpt lat="47.42999" lon="0.79706">
        <ele>115.2</ele>
        <time>2023-07-14T07:33:00Z</time>
      </trkpt>
      <trkpt lat="47.43006" lon="0.79706">
        <ele>115.4</ele>
        <time>2023-07-14T07:33:01Z</time>
      </trkpt>
      <trkpt lat="47.43013" lon="0.79707">
        <ele>115.6</ele>
        <time>2023-07-14T07:33:02Z</time>
      </trkpt>
      <trkpt lat="47.4302" lon="0.79708">
        <ele>115.8</ele>
        <time>2023-07-14T07:33:03Z</time>
      </trkpt>
      <trkpt lat="47.43026" lon="0.79708">
        <ele>116</ele>
        <time>2023-07-14T07:33:04Z</time>
      </trkpt>
      <trkpt lat="47.43032" lon="0.79709">
        <ele>116.4</ele>
        <time>2023-07-14T07:33:05Z</time>
      </trkpt>
      <trkpt lat="47.43038" lon="0.7971">
        <ele>116.4</ele>
        <time>2023-07-14T07:33:06Z</time>
      </trkpt>
      <trkpt lat="47.43044" lon="0.79711">
        <ele>116.6</ele>
        <time>2023-07-14T07:33:07Z</time>
      </trkpt>
      <trkpt lat="47.4305" lon="0.79712">
        <ele>116.8</ele>
        <time>2023-07-14T07:33:08Z</time>
      </trkpt>
      <trkpt lat="47.43056" lon="0.79712">
        <ele>116.8</ele>
        <time>2023-07-14T07:33:09Z</time>
      </trkpt>
      <trkpt lat="47.43061" lon="0.79713">
        <ele>117</ele>
        <time>2023-07-14T07:33:10Z</time>
      </trkpt>
      <trkpt lat="47.43068" lon="0.79713">
        <ele>117.2</ele>
        <time>2023-07-14T07:33:11Z</time>
      </trkpt>
      <trkpt lat="47.43073" lon="0.79714">
        <ele>117.4</ele>
        <time>2023-07-14T07:33:12Z</time>
      </trkpt>
      <trkpt lat="47.43079" lon="0.79713">
        <ele>117.4</ele>
        <time>2023-07-14T07:33:13Z</time>
      </trkpt>
      <trkpt lat="47.43085" lon="0.79713">
        <ele>117.4</ele>
        <time>2023-07-14T07:33:14Z</time>
      </trkpt>
      <trkpt lat="47.43092" lon="0.79712">
        <ele>117.4</ele>
        <time>2023-07-14T07:33:15Z</time>
      </trkpt>
      <trkpt lat="47.43098" lon="0.79712">
        <ele>117.4</ele>
        <time>2023-07-14T07:33:16Z</time>
      </trkpt>
      <trkpt lat="47.43104" lon="0.79711">
        <ele>117.4</ele>
        <time>2023-07-14T07:33:17Z</time>
      </trkpt>
      <trkpt lat="47.4311" lon="0.79711">
        <ele>117.4</ele>
        <time>2023-07-14T07:33:18Z</time>
      </trkpt>
      <trkpt lat="47.43117" lon="0.7971">
        <ele>117.2</ele>
        <time>2023-07-14T07:33:19Z</time>
      </trkpt>
      <trkpt lat="47.43123" lon="0.7971">
        <ele>117.2</ele>
        <time>2023-07-14T07:33:20Z</time>
      </trkpt>
      <trkpt lat="47.4313" lon="0.79709">
        <ele>117.2</ele>
        <time>2023-07-14T07:33:21Z</time>
      </trkpt>
      <trkpt lat="47.43137" lon="0.79708">
        <ele>117.2</ele>
        <time>2023-07-14T07:33:22Z</time>
      </trkpt>
      <trkpt lat="47.43143" lon="0.79708">
        <ele>117.4</ele>
        <time>2023-07-14T07:33:23Z</time>
      </trkpt>
      <trkpt lat="47.4315" lon="0.79707">
        <ele>117.4</ele>
        <time>2023-07-14T07:33:24Z</time>
      </trkpt>
      <trkpt lat="47.43156" lon="0.79706">
        <ele>117.2</ele>
        <time>2023-07-14T07:33:25Z</time>
      </trkpt>
      <trkpt lat="47.43163" lon="0.79705">
        <ele>117.2</ele>
        <time>2023-07-14T07:33:26Z</time>
      </trkpt>
      <trkpt lat="47.4317" lon="0.79705">
        <ele>117.2</ele>
        <time>2023-07-14T07:33:27Z</time>
      </trkpt>
      <trkpt lat="47.43177" lon="0.79704">
        <ele>117.2</ele>
        <time>2023-07-14T07:33:28Z</time>
      </trkpt>
      <trkpt lat="47.43184" lon="0.79703">
        <ele>117.2</ele>
        <time>2023-07-14T07:33:29Z</time>
      </trkpt>
      <trkpt lat="47.4319" lon="0.79702">
        <ele>117</ele>
        <time>2023-07-14T07:33:30Z</time>
      </trkpt>
      <trkpt lat="47.43196" lon="0.79701">
        <ele>117</ele>
        <time>2023-07-14T07:33:31Z</time>
      </trkpt>
      <trkpt lat="47.43203" lon="0.79701">
        <ele>116.8</ele>
        <time>2023-07-14T07:33:32Z</time>
      </trkpt>
      <trkpt lat="47.4321" lon="0.79701">
        <ele>116.8</ele>
        <time>2023-07-14T07:33:33Z</time>
      </trkpt>
      <trkpt lat="47.43217" lon="0.797">
        <ele>116.8</ele>
        <time>2023-07-14T07:33:34Z</time>
      </trkpt>
      <trkpt lat="47.43223" lon="0.797">
        <ele>116.6</ele>
        <time>2023-07-14T07:33:35Z</time>
      </trkpt>
      <trkpt lat="47.43229" lon="0.797">
        <ele>116.8</ele>
        <time>2023-07-14T07:33:36Z</time>
      </trkpt>
      <trkpt lat="47.43236" lon="0.797">
        <ele>116.6</ele>
        <time>2023-07-14T07:33:37Z</time>
      </trkpt>
      <trkpt lat="47.43243" lon="0.79701">
        <ele>116.6</ele>
        <time>2023-07-14T07:33:38Z</time>
      </trkpt>
      <trkpt lat="47.43249" lon="0.79703">
        <ele>116.6</ele>
        <time>2023-07-14T07:33:39Z</time>
      </trkpt>
      <trkpt lat="47.43255" lon="0.79706">
        <ele>116.6</ele>
        <time>2023-07-14T07:33:40Z</time>
      </trkpt>
      <trkpt lat="47.43261" lon="0.79711">
        <ele>116.6</ele>
        <time>2023-07-14T07:33:41Z</time>
      </trkpt>
      <trkpt lat="47.43266" lon="0.79717">
        <ele>116.6</ele>
        <time>2023-07-14T07:33:42Z</time>
      </trkpt>
      <trkpt lat="47.4327" lon="0.79725">
        <ele>116.8</ele>
        <time>2023-07-14T07:33:43Z</time>
      </trkpt>
      <trkpt lat="47.43274" lon="0.79732">
        <ele>116.8</ele>
        <time>2023-07-14T07:33:44Z</time>
      </trkpt>
      <trkpt lat="47.43279" lon="0.79739">
        <ele>116.6</ele>
        <time>2023-07-14T07:33:45Z</time>
      </trkpt>
      <trkpt lat="47.43283" lon="0.79747">
        <ele>116.8</ele>
        <time>2023-07-14T07:33:46Z</time>
      </trkpt>
      <trkpt lat="47.43287" lon="0.79755">
        <ele>116.8</ele>
        <time>2023-07-14T07:33:47Z</time>
      </trkpt>
      <trkpt lat="47.43291" lon="0.79762">
        <ele>116.8</ele>
        <time>2023-07-14T07:33:48Z</time>
      </trkpt>
      <trkpt lat="47.43295" lon="0.7977">
        <ele>117</ele>
        <time>2023-07-14T07:33:49Z</time>
      </trkpt>
      <trkpt lat="47.43299" lon="0.79778">
        <ele>117</ele>
        <time>2023-07-14T07:33:50Z</time>
      </trkpt>
      <trkpt lat="47.43303" lon="0.79785">
        <ele>117.2</ele>
        <time>2023-07-14T07:33:51Z</time>
      </trkpt>
      <trkpt lat="47.43307" lon="0.79793">
        <ele>117.4</ele>
        <time>2023-07-14T07:33:52Z</time>
      </trkpt>
      <trkpt lat="47.43311" lon="0.798">
        <ele>117.4</ele>
        <time>2023-07-14T07:33:53Z</time>
      </trkpt>
      <trkpt lat="47.43316" lon="0.79807">
        <ele>117.6</ele>
        <time>2023-07-14T07:33:54Z</time>
      </trkpt>
      <trkpt lat="47.43319" lon="0.79813">
        <ele>117.6</ele>
        <time>2023-07-14T07:33:55Z</time>
      </trkpt>
      <trkpt lat="47.43324" lon="0.7982">
        <ele>117.8</ele>
        <time>2023-07-14T07:33:56Z</time>
      </trkpt>
      <trkpt lat="47.43328" lon="0.79827">
        <ele>117.8</ele>
        <time>2023-07-14T07:33:57Z</time>
      </trkpt>
      <trkpt lat="47.43333" lon="0.79834">
        <ele>117.8</ele>
        <time>2023-07-14T07:33:58Z</time>
      </trkpt>
      <trkpt lat="47.43337" lon="0.7984">
        <ele>117.8</ele>
        <time>2023-07-14T07:33:59Z</time>
      </trkpt>
      <trkpt lat="47.43342" lon="0.79847">
        <ele>118</ele>
        <time>2023-07-14T07:34:00Z</time>
      </trkpt>
      <trkpt lat="47.43347" lon="0.79853">
        <ele>118</ele>
        <time>2023-07-14T07:34:01Z</time>
      </trkpt>
      <trkpt lat="47.43352" lon="0.79859">
        <ele>118.2</ele>
        <time>2023-07-14T07:34:02Z</time>
      </trkpt>
      <trkpt lat="47.43356" lon="0.79865">
        <ele>118.2</ele>
        <time>2023-07-14T07:34:03Z</time>
      </trkpt>
      <trkpt lat="47.43361" lon="0.79872">
        <ele>118.4</ele>
        <time>2023-07-14T07:34:04Z</time>
      </trkpt>
      <trkpt lat="47.43365" lon="0.79878">
        <ele>118.4</ele>
        <time>2023-07-14T07:34:05Z</time>
      </trkpt>
      <trkpt lat="47.4337" lon="0.79884">
        <ele>118.6</ele>
        <time>2023-07-14T07:34:06Z</time>
      </trkpt>
      <trkpt lat="47.43375" lon="0.7989">
        <ele>118.8</ele>
        <time>2023-07-14T07:34:07Z</time>
      </trkpt>
      <trkpt lat="47.4338" lon="0.79896">
        <ele>118.8</ele>
        <time>2023-07-14T07:34:08Z</time>
      </trkpt>
      <trkpt lat="47.43384" lon="0.79902">
        <ele>119</ele>
        <time>2023-07-14T07:34:09Z</time>
      </trkpt>
      <trkpt lat="47.43388" lon="0.79907">
        <ele>119</ele>
        <time>2023-07-14T07:34:10Z</time>
      </trkpt>
      <trkpt lat="47.43393" lon="0.79914">
        <ele>119</ele>
        <time>2023-07-14T07:34:11Z</time>
      </trkpt>
      <trkpt lat="47.43398" lon="0.7992">
        <ele>119</ele>
        <time>2023-07-14T07:34:12Z</time>
      </trkpt>
      <trkpt lat="47.43402" lon="0.79927">
        <ele>119</ele>
        <time>2023-07-14T07:34:13Z</time>
      </trkpt>
      <trkpt lat="47.43406" lon="0.79933">
        <ele>119</ele>
        <time>2023-07-14T07:34:14Z</time>
      </trkpt>
      <trkpt lat="47.4341" lon="0.7994">
        <ele>119</ele>
        <time>2023-07-14T07:34:15Z</time>
      </trkpt>
      <trkpt lat="47.43414" lon="0.79946">
        <ele>119.2</ele>
        <time>2023-07-14T07:34:16Z</time>
      </trkpt>
      <trkpt lat="47.43417" lon="0.79953">
        <ele>119.2</ele>
        <time>2023-07-14T07:34:17Z</time>
      </trkpt>
      <trkpt lat="47.43422" lon="0.7996">
        <ele>119.4</ele>
        <time>2023-07-14T07:34:18Z</time>
      </trkpt>
      <trkpt lat="47.43426" lon="0.79966">
        <ele>119.2</ele>
        <time>2023-07-14T07:34:19Z</time>
      </trkpt>
      <trkpt lat="47.4343" lon="0.79973">
        <ele>119.2</ele>
        <time>2023-07-14T07:34:20Z</time>
      </trkpt>
      <trkpt lat="47.43435" lon="0.7998">
        <ele>119.2</ele>
        <time>2023-07-14T07:34:21Z</time>
      </trkpt>
      <trkpt lat="47.43439" lon="0.79987">
        <ele>119.4</ele>
        <time>2023-07-14T07:34:22Z</time>
      </trkpt>
      <trkpt lat="47.43443" lon="0.79993">
        <ele>119.4</ele>
        <time>2023-07-14T07:34:23Z</time>
      </trkpt>
      <trkpt lat="47.43447" lon="0.8">
        <ele>119.4</ele>
        <time>2023-07-14T07:34:24Z</time>
      </trkpt>
      <trkpt lat="47.43452" lon="0.80008">
        <ele>119.6</ele>
        <time>2023-07-14T07:34:25Z</time>
      </trkpt>
      <trkpt lat="47.43457" lon="0.80014">
        <ele>119.6</ele>
        <time>2023-07-14T07:34:26Z</time>
      </trkpt>
      <trkpt lat="47.43461" lon="0.8002">
        <ele>119.6</ele>
        <time>2023-07-14T07:34:27Z</time>
      </trkpt>
      <trkpt lat="47.43465" lon="0.80026">
        <ele>119.8</ele>
        <time>2023-07-14T07:34:28Z</time>
      </trkpt>
      <trkpt lat="47.4347" lon="0.80033">
        <ele>119.6</ele>
        <time>2023-07-14T07:34:29Z</time>
      </trkpt>
      <trkpt lat="47.43475" lon="0.8004">
        <ele>119.8</ele>
        <time>2023-07-14T07:34:30Z</time>
      </trkpt>
      <trkpt lat="47.4348" lon="0.80046">
        <ele>119.8</ele>
        <time>2023-07-14T07:34:31Z</time>
      </trkpt>
      <trkpt lat="47.43484" lon="0.80053">
        <ele>119.8</ele>
        <time>2023-07-14T07:34:32Z</time>
      </trkpt>
      <trkpt lat="47.43489" lon="0.80059">
        <ele>120</ele>
        <time>2023-07-14T07:34:33Z</time>
      </trkpt>
      <trkpt lat="47.43494" lon="0.80065">
        <ele>120</ele>
        <time>2023-07-14T07:34:34Z</time>
      </trkpt>
      <trkpt lat="47.43498" lon="0.80071">
        <ele>120.2</ele>
        <time>2023-07-14T07:34:35Z</time>
      </trkpt>
      <trkpt lat="47.43503" lon="0.80077">
        <ele>120.2</ele>
        <time>2023-07-14T07:34:36Z</time>
      </trkpt>
      <trkpt lat="47.43507" lon="0.80084">
        <ele>120.4</ele>
        <time>2023-07-14T07:34:37Z</time>
      </trkpt>
      <trkpt lat="47.43512" lon="0.8009">
        <ele>120.4</ele>
        <time>2023-07-14T07:34:38Z</time>
      </trkpt>
      <trkpt lat="47.43516" lon="0.80096">
        <ele>120.6</ele>
        <time>2023-07-14T07:34:39Z</time>
      </trkpt>
      <trkpt lat="47.43521" lon="0.80102">
        <ele>120.8</ele>
        <time>2023-07-14T07:34:40Z</time>
      </trkpt>
      <trkpt lat="47.43526" lon="0.80108">
        <ele>120.8</ele>
        <time>2023-07-14T07:34:41Z</time>
      </trkpt>
      <trkpt lat="47.43531" lon="0.80114">
        <ele>120.8</ele>
        <time>2023-07-14T07:34:42Z</time>
      </trkpt>
      <trkpt lat="47.43535" lon="0.80119">
        <ele>121</ele>
        <time>2023-07-14T07:34:43Z</time>
      </trkpt>
      <trkpt lat="47.43541" lon="0.80126">
        <ele>121</ele>
        <time>2023-07-14T07:34:44Z</time>
      </trkpt>
      <trkpt lat="47.43545" lon="0.80131">
        <ele>121.2</ele>
        <time>2023-07-14T07:34:45Z</time>
      </trkpt>
      <trkpt lat="47.4355" lon="0.80137">
        <ele>121.4</ele>
        <time>2023-07-14T07:34:46Z</time>
      </trkpt>
      <trkpt lat="47.43555" lon="0.80143">
        <ele>121.4</ele>
        <time>2023-07-14T07:34:47Z</time>
      </trkpt>
      <trkpt lat="47.43561" lon="0.80148">
        <ele>121.6</ele>
        <time>2023-07-14T07:34:48Z</time>
      </trkpt>
      <trkpt lat="47.43566" lon="0.80153">
        <ele>121.6</ele>
        <time>2023-07-14T07:34:49Z</time>
      </trkpt>
      <trkpt lat="47.43571" lon="0.80158">
        <ele>121.6</ele>
        <time>2023-07-14T07:34:50Z</time>
      </trkpt>
      <trkpt lat="47.43576" lon="0.80163">
        <ele>121.8</ele>
        <time>2023-07-14T07:34:51Z</time>
      </trkpt>
      <trkpt lat="47.43581" lon="0.80168">
        <ele>121.8</ele>
        <time>2023-07-14T07:34:52Z</time>
      </trkpt>
      <trkpt lat="47.43587" lon="0.80172">
        <ele>122</ele>
        <time>2023-07-14T07:34:53Z</time>
      </trkpt>
      <trkpt lat="47.43592" lon="0.80176">
        <ele>122</ele>
        <time>2023-07-14T07:34:54Z</time>
      </trkpt>
      <trkpt lat="47.43597" lon="0.8018">
        <ele>122.2</ele>
        <time>2023-07-14T07:34:55Z</time>
      </trkpt>
      <trkpt lat="47.43603" lon="0.80185">
        <ele>122.4</ele>
        <time>2023-07-14T07:34:56Z</time>
      </trkpt>
      <trkpt lat="47.43608" lon="0.80189">
        <ele>122.6</ele>
        <time>2023-07-14T07:34:57Z</time>
      </trkpt>
      <trkpt lat="47.43613" lon="0.80193">
        <ele>122.8</ele>
        <time>2023-07-14T07:34:58Z</time>
      </trkpt>
      <trkpt lat="47.43618" lon="0.80197">
        <ele>123</ele>
        <time>2023-07-14T07:34:59Z</time>
      </trkpt>
      <trkpt lat="47.43623" lon="0.80201">
        <ele>123.2</ele>
        <time>2023-07-14T07:35:00Z</time>
      </trkpt>
      <trkpt lat="47.43627" lon="0.80205">
        <ele>123.2</ele>
        <time>2023-07-14T07:35:01Z</time>
      </trkpt>
      <trkpt lat="47.43633" lon="0.80211">
        <ele>123.4</ele>
        <time>2023-07-14T07:35:02Z</time>
      </trkpt>
      <trkpt lat="47.43638" lon="0.80216">
        <ele>123.6</ele>
        <time>2023-07-14T07:35:03Z</time>
      </trkpt>
      <trkpt lat="47.43643" lon="0.80221">
        <ele>123.8</ele>
        <time>2023-07-14T07:35:04Z</time>
      </trkpt>
      <trkpt lat="47.43647" lon="0.80227">
        <ele>124</ele>
        <time>2023-07-14T07:35:05Z</time>
      </trkpt>
      <trkpt lat="47.43651" lon="0.80233">
        <ele>124</ele>
        <time>2023-07-14T07:35:06Z</time>
      </trkpt>
      <trkpt lat="47.43655" lon="0.8024">
        <ele>124.2</ele>
        <time>2023-07-14T07:35:07Z</time>
      </trkpt>
      <trkpt lat="47.43659" lon="0.80247">
        <ele>124.4</ele>
        <time>2023-07-14T07:35:08Z</time>
      </trkpt>
      <trkpt lat="47.43662" lon="0.80254">
        <ele>124.4</ele>
        <time>2023-07-14T07:35:09Z</time>
      </trkpt>
      <trkpt lat="47.43665" lon="0.80261">
        <ele>124.6</ele>
        <time>2023-07-14T07:35:10Z</time>
      </trkpt>
      <trkpt lat="47.43668" lon="0.80268">
        <ele>124.8</ele>
        <time>2023-07-14T07:35:11Z</time>
      </trkpt>
      <trkpt lat="47.43671" lon="0.80275">
        <ele>125</ele>
        <time>2023-07-14T07:35:12Z</time>
      </trkpt>
      <trkpt lat="47.43675" lon="0.80283">
        <ele>125.2</ele>
        <time>2023-07-14T07:35:13Z</time>
      </trkpt>
      <trkpt lat="47.43678" lon="0.80289">
        <ele>125.2</ele>
        <time>2023-07-14T07:35:14Z</time>
      </trkpt>
      <trkpt lat="47.43682" lon="0.80296">
        <ele>125.4</ele>
        <time>2023-07-14T07:35:15Z</time>
      </trkpt>
      <trkpt lat="47.43686" lon="0.80302">
        <ele>125.4</ele>
        <time>2023-07-14T07:35:16Z</time>
      </trkpt>
      <trkpt lat="47.4369" lon="0.80307">
        <ele>125.6</ele>
        <time>2023-07-14T07:35:17Z</time>
      </trkpt>
      <trkpt lat="47.43695" lon="0.80312">
        <ele>125.8</ele>
        <time>2023-07-14T07:35:18Z</time>
      </trkpt>
      <trkpt lat="47.43701" lon="0.80314">
        <ele>126</ele>
        <time>2023-07-14T07:35:19Z</time>
      </trkpt>
      <trkpt lat="47.43707" lon="0.80316">
        <ele>126</ele>
        <time>2023-07-14T07:35:20Z</time>
      </trkpt>
      <trkpt lat="47.43713" lon="0.80318">
        <ele>126.2</ele>
        <time>2023-07-14T07:35:21Z</time>
      </trkpt>
      <trkpt lat="47.43719" lon="0.80319">
        <ele>126.4</ele>
        <time>2023-07-14T07:35:22Z</time>
      </trkpt>
      <trkpt lat="47.43725" lon="0.8032">
        <ele>126.6</ele>
        <time>2023-07-14T07:35:23Z</time>
      </trkpt>
      <trkpt lat="47.43731" lon="0.8032">
        <ele>126.6</ele>
        <time>2023-07-14T07:35:24Z</time>
      </trkpt>
      <trkpt lat="47.43737" lon="0.80321">
        <ele>126.8</ele>
        <time>2023-07-14T07:35:25Z</time>
      </trkpt>
      <trkpt lat="47.43744" lon="0.8032">
        <ele>126.8</ele>
        <time>2023-07-14T07:35:26Z</time>
      </trkpt>
      <trkpt lat="47.4375" lon="0.8032">
        <ele>127</ele>
        <time>2023-07-14T07:35:27Z</time>
      </trkpt>
      <trkpt lat="47.43756" lon="0.8032">
        <ele>127.2</ele>
        <time>2023-07-14T07:35:28Z</time>
      </trkpt>
      <trkpt lat="47.43761" lon="0.8032">
        <ele>127.2</ele>
        <time>2023-07-14T07:35:29Z</time>
      </trkpt>
      <trkpt lat="47.43767" lon="0.8032">
        <ele>127.2</ele>
        <time>2023-07-14T07:35:30Z</time>
      </trkpt>
      <trkpt lat="47.43774" lon="0.8032">
        <ele>127.4</ele>
        <time>2023-07-14T07:35:31Z</time>
      </trkpt>
      <trkpt lat="47.43781" lon="0.80321">
        <ele>127.4</ele>
        <time>2023-07-14T07:35:32Z</time>
      </trkpt>
      <trkpt lat="47.43787" lon="0.80322">
        <ele>127.6</ele>
        <time>2023-07-14T07:35:33Z</time>
      </trkpt>
      <trkpt lat="47.43792" lon="0.80325">
        <ele>127.6</ele>
        <time>2023-07-14T07:35:34Z</time>
      </trkpt>
      <trkpt lat="47.43798" lon="0.80329">
        <ele>127.8</ele>
        <time>2023-07-14T07:35:35Z</time>
      </trkpt>
      <trkpt lat="47.43803" lon="0.80334">
        <ele>127.8</ele>
        <time>2023-07-14T07:35:36Z</time>
      </trkpt>
      <trkpt lat="47.43808" lon="0.80341">
        <ele>128</ele>
        <time>2023-07-14T07:35:37Z</time>
      </trkpt>
      <trkpt lat="47.43812" lon="0.80348">
        <ele>128.2</ele>
        <time>2023-07-14T07:35:38Z</time>
      </trkpt>
      <trkpt lat="47.43815" lon="0.80355">
        <ele>128.4</ele>
        <time>2023-07-14T07:35:39Z</time>
      </trkpt>
      <trkpt lat="47.43818" lon="0.80362">
        <ele>128.6</ele>
        <time>2023-07-14T07:35:40Z</time>
      </trkpt>
      <trkpt lat="47.43819" lon="0.80369">
        <ele>128.8</ele>
        <time>2023-07-14T07:35:41Z</time>
      </trkpt>
      <trkpt lat="47.43821" lon="0.80379">
        <ele>129</ele>
        <time>2023-07-14T07:35:42Z</time>
      </trkpt>
      <trkpt lat="47.43824" lon="0.80388">
        <ele>129.2</ele>
        <time>2023-07-14T07:35:43Z</time>
      </trkpt>
      <trkpt lat="47.43826" lon="0.80397">
        <ele>129.4</ele>
        <time>2023-07-14T07:35:44Z</time>
      </trkpt>
      <trkpt lat="47.43827" lon="0.80405">
        <ele>129.6</ele>
        <time>2023-07-14T07:35:45Z</time>
      </trkpt>
      <trkpt lat="47.43829" lon="0.80412">
        <ele>129.6</ele>
        <time>2023-07-14T07:35:46Z</time>
      </trkpt>
      <trkpt lat="47.43832" lon="0.80421">
        <ele>129.8</ele>
        <time>2023-07-14T07:35:47Z</time>
      </trkpt>
      <trkpt lat="47.43835" lon="0.80429">
        <ele>130</ele>
        <time>2023-07-14T07:35:48Z</time>
      </trkpt>
      <trkpt lat="47.43838" lon="0.80438">
        <ele>130</ele>
        <time>2023-07-14T07:35:49Z</time>
      </trkpt>
      <trkpt lat="47.43841" lon="0.80446">
        <ele>130.2</ele>
        <time>2023-07-14T07:35:50Z</time>
      </trkpt>
      <trkpt lat="47.43844" lon="0.80453">
        <ele>130.2</ele>
        <time>2023-07-14T07:35:51Z</time>
      </trkpt>
      <trkpt lat="47.43847" lon="0.8046">
        <ele>130.2</ele>
        <time>2023-07-14T07:35:52Z</time>
      </trkpt>
      <trkpt lat="47.43851" lon="0.80469">
        <ele>130.4</ele>
        <time>2023-07-14T07:35:53Z</time>
      </trkpt>
      <trkpt lat="47.43855" lon="0.80477">
        <ele>130.6</ele>
        <time>2023-07-14T07:35:54Z</time>
      </trkpt>
      <trkpt lat="47.43858" lon="0.80484">
        <ele>130.6</ele>
        <time>2023-07-14T07:35:55Z</time>
      </trkpt>
      <trkpt lat="47.43862" lon="0.80492">
        <ele>130.6</ele>
        <time>2023-07-14T07:35:56Z</time>
      </trkpt>
      <trkpt lat="47.43865" lon="0.80499">
        <ele>130.6</ele>
        <time>2023-07-14T07:35:57Z</time>
      </trkpt>
      <trkpt lat="47.43869" lon="0.80507">
        <ele>130.8</ele>
        <time>2023-07-14T07:35:58Z</time>
      </trkpt>
      <trkpt lat="47.43872" lon="0.80514">
        <ele>130.8</ele>
        <time>2023-07-14T07:35:59Z</time>
      </trkpt>
      <trkpt lat="47.43876" lon="0.80521">
        <ele>131</ele>
        <time>2023-07-14T07:36:00Z</time>
      </trkpt>
      <trkpt lat="47.4388" lon="0.80529">
        <ele>131.2</ele>
        <time>2023-07-14T07:36:01Z</time>
      </trkpt>
      <trkpt lat="47.43883" lon="0.80536">
        <ele>131.2</ele>
        <time>2023-07-14T07:36:02Z</time>
      </trkpt>
      <trkpt lat="47.43887" lon="0.80544">
        <ele>131.4</ele>
        <time>2023-07-14T07:36:03Z</time>
      </trkpt>
      <trkpt lat="47.4389" lon="0.80551">
        <ele>131.4</ele>
        <time>2023-07-14T07:36:04Z</time>
      </trkpt>
      <trkpt lat="47.43893" lon="0.80558">
        <ele>131.4</ele>
        <time>2023-07-14T07:36:05Z</time>
      </trkpt>
      <trkpt lat="47.43896" lon="0.80565">
        <ele>131.4</ele>
        <time>2023-07-14T07:36:06Z</time>
      </trkpt>
      <trkpt lat="47.439" lon="0.80574">
        <ele>131.4</ele>
        <time>2023-07-14T07:36:07Z</time>
      </trkpt>
      <trkpt lat="47.43904" lon="0.80582">
        <ele>131.4</ele>
        <time>2023-07-14T07:36:08Z</time>
      </trkpt>
      <trkpt lat="47.43908" lon="0.8059">
        <ele>131.4</ele>
        <time>2023-07-14T07:36:09Z</time>
      </trkpt>
      <trkpt lat="47.43911" lon="0.80598">
        <ele>131.4</ele>
        <time>2023-07-14T07:36:10Z</time>
      </trkpt>
      <trkpt lat="47.43915" lon="0.80606">
        <ele>131.4</ele>
        <time>2023-07-14T07:36:11Z</time>
      </trkpt>
      <trkpt lat="47.43919" lon="0.80614">
        <ele>131.6</ele>
        <time>2023-07-14T07:36:12Z</time>
      </trkpt>
      <trkpt lat="47.43922" lon="0.80623">
        <ele>131.6</ele>
        <time>2023-07-14T07:36:13Z</time>
      </trkpt>
      <trkpt lat="47.43926" lon="0.80631">
        <ele>131.6</ele>
        <time>2023-07-14T07:36:14Z</time>
      </trkpt>
      <trkpt lat="47.4393" lon="0.8064">
        <ele>131.6</ele>
        <time>2023-07-14T07:36:15Z</time>
      </trkpt>
      <trkpt lat="47.43933" lon="0.80648">
        <ele>131.8</ele>
        <time>2023-07-14T07:36:16Z</time>
      </trkpt>
      <trkpt lat="47.43937" lon="0.80656">
        <ele>131.8</ele>
        <time>2023-07-14T07:36:17Z</time>
      </trkpt>
      <trkpt lat="47.4394" lon="0.80664">
        <ele>131.6</ele>
        <time>2023-07-14T07:36:18Z</time>
      </trkpt>
      <trkpt lat="47.43944" lon="0.80672">
        <ele>131.6</ele>
        <time>2023-07-14T07:36:19Z</time>
      </trkpt>
      <trkpt lat="47.43947" lon="0.8068">
        <ele>131.6</ele>
        <time>2023-07-14T07:36:20Z</time>
      </trkpt>
      <trkpt lat="47.43951" lon="0.80689">
        <ele>131.6</ele>
        <time>2023-07-14T07:36:21Z</time>
      </trkpt>
      <trkpt lat="47.43955" lon="0.80697">
        <ele>131.6</ele>
        <time>2023-07-14T07:36:22Z</time>
      </trkpt>
      <trkpt lat="47.43959" lon="0.80704">
        <ele>131.6</ele>
        <time>2023-07-14T07:36:23Z</time>
      </trkpt>
      <trkpt lat="47.43962" lon="0.8071">
        <ele>131.6</ele>
        <time>2023-07-14T07:36:24Z</time>
      </trkpt>
      <trkpt lat="47.43967" lon="0.80718">
        <ele>131.8</ele>
        <time>2023-07-14T07:36:25Z</time>
      </trkpt>
      <trkpt lat="47.43971" lon="0.80726">
        <ele>131.8</ele>
        <time>2023-07-14T07:36:26Z</time>
      </trkpt>
      <trkpt lat="47.43976" lon="0.80734">
        <ele>131.8</ele>
        <time>2023-07-14T07:36:27Z</time>
      </trkpt>
      <trkpt lat="47.4398" lon="0.80742">
        <ele>131.8</ele>
        <time>2023-07-14T07:36:28Z</time>
      </trkpt>
      <trkpt lat="47.43985" lon="0.80749">
        <ele>131.8</ele>
        <time>2023-07-14T07:36:29Z</time>
      </trkpt>
      <trkpt lat="47.43989" lon="0.80757">
        <ele>132</ele>
        <time>2023-07-14T07:36:30Z</time>
      </trkpt>
      <trkpt lat="47.43993" lon="0.80764">
        <ele>132</ele>
        <time>2023-07-14T07:36:31Z</time>
      </trkpt>
      <trkpt lat="47.43998" lon="0.80772">
        <ele>131.8</ele>
        <time>2023-07-14T07:36:32Z</time>
      </trkpt>
      <trkpt lat="47.44001" lon="0.8078">
        <ele>131.8</ele>
        <time>2023-07-14T07:36:33Z</time>
      </trkpt>
      <trkpt lat="47.44006" lon="0.80788">
        <ele>131.8</ele>
        <time>2023-07-14T07:36:34Z</time>
      </trkpt>
      <trkpt lat="47.44011" lon="0.80796">
        <ele>131.8</ele>
        <time>2023-07-14T07:36:35Z</time>
      </trkpt>
      <trkpt lat="47.44015" lon="0.80804">
        <ele>131.8</ele>
        <time>2023-07-14T07:36:36Z</time>
      </trkpt>
      <trkpt lat="47.4402" lon="0.80812">
        <ele>131.6</ele>
        <time>2023-07-14T07:36:37Z</time>
      </trkpt>
      <trkpt lat="47.44024" lon="0.8082">
        <ele>131.2</ele>
        <time>2023-07-14T07:36:38Z</time>
      </trkpt>
      <trkpt lat="47.4403" lon="0.80828">
        <ele>131</ele>
        <time>2023-07-14T07:36:39Z</time>
      </trkpt>
      <trkpt lat="47.44036" lon="0.80835">
        <ele>130.6</ele>
        <time>2023-07-14T07:36:40Z</time>
      </trkpt>
      <trkpt lat="47.44042" lon="0.80839">
        <ele>130.4</ele>
        <time>2023-07-14T07:36:41Z</time>
      </trkpt>
      <trkpt lat="47.44049" lon="0.80841">
        <ele>130.2</ele>
        <time>2023-07-14T07:36:42Z</time>
      </trkpt>
      <trkpt lat="47.44057" lon="0.80842">
        <ele>129.8</ele>
        <time>2023-07-14T07:36:43Z</time>
      </trkpt>
      <trkpt lat="47.44065" lon="0.80843">
        <ele>129.8</ele>
        <time>2023-07-14T07:36:44Z</time>
      </trkpt>
      <trkpt lat="47.44072" lon="0.80844">
        <ele>129.8</ele>
        <time>2023-07-14T07:36:45Z</time>
      </trkpt>
      <trkpt lat="47.4408" lon="0.80845">
        <ele>129.6</ele>
        <time>2023-07-14T07:36:46Z</time>
      </trkpt>
      <trkpt lat="47.44088" lon="0.80847">
        <ele>129.4</ele>
        <time>2023-07-14T07:36:47Z</time>
      </trkpt>
      <trkpt lat="47.44096" lon="0.80848">
        <ele>129.2</ele>
        <time>2023-07-14T07:36:48Z</time>
      </trkpt>
      <trkpt lat="47.44104" lon="0.8085">
        <ele>128.8</ele>
        <time>2023-07-14T07:36:49Z</time>
      </trkpt>
      <trkpt lat="47.44112" lon="0.80851">
        <ele>128.6</ele>
        <time>2023-07-14T07:36:50Z</time>
      </trkpt>
      <trkpt lat="47.44121" lon="0.80853">
        <ele>128.4</ele>
        <time>2023-07-14T07:36:51Z</time>
      </trkpt>
      <trkpt lat="47.44129" lon="0.80855">
        <ele>128.2</ele>
        <time>2023-07-14T07:36:52Z</time>
      </trkpt>
      <trkpt lat="47.44138" lon="0.80857">
        <ele>127.8</ele>
        <time>2023-07-14T07:36:53Z</time>
      </trkpt>
      <trkpt lat="47.44147" lon="0.80859">
        <ele>127.4</ele>
        <time>2023-07-14T07:36:54Z</time>
      </trkpt>
      <trkpt lat="47.44155" lon="0.80862">
        <ele>127.2</ele>
        <time>2023-07-14T07:36:55Z</time>
      </trkpt>
      <trkpt lat="47.44163" lon="0.80865">
        <ele>126.8</ele>
        <time>2023-07-14T07:36:56Z</time>
      </trkpt>
      <trkpt lat="47.44172" lon="0.80867">
        <ele>126.6</ele>
        <time>2023-07-14T07:36:57Z</time>
      </trkpt>
      <trkpt lat="47.44182" lon="0.80871">
        <ele>126.2</ele>
        <time>2023-07-14T07:36:58Z</time>
      </trkpt>
      <trkpt lat="47.44191" lon="0.80874">
        <ele>126</ele>
        <time>2023-07-14T07:36:59Z</time>
      </trkpt>
      <trkpt lat="47.442" lon="0.80878">
        <ele>125.6</ele>
        <time>2023-07-14T07:37:00Z</time>
      </trkpt>
      <trkpt lat="47.4421" lon="0.80882">
        <ele>125</ele>
        <time>2023-07-14T07:37:01Z</time>
      </trkpt>
      <trkpt lat="47.44219" lon="0.80885">
        <ele>124.4</ele>
        <time>2023-07-14T07:37:02Z</time>
      </trkpt>
      <trkpt lat="47.44229" lon="0.80889">
        <ele>123.6</ele>
        <time>2023-07-14T07:37:03Z</time>
      </trkpt>
      <trkpt lat="47.44239" lon="0.80893">
        <ele>122.6</ele>
        <time>2023-07-14T07:37:04Z</time>
      </trkpt>
      <trkpt lat="47.44248" lon="0.80896">
        <ele>122</ele>
        <time>2023-07-14T07:37:05Z</time>
      </trkpt>
      <trkpt lat="47.44258" lon="0.809">
        <ele>121.2</ele>
        <time>2023-07-14T07:37:06Z</time>
      </trkpt>
      <trkpt lat="47.4427" lon="0.80905">
        <ele>120.4</ele>
        <time>2023-07-14T07:37:07Z</time>
      </trkpt>
      <trkpt lat="47.44281" lon="0.80909">
        <ele>119.4</ele>
        <time>2023-07-14T07:37:08Z</time>
      </trkpt>
      <trkpt lat="47.4429" lon="0.80912">
        <ele>118.6</ele>
        <time>2023-07-14T07:37:09Z</time>
      </trkpt>
      <trkpt lat="47.44298" lon="0.80916">
        <ele>117.8</ele>
        <time>2023-07-14T07:37:10Z</time>
      </trkpt>
      <trkpt lat="47.44307" lon="0.80919">
        <ele>116.8</ele>
        <time>2023-07-14T07:37:11Z</time>
      </trkpt>
      <trkpt lat="47.44315" lon="0.80923">
        <ele>116</ele>
        <time>2023-07-14T07:37:12Z</time>
      </trkpt>
      <trkpt lat="47.44321" lon="0.80926">
        <ele>115.4</ele>
        <time>2023-07-14T07:37:13Z</time>
      </trkpt>
      <trkpt lat="47.44326" lon="0.80929">
        <ele>114.8</ele>
        <time>2023-07-14T07:37:14Z</time>
      </trkpt>
      <trkpt lat="47.4433" lon="0.80933">
        <ele>114.2</ele>
        <time>2023-07-14T07:37:15Z</time>
      </trkpt>
      <trkpt lat="47.44333" lon="0.80939">
        <ele>113.8</ele>
        <time>2023-07-14T07:37:16Z</time>
      </trkpt>
      <trkpt lat="47.44333" lon="0.80948">
        <ele>113.4</ele>
        <time>2023-07-14T07:37:17Z</time>
      </trkpt>
      <trkpt lat="47.44332" lon="0.80957">
        <ele>113.2</ele>
        <time>2023-07-14T07:37:18Z</time>
      </trkpt>
      <trkpt lat="47.44329" lon="0.80968">
        <ele>113.2</ele>
        <time>2023-07-14T07:37:19Z</time>
      </trkpt>
      <trkpt lat="47.44327" lon="0.80978">
        <ele>113</ele>
        <time>2023-07-14T07:37:20Z</time>
      </trkpt>
      <trkpt lat="47.44325" lon="0.80989">
        <ele>112.6</ele>
        <time>2023-07-14T07:37:21Z</time>
      </trkpt>
      <trkpt lat="47.44323" lon="0.80999">
        <ele>112.2</ele>
        <time>2023-07-14T07:37:22Z</time>
      </trkpt>
      <trkpt lat="47.4432" lon="0.8101">
        <ele>111.8</ele>
        <time>2023-07-14T07:37:23Z</time>
      </trkpt>
      <trkpt lat="47.44317" lon="0.81022">
        <ele>111.6</ele>
        <time>2023-07-14T07:37:24Z</time>
      </trkpt>
      <trkpt lat="47.44315" lon="0.81033">
        <ele>111.2</ele>
        <time>2023-07-14T07:37:25Z</time>
      </trkpt>
      <trkpt lat="47.44312" lon="0.81045">
        <ele>111</ele>
        <time>2023-07-14T07:37:26Z</time>
      </trkpt>
      <trkpt lat="47.4431" lon="0.81057">
        <ele>110.8</ele>
        <time>2023-07-14T07:37:27Z</time>
      </trkpt>
      <trkpt lat="47.44307" lon="0.81069">
        <ele>110.4</ele>
        <time>2023-07-14T07:37:28Z</time>
      </trkpt>
      <trkpt lat="47.44305" lon="0.81081">
        <ele>110.2</ele>
        <time>2023-07-14T07:37:29Z</time>
      </trkpt>
      <trkpt lat="47.44303" lon="0.81094">
        <ele>109.8</ele>
        <time>2023-07-14T07:37:30Z</time>
      </trkpt>
      <trkpt lat="47.443" lon="0.81107">
        <ele>109.6</ele>
        <time>2023-07-14T07:37:31Z</time>
      </trkpt>
      <trkpt lat="47.44298" lon="0.81119">
        <ele>109.4</ele>
        <time>2023-07-14T07:37:32Z</time>
      </trkpt>
      <trkpt lat="47.44296" lon="0.81131">
        <ele>109.4</ele>
        <time>2023-07-14T07:37:33Z</time>
      </trkpt>
      <trkpt lat="47.44294" lon="0.81143">
        <ele>109.2</ele>
        <time>2023-07-14T07:37:34Z</time>
      </trkpt>
      <trkpt lat="47.44291" lon="0.81155">
        <ele>109</ele>
        <time>2023-07-14T07:37:35Z</time>
      </trkpt>
      <trkpt lat="47.44288" lon="0.81167">
        <ele>108.8</ele>
        <time>2023-07-14T07:37:36Z</time>
      </trkpt>
      <trkpt lat="47.44286" lon="0.81178">
        <ele>108.4</ele>
        <time>2023-07-14T07:37:37Z</time>
      </trkpt>
      <trkpt lat="47.44283" lon="0.81189">
        <ele>108.2</ele>
        <time>2023-07-14T07:37:38Z</time>
      </trkpt>
      <trkpt lat="47.44281" lon="0.812">
        <ele>108</ele>
        <time>2023-07-14T07:37:39Z</time>
      </trkpt>
      <trkpt lat="47.44279" lon="0.81209">
        <ele>107.8</ele>
        <time>2023-07-14T07:37:40Z</time>
      </trkpt>
      <trkpt lat="47.44277" lon="0.81219">
        <ele>107.6</ele>
        <time>2023-07-14T07:37:41Z</time>
      </trkpt>
      <trkpt lat="47.44275" lon="0.81228">
        <ele>107.4</ele>
        <time>2023-07-14T07:37:42Z</time>
      </trkpt>
      <trkpt lat="47.44274" lon="0.81237">
        <ele>107.4</ele>
        <time>2023-07-14T07:37:43Z</time>
      </trkpt>
      <trkpt lat="47.44272" lon="0.81247">
        <ele>107.4</ele>
        <time>2023-07-14T07:37:44Z</time>
      </trkpt>
      <trkpt lat="47.4427" lon="0.81256">
        <ele>107.4</ele>
        <time>2023-07-14T07:37:45Z</time>
      </trkpt>
      <trkpt lat="47.44268" lon="0.81266">
        <ele>107.4</ele>
        <time>2023-07-14T07:37:46Z</time>
      </trkpt>
      <trkpt lat="47.44266" lon="0.81275">
        <ele>107.6</ele>
        <time>2023-07-14T07:37:47Z</time>
      </trkpt>
      <trkpt lat="47.44263" lon="0.81285">
        <ele>107.6</ele>
        <time>2023-07-14T07:37:48Z</time>
      </trkpt>
      <trkpt lat="47.44262" lon="0.81295">
        <ele>107.6</ele>
        <time>2023-07-14T07:37:49Z</time>
      </trkpt>
      <trkpt lat="47.4426" lon="0.81305">
        <ele>107.6</ele>
        <time>2023-07-14T07:37:50Z</time>
      </trkpt>
      <trkpt lat="47.44258" lon="0.81314">
        <ele>107.6</ele>
        <time>2023-07-14T07:37:51Z</time>
      </trkpt>
      <trkpt lat="47.44256" lon="0.81324">
        <ele>107.4</ele>
        <time>2023-07-14T07:37:52Z</time>
      </trkpt>
      <trkpt lat="47.44254" lon="0.81334">
        <ele>107.4</ele>
        <time>2023-07-14T07:37:53Z</time>
      </trkpt>
      <trkpt lat="47.44252" lon="0.81344">
        <ele>107.2</ele>
        <time>2023-07-14T07:37:54Z</time>
      </trkpt>
      <trkpt lat="47.4425" lon="0.81355">
        <ele>107.2</ele>
        <time>2023-07-14T07:37:55Z</time>
      </trkpt>
      <trkpt lat="47.44248" lon="0.81365">
        <ele>107</ele>
        <time>2023-07-14T07:37:56Z</time>
      </trkpt>
      <trkpt lat="47.44246" lon="0.81376">
        <ele>106.8</ele>
        <time>2023-07-14T07:37:57Z</time>
      </trkpt>
      <trkpt lat="47.44244" lon="0.81386">
        <ele>106.6</ele>
        <time>2023-07-14T07:37:58Z</time>
      </trkpt>
      <trkpt lat="47.44242" lon="0.81397">
        <ele>106.6</ele>
        <time>2023-07-14T07:37:59Z</time>
      </trkpt>
      <trkpt lat="47.44239" lon="0.81407">
        <ele>106.4</ele>
        <time>2023-07-14T07:38:00Z</time>
      </trkpt>
      <trkpt lat="47.44237" lon="0.81418">
        <ele>106.4</ele>
        <time>2023-07-14T07:38:01Z</time>
      </trkpt>
      <trkpt lat="47.44235" lon="0.81429">
        <ele>106.4</ele>
        <time>2023-07-14T07:38:02Z</time>
      </trkpt>
      <trkpt lat="47.44233" lon="0.8144">
        <ele>106.4</ele>
        <time>2023-07-14T07:38:03Z</time>
      </trkpt>
      <trkpt lat="47.44231" lon="0.81451">
        <ele>106</ele>
        <time>2023-07-14T07:38:04Z</time>
      </trkpt>
      <trkpt lat="47.44229" lon="0.81462">
        <ele>105.8</ele>
        <time>2023-07-14T07:38:05Z</time>
      </trkpt>
      <trkpt lat="47.44227" lon="0.81473">
        <ele>105.6</ele>
        <time>2023-07-14T07:38:06Z</time>
      </trkpt>
      <trkpt lat="47.44226" lon="0.81485">
        <ele>105.2</ele>
        <time>2023-07-14T07:38:07Z</time>
      </trkpt>
      <trkpt lat="47.44226" lon="0.81497">
        <ele>105</ele>
        <time>2023-07-14T07:38:08Z</time>
      </trkpt>
      <trkpt lat="47.44226" lon="0.81508">
        <ele>104.6</ele>
        <time>2023-07-14T07:38:09Z</time>
      </trkpt>
      <trkpt lat="47.44226" lon="0.8152">
        <ele>104.4</ele>
        <time>2023-07-14T07:38:10Z</time>
      </trkpt>
      <trkpt lat="47.44227" lon="0.81531">
        <ele>104</ele>
        <time>2023-07-14T07:38:11Z</time>
      </trkpt>
      <trkpt lat="47.44228" lon="0.81542">
        <ele>103.6</ele>
        <time>2023-07-14T07:38:12Z</time>
      </trkpt>
      <trkpt lat="47.44228" lon="0.81554">
        <ele>103.6</ele>
        <time>2023-07-14T07:38:13Z</time>
      </trkpt>
      <trkpt lat="47.44228" lon="0.81566">
        <ele>103.4</ele>
        <time>2023-07-14T07:38:14Z</time>
      </trkpt>
      <trkpt lat="47.44229" lon="0.81578">
        <ele>103.2</ele>
        <time>2023-07-14T07:38:15Z</time>
      </trkpt>
      <trkpt lat="47.44229" lon="0.81589">
        <ele>103.2</ele>
        <time>2023-07-14T07:38:16Z</time>
      </trkpt>
      <trkpt lat="47.4423" lon="0.81601">
        <ele>103</ele>
        <time>2023-07-14T07:38:17Z</time>
      </trkpt>
      <trkpt lat="47.4423" lon="0.81612">
        <ele>103</ele>
        <time>2023-07-14T07:38:18Z</time>
      </trkpt>
      <trkpt lat="47.4423" lon="0.81623">
        <ele>103</ele>
        <time>2023-07-14T07:38:19Z</time>
      </trkpt>
      <trkpt lat="47.4423" lon="0.81633">
        <ele>103</ele>
        <time>2023-07-14T07:38:20Z</time>
      </trkpt>
      <trkpt lat="47.4423" lon="0.81644">
        <ele>103</ele>
        <time>2023-07-14T07:38:21Z</time>
      </trkpt>
      <trkpt lat="47.4423" lon="0.81656">
        <ele>102.8</ele>
        <time>2023-07-14T07:38:22Z</time>
      </trkpt>
      <trkpt lat="47.44229" lon="0.81667">
        <ele>102.6</ele>
        <time>2023-07-14T07:38:23Z</time>
      </trkpt>
      <trkpt lat="47.44229" lon="0.81679">
        <ele>102.4</ele>
        <time>2023-07-14T07:38:24Z</time>
      </trkpt>
      <trkpt lat="47.44229" lon="0.81691">
        <ele>102.4</ele>
        <time>2023-07-14T07:38:25Z</time>
      </trkpt>
      <trkpt lat="47.44229" lon="0.81702">
        <ele>102.4</ele>
        <time>2023-07-14T07:38:26Z</time>
      </trkpt>
      <trkpt lat="47.44229" lon="0.81714">
        <ele>102.4</ele>
        <time>2023-07-14T07:38:27Z</time>
      </trkpt>
      <trkpt lat="47.44229" lon="0.81725">
        <ele>102.4</ele>
        <time>2023-07-14T07:38:28Z</time>
      </trkpt>
      <trkpt lat="47.4423" lon="0.81737">
        <ele>102.4</ele>
        <time>2023-07-14T07:38:29Z</time>
      </trkpt>
      <trkpt lat="47.4423" lon="0.81749">
        <ele>102.2</ele>
        <time>2023-07-14T07:38:30Z</time>
      </trkpt>
      <trkpt lat="47.4423" lon="0.81759">
        <ele>102.2</ele>
        <time>2023-07-14T07:38:31Z</time>
      </trkpt>
      <trkpt lat="47.44231" lon="0.81769">
        <ele>102.2</ele>
        <time>2023-07-14T07:38:32Z</time>
      </trkpt>
      <trkpt lat="47.44231" lon="0.81781">
        <ele>102.2</ele>
        <time>2023-07-14T07:38:33Z</time>
      </trkpt>
      <trkpt lat="47.44232" lon="0.81794">
        <ele>102.2</ele>
        <time>2023-07-14T07:38:34Z</time>
      </trkpt>
      <trkpt lat="47.44232" lon="0.81804">
        <ele>102.2</ele>
        <time>2023-07-14T07:38:35Z</time>
      </trkpt>
      <trkpt lat="47.44232" lon="0.81816">
        <ele>102.2</ele>
        <time>2023-07-14T07:38:36Z</time>
      </trkpt>
      <trkpt lat="47.44232" lon="0.81825">
        <ele>102.2</ele>
        <time>2023-07-14T07:38:37Z</time>
      </trkpt>
      <trkpt lat="47.44232" lon="0.81835">
        <ele>102.2</ele>
        <time>2023-07-14T07:38:38Z</time>
      </trkpt>
      <trkpt lat="47.44231" lon="0.81847">
        <ele>102.2</ele>
        <time>2023-07-14T07:38:39Z</time>
      </trkpt>
      <trkpt lat="47.44231" lon="0.81858">
        <ele>102.4</ele>
        <time>2023-07-14T07:38:40Z</time>
      </trkpt>
      <trkpt lat="47.4423" lon="0.81868">
        <ele>102.2</ele>
        <time>2023-07-14T07:38:41Z</time>
      </trkpt>
      <trkpt lat="47.44229" lon="0.81879">
        <ele>102</ele>
        <time>2023-07-14T07:38:42Z</time>
      </trkpt>
      <trkpt lat="47.44228" lon="0.8189">
        <ele>102</ele>
        <time>2023-07-14T07:38:43Z</time>
      </trkpt>
      <trkpt lat="47.44227" lon="0.819">
        <ele>101.8</ele>
        <time>2023-07-14T07:38:44Z</time>
      </trkpt>
      <trkpt lat="47.44226" lon="0.81911">
        <ele>101.6</ele>
        <time>2023-07-14T07:38:45Z</time>
      </trkpt>
      <trkpt lat="47.44225" lon="0.81922">
        <ele>101.4</ele>
        <time>2023-07-14T07:38:46Z</time>
      </trkpt>
      <trkpt lat="47.44224" lon="0.81932">
        <ele>101.4</ele>
        <time>2023-07-14T07:38:47Z</time>
      </trkpt>
      <trkpt lat="47.44223" lon="0.81942">
        <ele>101.2</ele>
        <time>2023-07-14T07:38:48Z</time>
      </trkpt>
      <trkpt lat="47.44221" lon="0.81953">
        <ele>101.2</ele>
        <time>2023-07-14T07:38:49Z</time>
      </trkpt>
      <trkpt lat="47.4422" lon="0.81963">
        <ele>101.2</ele>
        <time>2023-07-14T07:38:50Z</time>
      </trkpt>
      <trkpt lat="47.44218" lon="0.81974">
        <ele>101</ele>
        <time>2023-07-14T07:38:51Z</time>
      </trkpt>
      <trkpt lat="47.44217" lon="0.81984">
        <ele>101</ele>
        <time>2023-07-14T07:38:52Z</time>
      </trkpt>
      <trkpt lat="47.44215" lon="0.81995">
        <ele>100.8</ele>
        <time>2023-07-14T07:38:53Z</time>
      </trkpt>
      <trkpt lat="47.44212" lon="0.82005">
        <ele>100.6</ele>
        <time>2023-07-14T07:38:54Z</time>
      </trkpt>
      <trkpt lat="47.4421" lon="0.82015">
        <ele>100.6</ele>
        <time>2023-07-14T07:38:55Z</time>
      </trkpt>
      <trkpt lat="47.44207" lon="0.82025">
        <ele>100.4</ele>
        <time>2023-07-14T07:38:56Z</time>
      </trkpt>
      <trkpt lat="47.44204" lon="0.82035">
        <ele>100.4</ele>
        <time>2023-07-14T07:38:57Z</time>
      </trkpt>
      <trkpt lat="47.442" lon="0.82044">
        <ele>100.2</ele>
        <time>2023-07-14T07:38:58Z</time>
      </trkpt>
      <trkpt lat="47.44196" lon="0.82053">
        <ele>100.2</ele>
        <time>2023-07-14T07:38:59Z</time>
      </trkpt>
      <trkpt lat="47.44192" lon="0.82061">
        <ele>100</ele>
        <time>2023-07-14T07:39:00Z</time>
      </trkpt>
      <trkpt lat="47.44189" lon="0.8207">
        <ele>100</ele>
        <time>2023-07-14T07:39:01Z</time>
      </trkpt>
      <trkpt lat="47.44184" lon="0.82078">
        <ele>100</ele>
        <time>2023-07-14T07:39:02Z</time>
      </trkpt>
      <trkpt lat="47.4418" lon="0.82087">
        <ele>99.8</ele>
        <time>2023-07-14T07:39:03Z</time>
      </trkpt>
      <trkpt lat="47.44175" lon="0.82094">
        <ele>99.8</ele>
        <time>2023-07-14T07:39:04Z</time>
      </trkpt>
      <trkpt lat="47.4417" lon="0.82102">
        <ele>99.6</ele>
        <time>2023-07-14T07:39:05Z</time>
      </trkpt>
      <trkpt lat="47.44165" lon="0.82109">
        <ele>99.6</ele>
        <time>2023-07-14T07:39:06Z</time>
      </trkpt>
      <trkpt lat="47.4416" lon="0.82117">
        <ele>99.6</ele>
        <time>2023-07-14T07:39:07Z</time>
      </trkpt>
      <trkpt lat="47.44155" lon="0.82124">
        <ele>99.4</ele>
        <time>2023-07-14T07:39:08Z</time>
      </trkpt>
      <trkpt lat="47.4415" lon="0.82132">
        <ele>99.4</ele>
        <time>2023-07-14T07:39:09Z</time>
      </trkpt>
      <trkpt lat="47.44145" lon="0.8214">
        <ele>99.4</ele>
        <time>2023-07-14T07:39:10Z</time>
      </trkpt>
      <trkpt lat="47.4414" lon="0.82148">
        <ele>99.4</ele>
        <time>2023-07-14T07:39:11Z</time>
      </trkpt>
      <trkpt lat="47.44136" lon="0.82156">
        <ele>99.4</ele>
        <time>2023-07-14T07:39:12Z</time>
      </trkpt>
      <trkpt lat="47.44131" lon="0.82165">
        <ele>99.4</ele>
        <time>2023-07-14T07:39:13Z</time>
      </trkpt>
      <trkpt lat="47.44127" lon="0.82172">
        <ele>99.2</ele>
        <time>2023-07-14T07:39:14Z</time>
      </trkpt>
      <trkpt lat="47.44123" lon="0.8218">
        <ele>99.4</ele>
        <time>2023-07-14T07:39:15Z</time>
      </trkpt>
      <trkpt lat="47.44118" lon="0.82188">
        <ele>99.4</ele>
        <time>2023-07-14T07:39:16Z</time>
      </trkpt>
      <trkpt lat="47.44114" lon="0.82197">
        <ele>99.4</ele>
        <time>2023-07-14T07:39:17Z</time>
      </trkpt>
      <trkpt lat="47.4411" lon="0.82207">
        <ele>99.4</ele>
        <time>2023-07-14T07:39:18Z</time>
      </trkpt>
      <trkpt lat="47.44108" lon="0.82216">
        <ele>99.2</ele>
        <time>2023-07-14T07:39:19Z</time>
      </trkpt>
      <trkpt lat="47.44106" lon="0.82224">
        <ele>99.2</ele>
        <time>2023-07-14T07:39:20Z</time>
      </trkpt>
      <trkpt lat="47.44105" lon="0.82235">
        <ele>99.2</ele>
        <time>2023-07-14T07:39:21Z</time>
      </trkpt>
      <trkpt lat="47.44104" lon="0.82247">
        <ele>99.2</ele>
        <time>2023-07-14T07:39:22Z</time>
      </trkpt>
      <trkpt lat="47.44103" lon="0.82257">
        <ele>99.2</ele>
        <time>2023-07-14T07:39:23Z</time>
      </trkpt>
      <trkpt lat="47.44103" lon="0.82266">
        <ele>99.2</ele>
        <time>2023-07-14T07:39:24Z</time>
      </trkpt>
      <trkpt lat="47.44102" lon="0.82276">
        <ele>99</ele>
        <time>2023-07-14T07:39:25Z</time>
      </trkpt>
      <trkpt lat="47.44102" lon="0.82286">
        <ele>99</ele>
        <time>2023-07-14T07:39:26Z</time>
      </trkpt>
      <trkpt lat="47.44103" lon="0.82297">
        <ele>99</ele>
        <time>2023-07-14T07:39:27Z</time>
      </trkpt>
      <trkpt lat="47.44104" lon="0.82308">
        <ele>98.8</ele>
        <time>2023-07-14T07:39:28Z</time>
      </trkpt>
      <trkpt lat="47.44105" lon="0.82318">
        <ele>99</ele>
        <time>2023-07-14T07:39:29Z</time>
      </trkpt>
      <trkpt lat="47.44107" lon="0.82327">
        <ele>99</ele>
        <time>2023-07-14T07:39:30Z</time>
      </trkpt>
      <trkpt lat="47.44109" lon="0.82338">
        <ele>99</ele>
        <time>2023-07-14T07:39:31Z</time>
      </trkpt>
      <trkpt lat="47.44111" lon="0.82349">
        <ele>99</ele>
        <time>2023-07-14T07:39:32Z</time>
      </trkpt>
      <trkpt lat="47.44112" lon="0.82358">
        <ele>99</ele>
        <time>2023-07-14T07:39:33Z</time>
      </trkpt>
      <trkpt lat="47.44113" lon="0.82367">
        <ele>99</ele>
        <time>2023-07-14T07:39:34Z</time>
      </trkpt>
      <trkpt lat="47.44114" lon="0.82376">
        <ele>98.8</ele>
        <time>2023-07-14T07:39:35Z</time>
      </trkpt>
      <trkpt lat="47.44114" lon="0.82387">
        <ele>98.8</ele>
        <time>2023-07-14T07:39:36Z</time>
      </trkpt>
      <trkpt lat="47.44114" lon="0.82398">
        <ele>98.8</ele>
        <time>2023-07-14T07:39:37Z</time>
      </trkpt>
      <trkpt lat="47.44114" lon="0.82408">
        <ele>98.6</ele>
        <time>2023-07-14T07:39:38Z</time>
      </trkpt>
      <trkpt lat="47.44114" lon="0.82418">
        <ele>98.6</ele>
        <time>2023-07-14T07:39:39Z</time>
      </trkpt>
      <trkpt lat="47.44114" lon="0.82428">
        <ele>98.6</ele>
        <time>2023-07-14T07:39:40Z</time>
      </trkpt>
      <trkpt lat="47.44113" lon="0.82439">
        <ele>98.6</ele>
        <time>2023-07-14T07:39:41Z</time>
      </trkpt>
      <trkpt lat="47.44112" lon="0.82449">
        <ele>98.6</ele>
        <time>2023-07-14T07:39:42Z</time>
      </trkpt>
      <trkpt lat="47.44112" lon="0.82459">
        <ele>98.8</ele>
        <time>2023-07-14T07:39:43Z</time>
      </trkpt>
      <trkpt lat="47.44111" lon="0.8247">
        <ele>98.8</ele>
        <time>2023-07-14T07:39:44Z</time>
      </trkpt>
      <trkpt lat="47.4411" lon="0.8248">
        <ele>98.8</ele>
        <time>2023-07-14T07:39:45Z</time>
      </trkpt>
      <trkpt lat="47.44109" lon="0.82491">
        <ele>98.8</ele>
        <time>2023-07-14T07:39:46Z</time>
      </trkpt>
      <trkpt lat="47.44107" lon="0.82501">
        <ele>98.8</ele>
        <time>2023-07-14T07:39:47Z</time>
      </trkpt>
      <trkpt lat="47.44106" lon="0.82512">
        <ele>98.8</ele>
        <time>2023-07-14T07:39:48Z</time>
      </trkpt>
      <trkpt lat="47.44104" lon="0.82522">
        <ele>98.8</ele>
        <time>2023-07-14T07:39:49Z</time>
      </trkpt>
      <trkpt lat="47.44103" lon="0.82533">
        <ele>98.6</ele>
        <time>2023-07-14T07:39:50Z</time>
      </trkpt>
      <trkpt lat="47.44101" lon="0.82544">
        <ele>98.6</ele>
        <time>2023-07-14T07:39:51Z</time>
      </trkpt>
      <trkpt lat="47.441" lon="0.82554">
        <ele>98.6</ele>
        <time>2023-07-14T07:39:52Z</time>
      </trkpt>
      <trkpt lat="47.44098" lon="0.82564">
        <ele>98.6</ele>
        <time>2023-07-14T07:39:53Z</time>
      </trkpt>
      <trkpt lat="47.44097" lon="0.82574">
        <ele>98.6</ele>
        <time>2023-07-14T07:39:54Z</time>
      </trkpt>
      <trkpt lat="47.44096" lon="0.82584">
        <ele>98.4</ele>
        <time>2023-07-14T07:39:55Z</time>
      </trkpt>
      <trkpt lat="47.44095" lon="0.82595">
        <ele>98.4</ele>
        <time>2023-07-14T07:39:56Z</time>
      </trkpt>
      <trkpt lat="47.44094" lon="0.82605">
        <ele>98.4</ele>
        <time>2023-07-14T07:39:57Z</time>
      </trkpt>
      <trkpt lat="47.44093" lon="0.82614">
        <ele>98.4</ele>
        <time>2023-07-14T07:39:58Z</time>
      </trkpt>
      <trkpt lat="47.44091" lon="0.82626">
        <ele>98.4</ele>
        <time>2023-07-14T07:39:59Z</time>
      </trkpt>
      <trkpt lat="47.44089" lon="0.82637">
        <ele>98.4</ele>
        <time>2023-07-14T07:40:00Z</time>
      </trkpt>
      <trkpt lat="47.44088" lon="0.82648">
        <ele>98.4</ele>
        <time>2023-07-14T07:40:01Z</time>
      </trkpt>
      <trkpt lat="47.44086" lon="0.82657">
        <ele>98.4</ele>
        <time>2023-07-14T07:40:02Z</time>
      </trkpt>
      <trkpt lat="47.44085" lon="0.82668">
        <ele>98.4</ele>
        <time>2023-07-14T07:40:03Z</time>
      </trkpt>
      <trkpt lat="47.44083" lon="0.82678">
        <ele>98.4</ele>
        <time>2023-07-14T07:40:04Z</time>
      </trkpt>
      <trkpt lat="47.44081" lon="0.82689">
        <ele>98.2</ele>
        <time>2023-07-14T07:40:05Z</time>
      </trkpt>
      <trkpt lat="47.4408" lon="0.82699">
        <ele>98.2</ele>
        <time>2023-07-14T07:40:06Z</time>
      </trkpt>
      <trkpt lat="47.44079" lon="0.8271">
        <ele>98</ele>
        <time>2023-07-14T07:40:07Z</time>
      </trkpt>
      <trkpt lat="47.44078" lon="0.8272">
        <ele>98</ele>
        <time>2023-07-14T07:40:08Z</time>
      </trkpt>
      <trkpt lat="47.44077" lon="0.82731">
        <ele>97.8</ele>
        <time>2023-07-14T07:40:09Z</time>
      </trkpt>
      <trkpt lat="47.44076" lon="0.82741">
        <ele>97.8</ele>
        <time>2023-07-14T07:40:10Z</time>
      </trkpt>
      <trkpt lat="47.44075" lon="0.82751">
        <ele>97.8</ele>
        <time>2023-07-14T07:40:11Z</time>
      </trkpt>
      <trkpt lat="47.44074" lon="0.82762">
        <ele>97.8</ele>
        <time>2023-07-14T07:40:12Z</time>
      </trkpt>
      <trkpt lat="47.44073" lon="0.82772">
        <ele>97.8</ele>
        <time>2023-07-14T07:40:13Z</time>
      </trkpt>
      <trkpt lat="47.44072" lon="0.82782">
        <ele>97.8</ele>
        <time>2023-07-14T07:40:14Z</time>
      </trkpt>
      <trkpt lat="47.44071" lon="0.82792">
        <ele>98</ele>
        <time>2023-07-14T07:40:15Z</time>
      </trkpt>
      <trkpt lat="47.4407" lon="0.82802">
        <ele>98</ele>
        <time>2023-07-14T07:40:16Z</time>
      </trkpt>
      <trkpt lat="47.4407" lon="0.82813">
        <ele>98</ele>
        <time>2023-07-14T07:40:17Z</time>
      </trkpt>
      <trkpt lat="47.44069" lon="0.82823">
        <ele>98</ele>
        <time>2023-07-14T07:40:18Z</time>
      </trkpt>
      <trkpt lat="47.44068" lon="0.82833">
        <ele>98</ele>
        <time>2023-07-14T07:40:19Z</time>
      </trkpt>
      <trkpt lat="47.44067" lon="0.82843">
        <ele>98.2</ele>
        <time>2023-07-14T07:40:20Z</time>
      </trkpt>
      <trkpt lat="47.44066" lon="0.82853">
        <ele>98.4</ele>
        <time>2023-07-14T07:40:21Z</time>
      </trkpt>
      <trkpt lat="47.44065" lon="0.82863">
        <ele>98.4</ele>
        <time>2023-07-14T07:40:22Z</time>
      </trkpt>
      <trkpt lat="47.44064" lon="0.82873">
        <ele>98.4</ele>
        <time>2023-07-14T07:40:23Z</time>
      </trkpt>
      <trkpt lat="47.44062" lon="0.82883">
        <ele>98.4</ele>
        <time>2023-07-14T07:40:24Z</time>
      </trkpt>
      <trkpt lat="47.44061" lon="0.82892">
        <ele>98.4</ele>
        <time>2023-07-14T07:40:25Z</time>
      </trkpt>
      <trkpt lat="47.44061" lon="0.82902">
        <ele>98.2</ele>
        <time>2023-07-14T07:40:26Z</time>
      </trkpt>
      <trkpt lat="47.44059" lon="0.82913">
        <ele>98.2</ele>
        <time>2023-07-14T07:40:27Z</time>
      </trkpt>
      <trkpt lat="47.44058" lon="0.82923">
        <ele>98.4</ele>
        <time>2023-07-14T07:40:28Z</time>
      </trkpt>
      <trkpt lat="47.44057" lon="0.82933">
        <ele>98.2</ele>
        <time>2023-07-14T07:40:29Z</time>
      </trkpt>
      <trkpt lat="47.44056" lon="0.82944">
        <ele>98.2</ele>
        <time>2023-07-14T07:40:30Z</time>
      </trkpt>
      <trkpt lat="47.44055" lon="0.82954">
        <ele>98.4</ele>
        <time>2023-07-14T07:40:31Z</time>
      </trkpt>
      <trkpt lat="47.44053" lon="0.82964">
        <ele>98.4</ele>
        <time>2023-07-14T07:40:32Z</time>
      </trkpt>
      <trkpt lat="47.44052" lon="0.82974">
        <ele>98.4</ele>
        <time>2023-07-14T07:40:33Z</time>
      </trkpt>
      <trkpt lat="47.4405" lon="0.82984">
        <ele>98.4</ele>
        <time>2023-07-14T07:40:34Z</time>
      </trkpt>
      <trkpt lat="47.44048" lon="0.82995">
        <ele>98.4</ele>
        <time>2023-07-14T07:40:35Z</time>
      </trkpt>
      <trkpt lat="47.44046" lon="0.83005">
        <ele>98.2</ele>
        <time>2023-07-14T07:40:36Z</time>
      </trkpt>
      <trkpt lat="47.44043" lon="0.83014">
        <ele>98</ele>
        <time>2023-07-14T07:40:37Z</time>
      </trkpt>
      <trkpt lat="47.4404" lon="0.83025">
        <ele>98</ele>
        <time>2023-07-14T07:40:38Z</time>
      </trkpt>
      <trkpt lat="47.44037" lon="0.83035">
        <ele>97.8</ele>
        <time>2023-07-14T07:40:39Z</time>
      </trkpt>
      <trkpt lat="47.44034" lon="0.83045">
        <ele>97.6</ele>
        <time>2023-07-14T07:40:40Z</time>
      </trkpt>
      <trkpt lat="47.44031" lon="0.83056">
        <ele>97.6</ele>
        <time>2023-07-14T07:40:41Z</time>
      </trkpt>
      <trkpt lat="47.44028" lon="0.83067">
        <ele>97.6</ele>
        <time>2023-07-14T07:40:42Z</time>
      </trkpt>
      <trkpt lat="47.44025" lon="0.83078">
        <ele>97.6</ele>
        <time>2023-07-14T07:40:43Z</time>
      </trkpt>
      <trkpt lat="47.44022" lon="0.83089">
        <ele>97.6</ele>
        <time>2023-07-14T07:40:44Z</time>
      </trkpt>
      <trkpt lat="47.44019" lon="0.83099">
        <ele>97.4</ele>
        <time>2023-07-14T07:40:45Z</time>
      </trkpt>
      <trkpt lat="47.44016" lon="0.83109">
        <ele>97.4</ele>
        <time>2023-07-14T07:40:46Z</time>
      </trkpt>
      <trkpt lat="47.44013" lon="0.83119">
        <ele>97.2</ele>
        <time>2023-07-14T07:40:47Z</time>
      </trkpt>
      <trkpt lat="47.4401" lon="0.83129">
        <ele>97</ele>
        <time>2023-07-14T07:40:48Z</time>
      </trkpt>
      <trkpt lat="47.44006" lon="0.83137">
        <ele>96.6</ele>
        <time>2023-07-14T07:40:49Z</time>
      </trkpt>
      <trkpt lat="47.44003" lon="0.83147">
        <ele>96.4</ele>
        <time>2023-07-14T07:40:50Z</time>
      </trkpt>
      <trkpt lat="47.43999" lon="0.83157">
        <ele>96.2</ele>
        <time>2023-07-14T07:40:51Z</time>
      </trkpt>
      <trkpt lat="47.43997" lon="0.83166">
        <ele>96</ele>
        <time>2023-07-14T07:40:52Z</time>
      </trkpt>
      <trkpt lat="47.43995" lon="0.83175">
        <ele>95.6</ele>
        <time>2023-07-14T07:40:53Z</time>
      </trkpt>
      <trkpt lat="47.43992" lon="0.83183">
        <ele>95.2</ele>
        <time>2023-07-14T07:40:54Z</time>
      </trkpt>
      <trkpt lat="47.4399" lon="0.8319">
        <ele>94.6</ele>
        <time>2023-07-14T07:40:55Z</time>
      </trkpt>
      <trkpt lat="47.43988" lon="0.83195">
        <ele>94.2</ele>
        <time>2023-07-14T07:40:56Z</time>
      </trkpt>
      <trkpt lat="47.43987" lon="0.832">
        <ele>93.8</ele>
        <time>2023-07-14T07:40:57Z</time>
      </trkpt>
      <trkpt lat="47.43985" lon="0.83206">
        <ele>93.6</ele>
        <time>2023-07-14T07:40:58Z</time>
      </trkpt>
      <trkpt lat="47.43983" lon="0.83212">
        <ele>93.6</ele>
        <time>2023-07-14T07:40:59Z</time>
      </trkpt>
      <trkpt lat="47.43981" lon="0.83221">
        <ele>93.6</ele>
        <time>2023-07-14T07:41:00Z</time>
      </trkpt>
      <trkpt lat="47.43979" lon="0.8323">
        <ele>93.6</ele>
        <time>2023-07-14T07:41:01Z</time>
      </trkpt>
      <trkpt lat="47.43976" lon="0.83238">
        <ele>93.6</ele>
        <time>2023-07-14T07:41:02Z</time>
      </trkpt>
      <trkpt lat="47.43974" lon="0.83248">
        <ele>93.4</ele>
        <time>2023-07-14T07:41:03Z</time>
      </trkpt>
      <trkpt lat="47.43971" lon="0.83258">
        <ele>93.2</ele>
        <time>2023-07-14T07:41:04Z</time>
      </trkpt>
      <trkpt lat="47.43968" lon="0.83268">
        <ele>93.2</ele>
        <time>2023-07-14T07:41:05Z</time>
      </trkpt>
      <trkpt lat="47.43966" lon="0.83277">
        <ele>93.2</ele>
        <time>2023-07-14T07:41:06Z</time>
      </trkpt>
      <trkpt lat="47.43964" lon="0.83286">
        <ele>93</ele>
        <time>2023-07-14T07:41:07Z</time>
      </trkpt>
      <trkpt lat="47.43961" lon="0.83297">
        <ele>93</ele>
        <time>2023-07-14T07:41:08Z</time>
      </trkpt>
      <trkpt lat="47.43958" lon="0.83308">
        <ele>92.8</ele>
        <time>2023-07-14T07:41:09Z</time>
      </trkpt>
      <trkpt lat="47.43955" lon="0.83318">
        <ele>92.8</ele>
        <time>2023-07-14T07:41:10Z</time>
      </trkpt>
      <trkpt lat="47.43952" lon="0.83328">
        <ele>92.6</ele>
        <time>2023-07-14T07:41:11Z</time>
      </trkpt>
      <trkpt lat="47.4395" lon="0.83338">
        <ele>92.6</ele>
        <time>2023-07-14T07:41:12Z</time>
      </trkpt>
      <trkpt lat="47.43947" lon="0.83348">
        <ele>92.4</ele>
        <time>2023-07-14T07:41:13Z</time>
      </trkpt>
      <trkpt lat="47.43945" lon="0.83358">
        <ele>92.4</ele>
        <time>2023-07-14T07:41:14Z</time>
      </trkpt>
      <trkpt lat="47.43942" lon="0.83368">
        <ele>92.2</ele>
        <time>2023-07-14T07:41:15Z</time>
      </trkpt>
      <trkpt lat="47.43939" lon="0.83379">
        <ele>92</ele>
        <time>2023-07-14T07:41:16Z</time>
      </trkpt>
      <trkpt lat="47.43937" lon="0.83388">
        <ele>92</ele>
        <time>2023-07-14T07:41:17Z</time>
      </trkpt>
      <trkpt lat="47.43935" lon="0.83399">
        <ele>91.6</ele>
        <time>2023-07-14T07:41:18Z</time>
      </trkpt>
      <trkpt lat="47.43933" lon="0.83412">
        <ele>91.4</ele>
        <time>2023-07-14T07:41:19Z</time>
      </trkpt>
      <trkpt lat="47.43932" lon="0.83423">
        <ele>91</ele>
        <time>2023-07-14T07:41:20Z</time>
      </trkpt>
      <trkpt lat="47.43932" lon="0.83434">
        <ele>91</ele>
        <time>2023-07-14T07:41:21Z</time>
      </trkpt>
      <trkpt lat="47.43932" lon="0.83447">
        <ele>90.8</ele>
        <time>2023-07-14T07:41:22Z</time>
      </trkpt>
      <trkpt lat="47.43932" lon="0.8346">
        <ele>90.6</ele>
        <time>2023-07-14T07:41:23Z</time>
      </trkpt>
      <trkpt lat="47.43932" lon="0.83472">
        <ele>90.4</ele>
        <time>2023-07-14T07:41:24Z</time>
      </trkpt>
      <trkpt lat="47.43933" lon="0.83484">
        <ele>90.2</ele>
        <time>2023-07-14T07:41:25Z</time>
      </trkpt>
      <trkpt lat="47.43933" lon="0.83495">
        <ele>90</ele>
        <time>2023-07-14T07:41:26Z</time>
      </trkpt>
      <trkpt lat="47.43933" lon="0.83507">
        <ele>89.8</ele>
        <time>2023-07-14T07:41:27Z</time>
      </trkpt>
      <trkpt lat="47.43932" lon="0.83519">
        <ele>89.6</ele>
        <time>2023-07-14T07:41:28Z</time>
      </trkpt>
      <trkpt lat="47.43931" lon="0.83531">
        <ele>89.4</ele>
        <time>2023-07-14T07:41:29Z</time>
      </trkpt>
      <trkpt lat="47.4393" lon="0.83541">
        <ele>89.2</ele>
        <time>2023-07-14T07:41:30Z</time>
      </trkpt>
      <trkpt lat="47.43928" lon="0.83552">
        <ele>89</ele>
        <time>2023-07-14T07:41:31Z</time>
      </trkpt>
      <trkpt lat="47.43926" lon="0.83564">
        <ele>89</ele>
        <time>2023-07-14T07:41:32Z</time>
      </trkpt>
      <trkpt lat="47.43923" lon="0.83575">
        <ele>89</ele>
        <time>2023-07-14T07:41:33Z</time>
      </trkpt>
      <trkpt lat="47.43921" lon="0.83585">
        <ele>88.8</ele>
        <time>2023-07-14T07:41:34Z</time>
      </trkpt>
      <trkpt lat="47.43919" lon="0.83596">
        <ele>88.6</ele>
        <time>2023-07-14T07:41:35Z</time>
      </trkpt>
      <trkpt lat="47.43916" lon="0.83607">
        <ele>88.6</ele>
        <time>2023-07-14T07:41:36Z</time>
      </trkpt>
      <trkpt lat="47.43914" lon="0.83617">
        <ele>88.6</ele>
        <time>2023-07-14T07:41:37Z</time>
      </trkpt>
      <trkpt lat="47.43912" lon="0.83627">
        <ele>88.6</ele>
        <time>2023-07-14T07:41:38Z</time>
      </trkpt>
      <trkpt lat="47.4391" lon="0.83636">
        <ele>88.6</ele>
        <time>2023-07-14T07:41:39Z</time>
      </trkpt>
      <trkpt lat="47.43908" lon="0.83645">
        <ele>88.8</ele>
        <time>2023-07-14T07:41:40Z</time>
      </trkpt>
      <trkpt lat="47.43906" lon="0.83655">
        <ele>88.8</ele>
        <time>2023-07-14T07:41:41Z</time>
      </trkpt>
      <trkpt lat="47.43904" lon="0.83663">
        <ele>88.6</ele>
        <time>2023-07-14T07:41:42Z</time>
      </trkpt>
      <trkpt lat="47.43902" lon="0.8367">
        <ele>88.4</ele>
        <time>2023-07-14T07:41:43Z</time>
      </trkpt>
      <trkpt lat="47.43901" lon="0.83677">
        <ele>88.4</ele>
        <time>2023-07-14T07:41:44Z</time>
      </trkpt>
      <trkpt lat="47.43899" lon="0.83686">
        <ele>88.2</ele>
        <time>2023-07-14T07:41:45Z</time>
      </trkpt>
      <trkpt lat="47.43897" lon="0.83694">
        <ele>88</ele>
        <time>2023-07-14T07:41:46Z</time>
      </trkpt>
      <trkpt lat="47.43894" lon="0.83702">
        <ele>88</ele>
        <time>2023-07-14T07:41:47Z</time>
      </trkpt>
      <trkpt lat="47.43892" lon="0.8371">
        <ele>88</ele>
        <time>2023-07-14T07:41:48Z</time>
      </trkpt>
      <trkpt lat="47.4389" lon="0.83717">
        <ele>87.8</ele>
        <time>2023-07-14T07:41:49Z</time>
      </trkpt>
      <trkpt lat="47.43887" lon="0.83725">
        <ele>87.8</ele>
        <time>2023-07-14T07:41:50Z</time>
      </trkpt>
      <trkpt lat="47.43884" lon="0.83734">
        <ele>87.8</ele>
        <time>2023-07-14T07:41:51Z</time>
      </trkpt>
      <trkpt lat="47.4388" lon="0.83741">
        <ele>87.8</ele>
        <time>2023-07-14T07:41:52Z</time>
      </trkpt>
      <trkpt lat="47.43877" lon="0.83748">
        <ele>87.8</ele>
        <time>2023-07-14T07:41:53Z</time>
      </trkpt>
      <trkpt lat="47.43873" lon="0.83756">
        <ele>87.8</ele>
        <time>2023-07-14T07:41:54Z</time>
      </trkpt>
      <trkpt lat="47.4387" lon="0.83764">
        <ele>88</ele>
        <time>2023-07-14T07:41:55Z</time>
      </trkpt>
      <trkpt lat="47.43866" lon="0.83772">
        <ele>88</ele>
        <time>2023-07-14T07:41:56Z</time>
      </trkpt>
      <trkpt lat="47.43863" lon="0.8378">
        <ele>87.8</ele>
        <time>2023-07-14T07:41:57Z</time>
      </trkpt>
      <trkpt lat="47.4386" lon="0.83788">
        <ele>87.6</ele>
        <time>2023-07-14T07:41:58Z</time>
      </trkpt>
      <trkpt lat="47.43857" lon="0.83795">
        <ele>87.4</ele>
        <time>2023-07-14T07:41:59Z</time>
      </trkpt>
      <trkpt lat="47.43853" lon="0.83804">
        <ele>87.2</ele>
        <time>2023-07-14T07:42:00Z</time>
      </trkpt>
      <trkpt lat="47.4385" lon="0.83811">
        <ele>87.2</ele>
        <time>2023-07-14T07:42:01Z</time>
      </trkpt>
      <trkpt lat="47.43847" lon="0.83818">
        <ele>87.2</ele>
        <time>2023-07-14T07:42:02Z</time>
      </trkpt>
      <trkpt lat="47.43843" lon="0.83826">
        <ele>87.2</ele>
        <time>2023-07-14T07:42:03Z</time>
      </trkpt>
      <trkpt lat="47.43839" lon="0.83834">
        <ele>87.4</ele>
        <time>2023-07-14T07:42:04Z</time>
      </trkpt>
      <trkpt lat="47.43835" lon="0.83842">
        <ele>87.4</ele>
        <time>2023-07-14T07:42:05Z</time>
      </trkpt>
      <trkpt lat="47.43832" lon="0.8385">
        <ele>87.4</ele>
        <time>2023-07-14T07:42:06Z</time>
      </trkpt>
      <trkpt lat="47.43828" lon="0.83857">
        <ele>87.4</ele>
        <time>2023-07-14T07:42:07Z</time>
      </trkpt>
      <trkpt lat="47.43824" lon="0.83864">
        <ele>87.6</ele>
        <time>2023-07-14T07:42:08Z</time>
      </trkpt>
      <trkpt lat="47.4382" lon="0.83873">
        <ele>87.6</ele>
        <time>2023-07-14T07:42:09Z</time>
      </trkpt>
      <trkpt lat="47.43815" lon="0.83882">
        <ele>87.8</ele>
        <time>2023-07-14T07:42:10Z</time>
      </trkpt>
      <trkpt lat="47.4381" lon="0.83889">
        <ele>87.8</ele>
        <time>2023-07-14T07:42:11Z</time>
      </trkpt>
      <trkpt lat="47.43805" lon="0.83897">
        <ele>87.8</ele>
        <time>2023-07-14T07:42:12Z</time>
      </trkpt>
      <trkpt lat="47.438" lon="0.83904">
        <ele>87.6</ele>
        <time>2023-07-14T07:42:13Z</time>
      </trkpt>
      <trkpt lat="47.43795" lon="0.83912">
        <ele>87.4</ele>
        <time>2023-07-14T07:42:14Z</time>
      </trkpt>
      <trkpt lat="47.4379" lon="0.83919">
        <ele>87.2</ele>
        <time>2023-07-14T07:42:15Z</time>
      </trkpt>
      <trkpt lat="47.43785" lon="0.83927">
        <ele>86.8</ele>
        <time>2023-07-14T07:42:16Z</time>
      </trkpt>
      <trkpt lat="47.43779" lon="0.83935">
        <ele>86.8</ele>
        <time>2023-07-14T07:42:17Z</time>
      </trkpt>
      <trkpt lat="47.43774" lon="0.83943">
        <ele>86.8</ele>
        <time>2023-07-14T07:42:18Z</time>
      </trkpt>
      <trkpt lat="47.43768" lon="0.83951">
        <ele>86.8</ele>
        <time>2023-07-14T07:42:19Z</time>
      </trkpt>
      <trkpt lat="47.43763" lon="0.83959">
        <ele>86.8</ele>
        <time>2023-07-14T07:42:20Z</time>
      </trkpt>
      <trkpt lat="47.43757" lon="0.83966">
        <ele>86.6</ele>
        <time>2023-07-14T07:42:21Z</time>
      </trkpt>
      <trkpt lat="47.43752" lon="0.83974">
        <ele>86.4</ele>
        <time>2023-07-14T07:42:22Z</time>
      </trkpt>
      <trkpt lat="47.43747" lon="0.83981">
        <ele>86.2</ele>
        <time>2023-07-14T07:42:23Z</time>
      </trkpt>
      <trkpt lat="47.43741" lon="0.83989">
        <ele>85.8</ele>
        <time>2023-07-14T07:42:24Z</time>
      </trkpt>
      <trkpt lat="47.43736" lon="0.83997">
        <ele>85.6</ele>
        <time>2023-07-14T07:42:25Z</time>
      </trkpt>
      <trkpt lat="47.43731" lon="0.84004">
        <ele>85.2</ele>
        <time>2023-07-14T07:42:26Z</time>
      </trkpt>
      <trkpt lat="47.43726" lon="0.84012">
        <ele>85.2</ele>
        <time>2023-07-14T07:42:27Z</time>
      </trkpt>
      <trkpt lat="47.43721" lon="0.84019">
        <ele>85</ele>
        <time>2023-07-14T07:42:28Z</time>
      </trkpt>
      <trkpt lat="47.43716" lon="0.84027">
        <ele>85</ele>
        <time>2023-07-14T07:42:29Z</time>
      </trkpt>
      <trkpt lat="47.43711" lon="0.84034">
        <ele>84.8</ele>
        <time>2023-07-14T07:42:30Z</time>
      </trkpt>
      <trkpt lat="47.43707" lon="0.84041">
        <ele>84.6</ele>
        <time>2023-07-14T07:42:31Z</time>
      </trkpt>
      <trkpt lat="47.43702" lon="0.84049">
        <ele>84.6</ele>
        <time>2023-07-14T07:42:32Z</time>
      </trkpt>
      <trkpt lat="47.43697" lon="0.84057">
        <ele>84.6</ele>
        <time>2023-07-14T07:42:33Z</time>
      </trkpt>
      <trkpt lat="47.43692" lon="0.84064">
        <ele>84.4</ele>
        <time>2023-07-14T07:42:34Z</time>
      </trkpt>
      <trkpt lat="47.43688" lon="0.84072">
        <ele>84.4</ele>
        <time>2023-07-14T07:42:35Z</time>
      </trkpt>
      <trkpt lat="47.43684" lon="0.8408">
        <ele>84.6</ele>
        <time>2023-07-14T07:42:36Z</time>
      </trkpt>
      <trkpt lat="47.43679" lon="0.84088">
        <ele>84.6</ele>
        <time>2023-07-14T07:42:37Z</time>
      </trkpt>
      <trkpt lat="47.43676" lon="0.84096">
        <ele>84.6</ele>
        <time>2023-07-14T07:42:38Z</time>
      </trkpt>
      <trkpt lat="47.43671" lon="0.84103">
        <ele>84.6</ele>
        <time>2023-07-14T07:42:39Z</time>
      </trkpt>
      <trkpt lat="47.43668" lon="0.84111">
        <ele>84.6</ele>
        <time>2023-07-14T07:42:40Z</time>
      </trkpt>
      <trkpt lat="47.43663" lon="0.84119">
        <ele>84.6</ele>
        <time>2023-07-14T07:42:41Z</time>
      </trkpt>
      <trkpt lat="47.4366" lon="0.84126">
        <ele>84.6</ele>
        <time>2023-07-14T07:42:42Z</time>
      </trkpt>
      <trkpt lat="47.43656" lon="0.84134">
        <ele>84.8</ele>
        <time>2023-07-14T07:42:43Z</time>
      </trkpt>
      <trkpt lat="47.43652" lon="0.8414">
        <ele>84.8</ele>
        <time>2023-07-14T07:42:44Z</time>
      </trkpt>
      <trkpt lat="47.43649" lon="0.84147">
        <ele>85</ele>
        <time>2023-07-14T07:42:45Z</time>
      </trkpt>
      <trkpt lat="47.43645" lon="0.84155">
        <ele>85</ele>
        <time>2023-07-14T07:42:46Z</time>
      </trkpt>
      <trkpt lat="47.43641" lon="0.84163">
        <ele>85</ele>
        <time>2023-07-14T07:42:47Z</time>
      </trkpt>
      <trkpt lat="47.43637" lon="0.8417">
        <ele>85</ele>
        <time>2023-07-14T07:42:48Z</time>
      </trkpt>
      <trkpt lat="47.43633" lon="0.84177">
        <ele>85</ele>
        <time>2023-07-14T07:42:49Z</time>
      </trkpt>
      <trkpt lat="47.43629" lon="0.84183">
        <ele>85</ele>
        <time>2023-07-14T07:42:50Z</time>
      </trkpt>
      <trkpt lat="47.43625" lon="0.8419">
        <ele>85.2</ele>
        <time>2023-07-14T07:42:51Z</time>
      </trkpt>
      <trkpt lat="47.43621" lon="0.84197">
        <ele>85.6</ele>
        <time>2023-07-14T07:42:52Z</time>
      </trkpt>
      <trkpt lat="47.43617" lon="0.84204">
        <ele>85.8</ele>
        <time>2023-07-14T07:42:53Z</time>
      </trkpt>
      <trkpt lat="47.43613" lon="0.84211">
        <ele>86</ele>
        <time>2023-07-14T07:42:54Z</time>
      </trkpt>
      <trkpt lat="47.43609" lon="0.84217">
        <ele>86</ele>
        <time>2023-07-14T07:42:55Z</time>
      </trkpt>
      <trkpt lat="47.43605" lon="0.84225">
        <ele>86</ele>
        <time>2023-07-14T07:42:56Z</time>
      </trkpt>
      <trkpt lat="47.436" lon="0.84234">
        <ele>86</ele>
        <time>2023-07-14T07:42:57Z</time>
      </trkpt>
      <trkpt lat="47.43596" lon="0.84242">
        <ele>85.8</ele>
        <time>2023-07-14T07:42:58Z</time>
      </trkpt>
      <trkpt lat="47.43592" lon="0.8425">
        <ele>85.4</ele>
        <time>2023-07-14T07:42:59Z</time>
      </trkpt>
      <trkpt lat="47.43589" lon="0.8426">
        <ele>85.2</ele>
        <time>2023-07-14T07:43:00Z</time>
      </trkpt>
      <trkpt lat="47.43585" lon="0.84271">
        <ele>85</ele>
        <time>2023-07-14T07:43:01Z</time>
      </trkpt>
      <trkpt lat="47.43581" lon="0.84281">
        <ele>84.6</ele>
        <time>2023-07-14T07:43:02Z</time>
      </trkpt>
      <trkpt lat="47.43578" lon="0.84291">
        <ele>84.6</ele>
        <time>2023-07-14T07:43:03Z</time>
      </trkpt>
      <trkpt lat="47.43574" lon="0.84302">
        <ele>84.2</ele>
        <time>2023-07-14T07:43:04Z</time>
      </trkpt>
      <trkpt lat="47.4357" lon="0.84313">
        <ele>84</ele>
        <time>2023-07-14T07:43:05Z</time>
      </trkpt>
      <trkpt lat="47.43567" lon="0.84323">
        <ele>83.8</ele>
        <time>2023-07-14T07:43:06Z</time>
      </trkpt>
      <trkpt lat="47.43563" lon="0.84334">
        <ele>83.4</ele>
        <time>2023-07-14T07:43:07Z</time>
      </trkpt>
      <trkpt lat="47.4356" lon="0.84344">
        <ele>83</ele>
        <time>2023-07-14T07:43:08Z</time>
      </trkpt>
      <trkpt lat="47.43556" lon="0.84355">
        <ele>82.6</ele>
        <time>2023-07-14T07:43:09Z</time>
      </trkpt>
      <trkpt lat="47.43552" lon="0.84366">
        <ele>82.4</ele>
        <time>2023-07-14T07:43:10Z</time>
      </trkpt>
      <trkpt lat="47.43549" lon="0.84376">
        <ele>82</ele>
        <time>2023-07-14T07:43:11Z</time>
      </trkpt>
      <trkpt lat="47.43545" lon="0.84387">
        <ele>81.6</ele>
        <time>2023-07-14T07:43:12Z</time>
      </trkpt>
      <trkpt lat="47.43541" lon="0.84397">
        <ele>81.4</ele>
        <time>2023-07-14T07:43:13Z</time>
      </trkpt>
      <trkpt lat="47.43538" lon="0.84407">
        <ele>81</ele>
        <time>2023-07-14T07:43:14Z</time>
      </trkpt>
      <trkpt lat="47.43533" lon="0.84416">
        <ele>80.8</ele>
        <time>2023-07-14T07:43:15Z</time>
      </trkpt>
      <trkpt lat="47.43529" lon="0.84426">
        <ele>80.6</ele>
        <time>2023-07-14T07:43:16Z</time>
      </trkpt>
      <trkpt lat="47.43524" lon="0.84434">
        <ele>80.4</ele>
        <time>2023-07-14T07:43:17Z</time>
      </trkpt>
      <trkpt lat="47.43519" lon="0.84443">
        <ele>80.2</ele>
        <time>2023-07-14T07:43:18Z</time>
      </trkpt>
      <trkpt lat="47.43514" lon="0.84451">
        <ele>79.8</ele>
        <time>2023-07-14T07:43:19Z</time>
      </trkpt>
      <trkpt lat="47.43509" lon="0.84459">
        <ele>79.8</ele>
        <time>2023-07-14T07:43:20Z</time>
      </trkpt>
      <trkpt lat="47.43503" lon="0.84466">
        <ele>79.6</ele>
        <time>2023-07-14T07:43:21Z</time>
      </trkpt>
      <trkpt lat="47.43498" lon="0.84473">
        <ele>79.4</ele>
        <time>2023-07-14T07:43:22Z</time>
      </trkpt>
      <trkpt lat="47.43492" lon="0.8448">
        <ele>79.4</ele>
        <time>2023-07-14T07:43:23Z</time>
      </trkpt>
      <trkpt lat="47.43486" lon="0.84487">
        <ele>79.4</ele>
        <time>2023-07-14T07:43:24Z</time>
      </trkpt>
      <trkpt lat="47.43481" lon="0.84494">
        <ele>79.4</ele>
        <time>2023-07-14T07:43:25Z</time>
      </trkpt>
      <trkpt lat="47.43475" lon="0.845">
        <ele>79.2</ele>
        <time>2023-07-14T07:43:26Z</time>
      </trkpt>
      <trkpt lat="47.4347" lon="0.84506">
        <ele>79.2</ele>
        <time>2023-07-14T07:43:27Z</time>
      </trkpt>
      <trkpt lat="47.43464" lon="0.84513">
        <ele>79.2</ele>
        <time>2023-07-14T07:43:28Z</time>
      </trkpt>
      <trkpt lat="47.43458" lon="0.8452">
        <ele>79.2</ele>
        <time>2023-07-14T07:43:29Z</time>
      </trkpt>
      <trkpt lat="47.43452" lon="0.84527">
        <ele>79.2</ele>
        <time>2023-07-14T07:43:30Z</time>
      </trkpt>
      <trkpt lat="47.43447" lon="0.84533">
        <ele>79.2</ele>
        <time>2023-07-14T07:43:31Z</time>
      </trkpt>
      <trkpt lat="47.43443" lon="0.84539">
        <ele>79.4</ele>
        <time>2023-07-14T07:43:32Z</time>
      </trkpt>
      <trkpt lat="47.43438" lon="0.84545">
        <ele>79.6</ele>
        <time>2023-07-14T07:43:33Z</time>
      </trkpt>
      <trkpt lat="47.43432" lon="0.84553">
        <ele>79.6</ele>
        <time>2023-07-14T07:43:34Z</time>
      </trkpt>
      <trkpt lat="47.43427" lon="0.8456">
        <ele>79.4</ele>
        <time>2023-07-14T07:43:35Z</time>
      </trkpt>
      <trkpt lat="47.43423" lon="0.84568">
        <ele>79.4</ele>
        <time>2023-07-14T07:43:36Z</time>
      </trkpt>
      <trkpt lat="47.43419" lon="0.84574">
        <ele>79.2</ele>
        <time>2023-07-14T07:43:37Z</time>
      </trkpt>
      <trkpt lat="47.43415" lon="0.84581">
        <ele>79.2</ele>
        <time>2023-07-14T07:43:38Z</time>
      </trkpt>
      <trkpt lat="47.4341" lon="0.84588">
        <ele>79.2</ele>
        <time>2023-07-14T07:43:39Z</time>
      </trkpt>
      <trkpt lat="47.43405" lon="0.84596">
        <ele>79.4</ele>
        <time>2023-07-14T07:43:40Z</time>
      </trkpt>
      <trkpt lat="47.434" lon="0.84603">
        <ele>79.4</ele>
        <time>2023-07-14T07:43:41Z</time>
      </trkpt>
      <trkpt lat="47.43395" lon="0.84609">
        <ele>79.2</ele>
        <time>2023-07-14T07:43:42Z</time>
      </trkpt>
      <trkpt lat="47.43391" lon="0.84615">
        <ele>79.2</ele>
        <time>2023-07-14T07:43:43Z</time>
      </trkpt>
      <trkpt lat="47.43386" lon="0.84622">
        <ele>79</ele>
        <time>2023-07-14T07:43:44Z</time>
      </trkpt>
      <trkpt lat="47.43381" lon="0.84628">
        <ele>79</ele>
        <time>2023-07-14T07:43:45Z</time>
      </trkpt>
      <trkpt lat="47.43376" lon="0.84634">
        <ele>78.8</ele>
        <time>2023-07-14T07:43:46Z</time>
      </trkpt>
      <trkpt lat="47.43371" lon="0.84639">
        <ele>78.8</ele>
        <time>2023-07-14T07:43:47Z</time>
      </trkpt>
      <trkpt lat="47.43365" lon="0.84644">
        <ele>78.8</ele>
        <time>2023-07-14T07:43:48Z</time>
      </trkpt>
      <trkpt lat="47.43359" lon="0.8465">
        <ele>79</ele>
        <time>2023-07-14T07:43:49Z</time>
      </trkpt>
      <trkpt lat="47.43354" lon="0.84654">
        <ele>79</ele>
        <time>2023-07-14T07:43:50Z</time>
      </trkpt>
      <trkpt lat="47.43349" lon="0.84657">
        <ele>79.2</ele>
        <time>2023-07-14T07:43:51Z</time>
      </trkpt>
      <trkpt lat="47.43344" lon="0.84659">
        <ele>79.2</ele>
        <time>2023-07-14T07:43:52Z</time>
      </trkpt>
      <trkpt lat="47.43338" lon="0.84661">
        <ele>79.4</ele>
        <time>2023-07-14T07:43:53Z</time>
      </trkpt>
      <trkpt lat="47.43333" lon="0.84662">
        <ele>79.4</ele>
        <time>2023-07-14T07:43:54Z</time>
      </trkpt>
      <trkpt lat="47.43327" lon="0.84664">
        <ele>79.4</ele>
        <time>2023-07-14T07:43:55Z</time>
      </trkpt>
      <trkpt lat="47.43322" lon="0.84665">
        <ele>79.6</ele>
        <time>2023-07-14T07:43:56Z</time>
      </trkpt>
      <trkpt lat="47.43316" lon="0.84667">
        <ele>79.6</ele>
        <time>2023-07-14T07:43:57Z</time>
      </trkpt>
      <trkpt lat="47.43311" lon="0.84668">
        <ele>79.8</ele>
        <time>2023-07-14T07:43:58Z</time>
      </trkpt>
      <trkpt lat="47.43305" lon="0.84668">
        <ele>79.8</ele>
        <time>2023-07-14T07:43:59Z</time>
      </trkpt>
      <trkpt lat="47.43299" lon="0.84668">
        <ele>80</ele>
        <time>2023-07-14T07:44:00Z</time>
      </trkpt>
      <trkpt lat="47.43293" lon="0.84668">
        <ele>80</ele>
        <time>2023-07-14T07:44:01Z</time>
      </trkpt>
      <trkpt lat="47.43287" lon="0.84667">
        <ele>80</ele>
        <time>2023-07-14T07:44:02Z</time>
      </trkpt>
      <trkpt lat="47.4328" lon="0.84667">
        <ele>79.8</ele>
        <time>2023-07-14T07:44:03Z</time>
      </trkpt>
      <trkpt lat="47.43272" lon="0.84666">
        <ele>79.6</ele>
        <time>2023-07-14T07:44:04Z</time>
      </trkpt>
      <trkpt lat="47.43264" lon="0.84665">
        <ele>79.2</ele>
        <time>2023-07-14T07:44:05Z</time>
      </trkpt>
      <trkpt lat="47.43256" lon="0.84665">
        <ele>79</ele>
        <time>2023-07-14T07:44:06Z</time>
      </trkpt>
      <trkpt lat="47.43249" lon="0.84664">
        <ele>78.8</ele>
        <time>2023-07-14T07:44:07Z</time>
      </trkpt>
      <trkpt lat="47.43241" lon="0.84664">
        <ele>78.6</ele>
        <time>2023-07-14T07:44:08Z</time>
      </trkpt>
      <trkpt lat="47.43234" lon="0.84664">
        <ele>78.2</ele>
        <time>2023-07-14T07:44:09Z</time>
      </trkpt>
      <trkpt lat="47.43226" lon="0.84664">
        <ele>78</ele>
        <time>2023-07-14T07:44:10Z</time>
      </trkpt>
      <trkpt lat="47.43217" lon="0.84665">
        <ele>77.8</ele>
        <time>2023-07-14T07:44:11Z</time>
      </trkpt>
      <trkpt lat="47.4321" lon="0.84666">
        <ele>77.4</ele>
        <time>2023-07-14T07:44:12Z</time>
      </trkpt>
      <trkpt lat="47.43202" lon="0.84668">
        <ele>77</ele>
        <time>2023-07-14T07:44:13Z</time>
      </trkpt>
      <trkpt lat="47.43195" lon="0.84671">
        <ele>77</ele>
        <time>2023-07-14T07:44:14Z</time>
      </trkpt>
      <trkpt lat="47.43187" lon="0.84675">
        <ele>76.8</ele>
        <time>2023-07-14T07:44:15Z</time>
      </trkpt>
      <trkpt lat="47.43179" lon="0.84679">
        <ele>76.6</ele>
        <time>2023-07-14T07:44:16Z</time>
      </trkpt>
      <trkpt lat="47.43172" lon="0.84683">
        <ele>76.2</ele>
        <time>2023-07-14T07:44:17Z</time>
      </trkpt>
      <trkpt lat="47.43166" lon="0.84687">
        <ele>75.8</ele>
        <time>2023-07-14T07:44:18Z</time>
      </trkpt>
      <trkpt lat="47.43159" lon="0.84691">
        <ele>75.6</ele>
        <time>2023-07-14T07:44:19Z</time>
      </trkpt>
      <trkpt lat="47.43153" lon="0.84696">
        <ele>75.2</ele>
        <time>2023-07-14T07:44:20Z</time>
      </trkpt>
      <trkpt lat="47.43146" lon="0.847">
        <ele>75</ele>
        <time>2023-07-14T07:44:21Z</time>
      </trkpt>
      <trkpt lat="47.43139" lon="0.84705">
        <ele>75</ele>
        <time>2023-07-14T07:44:22Z</time>
      </trkpt>
      <trkpt lat="47.43133" lon="0.8471">
        <ele>75</ele>
        <time>2023-07-14T07:44:23Z</time>
      </trkpt>
      <trkpt lat="47.43127" lon="0.84714">
        <ele>75</ele>
        <time>2023-07-14T07:44:24Z</time>
      </trkpt>
      <trkpt lat="47.4312" lon="0.84719">
        <ele>74.6</ele>
        <time>2023-07-14T07:44:25Z</time>
      </trkpt>
      <trkpt lat="47.43113" lon="0.84724">
        <ele>74.4</ele>
        <time>2023-07-14T07:44:26Z</time>
      </trkpt>
      <trkpt lat="47.43106" lon="0.84728">
        <ele>74.2</ele>
        <time>2023-07-14T07:44:27Z</time>
      </trkpt>
      <trkpt lat="47.431" lon="0.84731">
        <ele>74</ele>
        <time>2023-07-14T07:44:28Z</time>
      </trkpt>
      <trkpt lat="47.43093" lon="0.84733">
        <ele>73.6</ele>
        <time>2023-07-14T07:44:29Z</time>
      </trkpt>
      <trkpt lat="47.43087" lon="0.84734">
        <ele>73.4</ele>
        <time>2023-07-14T07:44:30Z</time>
      </trkpt>
      <trkpt lat="47.43081" lon="0.84734">
        <ele>73.2</ele>
        <time>2023-07-14T07:44:31Z</time>
      </trkpt>
      <trkpt lat="47.43074" lon="0.84733">
        <ele>73</ele>
        <time>2023-07-14T07:44:32Z</time>
      </trkpt>
      <trkpt lat="47.43067" lon="0.84731">
        <ele>73.2</ele>
        <time>2023-07-14T07:44:33Z</time>
      </trkpt>
      <trkpt lat="47.4306" lon="0.84727">
        <ele>73.2</ele>
        <time>2023-07-14T07:44:34Z</time>
      </trkpt>
      <trkpt lat="47.43054" lon="0.84724">
        <ele>73</ele>
        <time>2023-07-14T07:44:35Z</time>
      </trkpt>
      <trkpt lat="47.43048" lon="0.8472">
        <ele>72.8</ele>
        <time>2023-07-14T07:44:36Z</time>
      </trkpt>
      <trkpt lat="47.43042" lon="0.84716">
        <ele>72.8</ele>
        <time>2023-07-14T07:44:37Z</time>
      </trkpt>
      <trkpt lat="47.43036" lon="0.84712">
        <ele>72.6</ele>
        <time>2023-07-14T07:44:38Z</time>
      </trkpt>
      <trkpt lat="47.4303" lon="0.84708">
        <ele>72.4</ele>
        <time>2023-07-14T07:44:39Z</time>
      </trkpt>
      <trkpt lat="47.43023" lon="0.84703">
        <ele>72.4</ele>
        <time>2023-07-14T07:44:40Z</time>
      </trkpt>
      <trkpt lat="47.43017" lon="0.847">
        <ele>72.2</ele>
        <time>2023-07-14T07:44:41Z</time>
      </trkpt>
      <trkpt lat="47.43011" lon="0.84696">
        <ele>72.2</ele>
        <time>2023-07-14T07:44:42Z</time>
      </trkpt>
      <trkpt lat="47.43005" lon="0.84692">
        <ele>72</ele>
        <time>2023-07-14T07:44:43Z</time>
      </trkpt>
      <trkpt lat="47.42999" lon="0.84688">
        <ele>71.8</ele>
        <time>2023-07-14T07:44:44Z</time>
      </trkpt>
      <trkpt lat="47.42992" lon="0.84684">
        <ele>71.8</ele>
        <time>2023-07-14T07:44:45Z</time>
      </trkpt>
      <trkpt lat="47.42986" lon="0.8468">
        <ele>71.8</ele>
        <time>2023-07-14T07:44:46Z</time>
      </trkpt>
      <trkpt lat="47.4298" lon="0.84676">
        <ele>71.8</ele>
        <time>2023-07-14T07:44:47Z</time>
      </trkpt>
      <trkpt lat="47.42973" lon="0.84672">
        <ele>71.6</ele>
        <time>2023-07-14T07:44:48Z</time>
      </trkpt>
      <trkpt lat="47.42967" lon="0.84668">
        <ele>71.6</ele>
        <time>2023-07-14T07:44:49Z</time>
      </trkpt>
      <trkpt lat="47.42961" lon="0.84665">
        <ele>71.6</ele>
        <time>2023-07-14T07:44:50Z</time>
      </trkpt>
      <trkpt lat="47.42955" lon="0.84661">
        <ele>71.6</ele>
        <time>2023-07-14T07:44:51Z</time>
      </trkpt>
      <trkpt lat="47.42949" lon="0.84658">
        <ele>71.6</ele>
        <time>2023-07-14T07:44:52Z</time>
      </trkpt>
      <trkpt lat="47.42944" lon="0.84654">
        <ele>71.4</ele>
        <time>2023-07-14T07:44:53Z</time>
      </trkpt>
      <trkpt lat="47.42937" lon="0.8465">
        <ele>71.2</ele>
        <time>2023-07-14T07:44:54Z</time>
      </trkpt>
      <trkpt lat="47.42931" lon="0.84646">
        <ele>71.2</ele>
        <time>2023-07-14T07:44:55Z</time>
      </trkpt>
      <trkpt lat="47.42925" lon="0.84643">
        <ele>71</ele>
        <time>2023-07-14T07:44:56Z</time>
      </trkpt>
      <trkpt lat="47.42918" lon="0.84639">
        <ele>71</ele>
        <time>2023-07-14T07:44:57Z</time>
      </trkpt>
      <trkpt lat="47.42912" lon="0.84636">
        <ele>70.8</ele>
        <time>2023-07-14T07:44:58Z</time>
      </trkpt>
      <trkpt lat="47.42906" lon="0.84632">
        <ele>70.8</ele>
        <time>2023-07-14T07:44:59Z</time>
      </trkpt>
      <trkpt lat="47.429" lon="0.84629">
        <ele>70.8</ele>
        <time>2023-07-14T07:45:00Z</time>
      </trkpt>
      <trkpt lat="47.42893" lon="0.84625">
        <ele>70.6</ele>
        <time>2023-07-14T07:45:01Z</time>
      </trkpt>
      <trkpt lat="47.42887" lon="0.84621">
        <ele>70.6</ele>
        <time>2023-07-14T07:45:02Z</time>
      </trkpt>
      <trkpt lat="47.42881" lon="0.84617">
        <ele>70.6</ele>
        <time>2023-07-14T07:45:03Z</time>
      </trkpt>
      <trkpt lat="47.42875" lon="0.84613">
        <ele>70.6</ele>
        <time>2023-07-14T07:45:04Z</time>
      </trkpt>
      <trkpt lat="47.4287" lon="0.84609">
        <ele>70.6</ele>
        <time>2023-07-14T07:45:05Z</time>
      </trkpt>
      <trkpt lat="47.42863" lon="0.84605">
        <ele>70.6</ele>
        <time>2023-07-14T07:45:06Z</time>
      </trkpt>
      <trkpt lat="47.42858" lon="0.84602">
        <ele>70.6</ele>
        <time>2023-07-14T07:45:07Z</time>
      </trkpt>
      <trkpt lat="47.42852" lon="0.84598">
        <ele>70.6</ele>
        <time>2023-07-14T07:45:08Z</time>
      </trkpt>
      <trkpt lat="47.42846" lon="0.84596">
        <ele>70.6</ele>
        <time>2023-07-14T07:45:09Z</time>
      </trkpt>
      <trkpt lat="47.42839" lon="0.84595">
        <ele>70.6</ele>
        <time>2023-07-14T07:45:10Z</time>
      </trkpt>
      <trkpt lat="47.42833" lon="0.84598">
        <ele>70.6</ele>
        <time>2023-07-14T07:45:11Z</time>
      </trkpt>
      <trkpt lat="47.42827" lon="0.84602">
        <ele>70.6</ele>
        <time>2023-07-14T07:45:12Z</time>
      </trkpt>
      <trkpt lat="47.42822" lon="0.84609">
        <ele>70.4</ele>
        <time>2023-07-14T07:45:13Z</time>
      </trkpt>
      <trkpt lat="47.42818" lon="0.84617">
        <ele>70.4</ele>
        <time>2023-07-14T07:45:14Z</time>
      </trkpt>
      <trkpt lat="47.42814" lon="0.84626">
        <ele>70.4</ele>
        <time>2023-07-14T07:45:15Z</time>
      </trkpt>
      <trkpt lat="47.4281" lon="0.84635">
        <ele>70.4</ele>
        <time>2023-07-14T07:45:16Z</time>
      </trkpt>
      <trkpt lat="47.42805" lon="0.84643">
        <ele>70.4</ele>
        <time>2023-07-14T07:45:17Z</time>
      </trkpt>
      <trkpt lat="47.42801" lon="0.84651">
        <ele>70.4</ele>
        <time>2023-07-14T07:45:18Z</time>
      </trkpt>
      <trkpt lat="47.42796" lon="0.84659">
        <ele>70.4</ele>
        <time>2023-07-14T07:45:19Z</time>
      </trkpt>
      <trkpt lat="47.42792" lon="0.84667">
        <ele>70.4</ele>
        <time>2023-07-14T07:45:20Z</time>
      </trkpt>
      <trkpt lat="47.42786" lon="0.84675">
        <ele>70.2</ele>
        <time>2023-07-14T07:45:21Z</time>
      </trkpt>
      <trkpt lat="47.42782" lon="0.84683">
        <ele>70</ele>
        <time>2023-07-14T07:45:22Z</time>
      </trkpt>
      <trkpt lat="47.42777" lon="0.84691">
        <ele>70</ele>
        <time>2023-07-14T07:45:23Z</time>
      </trkpt>
      <trkpt lat="47.42772" lon="0.84698">
        <ele>69.8</ele>
        <time>2023-07-14T07:45:24Z</time>
      </trkpt>
      <trkpt lat="47.42767" lon="0.84706">
        <ele>69.6</ele>
        <time>2023-07-14T07:45:25Z</time>
      </trkpt>
      <trkpt lat="47.42763" lon="0.84713">
        <ele>69.6</ele>
        <time>2023-07-14T07:45:26Z</time>
      </trkpt>
      <trkpt lat="47.42758" lon="0.8472">
        <ele>69.8</ele>
        <time>2023-07-14T07:45:27Z</time>
      </trkpt>
      <trkpt lat="47.42754" lon="0.84726">
        <ele>69.6</ele>
        <time>2023-07-14T07:45:28Z</time>
      </trkpt>
      <trkpt lat="47.42749" lon="0.84733">
        <ele>69.6</ele>
        <time>2023-07-14T07:45:29Z</time>
      </trkpt>
      <trkpt lat="47.42745" lon="0.84738">
        <ele>69.6</ele>
        <time>2023-07-14T07:45:30Z</time>
      </trkpt>
      <trkpt lat="47.42742" lon="0.84743">
        <ele>69.6</ele>
        <time>2023-07-14T07:45:31Z</time>
      </trkpt>
      <trkpt lat="47.42739" lon="0.84747">
        <ele>69.4</ele>
        <time>2023-07-14T07:45:32Z</time>
      </trkpt>
      <trkpt lat="47.42737" lon="0.84751">
        <ele>69.4</ele>
        <time>2023-07-14T07:45:33Z</time>
      </trkpt>
      <trkpt lat="47.42736" lon="0.84755">
        <ele>69.4</ele>
        <time>2023-07-14T07:45:34Z</time>
      </trkpt>
      <trkpt lat="47.42735" lon="0.84759">
        <ele>69.4</ele>
        <time>2023-07-14T07:45:35Z</time>
      </trkpt>
      <trkpt lat="47.42736" lon="0.84764">
        <ele>69.2</ele>
        <time>2023-07-14T07:45:36Z</time>
      </trkpt>
      <trkpt lat="47.42739" lon="0.84768">
        <ele>69.4</ele>
        <time>2023-07-14T07:45:37Z</time>
      </trkpt>
      <trkpt lat="47.42744" lon="0.84773">
        <ele>69.6</ele>
        <time>2023-07-14T07:45:38Z</time>
      </trkpt>
      <trkpt lat="47.42749" lon="0.84778">
        <ele>69.8</ele>
        <time>2023-07-14T07:45:39Z</time>
      </trkpt>
      <trkpt lat="47.42753" lon="0.84783">
        <ele>69.8</ele>
        <time>2023-07-14T07:45:40Z</time>
      </trkpt>
      <trkpt lat="47.42758" lon="0.84788">
        <ele>70</ele>
        <time>2023-07-14T07:45:41Z</time>
      </trkpt>
      <trkpt lat="47.42764" lon="0.84793">
        <ele>70</ele>
        <time>2023-07-14T07:45:42Z</time>
      </trkpt>
      <trkpt lat="47.42768" lon="0.84798">
        <ele>70</ele>
        <time>2023-07-14T07:45:43Z</time>
      </trkpt>
      <trkpt lat="47.42774" lon="0.84803">
        <ele>70</ele>
        <time>2023-07-14T07:45:44Z</time>
      </trkpt>
      <trkpt lat="47.42779" lon="0.84808">
        <ele>70</ele>
        <time>2023-07-14T07:45:45Z</time>
      </trkpt>
      <trkpt lat="47.42785" lon="0.84814">
        <ele>70</ele>
        <time>2023-07-14T07:45:46Z</time>
      </trkpt>
      <trkpt lat="47.4279" lon="0.8482">
        <ele>70.2</ele>
        <time>2023-07-14T07:45:47Z</time>
      </trkpt>
      <trkpt lat="47.42796" lon="0.84825">
        <ele>70.2</ele>
        <time>2023-07-14T07:45:48Z</time>
      </trkpt>
      <trkpt lat="47.42801" lon="0.84831">
        <ele>70.2</ele>
        <time>2023-07-14T07:45:49Z</time>
      </trkpt>
      <trkpt lat="47.42806" lon="0.84836">
        <ele>70.2</ele>
        <time>2023-07-14T07:45:50Z</time>
      </trkpt>
      <trkpt lat="47.42812" lon="0.84842">
        <ele>70.2</ele>
        <time>2023-07-14T07:45:51Z</time>
      </trkpt>
      <trkpt lat="47.42818" lon="0.84848">
        <ele>70.2</ele>
        <time>2023-07-14T07:45:52Z</time>
      </trkpt>
      <trkpt lat="47.42824" lon="0.84854">
        <ele>70.2</ele>
        <time>2023-07-14T07:45:53Z</time>
      </trkpt>
      <trkpt lat="47.42829" lon="0.8486">
        <ele>70.4</ele>
        <time>2023-07-14T07:45:54Z</time>
      </trkpt>
      <trkpt lat="47.42835" lon="0.84865">
        <ele>70.4</ele>
        <time>2023-07-14T07:45:55Z</time>
      </trkpt>
      <trkpt lat="47.42841" lon="0.84871">
        <ele>70.4</ele>
        <time>2023-07-14T07:45:56Z</time>
      </trkpt>
      <trkpt lat="47.42846" lon="0.84877">
        <ele>70.4</ele>
        <time>2023-07-14T07:45:57Z</time>
      </trkpt>
      <trkpt lat="47.42852" lon="0.84882">
        <ele>70.4</ele>
        <time>2023-07-14T07:45:58Z</time>
      </trkpt>
      <trkpt lat="47.42857" lon="0.84888">
        <ele>70.4</ele>
        <time>2023-07-14T07:45:59Z</time>
      </trkpt>
      <trkpt lat="47.42863" lon="0.84894">
        <ele>70.4</ele>
        <time>2023-07-14T07:46:00Z</time>
      </trkpt>
      <trkpt lat="47.42869" lon="0.849">
        <ele>70.4</ele>
        <time>2023-07-14T07:46:01Z</time>
      </trkpt>
      <trkpt lat="47.42875" lon="0.84905">
        <ele>70.4</ele>
        <time>2023-07-14T07:46:02Z</time>
      </trkpt>
      <trkpt lat="47.4288" lon="0.84911">
        <ele>70.4</ele>
        <time>2023-07-14T07:46:03Z</time>
      </trkpt>
      <trkpt lat="47.42886" lon="0.84917">
        <ele>70.4</ele>
        <time>2023-07-14T07:46:04Z</time>
      </trkpt>
      <trkpt lat="47.42892" lon="0.84923">
        <ele>70.6</ele>
        <time>2023-07-14T07:46:05Z</time>
      </trkpt>
      <trkpt lat="47.42897" lon="0.84929">
        <ele>70.8</ele>
        <time>2023-07-14T07:46:06Z</time>
      </trkpt>
      <trkpt lat="47.42903" lon="0.84935">
        <ele>71</ele>
        <time>2023-07-14T07:46:07Z</time>
      </trkpt>
      <trkpt lat="47.42909" lon="0.84941">
        <ele>71</ele>
        <time>2023-07-14T07:46:08Z</time>
      </trkpt>
      <trkpt lat="47.42915" lon="0.84946">
        <ele>71</ele>
        <time>2023-07-14T07:46:09Z</time>
      </trkpt>
      <trkpt lat="47.42921" lon="0.84952">
        <ele>70.8</ele>
        <time>2023-07-14T07:46:10Z</time>
      </trkpt>
      <trkpt lat="47.42926" lon="0.84958">
        <ele>70.8</ele>
        <time>2023-07-14T07:46:11Z</time>
      </trkpt>
      <trkpt lat="47.42932" lon="0.84964">
        <ele>70.8</ele>
        <time>2023-07-14T07:46:12Z</time>
      </trkpt>
      <trkpt lat="47.42938" lon="0.8497">
        <ele>71</ele>
        <time>2023-07-14T07:46:13Z</time>
      </trkpt>
      <trkpt lat="47.42944" lon="0.84976">
        <ele>71</ele>
        <time>2023-07-14T07:46:14Z</time>
      </trkpt>
      <trkpt lat="47.4295" lon="0.84983">
        <ele>71</ele>
        <time>2023-07-14T07:46:15Z</time>
      </trkpt>
      <trkpt lat="47.42955" lon="0.84989">
        <ele>71</ele>
        <time>2023-07-14T07:46:16Z</time>
      </trkpt>
      <trkpt lat="47.42961" lon="0.84995">
        <ele>71</ele>
        <time>2023-07-14T07:46:17Z</time>
      </trkpt>
      <trkpt lat="47.42967" lon="0.85001">
        <ele>71</ele>
        <time>2023-07-14T07:46:18Z</time>
      </trkpt>
      <trkpt lat="47.42973" lon="0.85007">
        <ele>70.8</ele>
        <time>2023-07-14T07:46:19Z</time>
      </trkpt>
      <trkpt lat="47.42979" lon="0.85013">
        <ele>70.8</ele>
        <time>2023-07-14T07:46:20Z</time>
      </trkpt>
      <trkpt lat="47.42984" lon="0.8502">
        <ele>70.8</ele>
        <time>2023-07-14T07:46:21Z</time>
      </trkpt>
      <trkpt lat="47.4299" lon="0.85026">
        <ele>70.8</ele>
        <time>2023-07-14T07:46:22Z</time>
      </trkpt>
      <trkpt lat="47.42996" lon="0.85032">
        <ele>70.8</ele>
        <time>2023-07-14T07:46:23Z</time>
      </trkpt>
      <trkpt lat="47.43002" lon="0.85038">
        <ele>70.8</ele>
        <time>2023-07-14T07:46:24Z</time>
      </trkpt>
      <trkpt lat="47.43008" lon="0.85044">
        <ele>70.8</ele>
        <time>2023-07-14T07:46:25Z</time>
      </trkpt>
      <trkpt lat="47.43015" lon="0.85051">
        <ele>70.8</ele>
        <time>2023-07-14T07:46:26Z</time>
      </trkpt>
      <trkpt lat="47.4302" lon="0.85057">
        <ele>70.8</ele>
        <time>2023-07-14T07:46:27Z</time>
      </trkpt>
      <trkpt lat="47.43026" lon="0.85063">
        <ele>70.6</ele>
        <time>2023-07-14T07:46:28Z</time>
      </trkpt>
      <trkpt lat="47.43032" lon="0.8507">
        <ele>70.6</ele>
        <time>2023-07-14T07:46:29Z</time>
      </trkpt>
      <trkpt lat="47.43038" lon="0.85076">
        <ele>70.6</ele>
        <time>2023-07-14T07:46:30Z</time>
      </trkpt>
      <trkpt lat="47.43044" lon="0.85082">
        <ele>70.8</ele>
        <time>2023-07-14T07:46:31Z</time>
      </trkpt>
      <trkpt lat="47.4305" lon="0.85088">
        <ele>70.8</ele>
        <time>2023-07-14T07:46:32Z</time>
      </trkpt>
      <trkpt lat="47.43056" lon="0.85094">
        <ele>70.8</ele>
        <time>2023-07-14T07:46:33Z</time>
      </trkpt>
      <trkpt lat="47.43063" lon="0.85101">
        <ele>70.8</ele>
        <time>2023-07-14T07:46:34Z</time>
      </trkpt>
      <trkpt lat="47.43068" lon="0.85107">
        <ele>70.6</ele>
        <time>2023-07-14T07:46:35Z</time>
      </trkpt>
      <trkpt lat="47.43074" lon="0.85114">
        <ele>70.6</ele>
        <time>2023-07-14T07:46:36Z</time>
      </trkpt>
      <trkpt lat="47.4308" lon="0.85119">
        <ele>70.8</ele>
        <time>2023-07-14T07:46:37Z</time>
      </trkpt>
      <trkpt lat="47.43086" lon="0.85125">
        <ele>70.8</ele>
        <time>2023-07-14T07:46:38Z</time>
      </trkpt>
      <trkpt lat="47.43093" lon="0.85132">
        <ele>70.8</ele>
        <time>2023-07-14T07:46:39Z</time>
      </trkpt>
      <trkpt lat="47.43099" lon="0.85139">
        <ele>70.8</ele>
        <time>2023-07-14T07:46:40Z</time>
      </trkpt>
      <trkpt lat="47.43105" lon="0.85145">
        <ele>70.8</ele>
        <time>2023-07-14T07:46:41Z</time>
      </trkpt>
      <trkpt lat="47.43111" lon="0.85151">
        <ele>71</ele>
        <time>2023-07-14T07:46:42Z</time>
      </trkpt>
      <trkpt lat="47.43116" lon="0.85157">
        <ele>71</ele>
        <time>2023-07-14T07:46:43Z</time>
      </trkpt>
      <trkpt lat="47.43122" lon="0.85163">
        <ele>71</ele>
        <time>2023-07-14T07:46:44Z</time>
      </trkpt>
      <trkpt lat="47.43128" lon="0.8517">
        <ele>71</ele>
        <time>2023-07-14T07:46:45Z</time>
      </trkpt>
      <trkpt lat="47.43134" lon="0.85176">
        <ele>71</ele>
        <time>2023-07-14T07:46:46Z</time>
      </trkpt>
      <trkpt lat="47.4314" lon="0.85182">
        <ele>70.8</ele>
        <time>2023-07-14T07:46:47Z</time>
      </trkpt>
      <trkpt lat="47.43145" lon="0.85188">
        <ele>70.8</ele>
        <time>2023-07-14T07:46:48Z</time>
      </trkpt>
      <trkpt lat="47.43151" lon="0.85194">
        <ele>70.8</ele>
        <time>2023-07-14T07:46:49Z</time>
      </trkpt>
      <trkpt lat="47.43157" lon="0.852">
        <ele>70.8</ele>
        <time>2023-07-14T07:46:50Z</time>
      </trkpt>
      <trkpt lat="47.43163" lon="0.85206">
        <ele>70.8</ele>
        <time>2023-07-14T07:46:51Z</time>
      </trkpt>
      <trkpt lat="47.43169" lon="0.85213">
        <ele>70.8</ele>
        <time>2023-07-14T07:46:52Z</time>
      </trkpt>
      <trkpt lat="47.43175" lon="0.85219">
        <ele>70.8</ele>
        <time>2023-07-14T07:46:53Z</time>
      </trkpt>
      <trkpt lat="47.4318" lon="0.85225">
        <ele>70.8</ele>
        <time>2023-07-14T07:46:54Z</time>
      </trkpt>
      <trkpt lat="47.43187" lon="0.85231">
        <ele>70.8</ele>
        <time>2023-07-14T07:46:55Z</time>
      </trkpt>
      <trkpt lat="47.43192" lon="0.85237">
        <ele>70.6</ele>
        <time>2023-07-14T07:46:56Z</time>
      </trkpt>
      <trkpt lat="47.43198" lon="0.85243">
        <ele>70.6</ele>
        <time>2023-07-14T07:46:57Z</time>
      </trkpt>
      <trkpt lat="47.43204" lon="0.85248">
        <ele>70.8</ele>
        <time>2023-07-14T07:46:58Z</time>
      </trkpt>
      <trkpt lat="47.4321" lon="0.85254">
        <ele>70.8</ele>
        <time>2023-07-14T07:46:59Z</time>
      </trkpt>
      <trkpt lat="47.43215" lon="0.85259">
        <ele>70.6</ele>
        <time>2023-07-14T07:47:00Z</time>
      </trkpt>
      <trkpt lat="47.43221" lon="0.85264">
        <ele>70.6</ele>
        <time>2023-07-14T07:47:01Z</time>
      </trkpt>
      <trkpt lat="47.43228" lon="0.85271">
        <ele>70.8</ele>
        <time>2023-07-14T07:47:02Z</time>
      </trkpt>
      <trkpt lat="47.43235" lon="0.85276">
        <ele>70.8</ele>
        <time>2023-07-14T07:47:03Z</time>
      </trkpt>
      <trkpt lat="47.4324" lon="0.85281">
        <ele>70.8</ele>
        <time>2023-07-14T07:47:04Z</time>
      </trkpt>
      <trkpt lat="47.43246" lon="0.85286">
        <ele>70.8</ele>
        <time>2023-07-14T07:47:05Z</time>
      </trkpt>
      <trkpt lat="47.43253" lon="0.85291">
        <ele>70.8</ele>
        <time>2023-07-14T07:47:06Z</time>
      </trkpt>
      <trkpt lat="47.43261" lon="0.85296">
        <ele>70.8</ele>
        <time>2023-07-14T07:47:07Z</time>
      </trkpt>
      <trkpt lat="47.43267" lon="0.853">
        <ele>70.6</ele>
        <time>2023-07-14T07:47:08Z</time>
      </trkpt>
      <trkpt lat="47.43273" lon="0.85303">
        <ele>70.6</ele>
        <time>2023-07-14T07:47:09Z</time>
      </trkpt>
      <trkpt lat="47.43279" lon="0.85307">
        <ele>70.6</ele>
        <time>2023-07-14T07:47:10Z</time>
      </trkpt>
      <trkpt lat="47.43285" lon="0.85311">
        <ele>70.8</ele>
        <time>2023-07-14T07:47:11Z</time>
      </trkpt>
      <trkpt lat="47.43293" lon="0.85315">
        <ele>70.8</ele>
        <time>2023-07-14T07:47:12Z</time>
      </trkpt>
      <trkpt lat="47.43301" lon="0.85319">
        <ele>71</ele>
        <time>2023-07-14T07:47:13Z</time>
      </trkpt>
      <trkpt lat="47.43307" lon="0.85322">
        <ele>70.8</ele>
        <time>2023-07-14T07:47:14Z</time>
      </trkpt>
      <trkpt lat="47.43314" lon="0.85325">
        <ele>70.8</ele>
        <time>2023-07-14T07:47:15Z</time>
      </trkpt>
      <trkpt lat="47.43322" lon="0.85328">
        <ele>71</ele>
        <time>2023-07-14T07:47:16Z</time>
      </trkpt>
      <trkpt lat="47.43329" lon="0.85331">
        <ele>71</ele>
        <time>2023-07-14T07:47:17Z</time>
      </trkpt>
      <trkpt lat="47.43336" lon="0.85334">
        <ele>71.2</ele>
        <time>2023-07-14T07:47:18Z</time>
      </trkpt>
      <trkpt lat="47.43342" lon="0.85336">
        <ele>71.2</ele>
        <time>2023-07-14T07:47:19Z</time>
      </trkpt>
      <trkpt lat="47.43349" lon="0.8534">
        <ele>71.4</ele>
        <time>2023-07-14T07:47:20Z</time>
      </trkpt>
      <trkpt lat="47.43357" lon="0.85343">
        <ele>71.4</ele>
        <time>2023-07-14T07:47:21Z</time>
      </trkpt>
      <trkpt lat="47.43364" lon="0.85345">
        <ele>71.6</ele>
        <time>2023-07-14T07:47:22Z</time>
      </trkpt>
      <trkpt lat="47.43371" lon="0.85348">
        <ele>71.6</ele>
        <time>2023-07-14T07:47:23Z</time>
      </trkpt>
      <trkpt lat="47.43378" lon="0.8535">
        <ele>71.4</ele>
        <time>2023-07-14T07:47:24Z</time>
      </trkpt>
      <trkpt lat="47.43384" lon="0.85353">
        <ele>71.4</ele>
        <time>2023-07-14T07:47:25Z</time>
      </trkpt>
      <trkpt lat="47.43391" lon="0.85356">
        <ele>71.4</ele>
        <time>2023-07-14T07:47:26Z</time>
      </trkpt>
      <trkpt lat="47.43397" lon="0.85359">
        <ele>71.4</ele>
        <time>2023-07-14T07:47:27Z</time>
      </trkpt>
      <trkpt lat="47.43403" lon="0.85362">
        <ele>71.4</ele>
        <time>2023-07-14T07:47:28Z</time>
      </trkpt>
      <trkpt lat="47.4341" lon="0.85364">
        <ele>71.4</ele>
        <time>2023-07-14T07:47:29Z</time>
      </trkpt>
      <trkpt lat="47.43417" lon="0.85367">
        <ele>71.4</ele>
        <time>2023-07-14T07:47:30Z</time>
      </trkpt>
      <trkpt lat="47.43424" lon="0.85369">
        <ele>71.6</ele>
        <time>2023-07-14T07:47:31Z</time>
      </trkpt>
      <trkpt lat="47.43431" lon="0.85372">
        <ele>71.6</ele>
        <time>2023-07-14T07:47:32Z</time>
      </trkpt>
      <trkpt lat="47.43438" lon="0.85374">
        <ele>71.6</ele>
        <time>2023-07-14T07:47:33Z</time>
      </trkpt>
      <trkpt lat="47.43445" lon="0.85377">
        <ele>71.8</ele>
        <time>2023-07-14T07:47:34Z</time>
      </trkpt>
      <trkpt lat="47.43452" lon="0.85379">
        <ele>71.8</ele>
        <time>2023-07-14T07:47:35Z</time>
      </trkpt>
      <trkpt lat="47.43459" lon="0.85381">
        <ele>72</ele>
        <time>2023-07-14T07:47:36Z</time>
      </trkpt>
      <trkpt lat="47.43467" lon="0.85384">
        <ele>72.2</ele>
        <time>2023-07-14T07:47:37Z</time>
      </trkpt>
      <trkpt lat="47.43474" lon="0.85386">
        <ele>72.4</ele>
        <time>2023-07-14T07:47:38Z</time>
      </trkpt>
      <trkpt lat="47.43481" lon="0.85388">
        <ele>72.4</ele>
        <time>2023-07-14T07:47:39Z</time>
      </trkpt>
      <trkpt lat="47.43488" lon="0.85391">
        <ele>72.4</ele>
        <time>2023-07-14T07:47:40Z</time>
      </trkpt>
      <trkpt lat="47.43495" lon="0.85393">
        <ele>72.6</ele>
        <time>2023-07-14T07:47:41Z</time>
      </trkpt>
      <trkpt lat="47.43502" lon="0.85396">
        <ele>72.4</ele>
        <time>2023-07-14T07:47:42Z</time>
      </trkpt>
      <trkpt lat="47.43508" lon="0.85398">
        <ele>72.4</ele>
        <time>2023-07-14T07:47:43Z</time>
      </trkpt>
      <trkpt lat="47.43515" lon="0.85401">
        <ele>72.2</ele>
        <time>2023-07-14T07:47:44Z</time>
      </trkpt>
      <trkpt lat="47.43524" lon="0.85404">
        <ele>72.2</ele>
        <time>2023-07-14T07:47:45Z</time>
      </trkpt>
      <trkpt lat="47.43531" lon="0.85406">
        <ele>72.2</ele>
        <time>2023-07-14T07:47:46Z</time>
      </trkpt>
      <trkpt lat="47.43537" lon="0.85408">
        <ele>72</ele>
        <time>2023-07-14T07:47:47Z</time>
      </trkpt>
      <trkpt lat="47.43544" lon="0.85411">
        <ele>72</ele>
        <time>2023-07-14T07:47:48Z</time>
      </trkpt>
      <trkpt lat="47.43551" lon="0.85413">
        <ele>72</ele>
        <time>2023-07-14T07:47:49Z</time>
      </trkpt>
      <trkpt lat="47.43559" lon="0.85416">
        <ele>72</ele>
        <time>2023-07-14T07:47:50Z</time>
      </trkpt>
      <trkpt lat="47.43566" lon="0.85419">
        <ele>71.8</ele>
        <time>2023-07-14T07:47:51Z</time>
      </trkpt>
      <trkpt lat="47.43573" lon="0.85422">
        <ele>71.8</ele>
        <time>2023-07-14T07:47:52Z</time>
      </trkpt>
      <trkpt lat="47.43579" lon="0.85424">
        <ele>71.8</ele>
        <time>2023-07-14T07:47:53Z</time>
      </trkpt>
      <trkpt lat="47.43586" lon="0.85427">
        <ele>71.8</ele>
        <time>2023-07-14T07:47:54Z</time>
      </trkpt>
      <trkpt lat="47.43594" lon="0.85431">
        <ele>71.8</ele>
        <time>2023-07-14T07:47:55Z</time>
      </trkpt>
      <trkpt lat="47.436" lon="0.85434">
        <ele>72</ele>
        <time>2023-07-14T07:47:56Z</time>
      </trkpt>
      <trkpt lat="47.43607" lon="0.85437">
        <ele>71.8</ele>
        <time>2023-07-14T07:47:57Z</time>
      </trkpt>
      <trkpt lat="47.43613" lon="0.85441">
        <ele>71.8</ele>
        <time>2023-07-14T07:47:58Z</time>
      </trkpt>
      <trkpt lat="47.4362" lon="0.85445">
        <ele>72</ele>
        <time>2023-07-14T07:47:59Z</time>
      </trkpt>
      <trkpt lat="47.43628" lon="0.8545">
        <ele>72</ele>
        <time>2023-07-14T07:48:00Z</time>
      </trkpt>
      <trkpt lat="47.43634" lon="0.85454">
        <ele>71.8</ele>
        <time>2023-07-14T07:48:01Z</time>
      </trkpt>
      <trkpt lat="47.43641" lon="0.85458">
        <ele>71.8</ele>
        <time>2023-07-14T07:48:02Z</time>
      </trkpt>
      <trkpt lat="47.43646" lon="0.85462">
        <ele>71.8</ele>
        <time>2023-07-14T07:48:03Z</time>
      </trkpt>
      <trkpt lat="47.43652" lon="0.85467">
        <ele>71.8</ele>
        <time>2023-07-14T07:48:04Z</time>
      </trkpt>
      <trkpt lat="47.43659" lon="0.85473">
        <ele>71.8</ele>
        <time>2023-07-14T07:48:05Z</time>
      </trkpt>
      <trkpt lat="47.43665" lon="0.85478">
        <ele>71.6</ele>
        <time>2023-07-14T07:48:06Z</time>
      </trkpt>
      <trkpt lat="47.4367" lon="0.85483">
        <ele>71.6</ele>
        <time>2023-07-14T07:48:07Z</time>
      </trkpt>
      <trkpt lat="47.43676" lon="0.85489">
        <ele>71.4</ele>
        <time>2023-07-14T07:48:08Z</time>
      </trkpt>
      <trkpt lat="47.43682" lon="0.85495">
        <ele>71.4</ele>
        <time>2023-07-14T07:48:09Z</time>
      </trkpt>
      <trkpt lat="47.43689" lon="0.85501">
        <ele>71.4</ele>
        <time>2023-07-14T07:48:10Z</time>
      </trkpt>
      <trkpt lat="47.43695" lon="0.85507">
        <ele>71.4</ele>
        <time>2023-07-14T07:48:11Z</time>
      </trkpt>
      <trkpt lat="47.43701" lon="0.85513">
        <ele>71.4</ele>
        <time>2023-07-14T07:48:12Z</time>
      </trkpt>
      <trkpt lat="47.43707" lon="0.85519">
        <ele>71.4</ele>
        <time>2023-07-14T07:48:13Z</time>
      </trkpt>
      <trkpt lat="47.43713" lon="0.85524">
        <ele>71.6</ele>
        <time>2023-07-14T07:48:14Z</time>
      </trkpt>
      <trkpt lat="47.43719" lon="0.85531">
        <ele>71.6</ele>
        <time>2023-07-14T07:48:15Z</time>
      </trkpt>
      <trkpt lat="47.43725" lon="0.85537">
        <ele>71.6</ele>
        <time>2023-07-14T07:48:16Z</time>
      </trkpt>
      <trkpt lat="47.43731" lon="0.85543">
        <ele>71.6</ele>
        <time>2023-07-14T07:48:17Z</time>
      </trkpt>
      <trkpt lat="47.43737" lon="0.85549">
        <ele>71.6</ele>
        <time>2023-07-14T07:48:18Z</time>
      </trkpt>
      <trkpt lat="47.43743" lon="0.85555">
        <ele>71.6</ele>
        <time>2023-07-14T07:48:19Z</time>
      </trkpt>
      <trkpt lat="47.43749" lon="0.85561">
        <ele>71.6</ele>
        <time>2023-07-14T07:48:20Z</time>
      </trkpt>
      <trkpt lat="47.43755" lon="0.85566">
        <ele>71.6</ele>
        <time>2023-07-14T07:48:21Z</time>
      </trkpt>
      <trkpt lat="47.4376" lon="0.85572">
        <ele>71.6</ele>
        <time>2023-07-14T07:48:22Z</time>
      </trkpt>
      <trkpt lat="47.43766" lon="0.85578">
        <ele>71.6</ele>
        <time>2023-07-14T07:48:23Z</time>
      </trkpt>
      <trkpt lat="47.43771" lon="0.85583">
        <ele>71.4</ele>
        <time>2023-07-14T07:48:24Z</time>
      </trkpt>
      <trkpt lat="47.43776" lon="0.85588">
        <ele>71.4</ele>
        <time>2023-07-14T07:48:25Z</time>
      </trkpt>
      <trkpt lat="47.4378" lon="0.85592">
        <ele>71.2</ele>
        <time>2023-07-14T07:48:26Z</time>
      </trkpt>
      <trkpt lat="47.43784" lon="0.85596">
        <ele>71.2</ele>
        <time>2023-07-14T07:48:27Z</time>
      </trkpt>
      <trkpt lat="47.43787" lon="0.85599">
        <ele>71.2</ele>
        <time>2023-07-14T07:48:28Z</time>
      </trkpt>
      <trkpt lat="47.43792" lon="0.856">
        <ele>71.2</ele>
        <time>2023-07-14T07:48:29Z</time>
      </trkpt>
      <trkpt lat="47.43797" lon="0.85601">
        <ele>71.2</ele>
        <time>2023-07-14T07:48:30Z</time>
      </trkpt>
      <trkpt lat="47.43802" lon="0.85601">
        <ele>71.2</ele>
        <time>2023-07-14T07:48:31Z</time>
      </trkpt>
      <trkpt lat="47.43808" lon="0.85601">
        <ele>71.4</ele>
        <time>2023-07-14T07:48:32Z</time>
      </trkpt>
      <trkpt lat="47.43814" lon="0.856">
        <ele>71.4</ele>
        <time>2023-07-14T07:48:33Z</time>
      </trkpt>
      <trkpt lat="47.43821" lon="0.85599">
        <ele>71.6</ele>
        <time>2023-07-14T07:48:34Z</time>
      </trkpt>
      <trkpt lat="47.43827" lon="0.85598">
        <ele>71.8</ele>
        <time>2023-07-14T07:48:35Z</time>
      </trkpt>
      <trkpt lat="47.43833" lon="0.85597">
        <ele>71.8</ele>
        <time>2023-07-14T07:48:36Z</time>
      </trkpt>
      <trkpt lat="47.4384" lon="0.85596">
        <ele>72</ele>
        <time>2023-07-14T07:48:37Z</time>
      </trkpt>
      <trkpt lat="47.43846" lon="0.85595">
        <ele>72.2</ele>
        <time>2023-07-14T07:48:38Z</time>
      </trkpt>
      <trkpt lat="47.43852" lon="0.85594">
        <ele>72.2</ele>
        <time>2023-07-14T07:48:39Z</time>
      </trkpt>
      <trkpt lat="47.43858" lon="0.85594">
        <ele>72.4</ele>
        <time>2023-07-14T07:48:40Z</time>
      </trkpt>
      <trkpt lat="47.43864" lon="0.85593">
        <ele>72.4</ele>
        <time>2023-07-14T07:48:41Z</time>
      </trkpt>
      <trkpt lat="47.43871" lon="0.85592">
        <ele>72.6</ele>
        <time>2023-07-14T07:48:42Z</time>
      </trkpt>
      <trkpt lat="47.43877" lon="0.85591">
        <ele>72.6</ele>
        <time>2023-07-14T07:48:43Z</time>
      </trkpt>
      <trkpt lat="47.43882" lon="0.8559">
        <ele>72.6</ele>
        <time>2023-07-14T07:48:44Z</time>
      </trkpt>
      <trkpt lat="47.43888" lon="0.85589">
        <ele>72.8</ele>
        <time>2023-07-14T07:48:45Z</time>
      </trkpt>
      <trkpt lat="47.43895" lon="0.85589">
        <ele>72.8</ele>
        <time>2023-07-14T07:48:46Z</time>
      </trkpt>
      <trkpt lat="47.43901" lon="0.85588">
        <ele>73</ele>
        <time>2023-07-14T07:48:47Z</time>
      </trkpt>
      <trkpt lat="47.43908" lon="0.85587">
        <ele>73</ele>
        <time>2023-07-14T07:48:48Z</time>
      </trkpt>
      <trkpt lat="47.43914" lon="0.85586">
        <ele>73.2</ele>
        <time>2023-07-14T07:48:49Z</time>
      </trkpt>
      <trkpt lat="47.4392" lon="0.85585">
        <ele>73.4</ele>
        <time>2023-07-14T07:48:50Z</time>
      </trkpt>
      <trkpt lat="47.43926" lon="0.85584">
        <ele>73.4</ele>
        <time>2023-07-14T07:48:51Z</time>
      </trkpt>
      <trkpt lat="47.43933" lon="0.85583">
        <ele>73.6</ele>
        <time>2023-07-14T07:48:52Z</time>
      </trkpt>
      <trkpt lat="47.43939" lon="0.85582">
        <ele>73.8</ele>
        <time>2023-07-14T07:48:53Z</time>
      </trkpt>
      <trkpt lat="47.43945" lon="0.85582">
        <ele>73.8</ele>
        <time>2023-07-14T07:48:54Z</time>
      </trkpt>
      <trkpt lat="47.43951" lon="0.85581">
        <ele>74</ele>
        <time>2023-07-14T07:48:55Z</time>
      </trkpt>
      <trkpt lat="47.43957" lon="0.8558">
        <ele>74.2</ele>
        <time>2023-07-14T07:48:56Z</time>
      </trkpt>
      <trkpt lat="47.43963" lon="0.85579">
        <ele>74.4</ele>
        <time>2023-07-14T07:48:57Z</time>
      </trkpt>
      <trkpt lat="47.43969" lon="0.85578">
        <ele>74.6</ele>
        <time>2023-07-14T07:48:58Z</time>
      </trkpt>
      <trkpt lat="47.43975" lon="0.85577">
        <ele>74.8</ele>
        <time>2023-07-14T07:48:59Z</time>
      </trkpt>
      <trkpt lat="47.43981" lon="0.85576">
        <ele>75</ele>
        <time>2023-07-14T07:49:00Z</time>
      </trkpt>
      <trkpt lat="47.43987" lon="0.85575">
        <ele>75.2</ele>
        <time>2023-07-14T07:49:01Z</time>
      </trkpt>
      <trkpt lat="47.43993" lon="0.85574">
        <ele>75.4</ele>
        <time>2023-07-14T07:49:02Z</time>
      </trkpt>
      <trkpt lat="47.43999" lon="0.85573">
        <ele>75.6</ele>
        <time>2023-07-14T07:49:03Z</time>
      </trkpt>
      <trkpt lat="47.44004" lon="0.85572">
        <ele>75.8</ele>
        <time>2023-07-14T07:49:04Z</time>
      </trkpt>
      <trkpt lat="47.44011" lon="0.85572">
        <ele>76</ele>
        <time>2023-07-14T07:49:05Z</time>
      </trkpt>
      <trkpt lat="47.44017" lon="0.85571">
        <ele>76</ele>
        <time>2023-07-14T07:49:06Z</time>
      </trkpt>
      <trkpt lat="47.44022" lon="0.8557">
        <ele>76.2</ele>
        <time>2023-07-14T07:49:07Z</time>
      </trkpt>
      <trkpt lat="47.44028" lon="0.8557">
        <ele>76.4</ele>
        <time>2023-07-14T07:49:08Z</time>
      </trkpt>
      <trkpt lat="47.44034" lon="0.85569">
        <ele>76.6</ele>
        <time>2023-07-14T07:49:09Z</time>
      </trkpt>
      <trkpt lat="47.4404" lon="0.85568">
        <ele>76.8</ele>
        <time>2023-07-14T07:49:10Z</time>
      </trkpt>
      <trkpt lat="47.44046" lon="0.85567">
        <ele>77</ele>
        <time>2023-07-14T07:49:11Z</time>
      </trkpt>
      <trkpt lat="47.44052" lon="0.85566">
        <ele>77.2</ele>
        <time>2023-07-14T07:49:12Z</time>
      </trkpt>
      <trkpt lat="47.44058" lon="0.85565">
        <ele>77.4</ele>
        <time>2023-07-14T07:49:13Z</time>
      </trkpt>
      <trkpt lat="47.44064" lon="0.85564">
        <ele>77.6</ele>
        <time>2023-07-14T07:49:14Z</time>
      </trkpt>
      <trkpt lat="47.4407" lon="0.85563">
        <ele>77.8</ele>
        <time>2023-07-14T07:49:15Z</time>
      </trkpt>
      <trkpt lat="47.44075" lon="0.85562">
        <ele>78</ele>
        <time>2023-07-14T07:49:16Z</time>
      </trkpt>
      <trkpt lat="47.44081" lon="0.85561">
        <ele>78.2</ele>
        <time>2023-07-14T07:49:17Z</time>
      </trkpt>
      <trkpt lat="47.44087" lon="0.8556">
        <ele>78.6</ele>
        <time>2023-07-14T07:49:18Z</time>
      </trkpt>
      <trkpt lat="47.44093" lon="0.8556">
        <ele>78.8</ele>
        <time>2023-07-14T07:49:19Z</time>
      </trkpt>
      <trkpt lat="47.44098" lon="0.85559">
        <ele>79</ele>
        <time>2023-07-14T07:49:20Z</time>
      </trkpt>
      <trkpt lat="47.44104" lon="0.85558">
        <ele>79.2</ele>
        <time>2023-07-14T07:49:21Z</time>
      </trkpt>
      <trkpt lat="47.44109" lon="0.85558">
        <ele>79.4</ele>
        <time>2023-07-14T07:49:22Z</time>
      </trkpt>
      <trkpt lat="47.44114" lon="0.85557">
        <ele>79.8</ele>
        <time>2023-07-14T07:49:23Z</time>
      </trkpt>
      <trkpt lat="47.4412" lon="0.85556">
        <ele>80</ele>
        <time>2023-07-14T07:49:24Z</time>
      </trkpt>
      <trkpt lat="47.44125" lon="0.85555">
        <ele>80.4</ele>
        <time>2023-07-14T07:49:25Z</time>
      </trkpt>
      <trkpt lat="47.4413" lon="0.85555">
        <ele>80.8</ele>
        <time>2023-07-14T07:49:26Z</time>
      </trkpt>
      <trkpt lat="47.44135" lon="0.85554">
        <ele>81.2</ele>
        <time>2023-07-14T07:49:27Z</time>
      </trkpt>
      <trkpt lat="47.4414" lon="0.85553">
        <ele>81.4</ele>
        <time>2023-07-14T07:49:28Z</time>
      </trkpt>
      <trkpt lat="47.44145" lon="0.85552">
        <ele>81.8</ele>
        <time>2023-07-14T07:49:29Z</time>
      </trkpt>
      <trkpt lat="47.4415" lon="0.85552">
        <ele>82.2</ele>
        <time>2023-07-14T07:49:30Z</time>
      </trkpt>
      <trkpt lat="47.44155" lon="0.85551">
        <ele>82.6</ele>
        <time>2023-07-14T07:49:31Z</time>
      </trkpt>
      <trkpt lat="47.4416" lon="0.8555">
        <ele>83</ele>
        <time>2023-07-14T07:49:32Z</time>
      </trkpt>
      <trkpt lat="47.44165" lon="0.8555">
        <ele>83.2</ele>
        <time>2023-07-14T07:49:33Z</time>
      </trkpt>
      <trkpt lat="47.4417" lon="0.85549">
        <ele>83.6</ele>
        <time>2023-07-14T07:49:34Z</time>
      </trkpt>
      <trkpt lat="47.44175" lon="0.85548">
        <ele>83.8</ele>
        <time>2023-07-14T07:49:35Z</time>
      </trkpt>
      <trkpt lat="47.4418" lon="0.85548">
        <ele>84</ele>
        <time>2023-07-14T07:49:36Z</time>
      </trkpt>
      <trkpt lat="47.44186" lon="0.85547">
        <ele>84.4</ele>
        <time>2023-07-14T07:49:37Z</time>
      </trkpt>
      <trkpt lat="47.44191" lon="0.85547">
        <ele>84.6</ele>
        <time>2023-07-14T07:49:38Z</time>
      </trkpt>
      <trkpt lat="47.44196" lon="0.85547">
        <ele>85</ele>
        <time>2023-07-14T07:49:39Z</time>
      </trkpt>
      <trkpt lat="47.44202" lon="0.85547">
        <ele>85.2</ele>
        <time>2023-07-14T07:49:40Z</time>
      </trkpt>
      <trkpt lat="47.44207" lon="0.85547">
        <ele>85.4</ele>
        <time>2023-07-14T07:49:41Z</time>
      </trkpt>
      <trkpt lat="47.44212" lon="0.85547">
        <ele>85.8</ele>
        <time>2023-07-14T07:49:42Z</time>
      </trkpt>
      <trkpt lat="47.44218" lon="0.85547">
        <ele>86</ele>
        <time>2023-07-14T07:49:43Z</time>
      </trkpt>
      <trkpt lat="47.44223" lon="0.85548">
        <ele>86.2</ele>
        <time>2023-07-14T07:49:44Z</time>
      </trkpt>
      <trkpt lat="47.44228" lon="0.85548">
        <ele>86.2</ele>
        <time>2023-07-14T07:49:45Z</time>
      </trkpt>
      <trkpt lat="47.44234" lon="0.85548">
        <ele>86.4</ele>
        <time>2023-07-14T07:49:46Z</time>
      </trkpt>
      <trkpt lat="47.4424" lon="0.85549">
        <ele>86.4</ele>
        <time>2023-07-14T07:49:47Z</time>
      </trkpt>
      <trkpt lat="47.44245" lon="0.85549">
        <ele>86.2</ele>
        <time>2023-07-14T07:49:48Z</time>
      </trkpt>
      <trkpt lat="47.4425" lon="0.8555">
        <ele>86.2</ele>
        <time>2023-07-14T07:49:49Z</time>
      </trkpt>
      <trkpt lat="47.44257" lon="0.85551">
        <ele>86</ele>
        <time>2023-07-14T07:49:50Z</time>
      </trkpt>
      <trkpt lat="47.44265" lon="0.85551">
        <ele>86</ele>
        <time>2023-07-14T07:49:51Z</time>
      </trkpt>
      <trkpt lat="47.44271" lon="0.8555">
        <ele>85.6</ele>
        <time>2023-07-14T07:49:52Z</time>
      </trkpt>
      <trkpt lat="47.44277" lon="0.85549">
        <ele>85.6</ele>
        <time>2023-07-14T07:49:53Z</time>
      </trkpt>
      <trkpt lat="47.44285" lon="0.85547">
        <ele>85.2</ele>
        <time>2023-07-14T07:49:54Z</time>
      </trkpt>
      <trkpt lat="47.44294" lon="0.85545">
        <ele>84.8</ele>
        <time>2023-07-14T07:49:55Z</time>
      </trkpt>
      <trkpt lat="47.44302" lon="0.85542">
        <ele>84.6</ele>
        <time>2023-07-14T07:49:56Z</time>
      </trkpt>
      <trkpt lat="47.4431" lon="0.85539">
        <ele>84.2</ele>
        <time>2023-07-14T07:49:57Z</time>
      </trkpt>
      <trkpt lat="47.44317" lon="0.85535">
        <ele>83.8</ele>
        <time>2023-07-14T07:49:58Z</time>
      </trkpt>
      <trkpt lat="47.44325" lon="0.85529">
        <ele>83.4</ele>
        <time>2023-07-14T07:49:59Z</time>
      </trkpt>
      <trkpt lat="47.44334" lon="0.85523">
        <ele>83</ele>
        <time>2023-07-14T07:50:00Z</time>
      </trkpt>
      <trkpt lat="47.44342" lon="0.85516">
        <ele>82.8</ele>
        <time>2023-07-14T07:50:01Z</time>
      </trkpt>
      <trkpt lat="47.4435" lon="0.8551">
        <ele>82.6</ele>
        <time>2023-07-14T07:50:02Z</time>
      </trkpt>
      <trkpt lat="47.44358" lon="0.85504">
        <ele>82.4</ele>
        <time>2023-07-14T07:50:03Z</time>
      </trkpt>
      <trkpt lat="47.44367" lon="0.85497">
        <ele>82</ele>
        <time>2023-07-14T07:50:04Z</time>
      </trkpt>
      <trkpt lat="47.44374" lon="0.8549">
        <ele>81.4</ele>
        <time>2023-07-14T07:50:05Z</time>
      </trkpt>
      <trkpt lat="47.44383" lon="0.85484">
        <ele>81</ele>
        <time>2023-07-14T07:50:06Z</time>
      </trkpt>
      <trkpt lat="47.44391" lon="0.85478">
        <ele>80.8</ele>
        <time>2023-07-14T07:50:07Z</time>
      </trkpt>
      <trkpt lat="47.444" lon="0.85472">
        <ele>80.6</ele>
        <time>2023-07-14T07:50:08Z</time>
      </trkpt>
      <trkpt lat="47.44408" lon="0.85467">
        <ele>80.4</ele>
        <time>2023-07-14T07:50:09Z</time>
      </trkpt>
      <trkpt lat="47.44416" lon="0.85461">
        <ele>80.2</ele>
        <time>2023-07-14T07:50:10Z</time>
      </trkpt>
      <trkpt lat="47.44423" lon="0.85457">
        <ele>80.2</ele>
        <time>2023-07-14T07:50:11Z</time>
      </trkpt>
      <trkpt lat="47.44431" lon="0.85452">
        <ele>80.2</ele>
        <time>2023-07-14T07:50:12Z</time>
      </trkpt>
      <trkpt lat="47.44439" lon="0.85446">
        <ele>80</ele>
        <time>2023-07-14T07:50:13Z</time>
      </trkpt>
      <trkpt lat="47.44446" lon="0.8544">
        <ele>80</ele>
        <time>2023-07-14T07:50:14Z</time>
      </trkpt>
      <trkpt lat="47.44453" lon="0.85434">
        <ele>80</ele>
        <time>2023-07-14T07:50:15Z</time>
      </trkpt>
      <trkpt lat="47.44459" lon="0.85428">
        <ele>80</ele>
        <time>2023-07-14T07:50:16Z</time>
      </trkpt>
      <trkpt lat="47.44464" lon="0.8542">
        <ele>80</ele>
        <time>2023-07-14T07:50:17Z</time>
      </trkpt>
      <trkpt lat="47.44469" lon="0.85412">
        <ele>80.2</ele>
        <time>2023-07-14T07:50:18Z</time>
      </trkpt>
      <trkpt lat="47.44475" lon="0.85404">
        <ele>80</ele>
        <time>2023-07-14T07:50:19Z</time>
      </trkpt>
      <trkpt lat="47.4448" lon="0.85397">
        <ele>80</ele>
        <time>2023-07-14T07:50:20Z</time>
      </trkpt>
      <trkpt lat="47.44485" lon="0.8539">
        <ele>80.2</ele>
        <time>2023-07-14T07:50:21Z</time>
      </trkpt>
      <trkpt lat="47.4449" lon="0.85382">
        <ele>80.2</ele>
        <time>2023-07-14T07:50:22Z</time>
      </trkpt>
      <trkpt lat="47.44495" lon="0.85375">
        <ele>80</ele>
        <time>2023-07-14T07:50:23Z</time>
      </trkpt>
      <trkpt lat="47.44501" lon="0.85368">
        <ele>80</ele>
        <time>2023-07-14T07:50:24Z</time>
      </trkpt>
      <trkpt lat="47.44507" lon="0.85362">
        <ele>80</ele>
        <time>2023-07-14T07:50:25Z</time>
      </trkpt>
      <trkpt lat="47.44513" lon="0.85356">
        <ele>80</ele>
        <time>2023-07-14T07:50:26Z</time>
      </trkpt>
      <trkpt lat="47.44519" lon="0.85351">
        <ele>80.2</ele>
        <time>2023-07-14T07:50:27Z</time>
      </trkpt>
      <trkpt lat="47.44526" lon="0.85347">
        <ele>80.2</ele>
        <time>2023-07-14T07:50:28Z</time>
      </trkpt>
      <trkpt lat="47.44532" lon="0.85342">
        <ele>80.2</ele>
        <time>2023-07-14T07:50:29Z</time>
      </trkpt>
      <trkpt lat="47.44538" lon="0.85338">
        <ele>80</ele>
        <time>2023-07-14T07:50:30Z</time>
      </trkpt>
      <trkpt lat="47.44545" lon="0.85334">
        <ele>80.2</ele>
        <time>2023-07-14T07:50:31Z</time>
      </trkpt>
      <trkpt lat="47.44552" lon="0.8533">
        <ele>80.2</ele>
        <time>2023-07-14T07:50:32Z</time>
      </trkpt>
      <trkpt lat="47.44558" lon="0.85325">
        <ele>80.4</ele>
        <time>2023-07-14T07:50:33Z</time>
      </trkpt>
      <trkpt lat="47.44564" lon="0.8532">
        <ele>80.4</ele>
        <time>2023-07-14T07:50:34Z</time>
      </trkpt>
      <trkpt lat="47.44571" lon="0.85314">
        <ele>80.4</ele>
        <time>2023-07-14T07:50:35Z</time>
      </trkpt>
      <trkpt lat="47.44577" lon="0.85309">
        <ele>80.4</ele>
        <time>2023-07-14T07:50:36Z</time>
      </trkpt>
      <trkpt lat="47.44584" lon="0.85303">
        <ele>80.4</ele>
        <time>2023-07-14T07:50:37Z</time>
      </trkpt>
      <trkpt lat="47.4459" lon="0.85296">
        <ele>80.2</ele>
        <time>2023-07-14T07:50:38Z</time>
      </trkpt>
      <trkpt lat="47.44595" lon="0.8529">
        <ele>80.2</ele>
        <time>2023-07-14T07:50:39Z</time>
      </trkpt>
      <trkpt lat="47.44601" lon="0.85283">
        <ele>80.2</ele>
        <time>2023-07-14T07:50:40Z</time>
      </trkpt>
      <trkpt lat="47.44606" lon="0.85276">
        <ele>80.2</ele>
        <time>2023-07-14T07:50:41Z</time>
      </trkpt>
      <trkpt lat="47.44611" lon="0.85269">
        <ele>80.2</ele>
        <time>2023-07-14T07:50:42Z</time>
      </trkpt>
      <trkpt lat="47.44616" lon="0.85262">
        <ele>80.2</ele>
        <time>2023-07-14T07:50:43Z</time>
      </trkpt>
      <trkpt lat="47.44621" lon="0.85254">
        <ele>80.2</ele>
        <time>2023-07-14T07:50:44Z</time>
      </trkpt>
      <trkpt lat="47.44626" lon="0.85247">
        <ele>80.2</ele>
        <time>2023-07-14T07:50:45Z</time>
      </trkpt>
      <trkpt lat="47.44631" lon="0.85238">
        <ele>80.4</ele>
        <time>2023-07-14T07:50:46Z</time>
      </trkpt>
      <trkpt lat="47.44635" lon="0.8523">
        <ele>80.4</ele>
        <time>2023-07-14T07:50:47Z</time>
      </trkpt>
      <trkpt lat="47.44638" lon="0.85221">
        <ele>80.6</ele>
        <time>2023-07-14T07:50:48Z</time>
      </trkpt>
      <trkpt lat="47.44642" lon="0.85212">
        <ele>80.8</ele>
        <time>2023-07-14T07:50:49Z</time>
      </trkpt>
      <trkpt lat="47.44646" lon="0.85203">
        <ele>81</ele>
        <time>2023-07-14T07:50:50Z</time>
      </trkpt>
      <trkpt lat="47.4465" lon="0.85195">
        <ele>81</ele>
        <time>2023-07-14T07:50:51Z</time>
      </trkpt>
      <trkpt lat="47.44653" lon="0.85185">
        <ele>81</ele>
        <time>2023-07-14T07:50:52Z</time>
      </trkpt>
      <trkpt lat="47.44657" lon="0.85176">
        <ele>81</ele>
        <time>2023-07-14T07:50:53Z</time>
      </trkpt>
      <trkpt lat="47.4466" lon="0.85167">
        <ele>81</ele>
        <time>2023-07-14T07:50:54Z</time>
      </trkpt>
      <trkpt lat="47.44664" lon="0.85158">
        <ele>81.2</ele>
        <time>2023-07-14T07:50:55Z</time>
      </trkpt>
      <trkpt lat="47.44667" lon="0.85149">
        <ele>81.2</ele>
        <time>2023-07-14T07:50:56Z</time>
      </trkpt>
      <trkpt lat="47.4467" lon="0.8514">
        <ele>81.2</ele>
        <time>2023-07-14T07:50:57Z</time>
      </trkpt>
      <trkpt lat="47.44674" lon="0.85131">
        <ele>81.2</ele>
        <time>2023-07-14T07:50:58Z</time>
      </trkpt>
      <trkpt lat="47.44677" lon="0.85122">
        <ele>81</ele>
        <time>2023-07-14T07:50:59Z</time>
      </trkpt>
      <trkpt lat="47.44681" lon="0.85113">
        <ele>81</ele>
        <time>2023-07-14T07:51:00Z</time>
      </trkpt>
      <trkpt lat="47.44685" lon="0.85103">
        <ele>81</ele>
        <time>2023-07-14T07:51:01Z</time>
      </trkpt>
      <trkpt lat="47.44688" lon="0.85094">
        <ele>81</ele>
        <time>2023-07-14T07:51:02Z</time>
      </trkpt>
      <trkpt lat="47.44692" lon="0.85085">
        <ele>81.2</ele>
        <time>2023-07-14T07:51:03Z</time>
      </trkpt>
      <trkpt lat="47.44696" lon="0.85075">
        <ele>81.2</ele>
        <time>2023-07-14T07:51:04Z</time>
      </trkpt>
      <trkpt lat="47.44699" lon="0.85065">
        <ele>81.2</ele>
        <time>2023-07-14T07:51:05Z</time>
      </trkpt>
      <trkpt lat="47.44702" lon="0.85056">
        <ele>81.2</ele>
        <time>2023-07-14T07:51:06Z</time>
      </trkpt>
      <trkpt lat="47.44704" lon="0.85046">
        <ele>81</ele>
        <time>2023-07-14T07:51:07Z</time>
      </trkpt>
      <trkpt lat="47.44707" lon="0.85035">
        <ele>81</ele>
        <time>2023-07-14T07:51:08Z</time>
      </trkpt>
      <trkpt lat="47.44709" lon="0.85025">
        <ele>81</ele>
        <time>2023-07-14T07:51:09Z</time>
      </trkpt>
      <trkpt lat="47.44711" lon="0.85014">
        <ele>81</ele>
        <time>2023-07-14T07:51:10Z</time>
      </trkpt>
      <trkpt lat="47.44713" lon="0.85003">
        <ele>81</ele>
        <time>2023-07-14T07:51:11Z</time>
      </trkpt>
      <trkpt lat="47.44714" lon="0.84993">
        <ele>81</ele>
        <time>2023-07-14T07:51:12Z</time>
      </trkpt>
      <trkpt lat="47.44716" lon="0.84982">
        <ele>81.2</ele>
        <time>2023-07-14T07:51:13Z</time>
      </trkpt>
      <trkpt lat="47.44717" lon="0.84972">
        <ele>81.2</ele>
        <time>2023-07-14T07:51:14Z</time>
      </trkpt>
      <trkpt lat="47.44718" lon="0.84961">
        <ele>81.2</ele>
        <time>2023-07-14T07:51:15Z</time>
      </trkpt>
      <trkpt lat="47.44719" lon="0.84949">
        <ele>81.2</ele>
        <time>2023-07-14T07:51:16Z</time>
      </trkpt>
      <trkpt lat="47.4472" lon="0.84938">
        <ele>81.2</ele>
        <time>2023-07-14T07:51:17Z</time>
      </trkpt>
      <trkpt lat="47.44721" lon="0.84928">
        <ele>81.2</ele>
        <time>2023-07-14T07:51:18Z</time>
      </trkpt>
      <trkpt lat="47.44723" lon="0.84918">
        <ele>81.4</ele>
        <time>2023-07-14T07:51:19Z</time>
      </trkpt>
      <trkpt lat="47.44724" lon="0.84907">
        <ele>81.4</ele>
        <time>2023-07-14T07:51:20Z</time>
      </trkpt>
      <trkpt lat="47.44725" lon="0.84897">
        <ele>81.4</ele>
        <time>2023-07-14T07:51:21Z</time>
      </trkpt>
      <trkpt lat="47.44726" lon="0.84886">
        <ele>81.4</ele>
        <time>2023-07-14T07:51:22Z</time>
      </trkpt>
      <trkpt lat="47.44727" lon="0.84876">
        <ele>81.6</ele>
        <time>2023-07-14T07:51:23Z</time>
      </trkpt>
      <trkpt lat="47.44728" lon="0.84865">
        <ele>81.6</ele>
        <time>2023-07-14T07:51:24Z</time>
      </trkpt>
      <trkpt lat="47.44729" lon="0.84854">
        <ele>81.8</ele>
        <time>2023-07-14T07:51:25Z</time>
      </trkpt>
      <trkpt lat="47.4473" lon="0.84843">
        <ele>82</ele>
        <time>2023-07-14T07:51:26Z</time>
      </trkpt>
      <trkpt lat="47.4473" lon="0.84833">
        <ele>82.2</ele>
        <time>2023-07-14T07:51:27Z</time>
      </trkpt>
      <trkpt lat="47.44731" lon="0.84822">
        <ele>82.4</ele>
        <time>2023-07-14T07:51:28Z</time>
      </trkpt>
      <trkpt lat="47.44731" lon="0.84812">
        <ele>82.4</ele>
        <time>2023-07-14T07:51:29Z</time>
      </trkpt>
      <trkpt lat="47.44732" lon="0.84801">
        <ele>82.6</ele>
        <time>2023-07-14T07:51:30Z</time>
      </trkpt>
      <trkpt lat="47.44732" lon="0.84791">
        <ele>82.8</ele>
        <time>2023-07-14T07:51:31Z</time>
      </trkpt>
      <trkpt lat="47.44733" lon="0.8478">
        <ele>82.8</ele>
        <time>2023-07-14T07:51:32Z</time>
      </trkpt>
      <trkpt lat="47.44733" lon="0.8477">
        <ele>83</ele>
        <time>2023-07-14T07:51:33Z</time>
      </trkpt>
      <trkpt lat="47.44733" lon="0.84759">
        <ele>83</ele>
        <time>2023-07-14T07:51:34Z</time>
      </trkpt>
      <trkpt lat="47.44733" lon="0.84749">
        <ele>83.2</ele>
        <time>2023-07-14T07:51:35Z</time>
      </trkpt>
      <trkpt lat="47.44733" lon="0.84739">
        <ele>83.2</ele>
        <time>2023-07-14T07:51:36Z</time>
      </trkpt>
      <trkpt lat="47.44734" lon="0.84729">
        <ele>83.2</ele>
        <time>2023-07-14T07:51:37Z</time>
      </trkpt>
      <trkpt lat="47.44734" lon="0.84718">
        <ele>83.4</ele>
        <time>2023-07-14T07:51:38Z</time>
      </trkpt>
      <trkpt lat="47.44734" lon="0.84708">
        <ele>83.6</ele>
        <time>2023-07-14T07:51:39Z</time>
      </trkpt>
      <trkpt lat="47.44735" lon="0.84698">
        <ele>83.6</ele>
        <time>2023-07-14T07:51:40Z</time>
      </trkpt>
      <trkpt lat="47.44735" lon="0.84687">
        <ele>83.8</ele>
        <time>2023-07-14T07:51:41Z</time>
      </trkpt>
      <trkpt lat="47.44735" lon="0.84677">
        <ele>84</ele>
        <time>2023-07-14T07:51:42Z</time>
      </trkpt>
      <trkpt lat="47.44735" lon="0.84667">
        <ele>84</ele>
        <time>2023-07-14T07:51:43Z</time>
      </trkpt>
      <trkpt lat="47.44736" lon="0.84656">
        <ele>83.8</ele>
        <time>2023-07-14T07:51:44Z</time>
      </trkpt>
      <trkpt lat="47.44736" lon="0.84646">
        <ele>84</ele>
        <time>2023-07-14T07:51:45Z</time>
      </trkpt>
      <trkpt lat="47.44736" lon="0.84636">
        <ele>84</ele>
        <time>2023-07-14T07:51:46Z</time>
      </trkpt>
      <trkpt lat="47.44736" lon="0.84625">
        <ele>84</ele>
        <time>2023-07-14T07:51:47Z</time>
      </trkpt>
      <trkpt lat="47.44736" lon="0.84615">
        <ele>84</ele>
        <time>2023-07-14T07:51:48Z</time>
      </trkpt>
      <trkpt lat="47.44736" lon="0.84604">
        <ele>84</ele>
        <time>2023-07-14T07:51:49Z</time>
      </trkpt>
      <trkpt lat="47.44736" lon="0.84594">
        <ele>84</ele>
        <time>2023-07-14T07:51:50Z</time>
      </trkpt>
      <trkpt lat="47.44736" lon="0.84584">
        <ele>84</ele>
        <time>2023-07-14T07:51:51Z</time>
      </trkpt>
      <trkpt lat="47.44736" lon="0.84574">
        <ele>84</ele>
        <time>2023-07-14T07:51:52Z</time>
      </trkpt>
      <trkpt lat="47.44736" lon="0.84563">
        <ele>84</ele>
        <time>2023-07-14T07:51:53Z</time>
      </trkpt>
      <trkpt lat="47.44736" lon="0.84554">
        <ele>84</ele>
        <time>2023-07-14T07:51:54Z</time>
      </trkpt>
      <trkpt lat="47.44735" lon="0.84544">
        <ele>84</ele>
        <time>2023-07-14T07:51:55Z</time>
      </trkpt>
      <trkpt lat="47.44735" lon="0.84533">
        <ele>84</ele>
        <time>2023-07-14T07:51:56Z</time>
      </trkpt>
      <trkpt lat="47.44733" lon="0.84523">
        <ele>84</ele>
        <time>2023-07-14T07:51:57Z</time>
      </trkpt>
      <trkpt lat="47.44732" lon="0.84513">
        <ele>83.8</ele>
        <time>2023-07-14T07:51:58Z</time>
      </trkpt>
      <trkpt lat="47.44728" lon="0.84504">
        <ele>84</ele>
        <time>2023-07-14T07:51:59Z</time>
      </trkpt>
      <trkpt lat="47.44724" lon="0.84496">
        <ele>84.2</ele>
        <time>2023-07-14T07:52:00Z</time>
      </trkpt>
      <trkpt lat="47.44719" lon="0.8449">
        <ele>84.4</ele>
        <time>2023-07-14T07:52:01Z</time>
      </trkpt>
      <trkpt lat="47.44712" lon="0.84486">
        <ele>84.6</ele>
        <time>2023-07-14T07:52:02Z</time>
      </trkpt>
      <trkpt lat="47.44706" lon="0.84484">
        <ele>84.8</ele>
        <time>2023-07-14T07:52:03Z</time>
      </trkpt>
      <trkpt lat="47.44699" lon="0.84483">
        <ele>85</ele>
        <time>2023-07-14T07:52:04Z</time>
      </trkpt>
      <trkpt lat="47.44693" lon="0.84482">
        <ele>85.2</ele>
        <time>2023-07-14T07:52:05Z</time>
      </trkpt>
      <trkpt lat="47.44687" lon="0.84481">
        <ele>85.4</ele>
        <time>2023-07-14T07:52:06Z</time>
      </trkpt>
      <trkpt lat="47.4468" lon="0.84479">
        <ele>85.6</ele>
        <time>2023-07-14T07:52:07Z</time>
      </trkpt>
      <trkpt lat="47.44674" lon="0.84478">
        <ele>85.8</ele>
        <time>2023-07-14T07:52:08Z</time>
      </trkpt>
      <trkpt lat="47.44668" lon="0.84476">
        <ele>86</ele>
        <time>2023-07-14T07:52:09Z</time>
      </trkpt>
      <trkpt lat="47.44662" lon="0.84475">
        <ele>86.2</ele>
        <time>2023-07-14T07:52:10Z</time>
      </trkpt>
      <trkpt lat="47.44656" lon="0.84473">
        <ele>86.4</ele>
        <time>2023-07-14T07:52:11Z</time>
      </trkpt>
      <trkpt lat="47.4465" lon="0.84471">
        <ele>86.6</ele>
        <time>2023-07-14T07:52:12Z</time>
      </trkpt>
      <trkpt lat="47.44645" lon="0.84468">
        <ele>87</ele>
        <time>2023-07-14T07:52:13Z</time>
      </trkpt>
      <trkpt lat="47.4464" lon="0.84464">
        <ele>87.2</ele>
        <time>2023-07-14T07:52:14Z</time>
      </trkpt>
      <trkpt lat="47.44637" lon="0.84458">
        <ele>87.4</ele>
        <time>2023-07-14T07:52:15Z</time>
      </trkpt>
      <trkpt lat="47.44636" lon="0.84451">
        <ele>87.6</ele>
        <time>2023-07-14T07:52:16Z</time>
      </trkpt>
      <trkpt lat="47.44636" lon="0.84443">
        <ele>87.8</ele>
        <time>2023-07-14T07:52:17Z</time>
      </trkpt>
      <trkpt lat="47.44637" lon="0.84435">
        <ele>88</ele>
        <time>2023-07-14T07:52:18Z</time>
      </trkpt>
      <trkpt lat="47.44639" lon="0.84426">
        <ele>88</ele>
        <time>2023-07-14T07:52:19Z</time>
      </trkpt>
      <trkpt lat="47.44641" lon="0.84418">
        <ele>88.2</ele>
        <time>2023-07-14T07:52:20Z</time>
      </trkpt>
      <trkpt lat="47.44644" lon="0.84409">
        <ele>88.4</ele>
        <time>2023-07-14T07:52:21Z</time>
      </trkpt>
      <trkpt lat="47.44647" lon="0.844">
        <ele>88.4</ele>
        <time>2023-07-14T07:52:22Z</time>
      </trkpt>
      <trkpt lat="47.4465" lon="0.84392">
        <ele>88.6</ele>
        <time>2023-07-14T07:52:23Z</time>
      </trkpt>
      <trkpt lat="47.44652" lon="0.84383">
        <ele>88.6</ele>
        <time>2023-07-14T07:52:24Z</time>
      </trkpt>
      <trkpt lat="47.44655" lon="0.84373">
        <ele>88.6</ele>
        <time>2023-07-14T07:52:25Z</time>
      </trkpt>
      <trkpt lat="47.44658" lon="0.84364">
        <ele>88.6</ele>
        <time>2023-07-14T07:52:26Z</time>
      </trkpt>
      <trkpt lat="47.4466" lon="0.84354">
        <ele>88.6</ele>
        <time>2023-07-14T07:52:27Z</time>
      </trkpt>
      <trkpt lat="47.44663" lon="0.84345">
        <ele>88.4</ele>
        <time>2023-07-14T07:52:28Z</time>
      </trkpt>
      <trkpt lat="47.44666" lon="0.84335">
        <ele>88.4</ele>
        <time>2023-07-14T07:52:29Z</time>
      </trkpt>
      <trkpt lat="47.44669" lon="0.84325">
        <ele>88.4</ele>
        <time>2023-07-14T07:52:30Z</time>
      </trkpt>
      <trkpt lat="47.44672" lon="0.84314">
        <ele>88.4</ele>
        <time>2023-07-14T07:52:31Z</time>
      </trkpt>
      <trkpt lat="47.44674" lon="0.84304">
        <ele>88.4</ele>
        <time>2023-07-14T07:52:32Z</time>
      </trkpt>
      <trkpt lat="47.44677" lon="0.84294">
        <ele>88.2</ele>
        <time>2023-07-14T07:52:33Z</time>
      </trkpt>
      <trkpt lat="47.4468" lon="0.84284">
        <ele>88.2</ele>
        <time>2023-07-14T07:52:34Z</time>
      </trkpt>
      <trkpt lat="47.44684" lon="0.84274">
        <ele>88.2</ele>
        <time>2023-07-14T07:52:35Z</time>
      </trkpt>
      <trkpt lat="47.44687" lon="0.84264">
        <ele>88.2</ele>
        <time>2023-07-14T07:52:36Z</time>
      </trkpt>
      <trkpt lat="47.4469" lon="0.84254">
        <ele>88.2</ele>
        <time>2023-07-14T07:52:37Z</time>
      </trkpt>
      <trkpt lat="47.44693" lon="0.84244">
        <ele>88.2</ele>
        <time>2023-07-14T07:52:38Z</time>
      </trkpt>
      <trkpt lat="47.44695" lon="0.84233">
        <ele>88</ele>
        <time>2023-07-14T07:52:39Z</time>
      </trkpt>
      <trkpt lat="47.44698" lon="0.84222">
        <ele>88</ele>
        <time>2023-07-14T07:52:40Z</time>
      </trkpt>
      <trkpt lat="47.44701" lon="0.84212">
        <ele>88</ele>
        <time>2023-07-14T07:52:41Z</time>
      </trkpt>
      <trkpt lat="47.44704" lon="0.84201">
        <ele>88</ele>
        <time>2023-07-14T07:52:42Z</time>
      </trkpt>
      <trkpt lat="47.44707" lon="0.84191">
        <ele>88</ele>
        <time>2023-07-14T07:52:43Z</time>
      </trkpt>
      <trkpt lat="47.4471" lon="0.84181">
        <ele>88</ele>
        <time>2023-07-14T07:52:44Z</time>
      </trkpt>
      <trkpt lat="47.44714" lon="0.84171">
        <ele>88</ele>
        <time>2023-07-14T07:52:45Z</time>
      </trkpt>
      <trkpt lat="47.44716" lon="0.84161">
        <ele>88</ele>
        <time>2023-07-14T07:52:46Z</time>
      </trkpt>
      <trkpt lat="47.44719" lon="0.84151">
        <ele>88</ele>
        <time>2023-07-14T07:52:47Z</time>
      </trkpt>
      <trkpt lat="47.44722" lon="0.84141">
        <ele>88.2</ele>
        <time>2023-07-14T07:52:48Z</time>
      </trkpt>
      <trkpt lat="47.44725" lon="0.84131">
        <ele>88.2</ele>
        <time>2023-07-14T07:52:49Z</time>
      </trkpt>
      <trkpt lat="47.44727" lon="0.84121">
        <ele>88.2</ele>
        <time>2023-07-14T07:52:50Z</time>
      </trkpt>
      <trkpt lat="47.4473" lon="0.84111">
        <ele>88.4</ele>
        <time>2023-07-14T07:52:51Z</time>
      </trkpt>
      <trkpt lat="47.44733" lon="0.841">
        <ele>88.4</ele>
        <time>2023-07-14T07:52:52Z</time>
      </trkpt>
      <trkpt lat="47.44736" lon="0.84091">
        <ele>88.6</ele>
        <time>2023-07-14T07:52:53Z</time>
      </trkpt>
      <trkpt lat="47.44738" lon="0.84081">
        <ele>88.6</ele>
        <time>2023-07-14T07:52:54Z</time>
      </trkpt>
      <trkpt lat="47.44741" lon="0.84071">
        <ele>88.8</ele>
        <time>2023-07-14T07:52:55Z</time>
      </trkpt>
      <trkpt lat="47.44744" lon="0.84061">
        <ele>88.8</ele>
        <time>2023-07-14T07:52:56Z</time>
      </trkpt>
      <trkpt lat="47.44747" lon="0.84052">
        <ele>89</ele>
        <time>2023-07-14T07:52:57Z</time>
      </trkpt>
      <trkpt lat="47.4475" lon="0.84042">
        <ele>89</ele>
        <time>2023-07-14T07:52:58Z</time>
      </trkpt>
      <trkpt lat="47.44753" lon="0.84033">
        <ele>89.2</ele>
        <time>2023-07-14T07:52:59Z</time>
      </trkpt>
      <trkpt lat="47.44755" lon="0.84024">
        <ele>89.2</ele>
        <time>2023-07-14T07:53:00Z</time>
      </trkpt>
      <trkpt lat="47.44757" lon="0.84014">
        <ele>89.2</ele>
        <time>2023-07-14T07:53:01Z</time>
      </trkpt>
      <trkpt lat="47.4476" lon="0.84005">
        <ele>89.4</ele>
        <time>2023-07-14T07:53:02Z</time>
      </trkpt>
      <trkpt lat="47.44763" lon="0.83996">
        <ele>89.4</ele>
        <time>2023-07-14T07:53:03Z</time>
      </trkpt>
      <trkpt lat="47.44766" lon="0.83986">
        <ele>89.6</ele>
        <time>2023-07-14T07:53:04Z</time>
      </trkpt>
      <trkpt lat="47.44769" lon="0.83977">
        <ele>89.6</ele>
        <time>2023-07-14T07:53:05Z</time>
      </trkpt>
      <trkpt lat="47.44772" lon="0.83968">
        <ele>89.6</ele>
        <time>2023-07-14T07:53:06Z</time>
      </trkpt>
      <trkpt lat="47.44774" lon="0.83958">
        <ele>90</ele>
        <time>2023-07-14T07:53:07Z</time>
      </trkpt>
      <trkpt lat="47.44777" lon="0.83949">
        <ele>90.2</ele>
        <time>2023-07-14T07:53:08Z</time>
      </trkpt>
      <trkpt lat="47.4478" lon="0.8394">
        <ele>90.4</ele>
        <time>2023-07-14T07:53:09Z</time>
      </trkpt>
      <trkpt lat="47.44782" lon="0.8393">
        <ele>90.4</ele>
        <time>2023-07-14T07:53:10Z</time>
      </trkpt>
      <trkpt lat="47.44785" lon="0.83921">
        <ele>90.6</ele>
        <time>2023-07-14T07:53:11Z</time>
      </trkpt>
      <trkpt lat="47.44788" lon="0.83912">
        <ele>90.8</ele>
        <time>2023-07-14T07:53:12Z</time>
      </trkpt>
      <trkpt lat="47.44791" lon="0.83903">
        <ele>91.2</ele>
        <time>2023-07-14T07:53:13Z</time>
      </trkpt>
      <trkpt lat="47.44794" lon="0.83894">
        <ele>91.4</ele>
        <time>2023-07-14T07:53:14Z</time>
      </trkpt>
      <trkpt lat="47.44796" lon="0.83885">
        <ele>91.6</ele>
        <time>2023-07-14T07:53:15Z</time>
      </trkpt>
      <trkpt lat="47.44799" lon="0.83876">
        <ele>91.8</ele>
        <time>2023-07-14T07:53:16Z</time>
      </trkpt>
      <trkpt lat="47.44802" lon="0.83867">
        <ele>91.8</ele>
        <time>2023-07-14T07:53:17Z</time>
      </trkpt>
      <trkpt lat="47.44805" lon="0.83858">
        <ele>91.8</ele>
        <time>2023-07-14T07:53:18Z</time>
      </trkpt>
      <trkpt lat="47.44807" lon="0.83848">
        <ele>91.8</ele>
        <time>2023-07-14T07:53:19Z</time>
      </trkpt>
      <trkpt lat="47.4481" lon="0.83839">
        <ele>92</ele>
        <time>2023-07-14T07:53:20Z</time>
      </trkpt>
      <trkpt lat="47.44813" lon="0.8383">
        <ele>92</ele>
        <time>2023-07-14T07:53:21Z</time>
      </trkpt>
      <trkpt lat="47.44817" lon="0.83822">
        <ele>92.2</ele>
        <time>2023-07-14T07:53:22Z</time>
      </trkpt>
      <trkpt lat="47.4482" lon="0.83813">
        <ele>92.4</ele>
        <time>2023-07-14T07:53:23Z</time>
      </trkpt>
      <trkpt lat="47.44823" lon="0.83804">
        <ele>92.4</ele>
        <time>2023-07-14T07:53:24Z</time>
      </trkpt>
      <trkpt lat="47.44826" lon="0.83795">
        <ele>92.6</ele>
        <time>2023-07-14T07:53:25Z</time>
      </trkpt>
      <trkpt lat="47.4483" lon="0.83787">
        <ele>92.6</ele>
        <time>2023-07-14T07:53:26Z</time>
      </trkpt>
      <trkpt lat="47.44833" lon="0.83779">
        <ele>92.6</ele>
        <time>2023-07-14T07:53:27Z</time>
      </trkpt>
      <trkpt lat="47.44837" lon="0.83771">
        <ele>92.6</ele>
        <time>2023-07-14T07:53:28Z</time>
      </trkpt>
      <trkpt lat="47.44841" lon="0.83763">
        <ele>92.6</ele>
        <time>2023-07-14T07:53:29Z</time>
      </trkpt>
      <trkpt lat="47.44845" lon="0.83756">
        <ele>92.8</ele>
        <time>2023-07-14T07:53:30Z</time>
      </trkpt>
      <trkpt lat="47.44849" lon="0.83748">
        <ele>92.8</ele>
        <time>2023-07-14T07:53:31Z</time>
      </trkpt>
      <trkpt lat="47.44853" lon="0.8374">
        <ele>92.8</ele>
        <time>2023-07-14T07:53:32Z</time>
      </trkpt>
      <trkpt lat="47.44857" lon="0.83732">
        <ele>92.8</ele>
        <time>2023-07-14T07:53:33Z</time>
      </trkpt>
      <trkpt lat="47.4486" lon="0.83725">
        <ele>92.8</ele>
        <time>2023-07-14T07:53:34Z</time>
      </trkpt>
      <trkpt lat="47.44865" lon="0.83717">
        <ele>93</ele>
        <time>2023-07-14T07:53:35Z</time>
      </trkpt>
      <trkpt lat="47.44869" lon="0.8371">
        <ele>93</ele>
        <time>2023-07-14T07:53:36Z</time>
      </trkpt>
      <trkpt lat="47.44874" lon="0.83704">
        <ele>93</ele>
        <time>2023-07-14T07:53:37Z</time>
      </trkpt>
      <trkpt lat="47.44879" lon="0.83697">
        <ele>93</ele>
        <time>2023-07-14T07:53:38Z</time>
      </trkpt>
      <trkpt lat="47.44884" lon="0.8369">
        <ele>93</ele>
        <time>2023-07-14T07:53:39Z</time>
      </trkpt>
      <trkpt lat="47.44889" lon="0.83683">
        <ele>93.2</ele>
        <time>2023-07-14T07:53:40Z</time>
      </trkpt>
      <trkpt lat="47.44893" lon="0.83677">
        <ele>93.2</ele>
        <time>2023-07-14T07:53:41Z</time>
      </trkpt>
      <trkpt lat="47.44898" lon="0.8367">
        <ele>93.2</ele>
        <time>2023-07-14T07:53:42Z</time>
      </trkpt>
      <trkpt lat="47.44903" lon="0.83664">
        <ele>93.2</ele>
        <time>2023-07-14T07:53:43Z</time>
      </trkpt>
      <trkpt lat="47.44909" lon="0.83658">
        <ele>93.4</ele>
        <time>2023-07-14T07:53:44Z</time>
      </trkpt>
      <trkpt lat="47.44914" lon="0.83652">
        <ele>93.2</ele>
        <time>2023-07-14T07:53:45Z</time>
      </trkpt>
      <trkpt lat="47.4492" lon="0.83647">
        <ele>93.4</ele>
        <time>2023-07-14T07:53:46Z</time>
      </trkpt>
      <trkpt lat="47.44925" lon="0.83641">
        <ele>93.6</ele>
        <time>2023-07-14T07:53:47Z</time>
      </trkpt>
      <trkpt lat="47.44931" lon="0.83636">
        <ele>93.8</ele>
        <time>2023-07-14T07:53:48Z</time>
      </trkpt>
      <trkpt lat="47.44937" lon="0.83632">
        <ele>93.8</ele>
        <time>2023-07-14T07:53:49Z</time>
      </trkpt>
      <trkpt lat="47.44942" lon="0.83628">
        <ele>94</ele>
        <time>2023-07-14T07:53:50Z</time>
      </trkpt>
      <trkpt lat="47.44948" lon="0.83624">
        <ele>94.2</ele>
        <time>2023-07-14T07:53:51Z</time>
      </trkpt>
      <trkpt lat="47.44954" lon="0.83621">
        <ele>94.4</ele>
        <time>2023-07-14T07:53:52Z</time>
      </trkpt>
      <trkpt lat="47.4496" lon="0.83618">
        <ele>94.6</ele>
        <time>2023-07-14T07:53:53Z</time>
      </trkpt>
      <trkpt lat="47.44966" lon="0.83615">
        <ele>94.8</ele>
        <time>2023-07-14T07:53:54Z</time>
      </trkpt>
      <trkpt lat="47.44972" lon="0.83613">
        <ele>95</ele>
        <time>2023-07-14T07:53:55Z</time>
      </trkpt>
      <trkpt lat="47.44978" lon="0.8361">
        <ele>95.2</ele>
        <time>2023-07-14T07:53:56Z</time>
      </trkpt>
      <trkpt lat="47.44984" lon="0.83608">
        <ele>95.4</ele>
        <time>2023-07-14T07:53:57Z</time>
      </trkpt>
      <trkpt lat="47.4499" lon="0.83606">
        <ele>95.6</ele>
        <time>2023-07-14T07:53:58Z</time>
      </trkpt>
      <trkpt lat="47.44996" lon="0.83605">
        <ele>95.8</ele>
        <time>2023-07-14T07:53:59Z</time>
      </trkpt>
      <trkpt lat="47.45002" lon="0.83603">
        <ele>96</ele>
        <time>2023-07-14T07:54:00Z</time>
      </trkpt>
      <trkpt lat="47.45009" lon="0.83602">
        <ele>96.2</ele>
        <time>2023-07-14T07:54:01Z</time>
      </trkpt>
      <trkpt lat="47.45015" lon="0.836">
        <ele>96.4</ele>
        <time>2023-07-14T07:54:02Z</time>
      </trkpt>
      <trkpt lat="47.45021" lon="0.83598">
        <ele>96.8</ele>
        <time>2023-07-14T07:54:03Z</time>
      </trkpt>
      <trkpt lat="47.45027" lon="0.83597">
        <ele>96.8</ele>
        <time>2023-07-14T07:54:04Z</time>
      </trkpt>
      <trkpt lat="47.45033" lon="0.83595">
        <ele>97</ele>
        <time>2023-07-14T07:54:05Z</time>
      </trkpt>
      <trkpt lat="47.45039" lon="0.83593">
        <ele>97.2</ele>
        <time>2023-07-14T07:54:06Z</time>
      </trkpt>
      <trkpt lat="47.45045" lon="0.83592">
        <ele>97.4</ele>
        <time>2023-07-14T07:54:07Z</time>
      </trkpt>
      <trkpt lat="47.45052" lon="0.8359">
        <ele>97.6</ele>
        <time>2023-07-14T07:54:08Z</time>
      </trkpt>
      <trkpt lat="47.45058" lon="0.83588">
        <ele>97.8</ele>
        <time>2023-07-14T07:54:09Z</time>
      </trkpt>
      <trkpt lat="47.45064" lon="0.83586">
        <ele>98</ele>
        <time>2023-07-14T07:54:10Z</time>
      </trkpt>
      <trkpt lat="47.4507" lon="0.83585">
        <ele>98.2</ele>
        <time>2023-07-14T07:54:11Z</time>
      </trkpt>
      <trkpt lat="47.45076" lon="0.83583">
        <ele>98.2</ele>
        <time>2023-07-14T07:54:12Z</time>
      </trkpt>
      <trkpt lat="47.45082" lon="0.83581">
        <ele>98.4</ele>
        <time>2023-07-14T07:54:13Z</time>
      </trkpt>
      <trkpt lat="47.45088" lon="0.83579">
        <ele>98.4</ele>
        <time>2023-07-14T07:54:14Z</time>
      </trkpt>
      <trkpt lat="47.45095" lon="0.83578">
        <ele>98.6</ele>
        <time>2023-07-14T07:54:15Z</time>
      </trkpt>
      <trkpt lat="47.45101" lon="0.83576">
        <ele>98.8</ele>
        <time>2023-07-14T07:54:16Z</time>
      </trkpt>
      <trkpt lat="47.45107" lon="0.83574">
        <ele>99</ele>
        <time>2023-07-14T07:54:17Z</time>
      </trkpt>
      <trkpt lat="47.45113" lon="0.83572">
        <ele>99.2</ele>
        <time>2023-07-14T07:54:18Z</time>
      </trkpt>
      <trkpt lat="47.45119" lon="0.8357">
        <ele>99.2</ele>
        <time>2023-07-14T07:54:19Z</time>
      </trkpt>
      <trkpt lat="47.45125" lon="0.83569">
        <ele>99.4</ele>
        <time>2023-07-14T07:54:20Z</time>
      </trkpt>
      <trkpt lat="47.45131" lon="0.83567">
        <ele>99.4</ele>
        <time>2023-07-14T07:54:21Z</time>
      </trkpt>
      <trkpt lat="47.45137" lon="0.83565">
        <ele>99.4</ele>
        <time>2023-07-14T07:54:22Z</time>
      </trkpt>
      <trkpt lat="47.45144" lon="0.83564">
        <ele>99.4</ele>
        <time>2023-07-14T07:54:23Z</time>
      </trkpt>
      <trkpt lat="47.45149" lon="0.83562">
        <ele>99.4</ele>
        <time>2023-07-14T07:54:24Z</time>
      </trkpt>
      <trkpt lat="47.45155" lon="0.8356">
        <ele>99.6</ele>
        <time>2023-07-14T07:54:25Z</time>
      </trkpt>
      <trkpt lat="47.45162" lon="0.83559">
        <ele>99.6</ele>
        <time>2023-07-14T07:54:26Z</time>
      </trkpt>
      <trkpt lat="47.45168" lon="0.83557">
        <ele>99.8</ele>
        <time>2023-07-14T07:54:27Z</time>
      </trkpt>
      <trkpt lat="47.45174" lon="0.83556">
        <ele>100</ele>
        <time>2023-07-14T07:54:28Z</time>
      </trkpt>
      <trkpt lat="47.45181" lon="0.83554">
        <ele>100.2</ele>
        <time>2023-07-14T07:54:29Z</time>
      </trkpt>
      <trkpt lat="47.45187" lon="0.83553">
        <ele>100.2</ele>
        <time>2023-07-14T07:54:30Z</time>
      </trkpt>
      <trkpt lat="47.45193" lon="0.83551">
        <ele>100.2</ele>
        <time>2023-07-14T07:54:31Z</time>
      </trkpt>
      <trkpt lat="47.452" lon="0.8355">
        <ele>100.4</ele>
        <time>2023-07-14T07:54:32Z</time>
      </trkpt>
      <trkpt lat="47.45206" lon="0.83548">
        <ele>100.6</ele>
        <time>2023-07-14T07:54:33Z</time>
      </trkpt>
      <trkpt lat="47.45213" lon="0.83547">
        <ele>100.6</ele>
        <time>2023-07-14T07:54:34Z</time>
      </trkpt>
      <trkpt lat="47.4522" lon="0.83546">
        <ele>100.8</ele>
        <time>2023-07-14T07:54:35Z</time>
      </trkpt>
      <trkpt lat="47.45227" lon="0.83545">
        <ele>100.8</ele>
        <time>2023-07-14T07:54:36Z</time>
      </trkpt>
      <trkpt lat="47.45234" lon="0.83544">
        <ele>101</ele>
        <time>2023-07-14T07:54:37Z</time>
      </trkpt>
      <trkpt lat="47.4524" lon="0.83543">
        <ele>101.2</ele>
        <time>2023-07-14T07:54:38Z</time>
      </trkpt>
      <trkpt lat="47.45247" lon="0.83542">
        <ele>101.2</ele>
        <time>2023-07-14T07:54:39Z</time>
      </trkpt>
      <trkpt lat="47.45254" lon="0.83541">
        <ele>101.4</ele>
        <time>2023-07-14T07:54:40Z</time>
      </trkpt>
      <trkpt lat="47.45261" lon="0.8354">
        <ele>101.4</ele>
        <time>2023-07-14T07:54:41Z</time>
      </trkpt>
      <trkpt lat="47.45267" lon="0.83539">
        <ele>101.4</ele>
        <time>2023-07-14T07:54:42Z</time>
      </trkpt>
      <trkpt lat="47.45273" lon="0.83539">
        <ele>101.4</ele>
        <time>2023-07-14T07:54:43Z</time>
      </trkpt>
      <trkpt lat="47.4528" lon="0.83539">
        <ele>101.4</ele>
        <time>2023-07-14T07:54:44Z</time>
      </trkpt>
      <trkpt lat="47.45287" lon="0.8354">
        <ele>101.2</ele>
        <time>2023-07-14T07:54:45Z</time>
      </trkpt>
      <trkpt lat="47.45293" lon="0.8354">
        <ele>101.2</ele>
        <time>2023-07-14T07:54:46Z</time>
      </trkpt>
      <trkpt lat="47.45299" lon="0.8354">
        <ele>101.2</ele>
        <time>2023-07-14T07:54:47Z</time>
      </trkpt>
      <trkpt lat="47.45306" lon="0.83541">
        <ele>101.2</ele>
        <time>2023-07-14T07:54:48Z</time>
      </trkpt>
      <trkpt lat="47.45313" lon="0.83542">
        <ele>101.2</ele>
        <time>2023-07-14T07:54:49Z</time>
      </trkpt>
      <trkpt lat="47.4532" lon="0.83542">
        <ele>101.2</ele>
        <time>2023-07-14T07:54:50Z</time>
      </trkpt>
      <trkpt lat="47.45326" lon="0.83543">
        <ele>101.2</ele>
        <time>2023-07-14T07:54:51Z</time>
      </trkpt>
      <trkpt lat="47.45332" lon="0.83542">
        <ele>101.4</ele>
        <time>2023-07-14T07:54:52Z</time>
      </trkpt>
      <trkpt lat="47.45338" lon="0.83541">
        <ele>101.2</ele>
        <time>2023-07-14T07:54:53Z</time>
      </trkpt>
      <trkpt lat="47.45343" lon="0.83537">
        <ele>101.2</ele>
        <time>2023-07-14T07:54:54Z</time>
      </trkpt>
      <trkpt lat="47.45346" lon="0.8353">
        <ele>101.4</ele>
        <time>2023-07-14T07:54:55Z</time>
      </trkpt>
      <trkpt lat="47.45346" lon="0.83523">
        <ele>101.4</ele>
        <time>2023-07-14T07:54:56Z</time>
      </trkpt>
      <trkpt lat="47.45347" lon="0.83515">
        <ele>101.4</ele>
        <time>2023-07-14T07:54:57Z</time>
      </trkpt>
      <trkpt lat="47.45347" lon="0.83507">
        <ele>101.6</ele>
        <time>2023-07-14T07:54:58Z</time>
      </trkpt>
      <trkpt lat="47.45347" lon="0.83499">
        <ele>102</ele>
        <time>2023-07-14T07:54:59Z</time>
      </trkpt>
      <trkpt lat="47.45347" lon="0.83492">
        <ele>102.2</ele>
        <time>2023-07-14T07:55:00Z</time>
      </trkpt>
      <trkpt lat="47.45347" lon="0.83484">
        <ele>102.4</ele>
        <time>2023-07-14T07:55:01Z</time>
      </trkpt>
      <trkpt lat="47.45347" lon="0.83476">
        <ele>102.8</ele>
        <time>2023-07-14T07:55:02Z</time>
      </trkpt>
      <trkpt lat="47.45347" lon="0.83469">
        <ele>103.2</ele>
        <time>2023-07-14T07:55:03Z</time>
      </trkpt>
      <trkpt lat="47.45348" lon="0.83462">
        <ele>103.4</ele>
        <time>2023-07-14T07:55:04Z</time>
      </trkpt>
      <trkpt lat="47.45348" lon="0.83455">
        <ele>103.8</ele>
        <time>2023-07-14T07:55:05Z</time>
      </trkpt>
      <trkpt lat="47.45349" lon="0.83448">
        <ele>104.4</ele>
        <time>2023-07-14T07:55:06Z</time>
      </trkpt>
      <trkpt lat="47.4535" lon="0.83441">
        <ele>104.8</ele>
        <time>2023-07-14T07:55:07Z</time>
      </trkpt>
      <trkpt lat="47.4535" lon="0.83434">
        <ele>105.2</ele>
        <time>2023-07-14T07:55:08Z</time>
      </trkpt>
      <trkpt lat="47.4535" lon="0.83427">
        <ele>105.6</ele>
        <time>2023-07-14T07:55:09Z</time>
      </trkpt>
      <trkpt lat="47.4535" lon="0.8342">
        <ele>106</ele>
        <time>2023-07-14T07:55:10Z</time>
      </trkpt>
      <trkpt lat="47.45351" lon="0.83413">
        <ele>106.4</ele>
        <time>2023-07-14T07:55:11Z</time>
      </trkpt>
      <trkpt lat="47.45351" lon="0.83406">
        <ele>106.8</ele>
        <time>2023-07-14T07:55:12Z</time>
      </trkpt>
      <trkpt lat="47.45352" lon="0.83399">
        <ele>107.2</ele>
        <time>2023-07-14T07:55:13Z</time>
      </trkpt>
      <trkpt lat="47.45353" lon="0.83392">
        <ele>107.6</ele>
        <time>2023-07-14T07:55:14Z</time>
      </trkpt>
      <trkpt lat="47.45353" lon="0.83385">
        <ele>107.8</ele>
        <time>2023-07-14T07:55:15Z</time>
      </trkpt>
      <trkpt lat="47.45353" lon="0.83378">
        <ele>108.2</ele>
        <time>2023-07-14T07:55:16Z</time>
      </trkpt>
      <trkpt lat="47.45353" lon="0.83371">
        <ele>108.6</ele>
        <time>2023-07-14T07:55:17Z</time>
      </trkpt>
      <trkpt lat="47.45353" lon="0.83365">
        <ele>108.8</ele>
        <time>2023-07-14T07:55:18Z</time>
      </trkpt>
      <trkpt lat="47.45354" lon="0.83358">
        <ele>109.2</ele>
        <time>2023-07-14T07:55:19Z</time>
      </trkpt>
      <trkpt lat="47.45355" lon="0.8335">
        <ele>109.6</ele>
        <time>2023-07-14T07:55:20Z</time>
      </trkpt>
      <trkpt lat="47.45355" lon="0.83343">
        <ele>110</ele>
        <time>2023-07-14T07:55:21Z</time>
      </trkpt>
      <trkpt lat="47.45356" lon="0.83336">
        <ele>110.2</ele>
        <time>2023-07-14T07:55:22Z</time>
      </trkpt>
      <trkpt lat="47.45356" lon="0.83328">
        <ele>110.4</ele>
        <time>2023-07-14T07:55:23Z</time>
      </trkpt>
      <trkpt lat="47.45357" lon="0.83321">
        <ele>110.6</ele>
        <time>2023-07-14T07:55:24Z</time>
      </trkpt>
      <trkpt lat="47.45358" lon="0.83314">
        <ele>111</ele>
        <time>2023-07-14T07:55:25Z</time>
      </trkpt>
      <trkpt lat="47.45359" lon="0.83306">
        <ele>111.2</ele>
        <time>2023-07-14T07:55:26Z</time>
      </trkpt>
      <trkpt lat="47.4536" lon="0.83299">
        <ele>111.4</ele>
        <time>2023-07-14T07:55:27Z</time>
      </trkpt>
      <trkpt lat="47.45361" lon="0.83291">
        <ele>111.4</ele>
        <time>2023-07-14T07:55:28Z</time>
      </trkpt>
      <trkpt lat="47.45362" lon="0.83283">
        <ele>111.6</ele>
        <time>2023-07-14T07:55:29Z</time>
      </trkpt>
      <trkpt lat="47.45363" lon="0.83275">
        <ele>111.8</ele>
        <time>2023-07-14T07:55:30Z</time>
      </trkpt>
      <trkpt lat="47.45364" lon="0.83267">
        <ele>112</ele>
        <time>2023-07-14T07:55:31Z</time>
      </trkpt>
      <trkpt lat="47.45364" lon="0.8326">
        <ele>112.2</ele>
        <time>2023-07-14T07:55:32Z</time>
      </trkpt>
      <trkpt lat="47.45365" lon="0.83252">
        <ele>112.2</ele>
        <time>2023-07-14T07:55:33Z</time>
      </trkpt>
      <trkpt lat="47.45366" lon="0.83244">
        <ele>112.4</ele>
        <time>2023-07-14T07:55:34Z</time>
      </trkpt>
      <trkpt lat="47.45367" lon="0.83236">
        <ele>112.4</ele>
        <time>2023-07-14T07:55:35Z</time>
      </trkpt>
      <trkpt lat="47.45368" lon="0.83228">
        <ele>112.6</ele>
        <time>2023-07-14T07:55:36Z</time>
      </trkpt>
      <trkpt lat="47.45369" lon="0.8322">
        <ele>112.6</ele>
        <time>2023-07-14T07:55:37Z</time>
      </trkpt>
      <trkpt lat="47.4537" lon="0.83212">
        <ele>112.8</ele>
        <time>2023-07-14T07:55:38Z</time>
      </trkpt>
      <trkpt lat="47.4537" lon="0.83204">
        <ele>112.8</ele>
        <time>2023-07-14T07:55:39Z</time>
      </trkpt>
      <trkpt lat="47.45372" lon="0.83196">
        <ele>113</ele>
        <time>2023-07-14T07:55:40Z</time>
      </trkpt>
      <trkpt lat="47.45372" lon="0.83187">
        <ele>113.2</ele>
        <time>2023-07-14T07:55:41Z</time>
      </trkpt>
      <trkpt lat="47.45374" lon="0.83179">
        <ele>113.4</ele>
        <time>2023-07-14T07:55:42Z</time>
      </trkpt>
      <trkpt lat="47.45375" lon="0.83171">
        <ele>113.4</ele>
        <time>2023-07-14T07:55:43Z</time>
      </trkpt>
      <trkpt lat="47.45376" lon="0.83163">
        <ele>113.4</ele>
        <time>2023-07-14T07:55:44Z</time>
      </trkpt>
      <trkpt lat="47.45377" lon="0.83155">
        <ele>113.4</ele>
        <time>2023-07-14T07:55:45Z</time>
      </trkpt>
      <trkpt lat="47.45378" lon="0.83147">
        <ele>113.6</ele>
        <time>2023-07-14T07:55:46Z</time>
      </trkpt>
      <trkpt lat="47.4538" lon="0.83139">
        <ele>113.8</ele>
        <time>2023-07-14T07:55:47Z</time>
      </trkpt>
      <trkpt lat="47.45381" lon="0.83131">
        <ele>113.8</ele>
        <time>2023-07-14T07:55:48Z</time>
      </trkpt>
      <trkpt lat="47.45382" lon="0.83123">
        <ele>113.8</ele>
        <time>2023-07-14T07:55:49Z</time>
      </trkpt>
      <trkpt lat="47.45383" lon="0.83115">
        <ele>114</ele>
        <time>2023-07-14T07:55:50Z</time>
      </trkpt>
      <trkpt lat="47.45385" lon="0.83107">
        <ele>114</ele>
        <time>2023-07-14T07:55:51Z</time>
      </trkpt>
      <trkpt lat="47.45386" lon="0.83099">
        <ele>114.2</ele>
        <time>2023-07-14T07:55:52Z</time>
      </trkpt>
      <trkpt lat="47.45387" lon="0.83092">
        <ele>114.2</ele>
        <time>2023-07-14T07:55:53Z</time>
      </trkpt>
      <trkpt lat="47.45388" lon="0.83084">
        <ele>114.4</ele>
        <time>2023-07-14T07:55:54Z</time>
      </trkpt>
      <trkpt lat="47.4539" lon="0.83076">
        <ele>114.4</ele>
        <time>2023-07-14T07:55:55Z</time>
      </trkpt>
      <trkpt lat="47.45391" lon="0.83069">
        <ele>114.6</ele>
        <time>2023-07-14T07:55:56Z</time>
      </trkpt>
      <trkpt lat="47.45393" lon="0.83062">
        <ele>114.8</ele>
        <time>2023-07-14T07:55:57Z</time>
      </trkpt>
      <trkpt lat="47.45395" lon="0.83055">
        <ele>115</ele>
        <time>2023-07-14T07:55:58Z</time>
      </trkpt>
      <trkpt lat="47.45396" lon="0.83047">
        <ele>115</ele>
        <time>2023-07-14T07:55:59Z</time>
      </trkpt>
      <trkpt lat="47.45398" lon="0.8304">
        <ele>115</ele>
        <time>2023-07-14T07:56:00Z</time>
      </trkpt>
      <trkpt lat="47.454" lon="0.83034">
        <ele>115.2</ele>
        <time>2023-07-14T07:56:01Z</time>
      </trkpt>
      <trkpt lat="47.45402" lon="0.83026">
        <ele>115.4</ele>
        <time>2023-07-14T07:56:02Z</time>
      </trkpt>
      <trkpt lat="47.45404" lon="0.83018">
        <ele>115.6</ele>
        <time>2023-07-14T07:56:03Z</time>
      </trkpt>
      <trkpt lat="47.45406" lon="0.83011">
        <ele>115.8</ele>
        <time>2023-07-14T07:56:04Z</time>
      </trkpt>
      <trkpt lat="47.45409" lon="0.83005">
        <ele>116</ele>
        <time>2023-07-14T07:56:05Z</time>
      </trkpt>
      <trkpt lat="47.45411" lon="0.82998">
        <ele>116.2</ele>
        <time>2023-07-14T07:56:06Z</time>
      </trkpt>
      <trkpt lat="47.45414" lon="0.82991">
        <ele>116.2</ele>
        <time>2023-07-14T07:56:07Z</time>
      </trkpt>
      <trkpt lat="47.45416" lon="0.82985">
        <ele>116.4</ele>
        <time>2023-07-14T07:56:08Z</time>
      </trkpt>
      <trkpt lat="47.4542" lon="0.82978">
        <ele>116.6</ele>
        <time>2023-07-14T07:56:09Z</time>
      </trkpt>
      <trkpt lat="47.45423" lon="0.82972">
        <ele>116.8</ele>
        <time>2023-07-14T07:56:10Z</time>
      </trkpt>
      <trkpt lat="47.45427" lon="0.82966">
        <ele>116.8</ele>
        <time>2023-07-14T07:56:11Z</time>
      </trkpt>
      <trkpt lat="47.45431" lon="0.8296">
        <ele>117</ele>
        <time>2023-07-14T07:56:12Z</time>
      </trkpt>
      <trkpt lat="47.45435" lon="0.82955">
        <ele>117</ele>
        <time>2023-07-14T07:56:13Z</time>
      </trkpt>
      <trkpt lat="47.4544" lon="0.8295">
        <ele>117</ele>
        <time>2023-07-14T07:56:14Z</time>
      </trkpt>
      <trkpt lat="47.45445" lon="0.82946">
        <ele>117</ele>
        <time>2023-07-14T07:56:15Z</time>
      </trkpt>
      <trkpt lat="47.4545" lon="0.82942">
        <ele>117</ele>
        <time>2023-07-14T07:56:16Z</time>
      </trkpt>
      <trkpt lat="47.45456" lon="0.82938">
        <ele>117</ele>
        <time>2023-07-14T07:56:17Z</time>
      </trkpt>
      <trkpt lat="47.45462" lon="0.82934">
        <ele>117</ele>
        <time>2023-07-14T07:56:18Z</time>
      </trkpt>
      <trkpt lat="47.45468" lon="0.82931">
        <ele>117</ele>
        <time>2023-07-14T07:56:19Z</time>
      </trkpt>
      <trkpt lat="47.45474" lon="0.82927">
        <ele>117</ele>
        <time>2023-07-14T07:56:20Z</time>
      </trkpt>
      <trkpt lat="47.4548" lon="0.82924">
        <ele>117</ele>
        <time>2023-07-14T07:56:21Z</time>
      </trkpt>
      <trkpt lat="47.45486" lon="0.82921">
        <ele>117</ele>
        <time>2023-07-14T07:56:22Z</time>
      </trkpt>
      <trkpt lat="47.45493" lon="0.82918">
        <ele>116.8</ele>
        <time>2023-07-14T07:56:23Z</time>
      </trkpt>
      <trkpt lat="47.45499" lon="0.82914">
        <ele>116.8</ele>
        <time>2023-07-14T07:56:24Z</time>
      </trkpt>
      <trkpt lat="47.45506" lon="0.82911">
        <ele>116.8</ele>
        <time>2023-07-14T07:56:25Z</time>
      </trkpt>
      <trkpt lat="47.45512" lon="0.82908">
        <ele>116.8</ele>
        <time>2023-07-14T07:56:26Z</time>
      </trkpt>
      <trkpt lat="47.45518" lon="0.82904">
        <ele>116.8</ele>
        <time>2023-07-14T07:56:27Z</time>
      </trkpt>
      <trkpt lat="47.45525" lon="0.82901">
        <ele>116.8</ele>
        <time>2023-07-14T07:56:28Z</time>
      </trkpt>
      <trkpt lat="47.45532" lon="0.82898">
        <ele>116.8</ele>
        <time>2023-07-14T07:56:29Z</time>
      </trkpt>
      <trkpt lat="47.45539" lon="0.82895">
        <ele>116.6</ele>
        <time>2023-07-14T07:56:30Z</time>
      </trkpt>
      <trkpt lat="47.45546" lon="0.82891">
        <ele>116.8</ele>
        <time>2023-07-14T07:56:31Z</time>
      </trkpt>
      <trkpt lat="47.45552" lon="0.82888">
        <ele>116.8</ele>
        <time>2023-07-14T07:56:32Z</time>
      </trkpt>
      <trkpt lat="47.45558" lon="0.82884">
        <ele>116.8</ele>
        <time>2023-07-14T07:56:33Z</time>
      </trkpt>
      <trkpt lat="47.45565" lon="0.82881">
        <ele>116.8</ele>
        <time>2023-07-14T07:56:34Z</time>
      </trkpt>
      <trkpt lat="47.45571" lon="0.82877">
        <ele>117</ele>
        <time>2023-07-14T07:56:35Z</time>
      </trkpt>
      <trkpt lat="47.45577" lon="0.82873">
        <ele>117</ele>
        <time>2023-07-14T07:56:36Z</time>
      </trkpt>
      <trkpt lat="47.45583" lon="0.8287">
        <ele>117</ele>
        <time>2023-07-14T07:56:37Z</time>
      </trkpt>
      <trkpt lat="47.45588" lon="0.82866">
        <ele>117.2</ele>
        <time>2023-07-14T07:56:38Z</time>
      </trkpt>
      <trkpt lat="47.45594" lon="0.82861">
        <ele>117.4</ele>
        <time>2023-07-14T07:56:39Z</time>
      </trkpt>
      <trkpt lat="47.45599" lon="0.82856">
        <ele>117.6</ele>
        <time>2023-07-14T07:56:40Z</time>
      </trkpt>
      <trkpt lat="47.45604" lon="0.82851">
        <ele>117.8</ele>
        <time>2023-07-14T07:56:41Z</time>
      </trkpt>
      <trkpt lat="47.45609" lon="0.82845">
        <ele>118</ele>
        <time>2023-07-14T07:56:42Z</time>
      </trkpt>
      <trkpt lat="47.45613" lon="0.82838">
        <ele>118.2</ele>
        <time>2023-07-14T07:56:43Z</time>
      </trkpt>
      <trkpt lat="47.45617" lon="0.82832">
        <ele>118.4</ele>
        <time>2023-07-14T07:56:44Z</time>
      </trkpt>
      <trkpt lat="47.45621" lon="0.82825">
        <ele>118.6</ele>
        <time>2023-07-14T07:56:45Z</time>
      </trkpt>
      <trkpt lat="47.45625" lon="0.82818">
        <ele>118.8</ele>
        <time>2023-07-14T07:56:46Z</time>
      </trkpt>
      <trkpt lat="47.45628" lon="0.82811">
        <ele>119</ele>
        <time>2023-07-14T07:56:47Z</time>
      </trkpt>
      <trkpt lat="47.45632" lon="0.82804">
        <ele>119.2</ele>
        <time>2023-07-14T07:56:48Z</time>
      </trkpt>
      <trkpt lat="47.45636" lon="0.82797">
        <ele>119.4</ele>
        <time>2023-07-14T07:56:49Z</time>
      </trkpt>
      <trkpt lat="47.45639" lon="0.8279">
        <ele>119.6</ele>
        <time>2023-07-14T07:56:50Z</time>
      </trkpt>
      <trkpt lat="47.45643" lon="0.82782">
        <ele>119.8</ele>
        <time>2023-07-14T07:56:51Z</time>
      </trkpt>
      <trkpt lat="47.45647" lon="0.82775">
        <ele>119.8</ele>
        <time>2023-07-14T07:56:52Z</time>
      </trkpt>
      <trkpt lat="47.4565" lon="0.82768">
        <ele>120</ele>
        <time>2023-07-14T07:56:53Z</time>
      </trkpt>
      <trkpt lat="47.45653" lon="0.82761">
        <ele>120.2</ele>
        <time>2023-07-14T07:56:54Z</time>
      </trkpt>
      <trkpt lat="47.45657" lon="0.82754">
        <ele>120.4</ele>
        <time>2023-07-14T07:56:55Z</time>
      </trkpt>
      <trkpt lat="47.4566" lon="0.82746">
        <ele>120.6</ele>
        <time>2023-07-14T07:56:56Z</time>
      </trkpt>
      <trkpt lat="47.45663" lon="0.82739">
        <ele>120.8</ele>
        <time>2023-07-14T07:56:57Z</time>
      </trkpt>
      <trkpt lat="47.45666" lon="0.82733">
        <ele>121</ele>
        <time>2023-07-14T07:56:58Z</time>
      </trkpt>
      <trkpt lat="47.4567" lon="0.82726">
        <ele>121.2</ele>
        <time>2023-07-14T07:56:59Z</time>
      </trkpt>
      <trkpt lat="47.45673" lon="0.82719">
        <ele>121.4</ele>
        <time>2023-07-14T07:57:00Z</time>
      </trkpt>
      <trkpt lat="47.45677" lon="0.82711">
        <ele>121.6</ele>
        <time>2023-07-14T07:57:01Z</time>
      </trkpt>
      <trkpt lat="47.45681" lon="0.82704">
        <ele>121.8</ele>
        <time>2023-07-14T07:57:02Z</time>
      </trkpt>
      <trkpt lat="47.45684" lon="0.82697">
        <ele>121.8</ele>
        <time>2023-07-14T07:57:03Z</time>
      </trkpt>
      <trkpt lat="47.45687" lon="0.8269">
        <ele>122</ele>
        <time>2023-07-14T07:57:04Z</time>
      </trkpt>
      <trkpt lat="47.45691" lon="0.82683">
        <ele>122.2</ele>
        <time>2023-07-14T07:57:05Z</time>
      </trkpt>
      <trkpt lat="47.45694" lon="0.82675">
        <ele>122.4</ele>
        <time>2023-07-14T07:57:06Z</time>
      </trkpt>
      <trkpt lat="47.45697" lon="0.82668">
        <ele>122.6</ele>
        <time>2023-07-14T07:57:07Z</time>
      </trkpt>
      <trkpt lat="47.457" lon="0.8266">
        <ele>122.8</ele>
        <time>2023-07-14T07:57:08Z</time>
      </trkpt>
      <trkpt lat="47.45703" lon="0.82651">
        <ele>122.8</ele>
        <time>2023-07-14T07:57:09Z</time>
      </trkpt>
      <trkpt lat="47.45706" lon="0.82643">
        <ele>123</ele>
        <time>2023-07-14T07:57:10Z</time>
      </trkpt>
      <trkpt lat="47.45708" lon="0.82635">
        <ele>123</ele>
        <time>2023-07-14T07:57:11Z</time>
      </trkpt>
      <trkpt lat="47.45712" lon="0.82626">
        <ele>123.2</ele>
        <time>2023-07-14T07:57:12Z</time>
      </trkpt>
      <trkpt lat="47.45714" lon="0.82618">
        <ele>123.2</ele>
        <time>2023-07-14T07:57:13Z</time>
      </trkpt>
      <trkpt lat="47.45717" lon="0.82609">
        <ele>123.4</ele>
        <time>2023-07-14T07:57:14Z</time>
      </trkpt>
      <trkpt lat="47.4572" lon="0.82601">
        <ele>123.4</ele>
        <time>2023-07-14T07:57:15Z</time>
      </trkpt>
      <trkpt lat="47.45722" lon="0.82593">
        <ele>123.6</ele>
        <time>2023-07-14T07:57:16Z</time>
      </trkpt>
      <trkpt lat="47.45725" lon="0.82584">
        <ele>123.8</ele>
        <time>2023-07-14T07:57:17Z</time>
      </trkpt>
      <trkpt lat="47.45728" lon="0.82575">
        <ele>123.8</ele>
        <time>2023-07-14T07:57:18Z</time>
      </trkpt>
      <trkpt lat="47.45731" lon="0.82566">
        <ele>124</ele>
        <time>2023-07-14T07:57:19Z</time>
      </trkpt>
      <trkpt lat="47.45733" lon="0.82559">
        <ele>124.2</ele>
        <time>2023-07-14T07:57:20Z</time>
      </trkpt>
      <trkpt lat="47.45736" lon="0.82551">
        <ele>124.2</ele>
        <time>2023-07-14T07:57:21Z</time>
      </trkpt>
      <trkpt lat="47.45739" lon="0.82542">
        <ele>124.4</ele>
        <time>2023-07-14T07:57:22Z</time>
      </trkpt>
      <trkpt lat="47.45742" lon="0.82532">
        <ele>124.4</ele>
        <time>2023-07-14T07:57:23Z</time>
      </trkpt>
      <trkpt lat="47.45745" lon="0.82524">
        <ele>124.6</ele>
        <time>2023-07-14T07:57:24Z</time>
      </trkpt>
      <trkpt lat="47.45747" lon="0.82516">
        <ele>124.8</ele>
        <time>2023-07-14T07:57:25Z</time>
      </trkpt>
      <trkpt lat="47.4575" lon="0.82506">
        <ele>124.8</ele>
        <time>2023-07-14T07:57:26Z</time>
      </trkpt>
      <trkpt lat="47.45753" lon="0.82498">
        <ele>125</ele>
        <time>2023-07-14T07:57:27Z</time>
      </trkpt>
      <trkpt lat="47.45756" lon="0.8249">
        <ele>125.2</ele>
        <time>2023-07-14T07:57:28Z</time>
      </trkpt>
      <trkpt lat="47.45758" lon="0.82482">
        <ele>125.2</ele>
        <time>2023-07-14T07:57:29Z</time>
      </trkpt>
      <trkpt lat="47.45761" lon="0.82473">
        <ele>125.4</ele>
        <time>2023-07-14T07:57:30Z</time>
      </trkpt>
      <trkpt lat="47.45764" lon="0.82465">
        <ele>125.6</ele>
        <time>2023-07-14T07:57:31Z</time>
      </trkpt>
      <trkpt lat="47.45767" lon="0.82456">
        <ele>125.8</ele>
        <time>2023-07-14T07:57:32Z</time>
      </trkpt>
      <trkpt lat="47.45769" lon="0.82448">
        <ele>126</ele>
        <time>2023-07-14T07:57:33Z</time>
      </trkpt>
      <trkpt lat="47.45772" lon="0.82441">
        <ele>126.2</ele>
        <time>2023-07-14T07:57:34Z</time>
      </trkpt>
      <trkpt lat="47.45775" lon="0.82432">
        <ele>126.2</ele>
        <time>2023-07-14T07:57:35Z</time>
      </trkpt>
      <trkpt lat="47.45778" lon="0.82424">
        <ele>126.4</ele>
        <time>2023-07-14T07:57:36Z</time>
      </trkpt>
      <trkpt lat="47.45781" lon="0.82416">
        <ele>126.6</ele>
        <time>2023-07-14T07:57:37Z</time>
      </trkpt>
      <trkpt lat="47.45783" lon="0.82408">
        <ele>126.6</ele>
        <time>2023-07-14T07:57:38Z</time>
      </trkpt>
      <trkpt lat="47.45786" lon="0.824">
        <ele>126.8</ele>
        <time>2023-07-14T07:57:39Z</time>
      </trkpt>
      <trkpt lat="47.45789" lon="0.82392">
        <ele>127</ele>
        <time>2023-07-14T07:57:40Z</time>
      </trkpt>
      <trkpt lat="47.45792" lon="0.82383">
        <ele>127</ele>
        <time>2023-07-14T07:57:41Z</time>
      </trkpt>
      <trkpt lat="47.45795" lon="0.82374">
        <ele>127.2</ele>
        <time>2023-07-14T07:57:42Z</time>
      </trkpt>
      <trkpt lat="47.45798" lon="0.82366">
        <ele>127.2</ele>
        <time>2023-07-14T07:57:43Z</time>
      </trkpt>
      <trkpt lat="47.45801" lon="0.82358">
        <ele>127.4</ele>
        <time>2023-07-14T07:57:44Z</time>
      </trkpt>
      <trkpt lat="47.45803" lon="0.82351">
        <ele>127.6</ele>
        <time>2023-07-14T07:57:45Z</time>
      </trkpt>
      <trkpt lat="47.45807" lon="0.82342">
        <ele>127.6</ele>
        <time>2023-07-14T07:57:46Z</time>
      </trkpt>
      <trkpt lat="47.4581" lon="0.82333">
        <ele>127.8</ele>
        <time>2023-07-14T07:57:47Z</time>
      </trkpt>
      <trkpt lat="47.45813" lon="0.82326">
        <ele>127.8</ele>
        <time>2023-07-14T07:57:48Z</time>
      </trkpt>
      <trkpt lat="47.45817" lon="0.82319">
        <ele>128</ele>
        <time>2023-07-14T07:57:49Z</time>
      </trkpt>
      <trkpt lat="47.4582" lon="0.82311">
        <ele>128.2</ele>
        <time>2023-07-14T07:57:50Z</time>
      </trkpt>
      <trkpt lat="47.45824" lon="0.82302">
        <ele>128.4</ele>
        <time>2023-07-14T07:57:51Z</time>
      </trkpt>
      <trkpt lat="47.45828" lon="0.82295">
        <ele>128.6</ele>
        <time>2023-07-14T07:57:52Z</time>
      </trkpt>
      <trkpt lat="47.45831" lon="0.82288">
        <ele>128.8</ele>
        <time>2023-07-14T07:57:53Z</time>
      </trkpt>
      <trkpt lat="47.45835" lon="0.8228">
        <ele>129</ele>
        <time>2023-07-14T07:57:54Z</time>
      </trkpt>
      <trkpt lat="47.4584" lon="0.82272">
        <ele>129.2</ele>
        <time>2023-07-14T07:57:55Z</time>
      </trkpt>
      <trkpt lat="47.45844" lon="0.82265">
        <ele>129.2</ele>
        <time>2023-07-14T07:57:56Z</time>
      </trkpt>
      <trkpt lat="47.45848" lon="0.82259">
        <ele>129.4</ele>
        <time>2023-07-14T07:57:57Z</time>
      </trkpt>
      <trkpt lat="47.45853" lon="0.82253">
        <ele>129.6</ele>
        <time>2023-07-14T07:57:58Z</time>
      </trkpt>
      <trkpt lat="47.45857" lon="0.82246">
        <ele>129.8</ele>
        <time>2023-07-14T07:57:59Z</time>
      </trkpt>
      <trkpt lat="47.45862" lon="0.8224">
        <ele>129.8</ele>
        <time>2023-07-14T07:58:00Z</time>
      </trkpt>
      <trkpt lat="47.45866" lon="0.82234">
        <ele>130</ele>
        <time>2023-07-14T07:58:01Z</time>
      </trkpt>
      <trkpt lat="47.45871" lon="0.82228">
        <ele>130</ele>
        <time>2023-07-14T07:58:02Z</time>
      </trkpt>
      <trkpt lat="47.45877" lon="0.82222">
        <ele>130.2</ele>
        <time>2023-07-14T07:58:03Z</time>
      </trkpt>
      <trkpt lat="47.45882" lon="0.82215">
        <ele>130.4</ele>
        <time>2023-07-14T07:58:04Z</time>
      </trkpt>
      <trkpt lat="47.45886" lon="0.82209">
        <ele>130.6</ele>
        <time>2023-07-14T07:58:05Z</time>
      </trkpt>
      <trkpt lat="47.4589" lon="0.82203">
        <ele>130.8</ele>
        <time>2023-07-14T07:58:06Z</time>
      </trkpt>
      <trkpt lat="47.45895" lon="0.82197">
        <ele>130.8</ele>
        <time>2023-07-14T07:58:07Z</time>
      </trkpt>
      <trkpt lat="47.45899" lon="0.8219">
        <ele>131</ele>
        <time>2023-07-14T07:58:08Z</time>
      </trkpt>
      <trkpt lat="47.45904" lon="0.82182">
        <ele>131.2</ele>
        <time>2023-07-14T07:58:09Z</time>
      </trkpt>
      <trkpt lat="47.45908" lon="0.82176">
        <ele>131.2</ele>
        <time>2023-07-14T07:58:10Z</time>
      </trkpt>
      <trkpt lat="47.45912" lon="0.8217">
        <ele>131.2</ele>
        <time>2023-07-14T07:58:11Z</time>
      </trkpt>
      <trkpt lat="47.45916" lon="0.82162">
        <ele>131.2</ele>
        <time>2023-07-14T07:58:12Z</time>
      </trkpt>
      <trkpt lat="47.4592" lon="0.82155">
        <ele>131</ele>
        <time>2023-07-14T07:58:13Z</time>
      </trkpt>
      <trkpt lat="47.45924" lon="0.82148">
        <ele>131.2</ele>
        <time>2023-07-14T07:58:14Z</time>
      </trkpt>
      <trkpt lat="47.45928" lon="0.8214">
        <ele>131.2</ele>
        <time>2023-07-14T07:58:15Z</time>
      </trkpt>
      <trkpt lat="47.45932" lon="0.82133">
        <ele>131.4</ele>
        <time>2023-07-14T07:58:16Z</time>
      </trkpt>
      <trkpt lat="47.45936" lon="0.82126">
        <ele>131.4</ele>
        <time>2023-07-14T07:58:17Z</time>
      </trkpt>
      <trkpt lat="47.4594" lon="0.82118">
        <ele>131.2</ele>
        <time>2023-07-14T07:58:18Z</time>
      </trkpt>
      <trkpt lat="47.45944" lon="0.8211">
        <ele>131.2</ele>
        <time>2023-07-14T07:58:19Z</time>
      </trkpt>
      <trkpt lat="47.45948" lon="0.82101">
        <ele>131.2</ele>
        <time>2023-07-14T07:58:20Z</time>
      </trkpt>
      <trkpt lat="47.45952" lon="0.82093">
        <ele>131</ele>
        <time>2023-07-14T07:58:21Z</time>
      </trkpt>
      <trkpt lat="47.45956" lon="0.82085">
        <ele>131</ele>
        <time>2023-07-14T07:58:22Z</time>
      </trkpt>
      <trkpt lat="47.45961" lon="0.82076">
        <ele>131.2</ele>
        <time>2023-07-14T07:58:23Z</time>
      </trkpt>
      <trkpt lat="47.45964" lon="0.82068">
        <ele>131</ele>
        <time>2023-07-14T07:58:24Z</time>
      </trkpt>
      <trkpt lat="47.45968" lon="0.8206">
        <ele>130.8</ele>
        <time>2023-07-14T07:58:25Z</time>
      </trkpt>
      <trkpt lat="47.45972" lon="0.82052">
        <ele>130.8</ele>
        <time>2023-07-14T07:58:26Z</time>
      </trkpt>
      <trkpt lat="47.45976" lon="0.82043">
        <ele>130.4</ele>
        <time>2023-07-14T07:58:27Z</time>
      </trkpt>
      <trkpt lat="47.4598" lon="0.82034">
        <ele>130.2</ele>
        <time>2023-07-14T07:58:28Z</time>
      </trkpt>
      <trkpt lat="47.45984" lon="0.82025">
        <ele>130.4</ele>
        <time>2023-07-14T07:58:29Z</time>
      </trkpt>
      <trkpt lat="47.45988" lon="0.82016">
        <ele>130.4</ele>
        <time>2023-07-14T07:58:30Z</time>
      </trkpt>
      <trkpt lat="47.45993" lon="0.82006">
        <ele>130.2</ele>
        <time>2023-07-14T07:58:31Z</time>
      </trkpt>
      <trkpt lat="47.45998" lon="0.81996">
        <ele>130.2</ele>
        <time>2023-07-14T07:58:32Z</time>
      </trkpt>
      <trkpt lat="47.46001" lon="0.81987">
        <ele>130</ele>
        <time>2023-07-14T07:58:33Z</time>
      </trkpt>
      <trkpt lat="47.46005" lon="0.81979">
        <ele>129.8</ele>
        <time>2023-07-14T07:58:34Z</time>
      </trkpt>
      <trkpt lat="47.46009" lon="0.8197">
        <ele>129.8</ele>
        <time>2023-07-14T07:58:35Z</time>
      </trkpt>
      <trkpt lat="47.46014" lon="0.8196">
        <ele>129.8</ele>
        <time>2023-07-14T07:58:36Z</time>
      </trkpt>
      <trkpt lat="47.46019" lon="0.8195">
        <ele>129.8</ele>
        <time>2023-07-14T07:58:37Z</time>
      </trkpt>
      <trkpt lat="47.46024" lon="0.81942">
        <ele>129.8</ele>
        <time>2023-07-14T07:58:38Z</time>
      </trkpt>
      <trkpt lat="47.46028" lon="0.81934">
        <ele>129.6</ele>
        <time>2023-07-14T07:58:39Z</time>
      </trkpt>
      <trkpt lat="47.46032" lon="0.81925">
        <ele>129.6</ele>
        <time>2023-07-14T07:58:40Z</time>
      </trkpt>
      <trkpt lat="47.46037" lon="0.81916">
        <ele>129.6</ele>
        <time>2023-07-14T07:58:41Z</time>
      </trkpt>
      <trkpt lat="47.46042" lon="0.81907">
        <ele>129.6</ele>
        <time>2023-07-14T07:58:42Z</time>
      </trkpt>
      <trkpt lat="47.46046" lon="0.81898">
        <ele>129.6</ele>
        <time>2023-07-14T07:58:43Z</time>
      </trkpt>
      <trkpt lat="47.46051" lon="0.8189">
        <ele>129.6</ele>
        <time>2023-07-14T07:58:44Z</time>
      </trkpt>
      <trkpt lat="47.46056" lon="0.8188">
        <ele>129.4</ele>
        <time>2023-07-14T07:58:45Z</time>
      </trkpt>
      <trkpt lat="47.46061" lon="0.81871">
        <ele>129.4</ele>
        <time>2023-07-14T07:58:46Z</time>
      </trkpt>
      <trkpt lat="47.46066" lon="0.81862">
        <ele>129.4</ele>
        <time>2023-07-14T07:58:47Z</time>
      </trkpt>
      <trkpt lat="47.4607" lon="0.81854">
        <ele>129.4</ele>
        <time>2023-07-14T07:58:48Z</time>
      </trkpt>
      <trkpt lat="47.46075" lon="0.81846">
        <ele>129.2</ele>
        <time>2023-07-14T07:58:49Z</time>
      </trkpt>
      <trkpt lat="47.4608" lon="0.81837">
        <ele>129.4</ele>
        <time>2023-07-14T07:58:50Z</time>
      </trkpt>
      <trkpt lat="47.46085" lon="0.81828">
        <ele>129.4</ele>
        <time>2023-07-14T07:58:51Z</time>
      </trkpt>
      <trkpt lat="47.4609" lon="0.81819">
        <ele>129.2</ele>
        <time>2023-07-14T07:58:52Z</time>
      </trkpt>
      <trkpt lat="47.46094" lon="0.81811">
        <ele>129.2</ele>
        <time>2023-07-14T07:58:53Z</time>
      </trkpt>
      <trkpt lat="47.46099" lon="0.81802">
        <ele>129.2</ele>
        <time>2023-07-14T07:58:54Z</time>
      </trkpt>
      <trkpt lat="47.46104" lon="0.81792">
        <ele>129</ele>
        <time>2023-07-14T07:58:55Z</time>
      </trkpt>
      <trkpt lat="47.46109" lon="0.81783">
        <ele>129</ele>
        <time>2023-07-14T07:58:56Z</time>
      </trkpt>
      <trkpt lat="47.46113" lon="0.81775">
        <ele>129</ele>
        <time>2023-07-14T07:58:57Z</time>
      </trkpt>
      <trkpt lat="47.46119" lon="0.81765">
        <ele>128.8</ele>
        <time>2023-07-14T07:58:58Z</time>
      </trkpt>
      <trkpt lat="47.46124" lon="0.81756">
        <ele>128.8</ele>
        <time>2023-07-14T07:58:59Z</time>
      </trkpt>
      <trkpt lat="47.46128" lon="0.81747">
        <ele>128.6</ele>
        <time>2023-07-14T07:59:00Z</time>
      </trkpt>
      <trkpt lat="47.46133" lon="0.81738">
        <ele>128.6</ele>
        <time>2023-07-14T07:59:01Z</time>
      </trkpt>
      <trkpt lat="47.46138" lon="0.81729">
        <ele>128.6</ele>
        <time>2023-07-14T07:59:02Z</time>
      </trkpt>
      <trkpt lat="47.46143" lon="0.81719">
        <ele>128.4</ele>
        <time>2023-07-14T07:59:03Z</time>
      </trkpt>
      <trkpt lat="47.46148" lon="0.8171">
        <ele>128.4</ele>
        <time>2023-07-14T07:59:04Z</time>
      </trkpt>
      <trkpt lat="47.46153" lon="0.817">
        <ele>128.2</ele>
        <time>2023-07-14T07:59:05Z</time>
      </trkpt>
      <trkpt lat="47.46158" lon="0.81691">
        <ele>128.2</ele>
        <time>2023-07-14T07:59:06Z</time>
      </trkpt>
      <trkpt lat="47.46163" lon="0.81681">
        <ele>128.2</ele>
        <time>2023-07-14T07:59:07Z</time>
      </trkpt>
      <trkpt lat="47.46168" lon="0.81672">
        <ele>128.2</ele>
        <time>2023-07-14T07:59:08Z</time>
      </trkpt>
      <trkpt lat="47.46173" lon="0.81662">
        <ele>128.2</ele>
        <time>2023-07-14T07:59:09Z</time>
      </trkpt>
      <trkpt lat="47.46178" lon="0.81653">
        <ele>128.2</ele>
        <time>2023-07-14T07:59:10Z</time>
      </trkpt>
      <trkpt lat="47.46183" lon="0.81644">
        <ele>128</ele>
        <time>2023-07-14T07:59:11Z</time>
      </trkpt>
      <trkpt lat="47.46189" lon="0.81635">
        <ele>128.2</ele>
        <time>2023-07-14T07:59:12Z</time>
      </trkpt>
      <trkpt lat="47.46194" lon="0.81626">
        <ele>128.2</ele>
        <time>2023-07-14T07:59:13Z</time>
      </trkpt>
      <trkpt lat="47.46201" lon="0.81617">
        <ele>128</ele>
        <time>2023-07-14T07:59:14Z</time>
      </trkpt>
      <trkpt lat="47.46207" lon="0.81609">
        <ele>128</ele>
        <time>2023-07-14T07:59:15Z</time>
      </trkpt>
      <trkpt lat="47.46214" lon="0.81602">
        <ele>128</ele>
        <time>2023-07-14T07:59:16Z</time>
      </trkpt>
      <trkpt lat="47.46221" lon="0.81595">
        <ele>128</ele>
        <time>2023-07-14T07:59:17Z</time>
      </trkpt>
      <trkpt lat="47.46228" lon="0.81589">
        <ele>128</ele>
        <time>2023-07-14T07:59:18Z</time>
      </trkpt>
      <trkpt lat="47.46235" lon="0.81583">
        <ele>128</ele>
        <time>2023-07-14T07:59:19Z</time>
      </trkpt>
      <trkpt lat="47.46242" lon="0.81577">
        <ele>127.8</ele>
        <time>2023-07-14T07:59:20Z</time>
      </trkpt>
      <trkpt lat="47.4625" lon="0.81571">
        <ele>127.8</ele>
        <time>2023-07-14T07:59:21Z</time>
      </trkpt>
      <trkpt lat="47.46256" lon="0.81566">
        <ele>127.8</ele>
        <time>2023-07-14T07:59:22Z</time>
      </trkpt>
      <trkpt lat="47.46264" lon="0.81561">
        <ele>128</ele>
        <time>2023-07-14T07:59:23Z</time>
      </trkpt>
      <trkpt lat="47.46272" lon="0.81555">
        <ele>128</ele>
        <time>2023-07-14T07:59:24Z</time>
      </trkpt>
      <trkpt lat="47.4628" lon="0.81548">
        <ele>128.2</ele>
        <time>2023-07-14T07:59:25Z</time>
      </trkpt>
      <trkpt lat="47.46286" lon="0.81543">
        <ele>128.2</ele>
        <time>2023-07-14T07:59:26Z</time>
      </trkpt>
      <trkpt lat="47.46292" lon="0.81539">
        <ele>128.2</ele>
        <time>2023-07-14T07:59:27Z</time>
      </trkpt>
      <trkpt lat="47.46301" lon="0.81533">
        <ele>128.4</ele>
        <time>2023-07-14T07:59:28Z</time>
      </trkpt>
      <trkpt lat="47.46309" lon="0.81527">
        <ele>128.6</ele>
        <time>2023-07-14T07:59:29Z</time>
      </trkpt>
      <trkpt lat="47.46316" lon="0.81521">
        <ele>128.6</ele>
        <time>2023-07-14T07:59:30Z</time>
      </trkpt>
      <trkpt lat="47.46323" lon="0.81516">
        <ele>128.6</ele>
        <time>2023-07-14T07:59:31Z</time>
      </trkpt>
      <trkpt lat="47.46329" lon="0.81511">
        <ele>128.8</ele>
        <time>2023-07-14T07:59:32Z</time>
      </trkpt>
      <trkpt lat="47.46337" lon="0.81505">
        <ele>129</ele>
        <time>2023-07-14T07:59:33Z</time>
      </trkpt>
      <trkpt lat="47.46344" lon="0.81499">
        <ele>129</ele>
        <time>2023-07-14T07:59:34Z</time>
      </trkpt>
      <trkpt lat="47.46352" lon="0.81493">
        <ele>129</ele>
        <time>2023-07-14T07:59:35Z</time>
      </trkpt>
      <trkpt lat="47.46359" lon="0.81487">
        <ele>129</ele>
        <time>2023-07-14T07:59:36Z</time>
      </trkpt>
      <trkpt lat="47.46367" lon="0.81482">
        <ele>129</ele>
        <time>2023-07-14T07:59:37Z</time>
      </trkpt>
      <trkpt lat="47.46375" lon="0.81476">
        <ele>129.2</ele>
        <time>2023-07-14T07:59:38Z</time>
      </trkpt>
      <trkpt lat="47.46382" lon="0.8147">
        <ele>129.2</ele>
        <time>2023-07-14T07:59:39Z</time>
      </trkpt>
      <trkpt lat="47.4639" lon="0.81464">
        <ele>129.2</ele>
        <time>2023-07-14T07:59:40Z</time>
      </trkpt>
      <trkpt lat="47.46397" lon="0.81458">
        <ele>129.2</ele>
        <time>2023-07-14T07:59:41Z</time>
      </trkpt>
      <trkpt lat="47.46405" lon="0.81452">
        <ele>129.2</ele>
        <time>2023-07-14T07:59:42Z</time>
      </trkpt>
      <trkpt lat="47.46413" lon="0.81447">
        <ele>129.2</ele>
        <time>2023-07-14T07:59:43Z</time>
      </trkpt>
      <trkpt lat="47.4642" lon="0.81441">
        <ele>129.2</ele>
        <time>2023-07-14T07:59:44Z</time>
      </trkpt>
      <trkpt lat="47.46428" lon="0.81435">
        <ele>129</ele>
        <time>2023-07-14T07:59:45Z</time>
      </trkpt>
      <trkpt lat="47.46435" lon="0.81429">
        <ele>129.2</ele>
        <time>2023-07-14T07:59:46Z</time>
      </trkpt>
      <trkpt lat="47.46444" lon="0.81422">
        <ele>129</ele>
        <time>2023-07-14T07:59:47Z</time>
      </trkpt>
      <trkpt lat="47.46452" lon="0.81416">
        <ele>129</ele>
        <time>2023-07-14T07:59:48Z</time>
      </trkpt>
      <trkpt lat="47.46459" lon="0.8141">
        <ele>129</ele>
        <time>2023-07-14T07:59:49Z</time>
      </trkpt>
      <trkpt lat="47.46465" lon="0.81405">
        <ele>129</ele>
        <time>2023-07-14T07:59:50Z</time>
      </trkpt>
      <trkpt lat="47.46473" lon="0.814">
        <ele>129</ele>
        <time>2023-07-14T07:59:51Z</time>
      </trkpt>
      <trkpt lat="47.46481" lon="0.81394">
        <ele>129</ele>
        <time>2023-07-14T07:59:52Z</time>
      </trkpt>
      <trkpt lat="47.46489" lon="0.81388">
        <ele>129</ele>
        <time>2023-07-14T07:59:53Z</time>
      </trkpt>
      <trkpt lat="47.46496" lon="0.81382">
        <ele>129</ele>
        <time>2023-07-14T07:59:54Z</time>
      </trkpt>
      <trkpt lat="47.46502" lon="0.81377">
        <ele>129</ele>
        <time>2023-07-14T07:59:55Z</time>
      </trkpt>
      <trkpt lat="47.4651" lon="0.81371">
        <ele>129</ele>
        <time>2023-07-14T07:59:56Z</time>
      </trkpt>
      <trkpt lat="47.46519" lon="0.81364">
        <ele>129.2</ele>
        <time>2023-07-14T07:59:57Z</time>
      </trkpt>
      <trkpt lat="47.46526" lon="0.81358">
        <ele>129.2</ele>
        <time>2023-07-14T07:59:58Z</time>
      </trkpt>
      <trkpt lat="47.46532" lon="0.81353">
        <ele>129.2</ele>
        <time>2023-07-14T07:59:59Z</time>
      </trkpt>
      <trkpt lat="47.4654" lon="0.81347">
        <ele>129.2</ele>
        <time>2023-07-14T08:00:00Z</time>
      </trkpt>
      <trkpt lat="47.46548" lon="0.81341">
        <ele>129.2</ele>
        <time>2023-07-14T08:00:01Z</time>
      </trkpt>
      <trkpt lat="47.46555" lon="0.81335">
        <ele>129.4</ele>
        <time>2023-07-14T08:00:02Z</time>
      </trkpt>
      <trkpt lat="47.46562" lon="0.8133">
        <ele>129.4</ele>
        <time>2023-07-14T08:00:03Z</time>
      </trkpt>
      <trkpt lat="47.46568" lon="0.81325">
        <ele>129.4</ele>
        <time>2023-07-14T08:00:04Z</time>
      </trkpt>
      <trkpt lat="47.46576" lon="0.81319">
        <ele>129.4</ele>
        <time>2023-07-14T08:00:05Z</time>
      </trkpt>
      <trkpt lat="47.46584" lon="0.81313">
        <ele>129.6</ele>
        <time>2023-07-14T08:00:06Z</time>
      </trkpt>
      <trkpt lat="47.46591" lon="0.81307">
        <ele>129.6</ele>
        <time>2023-07-14T08:00:07Z</time>
      </trkpt>
      <trkpt lat="47.46598" lon="0.81301">
        <ele>129.6</ele>
        <time>2023-07-14T08:00:08Z</time>
      </trkpt>
      <trkpt lat="47.46606" lon="0.81295">
        <ele>129.6</ele>
        <time>2023-07-14T08:00:09Z</time>
      </trkpt>
      <trkpt lat="47.46613" lon="0.8129">
        <ele>129.6</ele>
        <time>2023-07-14T08:00:10Z</time>
      </trkpt>
      <trkpt lat="47.46621" lon="0.81284">
        <ele>129.6</ele>
        <time>2023-07-14T08:00:11Z</time>
      </trkpt>
      <trkpt lat="47.46628" lon="0.81279">
        <ele>129.6</ele>
        <time>2023-07-14T08:00:12Z</time>
      </trkpt>
      <trkpt lat="47.46635" lon="0.81274">
        <ele>129.6</ele>
        <time>2023-07-14T08:00:13Z</time>
      </trkpt>
      <trkpt lat="47.46641" lon="0.8127">
        <ele>129.6</ele>
        <time>2023-07-14T08:00:14Z</time>
      </trkpt>
      <trkpt lat="47.46648" lon="0.81264">
        <ele>129.6</ele>
        <time>2023-07-14T08:00:15Z</time>
      </trkpt>
      <trkpt lat="47.46657" lon="0.81258">
        <ele>129.8</ele>
        <time>2023-07-14T08:00:16Z</time>
      </trkpt>
      <trkpt lat="47.46664" lon="0.81253">
        <ele>129.6</ele>
        <time>2023-07-14T08:00:17Z</time>
      </trkpt>
      <trkpt lat="47.46672" lon="0.81249">
        <ele>129.6</ele>
        <time>2023-07-14T08:00:18Z</time>
      </trkpt>
      <trkpt lat="47.4668" lon="0.81245">
        <ele>129.6</ele>
        <time>2023-07-14T08:00:19Z</time>
      </trkpt>
      <trkpt lat="47.46689" lon="0.81241">
        <ele>129.4</ele>
        <time>2023-07-14T08:00:20Z</time>
      </trkpt>
      <trkpt lat="47.46697" lon="0.81238">
        <ele>129.4</ele>
        <time>2023-07-14T08:00:21Z</time>
      </trkpt>
      <trkpt lat="47.46704" lon="0.81236">
        <ele>129.2</ele>
        <time>2023-07-14T08:00:22Z</time>
      </trkpt>
      <trkpt lat="47.46713" lon="0.81235">
        <ele>129</ele>
        <time>2023-07-14T08:00:23Z</time>
      </trkpt>
      <trkpt lat="47.46722" lon="0.81233">
        <ele>129</ele>
        <time>2023-07-14T08:00:24Z</time>
      </trkpt>
      <trkpt lat="47.4673" lon="0.81231">
        <ele>129</ele>
        <time>2023-07-14T08:00:25Z</time>
      </trkpt>
      <trkpt lat="47.46738" lon="0.8123">
        <ele>128.8</ele>
        <time>2023-07-14T08:00:26Z</time>
      </trkpt>
      <trkpt lat="47.46746" lon="0.81229">
        <ele>128.8</ele>
        <time>2023-07-14T08:00:27Z</time>
      </trkpt>
      <trkpt lat="47.46755" lon="0.81228">
        <ele>128.8</ele>
        <time>2023-07-14T08:00:28Z</time>
      </trkpt>
      <trkpt lat="47.46765" lon="0.81227">
        <ele>128.6</ele>
        <time>2023-07-14T08:00:29Z</time>
      </trkpt>
      <trkpt lat="47.46773" lon="0.81226">
        <ele>128.4</ele>
        <time>2023-07-14T08:00:30Z</time>
      </trkpt>
      <trkpt lat="47.46782" lon="0.81225">
        <ele>128.2</ele>
        <time>2023-07-14T08:00:31Z</time>
      </trkpt>
      <trkpt lat="47.46791" lon="0.81225">
        <ele>128</ele>
        <time>2023-07-14T08:00:32Z</time>
      </trkpt>
      <trkpt lat="47.46799" lon="0.81223">
        <ele>128</ele>
        <time>2023-07-14T08:00:33Z</time>
      </trkpt>
      <trkpt lat="47.46808" lon="0.81222">
        <ele>128</ele>
        <time>2023-07-14T08:00:34Z</time>
      </trkpt>
      <trkpt lat="47.46817" lon="0.81221">
        <ele>128</ele>
        <time>2023-07-14T08:00:35Z</time>
      </trkpt>
      <trkpt lat="47.46825" lon="0.81221">
        <ele>128</ele>
        <time>2023-07-14T08:00:36Z</time>
      </trkpt>
      <trkpt lat="47.46834" lon="0.8122">
        <ele>127.8</ele>
        <time>2023-07-14T08:00:37Z</time>
      </trkpt>
      <trkpt lat="47.46842" lon="0.81219">
        <ele>127.8</ele>
        <time>2023-07-14T08:00:38Z</time>
      </trkpt>
      <trkpt lat="47.46851" lon="0.81218">
        <ele>127.8</ele>
        <time>2023-07-14T08:00:39Z</time>
      </trkpt>
      <trkpt lat="47.46859" lon="0.81217">
        <ele>127.8</ele>
        <time>2023-07-14T08:00:40Z</time>
      </trkpt>
      <trkpt lat="47.46867" lon="0.81216">
        <ele>127.8</ele>
        <time>2023-07-14T08:00:41Z</time>
      </trkpt>
      <trkpt lat="47.46875" lon="0.81215">
        <ele>127.6</ele>
        <time>2023-07-14T08:00:42Z</time>
      </trkpt>
      <trkpt lat="47.46883" lon="0.81214">
        <ele>127.6</ele>
        <time>2023-07-14T08:00:43Z</time>
      </trkpt>
      <trkpt lat="47.46891" lon="0.81214">
        <ele>127.6</ele>
        <time>2023-07-14T08:00:44Z</time>
      </trkpt>
      <trkpt lat="47.469" lon="0.81213">
        <ele>127.6</ele>
        <time>2023-07-14T08:00:45Z</time>
      </trkpt>
      <trkpt lat="47.46908" lon="0.81212">
        <ele>127.8</ele>
        <time>2023-07-14T08:00:46Z</time>
      </trkpt>
      <trkpt lat="47.46916" lon="0.81211">
        <ele>127.8</ele>
        <time>2023-07-14T08:00:47Z</time>
      </trkpt>
      <trkpt lat="47.46924" lon="0.8121">
        <ele>127.8</ele>
        <time>2023-07-14T08:00:48Z</time>
      </trkpt>
      <trkpt lat="47.46931" lon="0.81209">
        <ele>127.8</ele>
        <time>2023-07-14T08:00:49Z</time>
      </trkpt>
      <trkpt lat="47.4694" lon="0.81208">
        <ele>127.8</ele>
        <time>2023-07-14T08:00:50Z</time>
      </trkpt>
      <trkpt lat="47.4695" lon="0.81206">
        <ele>127.6</ele>
        <time>2023-07-14T08:00:51Z</time>
      </trkpt>
      <trkpt lat="47.46958" lon="0.81205">
        <ele>127.6</ele>
        <time>2023-07-14T08:00:52Z</time>
      </trkpt>
      <trkpt lat="47.46967" lon="0.81204">
        <ele>127.4</ele>
        <time>2023-07-14T08:00:53Z</time>
      </trkpt>
      <trkpt lat="47.46974" lon="0.81203">
        <ele>127.4</ele>
        <time>2023-07-14T08:00:54Z</time>
      </trkpt>
      <trkpt lat="47.46983" lon="0.81201">
        <ele>127.2</ele>
        <time>2023-07-14T08:00:55Z</time>
      </trkpt>
      <trkpt lat="47.46992" lon="0.812">
        <ele>127</ele>
        <time>2023-07-14T08:00:56Z</time>
      </trkpt>
      <trkpt lat="47.47001" lon="0.81198">
        <ele>126.8</ele>
        <time>2023-07-14T08:00:57Z</time>
      </trkpt>
      <trkpt lat="47.47009" lon="0.81197">
        <ele>126.8</ele>
        <time>2023-07-14T08:00:58Z</time>
      </trkpt>
      <trkpt lat="47.47017" lon="0.81195">
        <ele>126.6</ele>
        <time>2023-07-14T08:00:59Z</time>
      </trkpt>
      <trkpt lat="47.47026" lon="0.81194">
        <ele>126.4</ele>
        <time>2023-07-14T08:01:00Z</time>
      </trkpt>
      <trkpt lat="47.47033" lon="0.81192">
        <ele>126.2</ele>
        <time>2023-07-14T08:01:01Z</time>
      </trkpt>
      <trkpt lat="47.47042" lon="0.81191">
        <ele>126</ele>
        <time>2023-07-14T08:01:02Z</time>
      </trkpt>
      <trkpt lat="47.47052" lon="0.81189">
        <ele>125.8</ele>
        <time>2023-07-14T08:01:03Z</time>
      </trkpt>
      <trkpt lat="47.47061" lon="0.81187">
        <ele>125.6</ele>
        <time>2023-07-14T08:01:04Z</time>
      </trkpt>
      <trkpt lat="47.4707" lon="0.81186">
        <ele>125.4</ele>
        <time>2023-07-14T08:01:05Z</time>
      </trkpt>
      <trkpt lat="47.47078" lon="0.81185">
        <ele>125.2</ele>
        <time>2023-07-14T08:01:06Z</time>
      </trkpt>
      <trkpt lat="47.47087" lon="0.81183">
        <ele>124.8</ele>
        <time>2023-07-14T08:01:07Z</time>
      </trkpt>
      <trkpt lat="47.47095" lon="0.81182">
        <ele>124.6</ele>
        <time>2023-07-14T08:01:08Z</time>
      </trkpt>
      <trkpt lat="47.47104" lon="0.81181">
        <ele>124.4</ele>
        <time>2023-07-14T08:01:09Z</time>
      </trkpt>
      <trkpt lat="47.47113" lon="0.81179">
        <ele>124.2</ele>
        <time>2023-07-14T08:01:10Z</time>
      </trkpt>
      <trkpt lat="47.47121" lon="0.81178">
        <ele>124.2</ele>
        <time>2023-07-14T08:01:11Z</time>
      </trkpt>
      <trkpt lat="47.47131" lon="0.81176">
        <ele>123.8</ele>
        <time>2023-07-14T08:01:12Z</time>
      </trkpt>
      <trkpt lat="47.47141" lon="0.81174">
        <ele>123.4</ele>
        <time>2023-07-14T08:01:13Z</time>
      </trkpt>
      <trkpt lat="47.4715" lon="0.81172">
        <ele>123.2</ele>
        <time>2023-07-14T08:01:14Z</time>
      </trkpt>
      <trkpt lat="47.47159" lon="0.81169">
        <ele>123.2</ele>
        <time>2023-07-14T08:01:15Z</time>
      </trkpt>
      <trkpt lat="47.47168" lon="0.81167">
        <ele>123</ele>
        <time>2023-07-14T08:01:16Z</time>
      </trkpt>
      <trkpt lat="47.47177" lon="0.81165">
        <ele>123</ele>
        <time>2023-07-14T08:01:17Z</time>
      </trkpt>
      <trkpt lat="47.47186" lon="0.81162">
        <ele>123.2</ele>
        <time>2023-07-14T08:01:18Z</time>
      </trkpt>
      <trkpt lat="47.47195" lon="0.81158">
        <ele>123.2</ele>
        <time>2023-07-14T08:01:19Z</time>
      </trkpt>
      <trkpt lat="47.47203" lon="0.81155">
        <ele>123</ele>
        <time>2023-07-14T08:01:20Z</time>
      </trkpt>
      <trkpt lat="47.47211" lon="0.81151">
        <ele>123</ele>
        <time>2023-07-14T08:01:21Z</time>
      </trkpt>
      <trkpt lat="47.47221" lon="0.81146">
        <ele>123</ele>
        <time>2023-07-14T08:01:22Z</time>
      </trkpt>
      <trkpt lat="47.47229" lon="0.81141">
        <ele>123</ele>
        <time>2023-07-14T08:01:23Z</time>
      </trkpt>
      <trkpt lat="47.47237" lon="0.81136">
        <ele>123</ele>
        <time>2023-07-14T08:01:24Z</time>
      </trkpt>
      <trkpt lat="47.47244" lon="0.81132">
        <ele>122.8</ele>
        <time>2023-07-14T08:01:25Z</time>
      </trkpt>
      <trkpt lat="47.47251" lon="0.81128">
        <ele>122.8</ele>
        <time>2023-07-14T08:01:26Z</time>
      </trkpt>
      <trkpt lat="47.4726" lon="0.81123">
        <ele>122.6</ele>
        <time>2023-07-14T08:01:27Z</time>
      </trkpt>
      <trkpt lat="47.47269" lon="0.81117">
        <ele>122.6</ele>
        <time>2023-07-14T08:01:28Z</time>
      </trkpt>
      <trkpt lat="47.47277" lon="0.81113">
        <ele>122.4</ele>
        <time>2023-07-14T08:01:29Z</time>
      </trkpt>
      <trkpt lat="47.47285" lon="0.81108">
        <ele>122.4</ele>
        <time>2023-07-14T08:01:30Z</time>
      </trkpt>
      <trkpt lat="47.47293" lon="0.81103">
        <ele>122.2</ele>
        <time>2023-07-14T08:01:31Z</time>
      </trkpt>
      <trkpt lat="47.47302" lon="0.81098">
        <ele>122</ele>
        <time>2023-07-14T08:01:32Z</time>
      </trkpt>
      <trkpt lat="47.47312" lon="0.81092">
        <ele>122</ele>
        <time>2023-07-14T08:01:33Z</time>
      </trkpt>
      <trkpt lat="47.4732" lon="0.81087">
        <ele>121.8</ele>
        <time>2023-07-14T08:01:34Z</time>
      </trkpt>
      <trkpt lat="47.47328" lon="0.81083">
        <ele>121.8</ele>
        <time>2023-07-14T08:01:35Z</time>
      </trkpt>
      <trkpt lat="47.47335" lon="0.81078">
        <ele>121.6</ele>
        <time>2023-07-14T08:01:36Z</time>
      </trkpt>
      <trkpt lat="47.47345" lon="0.81073">
        <ele>121.4</ele>
        <time>2023-07-14T08:01:37Z</time>
      </trkpt>
      <trkpt lat="47.47353" lon="0.81067">
        <ele>121.2</ele>
        <time>2023-07-14T08:01:38Z</time>
      </trkpt>
      <trkpt lat="47.47361" lon="0.81063">
        <ele>121.2</ele>
        <time>2023-07-14T08:01:39Z</time>
      </trkpt>
      <trkpt lat="47.4737" lon="0.81057">
        <ele>121</ele>
        <time>2023-07-14T08:01:40Z</time>
      </trkpt>
      <trkpt lat="47.47379" lon="0.81052">
        <ele>121</ele>
        <time>2023-07-14T08:01:41Z</time>
      </trkpt>
      <trkpt lat="47.47388" lon="0.81047">
        <ele>120.8</ele>
        <time>2023-07-14T08:01:42Z</time>
      </trkpt>
      <trkpt lat="47.47396" lon="0.81042">
        <ele>120.6</ele>
        <time>2023-07-14T08:01:43Z</time>
      </trkpt>
      <trkpt lat="47.47404" lon="0.81038">
        <ele>120.6</ele>
        <time>2023-07-14T08:01:44Z</time>
      </trkpt>
      <trkpt lat="47.47412" lon="0.81033">
        <ele>120.8</ele>
        <time>2023-07-14T08:01:45Z</time>
      </trkpt>
      <trkpt lat="47.4742" lon="0.81028">
        <ele>121</ele>
        <time>2023-07-14T08:01:46Z</time>
      </trkpt>
      <trkpt lat="47.47428" lon="0.81023">
        <ele>121.2</ele>
        <time>2023-07-14T08:01:47Z</time>
      </trkpt>
      <trkpt lat="47.47436" lon="0.81019">
        <ele>121.4</ele>
        <time>2023-07-14T08:01:48Z</time>
      </trkpt>
      <trkpt lat="47.47443" lon="0.81015">
        <ele>121.6</ele>
        <time>2023-07-14T08:01:49Z</time>
      </trkpt>
      <trkpt lat="47.4745" lon="0.81011">
        <ele>121.6</ele>
        <time>2023-07-14T08:01:50Z</time>
      </trkpt>
      <trkpt lat="47.47456" lon="0.81007">
        <ele>121.6</ele>
        <time>2023-07-14T08:01:51Z</time>
      </trkpt>
      <trkpt lat="47.47464" lon="0.81002">
        <ele>121.6</ele>
        <time>2023-07-14T08:01:52Z</time>
      </trkpt>
      <trkpt lat="47.47471" lon="0.80997">
        <ele>121.6</ele>
        <time>2023-07-14T08:01:53Z</time>
      </trkpt>
      <trkpt lat="47.47477" lon="0.8099">
        <ele>121.8</ele>
        <time>2023-07-14T08:01:54Z</time>
      </trkpt>
      <trkpt lat="47.47484" lon="0.80982">
        <ele>121.8</ele>
        <time>2023-07-14T08:01:55Z</time>
      </trkpt>
      <trkpt lat="47.4749" lon="0.80973">
        <ele>121.6</ele>
        <time>2023-07-14T08:01:56Z</time>
      </trkpt>
      <trkpt lat="47.47496" lon="0.80964">
        <ele>121.6</ele>
        <time>2023-07-14T08:01:57Z</time>
      </trkpt>
      <trkpt lat="47.47501" lon="0.80956">
        <ele>121.6</ele>
        <time>2023-07-14T08:01:58Z</time>
      </trkpt>
      <trkpt lat="47.47505" lon="0.80948">
        <ele>121.6</ele>
        <time>2023-07-14T08:01:59Z</time>
      </trkpt>
      <trkpt lat="47.47511" lon="0.80939">
        <ele>121.6</ele>
        <time>2023-07-14T08:02:00Z</time>
      </trkpt>
      <trkpt lat="47.47515" lon="0.80931">
        <ele>121.8</ele>
        <time>2023-07-14T08:02:01Z</time>
      </trkpt>
      <trkpt lat="47.4752" lon="0.80924">
        <ele>122</ele>
        <time>2023-07-14T08:02:02Z</time>
      </trkpt>
      <trkpt lat="47.47525" lon="0.80916">
        <ele>122.2</ele>
        <time>2023-07-14T08:02:03Z</time>
      </trkpt>
      <trkpt lat="47.4753" lon="0.80909">
        <ele>122.4</ele>
        <time>2023-07-14T08:02:04Z</time>
      </trkpt>
      <trkpt lat="47.47534" lon="0.80903">
        <ele>122.8</ele>
        <time>2023-07-14T08:02:05Z</time>
      </trkpt>
      <trkpt lat="47.47538" lon="0.80897">
        <ele>123</ele>
        <time>2023-07-14T08:02:06Z</time>
      </trkpt>
      <trkpt lat="47.47543" lon="0.80892">
        <ele>123.4</ele>
        <time>2023-07-14T08:02:07Z</time>
      </trkpt>
      <trkpt lat="47.47549" lon="0.80889">
        <ele>123.8</ele>
        <time>2023-07-14T08:02:08Z</time>
      </trkpt>
      <trkpt lat="47.47555" lon="0.80886">
        <ele>124</ele>
        <time>2023-07-14T08:02:09Z</time>
      </trkpt>
      <trkpt lat="47.4756" lon="0.80884">
        <ele>124.2</ele>
        <time>2023-07-14T08:02:10Z</time>
      </trkpt>
      <trkpt lat="47.47565" lon="0.80884">
        <ele>124.6</ele>
        <time>2023-07-14T08:02:11Z</time>
      </trkpt>
      <trkpt lat="47.4757" lon="0.80884">
        <ele>124.8</ele>
        <time>2023-07-14T08:02:12Z</time>
      </trkpt>
      <trkpt lat="47.47577" lon="0.80886">
        <ele>125.2</ele>
        <time>2023-07-14T08:02:13Z</time>
      </trkpt>
      <trkpt lat="47.47581" lon="0.80887">
        <ele>125.4</ele>
        <time>2023-07-14T08:02:14Z</time>
      </trkpt>
      <trkpt lat="47.47587" lon="0.80889">
        <ele>125.6</ele>
        <time>2023-07-14T08:02:15Z</time>
      </trkpt>
      <trkpt lat="47.47593" lon="0.8089">
        <ele>125.8</ele>
        <time>2023-07-14T08:02:16Z</time>
      </trkpt>
      <trkpt lat="47.47598" lon="0.80892">
        <ele>126</ele>
        <time>2023-07-14T08:02:17Z</time>
      </trkpt>
      <trkpt lat="47.47604" lon="0.80893">
        <ele>126.2</ele>
        <time>2023-07-14T08:02:18Z</time>
      </trkpt>
      <trkpt lat="47.47609" lon="0.80895">
        <ele>126.4</ele>
        <time>2023-07-14T08:02:19Z</time>
      </trkpt>
      <trkpt lat="47.47614" lon="0.80896">
        <ele>126.6</ele>
        <time>2023-07-14T08:02:20Z</time>
      </trkpt>
      <trkpt lat="47.4762" lon="0.80898">
        <ele>127</ele>
        <time>2023-07-14T08:02:21Z</time>
      </trkpt>
      <trkpt lat="47.47626" lon="0.80899">
        <ele>127.2</ele>
        <time>2023-07-14T08:02:22Z</time>
      </trkpt>
      <trkpt lat="47.47631" lon="0.80901">
        <ele>127.4</ele>
        <time>2023-07-14T08:02:23Z</time>
      </trkpt>
      <trkpt lat="47.47636" lon="0.80902">
        <ele>127.6</ele>
        <time>2023-07-14T08:02:24Z</time>
      </trkpt>
      <trkpt lat="47.47641" lon="0.80903">
        <ele>128</ele>
        <time>2023-07-14T08:02:25Z</time>
      </trkpt>
      <trkpt lat="47.47647" lon="0.80904">
        <ele>128.2</ele>
        <time>2023-07-14T08:02:26Z</time>
      </trkpt>
      <trkpt lat="47.47652" lon="0.80906">
        <ele>128.4</ele>
        <time>2023-07-14T08:02:27Z</time>
      </trkpt>
      <trkpt lat="47.47659" lon="0.80907">
        <ele>128.6</ele>
        <time>2023-07-14T08:02:28Z</time>
      </trkpt>
      <trkpt lat="47.47663" lon="0.80908">
        <ele>128.8</ele>
        <time>2023-07-14T08:02:29Z</time>
      </trkpt>
      <trkpt lat="47.47669" lon="0.80909">
        <ele>129</ele>
        <time>2023-07-14T08:02:30Z</time>
      </trkpt>
      <trkpt lat="47.47675" lon="0.80911">
        <ele>129.2</ele>
        <time>2023-07-14T08:02:31Z</time>
      </trkpt>
      <trkpt lat="47.4768" lon="0.80912">
        <ele>129.6</ele>
        <time>2023-07-14T08:02:32Z</time>
      </trkpt>
      <trkpt lat="47.47684" lon="0.80913">
        <ele>129.6</ele>
        <time>2023-07-14T08:02:33Z</time>
      </trkpt>
      <trkpt lat="47.47689" lon="0.80915">
        <ele>130</ele>
        <time>2023-07-14T08:02:34Z</time>
      </trkpt>
      <trkpt lat="47.47695" lon="0.80916">
        <ele>130.2</ele>
        <time>2023-07-14T08:02:35Z</time>
      </trkpt>
      <trkpt lat="47.47701" lon="0.80917">
        <ele>130.4</ele>
        <time>2023-07-14T08:02:36Z</time>
      </trkpt>
      <trkpt lat="47.47707" lon="0.80918">
        <ele>130.6</ele>
        <time>2023-07-14T08:02:37Z</time>
      </trkpt>
      <trkpt lat="47.47712" lon="0.80919">
        <ele>130.8</ele>
        <time>2023-07-14T08:02:38Z</time>
      </trkpt>
      <trkpt lat="47.47717" lon="0.8092">
        <ele>131</ele>
        <time>2023-07-14T08:02:39Z</time>
      </trkpt>
      <trkpt lat="47.47722" lon="0.80921">
        <ele>131.2</ele>
        <time>2023-07-14T08:02:40Z</time>
      </trkpt>
      <trkpt lat="47.47728" lon="0.80922">
        <ele>131.4</ele>
        <time>2023-07-14T08:02:41Z</time>
      </trkpt>
      <trkpt lat="47.47733" lon="0.80923">
        <ele>131.6</ele>
        <time>2023-07-14T08:02:42Z</time>
      </trkpt>
      <trkpt lat="47.47739" lon="0.80923">
        <ele>131.8</ele>
        <time>2023-07-14T08:02:43Z</time>
      </trkpt>
      <trkpt lat="47.47744" lon="0.80924">
        <ele>132.2</ele>
        <time>2023-07-14T08:02:44Z</time>
      </trkpt>
      <trkpt lat="47.4775" lon="0.80925">
        <ele>132.2</ele>
        <time>2023-07-14T08:02:45Z</time>
      </trkpt>
      <trkpt lat="47.47756" lon="0.80926">
        <ele>132.4</ele>
        <time>2023-07-14T08:02:46Z</time>
      </trkpt>
      <trkpt lat="47.47761" lon="0.80927">
        <ele>132.8</ele>
        <time>2023-07-14T08:02:47Z</time>
      </trkpt>
      <trkpt lat="47.47766" lon="0.80928">
        <ele>133</ele>
        <time>2023-07-14T08:02:48Z</time>
      </trkpt>
      <trkpt lat="47.47772" lon="0.80929">
        <ele>133.2</ele>
        <time>2023-07-14T08:02:49Z</time>
      </trkpt>
      <trkpt lat="47.47777" lon="0.8093">
        <ele>133.4</ele>
        <time>2023-07-14T08:02:50Z</time>
      </trkpt>
      <trkpt lat="47.47783" lon="0.80931">
        <ele>133.6</ele>
        <time>2023-07-14T08:02:51Z</time>
      </trkpt>
      <trkpt lat="47.47788" lon="0.80932">
        <ele>133.8</ele>
        <time>2023-07-14T08:02:52Z</time>
      </trkpt>
      <trkpt lat="47.47794" lon="0.80933">
        <ele>134</ele>
        <time>2023-07-14T08:02:53Z</time>
      </trkpt>
      <trkpt lat="47.478" lon="0.80934">
        <ele>134.2</ele>
        <time>2023-07-14T08:02:54Z</time>
      </trkpt>
      <trkpt lat="47.47805" lon="0.80935">
        <ele>134.4</ele>
        <time>2023-07-14T08:02:55Z</time>
      </trkpt>
      <trkpt lat="47.47811" lon="0.80936">
        <ele>134.6</ele>
        <time>2023-07-14T08:02:56Z</time>
      </trkpt>
      <trkpt lat="47.47817" lon="0.80937">
        <ele>134.8</ele>
        <time>2023-07-14T08:02:57Z</time>
      </trkpt>
      <trkpt lat="47.47822" lon="0.80938">
        <ele>135</ele>
        <time>2023-07-14T08:02:58Z</time>
      </trkpt>
      <trkpt lat="47.47828" lon="0.80939">
        <ele>135.2</ele>
        <time>2023-07-14T08:02:59Z</time>
      </trkpt>
      <trkpt lat="47.47834" lon="0.8094">
        <ele>135.4</ele>
        <time>2023-07-14T08:03:00Z</time>
      </trkpt>
      <trkpt lat="47.47839" lon="0.80941">
        <ele>135.6</ele>
        <time>2023-07-14T08:03:01Z</time>
      </trkpt>
      <trkpt lat="47.47845" lon="0.80942">
        <ele>135.8</ele>
        <time>2023-07-14T08:03:02Z</time>
      </trkpt>
      <trkpt lat="47.4785" lon="0.80942">
        <ele>135.8</ele>
        <time>2023-07-14T08:03:03Z</time>
      </trkpt>
      <trkpt lat="47.47855" lon="0.80943">
        <ele>136</ele>
        <time>2023-07-14T08:03:04Z</time>
      </trkpt>
      <trkpt lat="47.47861" lon="0.80943">
        <ele>136.2</ele>
        <time>2023-07-14T08:03:05Z</time>
      </trkpt>
      <trkpt lat="47.47868" lon="0.80944">
        <ele>136.4</ele>
        <time>2023-07-14T08:03:06Z</time>
      </trkpt>
      <trkpt lat="47.47873" lon="0.80944">
        <ele>136.4</ele>
        <time>2023-07-14T08:03:07Z</time>
      </trkpt>
      <trkpt lat="47.47879" lon="0.80945">
        <ele>136.6</ele>
        <time>2023-07-14T08:03:08Z</time>
      </trkpt>
      <trkpt lat="47.47885" lon="0.80945">
        <ele>136.8</ele>
        <time>2023-07-14T08:03:09Z</time>
      </trkpt>
      <trkpt lat="47.47891" lon="0.80946">
        <ele>136.8</ele>
        <time>2023-07-14T08:03:10Z</time>
      </trkpt>
      <trkpt lat="47.47897" lon="0.80946">
        <ele>137</ele>
        <time>2023-07-14T08:03:11Z</time>
      </trkpt>
      <trkpt lat="47.47903" lon="0.80947">
        <ele>137.2</ele>
        <time>2023-07-14T08:03:12Z</time>
      </trkpt>
      <trkpt lat="47.47908" lon="0.80947">
        <ele>137.4</ele>
        <time>2023-07-14T08:03:13Z</time>
      </trkpt>
      <trkpt lat="47.47915" lon="0.80947">
        <ele>137.6</ele>
        <time>2023-07-14T08:03:14Z</time>
      </trkpt>
      <trkpt lat="47.4792" lon="0.80947">
        <ele>137.6</ele>
        <time>2023-07-14T08:03:15Z</time>
      </trkpt>
      <trkpt lat="47.47924" lon="0.80947">
        <ele>137.8</ele>
        <time>2023-07-14T08:03:16Z</time>
      </trkpt>
      <trkpt lat="47.4793" lon="0.80947">
        <ele>138</ele>
        <time>2023-07-14T08:03:17Z</time>
      </trkpt>
      <trkpt lat="47.47936" lon="0.80948">
        <ele>138.2</ele>
        <time>2023-07-14T08:03:18Z</time>
      </trkpt>
      <trkpt lat="47.47942" lon="0.80948">
        <ele>138.4</ele>
        <time>2023-07-14T08:03:19Z</time>
      </trkpt>
      <trkpt lat="47.47948" lon="0.80948">
        <ele>138.6</ele>
        <time>2023-07-14T08:03:20Z</time>
      </trkpt>
      <trkpt lat="47.47953" lon="0.80949">
        <ele>138.6</ele>
        <time>2023-07-14T08:03:21Z</time>
      </trkpt>
      <trkpt lat="47.47959" lon="0.80949">
        <ele>138.8</ele>
        <time>2023-07-14T08:03:22Z</time>
      </trkpt>
      <trkpt lat="47.47965" lon="0.80948">
        <ele>139</ele>
        <time>2023-07-14T08:03:23Z</time>
      </trkpt>
      <trkpt lat="47.47971" lon="0.80947">
        <ele>139.2</ele>
        <time>2023-07-14T08:03:24Z</time>
      </trkpt>
      <trkpt lat="47.47977" lon="0.80946">
        <ele>139.2</ele>
        <time>2023-07-14T08:03:25Z</time>
      </trkpt>
      <trkpt lat="47.47982" lon="0.80945">
        <ele>139.4</ele>
        <time>2023-07-14T08:03:26Z</time>
      </trkpt>
      <trkpt lat="47.47989" lon="0.80943">
        <ele>139.6</ele>
        <time>2023-07-14T08:03:27Z</time>
      </trkpt>
      <trkpt lat="47.47995" lon="0.80941">
        <ele>139.6</ele>
        <time>2023-07-14T08:03:28Z</time>
      </trkpt>
      <trkpt lat="47.48001" lon="0.80938">
        <ele>139.8</ele>
        <time>2023-07-14T08:03:29Z</time>
      </trkpt>
      <trkpt lat="47.48007" lon="0.80936">
        <ele>140</ele>
        <time>2023-07-14T08:03:30Z</time>
      </trkpt>
      <trkpt lat="47.48013" lon="0.80933">
        <ele>140</ele>
        <time>2023-07-14T08:03:31Z</time>
      </trkpt>
      <trkpt lat="47.48019" lon="0.80929">
        <ele>140</ele>
        <time>2023-07-14T08:03:32Z</time>
      </trkpt>
      <trkpt lat="47.48025" lon="0.80926">
        <ele>140</ele>
        <time>2023-07-14T08:03:33Z</time>
      </trkpt>
      <trkpt lat="47.48031" lon="0.80922">
        <ele>140</ele>
        <time>2023-07-14T08:03:34Z</time>
      </trkpt>
      <trkpt lat="47.48038" lon="0.80918">
        <ele>140</ele>
        <time>2023-07-14T08:03:35Z</time>
      </trkpt>
      <trkpt lat="47.48044" lon="0.80914">
        <ele>140</ele>
        <time>2023-07-14T08:03:36Z</time>
      </trkpt>
      <trkpt lat="47.48051" lon="0.8091">
        <ele>140</ele>
        <time>2023-07-14T08:03:37Z</time>
      </trkpt>
      <trkpt lat="47.48057" lon="0.80907">
        <ele>140</ele>
        <time>2023-07-14T08:03:38Z</time>
      </trkpt>
      <trkpt lat="47.48063" lon="0.80903">
        <ele>140</ele>
        <time>2023-07-14T08:03:39Z</time>
      </trkpt>
      <trkpt lat="47.4807" lon="0.80899">
        <ele>140</ele>
        <time>2023-07-14T08:03:40Z</time>
      </trkpt>
      <trkpt lat="47.48077" lon="0.80894">
        <ele>140</ele>
        <time>2023-07-14T08:03:41Z</time>
      </trkpt>
      <trkpt lat="47.48083" lon="0.80889">
        <ele>140</ele>
        <time>2023-07-14T08:03:42Z</time>
      </trkpt>
      <trkpt lat="47.48089" lon="0.80884">
        <ele>140</ele>
        <time>2023-07-14T08:03:43Z</time>
      </trkpt>
      <trkpt lat="47.48095" lon="0.80878">
        <ele>140</ele>
        <time>2023-07-14T08:03:44Z</time>
      </trkpt>
      <trkpt lat="47.48101" lon="0.80872">
        <ele>140</ele>
        <time>2023-07-14T08:03:45Z</time>
      </trkpt>
      <trkpt lat="47.48106" lon="0.80864">
        <ele>140.2</ele>
        <time>2023-07-14T08:03:46Z</time>
      </trkpt>
      <trkpt lat="47.48111" lon="0.80857">
        <ele>140.2</ele>
        <time>2023-07-14T08:03:47Z</time>
      </trkpt>
      <trkpt lat="47.48116" lon="0.80849">
        <ele>140.2</ele>
        <time>2023-07-14T08:03:48Z</time>
      </trkpt>
      <trkpt lat="47.4812" lon="0.80841">
        <ele>140.2</ele>
        <time>2023-07-14T08:03:49Z</time>
      </trkpt>
      <trkpt lat="47.48125" lon="0.80834">
        <ele>140.2</ele>
        <time>2023-07-14T08:03:50Z</time>
      </trkpt>
      <trkpt lat="47.4813" lon="0.80825">
        <ele>140.2</ele>
        <time>2023-07-14T08:03:51Z</time>
      </trkpt>
      <trkpt lat="47.48134" lon="0.80817">
        <ele>140.4</ele>
        <time>2023-07-14T08:03:52Z</time>
      </trkpt>
      <trkpt lat="47.48138" lon="0.80809">
        <ele>140.4</ele>
        <time>2023-07-14T08:03:53Z</time>
      </trkpt>
      <trkpt lat="47.48143" lon="0.80801">
        <ele>140.4</ele>
        <time>2023-07-14T08:03:54Z</time>
      </trkpt>
      <trkpt lat="47.48148" lon="0.80792">
        <ele>140.4</ele>
        <time>2023-07-14T08:03:55Z</time>
      </trkpt>
      <trkpt lat="47.48153" lon="0.80784">
        <ele>140.4</ele>
        <time>2023-07-14T08:03:56Z</time>
      </trkpt>
      <trkpt lat="47.48158" lon="0.80776">
        <ele>140.4</ele>
        <time>2023-07-14T08:03:57Z</time>
      </trkpt>
      <trkpt lat="47.48162" lon="0.80769">
        <ele>140.4</ele>
        <time>2023-07-14T08:03:58Z</time>
      </trkpt>
      <trkpt lat="47.48167" lon="0.80761">
        <ele>140.4</ele>
        <time>2023-07-14T08:03:59Z</time>
      </trkpt>
      <trkpt lat="47.48172" lon="0.80753">
        <ele>140.4</ele>
        <time>2023-07-14T08:04:00Z</time>
      </trkpt>
      <trkpt lat="47.48177" lon="0.80745">
        <ele>140.2</ele>
        <time>2023-07-14T08:04:01Z</time>
      </trkpt>
      <trkpt lat="47.48183" lon="0.80737">
        <ele>140.2</ele>
        <time>2023-07-14T08:04:02Z</time>
      </trkpt>
      <trkpt lat="47.48188" lon="0.80729">
        <ele>140.2</ele>
        <time>2023-07-14T08:04:03Z</time>
      </trkpt>
      <trkpt lat="47.48194" lon="0.80721">
        <ele>140.2</ele>
        <time>2023-07-14T08:04:04Z</time>
      </trkpt>
      <trkpt lat="47.482" lon="0.80712">
        <ele>140.2</ele>
        <time>2023-07-14T08:04:05Z</time>
      </trkpt>
      <trkpt lat="47.48206" lon="0.80704">
        <ele>140.2</ele>
        <time>2023-07-14T08:04:06Z</time>
      </trkpt>
      <trkpt lat="47.4821" lon="0.80697">
        <ele>140.2</ele>
        <time>2023-07-14T08:04:07Z</time>
      </trkpt>
      <trkpt lat="47.48215" lon="0.80688">
        <ele>140</ele>
        <time>2023-07-14T08:04:08Z</time>
      </trkpt>
      <trkpt lat="47.48221" lon="0.80681">
        <ele>140</ele>
        <time>2023-07-14T08:04:09Z</time>
      </trkpt>
      <trkpt lat="47.48227" lon="0.80672">
        <ele>140</ele>
        <time>2023-07-14T08:04:10Z</time>
      </trkpt>
      <trkpt lat="47.48233" lon="0.80664">
        <ele>140</ele>
        <time>2023-07-14T08:04:11Z</time>
      </trkpt>
      <trkpt lat="47.4824" lon="0.80655">
        <ele>140</ele>
        <time>2023-07-14T08:04:12Z</time>
      </trkpt>
      <trkpt lat="47.48246" lon="0.80647">
        <ele>140</ele>
        <time>2023-07-14T08:04:13Z</time>
      </trkpt>
      <trkpt lat="47.48251" lon="0.80639">
        <ele>140</ele>
        <time>2023-07-14T08:04:14Z</time>
      </trkpt>
      <trkpt lat="47.48257" lon="0.80631">
        <ele>140</ele>
        <time>2023-07-14T08:04:15Z</time>
      </trkpt>
      <trkpt lat="47.48262" lon="0.80623">
        <ele>140</ele>
        <time>2023-07-14T08:04:16Z</time>
      </trkpt>
      <trkpt lat="47.48268" lon="0.80615">
        <ele>140</ele>
        <time>2023-07-14T08:04:17Z</time>
      </trkpt>
      <trkpt lat="47.48273" lon="0.80607">
        <ele>140</ele>
        <time>2023-07-14T08:04:18Z</time>
      </trkpt>
      <trkpt lat="47.48279" lon="0.80599">
        <ele>140.2</ele>
        <time>2023-07-14T08:04:19Z</time>
      </trkpt>
      <trkpt lat="47.48285" lon="0.80592">
        <ele>140.2</ele>
        <time>2023-07-14T08:04:20Z</time>
      </trkpt>
      <trkpt lat="47.4829" lon="0.80584">
        <ele>140.2</ele>
        <time>2023-07-14T08:04:21Z</time>
      </trkpt>
      <trkpt lat="47.48294" lon="0.80577">
        <ele>140.4</ele>
        <time>2023-07-14T08:04:22Z</time>
      </trkpt>
      <trkpt lat="47.48299" lon="0.8057">
        <ele>140.4</ele>
        <time>2023-07-14T08:04:23Z</time>
      </trkpt>
      <trkpt lat="47.48306" lon="0.80563">
        <ele>140.6</ele>
        <time>2023-07-14T08:04:24Z</time>
      </trkpt>
      <trkpt lat="47.48312" lon="0.80557">
        <ele>140.6</ele>
        <time>2023-07-14T08:04:25Z</time>
      </trkpt>
      <trkpt lat="47.48318" lon="0.80551">
        <ele>140.6</ele>
        <time>2023-07-14T08:04:26Z</time>
      </trkpt>
      <trkpt lat="47.48325" lon="0.80547">
        <ele>140.6</ele>
        <time>2023-07-14T08:04:27Z</time>
      </trkpt>
      <trkpt lat="47.48331" lon="0.80542">
        <ele>140.8</ele>
        <time>2023-07-14T08:04:28Z</time>
      </trkpt>
      <trkpt lat="47.48338" lon="0.80538">
        <ele>140.8</ele>
        <time>2023-07-14T08:04:29Z</time>
      </trkpt>
      <trkpt lat="47.48346" lon="0.80535">
        <ele>140.8</ele>
        <time>2023-07-14T08:04:30Z</time>
      </trkpt>
      <trkpt lat="47.48352" lon="0.80533">
        <ele>141</ele>
        <time>2023-07-14T08:04:31Z</time>
      </trkpt>
      <trkpt lat="47.4836" lon="0.8053">
        <ele>141</ele>
        <time>2023-07-14T08:04:32Z</time>
      </trkpt>
      <trkpt lat="47.48368" lon="0.80528">
        <ele>141.2</ele>
        <time>2023-07-14T08:04:33Z</time>
      </trkpt>
      <trkpt lat="47.48376" lon="0.80527">
        <ele>141.2</ele>
        <time>2023-07-14T08:04:34Z</time>
      </trkpt>
      <trkpt lat="47.48383" lon="0.80526">
        <ele>141.2</ele>
        <time>2023-07-14T08:04:35Z</time>
      </trkpt>
      <trkpt lat="47.48389" lon="0.80526">
        <ele>141.4</ele>
        <time>2023-07-14T08:04:36Z</time>
      </trkpt>
      <trkpt lat="47.48396" lon="0.80526">
        <ele>141.4</ele>
        <time>2023-07-14T08:04:37Z</time>
      </trkpt>
      <trkpt lat="47.48404" lon="0.80526">
        <ele>141.4</ele>
        <time>2023-07-14T08:04:38Z</time>
      </trkpt>
      <trkpt lat="47.48412" lon="0.80526">
        <ele>141.4</ele>
        <time>2023-07-14T08:04:39Z</time>
      </trkpt>
      <trkpt lat="47.48418" lon="0.80527">
        <ele>141.4</ele>
        <time>2023-07-14T08:04:40Z</time>
      </trkpt>
      <trkpt lat="47.48426" lon="0.80528">
        <ele>141.6</ele>
        <time>2023-07-14T08:04:41Z</time>
      </trkpt>
      <trkpt lat="47.48434" lon="0.80529">
        <ele>141.6</ele>
        <time>2023-07-14T08:04:42Z</time>
      </trkpt>
      <trkpt lat="47.48442" lon="0.8053">
        <ele>141.6</ele>
        <time>2023-07-14T08:04:43Z</time>
      </trkpt>
      <trkpt lat="47.48449" lon="0.80532">
        <ele>141.6</ele>
        <time>2023-07-14T08:04:44Z</time>
      </trkpt>
      <trkpt lat="47.48455" lon="0.80534">
        <ele>141.6</ele>
        <time>2023-07-14T08:04:45Z</time>
      </trkpt>
      <trkpt lat="47.48462" lon="0.80536">
        <ele>141.8</ele>
        <time>2023-07-14T08:04:46Z</time>
      </trkpt>
      <trkpt lat="47.4847" lon="0.80539">
        <ele>141.8</ele>
        <time>2023-07-14T08:04:47Z</time>
      </trkpt>
      <trkpt lat="47.48476" lon="0.80541">
        <ele>141.8</ele>
        <time>2023-07-14T08:04:48Z</time>
      </trkpt>
      <trkpt lat="47.48483" lon="0.80543">
        <ele>142</ele>
        <time>2023-07-14T08:04:49Z</time>
      </trkpt>
      <trkpt lat="47.4849" lon="0.80544">
        <ele>142</ele>
        <time>2023-07-14T08:04:50Z</time>
      </trkpt>
      <trkpt lat="47.48497" lon="0.80546">
        <ele>142</ele>
        <time>2023-07-14T08:04:51Z</time>
      </trkpt>
      <trkpt lat="47.48505" lon="0.80548">
        <ele>142.2</ele>
        <time>2023-07-14T08:04:52Z</time>
      </trkpt>
      <trkpt lat="47.48512" lon="0.80549">
        <ele>142.2</ele>
        <time>2023-07-14T08:04:53Z</time>
      </trkpt>
      <trkpt lat="47.48519" lon="0.80549">
        <ele>142.4</ele>
        <time>2023-07-14T08:04:54Z</time>
      </trkpt>
      <trkpt lat="47.48525" lon="0.8055">
        <ele>142.4</ele>
        <time>2023-07-14T08:04:55Z</time>
      </trkpt>
      <trkpt lat="47.48531" lon="0.8055">
        <ele>142.6</ele>
        <time>2023-07-14T08:04:56Z</time>
      </trkpt>
      <trkpt lat="47.48539" lon="0.80549">
        <ele>143</ele>
        <time>2023-07-14T08:04:57Z</time>
      </trkpt>
      <trkpt lat="47.48545" lon="0.80549">
        <ele>143.2</ele>
        <time>2023-07-14T08:04:58Z</time>
      </trkpt>
      <trkpt lat="47.4855" lon="0.80548">
        <ele>143.4</ele>
        <time>2023-07-14T08:04:59Z</time>
      </trkpt>
      <trkpt lat="47.48558" lon="0.80546">
        <ele>143.6</ele>
        <time>2023-07-14T08:05:00Z</time>
      </trkpt>
      <trkpt lat="47.48565" lon="0.80544">
        <ele>144</ele>
        <time>2023-07-14T08:05:01Z</time>
      </trkpt>
      <trkpt lat="47.48572" lon="0.80542">
        <ele>144.2</ele>
        <time>2023-07-14T08:05:02Z</time>
      </trkpt>
      <trkpt lat="47.48578" lon="0.8054">
        <ele>144.4</ele>
        <time>2023-07-14T08:05:03Z</time>
      </trkpt>
      <trkpt lat="47.48584" lon="0.80539">
        <ele>144.8</ele>
        <time>2023-07-14T08:05:04Z</time>
      </trkpt>
      <trkpt lat="47.4859" lon="0.80536">
        <ele>145</ele>
        <time>2023-07-14T08:05:05Z</time>
      </trkpt>
      <trkpt lat="47.48597" lon="0.80533">
        <ele>145.2</ele>
        <time>2023-07-14T08:05:06Z</time>
      </trkpt>
      <trkpt lat="47.48605" lon="0.80529">
        <ele>145.4</ele>
        <time>2023-07-14T08:05:07Z</time>
      </trkpt>
      <trkpt lat="47.48611" lon="0.80526">
        <ele>145.6</ele>
        <time>2023-07-14T08:05:08Z</time>
      </trkpt>
      <trkpt lat="47.48616" lon="0.80522">
        <ele>145.8</ele>
        <time>2023-07-14T08:05:09Z</time>
      </trkpt>
      <trkpt lat="47.48622" lon="0.80519">
        <ele>146</ele>
        <time>2023-07-14T08:05:10Z</time>
      </trkpt>
      <trkpt lat="47.48629" lon="0.80515">
        <ele>146</ele>
        <time>2023-07-14T08:05:11Z</time>
      </trkpt>
      <trkpt lat="47.48635" lon="0.80511">
        <ele>146.2</ele>
        <time>2023-07-14T08:05:12Z</time>
      </trkpt>
      <trkpt lat="47.48641" lon="0.80508">
        <ele>146.2</ele>
        <time>2023-07-14T08:05:13Z</time>
      </trkpt>
      <trkpt lat="47.48648" lon="0.80504">
        <ele>146.2</ele>
        <time>2023-07-14T08:05:14Z</time>
      </trkpt>
      <trkpt lat="47.48655" lon="0.80499">
        <ele>146.2</ele>
        <time>2023-07-14T08:05:15Z</time>
      </trkpt>
      <trkpt lat="47.48661" lon="0.80496">
        <ele>146.2</ele>
        <time>2023-07-14T08:05:16Z</time>
      </trkpt>
      <trkpt lat="47.48668" lon="0.80492">
        <ele>146.4</ele>
        <time>2023-07-14T08:05:17Z</time>
      </trkpt>
      <trkpt lat="47.48674" lon="0.80488">
        <ele>146.4</ele>
        <time>2023-07-14T08:05:18Z</time>
      </trkpt>
      <trkpt lat="47.48682" lon="0.80483">
        <ele>146.2</ele>
        <time>2023-07-14T08:05:19Z</time>
      </trkpt>
      <trkpt lat="47.48689" lon="0.80479">
        <ele>146</ele>
        <time>2023-07-14T08:05:20Z</time>
      </trkpt>
      <trkpt lat="47.48697" lon="0.80474">
        <ele>146</ele>
        <time>2023-07-14T08:05:21Z</time>
      </trkpt>
      <trkpt lat="47.48705" lon="0.8047">
        <ele>145.8</ele>
        <time>2023-07-14T08:05:22Z</time>
      </trkpt>
      <trkpt lat="47.48713" lon="0.80466">
        <ele>145.4</ele>
        <time>2023-07-14T08:05:23Z</time>
      </trkpt>
      <trkpt lat="47.48721" lon="0.80462">
        <ele>145.2</ele>
        <time>2023-07-14T08:05:24Z</time>
      </trkpt>
      <trkpt lat="47.4873" lon="0.80457">
        <ele>145</ele>
        <time>2023-07-14T08:05:25Z</time>
      </trkpt>
      <trkpt lat="47.48738" lon="0.80453">
        <ele>144.8</ele>
        <time>2023-07-14T08:05:26Z</time>
      </trkpt>
      <trkpt lat="47.48747" lon="0.8045">
        <ele>144.4</ele>
        <time>2023-07-14T08:05:27Z</time>
      </trkpt>
      <trkpt lat="47.48756" lon="0.80446">
        <ele>144.2</ele>
        <time>2023-07-14T08:05:28Z</time>
      </trkpt>
      <trkpt lat="47.48766" lon="0.80442">
        <ele>144</ele>
        <time>2023-07-14T08:05:29Z</time>
      </trkpt>
      <trkpt lat="47.48776" lon="0.80439">
        <ele>144</ele>
        <time>2023-07-14T08:05:30Z</time>
      </trkpt>
      <trkpt lat="47.48785" lon="0.80435">
        <ele>143.8</ele>
        <time>2023-07-14T08:05:31Z</time>
      </trkpt>
      <trkpt lat="47.48794" lon="0.80432">
        <ele>143.8</ele>
        <time>2023-07-14T08:05:32Z</time>
      </trkpt>
      <trkpt lat="47.48804" lon="0.80428">
        <ele>143.8</ele>
        <time>2023-07-14T08:05:33Z</time>
      </trkpt>
      <trkpt lat="47.48813" lon="0.80425">
        <ele>143.6</ele>
        <time>2023-07-14T08:05:34Z</time>
      </trkpt>
      <trkpt lat="47.48821" lon="0.80422">
        <ele>143.6</ele>
        <time>2023-07-14T08:05:35Z</time>
      </trkpt>
      <trkpt lat="47.4883" lon="0.80419">
        <ele>143.4</ele>
        <time>2023-07-14T08:05:36Z</time>
      </trkpt>
      <trkpt lat="47.48839" lon="0.80416">
        <ele>143.2</ele>
        <time>2023-07-14T08:05:37Z</time>
      </trkpt>
      <trkpt lat="47.48848" lon="0.80413">
        <ele>143.2</ele>
        <time>2023-07-14T08:05:38Z</time>
      </trkpt>
      <trkpt lat="47.48859" lon="0.80409">
        <ele>143.2</ele>
        <time>2023-07-14T08:05:39Z</time>
      </trkpt>
      <trkpt lat="47.48867" lon="0.80406">
        <ele>143</ele>
        <time>2023-07-14T08:05:40Z</time>
      </trkpt>
      <trkpt lat="47.48875" lon="0.80403">
        <ele>143</ele>
        <time>2023-07-14T08:05:41Z</time>
      </trkpt>
      <trkpt lat="47.48885" lon="0.80399">
        <ele>142.8</ele>
        <time>2023-07-14T08:05:42Z</time>
      </trkpt>
      <trkpt lat="47.48894" lon="0.80395">
        <ele>142.6</ele>
        <time>2023-07-14T08:05:43Z</time>
      </trkpt>
      <trkpt lat="47.48902" lon="0.80392">
        <ele>142.6</ele>
        <time>2023-07-14T08:05:44Z</time>
      </trkpt>
      <trkpt lat="47.48911" lon="0.80389">
        <ele>142.4</ele>
        <time>2023-07-14T08:05:45Z</time>
      </trkpt>
      <trkpt lat="47.4892" lon="0.80386">
        <ele>142.2</ele>
        <time>2023-07-14T08:05:46Z</time>
      </trkpt>
      <trkpt lat="47.48929" lon="0.80382">
        <ele>142.2</ele>
        <time>2023-07-14T08:05:47Z</time>
      </trkpt>
      <trkpt lat="47.48939" lon="0.80379">
        <ele>142</ele>
        <time>2023-07-14T08:05:48Z</time>
      </trkpt>
      <trkpt lat="47.48949" lon="0.80375">
        <ele>142</ele>
        <time>2023-07-14T08:05:49Z</time>
      </trkpt>
      <trkpt lat="47.48957" lon="0.80372">
        <ele>142</ele>
        <time>2023-07-14T08:05:50Z</time>
      </trkpt>
      <trkpt lat="47.48967" lon="0.80369">
        <ele>142</ele>
        <time>2023-07-14T08:05:51Z</time>
      </trkpt>
      <trkpt lat="47.48976" lon="0.80366">
        <ele>142</ele>
        <time>2023-07-14T08:05:52Z</time>
      </trkpt>
      <trkpt lat="47.48986" lon="0.80362">
        <ele>141.8</ele>
        <time>2023-07-14T08:05:53Z</time>
      </trkpt>
      <trkpt lat="47.48996" lon="0.80359">
        <ele>141.6</ele>
        <time>2023-07-14T08:05:54Z</time>
      </trkpt>
      <trkpt lat="47.49004" lon="0.80356">
        <ele>141.6</ele>
        <time>2023-07-14T08:05:55Z</time>
      </trkpt>
      <trkpt lat="47.49014" lon="0.80352">
        <ele>141.4</ele>
        <time>2023-07-14T08:05:56Z</time>
      </trkpt>
      <trkpt lat="47.49023" lon="0.80349">
        <ele>141.4</ele>
        <time>2023-07-14T08:05:57Z</time>
      </trkpt>
      <trkpt lat="47.49031" lon="0.80345">
        <ele>141.2</ele>
        <time>2023-07-14T08:05:58Z</time>
      </trkpt>
      <trkpt lat="47.4904" lon="0.80342">
        <ele>141.2</ele>
        <time>2023-07-14T08:05:59Z</time>
      </trkpt>
      <trkpt lat="47.49049" lon="0.80338">
        <ele>141.2</ele>
        <time>2023-07-14T08:06:00Z</time>
      </trkpt>
      <trkpt lat="47.49059" lon="0.80335">
        <ele>141</ele>
        <time>2023-07-14T08:06:01Z</time>
      </trkpt>
      <trkpt lat="47.49068" lon="0.80332">
        <ele>140.8</ele>
        <time>2023-07-14T08:06:02Z</time>
      </trkpt>
      <trkpt lat="47.49077" lon="0.80328">
        <ele>140.8</ele>
        <time>2023-07-14T08:06:03Z</time>
      </trkpt>
      <trkpt lat="47.49087" lon="0.80325">
        <ele>140.8</ele>
        <time>2023-07-14T08:06:04Z</time>
      </trkpt>
      <trkpt lat="47.49096" lon="0.80321">
        <ele>140.8</ele>
        <time>2023-07-14T08:06:05Z</time>
      </trkpt>
      <trkpt lat="47.49105" lon="0.80318">
        <ele>140.8</ele>
        <time>2023-07-14T08:06:06Z</time>
      </trkpt>
      <trkpt lat="47.49114" lon="0.80315">
        <ele>140.8</ele>
        <time>2023-07-14T08:06:07Z</time>
      </trkpt>
      <trkpt lat="47.49123" lon="0.80312">
        <ele>140.8</ele>
        <time>2023-07-14T08:06:08Z</time>
      </trkpt>
      <trkpt lat="47.49132" lon="0.80308">
        <ele>140.8</ele>
        <time>2023-07-14T08:06:09Z</time>
      </trkpt>
      <trkpt lat="47.49141" lon="0.80305">
        <ele>140.8</ele>
        <time>2023-07-14T08:06:10Z</time>
      </trkpt>
      <trkpt lat="47.49149" lon="0.80302">
        <ele>140.8</ele>
        <time>2023-07-14T08:06:11Z</time>
      </trkpt>
      <trkpt lat="47.49158" lon="0.80299">
        <ele>140.6</ele>
        <time>2023-07-14T08:06:12Z</time>
      </trkpt>
      <trkpt lat="47.49167" lon="0.80296">
        <ele>140.4</ele>
        <time>2023-07-14T08:06:13Z</time>
      </trkpt>
      <trkpt lat="47.49176" lon="0.80293">
        <ele>140.4</ele>
        <time>2023-07-14T08:06:14Z</time>
      </trkpt>
      <trkpt lat="47.49185" lon="0.80292">
        <ele>140.4</ele>
        <time>2023-07-14T08:06:15Z</time>
      </trkpt>
      <trkpt lat="47.49193" lon="0.80291">
        <ele>140.6</ele>
        <time>2023-07-14T08:06:16Z</time>
      </trkpt>
      <trkpt lat="47.49202" lon="0.80292">
        <ele>140.6</ele>
        <time>2023-07-14T08:06:17Z</time>
      </trkpt>
      <trkpt lat="47.49211" lon="0.80292">
        <ele>140.8</ele>
        <time>2023-07-14T08:06:18Z</time>
      </trkpt>
      <trkpt lat="47.4922" lon="0.80292">
        <ele>140.8</ele>
        <time>2023-07-14T08:06:19Z</time>
      </trkpt>
      <trkpt lat="47.49228" lon="0.80292">
        <ele>141</ele>
        <time>2023-07-14T08:06:20Z</time>
      </trkpt>
      <trkpt lat="47.49236" lon="0.80293">
        <ele>141</ele>
        <time>2023-07-14T08:06:21Z</time>
      </trkpt>
      <trkpt lat="47.49245" lon="0.80294">
        <ele>141</ele>
        <time>2023-07-14T08:06:22Z</time>
      </trkpt>
      <trkpt lat="47.49253" lon="0.80294">
        <ele>141.2</ele>
        <time>2023-07-14T08:06:23Z</time>
      </trkpt>
      <trkpt lat="47.49262" lon="0.80295">
        <ele>141.4</ele>
        <time>2023-07-14T08:06:24Z</time>
      </trkpt>
      <trkpt lat="47.49271" lon="0.80295">
        <ele>141.6</ele>
        <time>2023-07-14T08:06:25Z</time>
      </trkpt>
      <trkpt lat="47.49279" lon="0.80296">
        <ele>141.8</ele>
        <time>2023-07-14T08:06:26Z</time>
      </trkpt>
      <trkpt lat="47.49288" lon="0.80297">
        <ele>142</ele>
        <time>2023-07-14T08:06:27Z</time>
      </trkpt>
      <trkpt lat="47.49296" lon="0.80297">
        <ele>142.2</ele>
        <time>2023-07-14T08:06:28Z</time>
      </trkpt>
      <trkpt lat="47.49305" lon="0.80298">
        <ele>142.2</ele>
        <time>2023-07-14T08:06:29Z</time>
      </trkpt>
      <trkpt lat="47.49313" lon="0.80298">
        <ele>142.4</ele>
        <time>2023-07-14T08:06:30Z</time>
      </trkpt>
      <trkpt lat="47.49322" lon="0.80299">
        <ele>142.4</ele>
        <time>2023-07-14T08:06:31Z</time>
      </trkpt>
      <trkpt lat="47.49329" lon="0.80299">
        <ele>142.6</ele>
        <time>2023-07-14T08:06:32Z</time>
      </trkpt>
      <trkpt lat="47.49337" lon="0.803">
        <ele>142.6</ele>
        <time>2023-07-14T08:06:33Z</time>
      </trkpt>
      <trkpt lat="47.49345" lon="0.803">
        <ele>142.8</ele>
        <time>2023-07-14T08:06:34Z</time>
      </trkpt>
      <trkpt lat="47.49353" lon="0.80301">
        <ele>143</ele>
        <time>2023-07-14T08:06:35Z</time>
      </trkpt>
      <trkpt lat="47.49361" lon="0.80302">
        <ele>143.2</ele>
        <time>2023-07-14T08:06:36Z</time>
      </trkpt>
      <trkpt lat="47.49369" lon="0.80302">
        <ele>143.2</ele>
        <time>2023-07-14T08:06:37Z</time>
      </trkpt>
      <trkpt lat="47.49377" lon="0.80303">
        <ele>143.4</ele>
        <time>2023-07-14T08:06:38Z</time>
      </trkpt>
      <trkpt lat="47.49385" lon="0.80303">
        <ele>143.6</ele>
        <time>2023-07-14T08:06:39Z</time>
      </trkpt>
      <trkpt lat="47.49392" lon="0.80303">
        <ele>143.6</ele>
        <time>2023-07-14T08:06:40Z</time>
      </trkpt>
      <trkpt lat="47.49401" lon="0.80302">
        <ele>143.6</ele>
        <time>2023-07-14T08:06:41Z</time>
      </trkpt>
      <trkpt lat="47.49408" lon="0.803">
        <ele>143.8</ele>
        <time>2023-07-14T08:06:42Z</time>
      </trkpt>
      <trkpt lat="47.49414" lon="0.80297">
        <ele>143.8</ele>
        <time>2023-07-14T08:06:43Z</time>
      </trkpt>
      <trkpt lat="47.49422" lon="0.80292">
        <ele>144</ele>
        <time>2023-07-14T08:06:44Z</time>
      </trkpt>
      <trkpt lat="47.49428" lon="0.80286">
        <ele>144</ele>
        <time>2023-07-14T08:06:45Z</time>
      </trkpt>
      <trkpt lat="47.49433" lon="0.8028">
        <ele>144.2</ele>
        <time>2023-07-14T08:06:46Z</time>
      </trkpt>
      <trkpt lat="47.49437" lon="0.80271">
        <ele>144.4</ele>
        <time>2023-07-14T08:06:47Z</time>
      </trkpt>
      <trkpt lat="47.49442" lon="0.80262">
        <ele>144.6</ele>
        <time>2023-07-14T08:06:48Z</time>
      </trkpt>
      <trkpt lat="47.49446" lon="0.80253">
        <ele>144.6</ele>
        <time>2023-07-14T08:06:49Z</time>
      </trkpt>
      <trkpt lat="47.49451" lon="0.80244">
        <ele>144.8</ele>
        <time>2023-07-14T08:06:50Z</time>
      </trkpt>
      <trkpt lat="47.49456" lon="0.80236">
        <ele>145</ele>
        <time>2023-07-14T08:06:51Z</time>
      </trkpt>
      <trkpt lat="47.49461" lon="0.80228">
        <ele>145</ele>
        <time>2023-07-14T08:06:52Z</time>
      </trkpt>
      <trkpt lat="47.49466" lon="0.80221">
        <ele>145.2</ele>
        <time>2023-07-14T08:06:53Z</time>
      </trkpt>
      <trkpt lat="47.49472" lon="0.80214">
        <ele>145.2</ele>
        <time>2023-07-14T08:06:54Z</time>
      </trkpt>
      <trkpt lat="47.49479" lon="0.80208">
        <ele>145.4</ele>
        <time>2023-07-14T08:06:55Z</time>
      </trkpt>
      <trkpt lat="47.49485" lon="0.80203">
        <ele>145.4</ele>
        <time>2023-07-14T08:06:56Z</time>
      </trkpt>
      <trkpt lat="47.4949" lon="0.80199">
        <ele>145.6</ele>
        <time>2023-07-14T08:06:57Z</time>
      </trkpt>
      <trkpt lat="47.49497" lon="0.80195">
        <ele>145.6</ele>
        <time>2023-07-14T08:06:58Z</time>
      </trkpt>
      <trkpt lat="47.49504" lon="0.8019">
        <ele>145.8</ele>
        <time>2023-07-14T08:06:59Z</time>
      </trkpt>
      <trkpt lat="47.49511" lon="0.80185">
        <ele>145.8</ele>
        <time>2023-07-14T08:07:00Z</time>
      </trkpt>
      <trkpt lat="47.49517" lon="0.80181">
        <ele>146</ele>
        <time>2023-07-14T08:07:01Z</time>
      </trkpt>
      <trkpt lat="47.49524" lon="0.80177">
        <ele>146</ele>
        <time>2023-07-14T08:07:02Z</time>
      </trkpt>
      <trkpt lat="47.49532" lon="0.80172">
        <ele>146.2</ele>
        <time>2023-07-14T08:07:03Z</time>
      </trkpt>
      <trkpt lat="47.49539" lon="0.80168">
        <ele>146.4</ele>
        <time>2023-07-14T08:07:04Z</time>
      </trkpt>
      <trkpt lat="47.49546" lon="0.80164">
        <ele>146.4</ele>
        <time>2023-07-14T08:07:05Z</time>
      </trkpt>
      <trkpt lat="47.49552" lon="0.80162">
        <ele>146.6</ele>
        <time>2023-07-14T08:07:06Z</time>
      </trkpt>
      <trkpt lat="47.49559" lon="0.80159">
        <ele>146.6</ele>
        <time>2023-07-14T08:07:07Z</time>
      </trkpt>
      <trkpt lat="47.49567" lon="0.80158">
        <ele>146.6</ele>
        <time>2023-07-14T08:07:08Z</time>
      </trkpt>
      <trkpt lat="47.49574" lon="0.80156">
        <ele>146.6</ele>
        <time>2023-07-14T08:07:09Z</time>
      </trkpt>
      <trkpt lat="47.49582" lon="0.80154">
        <ele>146.6</ele>
        <time>2023-07-14T08:07:10Z</time>
      </trkpt>
      <trkpt lat="47.4959" lon="0.80152">
        <ele>146.6</ele>
        <time>2023-07-14T08:07:11Z</time>
      </trkpt>
      <trkpt lat="47.49598" lon="0.8015">
        <ele>146.6</ele>
        <time>2023-07-14T08:07:12Z</time>
      </trkpt>
      <trkpt lat="47.49606" lon="0.80148">
        <ele>146.4</ele>
        <time>2023-07-14T08:07:13Z</time>
      </trkpt>
      <trkpt lat="47.49612" lon="0.80147">
        <ele>146.2</ele>
        <time>2023-07-14T08:07:14Z</time>
      </trkpt>
      <trkpt lat="47.49618" lon="0.80145">
        <ele>146</ele>
        <time>2023-07-14T08:07:15Z</time>
      </trkpt>
      <trkpt lat="47.49623" lon="0.80143">
        <ele>145.8</ele>
        <time>2023-07-14T08:07:16Z</time>
      </trkpt>
      <trkpt lat="47.49629" lon="0.80138">
        <ele>145.8</ele>
        <time>2023-07-14T08:07:17Z</time>
      </trkpt>
      <trkpt lat="47.49634" lon="0.8013">
        <ele>145.6</ele>
        <time>2023-07-14T08:07:18Z</time>
      </trkpt>
      <trkpt lat="47.49638" lon="0.80123">
        <ele>145.8</ele>
        <time>2023-07-14T08:07:19Z</time>
      </trkpt>
      <trkpt lat="47.49641" lon="0.80114">
        <ele>145.8</ele>
        <time>2023-07-14T08:07:20Z</time>
      </trkpt>
      <trkpt lat="47.49644" lon="0.80103">
        <ele>145.8</ele>
        <time>2023-07-14T08:07:21Z</time>
      </trkpt>
      <trkpt lat="47.49647" lon="0.80092">
        <ele>145.8</ele>
        <time>2023-07-14T08:07:22Z</time>
      </trkpt>
      <trkpt lat="47.4965" lon="0.80083">
        <ele>145.6</ele>
        <time>2023-07-14T08:07:23Z</time>
      </trkpt>
      <trkpt lat="47.49653" lon="0.80074">
        <ele>145.6</ele>
        <time>2023-07-14T08:07:24Z</time>
      </trkpt>
      <trkpt lat="47.49656" lon="0.80064">
        <ele>145.4</ele>
        <time>2023-07-14T08:07:25Z</time>
      </trkpt>
      <trkpt lat="47.49659" lon="0.80054">
        <ele>145.4</ele>
        <time>2023-07-14T08:07:26Z</time>
      </trkpt>
      <trkpt lat="47.49662" lon="0.80043">
        <ele>145.4</ele>
        <time>2023-07-14T08:07:27Z</time>
      </trkpt>
      <trkpt lat="47.49665" lon="0.80033">
        <ele>145.4</ele>
        <time>2023-07-14T08:07:28Z</time>
      </trkpt>
      <trkpt lat="47.49668" lon="0.80024">
        <ele>145.4</ele>
        <time>2023-07-14T08:07:29Z</time>
      </trkpt>
      <trkpt lat="47.49672" lon="0.80014">
        <ele>145.4</ele>
        <time>2023-07-14T08:07:30Z</time>
      </trkpt>
      <trkpt lat="47.49675" lon="0.80004">
        <ele>145.4</ele>
        <time>2023-07-14T08:07:31Z</time>
      </trkpt>
      <trkpt lat="47.49679" lon="0.79994">
        <ele>145.4</ele>
        <time>2023-07-14T08:07:32Z</time>
      </trkpt>
      <trkpt lat="47.49682" lon="0.79984">
        <ele>145.2</ele>
        <time>2023-07-14T08:07:33Z</time>
      </trkpt>
      <trkpt lat="47.49686" lon="0.79973">
        <ele>145.2</ele>
        <time>2023-07-14T08:07:34Z</time>
      </trkpt>
      <trkpt lat="47.49689" lon="0.79962">
        <ele>145.2</ele>
        <time>2023-07-14T08:07:35Z</time>
      </trkpt>
      <trkpt lat="47.49692" lon="0.79952">
        <ele>145</ele>
        <time>2023-07-14T08:07:36Z</time>
      </trkpt>
      <trkpt lat="47.49695" lon="0.79942">
        <ele>144.8</ele>
        <time>2023-07-14T08:07:37Z</time>
      </trkpt>
      <trkpt lat="47.49698" lon="0.79932">
        <ele>144.4</ele>
        <time>2023-07-14T08:07:38Z</time>
      </trkpt>
      <trkpt lat="47.49701" lon="0.79923">
        <ele>144.2</ele>
        <time>2023-07-14T08:07:39Z</time>
      </trkpt>
      <trkpt lat="47.49704" lon="0.79915">
        <ele>144</ele>
        <time>2023-07-14T08:07:40Z</time>
      </trkpt>
      <trkpt lat="47.49706" lon="0.79909">
        <ele>143.8</ele>
        <time>2023-07-14T08:07:41Z</time>
      </trkpt>
      <trkpt lat="47.49708" lon="0.79904">
        <ele>143.8</ele>
        <time>2023-07-14T08:07:42Z</time>
      </trkpt>
      <trkpt lat="47.4971" lon="0.79899">
        <ele>143.6</ele>
        <time>2023-07-14T08:07:43Z</time>
      </trkpt>
      <trkpt lat="47.49712" lon="0.79894">
        <ele>143.8</ele>
        <time>2023-07-14T08:07:44Z</time>
      </trkpt>
      <trkpt lat="47.49714" lon="0.79887">
        <ele>143.6</ele>
        <time>2023-07-14T08:07:45Z</time>
      </trkpt>
      <trkpt lat="47.49716" lon="0.79879">
        <ele>143.6</ele>
        <time>2023-07-14T08:07:46Z</time>
      </trkpt>
      <trkpt lat="47.49718" lon="0.79871">
        <ele>143.4</ele>
        <time>2023-07-14T08:07:47Z</time>
      </trkpt>
      <trkpt lat="47.49721" lon="0.79862">
        <ele>143.4</ele>
        <time>2023-07-14T08:07:48Z</time>
      </trkpt>
      <trkpt lat="47.49724" lon="0.79852">
        <ele>143.4</ele>
        <time>2023-07-14T08:07:49Z</time>
      </trkpt>
      <trkpt lat="47.49726" lon="0.79844">
        <ele>143.4</ele>
        <time>2023-07-14T08:07:50Z</time>
      </trkpt>
      <trkpt lat="47.4973" lon="0.79834">
        <ele>143.4</ele>
        <time>2023-07-14T08:07:51Z</time>
      </trkpt>
      <trkpt lat="47.49733" lon="0.79824">
        <ele>143.4</ele>
        <time>2023-07-14T08:07:52Z</time>
      </trkpt>
      <trkpt lat="47.49736" lon="0.79814">
        <ele>143.6</ele>
        <time>2023-07-14T08:07:53Z</time>
      </trkpt>
      <trkpt lat="47.49741" lon="0.79804">
        <ele>143.6</ele>
        <time>2023-07-14T08:07:54Z</time>
      </trkpt>
      <trkpt lat="47.49744" lon="0.79794">
        <ele>143.6</ele>
        <time>2023-07-14T08:07:55Z</time>
      </trkpt>
      <trkpt lat="47.49747" lon="0.79784">
        <ele>143.4</ele>
        <time>2023-07-14T08:07:56Z</time>
      </trkpt>
      <trkpt lat="47.49751" lon="0.79773">
        <ele>143.2</ele>
        <time>2023-07-14T08:07:57Z</time>
      </trkpt>
      <trkpt lat="47.49754" lon="0.79763">
        <ele>143.4</ele>
        <time>2023-07-14T08:07:58Z</time>
      </trkpt>
      <trkpt lat="47.49758" lon="0.79753">
        <ele>143.2</ele>
        <time>2023-07-14T08:07:59Z</time>
      </trkpt>
      <trkpt lat="47.49761" lon="0.79742">
        <ele>143</ele>
        <time>2023-07-14T08:08:00Z</time>
      </trkpt>
      <trkpt lat="47.49765" lon="0.7973">
        <ele>143</ele>
        <time>2023-07-14T08:08:01Z</time>
      </trkpt>
      <trkpt lat="47.49769" lon="0.79719">
        <ele>142.8</ele>
        <time>2023-07-14T08:08:02Z</time>
      </trkpt>
      <trkpt lat="47.49772" lon="0.79709">
        <ele>142.8</ele>
        <time>2023-07-14T08:08:03Z</time>
      </trkpt>
      <trkpt lat="47.49775" lon="0.797">
        <ele>142.8</ele>
        <time>2023-07-14T08:08:04Z</time>
      </trkpt>
      <trkpt lat="47.49779" lon="0.79688">
        <ele>143</ele>
        <time>2023-07-14T08:08:05Z</time>
      </trkpt>
      <trkpt lat="47.49783" lon="0.79678">
        <ele>143</ele>
        <time>2023-07-14T08:08:06Z</time>
      </trkpt>
      <trkpt lat="47.49786" lon="0.79668">
        <ele>143.2</ele>
        <time>2023-07-14T08:08:07Z</time>
      </trkpt>
      <trkpt lat="47.4979" lon="0.79658">
        <ele>143.2</ele>
        <time>2023-07-14T08:08:08Z</time>
      </trkpt>
      <trkpt lat="47.49793" lon="0.79649">
        <ele>143</ele>
        <time>2023-07-14T08:08:09Z</time>
      </trkpt>
      <trkpt lat="47.49797" lon="0.79638">
        <ele>143</ele>
        <time>2023-07-14T08:08:10Z</time>
      </trkpt>
      <trkpt lat="47.498" lon="0.79628">
        <ele>143.2</ele>
        <time>2023-07-14T08:08:11Z</time>
      </trkpt>
      <trkpt lat="47.49804" lon="0.7962">
        <ele>143.4</ele>
        <time>2023-07-14T08:08:12Z</time>
      </trkpt>
      <trkpt lat="47.49808" lon="0.7961">
        <ele>143.2</ele>
        <time>2023-07-14T08:08:13Z</time>
      </trkpt>
      <trkpt lat="47.49812" lon="0.796">
        <ele>143.2</ele>
        <time>2023-07-14T08:08:14Z</time>
      </trkpt>
      <trkpt lat="47.49816" lon="0.7959">
        <ele>143</ele>
        <time>2023-07-14T08:08:15Z</time>
      </trkpt>
      <trkpt lat="47.4982" lon="0.79581">
        <ele>143</ele>
        <time>2023-07-14T08:08:16Z</time>
      </trkpt>
      <trkpt lat="47.49824" lon="0.79571">
        <ele>142.8</ele>
        <time>2023-07-14T08:08:17Z</time>
      </trkpt>
      <trkpt lat="47.49828" lon="0.79561">
        <ele>142.8</ele>
        <time>2023-07-14T08:08:18Z</time>
      </trkpt>
      <trkpt lat="47.49833" lon="0.79551">
        <ele>142.6</ele>
        <time>2023-07-14T08:08:19Z</time>
      </trkpt>
      <trkpt lat="47.49837" lon="0.79541">
        <ele>142.6</ele>
        <time>2023-07-14T08:08:20Z</time>
      </trkpt>
      <trkpt lat="47.49841" lon="0.79531">
        <ele>142.2</ele>
        <time>2023-07-14T08:08:21Z</time>
      </trkpt>
      <trkpt lat="47.49845" lon="0.7952">
        <ele>142</ele>
        <time>2023-07-14T08:08:22Z</time>
      </trkpt>
      <trkpt lat="47.4985" lon="0.79509">
        <ele>141.8</ele>
        <time>2023-07-14T08:08:23Z</time>
      </trkpt>
      <trkpt lat="47.49855" lon="0.79499">
        <ele>141.6</ele>
        <time>2023-07-14T08:08:24Z</time>
      </trkpt>
      <trkpt lat="47.4986" lon="0.79489">
        <ele>141.4</ele>
        <time>2023-07-14T08:08:25Z</time>
      </trkpt>
      <trkpt lat="47.49866" lon="0.7948">
        <ele>141.4</ele>
        <time>2023-07-14T08:08:26Z</time>
      </trkpt>
      <trkpt lat="47.49873" lon="0.79471">
        <ele>141.2</ele>
        <time>2023-07-14T08:08:27Z</time>
      </trkpt>
      <trkpt lat="47.49879" lon="0.79463">
        <ele>141</ele>
        <time>2023-07-14T08:08:28Z</time>
      </trkpt>
      <trkpt lat="47.49886" lon="0.79454">
        <ele>140.8</ele>
        <time>2023-07-14T08:08:29Z</time>
      </trkpt>
      <trkpt lat="47.49894" lon="0.79445">
        <ele>140.6</ele>
        <time>2023-07-14T08:08:30Z</time>
      </trkpt>
      <trkpt lat="47.49901" lon="0.79435">
        <ele>140.4</ele>
        <time>2023-07-14T08:08:31Z</time>
      </trkpt>
      <trkpt lat="47.49907" lon="0.79428">
        <ele>140.2</ele>
        <time>2023-07-14T08:08:32Z</time>
      </trkpt>
      <trkpt lat="47.49913" lon="0.79422">
        <ele>140</ele>
        <time>2023-07-14T08:08:33Z</time>
      </trkpt>
      <trkpt lat="47.49921" lon="0.79414">
        <ele>140</ele>
        <time>2023-07-14T08:08:34Z</time>
      </trkpt>
      <trkpt lat="47.49927" lon="0.79406">
        <ele>140</ele>
        <time>2023-07-14T08:08:35Z</time>
      </trkpt>
      <trkpt lat="47.49934" lon="0.79397">
        <ele>139.8</ele>
        <time>2023-07-14T08:08:36Z</time>
      </trkpt>
      <trkpt lat="47.49939" lon="0.79387">
        <ele>139.4</ele>
        <time>2023-07-14T08:08:37Z</time>
      </trkpt>
      <trkpt lat="47.49943" lon="0.79377">
        <ele>139.2</ele>
        <time>2023-07-14T08:08:38Z</time>
      </trkpt>
      <trkpt lat="47.49945" lon="0.79365">
        <ele>139.2</ele>
        <time>2023-07-14T08:08:39Z</time>
      </trkpt>
      <trkpt lat="47.49945" lon="0.79353">
        <ele>139.2</ele>
        <time>2023-07-14T08:08:40Z</time>
      </trkpt>
      <trkpt lat="47.49942" lon="0.7934">
        <ele>139.2</ele>
        <time>2023-07-14T08:08:41Z</time>
      </trkpt>
      <trkpt lat="47.49939" lon="0.79328">
        <ele>139.2</ele>
        <time>2023-07-14T08:08:42Z</time>
      </trkpt>
      <trkpt lat="47.49936" lon="0.79317">
        <ele>139.4</ele>
        <time>2023-07-14T08:08:43Z</time>
      </trkpt>
      <trkpt lat="47.49933" lon="0.79304">
        <ele>139.4</ele>
        <time>2023-07-14T08:08:44Z</time>
      </trkpt>
      <trkpt lat="47.49932" lon="0.79291">
        <ele>139.2</ele>
        <time>2023-07-14T08:08:45Z</time>
      </trkpt>
      <trkpt lat="47.49933" lon="0.7928">
        <ele>139</ele>
        <time>2023-07-14T08:08:46Z</time>
      </trkpt>
      <trkpt lat="47.49935" lon="0.79268">
        <ele>138.8</ele>
        <time>2023-07-14T08:08:47Z</time>
      </trkpt>
      <trkpt lat="47.49938" lon="0.79256">
        <ele>138.6</ele>
        <time>2023-07-14T08:08:48Z</time>
      </trkpt>
      <trkpt lat="47.49943" lon="0.79245">
        <ele>138.4</ele>
        <time>2023-07-14T08:08:49Z</time>
      </trkpt>
      <trkpt lat="47.4995" lon="0.79235">
        <ele>138.2</ele>
        <time>2023-07-14T08:08:50Z</time>
      </trkpt>
      <trkpt lat="47.49957" lon="0.79226">
        <ele>137.8</ele>
        <time>2023-07-14T08:08:51Z</time>
      </trkpt>
      <trkpt lat="47.49963" lon="0.79218">
        <ele>137.4</ele>
        <time>2023-07-14T08:08:52Z</time>
      </trkpt>
      <trkpt lat="47.4997" lon="0.79209">
        <ele>137.2</ele>
        <time>2023-07-14T08:08:53Z</time>
      </trkpt>
      <trkpt lat="47.49978" lon="0.792">
        <ele>137</ele>
        <time>2023-07-14T08:08:54Z</time>
      </trkpt>
      <trkpt lat="47.49986" lon="0.79191">
        <ele>136.8</ele>
        <time>2023-07-14T08:08:55Z</time>
      </trkpt>
      <trkpt lat="47.49993" lon="0.79182">
        <ele>136.4</ele>
        <time>2023-07-14T08:08:56Z</time>
      </trkpt>
      <trkpt lat="47.50001" lon="0.79173">
        <ele>136</ele>
        <time>2023-07-14T08:08:57Z</time>
      </trkpt>
      <trkpt lat="47.50008" lon="0.79164">
        <ele>135.8</ele>
        <time>2023-07-14T08:08:58Z</time>
      </trkpt>
      <trkpt lat="47.50016" lon="0.79155">
        <ele>135.4</ele>
        <time>2023-07-14T08:08:59Z</time>
      </trkpt>
      <trkpt lat="47.50024" lon="0.79145">
        <ele>135</ele>
        <time>2023-07-14T08:09:00Z</time>
      </trkpt>
      <trkpt lat="47.50032" lon="0.79134">
        <ele>134.6</ele>
        <time>2023-07-14T08:09:01Z</time>
      </trkpt>
      <trkpt lat="47.5004" lon="0.79125">
        <ele>134.2</ele>
        <time>2023-07-14T08:09:02Z</time>
      </trkpt>
      <trkpt lat="47.50048" lon="0.79116">
        <ele>133.8</ele>
        <time>2023-07-14T08:09:03Z</time>
      </trkpt>
      <trkpt lat="47.50055" lon="0.79106">
        <ele>133.4</ele>
        <time>2023-07-14T08:09:04Z</time>
      </trkpt>
      <trkpt lat="47.50061" lon="0.79095">
        <ele>133</ele>
        <time>2023-07-14T08:09:05Z</time>
      </trkpt>
      <trkpt lat="47.50068" lon="0.79084">
        <ele>132.4</ele>
        <time>2023-07-14T08:09:06Z</time>
      </trkpt>
      <trkpt lat="47.50074" lon="0.79073">
        <ele>132</ele>
        <time>2023-07-14T08:09:07Z</time>
      </trkpt>
      <trkpt lat="47.50079" lon="0.79063">
        <ele>131.6</ele>
        <time>2023-07-14T08:09:08Z</time>
      </trkpt>
      <trkpt lat="47.50084" lon="0.7905">
        <ele>131.2</ele>
        <time>2023-07-14T08:09:09Z</time>
      </trkpt>
      <trkpt lat="47.5009" lon="0.79036">
        <ele>131</ele>
        <time>2023-07-14T08:09:10Z</time>
      </trkpt>
      <trkpt lat="47.50095" lon="0.79024">
        <ele>130.6</ele>
        <time>2023-07-14T08:09:11Z</time>
      </trkpt>
      <trkpt lat="47.50099" lon="0.79012">
        <ele>130.4</ele>
        <time>2023-07-14T08:09:12Z</time>
      </trkpt>
      <trkpt lat="47.50103" lon="0.79">
        <ele>130</ele>
        <time>2023-07-14T08:09:13Z</time>
      </trkpt>
      <trkpt lat="47.50108" lon="0.78988">
        <ele>129.8</ele>
        <time>2023-07-14T08:09:14Z</time>
      </trkpt>
      <trkpt lat="47.50112" lon="0.78976">
        <ele>129.6</ele>
        <time>2023-07-14T08:09:15Z</time>
      </trkpt>
      <trkpt lat="47.50116" lon="0.78966">
        <ele>129.2</ele>
        <time>2023-07-14T08:09:16Z</time>
      </trkpt>
      <trkpt lat="47.50119" lon="0.78957">
        <ele>129</ele>
        <time>2023-07-14T08:09:17Z</time>
      </trkpt>
      <trkpt lat="47.50123" lon="0.78947">
        <ele>128.4</ele>
        <time>2023-07-14T08:09:18Z</time>
      </trkpt>
      <trkpt lat="47.50126" lon="0.7894">
        <ele>128.2</ele>
        <time>2023-07-14T08:09:19Z</time>
      </trkpt>
      <trkpt lat="47.50128" lon="0.78934">
        <ele>127.8</ele>
        <time>2023-07-14T08:09:20Z</time>
      </trkpt>
      <trkpt lat="47.50129" lon="0.7893">
        <ele>127.4</ele>
        <time>2023-07-14T08:09:21Z</time>
      </trkpt>
      <trkpt lat="47.5013" lon="0.78927">
        <ele>127</ele>
        <time>2023-07-14T08:09:22Z</time>
      </trkpt>
      <trkpt lat="47.50131" lon="0.78926">
        <ele>126.2</ele>
        <time>2023-07-14T08:09:38Z</time>
      </trkpt>
      <trkpt lat="47.50132" lon="0.78925">
        <ele>126.2</ele>
        <time>2023-07-14T08:09:39Z</time>
      </trkpt>
      <trkpt lat="47.50133" lon="0.78921">
        <ele>126.2</ele>
        <time>2023-07-14T08:09:40Z</time>
      </trkpt>
      <trkpt lat="47.50134" lon="0.78917">
        <ele>126.4</ele>
        <time>2023-07-14T08:09:41Z</time>
      </trkpt>
      <trkpt lat="47.50136" lon="0.78913">
        <ele>126.6</ele>
        <time>2023-07-14T08:09:42Z</time>
      </trkpt>
      <trkpt lat="47.50137" lon="0.78909">
        <ele>126.8</ele>
        <time>2023-07-14T08:09:43Z</time>
      </trkpt>
      <trkpt lat="47.50138" lon="0.78904">
        <ele>126.8</ele>
        <time>2023-07-14T08:09:44Z</time>
      </trkpt>
      <trkpt lat="47.50138" lon="0.78898">
        <ele>126.8</ele>
        <time>2023-07-14T08:09:45Z</time>
      </trkpt>
      <trkpt lat="47.5014" lon="0.78892">
        <ele>126.6</ele>
        <time>2023-07-14T08:09:46Z</time>
      </trkpt>
      <trkpt lat="47.50143" lon="0.78886">
        <ele>126.4</ele>
        <time>2023-07-14T08:09:47Z</time>
      </trkpt>
      <trkpt lat="47.50145" lon="0.78879">
        <ele>126.2</ele>
        <time>2023-07-14T08:09:48Z</time>
      </trkpt>
      <trkpt lat="47.50147" lon="0.78872">
        <ele>126.2</ele>
        <time>2023-07-14T08:09:49Z</time>
      </trkpt>
      <trkpt lat="47.5015" lon="0.78865">
        <ele>126</ele>
        <time>2023-07-14T08:09:50Z</time>
      </trkpt>
      <trkpt lat="47.50152" lon="0.78858">
        <ele>126</ele>
        <time>2023-07-14T08:09:51Z</time>
      </trkpt>
      <trkpt lat="47.50154" lon="0.78851">
        <ele>125.8</ele>
        <time>2023-07-14T08:09:52Z</time>
      </trkpt>
      <trkpt lat="47.50156" lon="0.78845">
        <ele>125.6</ele>
        <time>2023-07-14T08:09:53Z</time>
      </trkpt>
      <trkpt lat="47.50158" lon="0.78838">
        <ele>125.4</ele>
        <time>2023-07-14T08:09:54Z</time>
      </trkpt>
      <trkpt lat="47.50159" lon="0.7883">
        <ele>125</ele>
        <time>2023-07-14T08:09:55Z</time>
      </trkpt>
      <trkpt lat="47.5016" lon="0.78822">
        <ele>124.8</ele>
        <time>2023-07-14T08:09:56Z</time>
      </trkpt>
      <trkpt lat="47.50161" lon="0.78813">
        <ele>124.8</ele>
        <time>2023-07-14T08:09:57Z</time>
      </trkpt>
      <trkpt lat="47.50162" lon="0.78804">
        <ele>124.8</ele>
        <time>2023-07-14T08:09:58Z</time>
      </trkpt>
      <trkpt lat="47.50163" lon="0.78795">
        <ele>124.6</ele>
        <time>2023-07-14T08:09:59Z</time>
      </trkpt>
      <trkpt lat="47.50163" lon="0.78786">
        <ele>124.6</ele>
        <time>2023-07-14T08:10:00Z</time>
      </trkpt>
      <trkpt lat="47.50163" lon="0.78777">
        <ele>124.4</ele>
        <time>2023-07-14T08:10:01Z</time>
      </trkpt>
      <trkpt lat="47.50162" lon="0.78768">
        <ele>124.2</ele>
        <time>2023-07-14T08:10:02Z</time>
      </trkpt>
      <trkpt lat="47.50161" lon="0.78759">
        <ele>123.8</ele>
        <time>2023-07-14T08:10:03Z</time>
      </trkpt>
      <trkpt lat="47.50161" lon="0.78751">
        <ele>123.6</ele>
        <time>2023-07-14T08:10:04Z</time>
      </trkpt>
      <trkpt lat="47.50161" lon="0.78742">
        <ele>123.6</ele>
        <time>2023-07-14T08:10:05Z</time>
      </trkpt>
      <trkpt lat="47.50161" lon="0.78733">
        <ele>123.4</ele>
        <time>2023-07-14T08:10:06Z</time>
      </trkpt>
      <trkpt lat="47.5016" lon="0.78724">
        <ele>123.2</ele>
        <time>2023-07-14T08:10:07Z</time>
      </trkpt>
      <trkpt lat="47.50159" lon="0.78715">
        <ele>123</ele>
        <time>2023-07-14T08:10:08Z</time>
      </trkpt>
      <trkpt lat="47.50159" lon="0.78706">
        <ele>123</ele>
        <time>2023-07-14T08:10:09Z</time>
      </trkpt>
      <trkpt lat="47.50159" lon="0.78697">
        <ele>123</ele>
        <time>2023-07-14T08:10:10Z</time>
      </trkpt>
      <trkpt lat="47.50159" lon="0.78689">
        <ele>123</ele>
        <time>2023-07-14T08:10:11Z</time>
      </trkpt>
      <trkpt lat="47.50159" lon="0.78681">
        <ele>123</ele>
        <time>2023-07-14T08:10:12Z</time>
      </trkpt>
      <trkpt lat="47.50159" lon="0.78673">
        <ele>123</ele>
        <time>2023-07-14T08:10:13Z</time>
      </trkpt>
      <trkpt lat="47.50159" lon="0.78666">
        <ele>123</ele>
        <time>2023-07-14T08:10:14Z</time>
      </trkpt>
      <trkpt lat="47.50159" lon="0.78658">
        <ele>123</ele>
        <time>2023-07-14T08:10:15Z</time>
      </trkpt>
      <trkpt lat="47.50159" lon="0.78651">
        <ele>122.8</ele>
        <time>2023-07-14T08:10:16Z</time>
      </trkpt>
      <trkpt lat="47.50159" lon="0.78644">
        <ele>122.8</ele>
        <time>2023-07-14T08:10:17Z</time>
      </trkpt>
      <trkpt lat="47.50159" lon="0.78637">
        <ele>123</ele>
        <time>2023-07-14T08:10:18Z</time>
      </trkpt>
      <trkpt lat="47.50159" lon="0.78629">
        <ele>123</ele>
        <time>2023-07-14T08:10:19Z</time>
      </trkpt>
      <trkpt lat="47.50159" lon="0.78621">
        <ele>123</ele>
        <time>2023-07-14T08:10:20Z</time>
      </trkpt>
      <trkpt lat="47.50159" lon="0.78614">
        <ele>123.2</ele>
        <time>2023-07-14T08:10:21Z</time>
      </trkpt>
      <trkpt lat="47.50159" lon="0.78606">
        <ele>123.2</ele>
        <time>2023-07-14T08:10:22Z</time>
      </trkpt>
      <trkpt lat="47.50158" lon="0.78599">
        <ele>123</ele>
        <time>2023-07-14T08:10:23Z</time>
      </trkpt>
      <trkpt lat="47.50159" lon="0.7859">
        <ele>123</ele>
        <time>2023-07-14T08:10:24Z</time>
      </trkpt>
      <trkpt lat="47.50158" lon="0.78582">
        <ele>123</ele>
        <time>2023-07-14T08:10:25Z</time>
      </trkpt>
      <trkpt lat="47.50158" lon="0.78574">
        <ele>123</ele>
        <time>2023-07-14T08:10:26Z</time>
      </trkpt>
      <trkpt lat="47.50158" lon="0.78566">
        <ele>123</ele>
        <time>2023-07-14T08:10:27Z</time>
      </trkpt>
      <trkpt lat="47.50158" lon="0.78558">
        <ele>123</ele>
        <time>2023-07-14T08:10:28Z</time>
      </trkpt>
      <trkpt lat="47.50157" lon="0.78549">
        <ele>123.2</ele>
        <time>2023-07-14T08:10:29Z</time>
      </trkpt>
      <trkpt lat="47.50157" lon="0.78541">
        <ele>123.2</ele>
        <time>2023-07-14T08:10:30Z</time>
      </trkpt>
      <trkpt lat="47.50157" lon="0.78532">
        <ele>123.2</ele>
        <time>2023-07-14T08:10:31Z</time>
      </trkpt>
      <trkpt lat="47.50156" lon="0.78523">
        <ele>123.2</ele>
        <time>2023-07-14T08:10:32Z</time>
      </trkpt>
      <trkpt lat="47.50156" lon="0.78514">
        <ele>123</ele>
        <time>2023-07-14T08:10:33Z</time>
      </trkpt>
      <trkpt lat="47.50156" lon="0.78504">
        <ele>122.8</ele>
        <time>2023-07-14T08:10:34Z</time>
      </trkpt>
      <trkpt lat="47.50155" lon="0.78495">
        <ele>122.6</ele>
        <time>2023-07-14T08:10:35Z</time>
      </trkpt>
      <trkpt lat="47.50155" lon="0.78485">
        <ele>122.4</ele>
        <time>2023-07-14T08:10:36Z</time>
      </trkpt>
      <trkpt lat="47.50155" lon="0.78475">
        <ele>122.4</ele>
        <time>2023-07-14T08:10:37Z</time>
      </trkpt>
      <trkpt lat="47.50156" lon="0.78466">
        <ele>122.4</ele>
        <time>2023-07-14T08:10:38Z</time>
      </trkpt>
      <trkpt lat="47.50157" lon="0.78456">
        <ele>122.4</ele>
        <time>2023-07-14T08:10:39Z</time>
      </trkpt>
      <trkpt lat="47.50157" lon="0.78446">
        <ele>122.4</ele>
        <time>2023-07-14T08:10:40Z</time>
      </trkpt>
      <trkpt lat="47.50157" lon="0.78435">
        <ele>122.4</ele>
        <time>2023-07-14T08:10:41Z</time>
      </trkpt>
      <trkpt lat="47.50158" lon="0.78425">
        <ele>122.2</ele>
        <time>2023-07-14T08:10:42Z</time>
      </trkpt>
      <trkpt lat="47.50158" lon="0.78415">
        <ele>122.2</ele>
        <time>2023-07-14T08:10:43Z</time>
      </trkpt>
      <trkpt lat="47.50159" lon="0.78405">
        <ele>122</ele>
        <time>2023-07-14T08:10:44Z</time>
      </trkpt>
      <trkpt lat="47.5016" lon="0.78396">
        <ele>121.8</ele>
        <time>2023-07-14T08:10:45Z</time>
      </trkpt>
      <trkpt lat="47.50161" lon="0.78386">
        <ele>121.8</ele>
        <time>2023-07-14T08:10:46Z</time>
      </trkpt>
      <trkpt lat="47.50162" lon="0.78378">
        <ele>121.6</ele>
        <time>2023-07-14T08:10:47Z</time>
      </trkpt>
      <trkpt lat="47.50163" lon="0.78369">
        <ele>121.6</ele>
        <time>2023-07-14T08:10:48Z</time>
      </trkpt>
      <trkpt lat="47.50164" lon="0.78361">
        <ele>121.6</ele>
        <time>2023-07-14T08:10:49Z</time>
      </trkpt>
      <trkpt lat="47.50164" lon="0.78352">
        <ele>121.6</ele>
        <time>2023-07-14T08:10:50Z</time>
      </trkpt>
      <trkpt lat="47.50165" lon="0.78343">
        <ele>121.6</ele>
        <time>2023-07-14T08:10:51Z</time>
      </trkpt>
      <trkpt lat="47.50166" lon="0.78335">
        <ele>121.6</ele>
        <time>2023-07-14T08:10:52Z</time>
      </trkpt>
      <trkpt lat="47.50166" lon="0.78326">
        <ele>121.8</ele>
        <time>2023-07-14T08:10:53Z</time>
      </trkpt>
      <trkpt lat="47.50166" lon="0.78318">
        <ele>122</ele>
        <time>2023-07-14T08:10:54Z</time>
      </trkpt>
      <trkpt lat="47.50166" lon="0.7831">
        <ele>122.2</ele>
        <time>2023-07-14T08:10:55Z</time>
      </trkpt>
      <trkpt lat="47.50166" lon="0.78301">
        <ele>122.4</ele>
        <time>2023-07-14T08:10:56Z</time>
      </trkpt>
      <trkpt lat="47.50166" lon="0.78293">
        <ele>122.6</ele>
        <time>2023-07-14T08:10:57Z</time>
      </trkpt>
      <trkpt lat="47.50166" lon="0.78284">
        <ele>122.8</ele>
        <time>2023-07-14T08:10:58Z</time>
      </trkpt>
      <trkpt lat="47.50167" lon="0.78275">
        <ele>122.8</ele>
        <time>2023-07-14T08:10:59Z</time>
      </trkpt>
      <trkpt lat="47.50168" lon="0.78267">
        <ele>123</ele>
        <time>2023-07-14T08:11:00Z</time>
      </trkpt>
      <trkpt lat="47.5017" lon="0.78258">
        <ele>123.2</ele>
        <time>2023-07-14T08:11:01Z</time>
      </trkpt>
      <trkpt lat="47.50171" lon="0.78249">
        <ele>123.4</ele>
        <time>2023-07-14T08:11:02Z</time>
      </trkpt>
      <trkpt lat="47.50172" lon="0.78241">
        <ele>123.4</ele>
        <time>2023-07-14T08:11:03Z</time>
      </trkpt>
      <trkpt lat="47.50173" lon="0.78234">
        <ele>123.6</ele>
        <time>2023-07-14T08:11:04Z</time>
      </trkpt>
      <trkpt lat="47.50174" lon="0.78224">
        <ele>123.6</ele>
        <time>2023-07-14T08:11:05Z</time>
      </trkpt>
      <trkpt lat="47.50175" lon="0.78214">
        <ele>123.8</ele>
        <time>2023-07-14T08:11:06Z</time>
      </trkpt>
      <trkpt lat="47.50175" lon="0.78205">
        <ele>123.8</ele>
        <time>2023-07-14T08:11:07Z</time>
      </trkpt>
      <trkpt lat="47.50176" lon="0.78195">
        <ele>123.8</ele>
        <time>2023-07-14T08:11:08Z</time>
      </trkpt>
      <trkpt lat="47.50177" lon="0.78186">
        <ele>123.8</ele>
        <time>2023-07-14T08:11:09Z</time>
      </trkpt>
      <trkpt lat="47.50178" lon="0.78175">
        <ele>123.8</ele>
        <time>2023-07-14T08:11:10Z</time>
      </trkpt>
      <trkpt lat="47.50178" lon="0.78165">
        <ele>123.8</ele>
        <time>2023-07-14T08:11:11Z</time>
      </trkpt>
      <trkpt lat="47.50178" lon="0.78156">
        <ele>123.8</ele>
        <time>2023-07-14T08:11:12Z</time>
      </trkpt>
      <trkpt lat="47.50177" lon="0.78145">
        <ele>123.8</ele>
        <time>2023-07-14T08:11:13Z</time>
      </trkpt>
      <trkpt lat="47.50174" lon="0.78136">
        <ele>123.8</ele>
        <time>2023-07-14T08:11:14Z</time>
      </trkpt>
      <trkpt lat="47.50171" lon="0.78126">
        <ele>123.8</ele>
        <time>2023-07-14T08:11:15Z</time>
      </trkpt>
      <trkpt lat="47.50167" lon="0.78116">
        <ele>123.8</ele>
        <time>2023-07-14T08:11:16Z</time>
      </trkpt>
      <trkpt lat="47.50164" lon="0.78107">
        <ele>123.6</ele>
        <time>2023-07-14T08:11:17Z</time>
      </trkpt>
      <trkpt lat="47.50161" lon="0.78097">
        <ele>123.6</ele>
        <time>2023-07-14T08:11:18Z</time>
      </trkpt>
      <trkpt lat="47.50157" lon="0.78087">
        <ele>123.6</ele>
        <time>2023-07-14T08:11:19Z</time>
      </trkpt>
      <trkpt lat="47.50153" lon="0.78077">
        <ele>123.4</ele>
        <time>2023-07-14T08:11:20Z</time>
      </trkpt>
      <trkpt lat="47.5015" lon="0.78068">
        <ele>123.2</ele>
        <time>2023-07-14T08:11:21Z</time>
      </trkpt>
      <trkpt lat="47.50147" lon="0.78058">
        <ele>123.4</ele>
        <time>2023-07-14T08:11:22Z</time>
      </trkpt>
      <trkpt lat="47.50144" lon="0.7805">
        <ele>123.2</ele>
        <time>2023-07-14T08:11:23Z</time>
      </trkpt>
      <trkpt lat="47.50141" lon="0.78042">
        <ele>123</ele>
        <time>2023-07-14T08:11:24Z</time>
      </trkpt>
      <trkpt lat="47.50138" lon="0.78032">
        <ele>122.6</ele>
        <time>2023-07-14T08:11:25Z</time>
      </trkpt>
      <trkpt lat="47.50135" lon="0.78024">
        <ele>122.4</ele>
        <time>2023-07-14T08:11:26Z</time>
      </trkpt>
      <trkpt lat="47.50131" lon="0.78017">
        <ele>122.2</ele>
        <time>2023-07-14T08:11:27Z</time>
      </trkpt>
      <trkpt lat="47.50128" lon="0.7801">
        <ele>122.2</ele>
        <time>2023-07-14T08:11:28Z</time>
      </trkpt>
      <trkpt lat="47.50125" lon="0.78002">
        <ele>122.2</ele>
        <time>2023-07-14T08:11:29Z</time>
      </trkpt>
      <trkpt lat="47.5012" lon="0.77995">
        <ele>122.2</ele>
        <time>2023-07-14T08:11:30Z</time>
      </trkpt>
      <trkpt lat="47.50116" lon="0.77988">
        <ele>122.4</ele>
        <time>2023-07-14T08:11:31Z</time>
      </trkpt>
      <trkpt lat="47.50112" lon="0.77981">
        <ele>122.6</ele>
        <time>2023-07-14T08:11:32Z</time>
      </trkpt>
      <trkpt lat="47.50108" lon="0.77975">
        <ele>122.8</ele>
        <time>2023-07-14T08:11:33Z</time>
      </trkpt>
      <trkpt lat="47.50104" lon="0.77969">
        <ele>122.8</ele>
        <time>2023-07-14T08:11:34Z</time>
      </trkpt>
      <trkpt lat="47.501" lon="0.77962">
        <ele>123</ele>
        <time>2023-07-14T08:11:35Z</time>
      </trkpt>
      <trkpt lat="47.50096" lon="0.77957">
        <ele>123.2</ele>
        <time>2023-07-14T08:11:36Z</time>
      </trkpt>
      <trkpt lat="47.50093" lon="0.77952">
        <ele>123.4</ele>
        <time>2023-07-14T08:11:37Z</time>
      </trkpt>
      <trkpt lat="47.5009" lon="0.77946">
        <ele>123.6</ele>
        <time>2023-07-14T08:11:38Z</time>
      </trkpt>
      <trkpt lat="47.50087" lon="0.77941">
        <ele>123.8</ele>
        <time>2023-07-14T08:11:39Z</time>
      </trkpt>
      <trkpt lat="47.50085" lon="0.77935">
        <ele>124</ele>
        <time>2023-07-14T08:11:40Z</time>
      </trkpt>
      <trkpt lat="47.50082" lon="0.7793">
        <ele>124</ele>
        <time>2023-07-14T08:11:41Z</time>
      </trkpt>
      <trkpt lat="47.5008" lon="0.77925">
        <ele>124.2</ele>
        <time>2023-07-14T08:11:42Z</time>
      </trkpt>
      <trkpt lat="47.50078" lon="0.7792">
        <ele>124.4</ele>
        <time>2023-07-14T08:11:43Z</time>
      </trkpt>
      <trkpt lat="47.50075" lon="0.77914">
        <ele>124.6</ele>
        <time>2023-07-14T08:11:44Z</time>
      </trkpt>
      <trkpt lat="47.50072" lon="0.7791">
        <ele>124.8</ele>
        <time>2023-07-14T08:11:45Z</time>
      </trkpt>
      <trkpt lat="47.50069" lon="0.77907">
        <ele>125</ele>
        <time>2023-07-14T08:11:46Z</time>
      </trkpt>
      <trkpt lat="47.50066" lon="0.77903">
        <ele>125.2</ele>
        <time>2023-07-14T08:11:47Z</time>
      </trkpt>
      <trkpt lat="47.50065" lon="0.77898">
        <ele>125.4</ele>
        <time>2023-07-14T08:11:48Z</time>
      </trkpt>
      <trkpt lat="47.50064" lon="0.77894">
        <ele>125.6</ele>
        <time>2023-07-14T08:11:49Z</time>
      </trkpt>
      <trkpt lat="47.50064" lon="0.77889">
        <ele>125.8</ele>
        <time>2023-07-14T08:11:50Z</time>
      </trkpt>
      <trkpt lat="47.50063" lon="0.77883">
        <ele>126</ele>
        <time>2023-07-14T08:11:51Z</time>
      </trkpt>
      <trkpt lat="47.50063" lon="0.77877">
        <ele>126.2</ele>
        <time>2023-07-14T08:11:52Z</time>
      </trkpt>
      <trkpt lat="47.50063" lon="0.77872">
        <ele>126.6</ele>
        <time>2023-07-14T08:11:53Z</time>
      </trkpt>
      <trkpt lat="47.50063" lon="0.77866">
        <ele>126.8</ele>
        <time>2023-07-14T08:11:54Z</time>
      </trkpt>
      <trkpt lat="47.50062" lon="0.77859">
        <ele>127.2</ele>
        <time>2023-07-14T08:11:55Z</time>
      </trkpt>
      <trkpt lat="47.50061" lon="0.77853">
        <ele>127.6</ele>
        <time>2023-07-14T08:11:56Z</time>
      </trkpt>
      <trkpt lat="47.50061" lon="0.77847">
        <ele>128</ele>
        <time>2023-07-14T08:11:57Z</time>
      </trkpt>
      <trkpt lat="47.5006" lon="0.77841">
        <ele>128.2</ele>
        <time>2023-07-14T08:11:58Z</time>
      </trkpt>
      <trkpt lat="47.5006" lon="0.77835">
        <ele>128.4</ele>
        <time>2023-07-14T08:11:59Z</time>
      </trkpt>
      <trkpt lat="47.5006" lon="0.77828">
        <ele>128.6</ele>
        <time>2023-07-14T08:12:00Z</time>
      </trkpt>
      <trkpt lat="47.5006" lon="0.77822">
        <ele>128.6</ele>
        <time>2023-07-14T08:12:01Z</time>
      </trkpt>
      <trkpt lat="47.5006" lon="0.77816">
        <ele>128.8</ele>
        <time>2023-07-14T08:12:02Z</time>
      </trkpt>
      <trkpt lat="47.5006" lon="0.7781">
        <ele>129</ele>
        <time>2023-07-14T08:12:03Z</time>
      </trkpt>
      <trkpt lat="47.5006" lon="0.77803">
        <ele>129.2</ele>
        <time>2023-07-14T08:12:04Z</time>
      </trkpt>
      <trkpt lat="47.50059" lon="0.77797">
        <ele>129.4</ele>
        <time>2023-07-14T08:12:05Z</time>
      </trkpt>
      <trkpt lat="47.50059" lon="0.77791">
        <ele>129.6</ele>
        <time>2023-07-14T08:12:06Z</time>
      </trkpt>
      <trkpt lat="47.50058" lon="0.77784">
        <ele>129.6</ele>
        <time>2023-07-14T08:12:07Z</time>
      </trkpt>
      <trkpt lat="47.50058" lon="0.77777">
        <ele>130</ele>
        <time>2023-07-14T08:12:08Z</time>
      </trkpt>
      <trkpt lat="47.50058" lon="0.7777">
        <ele>130.2</ele>
        <time>2023-07-14T08:12:09Z</time>
      </trkpt>
      <trkpt lat="47.50058" lon="0.77763">
        <ele>130.4</ele>
        <time>2023-07-14T08:12:10Z</time>
      </trkpt>
      <trkpt lat="47.50057" lon="0.77755">
        <ele>130.4</ele>
        <time>2023-07-14T08:12:11Z</time>
      </trkpt>
      <trkpt lat="47.50056" lon="0.77748">
        <ele>130.6</ele>
        <time>2023-07-14T08:12:12Z</time>
      </trkpt>
      <trkpt lat="47.50056" lon="0.77741">
        <ele>130.6</ele>
        <time>2023-07-14T08:12:13Z</time>
      </trkpt>
      <trkpt lat="47.50055" lon="0.77734">
        <ele>130.8</ele>
        <time>2023-07-14T08:12:14Z</time>
      </trkpt>
      <trkpt lat="47.50055" lon="0.77727">
        <ele>130.8</ele>
        <time>2023-07-14T08:12:15Z</time>
      </trkpt>
      <trkpt lat="47.50056" lon="0.77719">
        <ele>131</ele>
        <time>2023-07-14T08:12:16Z</time>
      </trkpt>
      <trkpt lat="47.50056" lon="0.77712">
        <ele>131.2</ele>
        <time>2023-07-14T08:12:17Z</time>
      </trkpt>
      <trkpt lat="47.50056" lon="0.77705">
        <ele>131.2</ele>
        <time>2023-07-14T08:12:18Z</time>
      </trkpt>
      <trkpt lat="47.50056" lon="0.77697">
        <ele>131.2</ele>
        <time>2023-07-14T08:12:19Z</time>
      </trkpt>
      <trkpt lat="47.50056" lon="0.77689">
        <ele>131.2</ele>
        <time>2023-07-14T08:12:20Z</time>
      </trkpt>
      <trkpt lat="47.50056" lon="0.77681">
        <ele>131.2</ele>
        <time>2023-07-14T08:12:21Z</time>
      </trkpt>
      <trkpt lat="47.50056" lon="0.77674">
        <ele>131.2</ele>
        <time>2023-07-14T08:12:22Z</time>
      </trkpt>
      <trkpt lat="47.50056" lon="0.77666">
        <ele>131.2</ele>
        <time>2023-07-14T08:12:23Z</time>
      </trkpt>
      <trkpt lat="47.50056" lon="0.77658">
        <ele>131.2</ele>
        <time>2023-07-14T08:12:24Z</time>
      </trkpt>
      <trkpt lat="47.50055" lon="0.7765">
        <ele>131.4</ele>
        <time>2023-07-14T08:12:25Z</time>
      </trkpt>
      <trkpt lat="47.50055" lon="0.77642">
        <ele>131.4</ele>
        <time>2023-07-14T08:12:26Z</time>
      </trkpt>
      <trkpt lat="47.50055" lon="0.77634">
        <ele>131.4</ele>
        <time>2023-07-14T08:12:27Z</time>
      </trkpt>
      <trkpt lat="47.50055" lon="0.77626">
        <ele>131.4</ele>
        <time>2023-07-14T08:12:28Z</time>
      </trkpt>
      <trkpt lat="47.50054" lon="0.77617">
        <ele>131.4</ele>
        <time>2023-07-14T08:12:29Z</time>
      </trkpt>
      <trkpt lat="47.50053" lon="0.77609">
        <ele>131.4</ele>
        <time>2023-07-14T08:12:30Z</time>
      </trkpt>
      <trkpt lat="47.50052" lon="0.77601">
        <ele>131.6</ele>
        <time>2023-07-14T08:12:31Z</time>
      </trkpt>
      <trkpt lat="47.50052" lon="0.77592">
        <ele>131.6</ele>
        <time>2023-07-14T08:12:32Z</time>
      </trkpt>
      <trkpt lat="47.50052" lon="0.77583">
        <ele>131.6</ele>
        <time>2023-07-14T08:12:33Z</time>
      </trkpt>
      <trkpt lat="47.50052" lon="0.77575">
        <ele>131.6</ele>
        <time>2023-07-14T08:12:34Z</time>
      </trkpt>
      <trkpt lat="47.50052" lon="0.77567">
        <ele>131.8</ele>
        <time>2023-07-14T08:12:35Z</time>
      </trkpt>
      <trkpt lat="47.50052" lon="0.77559">
        <ele>131.6</ele>
        <time>2023-07-14T08:12:36Z</time>
      </trkpt>
      <trkpt lat="47.50051" lon="0.7755">
        <ele>131.8</ele>
        <time>2023-07-14T08:12:37Z</time>
      </trkpt>
      <trkpt lat="47.50051" lon="0.77543">
        <ele>131.8</ele>
        <time>2023-07-14T08:12:38Z</time>
      </trkpt>
      <trkpt lat="47.5005" lon="0.77535">
        <ele>132</ele>
        <time>2023-07-14T08:12:39Z</time>
      </trkpt>
      <trkpt lat="47.5005" lon="0.77526">
        <ele>132</ele>
        <time>2023-07-14T08:12:40Z</time>
      </trkpt>
      <trkpt lat="47.50049" lon="0.77518">
        <ele>132.2</ele>
        <time>2023-07-14T08:12:41Z</time>
      </trkpt>
      <trkpt lat="47.50049" lon="0.77511">
        <ele>132.4</ele>
        <time>2023-07-14T08:12:42Z</time>
      </trkpt>
      <trkpt lat="47.50048" lon="0.77503">
        <ele>132.6</ele>
        <time>2023-07-14T08:12:43Z</time>
      </trkpt>
      <trkpt lat="47.50048" lon="0.77495">
        <ele>133</ele>
        <time>2023-07-14T08:12:44Z</time>
      </trkpt>
      <trkpt lat="47.50048" lon="0.77487">
        <ele>133.2</ele>
        <time>2023-07-14T08:12:45Z</time>
      </trkpt>
      <trkpt lat="47.50047" lon="0.7748">
        <ele>133.4</ele>
        <time>2023-07-14T08:12:46Z</time>
      </trkpt>
      <trkpt lat="47.50047" lon="0.77472">
        <ele>133.4</ele>
        <time>2023-07-14T08:12:47Z</time>
      </trkpt>
      <trkpt lat="47.50047" lon="0.77464">
        <ele>133.6</ele>
        <time>2023-07-14T08:12:48Z</time>
      </trkpt>
      <trkpt lat="47.50046" lon="0.77456">
        <ele>133.8</ele>
        <time>2023-07-14T08:12:49Z</time>
      </trkpt>
      <trkpt lat="47.50046" lon="0.77448">
        <ele>134</ele>
        <time>2023-07-14T08:12:50Z</time>
      </trkpt>
      <trkpt lat="47.50045" lon="0.7744">
        <ele>134.4</ele>
        <time>2023-07-14T08:12:51Z</time>
      </trkpt>
      <trkpt lat="47.50045" lon="0.77433">
        <ele>134.6</ele>
        <time>2023-07-14T08:12:52Z</time>
      </trkpt>
      <trkpt lat="47.50045" lon="0.77425">
        <ele>134.8</ele>
        <time>2023-07-14T08:12:53Z</time>
      </trkpt>
      <trkpt lat="47.50044" lon="0.77418">
        <ele>135</ele>
        <time>2023-07-14T08:12:54Z</time>
      </trkpt>
      <trkpt lat="47.50043" lon="0.7741">
        <ele>135.4</ele>
        <time>2023-07-14T08:12:55Z</time>
      </trkpt>
      <trkpt lat="47.50043" lon="0.77402">
        <ele>135.6</ele>
        <time>2023-07-14T08:12:56Z</time>
      </trkpt>
      <trkpt lat="47.50043" lon="0.77395">
        <ele>135.8</ele>
        <time>2023-07-14T08:12:57Z</time>
      </trkpt>
      <trkpt lat="47.50042" lon="0.77387">
        <ele>136</ele>
        <time>2023-07-14T08:12:58Z</time>
      </trkpt>
      <trkpt lat="47.50042" lon="0.7738">
        <ele>136.2</ele>
        <time>2023-07-14T08:12:59Z</time>
      </trkpt>
      <trkpt lat="47.50042" lon="0.77372">
        <ele>136.4</ele>
        <time>2023-07-14T08:13:00Z</time>
      </trkpt>
      <trkpt lat="47.50042" lon="0.77364">
        <ele>136.6</ele>
        <time>2023-07-14T08:13:01Z</time>
      </trkpt>
      <trkpt lat="47.50041" lon="0.77357">
        <ele>136.6</ele>
        <time>2023-07-14T08:13:02Z</time>
      </trkpt>
      <trkpt lat="47.50041" lon="0.77349">
        <ele>136.8</ele>
        <time>2023-07-14T08:13:03Z</time>
      </trkpt>
      <trkpt lat="47.5004" lon="0.77341">
        <ele>137</ele>
        <time>2023-07-14T08:13:04Z</time>
      </trkpt>
      <trkpt lat="47.5004" lon="0.77333">
        <ele>137.2</ele>
        <time>2023-07-14T08:13:05Z</time>
      </trkpt>
      <trkpt lat="47.50039" lon="0.77324">
        <ele>137.4</ele>
        <time>2023-07-14T08:13:06Z</time>
      </trkpt>
      <trkpt lat="47.50039" lon="0.77316">
        <ele>137.4</ele>
        <time>2023-07-14T08:13:07Z</time>
      </trkpt>
      <trkpt lat="47.50039" lon="0.77308">
        <ele>137.6</ele>
        <time>2023-07-14T08:13:08Z</time>
      </trkpt>
      <trkpt lat="47.50038" lon="0.773">
        <ele>137.8</ele>
        <time>2023-07-14T08:13:09Z</time>
      </trkpt>
      <trkpt lat="47.50038" lon="0.77292">
        <ele>137.8</ele>
        <time>2023-07-14T08:13:10Z</time>
      </trkpt>
      <trkpt lat="47.50037" lon="0.77282">
        <ele>137.8</ele>
        <time>2023-07-14T08:13:11Z</time>
      </trkpt>
      <trkpt lat="47.50037" lon="0.77271">
        <ele>137.8</ele>
        <time>2023-07-14T08:13:12Z</time>
      </trkpt>
      <trkpt lat="47.50037" lon="0.77263">
        <ele>137.8</ele>
        <time>2023-07-14T08:13:13Z</time>
      </trkpt>
      <trkpt lat="47.50036" lon="0.77253">
        <ele>137.6</ele>
        <time>2023-07-14T08:13:14Z</time>
      </trkpt>
      <trkpt lat="47.50036" lon="0.77242">
        <ele>137.6</ele>
        <time>2023-07-14T08:13:15Z</time>
      </trkpt>
      <trkpt lat="47.50035" lon="0.77232">
        <ele>137.6</ele>
        <time>2023-07-14T08:13:16Z</time>
      </trkpt>
      <trkpt lat="47.50035" lon="0.77222">
        <ele>137.6</ele>
        <time>2023-07-14T08:13:17Z</time>
      </trkpt>
      <trkpt lat="47.50034" lon="0.77213">
        <ele>137.4</ele>
        <time>2023-07-14T08:13:18Z</time>
      </trkpt>
      <trkpt lat="47.50034" lon="0.77203">
        <ele>137.4</ele>
        <time>2023-07-14T08:13:19Z</time>
      </trkpt>
      <trkpt lat="47.50033" lon="0.77191">
        <ele>137.4</ele>
        <time>2023-07-14T08:13:20Z</time>
      </trkpt>
      <trkpt lat="47.50032" lon="0.7718">
        <ele>137.4</ele>
        <time>2023-07-14T08:13:21Z</time>
      </trkpt>
      <trkpt lat="47.50031" lon="0.77169">
        <ele>137.4</ele>
        <time>2023-07-14T08:13:22Z</time>
      </trkpt>
      <trkpt lat="47.5003" lon="0.77158">
        <ele>137.4</ele>
        <time>2023-07-14T08:13:23Z</time>
      </trkpt>
      <trkpt lat="47.50029" lon="0.77148">
        <ele>137.4</ele>
        <time>2023-07-14T08:13:24Z</time>
      </trkpt>
      <trkpt lat="47.50027" lon="0.77137">
        <ele>137.6</ele>
        <time>2023-07-14T08:13:25Z</time>
      </trkpt>
      <trkpt lat="47.50026" lon="0.77126">
        <ele>137.6</ele>
        <time>2023-07-14T08:13:26Z</time>
      </trkpt>
      <trkpt lat="47.50023" lon="0.77116">
        <ele>137.6</ele>
        <time>2023-07-14T08:13:27Z</time>
      </trkpt>
      <trkpt lat="47.50021" lon="0.77105">
        <ele>137.6</ele>
        <time>2023-07-14T08:13:28Z</time>
      </trkpt>
      <trkpt lat="47.50019" lon="0.77095">
        <ele>137.4</ele>
        <time>2023-07-14T08:13:29Z</time>
      </trkpt>
      <trkpt lat="47.50017" lon="0.77085">
        <ele>137.2</ele>
        <time>2023-07-14T08:13:30Z</time>
      </trkpt>
      <trkpt lat="47.50014" lon="0.77076">
        <ele>137</ele>
        <time>2023-07-14T08:13:31Z</time>
      </trkpt>
      <trkpt lat="47.50012" lon="0.77066">
        <ele>137</ele>
        <time>2023-07-14T08:13:32Z</time>
      </trkpt>
      <trkpt lat="47.50009" lon="0.77055">
        <ele>136.8</ele>
        <time>2023-07-14T08:13:33Z</time>
      </trkpt>
      <trkpt lat="47.50006" lon="0.77045">
        <ele>136.8</ele>
        <time>2023-07-14T08:13:34Z</time>
      </trkpt>
      <trkpt lat="47.50003" lon="0.77036">
        <ele>136.8</ele>
        <time>2023-07-14T08:13:35Z</time>
      </trkpt>
      <trkpt lat="47.5" lon="0.77026">
        <ele>136.8</ele>
        <time>2023-07-14T08:13:36Z</time>
      </trkpt>
      <trkpt lat="47.49997" lon="0.77017">
        <ele>137</ele>
        <time>2023-07-14T08:13:37Z</time>
      </trkpt>
      <trkpt lat="47.49994" lon="0.77007">
        <ele>137</ele>
        <time>2023-07-14T08:13:38Z</time>
      </trkpt>
      <trkpt lat="47.4999" lon="0.76998">
        <ele>137</ele>
        <time>2023-07-14T08:13:39Z</time>
      </trkpt>
      <trkpt lat="47.49987" lon="0.76988">
        <ele>136.8</ele>
        <time>2023-07-14T08:13:40Z</time>
      </trkpt>
      <trkpt lat="47.49983" lon="0.76978">
        <ele>136.6</ele>
        <time>2023-07-14T08:13:41Z</time>
      </trkpt>
      <trkpt lat="47.4998" lon="0.76969">
        <ele>136.4</ele>
        <time>2023-07-14T08:13:42Z</time>
      </trkpt>
      <trkpt lat="47.49976" lon="0.7696">
        <ele>136.4</ele>
        <time>2023-07-14T08:13:43Z</time>
      </trkpt>
      <trkpt lat="47.49972" lon="0.76951">
        <ele>136.4</ele>
        <time>2023-07-14T08:13:44Z</time>
      </trkpt>
      <trkpt lat="47.49969" lon="0.76944">
        <ele>136.4</ele>
        <time>2023-07-14T08:13:45Z</time>
      </trkpt>
      <trkpt lat="47.49965" lon="0.76934">
        <ele>136.4</ele>
        <time>2023-07-14T08:13:46Z</time>
      </trkpt>
      <trkpt lat="47.49961" lon="0.76923">
        <ele>136.2</ele>
        <time>2023-07-14T08:13:47Z</time>
      </trkpt>
      <trkpt lat="47.49957" lon="0.76915">
        <ele>136.2</ele>
        <time>2023-07-14T08:13:48Z</time>
      </trkpt>
      <trkpt lat="47.49953" lon="0.76906">
        <ele>136.2</ele>
        <time>2023-07-14T08:13:49Z</time>
      </trkpt>
      <trkpt lat="47.4995" lon="0.76898">
        <ele>136</ele>
        <time>2023-07-14T08:13:50Z</time>
      </trkpt>
      <trkpt lat="47.49945" lon="0.76889">
        <ele>136</ele>
        <time>2023-07-14T08:13:51Z</time>
      </trkpt>
      <trkpt lat="47.49941" lon="0.7688">
        <ele>136</ele>
        <time>2023-07-14T08:13:52Z</time>
      </trkpt>
      <trkpt lat="47.49937" lon="0.76872">
        <ele>135.8</ele>
        <time>2023-07-14T08:13:53Z</time>
      </trkpt>
      <trkpt lat="47.49934" lon="0.76863">
        <ele>135.8</ele>
        <time>2023-07-14T08:13:54Z</time>
      </trkpt>
      <trkpt lat="47.49929" lon="0.76853">
        <ele>135.6</ele>
        <time>2023-07-14T08:13:55Z</time>
      </trkpt>
      <trkpt lat="47.49925" lon="0.76843">
        <ele>135.6</ele>
        <time>2023-07-14T08:13:56Z</time>
      </trkpt>
      <trkpt lat="47.49921" lon="0.76833">
        <ele>135.6</ele>
        <time>2023-07-14T08:13:57Z</time>
      </trkpt>
      <trkpt lat="47.49917" lon="0.76824">
        <ele>135.6</ele>
        <time>2023-07-14T08:13:58Z</time>
      </trkpt>
      <trkpt lat="47.49913" lon="0.76814">
        <ele>135.4</ele>
        <time>2023-07-14T08:13:59Z</time>
      </trkpt>
      <trkpt lat="47.4991" lon="0.76804">
        <ele>135.4</ele>
        <time>2023-07-14T08:14:00Z</time>
      </trkpt>
      <trkpt lat="47.49906" lon="0.76794">
        <ele>135.4</ele>
        <time>2023-07-14T08:14:01Z</time>
      </trkpt>
      <trkpt lat="47.49902" lon="0.76784">
        <ele>135.4</ele>
        <time>2023-07-14T08:14:02Z</time>
      </trkpt>
      <trkpt lat="47.49898" lon="0.76775">
        <ele>135.4</ele>
        <time>2023-07-14T08:14:03Z</time>
      </trkpt>
      <trkpt lat="47.49894" lon="0.76766">
        <ele>135.4</ele>
        <time>2023-07-14T08:14:04Z</time>
      </trkpt>
      <trkpt lat="47.4989" lon="0.76757">
        <ele>135.2</ele>
        <time>2023-07-14T08:14:05Z</time>
      </trkpt>
      <trkpt lat="47.49887" lon="0.76748">
        <ele>135</ele>
        <time>2023-07-14T08:14:06Z</time>
      </trkpt>
      <trkpt lat="47.49884" lon="0.76739">
        <ele>135</ele>
        <time>2023-07-14T08:14:07Z</time>
      </trkpt>
      <trkpt lat="47.4988" lon="0.76729">
        <ele>134.8</ele>
        <time>2023-07-14T08:14:08Z</time>
      </trkpt>
      <trkpt lat="47.49876" lon="0.7672">
        <ele>134.6</ele>
        <time>2023-07-14T08:14:09Z</time>
      </trkpt>
      <trkpt lat="47.49873" lon="0.7671">
        <ele>134.6</ele>
        <time>2023-07-14T08:14:10Z</time>
      </trkpt>
      <trkpt lat="47.49869" lon="0.76701">
        <ele>134.4</ele>
        <time>2023-07-14T08:14:11Z</time>
      </trkpt>
      <trkpt lat="47.49866" lon="0.76692">
        <ele>134.4</ele>
        <time>2023-07-14T08:14:12Z</time>
      </trkpt>
      <trkpt lat="47.49862" lon="0.76682">
        <ele>134.4</ele>
        <time>2023-07-14T08:14:13Z</time>
      </trkpt>
      <trkpt lat="47.49858" lon="0.76671">
        <ele>134.4</ele>
        <time>2023-07-14T08:14:14Z</time>
      </trkpt>
      <trkpt lat="47.49855" lon="0.76661">
        <ele>134.4</ele>
        <time>2023-07-14T08:14:15Z</time>
      </trkpt>
      <trkpt lat="47.4985" lon="0.76652">
        <ele>134.4</ele>
        <time>2023-07-14T08:14:16Z</time>
      </trkpt>
      <trkpt lat="47.49847" lon="0.76642">
        <ele>134.4</ele>
        <time>2023-07-14T08:14:17Z</time>
      </trkpt>
      <trkpt lat="47.49843" lon="0.76632">
        <ele>134.4</ele>
        <time>2023-07-14T08:14:18Z</time>
      </trkpt>
      <trkpt lat="47.49839" lon="0.76623">
        <ele>134.8</ele>
        <time>2023-07-14T08:14:19Z</time>
      </trkpt>
      <trkpt lat="47.49836" lon="0.76615">
        <ele>134.4</ele>
        <time>2023-07-14T08:14:20Z</time>
      </trkpt>
      <trkpt lat="47.49831" lon="0.76607">
        <ele>134.4</ele>
        <time>2023-07-14T08:14:21Z</time>
      </trkpt>
      <trkpt lat="47.49828" lon="0.76598">
        <ele>134.2</ele>
        <time>2023-07-14T08:14:22Z</time>
      </trkpt>
      <trkpt lat="47.49824" lon="0.7659">
        <ele>134.2</ele>
        <time>2023-07-14T08:14:23Z</time>
      </trkpt>
      <trkpt lat="47.4982" lon="0.7658">
        <ele>134.2</ele>
        <time>2023-07-14T08:14:24Z</time>
      </trkpt>
      <trkpt lat="47.49816" lon="0.76571">
        <ele>134</ele>
        <time>2023-07-14T08:14:25Z</time>
      </trkpt>
      <trkpt lat="47.49812" lon="0.76562">
        <ele>134</ele>
        <time>2023-07-14T08:14:26Z</time>
      </trkpt>
      <trkpt lat="47.49809" lon="0.76553">
        <ele>133.8</ele>
        <time>2023-07-14T08:14:27Z</time>
      </trkpt>
      <trkpt lat="47.49805" lon="0.76544">
        <ele>133.8</ele>
        <time>2023-07-14T08:14:28Z</time>
      </trkpt>
      <trkpt lat="47.49801" lon="0.76535">
        <ele>133.8</ele>
        <time>2023-07-14T08:14:29Z</time>
      </trkpt>
      <trkpt lat="47.49798" lon="0.76525">
        <ele>133.8</ele>
        <time>2023-07-14T08:14:30Z</time>
      </trkpt>
      <trkpt lat="47.49794" lon="0.76516">
        <ele>133.8</ele>
        <time>2023-07-14T08:14:31Z</time>
      </trkpt>
      <trkpt lat="47.4979" lon="0.76507">
        <ele>134</ele>
        <time>2023-07-14T08:14:32Z</time>
      </trkpt>
      <trkpt lat="47.49787" lon="0.76498">
        <ele>134</ele>
        <time>2023-07-14T08:14:33Z</time>
      </trkpt>
      <trkpt lat="47.49784" lon="0.76489">
        <ele>134</ele>
        <time>2023-07-14T08:14:34Z</time>
      </trkpt>
      <trkpt lat="47.4978" lon="0.7648">
        <ele>134.2</ele>
        <time>2023-07-14T08:14:35Z</time>
      </trkpt>
      <trkpt lat="47.49776" lon="0.76471">
        <ele>134.2</ele>
        <time>2023-07-14T08:14:36Z</time>
      </trkpt>
      <trkpt lat="47.49773" lon="0.76462">
        <ele>134.2</ele>
        <time>2023-07-14T08:14:37Z</time>
      </trkpt>
      <trkpt lat="47.49769" lon="0.76453">
        <ele>134.2</ele>
        <time>2023-07-14T08:14:38Z</time>
      </trkpt>
      <trkpt lat="47.49766" lon="0.76444">
        <ele>134.2</ele>
        <time>2023-07-14T08:14:39Z</time>
      </trkpt>
      <trkpt lat="47.49762" lon="0.76435">
        <ele>134.4</ele>
        <time>2023-07-14T08:14:40Z</time>
      </trkpt>
      <trkpt lat="47.49759" lon="0.76427">
        <ele>134.4</ele>
        <time>2023-07-14T08:14:41Z</time>
      </trkpt>
      <trkpt lat="47.49755" lon="0.76418">
        <ele>134.6</ele>
        <time>2023-07-14T08:14:42Z</time>
      </trkpt>
      <trkpt lat="47.49752" lon="0.7641">
        <ele>134.8</ele>
        <time>2023-07-14T08:14:43Z</time>
      </trkpt>
      <trkpt lat="47.49749" lon="0.76401">
        <ele>134.8</ele>
        <time>2023-07-14T08:14:44Z</time>
      </trkpt>
      <trkpt lat="47.49746" lon="0.76392">
        <ele>135</ele>
        <time>2023-07-14T08:14:45Z</time>
      </trkpt>
      <trkpt lat="47.49742" lon="0.76383">
        <ele>135</ele>
        <time>2023-07-14T08:14:46Z</time>
      </trkpt>
      <trkpt lat="47.49739" lon="0.76375">
        <ele>135.2</ele>
        <time>2023-07-14T08:14:47Z</time>
      </trkpt>
      <trkpt lat="47.49735" lon="0.76366">
        <ele>135.4</ele>
        <time>2023-07-14T08:14:48Z</time>
      </trkpt>
      <trkpt lat="47.49732" lon="0.76358">
        <ele>135.4</ele>
        <time>2023-07-14T08:14:49Z</time>
      </trkpt>
      <trkpt lat="47.49729" lon="0.76349">
        <ele>135.4</ele>
        <time>2023-07-14T08:14:50Z</time>
      </trkpt>
      <trkpt lat="47.49725" lon="0.76341">
        <ele>135.4</ele>
        <time>2023-07-14T08:14:51Z</time>
      </trkpt>
      <trkpt lat="47.49722" lon="0.76333">
        <ele>135.2</ele>
        <time>2023-07-14T08:14:52Z</time>
      </trkpt>
      <trkpt lat="47.49719" lon="0.76324">
        <ele>135</ele>
        <time>2023-07-14T08:14:53Z</time>
      </trkpt>
      <trkpt lat="47.49715" lon="0.76316">
        <ele>135</ele>
        <time>2023-07-14T08:14:54Z</time>
      </trkpt>
      <trkpt lat="47.49712" lon="0.76307">
        <ele>135</ele>
        <time>2023-07-14T08:14:55Z</time>
      </trkpt>
      <trkpt lat="47.49708" lon="0.76299">
        <ele>135</ele>
        <time>2023-07-14T08:14:56Z</time>
      </trkpt>
      <trkpt lat="47.49705" lon="0.7629">
        <ele>135</ele>
        <time>2023-07-14T08:14:57Z</time>
      </trkpt>
      <trkpt lat="47.49702" lon="0.76282">
        <ele>135.2</ele>
        <time>2023-07-14T08:14:58Z</time>
      </trkpt>
      <trkpt lat="47.49698" lon="0.76273">
        <ele>135.2</ele>
        <time>2023-07-14T08:14:59Z</time>
      </trkpt>
      <trkpt lat="47.49695" lon="0.76265">
        <ele>135.4</ele>
        <time>2023-07-14T08:15:00Z</time>
      </trkpt>
      <trkpt lat="47.49691" lon="0.76256">
        <ele>135.4</ele>
        <time>2023-07-14T08:15:01Z</time>
      </trkpt>
      <trkpt lat="47.49688" lon="0.76248">
        <ele>135.4</ele>
        <time>2023-07-14T08:15:02Z</time>
      </trkpt>
      <trkpt lat="47.49685" lon="0.7624">
        <ele>135.2</ele>
        <time>2023-07-14T08:15:03Z</time>
      </trkpt>
      <trkpt lat="47.49681" lon="0.76231">
        <ele>135</ele>
        <time>2023-07-14T08:15:04Z</time>
      </trkpt>
      <trkpt lat="47.49678" lon="0.76223">
        <ele>135.2</ele>
        <time>2023-07-14T08:15:05Z</time>
      </trkpt>
      <trkpt lat="47.49674" lon="0.76214">
        <ele>135.2</ele>
        <time>2023-07-14T08:15:06Z</time>
      </trkpt>
      <trkpt lat="47.49671" lon="0.76206">
        <ele>135.2</ele>
        <time>2023-07-14T08:15:07Z</time>
      </trkpt>
      <trkpt lat="47.49668" lon="0.76198">
        <ele>135</ele>
        <time>2023-07-14T08:15:08Z</time>
      </trkpt>
      <trkpt lat="47.49664" lon="0.76189">
        <ele>135</ele>
        <time>2023-07-14T08:15:09Z</time>
      </trkpt>
      <trkpt lat="47.49661" lon="0.7618">
        <ele>135</ele>
        <time>2023-07-14T08:15:10Z</time>
      </trkpt>
      <trkpt lat="47.49657" lon="0.76171">
        <ele>134.8</ele>
        <time>2023-07-14T08:15:11Z</time>
      </trkpt>
      <trkpt lat="47.49653" lon="0.76163">
        <ele>134.8</ele>
        <time>2023-07-14T08:15:12Z</time>
      </trkpt>
      <trkpt lat="47.4965" lon="0.76154">
        <ele>135</ele>
        <time>2023-07-14T08:15:13Z</time>
      </trkpt>
      <trkpt lat="47.49646" lon="0.76145">
        <ele>135</ele>
        <time>2023-07-14T08:15:14Z</time>
      </trkpt>
      <trkpt lat="47.49643" lon="0.76136">
        <ele>135.2</ele>
        <time>2023-07-14T08:15:15Z</time>
      </trkpt>
      <trkpt lat="47.49639" lon="0.76128">
        <ele>135.2</ele>
        <time>2023-07-14T08:15:16Z</time>
      </trkpt>
      <trkpt lat="47.49636" lon="0.76118">
        <ele>135.4</ele>
        <time>2023-07-14T08:15:17Z</time>
      </trkpt>
      <trkpt lat="47.49632" lon="0.76109">
        <ele>135.6</ele>
        <time>2023-07-14T08:15:18Z</time>
      </trkpt>
      <trkpt lat="47.49628" lon="0.761">
        <ele>135.6</ele>
        <time>2023-07-14T08:15:19Z</time>
      </trkpt>
      <trkpt lat="47.49625" lon="0.76091">
        <ele>135.6</ele>
        <time>2023-07-14T08:15:20Z</time>
      </trkpt>
      <trkpt lat="47.49621" lon="0.76083">
        <ele>135.6</ele>
        <time>2023-07-14T08:15:21Z</time>
      </trkpt>
      <trkpt lat="47.49618" lon="0.76074">
        <ele>135.4</ele>
        <time>2023-07-14T08:15:22Z</time>
      </trkpt>
      <trkpt lat="47.49614" lon="0.76065">
        <ele>135.6</ele>
        <time>2023-07-14T08:15:23Z</time>
      </trkpt>
      <trkpt lat="47.49611" lon="0.76056">
        <ele>135.6</ele>
        <time>2023-07-14T08:15:24Z</time>
      </trkpt>
      <trkpt lat="47.49609" lon="0.76048">
        <ele>135.8</ele>
        <time>2023-07-14T08:15:25Z</time>
      </trkpt>
      <trkpt lat="47.49606" lon="0.76039">
        <ele>135.8</ele>
        <time>2023-07-14T08:15:26Z</time>
      </trkpt>
      <trkpt lat="47.49603" lon="0.76029">
        <ele>135.4</ele>
        <time>2023-07-14T08:15:27Z</time>
      </trkpt>
      <trkpt lat="47.496" lon="0.7602">
        <ele>135.4</ele>
        <time>2023-07-14T08:15:28Z</time>
      </trkpt>
      <trkpt lat="47.49597" lon="0.76011">
        <ele>135.4</ele>
        <time>2023-07-14T08:15:29Z</time>
      </trkpt>
      <trkpt lat="47.49595" lon="0.76003">
        <ele>135.8</ele>
        <time>2023-07-14T08:15:30Z</time>
      </trkpt>
      <trkpt lat="47.49593" lon="0.75994">
        <ele>135.4</ele>
        <time>2023-07-14T08:15:31Z</time>
      </trkpt>
      <trkpt lat="47.49591" lon="0.75985">
        <ele>135.4</ele>
        <time>2023-07-14T08:15:32Z</time>
      </trkpt>
      <trkpt lat="47.49589" lon="0.75976">
        <ele>135.2</ele>
        <time>2023-07-14T08:15:33Z</time>
      </trkpt>
      <trkpt lat="47.49587" lon="0.75968">
        <ele>135.2</ele>
        <time>2023-07-14T08:15:34Z</time>
      </trkpt>
      <trkpt lat="47.49586" lon="0.75959">
        <ele>135.2</ele>
        <time>2023-07-14T08:15:35Z</time>
      </trkpt>
      <trkpt lat="47.49585" lon="0.75949">
        <ele>135.2</ele>
        <time>2023-07-14T08:15:36Z</time>
      </trkpt>
      <trkpt lat="47.49583" lon="0.75941">
        <ele>135.2</ele>
        <time>2023-07-14T08:15:37Z</time>
      </trkpt>
      <trkpt lat="47.49582" lon="0.75931">
        <ele>135.2</ele>
        <time>2023-07-14T08:15:38Z</time>
      </trkpt>
      <trkpt lat="47.49581" lon="0.75921">
        <ele>135.2</ele>
        <time>2023-07-14T08:15:39Z</time>
      </trkpt>
      <trkpt lat="47.4958" lon="0.75911">
        <ele>135.2</ele>
        <time>2023-07-14T08:15:40Z</time>
      </trkpt>
      <trkpt lat="47.4958" lon="0.75901">
        <ele>135</ele>
        <time>2023-07-14T08:15:41Z</time>
      </trkpt>
      <trkpt lat="47.49579" lon="0.75892">
        <ele>135</ele>
        <time>2023-07-14T08:15:42Z</time>
      </trkpt>
      <trkpt lat="47.49579" lon="0.75882">
        <ele>135</ele>
        <time>2023-07-14T08:15:43Z</time>
      </trkpt>
      <trkpt lat="47.49578" lon="0.75871">
        <ele>135</ele>
        <time>2023-07-14T08:15:44Z</time>
      </trkpt>
      <trkpt lat="47.49578" lon="0.75861">
        <ele>135</ele>
        <time>2023-07-14T08:15:45Z</time>
      </trkpt>
      <trkpt lat="47.49579" lon="0.75851">
        <ele>134.8</ele>
        <time>2023-07-14T08:15:46Z</time>
      </trkpt>
      <trkpt lat="47.49579" lon="0.75841">
        <ele>134.8</ele>
        <time>2023-07-14T08:15:47Z</time>
      </trkpt>
      <trkpt lat="47.49579" lon="0.7583">
        <ele>135</ele>
        <time>2023-07-14T08:15:48Z</time>
      </trkpt>
      <trkpt lat="47.4958" lon="0.7582">
        <ele>135</ele>
        <time>2023-07-14T08:15:49Z</time>
      </trkpt>
      <trkpt lat="47.4958" lon="0.7581">
        <ele>135</ele>
        <time>2023-07-14T08:15:50Z</time>
      </trkpt>
      <trkpt lat="47.4958" lon="0.758">
        <ele>135.2</ele>
        <time>2023-07-14T08:15:51Z</time>
      </trkpt>
      <trkpt lat="47.49581" lon="0.7579">
        <ele>135.4</ele>
        <time>2023-07-14T08:15:52Z</time>
      </trkpt>
      <trkpt lat="47.49581" lon="0.75781">
        <ele>135.2</ele>
        <time>2023-07-14T08:15:53Z</time>
      </trkpt>
      <trkpt lat="47.49582" lon="0.75769">
        <ele>135.2</ele>
        <time>2023-07-14T08:15:54Z</time>
      </trkpt>
      <trkpt lat="47.49582" lon="0.75759">
        <ele>135.2</ele>
        <time>2023-07-14T08:15:55Z</time>
      </trkpt>
      <trkpt lat="47.49583" lon="0.75748">
        <ele>135.2</ele>
        <time>2023-07-14T08:15:56Z</time>
      </trkpt>
      <trkpt lat="47.49583" lon="0.75738">
        <ele>135.4</ele>
        <time>2023-07-14T08:15:57Z</time>
      </trkpt>
      <trkpt lat="47.49584" lon="0.75728">
        <ele>135.6</ele>
        <time>2023-07-14T08:15:58Z</time>
      </trkpt>
      <trkpt lat="47.49585" lon="0.75718">
        <ele>135.6</ele>
        <time>2023-07-14T08:15:59Z</time>
      </trkpt>
      <trkpt lat="47.49585" lon="0.75707">
        <ele>135.8</ele>
        <time>2023-07-14T08:16:00Z</time>
      </trkpt>
      <trkpt lat="47.49586" lon="0.75697">
        <ele>136</ele>
        <time>2023-07-14T08:16:01Z</time>
      </trkpt>
      <trkpt lat="47.49586" lon="0.75687">
        <ele>136.2</ele>
        <time>2023-07-14T08:16:02Z</time>
      </trkpt>
      <trkpt lat="47.49587" lon="0.75675">
        <ele>136</ele>
        <time>2023-07-14T08:16:03Z</time>
      </trkpt>
      <trkpt lat="47.49588" lon="0.75665">
        <ele>136</ele>
        <time>2023-07-14T08:16:04Z</time>
      </trkpt>
      <trkpt lat="47.49588" lon="0.75654">
        <ele>136.4</ele>
        <time>2023-07-14T08:16:05Z</time>
      </trkpt>
      <trkpt lat="47.49588" lon="0.75644">
        <ele>136.4</ele>
        <time>2023-07-14T08:16:06Z</time>
      </trkpt>
      <trkpt lat="47.49589" lon="0.75634">
        <ele>136.4</ele>
        <time>2023-07-14T08:16:07Z</time>
      </trkpt>
      <trkpt lat="47.49589" lon="0.75624">
        <ele>136.4</ele>
        <time>2023-07-14T08:16:08Z</time>
      </trkpt>
      <trkpt lat="47.4959" lon="0.75614">
        <ele>136.4</ele>
        <time>2023-07-14T08:16:09Z</time>
      </trkpt>
      <trkpt lat="47.4959" lon="0.75603">
        <ele>136.6</ele>
        <time>2023-07-14T08:16:10Z</time>
      </trkpt>
      <trkpt lat="47.49591" lon="0.75593">
        <ele>136.4</ele>
        <time>2023-07-14T08:16:11Z</time>
      </trkpt>
      <trkpt lat="47.49591" lon="0.75584">
        <ele>136.2</ele>
        <time>2023-07-14T08:16:12Z</time>
      </trkpt>
      <trkpt lat="47.49592" lon="0.75573">
        <ele>136.2</ele>
        <time>2023-07-14T08:16:13Z</time>
      </trkpt>
      <trkpt lat="47.49592" lon="0.75563">
        <ele>136.2</ele>
        <time>2023-07-14T08:16:14Z</time>
      </trkpt>
      <trkpt lat="47.49593" lon="0.75553">
        <ele>136.2</ele>
        <time>2023-07-14T08:16:15Z</time>
      </trkpt>
      <trkpt lat="47.49593" lon="0.75542">
        <ele>136.2</ele>
        <time>2023-07-14T08:16:16Z</time>
      </trkpt>
      <trkpt lat="47.49594" lon="0.75532">
        <ele>136</ele>
        <time>2023-07-14T08:16:17Z</time>
      </trkpt>
      <trkpt lat="47.49594" lon="0.75522">
        <ele>136</ele>
        <time>2023-07-14T08:16:18Z</time>
      </trkpt>
      <trkpt lat="47.49594" lon="0.75511">
        <ele>135.8</ele>
        <time>2023-07-14T08:16:19Z</time>
      </trkpt>
      <trkpt lat="47.49595" lon="0.755">
        <ele>135.8</ele>
        <time>2023-07-14T08:16:20Z</time>
      </trkpt>
      <trkpt lat="47.49596" lon="0.7549">
        <ele>135.6</ele>
        <time>2023-07-14T08:16:21Z</time>
      </trkpt>
      <trkpt lat="47.49596" lon="0.75478">
        <ele>135.4</ele>
        <time>2023-07-14T08:16:22Z</time>
      </trkpt>
      <trkpt lat="47.49597" lon="0.75467">
        <ele>135.4</ele>
        <time>2023-07-14T08:16:23Z</time>
      </trkpt>
      <trkpt lat="47.49597" lon="0.75457">
        <ele>135.4</ele>
        <time>2023-07-14T08:16:24Z</time>
      </trkpt>
      <trkpt lat="47.49598" lon="0.75447">
        <ele>135.4</ele>
        <time>2023-07-14T08:16:25Z</time>
      </trkpt>
      <trkpt lat="47.49599" lon="0.75434">
        <ele>135.2</ele>
        <time>2023-07-14T08:16:26Z</time>
      </trkpt>
      <trkpt lat="47.49599" lon="0.75421">
        <ele>135</ele>
        <time>2023-07-14T08:16:27Z</time>
      </trkpt>
      <trkpt lat="47.496" lon="0.75409">
        <ele>135</ele>
        <time>2023-07-14T08:16:28Z</time>
      </trkpt>
      <trkpt lat="47.496" lon="0.75399">
        <ele>135</ele>
        <time>2023-07-14T08:16:29Z</time>
      </trkpt>
      <trkpt lat="47.49601" lon="0.75388">
        <ele>134.8</ele>
        <time>2023-07-14T08:16:30Z</time>
      </trkpt>
      <trkpt lat="47.49601" lon="0.75374">
        <ele>134.6</ele>
        <time>2023-07-14T08:16:31Z</time>
      </trkpt>
      <trkpt lat="47.49602" lon="0.75362">
        <ele>134.6</ele>
        <time>2023-07-14T08:16:32Z</time>
      </trkpt>
      <trkpt lat="47.49603" lon="0.7535">
        <ele>134.4</ele>
        <time>2023-07-14T08:16:33Z</time>
      </trkpt>
      <trkpt lat="47.49603" lon="0.75338">
        <ele>134.4</ele>
        <time>2023-07-14T08:16:34Z</time>
      </trkpt>
      <trkpt lat="47.49604" lon="0.75326">
        <ele>134.4</ele>
        <time>2023-07-14T08:16:35Z</time>
      </trkpt>
      <trkpt lat="47.49604" lon="0.75315">
        <ele>134.2</ele>
        <time>2023-07-14T08:16:36Z</time>
      </trkpt>
      <trkpt lat="47.49604" lon="0.75304">
        <ele>134.2</ele>
        <time>2023-07-14T08:16:37Z</time>
      </trkpt>
      <trkpt lat="47.49605" lon="0.75294">
        <ele>134.2</ele>
        <time>2023-07-14T08:16:38Z</time>
      </trkpt>
      <trkpt lat="47.49606" lon="0.75281">
        <ele>134.2</ele>
        <time>2023-07-14T08:16:39Z</time>
      </trkpt>
      <trkpt lat="47.49606" lon="0.75268">
        <ele>134.2</ele>
        <time>2023-07-14T08:16:40Z</time>
      </trkpt>
      <trkpt lat="47.49607" lon="0.75257">
        <ele>134</ele>
        <time>2023-07-14T08:16:41Z</time>
      </trkpt>
      <trkpt lat="47.49607" lon="0.75246">
        <ele>133.8</ele>
        <time>2023-07-14T08:16:42Z</time>
      </trkpt>
      <trkpt lat="47.49608" lon="0.75233">
        <ele>133.4</ele>
        <time>2023-07-14T08:16:43Z</time>
      </trkpt>
      <trkpt lat="47.49609" lon="0.75221">
        <ele>133.4</ele>
        <time>2023-07-14T08:16:44Z</time>
      </trkpt>
      <trkpt lat="47.49609" lon="0.75209">
        <ele>133.4</ele>
        <time>2023-07-14T08:16:45Z</time>
      </trkpt>
      <trkpt lat="47.49609" lon="0.75199">
        <ele>133</ele>
        <time>2023-07-14T08:16:46Z</time>
      </trkpt>
      <trkpt lat="47.4961" lon="0.75189">
        <ele>133</ele>
        <time>2023-07-14T08:16:47Z</time>
      </trkpt>
      <trkpt lat="47.49611" lon="0.75177">
        <ele>133</ele>
        <time>2023-07-14T08:16:48Z</time>
      </trkpt>
      <trkpt lat="47.49611" lon="0.75166">
        <ele>133</ele>
        <time>2023-07-14T08:16:49Z</time>
      </trkpt>
      <trkpt lat="47.49612" lon="0.75154">
        <ele>133</ele>
        <time>2023-07-14T08:16:50Z</time>
      </trkpt>
      <trkpt lat="47.49613" lon="0.75141">
        <ele>133</ele>
        <time>2023-07-14T08:16:51Z</time>
      </trkpt>
      <trkpt lat="47.49613" lon="0.75128">
        <ele>133</ele>
        <time>2023-07-14T08:16:52Z</time>
      </trkpt>
      <trkpt lat="47.49614" lon="0.75118">
        <ele>133</ele>
        <time>2023-07-14T08:16:53Z</time>
      </trkpt>
      <trkpt lat="47.49614" lon="0.75105">
        <ele>133</ele>
        <time>2023-07-14T08:16:54Z</time>
      </trkpt>
      <trkpt lat="47.49615" lon="0.75092">
        <ele>133</ele>
        <time>2023-07-14T08:16:55Z</time>
      </trkpt>
      <trkpt lat="47.49615" lon="0.7508">
        <ele>132.8</ele>
        <time>2023-07-14T08:16:56Z</time>
      </trkpt>
      <trkpt lat="47.49616" lon="0.75069">
        <ele>132.4</ele>
        <time>2023-07-14T08:16:57Z</time>
      </trkpt>
      <trkpt lat="47.49617" lon="0.75057">
        <ele>132.4</ele>
        <time>2023-07-14T08:16:58Z</time>
      </trkpt>
      <trkpt lat="47.49617" lon="0.75044">
        <ele>132.4</ele>
        <time>2023-07-14T08:16:59Z</time>
      </trkpt>
      <trkpt lat="47.49618" lon="0.75032">
        <ele>132.6</ele>
        <time>2023-07-14T08:17:00Z</time>
      </trkpt>
      <trkpt lat="47.49618" lon="0.75021">
        <ele>132.6</ele>
        <time>2023-07-14T08:17:01Z</time>
      </trkpt>
      <trkpt lat="47.49619" lon="0.7501">
        <ele>132.4</ele>
        <time>2023-07-14T08:17:02Z</time>
      </trkpt>
      <trkpt lat="47.49619" lon="0.74998">
        <ele>132.4</ele>
        <time>2023-07-14T08:17:03Z</time>
      </trkpt>
      <trkpt lat="47.4962" lon="0.74985">
        <ele>132.2</ele>
        <time>2023-07-14T08:17:04Z</time>
      </trkpt>
      <trkpt lat="47.4962" lon="0.74973">
        <ele>132</ele>
        <time>2023-07-14T08:17:05Z</time>
      </trkpt>
      <trkpt lat="47.49621" lon="0.74961">
        <ele>131.8</ele>
        <time>2023-07-14T08:17:06Z</time>
      </trkpt>
      <trkpt lat="47.49622" lon="0.7495">
        <ele>132</ele>
        <time>2023-07-14T08:17:07Z</time>
      </trkpt>
      <trkpt lat="47.49622" lon="0.74939">
        <ele>131.8</ele>
        <time>2023-07-14T08:17:08Z</time>
      </trkpt>
      <trkpt lat="47.49623" lon="0.74926">
        <ele>131.6</ele>
        <time>2023-07-14T08:17:09Z</time>
      </trkpt>
      <trkpt lat="47.49623" lon="0.74913">
        <ele>131.2</ele>
        <time>2023-07-14T08:17:10Z</time>
      </trkpt>
      <trkpt lat="47.49624" lon="0.74901">
        <ele>131.2</ele>
        <time>2023-07-14T08:17:11Z</time>
      </trkpt>
      <trkpt lat="47.49625" lon="0.74889">
        <ele>131</ele>
        <time>2023-07-14T08:17:12Z</time>
      </trkpt>
      <trkpt lat="47.49625" lon="0.74877">
        <ele>131</ele>
        <time>2023-07-14T08:17:13Z</time>
      </trkpt>
      <trkpt lat="47.49626" lon="0.74865">
        <ele>130.8</ele>
        <time>2023-07-14T08:17:14Z</time>
      </trkpt>
      <trkpt lat="47.49627" lon="0.74854">
        <ele>130.8</ele>
        <time>2023-07-14T08:17:15Z</time>
      </trkpt>
      <trkpt lat="47.49627" lon="0.74843">
        <ele>130.6</ele>
        <time>2023-07-14T08:17:16Z</time>
      </trkpt>
      <trkpt lat="47.49628" lon="0.74831">
        <ele>130.6</ele>
        <time>2023-07-14T08:17:17Z</time>
      </trkpt>
      <trkpt lat="47.49628" lon="0.74818">
        <ele>130.2</ele>
        <time>2023-07-14T08:17:18Z</time>
      </trkpt>
      <trkpt lat="47.49629" lon="0.74807">
        <ele>130</ele>
        <time>2023-07-14T08:17:19Z</time>
      </trkpt>
      <trkpt lat="47.4963" lon="0.74795">
        <ele>129.8</ele>
        <time>2023-07-14T08:17:20Z</time>
      </trkpt>
      <trkpt lat="47.49631" lon="0.74781">
        <ele>129.8</ele>
        <time>2023-07-14T08:17:21Z</time>
      </trkpt>
      <trkpt lat="47.49631" lon="0.74769">
        <ele>129.6</ele>
        <time>2023-07-14T08:17:22Z</time>
      </trkpt>
      <trkpt lat="47.49632" lon="0.74757">
        <ele>129.6</ele>
        <time>2023-07-14T08:17:23Z</time>
      </trkpt>
      <trkpt lat="47.49632" lon="0.74745">
        <ele>129.4</ele>
        <time>2023-07-14T08:17:24Z</time>
      </trkpt>
      <trkpt lat="47.49633" lon="0.74734">
        <ele>129.2</ele>
        <time>2023-07-14T08:17:25Z</time>
      </trkpt>
      <trkpt lat="47.49634" lon="0.74721">
        <ele>129</ele>
        <time>2023-07-14T08:17:26Z</time>
      </trkpt>
      <trkpt lat="47.49635" lon="0.74709">
        <ele>129</ele>
        <time>2023-07-14T08:17:27Z</time>
      </trkpt>
      <trkpt lat="47.49635" lon="0.74695">
        <ele>128.8</ele>
        <time>2023-07-14T08:17:28Z</time>
      </trkpt>
      <trkpt lat="47.49636" lon="0.7468">
        <ele>128.4</ele>
        <time>2023-07-14T08:17:29Z</time>
      </trkpt>
      <trkpt lat="47.49636" lon="0.74667">
        <ele>128.4</ele>
        <time>2023-07-14T08:17:30Z</time>
      </trkpt>
      <trkpt lat="47.49637" lon="0.74654">
        <ele>128</ele>
        <time>2023-07-14T08:17:31Z</time>
      </trkpt>
      <trkpt lat="47.49638" lon="0.74641">
        <ele>127.8</ele>
        <time>2023-07-14T08:17:32Z</time>
      </trkpt>
      <trkpt lat="47.49638" lon="0.74629">
        <ele>127.6</ele>
        <time>2023-07-14T08:17:33Z</time>
      </trkpt>
      <trkpt lat="47.49639" lon="0.74617">
        <ele>127.6</ele>
        <time>2023-07-14T08:17:34Z</time>
      </trkpt>
      <trkpt lat="47.4964" lon="0.74604">
        <ele>127.6</ele>
        <time>2023-07-14T08:17:35Z</time>
      </trkpt>
      <trkpt lat="47.4964" lon="0.7459">
        <ele>127.6</ele>
        <time>2023-07-14T08:17:36Z</time>
      </trkpt>
      <trkpt lat="47.49641" lon="0.74579">
        <ele>127.6</ele>
        <time>2023-07-14T08:17:37Z</time>
      </trkpt>
      <trkpt lat="47.49641" lon="0.74567">
        <ele>127.4</ele>
        <time>2023-07-14T08:17:38Z</time>
      </trkpt>
      <trkpt lat="47.49641" lon="0.74554">
        <ele>127</ele>
        <time>2023-07-14T08:17:39Z</time>
      </trkpt>
      <trkpt lat="47.49642" lon="0.74542">
        <ele>127</ele>
        <time>2023-07-14T08:17:40Z</time>
      </trkpt>
      <trkpt lat="47.49643" lon="0.74529">
        <ele>127</ele>
        <time>2023-07-14T08:17:41Z</time>
      </trkpt>
      <trkpt lat="47.49643" lon="0.74517">
        <ele>127</ele>
        <time>2023-07-14T08:17:42Z</time>
      </trkpt>
      <trkpt lat="47.49644" lon="0.74504">
        <ele>126.8</ele>
        <time>2023-07-14T08:17:43Z</time>
      </trkpt>
      <trkpt lat="47.49644" lon="0.74493">
        <ele>127</ele>
        <time>2023-07-14T08:17:44Z</time>
      </trkpt>
      <trkpt lat="47.49645" lon="0.74481">
        <ele>126.8</ele>
        <time>2023-07-14T08:17:45Z</time>
      </trkpt>
      <trkpt lat="47.49646" lon="0.74467">
        <ele>127</ele>
        <time>2023-07-14T08:17:46Z</time>
      </trkpt>
      <trkpt lat="47.49646" lon="0.74456">
        <ele>127.2</ele>
        <time>2023-07-14T08:17:47Z</time>
      </trkpt>
      <trkpt lat="47.49646" lon="0.74446">
        <ele>127.2</ele>
        <time>2023-07-14T08:17:48Z</time>
      </trkpt>
      <trkpt lat="47.49647" lon="0.74434">
        <ele>127.6</ele>
        <time>2023-07-14T08:17:49Z</time>
      </trkpt>
      <trkpt lat="47.49648" lon="0.74421">
        <ele>127.8</ele>
        <time>2023-07-14T08:17:50Z</time>
      </trkpt>
      <trkpt lat="47.49648" lon="0.74408">
        <ele>127.8</ele>
        <time>2023-07-14T08:17:51Z</time>
      </trkpt>
      <trkpt lat="47.49649" lon="0.74397">
        <ele>127.8</ele>
        <time>2023-07-14T08:17:52Z</time>
      </trkpt>
      <trkpt lat="47.49649" lon="0.74387">
        <ele>127.8</ele>
        <time>2023-07-14T08:17:53Z</time>
      </trkpt>
      <trkpt lat="47.4965" lon="0.74376">
        <ele>128</ele>
        <time>2023-07-14T08:17:54Z</time>
      </trkpt>
      <trkpt lat="47.49651" lon="0.74364">
        <ele>128</ele>
        <time>2023-07-14T08:17:55Z</time>
      </trkpt>
      <trkpt lat="47.49651" lon="0.74353">
        <ele>128</ele>
        <time>2023-07-14T08:17:56Z</time>
      </trkpt>
      <trkpt lat="47.49652" lon="0.74343">
        <ele>128.2</ele>
        <time>2023-07-14T08:17:57Z</time>
      </trkpt>
      <trkpt lat="47.49652" lon="0.74332">
        <ele>128.6</ele>
        <time>2023-07-14T08:17:58Z</time>
      </trkpt>
      <trkpt lat="47.49653" lon="0.74322">
        <ele>128.8</ele>
        <time>2023-07-14T08:17:59Z</time>
      </trkpt>
      <trkpt lat="47.49653" lon="0.74312">
        <ele>129.2</ele>
        <time>2023-07-14T08:18:00Z</time>
      </trkpt>
      <trkpt lat="47.49654" lon="0.74303">
        <ele>129.4</ele>
        <time>2023-07-14T08:18:01Z</time>
      </trkpt>
      <trkpt lat="47.49654" lon="0.74294">
        <ele>129.4</ele>
        <time>2023-07-14T08:18:02Z</time>
      </trkpt>
      <trkpt lat="47.49654" lon="0.74284">
        <ele>129.6</ele>
        <time>2023-07-14T08:18:03Z</time>
      </trkpt>
      <trkpt lat="47.49655" lon="0.74273">
        <ele>129.6</ele>
        <time>2023-07-14T08:18:04Z</time>
      </trkpt>
      <trkpt lat="47.49656" lon="0.74264">
        <ele>129.6</ele>
        <time>2023-07-14T08:18:05Z</time>
      </trkpt>
      <trkpt lat="47.49656" lon="0.74255">
        <ele>129.6</ele>
        <time>2023-07-14T08:18:06Z</time>
      </trkpt>
      <trkpt lat="47.49656" lon="0.74246">
        <ele>129.8</ele>
        <time>2023-07-14T08:18:07Z</time>
      </trkpt>
      <trkpt lat="47.49656" lon="0.74237">
        <ele>130</ele>
        <time>2023-07-14T08:18:08Z</time>
      </trkpt>
      <trkpt lat="47.49657" lon="0.74226">
        <ele>130.2</ele>
        <time>2023-07-14T08:18:09Z</time>
      </trkpt>
      <trkpt lat="47.49657" lon="0.74216">
        <ele>130.4</ele>
        <time>2023-07-14T08:18:10Z</time>
      </trkpt>
      <trkpt lat="47.49657" lon="0.74208">
        <ele>130.6</ele>
        <time>2023-07-14T08:18:11Z</time>
      </trkpt>
      <trkpt lat="47.49658" lon="0.74198">
        <ele>130.8</ele>
        <time>2023-07-14T08:18:12Z</time>
      </trkpt>
      <trkpt lat="47.49659" lon="0.74189">
        <ele>131</ele>
        <time>2023-07-14T08:18:13Z</time>
      </trkpt>
      <trkpt lat="47.49659" lon="0.7418">
        <ele>131.2</ele>
        <time>2023-07-14T08:18:14Z</time>
      </trkpt>
      <trkpt lat="47.4966" lon="0.74171">
        <ele>131.4</ele>
        <time>2023-07-14T08:18:15Z</time>
      </trkpt>
      <trkpt lat="47.4966" lon="0.74162">
        <ele>131.4</ele>
        <time>2023-07-14T08:18:16Z</time>
      </trkpt>
      <trkpt lat="47.4966" lon="0.74153">
        <ele>131.8</ele>
        <time>2023-07-14T08:18:17Z</time>
      </trkpt>
      <trkpt lat="47.49661" lon="0.74143">
        <ele>132.2</ele>
        <time>2023-07-14T08:18:18Z</time>
      </trkpt>
      <trkpt lat="47.49661" lon="0.74133">
        <ele>132.2</ele>
        <time>2023-07-14T08:18:19Z</time>
      </trkpt>
      <trkpt lat="47.49662" lon="0.74125">
        <ele>132.4</ele>
        <time>2023-07-14T08:18:20Z</time>
      </trkpt>
      <trkpt lat="47.49662" lon="0.74118">
        <ele>132.6</ele>
        <time>2023-07-14T08:18:21Z</time>
      </trkpt>
      <trkpt lat="47.49663" lon="0.74108">
        <ele>132.8</ele>
        <time>2023-07-14T08:18:22Z</time>
      </trkpt>
      <trkpt lat="47.49663" lon="0.74097">
        <ele>133</ele>
        <time>2023-07-14T08:18:23Z</time>
      </trkpt>
      <trkpt lat="47.49664" lon="0.74088">
        <ele>133</ele>
        <time>2023-07-14T08:18:24Z</time>
      </trkpt>
      <trkpt lat="47.49664" lon="0.7408">
        <ele>133.2</ele>
        <time>2023-07-14T08:18:25Z</time>
      </trkpt>
      <trkpt lat="47.49664" lon="0.74072">
        <ele>133.6</ele>
        <time>2023-07-14T08:18:26Z</time>
      </trkpt>
      <trkpt lat="47.49665" lon="0.74062">
        <ele>133.8</ele>
        <time>2023-07-14T08:18:27Z</time>
      </trkpt>
      <trkpt lat="47.49665" lon="0.74051">
        <ele>134</ele>
        <time>2023-07-14T08:18:28Z</time>
      </trkpt>
      <trkpt lat="47.49666" lon="0.74043">
        <ele>134.2</ele>
        <time>2023-07-14T08:18:29Z</time>
      </trkpt>
      <trkpt lat="47.49667" lon="0.74035">
        <ele>134.2</ele>
        <time>2023-07-14T08:18:30Z</time>
      </trkpt>
      <trkpt lat="47.49667" lon="0.74026">
        <ele>134.4</ele>
        <time>2023-07-14T08:18:31Z</time>
      </trkpt>
      <trkpt lat="47.49667" lon="0.74016">
        <ele>134.6</ele>
        <time>2023-07-14T08:18:32Z</time>
      </trkpt>
      <trkpt lat="47.49668" lon="0.74006">
        <ele>134.6</ele>
        <time>2023-07-14T08:18:33Z</time>
      </trkpt>
      <trkpt lat="47.49668" lon="0.73998">
        <ele>134.8</ele>
        <time>2023-07-14T08:18:34Z</time>
      </trkpt>
      <trkpt lat="47.49668" lon="0.7399">
        <ele>135</ele>
        <time>2023-07-14T08:18:35Z</time>
      </trkpt>
      <trkpt lat="47.49669" lon="0.7398">
        <ele>135.2</ele>
        <time>2023-07-14T08:18:36Z</time>
      </trkpt>
      <trkpt lat="47.49669" lon="0.73971">
        <ele>135.4</ele>
        <time>2023-07-14T08:18:37Z</time>
      </trkpt>
      <trkpt lat="47.4967" lon="0.73962">
        <ele>135.4</ele>
        <time>2023-07-14T08:18:38Z</time>
      </trkpt>
      <trkpt lat="47.4967" lon="0.73953">
        <ele>135.6</ele>
        <time>2023-07-14T08:18:39Z</time>
      </trkpt>
      <trkpt lat="47.49671" lon="0.73943">
        <ele>135.8</ele>
        <time>2023-07-14T08:18:40Z</time>
      </trkpt>
      <trkpt lat="47.49671" lon="0.73934">
        <ele>136</ele>
        <time>2023-07-14T08:18:41Z</time>
      </trkpt>
      <trkpt lat="47.49672" lon="0.73924">
        <ele>136</ele>
        <time>2023-07-14T08:18:42Z</time>
      </trkpt>
      <trkpt lat="47.49672" lon="0.73915">
        <ele>136.2</ele>
        <time>2023-07-14T08:18:43Z</time>
      </trkpt>
      <trkpt lat="47.49673" lon="0.73907">
        <ele>136.2</ele>
        <time>2023-07-14T08:18:44Z</time>
      </trkpt>
      <trkpt lat="47.49673" lon="0.73897">
        <ele>136.2</ele>
        <time>2023-07-14T08:18:45Z</time>
      </trkpt>
      <trkpt lat="47.49673" lon="0.73886">
        <ele>136.2</ele>
        <time>2023-07-14T08:18:46Z</time>
      </trkpt>
      <trkpt lat="47.49674" lon="0.73877">
        <ele>136</ele>
        <time>2023-07-14T08:18:47Z</time>
      </trkpt>
      <trkpt lat="47.49675" lon="0.73869">
        <ele>136.2</ele>
        <time>2023-07-14T08:18:48Z</time>
      </trkpt>
      <trkpt lat="47.49675" lon="0.73859">
        <ele>136.2</ele>
        <time>2023-07-14T08:18:49Z</time>
      </trkpt>
      <trkpt lat="47.49676" lon="0.73849">
        <ele>136.4</ele>
        <time>2023-07-14T08:18:50Z</time>
      </trkpt>
      <trkpt lat="47.49676" lon="0.73838">
        <ele>136.4</ele>
        <time>2023-07-14T08:18:51Z</time>
      </trkpt>
      <trkpt lat="47.49677" lon="0.73828">
        <ele>136.2</ele>
        <time>2023-07-14T08:18:52Z</time>
      </trkpt>
      <trkpt lat="47.49677" lon="0.73819">
        <ele>136.4</ele>
        <time>2023-07-14T08:18:53Z</time>
      </trkpt>
      <trkpt lat="47.49677" lon="0.73808">
        <ele>136.2</ele>
        <time>2023-07-14T08:18:54Z</time>
      </trkpt>
      <trkpt lat="47.49678" lon="0.73798">
        <ele>136.2</ele>
        <time>2023-07-14T08:18:55Z</time>
      </trkpt>
      <trkpt lat="47.49679" lon="0.73788">
        <ele>136.2</ele>
        <time>2023-07-14T08:18:56Z</time>
      </trkpt>
      <trkpt lat="47.49679" lon="0.73778">
        <ele>136.2</ele>
        <time>2023-07-14T08:18:57Z</time>
      </trkpt>
      <trkpt lat="47.4968" lon="0.73767">
        <ele>136</ele>
        <time>2023-07-14T08:18:58Z</time>
      </trkpt>
      <trkpt lat="47.4968" lon="0.73757">
        <ele>135.8</ele>
        <time>2023-07-14T08:18:59Z</time>
      </trkpt>
      <trkpt lat="47.49681" lon="0.73746">
        <ele>135.8</ele>
        <time>2023-07-14T08:19:00Z</time>
      </trkpt>
      <trkpt lat="47.49681" lon="0.73736">
        <ele>135.8</ele>
        <time>2023-07-14T08:19:01Z</time>
      </trkpt>
      <trkpt lat="47.49681" lon="0.73724">
        <ele>135.8</ele>
        <time>2023-07-14T08:19:02Z</time>
      </trkpt>
      <trkpt lat="47.49682" lon="0.73714">
        <ele>135.8</ele>
        <time>2023-07-14T08:19:03Z</time>
      </trkpt>
      <trkpt lat="47.49683" lon="0.73704">
        <ele>135.8</ele>
        <time>2023-07-14T08:19:04Z</time>
      </trkpt>
      <trkpt lat="47.49683" lon="0.73693">
        <ele>135.8</ele>
        <time>2023-07-14T08:19:05Z</time>
      </trkpt>
      <trkpt lat="47.49684" lon="0.73681">
        <ele>135.6</ele>
        <time>2023-07-14T08:19:06Z</time>
      </trkpt>
      <trkpt lat="47.49684" lon="0.73671">
        <ele>135.6</ele>
        <time>2023-07-14T08:19:07Z</time>
      </trkpt>
      <trkpt lat="47.49685" lon="0.7366">
        <ele>135.6</ele>
        <time>2023-07-14T08:19:08Z</time>
      </trkpt>
      <trkpt lat="47.49685" lon="0.7365">
        <ele>135.6</ele>
        <time>2023-07-14T08:19:09Z</time>
      </trkpt>
      <trkpt lat="47.49685" lon="0.7364">
        <ele>135.6</ele>
        <time>2023-07-14T08:19:10Z</time>
      </trkpt>
      <trkpt lat="47.49686" lon="0.7363">
        <ele>135.6</ele>
        <time>2023-07-14T08:19:11Z</time>
      </trkpt>
      <trkpt lat="47.49686" lon="0.73619">
        <ele>135.6</ele>
        <time>2023-07-14T08:19:12Z</time>
      </trkpt>
      <trkpt lat="47.49687" lon="0.73608">
        <ele>135.6</ele>
        <time>2023-07-14T08:19:13Z</time>
      </trkpt>
      <trkpt lat="47.49688" lon="0.73597">
        <ele>135.6</ele>
        <time>2023-07-14T08:19:14Z</time>
      </trkpt>
      <trkpt lat="47.49688" lon="0.73586">
        <ele>135.4</ele>
        <time>2023-07-14T08:19:15Z</time>
      </trkpt>
      <trkpt lat="47.49689" lon="0.73574">
        <ele>135.4</ele>
        <time>2023-07-14T08:19:16Z</time>
      </trkpt>
      <trkpt lat="47.49689" lon="0.73561">
        <ele>135.6</ele>
        <time>2023-07-14T08:19:17Z</time>
      </trkpt>
      <trkpt lat="47.49689" lon="0.73551">
        <ele>135.6</ele>
        <time>2023-07-14T08:19:18Z</time>
      </trkpt>
      <trkpt lat="47.4969" lon="0.73542">
        <ele>135.6</ele>
        <time>2023-07-14T08:19:19Z</time>
      </trkpt>
      <trkpt lat="47.49691" lon="0.7353">
        <ele>135.4</ele>
        <time>2023-07-14T08:19:20Z</time>
      </trkpt>
      <trkpt lat="47.49691" lon="0.73518">
        <ele>135.2</ele>
        <time>2023-07-14T08:19:21Z</time>
      </trkpt>
      <trkpt lat="47.49691" lon="0.73507">
        <ele>135.2</ele>
        <time>2023-07-14T08:19:22Z</time>
      </trkpt>
      <trkpt lat="47.49692" lon="0.73497">
        <ele>134.8</ele>
        <time>2023-07-14T08:19:23Z</time>
      </trkpt>
      <trkpt lat="47.49693" lon="0.73485">
        <ele>134.8</ele>
        <time>2023-07-14T08:19:24Z</time>
      </trkpt>
      <trkpt lat="47.49693" lon="0.73463">
        <ele>134.8</ele>
        <time>2023-07-14T08:19:26Z</time>
      </trkpt>
      <trkpt lat="47.49694" lon="0.73441">
        <ele>135</ele>
        <time>2023-07-14T08:19:28Z</time>
      </trkpt>
      <trkpt lat="47.49695" lon="0.73419">
        <ele>134.6</ele>
        <time>2023-07-14T08:19:30Z</time>
      </trkpt>
      <trkpt lat="47.49695" lon="0.73398">
        <ele>134</ele>
        <time>2023-07-14T08:19:32Z</time>
      </trkpt>
      <trkpt lat="47.49696" lon="0.73376">
        <ele>133.8</ele>
        <time>2023-07-14T08:19:34Z</time>
      </trkpt>
      <trkpt lat="47.49696" lon="0.73354">
        <ele>133.6</ele>
        <time>2023-07-14T08:19:36Z</time>
      </trkpt>
      <trkpt lat="47.49695" lon="0.73333">
        <ele>133.6</ele>
        <time>2023-07-14T08:19:38Z</time>
      </trkpt>
      <trkpt lat="47.49694" lon="0.733">
        <ele>133.4</ele>
        <time>2023-07-14T08:19:41Z</time>
      </trkpt>
      <trkpt lat="47.49692" lon="0.73255">
        <ele>133.4</ele>
        <time>2023-07-14T08:19:45Z</time>
      </trkpt>
      <trkpt lat="47.49689" lon="0.7321">
        <ele>133.2</ele>
        <time>2023-07-14T08:19:49Z</time>
      </trkpt>
      <trkpt lat="47.49684" lon="0.73165">
        <ele>133.2</ele>
        <time>2023-07-14T08:19:53Z</time>
      </trkpt>
      <trkpt lat="47.49681" lon="0.73121">
        <ele>133.2</ele>
        <time>2023-07-14T08:19:57Z</time>
      </trkpt>
      <trkpt lat="47.49677" lon="0.73077">
        <ele>133</ele>
        <time>2023-07-14T08:20:01Z</time>
      </trkpt>
      <trkpt lat="47.49673" lon="0.73033">
        <ele>132.6</ele>
        <time>2023-07-14T08:20:05Z</time>
      </trkpt>
      <trkpt lat="47.4967" lon="0.72984">
        <ele>132.2</ele>
        <time>2023-07-14T08:20:09Z</time>
      </trkpt>
      <trkpt lat="47.49666" lon="0.7294">
        <ele>131.2</ele>
        <time>2023-07-14T08:20:13Z</time>
      </trkpt>
      <trkpt lat="47.49661" lon="0.72892">
        <ele>130.2</ele>
        <time>2023-07-14T08:20:17Z</time>
      </trkpt>
      <trkpt lat="47.49659" lon="0.72867">
        <ele>129.8</ele>
        <time>2023-07-14T08:20:19Z</time>
      </trkpt>
      <trkpt lat="47.49657" lon="0.72842">
        <ele>129.4</ele>
        <time>2023-07-14T08:20:21Z</time>
      </trkpt>
      <trkpt lat="47.49654" lon="0.72815">
        <ele>129</ele>
        <time>2023-07-14T08:20:23Z</time>
      </trkpt>
      <trkpt lat="47.49651" lon="0.72788">
        <ele>128.8</ele>
        <time>2023-07-14T08:20:25Z</time>
      </trkpt>
      <trkpt lat="47.49648" lon="0.72761">
        <ele>128.4</ele>
        <time>2023-07-14T08:20:27Z</time>
      </trkpt>
      <trkpt lat="47.49646" lon="0.72735">
        <ele>127.8</ele>
        <time>2023-07-14T08:20:29Z</time>
      </trkpt>
      <trkpt lat="47.49641" lon="0.72683">
        <ele>126.8</ele>
        <time>2023-07-14T08:20:33Z</time>
      </trkpt>
      <trkpt lat="47.49636" lon="0.72628">
        <ele>126</ele>
        <time>2023-07-14T08:20:37Z</time>
      </trkpt>
      <trkpt lat="47.49632" lon="0.72575">
        <ele>125.4</ele>
        <time>2023-07-14T08:20:41Z</time>
      </trkpt>
      <trkpt lat="47.49627" lon="0.72524">
        <ele>124.2</ele>
        <time>2023-07-14T08:20:45Z</time>
      </trkpt>
      <trkpt lat="47.49623" lon="0.72474">
        <ele>123.4</ele>
        <time>2023-07-14T08:20:49Z</time>
      </trkpt>
      <trkpt lat="47.49619" lon="0.72423">
        <ele>122.8</ele>
        <time>2023-07-14T08:20:53Z</time>
      </trkpt>
      <trkpt lat="47.49615" lon="0.72374">
        <ele>122.4</ele>
        <time>2023-07-14T08:20:57Z</time>
      </trkpt>
      <trkpt lat="47.49611" lon="0.72321">
        <ele>122.4</ele>
        <time>2023-07-14T08:21:01Z</time>
      </trkpt>
      <trkpt lat="47.49606" lon="0.72269">
        <ele>122</ele>
        <time>2023-07-14T08:21:05Z</time>
      </trkpt>
      <trkpt lat="47.496" lon="0.7219">
        <ele>120.8</ele>
        <time>2023-07-14T08:21:11Z</time>
      </trkpt>
      <trkpt lat="47.4959" lon="0.72081">
        <ele>118</ele>
        <time>2023-07-14T08:21:19Z</time>
      </trkpt>
      <trkpt lat="47.4958" lon="0.71965">
        <ele>115.6</ele>
        <time>2023-07-14T08:21:27Z</time>
      </trkpt>
      <trkpt lat="47.49569" lon="0.71862">
        <ele>113.6</ele>
        <time>2023-07-14T08:21:34Z</time>
      </trkpt>
      <trkpt lat="47.49564" lon="0.71807">
        <ele>113</ele>
        <time>2023-07-14T08:21:38Z</time>
      </trkpt>
      <trkpt lat="47.49562" lon="0.71782">
        <ele>112.8</ele>
        <time>2023-07-14T08:21:40Z</time>
      </trkpt>
      <trkpt lat="47.49557" lon="0.71727">
        <ele>112.6</ele>
        <time>2023-07-14T08:21:44Z</time>
      </trkpt>
      <trkpt lat="47.49552" lon="0.7168">
        <ele>112.6</ele>
        <time>2023-07-14T08:21:48Z</time>
      </trkpt>
      <trkpt lat="47.49548" lon="0.71635">
        <ele>112.6</ele>
        <time>2023-07-14T08:21:52Z</time>
      </trkpt>
      <trkpt lat="47.49543" lon="0.71591">
        <ele>113.2</ele>
        <time>2023-07-14T08:21:56Z</time>
      </trkpt>
      <trkpt lat="47.49539" lon="0.71547">
        <ele>113.8</ele>
        <time>2023-07-14T08:22:00Z</time>
      </trkpt>
      <trkpt lat="47.49535" lon="0.71502">
        <ele>114.4</ele>
        <time>2023-07-14T08:22:04Z</time>
      </trkpt>
      <trkpt lat="47.49531" lon="0.71459">
        <ele>115</ele>
        <time>2023-07-14T08:22:08Z</time>
      </trkpt>
      <trkpt lat="47.49525" lon="0.71382">
        <ele>115.6</ele>
        <time>2023-07-14T08:22:15Z</time>
      </trkpt>
      <trkpt lat="47.49518" lon="0.71292">
        <ele>114.6</ele>
        <time>2023-07-14T08:22:23Z</time>
      </trkpt>
      <trkpt lat="47.49509" lon="0.71196">
        <ele>113.6</ele>
        <time>2023-07-14T08:22:31Z</time>
      </trkpt>
      <trkpt lat="47.49504" lon="0.71142">
        <ele>112.4</ele>
        <time>2023-07-14T08:22:35Z</time>
      </trkpt>
      <trkpt lat="47.495" lon="0.71085">
        <ele>110.6</ele>
        <time>2023-07-14T08:22:39Z</time>
      </trkpt>
      <trkpt lat="47.49493" lon="0.71023">
        <ele>108.6</ele>
        <time>2023-07-14T08:22:43Z</time>
      </trkpt>
      <trkpt lat="47.49492" lon="0.70995">
        <ele>108</ele>
        <time>2023-07-14T08:22:45Z</time>
      </trkpt>
      <trkpt lat="47.49489" lon="0.70959">
        <ele>107</ele>
        <time>2023-07-14T08:22:47Z</time>
      </trkpt>
      <trkpt lat="47.49487" lon="0.70925">
        <ele>106</ele>
        <time>2023-07-14T08:22:49Z</time>
      </trkpt>
      <trkpt lat="47.49484" lon="0.70893">
        <ele>105</ele>
        <time>2023-07-14T08:22:51Z</time>
      </trkpt>
      <trkpt lat="47.49483" lon="0.70861">
        <ele>103.8</ele>
        <time>2023-07-14T08:22:53Z</time>
      </trkpt>
      <trkpt lat="47.49484" lon="0.7083">
        <ele>102.4</ele>
        <time>2023-07-14T08:22:55Z</time>
      </trkpt>
      <trkpt lat="47.49483" lon="0.70799">
        <ele>101.4</ele>
        <time>2023-07-14T08:22:57Z</time>
      </trkpt>
      <trkpt lat="47.49483" lon="0.70767">
        <ele>100.6</ele>
        <time>2023-07-14T08:22:59Z</time>
      </trkpt>
      <trkpt lat="47.49484" lon="0.70737">
        <ele>99.4</ele>
        <time>2023-07-14T08:23:01Z</time>
      </trkpt>
      <trkpt lat="47.49485" lon="0.70708">
        <ele>98.6</ele>
        <time>2023-07-14T08:23:03Z</time>
      </trkpt>
      <trkpt lat="47.49486" lon="0.70675">
        <ele>97.4</ele>
        <time>2023-07-14T08:23:05Z</time>
      </trkpt>
      <trkpt lat="47.49487" lon="0.70645">
        <ele>96.4</ele>
        <time>2023-07-14T08:23:07Z</time>
      </trkpt>
      <trkpt lat="47.49487" lon="0.70631">
        <ele>95.8</ele>
        <time>2023-07-14T08:23:08Z</time>
      </trkpt>
      <trkpt lat="47.49488" lon="0.70614">
        <ele>95.4</ele>
        <time>2023-07-14T08:23:09Z</time>
      </trkpt>
      <trkpt lat="47.49488" lon="0.70596">
        <ele>95</ele>
        <time>2023-07-14T08:23:10Z</time>
      </trkpt>
      <trkpt lat="47.49488" lon="0.7058">
        <ele>94.6</ele>
        <time>2023-07-14T08:23:11Z</time>
      </trkpt>
      <trkpt lat="47.49488" lon="0.70565">
        <ele>94</ele>
        <time>2023-07-14T08:23:12Z</time>
      </trkpt>
      <trkpt lat="47.49488" lon="0.7055">
        <ele>93.6</ele>
        <time>2023-07-14T08:23:13Z</time>
      </trkpt>
      <trkpt lat="47.49488" lon="0.70535">
        <ele>93.2</ele>
        <time>2023-07-14T08:23:14Z</time>
      </trkpt>
      <trkpt lat="47.49486" lon="0.70518">
        <ele>92.8</ele>
        <time>2023-07-14T08:23:15Z</time>
      </trkpt>
      <trkpt lat="47.49484" lon="0.70502">
        <ele>92.4</ele>
        <time>2023-07-14T08:23:16Z</time>
      </trkpt>
      <trkpt lat="47.49482" lon="0.70489">
        <ele>91.8</ele>
        <time>2023-07-14T08:23:17Z</time>
      </trkpt>
      <trkpt lat="47.4948" lon="0.70475">
        <ele>91.4</ele>
        <time>2023-07-14T08:23:18Z</time>
      </trkpt>
      <trkpt lat="47.49479" lon="0.7046">
        <ele>90.8</ele>
        <time>2023-07-14T08:23:19Z</time>
      </trkpt>
      <trkpt lat="47.49476" lon="0.70447">
        <ele>90.4</ele>
        <time>2023-07-14T08:23:20Z</time>
      </trkpt>
      <trkpt lat="47.49474" lon="0.70433">
        <ele>89.8</ele>
        <time>2023-07-14T08:23:21Z</time>
      </trkpt>
      <trkpt lat="47.49471" lon="0.7042">
        <ele>89.6</ele>
        <time>2023-07-14T08:23:22Z</time>
      </trkpt>
      <trkpt lat="47.49469" lon="0.70409">
        <ele>89.4</ele>
        <time>2023-07-14T08:23:23Z</time>
      </trkpt>
      <trkpt lat="47.49467" lon="0.70397">
        <ele>89</ele>
        <time>2023-07-14T08:23:24Z</time>
      </trkpt>
      <trkpt lat="47.49465" lon="0.70384">
        <ele>88.8</ele>
        <time>2023-07-14T08:23:25Z</time>
      </trkpt>
      <trkpt lat="47.49463" lon="0.70373">
        <ele>88.4</ele>
        <time>2023-07-14T08:23:26Z</time>
      </trkpt>
      <trkpt lat="47.49461" lon="0.7036">
        <ele>88.2</ele>
        <time>2023-07-14T08:23:27Z</time>
      </trkpt>
      <trkpt lat="47.49458" lon="0.70348">
        <ele>88.2</ele>
        <time>2023-07-14T08:23:28Z</time>
      </trkpt>
      <trkpt lat="47.49456" lon="0.70337">
        <ele>88.2</ele>
        <time>2023-07-14T08:23:29Z</time>
      </trkpt>
      <trkpt lat="47.49453" lon="0.70326">
        <ele>88.2</ele>
        <time>2023-07-14T08:23:30Z</time>
      </trkpt>
      <trkpt lat="47.4945" lon="0.70315">
        <ele>88.2</ele>
        <time>2023-07-14T08:23:31Z</time>
      </trkpt>
      <trkpt lat="47.49446" lon="0.70304">
        <ele>88</ele>
        <time>2023-07-14T08:23:32Z</time>
      </trkpt>
      <trkpt lat="47.49441" lon="0.70293">
        <ele>88</ele>
        <time>2023-07-14T08:23:33Z</time>
      </trkpt>
      <trkpt lat="47.49437" lon="0.70282">
        <ele>87.8</ele>
        <time>2023-07-14T08:23:34Z</time>
      </trkpt>
      <trkpt lat="47.49432" lon="0.70272">
        <ele>87.8</ele>
        <time>2023-07-14T08:23:35Z</time>
      </trkpt>
      <trkpt lat="47.49428" lon="0.70261">
        <ele>87.8</ele>
        <time>2023-07-14T08:23:36Z</time>
      </trkpt>
      <trkpt lat="47.49424" lon="0.70252">
        <ele>87.6</ele>
        <time>2023-07-14T08:23:37Z</time>
      </trkpt>
      <trkpt lat="47.4942" lon="0.70241">
        <ele>87.6</ele>
        <time>2023-07-14T08:23:38Z</time>
      </trkpt>
      <trkpt lat="47.49416" lon="0.7023">
        <ele>87.6</ele>
        <time>2023-07-14T08:23:39Z</time>
      </trkpt>
      <trkpt lat="47.49411" lon="0.70219">
        <ele>87.8</ele>
        <time>2023-07-14T08:23:40Z</time>
      </trkpt>
      <trkpt lat="47.49407" lon="0.70209">
        <ele>88</ele>
        <time>2023-07-14T08:23:41Z</time>
      </trkpt>
      <trkpt lat="47.49403" lon="0.70199">
        <ele>88.2</ele>
        <time>2023-07-14T08:23:42Z</time>
      </trkpt>
      <trkpt lat="47.49399" lon="0.70189">
        <ele>88.2</ele>
        <time>2023-07-14T08:23:43Z</time>
      </trkpt>
      <trkpt lat="47.49395" lon="0.7018">
        <ele>88.2</ele>
        <time>2023-07-14T08:23:44Z</time>
      </trkpt>
      <trkpt lat="47.49392" lon="0.70171">
        <ele>88</ele>
        <time>2023-07-14T08:23:45Z</time>
      </trkpt>
      <trkpt lat="47.49388" lon="0.70162">
        <ele>88</ele>
        <time>2023-07-14T08:23:46Z</time>
      </trkpt>
      <trkpt lat="47.49384" lon="0.70152">
        <ele>87.8</ele>
        <time>2023-07-14T08:23:47Z</time>
      </trkpt>
      <trkpt lat="47.4938" lon="0.70142">
        <ele>87.8</ele>
        <time>2023-07-14T08:23:48Z</time>
      </trkpt>
      <trkpt lat="47.49376" lon="0.70132">
        <ele>87.8</ele>
        <time>2023-07-14T08:23:49Z</time>
      </trkpt>
      <trkpt lat="47.49372" lon="0.70122">
        <ele>87.6</ele>
        <time>2023-07-14T08:23:50Z</time>
      </trkpt>
      <trkpt lat="47.49368" lon="0.70111">
        <ele>87.6</ele>
        <time>2023-07-14T08:23:51Z</time>
      </trkpt>
      <trkpt lat="47.49364" lon="0.70101">
        <ele>87.6</ele>
        <time>2023-07-14T08:23:52Z</time>
      </trkpt>
      <trkpt lat="47.4936" lon="0.70091">
        <ele>87.4</ele>
        <time>2023-07-14T08:23:53Z</time>
      </trkpt>
      <trkpt lat="47.49356" lon="0.70082">
        <ele>87.2</ele>
        <time>2023-07-14T08:23:54Z</time>
      </trkpt>
      <trkpt lat="47.49352" lon="0.70073">
        <ele>87.2</ele>
        <time>2023-07-14T08:23:55Z</time>
      </trkpt>
      <trkpt lat="47.49348" lon="0.70063">
        <ele>87</ele>
        <time>2023-07-14T08:23:56Z</time>
      </trkpt>
      <trkpt lat="47.49343" lon="0.70053">
        <ele>87</ele>
        <time>2023-07-14T08:23:57Z</time>
      </trkpt>
      <trkpt lat="47.49339" lon="0.70043">
        <ele>87</ele>
        <time>2023-07-14T08:23:58Z</time>
      </trkpt>
      <trkpt lat="47.49335" lon="0.70034">
        <ele>87</ele>
        <time>2023-07-14T08:23:59Z</time>
      </trkpt>
      <trkpt lat="47.49331" lon="0.70025">
        <ele>87.2</ele>
        <time>2023-07-14T08:24:00Z</time>
      </trkpt>
      <trkpt lat="47.49327" lon="0.70015">
        <ele>87.4</ele>
        <time>2023-07-14T08:24:01Z</time>
      </trkpt>
      <trkpt lat="47.49323" lon="0.70006">
        <ele>87.4</ele>
        <time>2023-07-14T08:24:02Z</time>
      </trkpt>
      <trkpt lat="47.49319" lon="0.69997">
        <ele>87.4</ele>
        <time>2023-07-14T08:24:03Z</time>
      </trkpt>
      <trkpt lat="47.49316" lon="0.69988">
        <ele>87.4</ele>
        <time>2023-07-14T08:24:04Z</time>
      </trkpt>
      <trkpt lat="47.49313" lon="0.6998">
        <ele>87.6</ele>
        <time>2023-07-14T08:24:05Z</time>
      </trkpt>
      <trkpt lat="47.4931" lon="0.6997">
        <ele>87.8</ele>
        <time>2023-07-14T08:24:06Z</time>
      </trkpt>
      <trkpt lat="47.49306" lon="0.69959">
        <ele>87.8</ele>
        <time>2023-07-14T08:24:07Z</time>
      </trkpt>
      <trkpt lat="47.49304" lon="0.6995">
        <ele>87.8</ele>
        <time>2023-07-14T08:24:08Z</time>
      </trkpt>
      <trkpt lat="47.49301" lon="0.69942">
        <ele>87.8</ele>
        <time>2023-07-14T08:24:09Z</time>
      </trkpt>
      <trkpt lat="47.49297" lon="0.69933">
        <ele>88</ele>
        <time>2023-07-14T08:24:10Z</time>
      </trkpt>
      <trkpt lat="47.49294" lon="0.69924">
        <ele>88.2</ele>
        <time>2023-07-14T08:24:11Z</time>
      </trkpt>
      <trkpt lat="47.4929" lon="0.69914">
        <ele>88.2</ele>
        <time>2023-07-14T08:24:12Z</time>
      </trkpt>
      <trkpt lat="47.49286" lon="0.69905">
        <ele>88.4</ele>
        <time>2023-07-14T08:24:13Z</time>
      </trkpt>
      <trkpt lat="47.49283" lon="0.69897">
        <ele>88.4</ele>
        <time>2023-07-14T08:24:14Z</time>
      </trkpt>
      <trkpt lat="47.4928" lon="0.69889">
        <ele>88.4</ele>
        <time>2023-07-14T08:24:15Z</time>
      </trkpt>
      <trkpt lat="47.49276" lon="0.6988">
        <ele>88.4</ele>
        <time>2023-07-14T08:24:16Z</time>
      </trkpt>
      <trkpt lat="47.49273" lon="0.69872">
        <ele>88.4</ele>
        <time>2023-07-14T08:24:17Z</time>
      </trkpt>
      <trkpt lat="47.49269" lon="0.69864">
        <ele>88.4</ele>
        <time>2023-07-14T08:24:18Z</time>
      </trkpt>
      <trkpt lat="47.49267" lon="0.69856">
        <ele>88.4</ele>
        <time>2023-07-14T08:24:19Z</time>
      </trkpt>
      <trkpt lat="47.49264" lon="0.69848">
        <ele>88.6</ele>
        <time>2023-07-14T08:24:20Z</time>
      </trkpt>
      <trkpt lat="47.4926" lon="0.69839">
        <ele>88.8</ele>
        <time>2023-07-14T08:24:21Z</time>
      </trkpt>
      <trkpt lat="47.49257" lon="0.69832">
        <ele>88.8</ele>
        <time>2023-07-14T08:24:22Z</time>
      </trkpt>
      <trkpt lat="47.49254" lon="0.69825">
        <ele>88.8</ele>
        <time>2023-07-14T08:24:23Z</time>
      </trkpt>
      <trkpt lat="47.4925" lon="0.69816">
        <ele>89</ele>
        <time>2023-07-14T08:24:24Z</time>
      </trkpt>
      <trkpt lat="47.49247" lon="0.69808">
        <ele>89</ele>
        <time>2023-07-14T08:24:25Z</time>
      </trkpt>
      <trkpt lat="47.49244" lon="0.698">
        <ele>89.2</ele>
        <time>2023-07-14T08:24:26Z</time>
      </trkpt>
      <trkpt lat="47.49241" lon="0.69794">
        <ele>89.4</ele>
        <time>2023-07-14T08:24:27Z</time>
      </trkpt>
      <trkpt lat="47.49239" lon="0.69788">
        <ele>89.4</ele>
        <time>2023-07-14T08:24:28Z</time>
      </trkpt>
      <trkpt lat="47.49237" lon="0.69781">
        <ele>89.4</ele>
        <time>2023-07-14T08:24:29Z</time>
      </trkpt>
      <trkpt lat="47.49234" lon="0.69775">
        <ele>89.6</ele>
        <time>2023-07-14T08:24:30Z</time>
      </trkpt>
      <trkpt lat="47.49232" lon="0.69769">
        <ele>89.4</ele>
        <time>2023-07-14T08:24:31Z</time>
      </trkpt>
      <trkpt lat="47.49231" lon="0.69763">
        <ele>89.4</ele>
        <time>2023-07-14T08:24:32Z</time>
      </trkpt>
      <trkpt lat="47.49229" lon="0.69758">
        <ele>89.2</ele>
        <time>2023-07-14T08:24:33Z</time>
      </trkpt>
      <trkpt lat="47.49229" lon="0.69751">
        <ele>89.2</ele>
        <time>2023-07-14T08:24:34Z</time>
      </trkpt>
      <trkpt lat="47.49231" lon="0.69743">
        <ele>89</ele>
        <time>2023-07-14T08:24:35Z</time>
      </trkpt>
      <trkpt lat="47.49234" lon="0.69736">
        <ele>88.8</ele>
        <time>2023-07-14T08:24:36Z</time>
      </trkpt>
      <trkpt lat="47.49237" lon="0.69728">
        <ele>88.4</ele>
        <time>2023-07-14T08:24:37Z</time>
      </trkpt>
      <trkpt lat="47.49241" lon="0.6972">
        <ele>88</ele>
        <time>2023-07-14T08:24:38Z</time>
      </trkpt>
      <trkpt lat="47.49245" lon="0.69709">
        <ele>87.6</ele>
        <time>2023-07-14T08:24:39Z</time>
      </trkpt>
      <trkpt lat="47.49248" lon="0.697">
        <ele>87</ele>
        <time>2023-07-14T08:24:40Z</time>
      </trkpt>
      <trkpt lat="47.49252" lon="0.69691">
        <ele>86.6</ele>
        <time>2023-07-14T08:24:41Z</time>
      </trkpt>
      <trkpt lat="47.49256" lon="0.6968">
        <ele>86.2</ele>
        <time>2023-07-14T08:24:42Z</time>
      </trkpt>
      <trkpt lat="47.4926" lon="0.69672">
        <ele>85.8</ele>
        <time>2023-07-14T08:24:43Z</time>
      </trkpt>
      <trkpt lat="47.49264" lon="0.69662">
        <ele>85.6</ele>
        <time>2023-07-14T08:24:44Z</time>
      </trkpt>
      <trkpt lat="47.49269" lon="0.69654">
        <ele>85.2</ele>
        <time>2023-07-14T08:24:45Z</time>
      </trkpt>
      <trkpt lat="47.49275" lon="0.69647">
        <ele>84.8</ele>
        <time>2023-07-14T08:24:46Z</time>
      </trkpt>
      <trkpt lat="47.49282" lon="0.69641">
        <ele>84.8</ele>
        <time>2023-07-14T08:24:47Z</time>
      </trkpt>
      <trkpt lat="47.4929" lon="0.69635">
        <ele>84.6</ele>
        <time>2023-07-14T08:24:48Z</time>
      </trkpt>
      <trkpt lat="47.49298" lon="0.69629">
        <ele>84.6</ele>
        <time>2023-07-14T08:24:49Z</time>
      </trkpt>
      <trkpt lat="47.49305" lon="0.69625">
        <ele>84.6</ele>
        <time>2023-07-14T08:24:50Z</time>
      </trkpt>
      <trkpt lat="47.49312" lon="0.69621">
        <ele>84.6</ele>
        <time>2023-07-14T08:24:51Z</time>
      </trkpt>
      <trkpt lat="47.49319" lon="0.69616">
        <ele>84.6</ele>
        <time>2023-07-14T08:24:52Z</time>
      </trkpt>
      <trkpt lat="47.49326" lon="0.69612">
        <ele>84.6</ele>
        <time>2023-07-14T08:24:53Z</time>
      </trkpt>
      <trkpt lat="47.49333" lon="0.69607">
        <ele>84.6</ele>
        <time>2023-07-14T08:24:54Z</time>
      </trkpt>
      <trkpt lat="47.4934" lon="0.69603">
        <ele>84.8</ele>
        <time>2023-07-14T08:24:55Z</time>
      </trkpt>
      <trkpt lat="47.49346" lon="0.69599">
        <ele>84.8</ele>
        <time>2023-07-14T08:24:56Z</time>
      </trkpt>
      <trkpt lat="47.49353" lon="0.69595">
        <ele>84.8</ele>
        <time>2023-07-14T08:24:57Z</time>
      </trkpt>
      <trkpt lat="47.4936" lon="0.6959">
        <ele>84.8</ele>
        <time>2023-07-14T08:24:58Z</time>
      </trkpt>
      <trkpt lat="47.49366" lon="0.69587">
        <ele>84.8</ele>
        <time>2023-07-14T08:24:59Z</time>
      </trkpt>
      <trkpt lat="47.49373" lon="0.69583">
        <ele>84.8</ele>
        <time>2023-07-14T08:25:00Z</time>
      </trkpt>
      <trkpt lat="47.49379" lon="0.69579">
        <ele>84.6</ele>
        <time>2023-07-14T08:25:01Z</time>
      </trkpt>
      <trkpt lat="47.49386" lon="0.69576">
        <ele>84.6</ele>
        <time>2023-07-14T08:25:02Z</time>
      </trkpt>
      <trkpt lat="47.49393" lon="0.69572">
        <ele>84.6</ele>
        <time>2023-07-14T08:25:03Z</time>
      </trkpt>
      <trkpt lat="47.494" lon="0.69569">
        <ele>84.4</ele>
        <time>2023-07-14T08:25:04Z</time>
      </trkpt>
      <trkpt lat="47.49406" lon="0.69565">
        <ele>84.2</ele>
        <time>2023-07-14T08:25:05Z</time>
      </trkpt>
      <trkpt lat="47.49413" lon="0.69562">
        <ele>84</ele>
        <time>2023-07-14T08:25:06Z</time>
      </trkpt>
      <trkpt lat="47.49419" lon="0.69559">
        <ele>84</ele>
        <time>2023-07-14T08:25:07Z</time>
      </trkpt>
      <trkpt lat="47.49424" lon="0.69558">
        <ele>83.8</ele>
        <time>2023-07-14T08:25:08Z</time>
      </trkpt>
      <trkpt lat="47.49427" lon="0.69557">
        <ele>83.8</ele>
        <time>2023-07-14T08:25:09Z</time>
      </trkpt>
      <trkpt lat="47.49429" lon="0.69557">
        <ele>83.6</ele>
        <time>2023-07-14T08:25:10Z</time>
      </trkpt>
      <trkpt lat="47.49431" lon="0.69557">
        <ele>83.6</ele>
        <time>2023-07-14T08:25:11Z</time>
      </trkpt>
      <trkpt lat="47.49433" lon="0.69556">
        <ele>83.6</ele>
        <time>2023-07-14T08:25:12Z</time>
      </trkpt>
      <trkpt lat="47.49435" lon="0.69554">
        <ele>83.6</ele>
        <time>2023-07-14T08:25:13Z</time>
      </trkpt>
      <trkpt lat="47.49437" lon="0.69549">
        <ele>83.6</ele>
        <time>2023-07-14T08:25:14Z</time>
      </trkpt>
      <trkpt lat="47.49438" lon="0.69543">
        <ele>83.6</ele>
        <time>2023-07-14T08:25:15Z</time>
      </trkpt>
      <trkpt lat="47.4944" lon="0.69538">
        <ele>83.6</ele>
        <time>2023-07-14T08:25:16Z</time>
      </trkpt>
      <trkpt lat="47.49442" lon="0.69532">
        <ele>83.6</ele>
        <time>2023-07-14T08:25:17Z</time>
      </trkpt>
      <trkpt lat="47.49445" lon="0.69525">
        <ele>83.6</ele>
        <time>2023-07-14T08:25:18Z</time>
      </trkpt>
      <trkpt lat="47.49448" lon="0.69518">
        <ele>83.8</ele>
        <time>2023-07-14T08:25:19Z</time>
      </trkpt>
      <trkpt lat="47.4945" lon="0.69512">
        <ele>83.8</ele>
        <time>2023-07-14T08:25:20Z</time>
      </trkpt>
      <trkpt lat="47.49451" lon="0.69504">
        <ele>84</ele>
        <time>2023-07-14T08:25:21Z</time>
      </trkpt>
      <trkpt lat="47.4945" lon="0.69496">
        <ele>84.2</ele>
        <time>2023-07-14T08:25:22Z</time>
      </trkpt>
      <trkpt lat="47.49446" lon="0.69488">
        <ele>84.4</ele>
        <time>2023-07-14T08:25:23Z</time>
      </trkpt>
      <trkpt lat="47.49443" lon="0.69478">
        <ele>84.8</ele>
        <time>2023-07-14T08:25:24Z</time>
      </trkpt>
      <trkpt lat="47.4944" lon="0.69468">
        <ele>85</ele>
        <time>2023-07-14T08:25:25Z</time>
      </trkpt>
      <trkpt lat="47.49437" lon="0.69457">
        <ele>84.8</ele>
        <time>2023-07-14T08:25:26Z</time>
      </trkpt>
      <trkpt lat="47.49436" lon="0.69446">
        <ele>84.4</ele>
        <time>2023-07-14T08:25:27Z</time>
      </trkpt>
      <trkpt lat="47.49435" lon="0.69436">
        <ele>84.2</ele>
        <time>2023-07-14T08:25:28Z</time>
      </trkpt>
      <trkpt lat="47.49435" lon="0.69427">
        <ele>84.4</ele>
        <time>2023-07-14T08:25:29Z</time>
      </trkpt>
      <trkpt lat="47.49434" lon="0.69418">
        <ele>84.4</ele>
        <time>2023-07-14T08:25:30Z</time>
      </trkpt>
      <trkpt lat="47.49433" lon="0.69408">
        <ele>84.4</ele>
        <time>2023-07-14T08:25:31Z</time>
      </trkpt>
      <trkpt lat="47.49431" lon="0.69399">
        <ele>84.2</ele>
        <time>2023-07-14T08:25:32Z</time>
      </trkpt>
      <trkpt lat="47.49429" lon="0.69388">
        <ele>84</ele>
        <time>2023-07-14T08:25:33Z</time>
      </trkpt>
      <trkpt lat="47.49427" lon="0.69379">
        <ele>83.8</ele>
        <time>2023-07-14T08:25:34Z</time>
      </trkpt>
      <trkpt lat="47.49425" lon="0.6937">
        <ele>83.8</ele>
        <time>2023-07-14T08:25:35Z</time>
      </trkpt>
      <trkpt lat="47.49422" lon="0.6936">
        <ele>83.8</ele>
        <time>2023-07-14T08:25:36Z</time>
      </trkpt>
      <trkpt lat="47.49419" lon="0.6935">
        <ele>83.8</ele>
        <time>2023-07-14T08:25:37Z</time>
      </trkpt>
      <trkpt lat="47.49417" lon="0.69341">
        <ele>83.8</ele>
        <time>2023-07-14T08:25:38Z</time>
      </trkpt>
      <trkpt lat="47.49414" lon="0.69331">
        <ele>84</ele>
        <time>2023-07-14T08:25:39Z</time>
      </trkpt>
      <trkpt lat="47.49411" lon="0.69322">
        <ele>84</ele>
        <time>2023-07-14T08:25:40Z</time>
      </trkpt>
      <trkpt lat="47.49409" lon="0.69312">
        <ele>84.2</ele>
        <time>2023-07-14T08:25:41Z</time>
      </trkpt>
      <trkpt lat="47.49407" lon="0.69301">
        <ele>84.2</ele>
        <time>2023-07-14T08:25:42Z</time>
      </trkpt>
      <trkpt lat="47.49405" lon="0.69293">
        <ele>84.2</ele>
        <time>2023-07-14T08:25:43Z</time>
      </trkpt>
      <trkpt lat="47.49403" lon="0.69284">
        <ele>84.2</ele>
        <time>2023-07-14T08:25:44Z</time>
      </trkpt>
      <trkpt lat="47.494" lon="0.69273">
        <ele>84.4</ele>
        <time>2023-07-14T08:25:45Z</time>
      </trkpt>
      <trkpt lat="47.49397" lon="0.69262">
        <ele>84.4</ele>
        <time>2023-07-14T08:25:46Z</time>
      </trkpt>
      <trkpt lat="47.49395" lon="0.69253">
        <ele>84.6</ele>
        <time>2023-07-14T08:25:47Z</time>
      </trkpt>
      <trkpt lat="47.49392" lon="0.69244">
        <ele>84.6</ele>
        <time>2023-07-14T08:25:48Z</time>
      </trkpt>
      <trkpt lat="47.4939" lon="0.69236">
        <ele>84.6</ele>
        <time>2023-07-14T08:25:49Z</time>
      </trkpt>
      <trkpt lat="47.49387" lon="0.69228">
        <ele>84.6</ele>
        <time>2023-07-14T08:25:50Z</time>
      </trkpt>
      <trkpt lat="47.49383" lon="0.69218">
        <ele>84.6</ele>
        <time>2023-07-14T08:25:51Z</time>
      </trkpt>
      <trkpt lat="47.4938" lon="0.69211">
        <ele>84.6</ele>
        <time>2023-07-14T08:25:52Z</time>
      </trkpt>
      <trkpt lat="47.49376" lon="0.69203">
        <ele>84.6</ele>
        <time>2023-07-14T08:25:53Z</time>
      </trkpt>
      <trkpt lat="47.49371" lon="0.69195">
        <ele>84.8</ele>
        <time>2023-07-14T08:25:54Z</time>
      </trkpt>
      <trkpt lat="47.49367" lon="0.69187">
        <ele>84.8</ele>
        <time>2023-07-14T08:25:55Z</time>
      </trkpt>
      <trkpt lat="47.49362" lon="0.6918">
        <ele>84.8</ele>
        <time>2023-07-14T08:25:56Z</time>
      </trkpt>
      <trkpt lat="47.49357" lon="0.69172">
        <ele>84.6</ele>
        <time>2023-07-14T08:25:57Z</time>
      </trkpt>
      <trkpt lat="47.49352" lon="0.69163">
        <ele>84.6</ele>
        <time>2023-07-14T08:25:58Z</time>
      </trkpt>
      <trkpt lat="47.49347" lon="0.69155">
        <ele>84.8</ele>
        <time>2023-07-14T08:25:59Z</time>
      </trkpt>
      <trkpt lat="47.49342" lon="0.69147">
        <ele>84.8</ele>
        <time>2023-07-14T08:26:00Z</time>
      </trkpt>
      <trkpt lat="47.49337" lon="0.69139">
        <ele>84.6</ele>
        <time>2023-07-14T08:26:01Z</time>
      </trkpt>
      <trkpt lat="47.49332" lon="0.69132">
        <ele>84.6</ele>
        <time>2023-07-14T08:26:02Z</time>
      </trkpt>
      <trkpt lat="47.49328" lon="0.69124">
        <ele>84.6</ele>
        <time>2023-07-14T08:26:03Z</time>
      </trkpt>
      <trkpt lat="47.49324" lon="0.69116">
        <ele>84.6</ele>
        <time>2023-07-14T08:26:04Z</time>
      </trkpt>
      <trkpt lat="47.4932" lon="0.69108">
        <ele>84.6</ele>
        <time>2023-07-14T08:26:05Z</time>
      </trkpt>
      <trkpt lat="47.49316" lon="0.691">
        <ele>84.6</ele>
        <time>2023-07-14T08:26:06Z</time>
      </trkpt>
      <trkpt lat="47.49312" lon="0.69092">
        <ele>84.6</ele>
        <time>2023-07-14T08:26:07Z</time>
      </trkpt>
      <trkpt lat="47.49308" lon="0.69083">
        <ele>84.4</ele>
        <time>2023-07-14T08:26:08Z</time>
      </trkpt>
      <trkpt lat="47.49304" lon="0.69075">
        <ele>84.4</ele>
        <time>2023-07-14T08:26:09Z</time>
      </trkpt>
      <trkpt lat="47.493" lon="0.69067">
        <ele>84.6</ele>
        <time>2023-07-14T08:26:10Z</time>
      </trkpt>
      <trkpt lat="47.49295" lon="0.69058">
        <ele>84.8</ele>
        <time>2023-07-14T08:26:11Z</time>
      </trkpt>
      <trkpt lat="47.49292" lon="0.6905">
        <ele>84.8</ele>
        <time>2023-07-14T08:26:12Z</time>
      </trkpt>
      <trkpt lat="47.49288" lon="0.69043">
        <ele>84.8</ele>
        <time>2023-07-14T08:26:13Z</time>
      </trkpt>
      <trkpt lat="47.49284" lon="0.69036">
        <ele>84.8</ele>
        <time>2023-07-14T08:26:14Z</time>
      </trkpt>
      <trkpt lat="47.49281" lon="0.69028">
        <ele>85</ele>
        <time>2023-07-14T08:26:15Z</time>
      </trkpt>
      <trkpt lat="47.49277" lon="0.69021">
        <ele>85.2</ele>
        <time>2023-07-14T08:26:16Z</time>
      </trkpt>
      <trkpt lat="47.49274" lon="0.69014">
        <ele>85.2</ele>
        <time>2023-07-14T08:26:17Z</time>
      </trkpt>
      <trkpt lat="47.49269" lon="0.69006">
        <ele>85</ele>
        <time>2023-07-14T08:26:18Z</time>
      </trkpt>
      <trkpt lat="47.49264" lon="0.68998">
        <ele>84.8</ele>
        <time>2023-07-14T08:26:19Z</time>
      </trkpt>
      <trkpt lat="47.49258" lon="0.68992">
        <ele>84.6</ele>
        <time>2023-07-14T08:26:20Z</time>
      </trkpt>
      <trkpt lat="47.49251" lon="0.68986">
        <ele>84.4</ele>
        <time>2023-07-14T08:26:21Z</time>
      </trkpt>
      <trkpt lat="47.49245" lon="0.68981">
        <ele>84.4</ele>
        <time>2023-07-14T08:26:22Z</time>
      </trkpt>
      <trkpt lat="47.49238" lon="0.68976">
        <ele>84.6</ele>
        <time>2023-07-14T08:26:23Z</time>
      </trkpt>
      <trkpt lat="47.49231" lon="0.68971">
        <ele>84.8</ele>
        <time>2023-07-14T08:26:24Z</time>
      </trkpt>
      <trkpt lat="47.49224" lon="0.68967">
        <ele>84.6</ele>
        <time>2023-07-14T08:26:25Z</time>
      </trkpt>
      <trkpt lat="47.49218" lon="0.68962">
        <ele>84.8</ele>
        <time>2023-07-14T08:26:26Z</time>
      </trkpt>
      <trkpt lat="47.49211" lon="0.68958">
        <ele>84.8</ele>
        <time>2023-07-14T08:26:27Z</time>
      </trkpt>
      <trkpt lat="47.49204" lon="0.68953">
        <ele>84.6</ele>
        <time>2023-07-14T08:26:28Z</time>
      </trkpt>
      <trkpt lat="47.49199" lon="0.68947">
        <ele>84.6</ele>
        <time>2023-07-14T08:26:29Z</time>
      </trkpt>
      <trkpt lat="47.49192" lon="0.68941">
        <ele>84.6</ele>
        <time>2023-07-14T08:26:30Z</time>
      </trkpt>
      <trkpt lat="47.49187" lon="0.68934">
        <ele>84.6</ele>
        <time>2023-07-14T08:26:31Z</time>
      </trkpt>
      <trkpt lat="47.49181" lon="0.68927">
        <ele>84.4</ele>
        <time>2023-07-14T08:26:32Z</time>
      </trkpt>
      <trkpt lat="47.49176" lon="0.6892">
        <ele>84.4</ele>
        <time>2023-07-14T08:26:33Z</time>
      </trkpt>
      <trkpt lat="47.49172" lon="0.68912">
        <ele>84.2</ele>
        <time>2023-07-14T08:26:34Z</time>
      </trkpt>
      <trkpt lat="47.49168" lon="0.68905">
        <ele>84.2</ele>
        <time>2023-07-14T08:26:35Z</time>
      </trkpt>
      <trkpt lat="47.49164" lon="0.68896">
        <ele>84.2</ele>
        <time>2023-07-14T08:26:36Z</time>
      </trkpt>
      <trkpt lat="47.4916" lon="0.68887">
        <ele>84</ele>
        <time>2023-07-14T08:26:37Z</time>
      </trkpt>
      <trkpt lat="47.49157" lon="0.68876">
        <ele>84</ele>
        <time>2023-07-14T08:26:38Z</time>
      </trkpt>
      <trkpt lat="47.49153" lon="0.68865">
        <ele>84.2</ele>
        <time>2023-07-14T08:26:39Z</time>
      </trkpt>
      <trkpt lat="47.4915" lon="0.68856">
        <ele>84.2</ele>
        <time>2023-07-14T08:26:40Z</time>
      </trkpt>
      <trkpt lat="47.49148" lon="0.68847">
        <ele>84</ele>
        <time>2023-07-14T08:26:41Z</time>
      </trkpt>
      <trkpt lat="47.49145" lon="0.68837">
        <ele>83.8</ele>
        <time>2023-07-14T08:26:42Z</time>
      </trkpt>
      <trkpt lat="47.49142" lon="0.68827">
        <ele>83.8</ele>
        <time>2023-07-14T08:26:43Z</time>
      </trkpt>
      <trkpt lat="47.49139" lon="0.68816">
        <ele>83.8</ele>
        <time>2023-07-14T08:26:44Z</time>
      </trkpt>
      <trkpt lat="47.49137" lon="0.68807">
        <ele>83.8</ele>
        <time>2023-07-14T08:26:45Z</time>
      </trkpt>
      <trkpt lat="47.49134" lon="0.68799">
        <ele>83.6</ele>
        <time>2023-07-14T08:26:46Z</time>
      </trkpt>
      <trkpt lat="47.49131" lon="0.68788">
        <ele>83.6</ele>
        <time>2023-07-14T08:26:47Z</time>
      </trkpt>
      <trkpt lat="47.49128" lon="0.68778">
        <ele>83.6</ele>
        <time>2023-07-14T08:26:48Z</time>
      </trkpt>
      <trkpt lat="47.49126" lon="0.68768">
        <ele>83.6</ele>
        <time>2023-07-14T08:26:49Z</time>
      </trkpt>
      <trkpt lat="47.49123" lon="0.68759">
        <ele>83.6</ele>
        <time>2023-07-14T08:26:50Z</time>
      </trkpt>
      <trkpt lat="47.49121" lon="0.68749">
        <ele>83.6</ele>
        <time>2023-07-14T08:26:51Z</time>
      </trkpt>
      <trkpt lat="47.49118" lon="0.68739">
        <ele>83.8</ele>
        <time>2023-07-14T08:26:52Z</time>
      </trkpt>
      <trkpt lat="47.49115" lon="0.68731">
        <ele>83.8</ele>
        <time>2023-07-14T08:26:53Z</time>
      </trkpt>
      <trkpt lat="47.49112" lon="0.68721">
        <ele>84</ele>
        <time>2023-07-14T08:26:54Z</time>
      </trkpt>
      <trkpt lat="47.49109" lon="0.68711">
        <ele>83.8</ele>
        <time>2023-07-14T08:26:55Z</time>
      </trkpt>
      <trkpt lat="47.49107" lon="0.68701">
        <ele>83.6</ele>
        <time>2023-07-14T08:26:56Z</time>
      </trkpt>
      <trkpt lat="47.49104" lon="0.68692">
        <ele>83.6</ele>
        <time>2023-07-14T08:26:57Z</time>
      </trkpt>
      <trkpt lat="47.49101" lon="0.68683">
        <ele>83.4</ele>
        <time>2023-07-14T08:26:58Z</time>
      </trkpt>
      <trkpt lat="47.49099" lon="0.68674">
        <ele>83.4</ele>
        <time>2023-07-14T08:26:59Z</time>
      </trkpt>
      <trkpt lat="47.49096" lon="0.68664">
        <ele>83.4</ele>
        <time>2023-07-14T08:27:00Z</time>
      </trkpt>
      <trkpt lat="47.49094" lon="0.68653">
        <ele>83.4</ele>
        <time>2023-07-14T08:27:01Z</time>
      </trkpt>
      <trkpt lat="47.49091" lon="0.68642">
        <ele>83.2</ele>
        <time>2023-07-14T08:27:02Z</time>
      </trkpt>
      <trkpt lat="47.49089" lon="0.68633">
        <ele>83.4</ele>
        <time>2023-07-14T08:27:03Z</time>
      </trkpt>
      <trkpt lat="47.49087" lon="0.68623">
        <ele>83.4</ele>
        <time>2023-07-14T08:27:04Z</time>
      </trkpt>
      <trkpt lat="47.49084" lon="0.68613">
        <ele>83.6</ele>
        <time>2023-07-14T08:27:05Z</time>
      </trkpt>
      <trkpt lat="47.49082" lon="0.68604">
        <ele>83.6</ele>
        <time>2023-07-14T08:27:06Z</time>
      </trkpt>
      <trkpt lat="47.4908" lon="0.68594">
        <ele>83.8</ele>
        <time>2023-07-14T08:27:07Z</time>
      </trkpt>
      <trkpt lat="47.49077" lon="0.68585">
        <ele>83.6</ele>
        <time>2023-07-14T08:27:08Z</time>
      </trkpt>
      <trkpt lat="47.49074" lon="0.68576">
        <ele>83.6</ele>
        <time>2023-07-14T08:27:09Z</time>
      </trkpt>
      <trkpt lat="47.49071" lon="0.68567">
        <ele>83.6</ele>
        <time>2023-07-14T08:27:10Z</time>
      </trkpt>
      <trkpt lat="47.49069" lon="0.68558">
        <ele>83.6</ele>
        <time>2023-07-14T08:27:11Z</time>
      </trkpt>
      <trkpt lat="47.49067" lon="0.68549">
        <ele>83.6</ele>
        <time>2023-07-14T08:27:12Z</time>
      </trkpt>
      <trkpt lat="47.49063" lon="0.68539">
        <ele>83.4</ele>
        <time>2023-07-14T08:27:13Z</time>
      </trkpt>
      <trkpt lat="47.4906" lon="0.6853">
        <ele>83.4</ele>
        <time>2023-07-14T08:27:14Z</time>
      </trkpt>
      <trkpt lat="47.49057" lon="0.68521">
        <ele>83.4</ele>
        <time>2023-07-14T08:27:15Z</time>
      </trkpt>
      <trkpt lat="47.49054" lon="0.68513">
        <ele>83.2</ele>
        <time>2023-07-14T08:27:16Z</time>
      </trkpt>
      <trkpt lat="47.49051" lon="0.68505">
        <ele>83.2</ele>
        <time>2023-07-14T08:27:17Z</time>
      </trkpt>
      <trkpt lat="47.49048" lon="0.68496">
        <ele>83.4</ele>
        <time>2023-07-14T08:27:18Z</time>
      </trkpt>
      <trkpt lat="47.49045" lon="0.68486">
        <ele>83.4</ele>
        <time>2023-07-14T08:27:19Z</time>
      </trkpt>
      <trkpt lat="47.49043" lon="0.68477">
        <ele>83.4</ele>
        <time>2023-07-14T08:27:20Z</time>
      </trkpt>
      <trkpt lat="47.4904" lon="0.68466">
        <ele>83.4</ele>
        <time>2023-07-14T08:27:21Z</time>
      </trkpt>
      <trkpt lat="47.49038" lon="0.68457">
        <ele>83.4</ele>
        <time>2023-07-14T08:27:22Z</time>
      </trkpt>
      <trkpt lat="47.49037" lon="0.68447">
        <ele>83.6</ele>
        <time>2023-07-14T08:27:23Z</time>
      </trkpt>
      <trkpt lat="47.49035" lon="0.68436">
        <ele>83.6</ele>
        <time>2023-07-14T08:27:24Z</time>
      </trkpt>
      <trkpt lat="47.49035" lon="0.68427">
        <ele>83.6</ele>
        <time>2023-07-14T08:27:25Z</time>
      </trkpt>
      <trkpt lat="47.49034" lon="0.68419">
        <ele>83.6</ele>
        <time>2023-07-14T08:27:26Z</time>
      </trkpt>
      <trkpt lat="47.49034" lon="0.6841">
        <ele>83.6</ele>
        <time>2023-07-14T08:27:27Z</time>
      </trkpt>
      <trkpt lat="47.49033" lon="0.684">
        <ele>83.2</ele>
        <time>2023-07-14T08:27:28Z</time>
      </trkpt>
      <trkpt lat="47.49032" lon="0.68389">
        <ele>82.8</ele>
        <time>2023-07-14T08:27:29Z</time>
      </trkpt>
      <trkpt lat="47.49031" lon="0.68381">
        <ele>82.6</ele>
        <time>2023-07-14T08:27:30Z</time>
      </trkpt>
      <trkpt lat="47.49031" lon="0.68373">
        <ele>82.4</ele>
        <time>2023-07-14T08:27:31Z</time>
      </trkpt>
      <trkpt lat="47.49029" lon="0.68363">
        <ele>82.6</ele>
        <time>2023-07-14T08:27:32Z</time>
      </trkpt>
      <trkpt lat="47.49026" lon="0.68353">
        <ele>82.4</ele>
        <time>2023-07-14T08:27:33Z</time>
      </trkpt>
      <trkpt lat="47.49023" lon="0.68345">
        <ele>82.2</ele>
        <time>2023-07-14T08:27:34Z</time>
      </trkpt>
      <trkpt lat="47.4902" lon="0.68337">
        <ele>82.2</ele>
        <time>2023-07-14T08:27:35Z</time>
      </trkpt>
      <trkpt lat="47.49015" lon="0.68329">
        <ele>82.2</ele>
        <time>2023-07-14T08:27:36Z</time>
      </trkpt>
      <trkpt lat="47.4901" lon="0.68322">
        <ele>82</ele>
        <time>2023-07-14T08:27:37Z</time>
      </trkpt>
      <trkpt lat="47.49005" lon="0.68314">
        <ele>82.2</ele>
        <time>2023-07-14T08:27:38Z</time>
      </trkpt>
      <trkpt lat="47.48999" lon="0.68306">
        <ele>82.2</ele>
        <time>2023-07-14T08:27:39Z</time>
      </trkpt>
      <trkpt lat="47.48995" lon="0.683">
        <ele>82.2</ele>
        <time>2023-07-14T08:27:40Z</time>
      </trkpt>
      <trkpt lat="47.48989" lon="0.68291">
        <ele>82.2</ele>
        <time>2023-07-14T08:27:41Z</time>
      </trkpt>
      <trkpt lat="47.48985" lon="0.68282">
        <ele>82.2</ele>
        <time>2023-07-14T08:27:42Z</time>
      </trkpt>
      <trkpt lat="47.48981" lon="0.68274">
        <ele>82.4</ele>
        <time>2023-07-14T08:27:43Z</time>
      </trkpt>
      <trkpt lat="47.48977" lon="0.68267">
        <ele>82.4</ele>
        <time>2023-07-14T08:27:44Z</time>
      </trkpt>
      <trkpt lat="47.48973" lon="0.68259">
        <ele>82.4</ele>
        <time>2023-07-14T08:27:45Z</time>
      </trkpt>
      <trkpt lat="47.48969" lon="0.6825">
        <ele>82.6</ele>
        <time>2023-07-14T08:27:46Z</time>
      </trkpt>
      <trkpt lat="47.48964" lon="0.68241">
        <ele>82.6</ele>
        <time>2023-07-14T08:27:47Z</time>
      </trkpt>
      <trkpt lat="47.4896" lon="0.68233">
        <ele>82.8</ele>
        <time>2023-07-14T08:27:48Z</time>
      </trkpt>
      <trkpt lat="47.48956" lon="0.68225">
        <ele>82.8</ele>
        <time>2023-07-14T08:27:49Z</time>
      </trkpt>
      <trkpt lat="47.48951" lon="0.68217">
        <ele>82.8</ele>
        <time>2023-07-14T08:27:50Z</time>
      </trkpt>
      <trkpt lat="47.48947" lon="0.68208">
        <ele>82.8</ele>
        <time>2023-07-14T08:27:51Z</time>
      </trkpt>
      <trkpt lat="47.48943" lon="0.68199">
        <ele>82.8</ele>
        <time>2023-07-14T08:27:52Z</time>
      </trkpt>
      <trkpt lat="47.48939" lon="0.68192">
        <ele>82.8</ele>
        <time>2023-07-14T08:27:53Z</time>
      </trkpt>
      <trkpt lat="47.48935" lon="0.68184">
        <ele>82.8</ele>
        <time>2023-07-14T08:27:54Z</time>
      </trkpt>
      <trkpt lat="47.48931" lon="0.68175">
        <ele>83</ele>
        <time>2023-07-14T08:27:55Z</time>
      </trkpt>
      <trkpt lat="47.48927" lon="0.68166">
        <ele>83</ele>
        <time>2023-07-14T08:27:56Z</time>
      </trkpt>
      <trkpt lat="47.48922" lon="0.68157">
        <ele>83</ele>
        <time>2023-07-14T08:27:57Z</time>
      </trkpt>
      <trkpt lat="47.48919" lon="0.68149">
        <ele>83</ele>
        <time>2023-07-14T08:27:58Z</time>
      </trkpt>
      <trkpt lat="47.48916" lon="0.68141">
        <ele>83.2</ele>
        <time>2023-07-14T08:27:59Z</time>
      </trkpt>
      <trkpt lat="47.48913" lon="0.68132">
        <ele>83.2</ele>
        <time>2023-07-14T08:28:00Z</time>
      </trkpt>
      <trkpt lat="47.48911" lon="0.68124">
        <ele>83.4</ele>
        <time>2023-07-14T08:28:01Z</time>
      </trkpt>
      <trkpt lat="47.48909" lon="0.68117">
        <ele>83.4</ele>
        <time>2023-07-14T08:28:02Z</time>
      </trkpt>
      <trkpt lat="47.48908" lon="0.68109">
        <ele>83.6</ele>
        <time>2023-07-14T08:28:03Z</time>
      </trkpt>
      <trkpt lat="47.48905" lon="0.68099">
        <ele>83.4</ele>
        <time>2023-07-14T08:28:04Z</time>
      </trkpt>
      <trkpt lat="47.48901" lon="0.68088">
        <ele>83.4</ele>
        <time>2023-07-14T08:28:05Z</time>
      </trkpt>
      <trkpt lat="47.48898" lon="0.68076">
        <ele>83.2</ele>
        <time>2023-07-14T08:28:06Z</time>
      </trkpt>
      <trkpt lat="47.48894" lon="0.68067">
        <ele>82.8</ele>
        <time>2023-07-14T08:28:07Z</time>
      </trkpt>
      <trkpt lat="47.48892" lon="0.68057">
        <ele>82.8</ele>
        <time>2023-07-14T08:28:08Z</time>
      </trkpt>
      <trkpt lat="47.48889" lon="0.68048">
        <ele>82.8</ele>
        <time>2023-07-14T08:28:09Z</time>
      </trkpt>
      <trkpt lat="47.48885" lon="0.68038">
        <ele>82.8</ele>
        <time>2023-07-14T08:28:10Z</time>
      </trkpt>
      <trkpt lat="47.48882" lon="0.68027">
        <ele>82.8</ele>
        <time>2023-07-14T08:28:11Z</time>
      </trkpt>
      <trkpt lat="47.48878" lon="0.68017">
        <ele>83</ele>
        <time>2023-07-14T08:28:12Z</time>
      </trkpt>
      <trkpt lat="47.48875" lon="0.68008">
        <ele>83</ele>
        <time>2023-07-14T08:28:13Z</time>
      </trkpt>
      <trkpt lat="47.48872" lon="0.67999">
        <ele>83</ele>
        <time>2023-07-14T08:28:14Z</time>
      </trkpt>
      <trkpt lat="47.48869" lon="0.67988">
        <ele>83</ele>
        <time>2023-07-14T08:28:15Z</time>
      </trkpt>
      <trkpt lat="47.48866" lon="0.67978">
        <ele>83</ele>
        <time>2023-07-14T08:28:16Z</time>
      </trkpt>
      <trkpt lat="47.48864" lon="0.67968">
        <ele>83.2</ele>
        <time>2023-07-14T08:28:17Z</time>
      </trkpt>
      <trkpt lat="47.48862" lon="0.67957">
        <ele>83.2</ele>
        <time>2023-07-14T08:28:18Z</time>
      </trkpt>
      <trkpt lat="47.48861" lon="0.67948">
        <ele>83.2</ele>
        <time>2023-07-14T08:28:19Z</time>
      </trkpt>
      <trkpt lat="47.48859" lon="0.67937">
        <ele>83.2</ele>
        <time>2023-07-14T08:28:20Z</time>
      </trkpt>
      <trkpt lat="47.48857" lon="0.67926">
        <ele>83</ele>
        <time>2023-07-14T08:28:21Z</time>
      </trkpt>
      <trkpt lat="47.48856" lon="0.67918">
        <ele>83</ele>
        <time>2023-07-14T08:28:22Z</time>
      </trkpt>
      <trkpt lat="47.48855" lon="0.67908">
        <ele>83.2</ele>
        <time>2023-07-14T08:28:23Z</time>
      </trkpt>
      <trkpt lat="47.48854" lon="0.67897">
        <ele>83.2</ele>
        <time>2023-07-14T08:28:24Z</time>
      </trkpt>
      <trkpt lat="47.48853" lon="0.67886">
        <ele>83.2</ele>
        <time>2023-07-14T08:28:25Z</time>
      </trkpt>
      <trkpt lat="47.48852" lon="0.67876">
        <ele>83.2</ele>
        <time>2023-07-14T08:28:26Z</time>
      </trkpt>
      <trkpt lat="47.48851" lon="0.67866">
        <ele>83</ele>
        <time>2023-07-14T08:28:27Z</time>
      </trkpt>
      <trkpt lat="47.4885" lon="0.67855">
        <ele>83</ele>
        <time>2023-07-14T08:28:28Z</time>
      </trkpt>
      <trkpt lat="47.48849" lon="0.67844">
        <ele>82.8</ele>
        <time>2023-07-14T08:28:29Z</time>
      </trkpt>
      <trkpt lat="47.48848" lon="0.67835">
        <ele>82.8</ele>
        <time>2023-07-14T08:28:30Z</time>
      </trkpt>
      <trkpt lat="47.48847" lon="0.67826">
        <ele>82.8</ele>
        <time>2023-07-14T08:28:31Z</time>
      </trkpt>
      <trkpt lat="47.48846" lon="0.67815">
        <ele>82.8</ele>
        <time>2023-07-14T08:28:32Z</time>
      </trkpt>
      <trkpt lat="47.48845" lon="0.67805">
        <ele>82.6</ele>
        <time>2023-07-14T08:28:33Z</time>
      </trkpt>
      <trkpt lat="47.48843" lon="0.67796">
        <ele>82.6</ele>
        <time>2023-07-14T08:28:34Z</time>
      </trkpt>
      <trkpt lat="47.48842" lon="0.67785">
        <ele>82.6</ele>
        <time>2023-07-14T08:28:35Z</time>
      </trkpt>
      <trkpt lat="47.4884" lon="0.67777">
        <ele>82.8</ele>
        <time>2023-07-14T08:28:36Z</time>
      </trkpt>
      <trkpt lat="47.48839" lon="0.67765">
        <ele>82.8</ele>
        <time>2023-07-14T08:28:37Z</time>
      </trkpt>
      <trkpt lat="47.48837" lon="0.67754">
        <ele>82.8</ele>
        <time>2023-07-14T08:28:38Z</time>
      </trkpt>
      <trkpt lat="47.48836" lon="0.67744">
        <ele>82.8</ele>
        <time>2023-07-14T08:28:39Z</time>
      </trkpt>
      <trkpt lat="47.48835" lon="0.67735">
        <ele>82.8</ele>
        <time>2023-07-14T08:28:40Z</time>
      </trkpt>
      <trkpt lat="47.48833" lon="0.67725">
        <ele>82.8</ele>
        <time>2023-07-14T08:28:41Z</time>
      </trkpt>
      <trkpt lat="47.48831" lon="0.67715">
        <ele>82.8</ele>
        <time>2023-07-14T08:28:42Z</time>
      </trkpt>
      <trkpt lat="47.48829" lon="0.67705">
        <ele>83</ele>
        <time>2023-07-14T08:28:43Z</time>
      </trkpt>
      <trkpt lat="47.48826" lon="0.67696">
        <ele>83</ele>
        <time>2023-07-14T08:28:44Z</time>
      </trkpt>
      <trkpt lat="47.48824" lon="0.67686">
        <ele>83</ele>
        <time>2023-07-14T08:28:45Z</time>
      </trkpt>
      <trkpt lat="47.48821" lon="0.67677">
        <ele>83</ele>
        <time>2023-07-14T08:28:46Z</time>
      </trkpt>
      <trkpt lat="47.48817" lon="0.67667">
        <ele>83</ele>
        <time>2023-07-14T08:28:47Z</time>
      </trkpt>
      <trkpt lat="47.48814" lon="0.67658">
        <ele>83</ele>
        <time>2023-07-14T08:28:48Z</time>
      </trkpt>
      <trkpt lat="47.48811" lon="0.67649">
        <ele>83</ele>
        <time>2023-07-14T08:28:49Z</time>
      </trkpt>
      <trkpt lat="47.48808" lon="0.6764">
        <ele>83</ele>
        <time>2023-07-14T08:28:50Z</time>
      </trkpt>
      <trkpt lat="47.48804" lon="0.6763">
        <ele>83</ele>
        <time>2023-07-14T08:28:51Z</time>
      </trkpt>
      <trkpt lat="47.488" lon="0.67621">
        <ele>83</ele>
        <time>2023-07-14T08:28:52Z</time>
      </trkpt>
      <trkpt lat="47.48797" lon="0.67613">
        <ele>83</ele>
        <time>2023-07-14T08:28:53Z</time>
      </trkpt>
      <trkpt lat="47.48794" lon="0.67604">
        <ele>83</ele>
        <time>2023-07-14T08:28:54Z</time>
      </trkpt>
      <trkpt lat="47.4879" lon="0.67595">
        <ele>83</ele>
        <time>2023-07-14T08:28:55Z</time>
      </trkpt>
      <trkpt lat="47.48787" lon="0.67585">
        <ele>83</ele>
        <time>2023-07-14T08:28:56Z</time>
      </trkpt>
      <trkpt lat="47.48782" lon="0.67576">
        <ele>83</ele>
        <time>2023-07-14T08:28:57Z</time>
      </trkpt>
      <trkpt lat="47.48779" lon="0.67568">
        <ele>83</ele>
        <time>2023-07-14T08:28:58Z</time>
      </trkpt>
      <trkpt lat="47.48776" lon="0.6756">
        <ele>83</ele>
        <time>2023-07-14T08:28:59Z</time>
      </trkpt>
      <trkpt lat="47.48772" lon="0.67552">
        <ele>83</ele>
        <time>2023-07-14T08:29:00Z</time>
      </trkpt>
      <trkpt lat="47.48769" lon="0.67543">
        <ele>83.2</ele>
        <time>2023-07-14T08:29:01Z</time>
      </trkpt>
      <trkpt lat="47.48765" lon="0.67534">
        <ele>83.2</ele>
        <time>2023-07-14T08:29:02Z</time>
      </trkpt>
      <trkpt lat="47.48761" lon="0.67525">
        <ele>83.4</ele>
        <time>2023-07-14T08:29:03Z</time>
      </trkpt>
      <trkpt lat="47.48758" lon="0.67517">
        <ele>83.4</ele>
        <time>2023-07-14T08:29:04Z</time>
      </trkpt>
      <trkpt lat="47.48755" lon="0.67509">
        <ele>83.4</ele>
        <time>2023-07-14T08:29:05Z</time>
      </trkpt>
      <trkpt lat="47.48751" lon="0.675">
        <ele>83.4</ele>
        <time>2023-07-14T08:29:06Z</time>
      </trkpt>
      <trkpt lat="47.48747" lon="0.67491">
        <ele>83.6</ele>
        <time>2023-07-14T08:29:07Z</time>
      </trkpt>
      <trkpt lat="47.48743" lon="0.67482">
        <ele>83.6</ele>
        <time>2023-07-14T08:29:08Z</time>
      </trkpt>
      <trkpt lat="47.4874" lon="0.67474">
        <ele>83.8</ele>
        <time>2023-07-14T08:29:09Z</time>
      </trkpt>
      <trkpt lat="47.48736" lon="0.67466">
        <ele>83.8</ele>
        <time>2023-07-14T08:29:10Z</time>
      </trkpt>
      <trkpt lat="47.48733" lon="0.67457">
        <ele>83.8</ele>
        <time>2023-07-14T08:29:11Z</time>
      </trkpt>
      <trkpt lat="47.48729" lon="0.67447">
        <ele>83.8</ele>
        <time>2023-07-14T08:29:12Z</time>
      </trkpt>
      <trkpt lat="47.48726" lon="0.67439">
        <ele>84</ele>
        <time>2023-07-14T08:29:13Z</time>
      </trkpt>
      <trkpt lat="47.48723" lon="0.67431">
        <ele>84</ele>
        <time>2023-07-14T08:29:14Z</time>
      </trkpt>
      <trkpt lat="47.48719" lon="0.67422">
        <ele>84</ele>
        <time>2023-07-14T08:29:15Z</time>
      </trkpt>
      <trkpt lat="47.48717" lon="0.67414">
        <ele>84.2</ele>
        <time>2023-07-14T08:29:16Z</time>
      </trkpt>
      <trkpt lat="47.48713" lon="0.67405">
        <ele>84.4</ele>
        <time>2023-07-14T08:29:17Z</time>
      </trkpt>
      <trkpt lat="47.4871" lon="0.67396">
        <ele>84.2</ele>
        <time>2023-07-14T08:29:18Z</time>
      </trkpt>
      <trkpt lat="47.48706" lon="0.67387">
        <ele>84.2</ele>
        <time>2023-07-14T08:29:19Z</time>
      </trkpt>
      <trkpt lat="47.48703" lon="0.67377">
        <ele>84.2</ele>
        <time>2023-07-14T08:29:20Z</time>
      </trkpt>
      <trkpt lat="47.487" lon="0.67369">
        <ele>84.4</ele>
        <time>2023-07-14T08:29:21Z</time>
      </trkpt>
      <trkpt lat="47.48696" lon="0.67361">
        <ele>84.4</ele>
        <time>2023-07-14T08:29:22Z</time>
      </trkpt>
      <trkpt lat="47.48693" lon="0.67353">
        <ele>84.4</ele>
        <time>2023-07-14T08:29:23Z</time>
      </trkpt>
      <trkpt lat="47.48689" lon="0.67344">
        <ele>84.4</ele>
        <time>2023-07-14T08:29:24Z</time>
      </trkpt>
      <trkpt lat="47.48686" lon="0.67334">
        <ele>84.4</ele>
        <time>2023-07-14T08:29:25Z</time>
      </trkpt>
      <trkpt lat="47.48684" lon="0.67326">
        <ele>84.4</ele>
        <time>2023-07-14T08:29:26Z</time>
      </trkpt>
      <trkpt lat="47.48681" lon="0.67317">
        <ele>84.2</ele>
        <time>2023-07-14T08:29:27Z</time>
      </trkpt>
      <trkpt lat="47.48677" lon="0.67307">
        <ele>84</ele>
        <time>2023-07-14T08:29:28Z</time>
      </trkpt>
      <trkpt lat="47.48673" lon="0.67296">
        <ele>84</ele>
        <time>2023-07-14T08:29:29Z</time>
      </trkpt>
      <trkpt lat="47.4867" lon="0.67287">
        <ele>83.8</ele>
        <time>2023-07-14T08:29:30Z</time>
      </trkpt>
      <trkpt lat="47.48667" lon="0.67279">
        <ele>83.8</ele>
        <time>2023-07-14T08:29:31Z</time>
      </trkpt>
      <trkpt lat="47.48663" lon="0.67271">
        <ele>83.8</ele>
        <time>2023-07-14T08:29:32Z</time>
      </trkpt>
      <trkpt lat="47.4866" lon="0.6726">
        <ele>84</ele>
        <time>2023-07-14T08:29:33Z</time>
      </trkpt>
      <trkpt lat="47.48656" lon="0.6725">
        <ele>83.8</ele>
        <time>2023-07-14T08:29:34Z</time>
      </trkpt>
      <trkpt lat="47.48653" lon="0.67241">
        <ele>83.8</ele>
        <time>2023-07-14T08:29:35Z</time>
      </trkpt>
      <trkpt lat="47.4865" lon="0.67232">
        <ele>83.8</ele>
        <time>2023-07-14T08:29:36Z</time>
      </trkpt>
      <trkpt lat="47.48647" lon="0.67224">
        <ele>83.8</ele>
        <time>2023-07-14T08:29:37Z</time>
      </trkpt>
      <trkpt lat="47.48644" lon="0.67214">
        <ele>83.8</ele>
        <time>2023-07-14T08:29:38Z</time>
      </trkpt>
      <trkpt lat="47.4864" lon="0.67203">
        <ele>83.8</ele>
        <time>2023-07-14T08:29:39Z</time>
      </trkpt>
      <trkpt lat="47.48637" lon="0.67195">
        <ele>83.8</ele>
        <time>2023-07-14T08:29:40Z</time>
      </trkpt>
      <trkpt lat="47.48634" lon="0.67187">
        <ele>83.8</ele>
        <time>2023-07-14T08:29:41Z</time>
      </trkpt>
      <trkpt lat="47.48631" lon="0.67177">
        <ele>83.8</ele>
        <time>2023-07-14T08:29:42Z</time>
      </trkpt>
      <trkpt lat="47.48627" lon="0.67167">
        <ele>83.8</ele>
        <time>2023-07-14T08:29:43Z</time>
      </trkpt>
      <trkpt lat="47.48624" lon="0.67158">
        <ele>83.8</ele>
        <time>2023-07-14T08:29:44Z</time>
      </trkpt>
      <trkpt lat="47.48621" lon="0.6715">
        <ele>83.8</ele>
        <time>2023-07-14T08:29:45Z</time>
      </trkpt>
      <trkpt lat="47.48618" lon="0.67142">
        <ele>84</ele>
        <time>2023-07-14T08:29:46Z</time>
      </trkpt>
      <trkpt lat="47.48615" lon="0.67133">
        <ele>84</ele>
        <time>2023-07-14T08:29:47Z</time>
      </trkpt>
      <trkpt lat="47.48611" lon="0.67124">
        <ele>84</ele>
        <time>2023-07-14T08:29:48Z</time>
      </trkpt>
      <trkpt lat="47.48608" lon="0.67116">
        <ele>84</ele>
        <time>2023-07-14T08:29:49Z</time>
      </trkpt>
      <trkpt lat="47.48604" lon="0.67108">
        <ele>84</ele>
        <time>2023-07-14T08:29:50Z</time>
      </trkpt>
      <trkpt lat="47.486" lon="0.67101">
        <ele>84</ele>
        <time>2023-07-14T08:29:51Z</time>
      </trkpt>
      <trkpt lat="47.48596" lon="0.67094">
        <ele>84</ele>
        <time>2023-07-14T08:29:52Z</time>
      </trkpt>
      <trkpt lat="47.48592" lon="0.67087">
        <ele>84</ele>
        <time>2023-07-14T08:29:53Z</time>
      </trkpt>
      <trkpt lat="47.48587" lon="0.6708">
        <ele>84</ele>
        <time>2023-07-14T08:29:54Z</time>
      </trkpt>
      <trkpt lat="47.48582" lon="0.67074">
        <ele>84</ele>
        <time>2023-07-14T08:29:55Z</time>
      </trkpt>
      <trkpt lat="47.48577" lon="0.67068">
        <ele>84</ele>
        <time>2023-07-14T08:29:56Z</time>
      </trkpt>
      <trkpt lat="47.48571" lon="0.67061">
        <ele>84</ele>
        <time>2023-07-14T08:29:57Z</time>
      </trkpt>
      <trkpt lat="47.48565" lon="0.67056">
        <ele>84</ele>
        <time>2023-07-14T08:29:58Z</time>
      </trkpt>
      <trkpt lat="47.4856" lon="0.67051">
        <ele>84</ele>
        <time>2023-07-14T08:29:59Z</time>
      </trkpt>
      <trkpt lat="47.48554" lon="0.67047">
        <ele>83.8</ele>
        <time>2023-07-14T08:30:00Z</time>
      </trkpt>
      <trkpt lat="47.48548" lon="0.67043">
        <ele>83.8</ele>
        <time>2023-07-14T08:30:01Z</time>
      </trkpt>
      <trkpt lat="47.48542" lon="0.67039">
        <ele>83.8</ele>
        <time>2023-07-14T08:30:02Z</time>
      </trkpt>
      <trkpt lat="47.48536" lon="0.67035">
        <ele>83.8</ele>
        <time>2023-07-14T08:30:03Z</time>
      </trkpt>
      <trkpt lat="47.48531" lon="0.67031">
        <ele>83.8</ele>
        <time>2023-07-14T08:30:04Z</time>
      </trkpt>
      <trkpt lat="47.48524" lon="0.67027">
        <ele>83.8</ele>
        <time>2023-07-14T08:30:05Z</time>
      </trkpt>
      <trkpt lat="47.48518" lon="0.67023">
        <ele>83.8</ele>
        <time>2023-07-14T08:30:06Z</time>
      </trkpt>
      <trkpt lat="47.48512" lon="0.67019">
        <ele>83.6</ele>
        <time>2023-07-14T08:30:07Z</time>
      </trkpt>
      <trkpt lat="47.48507" lon="0.67016">
        <ele>83.8</ele>
        <time>2023-07-14T08:30:08Z</time>
      </trkpt>
      <trkpt lat="47.48501" lon="0.67012">
        <ele>83.8</ele>
        <time>2023-07-14T08:30:09Z</time>
      </trkpt>
      <trkpt lat="47.48495" lon="0.67008">
        <ele>83.8</ele>
        <time>2023-07-14T08:30:10Z</time>
      </trkpt>
      <trkpt lat="47.48488" lon="0.67004">
        <ele>83.8</ele>
        <time>2023-07-14T08:30:11Z</time>
      </trkpt>
      <trkpt lat="47.48483" lon="0.67001">
        <ele>83.8</ele>
        <time>2023-07-14T08:30:12Z</time>
      </trkpt>
      <trkpt lat="47.48478" lon="0.66997">
        <ele>83.6</ele>
        <time>2023-07-14T08:30:13Z</time>
      </trkpt>
      <trkpt lat="47.48473" lon="0.66994">
        <ele>83.6</ele>
        <time>2023-07-14T08:30:14Z</time>
      </trkpt>
      <trkpt lat="47.48467" lon="0.66988">
        <ele>83.6</ele>
        <time>2023-07-14T08:30:15Z</time>
      </trkpt>
      <trkpt lat="47.48461" lon="0.66983">
        <ele>83.6</ele>
        <time>2023-07-14T08:30:16Z</time>
      </trkpt>
      <trkpt lat="47.48455" lon="0.66977">
        <ele>83.8</ele>
        <time>2023-07-14T08:30:17Z</time>
      </trkpt>
      <trkpt lat="47.4845" lon="0.66971">
        <ele>83.8</ele>
        <time>2023-07-14T08:30:18Z</time>
      </trkpt>
      <trkpt lat="47.48444" lon="0.66966">
        <ele>83.6</ele>
        <time>2023-07-14T08:30:19Z</time>
      </trkpt>
      <trkpt lat="47.48439" lon="0.6696">
        <ele>83.8</ele>
        <time>2023-07-14T08:30:20Z</time>
      </trkpt>
      <trkpt lat="47.48434" lon="0.66953">
        <ele>83.8</ele>
        <time>2023-07-14T08:30:21Z</time>
      </trkpt>
      <trkpt lat="47.48429" lon="0.66947">
        <ele>83.8</ele>
        <time>2023-07-14T08:30:22Z</time>
      </trkpt>
      <trkpt lat="47.48423" lon="0.6694">
        <ele>83.8</ele>
        <time>2023-07-14T08:30:23Z</time>
      </trkpt>
      <trkpt lat="47.48418" lon="0.66933">
        <ele>83.8</ele>
        <time>2023-07-14T08:30:24Z</time>
      </trkpt>
      <trkpt lat="47.48414" lon="0.66926">
        <ele>83.6</ele>
        <time>2023-07-14T08:30:25Z</time>
      </trkpt>
      <trkpt lat="47.48409" lon="0.66918">
        <ele>83.6</ele>
        <time>2023-07-14T08:30:26Z</time>
      </trkpt>
      <trkpt lat="47.48405" lon="0.66911">
        <ele>83.6</ele>
        <time>2023-07-14T08:30:27Z</time>
      </trkpt>
      <trkpt lat="47.48401" lon="0.66903">
        <ele>83.4</ele>
        <time>2023-07-14T08:30:28Z</time>
      </trkpt>
      <trkpt lat="47.48397" lon="0.66896">
        <ele>83.4</ele>
        <time>2023-07-14T08:30:29Z</time>
      </trkpt>
      <trkpt lat="47.48393" lon="0.66888">
        <ele>83.4</ele>
        <time>2023-07-14T08:30:30Z</time>
      </trkpt>
      <trkpt lat="47.48389" lon="0.6688">
        <ele>83.6</ele>
        <time>2023-07-14T08:30:31Z</time>
      </trkpt>
      <trkpt lat="47.48386" lon="0.66872">
        <ele>83.6</ele>
        <time>2023-07-14T08:30:32Z</time>
      </trkpt>
      <trkpt lat="47.48383" lon="0.66863">
        <ele>83.4</ele>
        <time>2023-07-14T08:30:33Z</time>
      </trkpt>
      <trkpt lat="47.4838" lon="0.66854">
        <ele>83.4</ele>
        <time>2023-07-14T08:30:34Z</time>
      </trkpt>
      <trkpt lat="47.48376" lon="0.66845">
        <ele>83.4</ele>
        <time>2023-07-14T08:30:35Z</time>
      </trkpt>
      <trkpt lat="47.48373" lon="0.66836">
        <ele>83.4</ele>
        <time>2023-07-14T08:30:36Z</time>
      </trkpt>
      <trkpt lat="47.4837" lon="0.66828">
        <ele>83.4</ele>
        <time>2023-07-14T08:30:37Z</time>
      </trkpt>
      <trkpt lat="47.48367" lon="0.66819">
        <ele>83.4</ele>
        <time>2023-07-14T08:30:38Z</time>
      </trkpt>
      <trkpt lat="47.48364" lon="0.6681">
        <ele>83.4</ele>
        <time>2023-07-14T08:30:39Z</time>
      </trkpt>
      <trkpt lat="47.48361" lon="0.66801">
        <ele>83.6</ele>
        <time>2023-07-14T08:30:40Z</time>
      </trkpt>
      <trkpt lat="47.48358" lon="0.66792">
        <ele>83.6</ele>
        <time>2023-07-14T08:30:41Z</time>
      </trkpt>
      <trkpt lat="47.48355" lon="0.66783">
        <ele>83.8</ele>
        <time>2023-07-14T08:30:42Z</time>
      </trkpt>
      <trkpt lat="47.48352" lon="0.66775">
        <ele>83.8</ele>
        <time>2023-07-14T08:30:43Z</time>
      </trkpt>
      <trkpt lat="47.48349" lon="0.66765">
        <ele>83.8</ele>
        <time>2023-07-14T08:30:44Z</time>
      </trkpt>
      <trkpt lat="47.48346" lon="0.66757">
        <ele>83.8</ele>
        <time>2023-07-14T08:30:45Z</time>
      </trkpt>
      <trkpt lat="47.48343" lon="0.66748">
        <ele>83.6</ele>
        <time>2023-07-14T08:30:46Z</time>
      </trkpt>
      <trkpt lat="47.4834" lon="0.66738">
        <ele>83.4</ele>
        <time>2023-07-14T08:30:47Z</time>
      </trkpt>
      <trkpt lat="47.48338" lon="0.66729">
        <ele>83.6</ele>
        <time>2023-07-14T08:30:48Z</time>
      </trkpt>
      <trkpt lat="47.48335" lon="0.6672">
        <ele>83.4</ele>
        <time>2023-07-14T08:30:49Z</time>
      </trkpt>
      <trkpt lat="47.48333" lon="0.66711">
        <ele>83.4</ele>
        <time>2023-07-14T08:30:50Z</time>
      </trkpt>
      <trkpt lat="47.48331" lon="0.66702">
        <ele>83.4</ele>
        <time>2023-07-14T08:30:51Z</time>
      </trkpt>
      <trkpt lat="47.48329" lon="0.66693">
        <ele>83.6</ele>
        <time>2023-07-14T08:30:52Z</time>
      </trkpt>
      <trkpt lat="47.48327" lon="0.66683">
        <ele>83.6</ele>
        <time>2023-07-14T08:30:53Z</time>
      </trkpt>
      <trkpt lat="47.48326" lon="0.66672">
        <ele>83.8</ele>
        <time>2023-07-14T08:30:54Z</time>
      </trkpt>
      <trkpt lat="47.48325" lon="0.66662">
        <ele>84</ele>
        <time>2023-07-14T08:30:55Z</time>
      </trkpt>
      <trkpt lat="47.48323" lon="0.66654">
        <ele>84.2</ele>
        <time>2023-07-14T08:30:56Z</time>
      </trkpt>
      <trkpt lat="47.48322" lon="0.66645">
        <ele>84.4</ele>
        <time>2023-07-14T08:30:57Z</time>
      </trkpt>
      <trkpt lat="47.48321" lon="0.66635">
        <ele>84.4</ele>
        <time>2023-07-14T08:30:58Z</time>
      </trkpt>
      <trkpt lat="47.4832" lon="0.66624">
        <ele>84.4</ele>
        <time>2023-07-14T08:30:59Z</time>
      </trkpt>
      <trkpt lat="47.48318" lon="0.66614">
        <ele>84.4</ele>
        <time>2023-07-14T08:31:00Z</time>
      </trkpt>
      <trkpt lat="47.48317" lon="0.66606">
        <ele>84.4</ele>
        <time>2023-07-14T08:31:01Z</time>
      </trkpt>
      <trkpt lat="47.48315" lon="0.66597">
        <ele>84.4</ele>
        <time>2023-07-14T08:31:02Z</time>
      </trkpt>
      <trkpt lat="47.48314" lon="0.66587">
        <ele>84.4</ele>
        <time>2023-07-14T08:31:03Z</time>
      </trkpt>
      <trkpt lat="47.48312" lon="0.66576">
        <ele>84.4</ele>
        <time>2023-07-14T08:31:04Z</time>
      </trkpt>
      <trkpt lat="47.48311" lon="0.66566">
        <ele>84.2</ele>
        <time>2023-07-14T08:31:05Z</time>
      </trkpt>
      <trkpt lat="47.48309" lon="0.66557">
        <ele>84.2</ele>
        <time>2023-07-14T08:31:06Z</time>
      </trkpt>
      <trkpt lat="47.48308" lon="0.66548">
        <ele>84.2</ele>
        <time>2023-07-14T08:31:07Z</time>
      </trkpt>
      <trkpt lat="47.48306" lon="0.66538">
        <ele>84.2</ele>
        <time>2023-07-14T08:31:08Z</time>
      </trkpt>
      <trkpt lat="47.48304" lon="0.66527">
        <ele>84.2</ele>
        <time>2023-07-14T08:31:09Z</time>
      </trkpt>
      <trkpt lat="47.48303" lon="0.66519">
        <ele>84.2</ele>
        <time>2023-07-14T08:31:10Z</time>
      </trkpt>
      <trkpt lat="47.48302" lon="0.66511">
        <ele>84.2</ele>
        <time>2023-07-14T08:31:11Z</time>
      </trkpt>
      <trkpt lat="47.483" lon="0.66501">
        <ele>84</ele>
        <time>2023-07-14T08:31:12Z</time>
      </trkpt>
      <trkpt lat="47.48299" lon="0.66493">
        <ele>83.8</ele>
        <time>2023-07-14T08:31:13Z</time>
      </trkpt>
      <trkpt lat="47.48299" lon="0.66485">
        <ele>83.6</ele>
        <time>2023-07-14T08:31:14Z</time>
      </trkpt>
      <trkpt lat="47.48299" lon="0.66479">
        <ele>83.4</ele>
        <time>2023-07-14T08:31:15Z</time>
      </trkpt>
      <trkpt lat="47.483" lon="0.66475">
        <ele>83.2</ele>
        <time>2023-07-14T08:31:16Z</time>
      </trkpt>
      <trkpt lat="47.483" lon="0.66472">
        <ele>83.2</ele>
        <time>2023-07-14T08:31:17Z</time>
      </trkpt>
      <trkpt lat="47.483" lon="0.66469">
        <ele>83.2</ele>
        <time>2023-07-14T08:31:18Z</time>
      </trkpt>
      <trkpt lat="47.48299" lon="0.66466">
        <ele>83</ele>
        <time>2023-07-14T08:31:19Z</time>
      </trkpt>
      <trkpt lat="47.48297" lon="0.66462">
        <ele>83</ele>
        <time>2023-07-14T08:31:20Z</time>
      </trkpt>
      <trkpt lat="47.48295" lon="0.66456">
        <ele>82.8</ele>
        <time>2023-07-14T08:31:21Z</time>
      </trkpt>
      <trkpt lat="47.48293" lon="0.66451">
        <ele>82.8</ele>
        <time>2023-07-14T08:31:22Z</time>
      </trkpt>
      <trkpt lat="47.48292" lon="0.66445">
        <ele>82.8</ele>
        <time>2023-07-14T08:31:23Z</time>
      </trkpt>
      <trkpt lat="47.4829" lon="0.66437">
        <ele>82.8</ele>
        <time>2023-07-14T08:31:24Z</time>
      </trkpt>
      <trkpt lat="47.48288" lon="0.66429">
        <ele>82.8</ele>
        <time>2023-07-14T08:31:25Z</time>
      </trkpt>
      <trkpt lat="47.48285" lon="0.66422">
        <ele>82.8</ele>
        <time>2023-07-14T08:31:26Z</time>
      </trkpt>
      <trkpt lat="47.48282" lon="0.66414">
        <ele>82.8</ele>
        <time>2023-07-14T08:31:27Z</time>
      </trkpt>
      <trkpt lat="47.48278" lon="0.66405">
        <ele>82.6</ele>
        <time>2023-07-14T08:31:28Z</time>
      </trkpt>
      <trkpt lat="47.48275" lon="0.66398">
        <ele>82.4</ele>
        <time>2023-07-14T08:31:29Z</time>
      </trkpt>
      <trkpt lat="47.48271" lon="0.66391">
        <ele>82.4</ele>
        <time>2023-07-14T08:31:30Z</time>
      </trkpt>
      <trkpt lat="47.48267" lon="0.66385">
        <ele>82.4</ele>
        <time>2023-07-14T08:31:31Z</time>
      </trkpt>
      <trkpt lat="47.48262" lon="0.66378">
        <ele>82.2</ele>
        <time>2023-07-14T08:31:32Z</time>
      </trkpt>
      <trkpt lat="47.48257" lon="0.6637">
        <ele>82.2</ele>
        <time>2023-07-14T08:31:33Z</time>
      </trkpt>
      <trkpt lat="47.48254" lon="0.66363">
        <ele>82.2</ele>
        <time>2023-07-14T08:31:34Z</time>
      </trkpt>
      <trkpt lat="47.4825" lon="0.66355">
        <ele>82</ele>
        <time>2023-07-14T08:31:35Z</time>
      </trkpt>
      <trkpt lat="47.48247" lon="0.66347">
        <ele>82</ele>
        <time>2023-07-14T08:31:36Z</time>
      </trkpt>
      <trkpt lat="47.48245" lon="0.66339">
        <ele>81.8</ele>
        <time>2023-07-14T08:31:37Z</time>
      </trkpt>
      <trkpt lat="47.48243" lon="0.6633">
        <ele>81.8</ele>
        <time>2023-07-14T08:31:38Z</time>
      </trkpt>
      <trkpt lat="47.48241" lon="0.66322">
        <ele>81.8</ele>
        <time>2023-07-14T08:31:39Z</time>
      </trkpt>
      <trkpt lat="47.4824" lon="0.66315">
        <ele>81.6</ele>
        <time>2023-07-14T08:31:40Z</time>
      </trkpt>
      <trkpt lat="47.4824" lon="0.6631">
        <ele>81.8</ele>
        <time>2023-07-14T08:31:41Z</time>
      </trkpt>
      <trkpt lat="47.48241" lon="0.66305">
        <ele>81.8</ele>
        <time>2023-07-14T08:31:42Z</time>
      </trkpt>
      <trkpt lat="47.48243" lon="0.66302">
        <ele>82</ele>
        <time>2023-07-14T08:31:43Z</time>
      </trkpt>
      <trkpt lat="47.48246" lon="0.66299">
        <ele>82.2</ele>
        <time>2023-07-14T08:31:44Z</time>
      </trkpt>
      <trkpt lat="47.4825" lon="0.66298">
        <ele>82.4</ele>
        <time>2023-07-14T08:31:45Z</time>
      </trkpt>
      <trkpt lat="47.48254" lon="0.66296">
        <ele>82.6</ele>
        <time>2023-07-14T08:31:46Z</time>
      </trkpt>
      <trkpt lat="47.48258" lon="0.66294">
        <ele>82.8</ele>
        <time>2023-07-14T08:31:47Z</time>
      </trkpt>
      <trkpt lat="47.48262" lon="0.66292">
        <ele>83</ele>
        <time>2023-07-14T08:31:48Z</time>
      </trkpt>
      <trkpt lat="47.48267" lon="0.6629">
        <ele>83.2</ele>
        <time>2023-07-14T08:31:49Z</time>
      </trkpt>
      <trkpt lat="47.48273" lon="0.66287">
        <ele>83.4</ele>
        <time>2023-07-14T08:31:50Z</time>
      </trkpt>
      <trkpt lat="47.48277" lon="0.66285">
        <ele>83.6</ele>
        <time>2023-07-14T08:31:51Z</time>
      </trkpt>
      <trkpt lat="47.48281" lon="0.66283">
        <ele>83.8</ele>
        <time>2023-07-14T08:31:52Z</time>
      </trkpt>
      <trkpt lat="47.48286" lon="0.66281">
        <ele>84</ele>
        <time>2023-07-14T08:31:53Z</time>
      </trkpt>
      <trkpt lat="47.48292" lon="0.66279">
        <ele>84.2</ele>
        <time>2023-07-14T08:31:54Z</time>
      </trkpt>
      <trkpt lat="47.48297" lon="0.66277">
        <ele>84.6</ele>
        <time>2023-07-14T08:31:55Z</time>
      </trkpt>
      <trkpt lat="47.48302" lon="0.66275">
        <ele>84.8</ele>
        <time>2023-07-14T08:31:56Z</time>
      </trkpt>
      <trkpt lat="47.48308" lon="0.66273">
        <ele>85</ele>
        <time>2023-07-14T08:31:57Z</time>
      </trkpt>
      <trkpt lat="47.48314" lon="0.6627">
        <ele>85.2</ele>
        <time>2023-07-14T08:31:58Z</time>
      </trkpt>
      <trkpt lat="47.48319" lon="0.66267">
        <ele>85.6</ele>
        <time>2023-07-14T08:31:59Z</time>
      </trkpt>
      <trkpt lat="47.48324" lon="0.66265">
        <ele>85.8</ele>
        <time>2023-07-14T08:32:00Z</time>
      </trkpt>
      <trkpt lat="47.48328" lon="0.66263">
        <ele>86</ele>
        <time>2023-07-14T08:32:01Z</time>
      </trkpt>
      <trkpt lat="47.48334" lon="0.66261">
        <ele>86.4</ele>
        <time>2023-07-14T08:32:02Z</time>
      </trkpt>
      <trkpt lat="47.48339" lon="0.66259">
        <ele>86.6</ele>
        <time>2023-07-14T08:32:03Z</time>
      </trkpt>
      <trkpt lat="47.48345" lon="0.66258">
        <ele>87</ele>
        <time>2023-07-14T08:32:04Z</time>
      </trkpt>
      <trkpt lat="47.4835" lon="0.66257">
        <ele>87.2</ele>
        <time>2023-07-14T08:32:05Z</time>
      </trkpt>
      <trkpt lat="47.48355" lon="0.66255">
        <ele>87.4</ele>
        <time>2023-07-14T08:32:06Z</time>
      </trkpt>
      <trkpt lat="47.48359" lon="0.66254">
        <ele>87.6</ele>
        <time>2023-07-14T08:32:07Z</time>
      </trkpt>
      <trkpt lat="47.48364" lon="0.66252">
        <ele>87.8</ele>
        <time>2023-07-14T08:32:08Z</time>
      </trkpt>
      <trkpt lat="47.4837" lon="0.66251">
        <ele>88</ele>
        <time>2023-07-14T08:32:09Z</time>
      </trkpt>
      <trkpt lat="47.48375" lon="0.6625">
        <ele>88.2</ele>
        <time>2023-07-14T08:32:10Z</time>
      </trkpt>
      <trkpt lat="47.4838" lon="0.6625">
        <ele>88.6</ele>
        <time>2023-07-14T08:32:11Z</time>
      </trkpt>
      <trkpt lat="47.48384" lon="0.66248">
        <ele>88.8</ele>
        <time>2023-07-14T08:32:12Z</time>
      </trkpt>
      <trkpt lat="47.48389" lon="0.66245">
        <ele>89</ele>
        <time>2023-07-14T08:32:13Z</time>
      </trkpt>
      <trkpt lat="47.48393" lon="0.66241">
        <ele>89.4</ele>
        <time>2023-07-14T08:32:14Z</time>
      </trkpt>
      <trkpt lat="47.48395" lon="0.66235">
        <ele>89.6</ele>
        <time>2023-07-14T08:32:15Z</time>
      </trkpt>
      <trkpt lat="47.48396" lon="0.66228">
        <ele>90.2</ele>
        <time>2023-07-14T08:32:16Z</time>
      </trkpt>
      <trkpt lat="47.48397" lon="0.66221">
        <ele>90.4</ele>
        <time>2023-07-14T08:32:17Z</time>
      </trkpt>
      <trkpt lat="47.48397" lon="0.66213">
        <ele>90.8</ele>
        <time>2023-07-14T08:32:18Z</time>
      </trkpt>
      <trkpt lat="47.48398" lon="0.66206">
        <ele>91</ele>
        <time>2023-07-14T08:32:19Z</time>
      </trkpt>
      <trkpt lat="47.48399" lon="0.662">
        <ele>91.2</ele>
        <time>2023-07-14T08:32:20Z</time>
      </trkpt>
      <trkpt lat="47.484" lon="0.66194">
        <ele>91.6</ele>
        <time>2023-07-14T08:32:21Z</time>
      </trkpt>
      <trkpt lat="47.484" lon="0.66187">
        <ele>91.8</ele>
        <time>2023-07-14T08:32:22Z</time>
      </trkpt>
      <trkpt lat="47.484" lon="0.66181">
        <ele>92.2</ele>
        <time>2023-07-14T08:32:23Z</time>
      </trkpt>
      <trkpt lat="47.48401" lon="0.66175">
        <ele>92.6</ele>
        <time>2023-07-14T08:32:24Z</time>
      </trkpt>
      <trkpt lat="47.48402" lon="0.66169">
        <ele>92.8</ele>
        <time>2023-07-14T08:32:25Z</time>
      </trkpt>
      <trkpt lat="47.48402" lon="0.66163">
        <ele>93.2</ele>
        <time>2023-07-14T08:32:26Z</time>
      </trkpt>
      <trkpt lat="47.48403" lon="0.66158">
        <ele>93.4</ele>
        <time>2023-07-14T08:32:27Z</time>
      </trkpt>
      <trkpt lat="47.48403" lon="0.66152">
        <ele>93.6</ele>
        <time>2023-07-14T08:32:28Z</time>
      </trkpt>
      <trkpt lat="47.48404" lon="0.66147">
        <ele>93.8</ele>
        <time>2023-07-14T08:32:29Z</time>
      </trkpt>
      <trkpt lat="47.48404" lon="0.66142">
        <ele>94.2</ele>
        <time>2023-07-14T08:32:30Z</time>
      </trkpt>
      <trkpt lat="47.48405" lon="0.66136">
        <ele>94.4</ele>
        <time>2023-07-14T08:32:31Z</time>
      </trkpt>
      <trkpt lat="47.48405" lon="0.6613">
        <ele>94.6</ele>
        <time>2023-07-14T08:32:32Z</time>
      </trkpt>
      <trkpt lat="47.48405" lon="0.66124">
        <ele>95</ele>
        <time>2023-07-14T08:32:33Z</time>
      </trkpt>
      <trkpt lat="47.48405" lon="0.66119">
        <ele>95.2</ele>
        <time>2023-07-14T08:32:34Z</time>
      </trkpt>
      <trkpt lat="47.48405" lon="0.66115">
        <ele>95.4</ele>
        <time>2023-07-14T08:32:35Z</time>
      </trkpt>
      <trkpt lat="47.48405" lon="0.6611">
        <ele>95.8</ele>
        <time>2023-07-14T08:32:36Z</time>
      </trkpt>
      <trkpt lat="47.48405" lon="0.66105">
        <ele>96</ele>
        <time>2023-07-14T08:32:37Z</time>
      </trkpt>
      <trkpt lat="47.48405" lon="0.661">
        <ele>96.4</ele>
        <time>2023-07-14T08:32:38Z</time>
      </trkpt>
      <trkpt lat="47.48405" lon="0.66096">
        <ele>96.6</ele>
        <time>2023-07-14T08:32:39Z</time>
      </trkpt>
      <trkpt lat="47.48405" lon="0.66092">
        <ele>97</ele>
        <time>2023-07-14T08:32:40Z</time>
      </trkpt>
      <trkpt lat="47.48406" lon="0.66088">
        <ele>97.2</ele>
        <time>2023-07-14T08:32:41Z</time>
      </trkpt>
      <trkpt lat="47.48406" lon="0.66083">
        <ele>97.6</ele>
        <time>2023-07-14T08:32:42Z</time>
      </trkpt>
      <trkpt lat="47.48407" lon="0.66079">
        <ele>97.8</ele>
        <time>2023-07-14T08:32:43Z</time>
      </trkpt>
      <trkpt lat="47.48408" lon="0.66074">
        <ele>98.2</ele>
        <time>2023-07-14T08:32:44Z</time>
      </trkpt>
      <trkpt lat="47.4841" lon="0.66068">
        <ele>98.4</ele>
        <time>2023-07-14T08:32:45Z</time>
      </trkpt>
      <trkpt lat="47.4841" lon="0.66062">
        <ele>98.8</ele>
        <time>2023-07-14T08:32:46Z</time>
      </trkpt>
      <trkpt lat="47.48411" lon="0.66056">
        <ele>99</ele>
        <time>2023-07-14T08:32:47Z</time>
      </trkpt>
      <trkpt lat="47.48411" lon="0.6605">
        <ele>99.4</ele>
        <time>2023-07-14T08:32:48Z</time>
      </trkpt>
      <trkpt lat="47.48412" lon="0.66045">
        <ele>99.6</ele>
        <time>2023-07-14T08:32:49Z</time>
      </trkpt>
      <trkpt lat="47.48412" lon="0.66039">
        <ele>99.8</ele>
        <time>2023-07-14T08:32:50Z</time>
      </trkpt>
      <trkpt lat="47.48412" lon="0.66033">
        <ele>100</ele>
        <time>2023-07-14T08:32:51Z</time>
      </trkpt>
      <trkpt lat="47.48411" lon="0.66026">
        <ele>100.4</ele>
        <time>2023-07-14T08:32:52Z</time>
      </trkpt>
      <trkpt lat="47.48411" lon="0.6602">
        <ele>100.6</ele>
        <time>2023-07-14T08:32:53Z</time>
      </trkpt>
      <trkpt lat="47.4841" lon="0.66015">
        <ele>100.8</ele>
        <time>2023-07-14T08:32:54Z</time>
      </trkpt>
      <trkpt lat="47.4841" lon="0.66009">
        <ele>101</ele>
        <time>2023-07-14T08:32:55Z</time>
      </trkpt>
      <trkpt lat="47.48409" lon="0.66004">
        <ele>101.2</ele>
        <time>2023-07-14T08:32:56Z</time>
      </trkpt>
      <trkpt lat="47.48409" lon="0.65998">
        <ele>101.4</ele>
        <time>2023-07-14T08:32:57Z</time>
      </trkpt>
      <trkpt lat="47.48408" lon="0.65994">
        <ele>101.6</ele>
        <time>2023-07-14T08:32:58Z</time>
      </trkpt>
      <trkpt lat="47.48407" lon="0.65988">
        <ele>102</ele>
        <time>2023-07-14T08:32:59Z</time>
      </trkpt>
      <trkpt lat="47.48407" lon="0.65982">
        <ele>102.2</ele>
        <time>2023-07-14T08:33:00Z</time>
      </trkpt>
      <trkpt lat="47.48405" lon="0.65977">
        <ele>102.4</ele>
        <time>2023-07-14T08:33:01Z</time>
      </trkpt>
      <trkpt lat="47.48405" lon="0.65972">
        <ele>102.6</ele>
        <time>2023-07-14T08:33:02Z</time>
      </trkpt>
      <trkpt lat="47.48404" lon="0.65967">
        <ele>102.8</ele>
        <time>2023-07-14T08:33:03Z</time>
      </trkpt>
      <trkpt lat="47.48403" lon="0.65963">
        <ele>103</ele>
        <time>2023-07-14T08:33:04Z</time>
      </trkpt>
      <trkpt lat="47.48401" lon="0.65959">
        <ele>103.2</ele>
        <time>2023-07-14T08:33:05Z</time>
      </trkpt>
      <trkpt lat="47.484" lon="0.65955">
        <ele>103.4</ele>
        <time>2023-07-14T08:33:06Z</time>
      </trkpt>
      <trkpt lat="47.48399" lon="0.65951">
        <ele>103.6</ele>
        <time>2023-07-14T08:33:07Z</time>
      </trkpt>
      <trkpt lat="47.48398" lon="0.65948">
        <ele>103.8</ele>
        <time>2023-07-14T08:33:08Z</time>
      </trkpt>
      <trkpt lat="47.48397" lon="0.65944">
        <ele>104</ele>
        <time>2023-07-14T08:33:09Z</time>
      </trkpt>
      <trkpt lat="47.48396" lon="0.65939">
        <ele>104.4</ele>
        <time>2023-07-14T08:33:10Z</time>
      </trkpt>
      <trkpt lat="47.48396" lon="0.65935">
        <ele>104.6</ele>
        <time>2023-07-14T08:33:11Z</time>
      </trkpt>
      <trkpt lat="47.48395" lon="0.65931">
        <ele>104.8</ele>
        <time>2023-07-14T08:33:12Z</time>
      </trkpt>
      <trkpt lat="47.48394" lon="0.65926">
        <ele>105</ele>
        <time>2023-07-14T08:33:13Z</time>
      </trkpt>
      <trkpt lat="47.48393" lon="0.65921">
        <ele>105.2</ele>
        <time>2023-07-14T08:33:14Z</time>
      </trkpt>
      <trkpt lat="47.48392" lon="0.65916">
        <ele>105.4</ele>
        <time>2023-07-14T08:33:15Z</time>
      </trkpt>
      <trkpt lat="47.48391" lon="0.65912">
        <ele>105.8</ele>
        <time>2023-07-14T08:33:16Z</time>
      </trkpt>
      <trkpt lat="47.48391" lon="0.65907">
        <ele>106</ele>
        <time>2023-07-14T08:33:17Z</time>
      </trkpt>
      <trkpt lat="47.4839" lon="0.65902">
        <ele>106.2</ele>
        <time>2023-07-14T08:33:18Z</time>
      </trkpt>
      <trkpt lat="47.4839" lon="0.65898">
        <ele>106.4</ele>
        <time>2023-07-14T08:33:19Z</time>
      </trkpt>
      <trkpt lat="47.48389" lon="0.65893">
        <ele>106.8</ele>
        <time>2023-07-14T08:33:20Z</time>
      </trkpt>
      <trkpt lat="47.48389" lon="0.65889">
        <ele>107</ele>
        <time>2023-07-14T08:33:21Z</time>
      </trkpt>
      <trkpt lat="47.48389" lon="0.65884">
        <ele>107.2</ele>
        <time>2023-07-14T08:33:22Z</time>
      </trkpt>
      <trkpt lat="47.48389" lon="0.65879">
        <ele>107.4</ele>
        <time>2023-07-14T08:33:23Z</time>
      </trkpt>
      <trkpt lat="47.48388" lon="0.65874">
        <ele>107.8</ele>
        <time>2023-07-14T08:33:24Z</time>
      </trkpt>
      <trkpt lat="47.48388" lon="0.6587">
        <ele>108</ele>
        <time>2023-07-14T08:33:25Z</time>
      </trkpt>
      <trkpt lat="47.48388" lon="0.65866">
        <ele>108.2</ele>
        <time>2023-07-14T08:33:26Z</time>
      </trkpt>
      <trkpt lat="47.48388" lon="0.65862">
        <ele>108.4</ele>
        <time>2023-07-14T08:33:27Z</time>
      </trkpt>
      <trkpt lat="47.48389" lon="0.65857">
        <ele>108.8</ele>
        <time>2023-07-14T08:33:28Z</time>
      </trkpt>
      <trkpt lat="47.48389" lon="0.65853">
        <ele>109</ele>
        <time>2023-07-14T08:33:29Z</time>
      </trkpt>
      <trkpt lat="47.48389" lon="0.65849">
        <ele>109.2</ele>
        <time>2023-07-14T08:33:30Z</time>
      </trkpt>
      <trkpt lat="47.4839" lon="0.65846">
        <ele>109.4</ele>
        <time>2023-07-14T08:33:31Z</time>
      </trkpt>
      <trkpt lat="47.48391" lon="0.65842">
        <ele>109.6</ele>
        <time>2023-07-14T08:33:32Z</time>
      </trkpt>
      <trkpt lat="47.48392" lon="0.65837">
        <ele>109.8</ele>
        <time>2023-07-14T08:33:33Z</time>
      </trkpt>
      <trkpt lat="47.48393" lon="0.65833">
        <ele>110</ele>
        <time>2023-07-14T08:33:34Z</time>
      </trkpt>
      <trkpt lat="47.48394" lon="0.6583">
        <ele>110.4</ele>
        <time>2023-07-14T08:33:35Z</time>
      </trkpt>
      <trkpt lat="47.48395" lon="0.65826">
        <ele>110.6</ele>
        <time>2023-07-14T08:33:36Z</time>
      </trkpt>
      <trkpt lat="47.48395" lon="0.65823">
        <ele>110.8</ele>
        <time>2023-07-14T08:33:37Z</time>
      </trkpt>
      <trkpt lat="47.48396" lon="0.65819">
        <ele>111</ele>
        <time>2023-07-14T08:33:38Z</time>
      </trkpt>
      <trkpt lat="47.48397" lon="0.65815">
        <ele>111.4</ele>
        <time>2023-07-14T08:33:39Z</time>
      </trkpt>
      <trkpt lat="47.48399" lon="0.65811">
        <ele>111.6</ele>
        <time>2023-07-14T08:33:40Z</time>
      </trkpt>
      <trkpt lat="47.484" lon="0.65807">
        <ele>111.8</ele>
        <time>2023-07-14T08:33:41Z</time>
      </trkpt>
      <trkpt lat="47.48401" lon="0.65803">
        <ele>112</ele>
        <time>2023-07-14T08:33:42Z</time>
      </trkpt>
      <trkpt lat="47.48402" lon="0.65799">
        <ele>112.2</ele>
        <time>2023-07-14T08:33:43Z</time>
      </trkpt>
      <trkpt lat="47.48403" lon="0.65795">
        <ele>112.6</ele>
        <time>2023-07-14T08:33:44Z</time>
      </trkpt>
      <trkpt lat="47.48405" lon="0.65791">
        <ele>112.8</ele>
        <time>2023-07-14T08:33:45Z</time>
      </trkpt>
      <trkpt lat="47.48406" lon="0.65787">
        <ele>113</ele>
        <time>2023-07-14T08:33:46Z</time>
      </trkpt>
      <trkpt lat="47.48408" lon="0.65783">
        <ele>113.2</ele>
        <time>2023-07-14T08:33:47Z</time>
      </trkpt>
      <trkpt lat="47.48409" lon="0.65779">
        <ele>113.4</ele>
        <time>2023-07-14T08:33:48Z</time>
      </trkpt>
      <trkpt lat="47.4841" lon="0.65776">
        <ele>113.6</ele>
        <time>2023-07-14T08:33:49Z</time>
      </trkpt>
      <trkpt lat="47.48412" lon="0.65773">
        <ele>113.8</ele>
        <time>2023-07-14T08:33:50Z</time>
      </trkpt>
      <trkpt lat="47.48413" lon="0.65769">
        <ele>114</ele>
        <time>2023-07-14T08:33:51Z</time>
      </trkpt>
      <trkpt lat="47.48415" lon="0.65766">
        <ele>114.2</ele>
        <time>2023-07-14T08:33:52Z</time>
      </trkpt>
      <trkpt lat="47.48416" lon="0.65762">
        <ele>114.4</ele>
        <time>2023-07-14T08:33:53Z</time>
      </trkpt>
      <trkpt lat="47.48417" lon="0.65759">
        <ele>114.6</ele>
        <time>2023-07-14T08:33:54Z</time>
      </trkpt>
      <trkpt lat="47.48418" lon="0.65755">
        <ele>114.8</ele>
        <time>2023-07-14T08:33:55Z</time>
      </trkpt>
      <trkpt lat="47.4842" lon="0.65751">
        <ele>115</ele>
        <time>2023-07-14T08:33:56Z</time>
      </trkpt>
      <trkpt lat="47.48421" lon="0.65748">
        <ele>115.2</ele>
        <time>2023-07-14T08:33:57Z</time>
      </trkpt>
      <trkpt lat="47.48423" lon="0.65744">
        <ele>115.4</ele>
        <time>2023-07-14T08:33:58Z</time>
      </trkpt>
      <trkpt lat="47.48425" lon="0.65741">
        <ele>115.6</ele>
        <time>2023-07-14T08:33:59Z</time>
      </trkpt>
      <trkpt lat="47.48427" lon="0.65736">
        <ele>115.8</ele>
        <time>2023-07-14T08:34:00Z</time>
      </trkpt>
      <trkpt lat="47.48429" lon="0.65732">
        <ele>116</ele>
        <time>2023-07-14T08:34:01Z</time>
      </trkpt>
      <trkpt lat="47.48432" lon="0.65727">
        <ele>116.2</ele>
        <time>2023-07-14T08:34:02Z</time>
      </trkpt>
      <trkpt lat="47.48435" lon="0.65722">
        <ele>116.4</ele>
        <time>2023-07-14T08:34:03Z</time>
      </trkpt>
      <trkpt lat="47.48437" lon="0.65717">
        <ele>116.8</ele>
        <time>2023-07-14T08:34:04Z</time>
      </trkpt>
      <trkpt lat="47.48439" lon="0.65714">
        <ele>117</ele>
        <time>2023-07-14T08:34:05Z</time>
      </trkpt>
      <trkpt lat="47.48442" lon="0.65708">
        <ele>117.2</ele>
        <time>2023-07-14T08:34:06Z</time>
      </trkpt>
      <trkpt lat="47.48444" lon="0.65703">
        <ele>117</ele>
        <time>2023-07-14T08:34:07Z</time>
      </trkpt>
      <trkpt lat="47.48446" lon="0.65699">
        <ele>117</ele>
        <time>2023-07-14T08:34:08Z</time>
      </trkpt>
      <trkpt lat="47.48448" lon="0.65695">
        <ele>116.8</ele>
        <time>2023-07-14T08:34:09Z</time>
      </trkpt>
      <trkpt lat="47.4845" lon="0.6569">
        <ele>116.8</ele>
        <time>2023-07-14T08:34:10Z</time>
      </trkpt>
      <trkpt lat="47.48453" lon="0.65686">
        <ele>116.8</ele>
        <time>2023-07-14T08:34:11Z</time>
      </trkpt>
      <trkpt lat="47.48455" lon="0.65681">
        <ele>116.8</ele>
        <time>2023-07-14T08:34:12Z</time>
      </trkpt>
      <trkpt lat="47.48458" lon="0.65676">
        <ele>117</ele>
        <time>2023-07-14T08:34:13Z</time>
      </trkpt>
      <trkpt lat="47.48461" lon="0.65671">
        <ele>117</ele>
        <time>2023-07-14T08:34:14Z</time>
      </trkpt>
      <trkpt lat="47.48463" lon="0.65665">
        <ele>117</ele>
        <time>2023-07-14T08:34:15Z</time>
      </trkpt>
      <trkpt lat="47.48465" lon="0.6566">
        <ele>117</ele>
        <time>2023-07-14T08:34:16Z</time>
      </trkpt>
      <trkpt lat="47.48468" lon="0.65655">
        <ele>117</ele>
        <time>2023-07-14T08:34:17Z</time>
      </trkpt>
      <trkpt lat="47.4847" lon="0.65649">
        <ele>117</ele>
        <time>2023-07-14T08:34:18Z</time>
      </trkpt>
      <trkpt lat="47.48473" lon="0.65643">
        <ele>117</ele>
        <time>2023-07-14T08:34:19Z</time>
      </trkpt>
      <trkpt lat="47.48476" lon="0.65638">
        <ele>117</ele>
        <time>2023-07-14T08:34:20Z</time>
      </trkpt>
      <trkpt lat="47.48478" lon="0.65632">
        <ele>117</ele>
        <time>2023-07-14T08:34:21Z</time>
      </trkpt>
      <trkpt lat="47.48481" lon="0.65627">
        <ele>117</ele>
        <time>2023-07-14T08:34:22Z</time>
      </trkpt>
      <trkpt lat="47.48484" lon="0.65621">
        <ele>117</ele>
        <time>2023-07-14T08:34:23Z</time>
      </trkpt>
      <trkpt lat="47.48486" lon="0.65615">
        <ele>116.8</ele>
        <time>2023-07-14T08:34:24Z</time>
      </trkpt>
      <trkpt lat="47.48489" lon="0.65609">
        <ele>116.6</ele>
        <time>2023-07-14T08:34:25Z</time>
      </trkpt>
      <trkpt lat="47.48492" lon="0.65604">
        <ele>116.6</ele>
        <time>2023-07-14T08:34:26Z</time>
      </trkpt>
      <trkpt lat="47.48495" lon="0.65598">
        <ele>116.6</ele>
        <time>2023-07-14T08:34:27Z</time>
      </trkpt>
      <trkpt lat="47.48498" lon="0.65592">
        <ele>116.6</ele>
        <time>2023-07-14T08:34:28Z</time>
      </trkpt>
      <trkpt lat="47.485" lon="0.65586">
        <ele>116.6</ele>
        <time>2023-07-14T08:34:29Z</time>
      </trkpt>
      <trkpt lat="47.48503" lon="0.6558">
        <ele>116.6</ele>
        <time>2023-07-14T08:34:30Z</time>
      </trkpt>
      <trkpt lat="47.48506" lon="0.65575">
        <ele>116.6</ele>
        <time>2023-07-14T08:34:31Z</time>
      </trkpt>
      <trkpt lat="47.48508" lon="0.65569">
        <ele>116.6</ele>
        <time>2023-07-14T08:34:32Z</time>
      </trkpt>
      <trkpt lat="47.48512" lon="0.65563">
        <ele>116.6</ele>
        <time>2023-07-14T08:34:33Z</time>
      </trkpt>
      <trkpt lat="47.48515" lon="0.65556">
        <ele>116.6</ele>
        <time>2023-07-14T08:34:34Z</time>
      </trkpt>
      <trkpt lat="47.48518" lon="0.65549">
        <ele>116.6</ele>
        <time>2023-07-14T08:34:35Z</time>
      </trkpt>
      <trkpt lat="47.48521" lon="0.65543">
        <ele>116.6</ele>
        <time>2023-07-14T08:34:36Z</time>
      </trkpt>
      <trkpt lat="47.48524" lon="0.65536">
        <ele>116.6</ele>
        <time>2023-07-14T08:34:37Z</time>
      </trkpt>
      <trkpt lat="47.48528" lon="0.65529">
        <ele>116.6</ele>
        <time>2023-07-14T08:34:38Z</time>
      </trkpt>
      <trkpt lat="47.48531" lon="0.65521">
        <ele>116.8</ele>
        <time>2023-07-14T08:34:39Z</time>
      </trkpt>
      <trkpt lat="47.48534" lon="0.65514">
        <ele>116.8</ele>
        <time>2023-07-14T08:34:40Z</time>
      </trkpt>
      <trkpt lat="47.48538" lon="0.65506">
        <ele>116.8</ele>
        <time>2023-07-14T08:34:41Z</time>
      </trkpt>
      <trkpt lat="47.48542" lon="0.65499">
        <ele>116.8</ele>
        <time>2023-07-14T08:34:42Z</time>
      </trkpt>
      <trkpt lat="47.48545" lon="0.65491">
        <ele>116.8</ele>
        <time>2023-07-14T08:34:43Z</time>
      </trkpt>
      <trkpt lat="47.48549" lon="0.65484">
        <ele>116.8</ele>
        <time>2023-07-14T08:34:44Z</time>
      </trkpt>
      <trkpt lat="47.48552" lon="0.65476">
        <ele>117</ele>
        <time>2023-07-14T08:34:45Z</time>
      </trkpt>
      <trkpt lat="47.48556" lon="0.65468">
        <ele>117</ele>
        <time>2023-07-14T08:34:46Z</time>
      </trkpt>
      <trkpt lat="47.48559" lon="0.6546">
        <ele>117</ele>
        <time>2023-07-14T08:34:47Z</time>
      </trkpt>
      <trkpt lat="47.48563" lon="0.65453">
        <ele>117.2</ele>
        <time>2023-07-14T08:34:48Z</time>
      </trkpt>
      <trkpt lat="47.48566" lon="0.65445">
        <ele>117.2</ele>
        <time>2023-07-14T08:34:49Z</time>
      </trkpt>
      <trkpt lat="47.4857" lon="0.65438">
        <ele>117.4</ele>
        <time>2023-07-14T08:34:50Z</time>
      </trkpt>
      <trkpt lat="47.48574" lon="0.6543">
        <ele>117.4</ele>
        <time>2023-07-14T08:34:51Z</time>
      </trkpt>
      <trkpt lat="47.48577" lon="0.65422">
        <ele>117.6</ele>
        <time>2023-07-14T08:34:52Z</time>
      </trkpt>
      <trkpt lat="47.48581" lon="0.65415">
        <ele>117.6</ele>
        <time>2023-07-14T08:34:53Z</time>
      </trkpt>
      <trkpt lat="47.48584" lon="0.65408">
        <ele>117.8</ele>
        <time>2023-07-14T08:34:54Z</time>
      </trkpt>
      <trkpt lat="47.48587" lon="0.654">
        <ele>117.8</ele>
        <time>2023-07-14T08:34:55Z</time>
      </trkpt>
      <trkpt lat="47.4859" lon="0.65392">
        <ele>118</ele>
        <time>2023-07-14T08:34:56Z</time>
      </trkpt>
      <trkpt lat="47.48594" lon="0.65385">
        <ele>118</ele>
        <time>2023-07-14T08:34:57Z</time>
      </trkpt>
      <trkpt lat="47.48598" lon="0.65378">
        <ele>118</ele>
        <time>2023-07-14T08:34:58Z</time>
      </trkpt>
      <trkpt lat="47.48601" lon="0.6537">
        <ele>118.2</ele>
        <time>2023-07-14T08:34:59Z</time>
      </trkpt>
      <trkpt lat="47.48605" lon="0.65362">
        <ele>118.2</ele>
        <time>2023-07-14T08:35:00Z</time>
      </trkpt>
      <trkpt lat="47.48608" lon="0.65355">
        <ele>118.2</ele>
        <time>2023-07-14T08:35:01Z</time>
      </trkpt>
      <trkpt lat="47.48611" lon="0.65347">
        <ele>118.2</ele>
        <time>2023-07-14T08:35:02Z</time>
      </trkpt>
      <trkpt lat="47.48615" lon="0.65339">
        <ele>118.2</ele>
        <time>2023-07-14T08:35:03Z</time>
      </trkpt>
      <trkpt lat="47.48618" lon="0.65331">
        <ele>118.2</ele>
        <time>2023-07-14T08:35:04Z</time>
      </trkpt>
      <trkpt lat="47.48622" lon="0.65323">
        <ele>118.2</ele>
        <time>2023-07-14T08:35:05Z</time>
      </trkpt>
      <trkpt lat="47.48625" lon="0.65315">
        <ele>118</ele>
        <time>2023-07-14T08:35:06Z</time>
      </trkpt>
      <trkpt lat="47.48628" lon="0.65307">
        <ele>118</ele>
        <time>2023-07-14T08:35:07Z</time>
      </trkpt>
      <trkpt lat="47.48631" lon="0.653">
        <ele>118</ele>
        <time>2023-07-14T08:35:08Z</time>
      </trkpt>
      <trkpt lat="47.48632" lon="0.65292">
        <ele>118.2</ele>
        <time>2023-07-14T08:35:09Z</time>
      </trkpt>
      <trkpt lat="47.48631" lon="0.65285">
        <ele>118.2</ele>
        <time>2023-07-14T08:35:10Z</time>
      </trkpt>
      <trkpt lat="47.48628" lon="0.65279">
        <ele>118</ele>
        <time>2023-07-14T08:35:11Z</time>
      </trkpt>
      <trkpt lat="47.48624" lon="0.65276">
        <ele>118</ele>
        <time>2023-07-14T08:35:12Z</time>
      </trkpt>
      <trkpt lat="47.48619" lon="0.65276">
        <ele>117.8</ele>
        <time>2023-07-14T08:35:13Z</time>
      </trkpt>
      <trkpt lat="47.48613" lon="0.65276">
        <ele>117.8</ele>
        <time>2023-07-14T08:35:14Z</time>
      </trkpt>
      <trkpt lat="47.48606" lon="0.65276">
        <ele>117.8</ele>
        <time>2023-07-14T08:35:15Z</time>
      </trkpt>
      <trkpt lat="47.486" lon="0.65277">
        <ele>117.8</ele>
        <time>2023-07-14T08:35:16Z</time>
      </trkpt>
      <trkpt lat="47.48594" lon="0.65277">
        <ele>117.8</ele>
        <time>2023-07-14T08:35:17Z</time>
      </trkpt>
      <trkpt lat="47.48587" lon="0.65277">
        <ele>117.8</ele>
        <time>2023-07-14T08:35:18Z</time>
      </trkpt>
      <trkpt lat="47.4858" lon="0.65277">
        <ele>117.6</ele>
        <time>2023-07-14T08:35:19Z</time>
      </trkpt>
      <trkpt lat="47.48573" lon="0.65277">
        <ele>117.4</ele>
        <time>2023-07-14T08:35:20Z</time>
      </trkpt>
      <trkpt lat="47.48566" lon="0.65276">
        <ele>117.4</ele>
        <time>2023-07-14T08:35:21Z</time>
      </trkpt>
      <trkpt lat="47.48559" lon="0.65276">
        <ele>117.4</ele>
        <time>2023-07-14T08:35:22Z</time>
      </trkpt>
      <trkpt lat="47.48552" lon="0.65275">
        <ele>117.2</ele>
        <time>2023-07-14T08:35:23Z</time>
      </trkpt>
      <trkpt lat="47.48545" lon="0.65274">
        <ele>117</ele>
        <time>2023-07-14T08:35:24Z</time>
      </trkpt>
      <trkpt lat="47.48538" lon="0.65272">
        <ele>116.8</ele>
        <time>2023-07-14T08:35:25Z</time>
      </trkpt>
      <trkpt lat="47.48531" lon="0.65271">
        <ele>116.6</ele>
        <time>2023-07-14T08:35:26Z</time>
      </trkpt>
      <trkpt lat="47.48524" lon="0.65269">
        <ele>116.4</ele>
        <time>2023-07-14T08:35:27Z</time>
      </trkpt>
      <trkpt lat="47.48517" lon="0.65268">
        <ele>116</ele>
        <time>2023-07-14T08:35:28Z</time>
      </trkpt>
      <trkpt lat="47.4851" lon="0.65267">
        <ele>115.8</ele>
        <time>2023-07-14T08:35:29Z</time>
      </trkpt>
      <trkpt lat="47.48503" lon="0.65266">
        <ele>115.6</ele>
        <time>2023-07-14T08:35:30Z</time>
      </trkpt>
      <trkpt lat="47.48496" lon="0.65264">
        <ele>115.4</ele>
        <time>2023-07-14T08:35:31Z</time>
      </trkpt>
      <trkpt lat="47.48489" lon="0.65262">
        <ele>115.2</ele>
        <time>2023-07-14T08:35:32Z</time>
      </trkpt>
      <trkpt lat="47.48481" lon="0.6526">
        <ele>115</ele>
        <time>2023-07-14T08:35:33Z</time>
      </trkpt>
      <trkpt lat="47.48474" lon="0.65258">
        <ele>114.8</ele>
        <time>2023-07-14T08:35:34Z</time>
      </trkpt>
      <trkpt lat="47.48467" lon="0.65257">
        <ele>114.8</ele>
        <time>2023-07-14T08:35:35Z</time>
      </trkpt>
      <trkpt lat="47.48459" lon="0.65255">
        <ele>114.6</ele>
        <time>2023-07-14T08:35:36Z</time>
      </trkpt>
      <trkpt lat="47.48452" lon="0.65252">
        <ele>114.4</ele>
        <time>2023-07-14T08:35:37Z</time>
      </trkpt>
      <trkpt lat="47.48445" lon="0.6525">
        <ele>114.2</ele>
        <time>2023-07-14T08:35:38Z</time>
      </trkpt>
      <trkpt lat="47.48437" lon="0.65248">
        <ele>114</ele>
        <time>2023-07-14T08:35:39Z</time>
      </trkpt>
      <trkpt lat="47.4843" lon="0.65245">
        <ele>113.6</ele>
        <time>2023-07-14T08:35:40Z</time>
      </trkpt>
      <trkpt lat="47.48423" lon="0.65243">
        <ele>113.4</ele>
        <time>2023-07-14T08:35:41Z</time>
      </trkpt>
      <trkpt lat="47.48415" lon="0.65241">
        <ele>113</ele>
        <time>2023-07-14T08:35:42Z</time>
      </trkpt>
      <trkpt lat="47.48408" lon="0.65239">
        <ele>112.8</ele>
        <time>2023-07-14T08:35:43Z</time>
      </trkpt>
      <trkpt lat="47.484" lon="0.65236">
        <ele>112.4</ele>
        <time>2023-07-14T08:35:44Z</time>
      </trkpt>
      <trkpt lat="47.48393" lon="0.65234">
        <ele>111.8</ele>
        <time>2023-07-14T08:35:45Z</time>
      </trkpt>
      <trkpt lat="47.48385" lon="0.65231">
        <ele>111.6</ele>
        <time>2023-07-14T08:35:46Z</time>
      </trkpt>
      <trkpt lat="47.48377" lon="0.65229">
        <ele>111.2</ele>
        <time>2023-07-14T08:35:47Z</time>
      </trkpt>
      <trkpt lat="47.48369" lon="0.65226">
        <ele>110.8</ele>
        <time>2023-07-14T08:35:48Z</time>
      </trkpt>
      <trkpt lat="47.48361" lon="0.65224">
        <ele>110.4</ele>
        <time>2023-07-14T08:35:49Z</time>
      </trkpt>
      <trkpt lat="47.48353" lon="0.65222">
        <ele>110</ele>
        <time>2023-07-14T08:35:50Z</time>
      </trkpt>
      <trkpt lat="47.48345" lon="0.65219">
        <ele>109.8</ele>
        <time>2023-07-14T08:35:51Z</time>
      </trkpt>
      <trkpt lat="47.48337" lon="0.65216">
        <ele>109.2</ele>
        <time>2023-07-14T08:35:52Z</time>
      </trkpt>
      <trkpt lat="47.4833" lon="0.65213">
        <ele>109</ele>
        <time>2023-07-14T08:35:53Z</time>
      </trkpt>
      <trkpt lat="47.48322" lon="0.65211">
        <ele>108.6</ele>
        <time>2023-07-14T08:35:54Z</time>
      </trkpt>
      <trkpt lat="47.48314" lon="0.65208">
        <ele>108.4</ele>
        <time>2023-07-14T08:35:55Z</time>
      </trkpt>
      <trkpt lat="47.48306" lon="0.65205">
        <ele>108.4</ele>
        <time>2023-07-14T08:35:56Z</time>
      </trkpt>
      <trkpt lat="47.48298" lon="0.65202">
        <ele>108.4</ele>
        <time>2023-07-14T08:35:57Z</time>
      </trkpt>
      <trkpt lat="47.4829" lon="0.65199">
        <ele>108.6</ele>
        <time>2023-07-14T08:35:58Z</time>
      </trkpt>
      <trkpt lat="47.48282" lon="0.65196">
        <ele>108.8</ele>
        <time>2023-07-14T08:35:59Z</time>
      </trkpt>
      <trkpt lat="47.48274" lon="0.65193">
        <ele>108.6</ele>
        <time>2023-07-14T08:36:00Z</time>
      </trkpt>
      <trkpt lat="47.48266" lon="0.65192">
        <ele>108</ele>
        <time>2023-07-14T08:36:01Z</time>
      </trkpt>
      <trkpt lat="47.48257" lon="0.65191">
        <ele>107.6</ele>
        <time>2023-07-14T08:36:02Z</time>
      </trkpt>
      <trkpt lat="47.48249" lon="0.65192">
        <ele>107.2</ele>
        <time>2023-07-14T08:36:03Z</time>
      </trkpt>
      <trkpt lat="47.4824" lon="0.65194">
        <ele>106.6</ele>
        <time>2023-07-14T08:36:04Z</time>
      </trkpt>
      <trkpt lat="47.48231" lon="0.65197">
        <ele>106.4</ele>
        <time>2023-07-14T08:36:05Z</time>
      </trkpt>
      <trkpt lat="47.48223" lon="0.652">
        <ele>106.2</ele>
        <time>2023-07-14T08:36:06Z</time>
      </trkpt>
      <trkpt lat="47.48214" lon="0.65203">
        <ele>106.2</ele>
        <time>2023-07-14T08:36:07Z</time>
      </trkpt>
      <trkpt lat="47.48206" lon="0.65207">
        <ele>105.8</ele>
        <time>2023-07-14T08:36:08Z</time>
      </trkpt>
      <trkpt lat="47.48197" lon="0.6521">
        <ele>105.4</ele>
        <time>2023-07-14T08:36:09Z</time>
      </trkpt>
      <trkpt lat="47.48188" lon="0.65213">
        <ele>105.2</ele>
        <time>2023-07-14T08:36:10Z</time>
      </trkpt>
      <trkpt lat="47.48179" lon="0.65216">
        <ele>104.6</ele>
        <time>2023-07-14T08:36:11Z</time>
      </trkpt>
      <trkpt lat="47.48171" lon="0.65219">
        <ele>104.4</ele>
        <time>2023-07-14T08:36:12Z</time>
      </trkpt>
      <trkpt lat="47.48162" lon="0.65222">
        <ele>103.8</ele>
        <time>2023-07-14T08:36:13Z</time>
      </trkpt>
      <trkpt lat="47.48153" lon="0.65225">
        <ele>103.6</ele>
        <time>2023-07-14T08:36:14Z</time>
      </trkpt>
      <trkpt lat="47.48144" lon="0.65229">
        <ele>103.2</ele>
        <time>2023-07-14T08:36:15Z</time>
      </trkpt>
      <trkpt lat="47.48135" lon="0.65232">
        <ele>102.8</ele>
        <time>2023-07-14T08:36:16Z</time>
      </trkpt>
      <trkpt lat="47.48125" lon="0.65236">
        <ele>102.4</ele>
        <time>2023-07-14T08:36:17Z</time>
      </trkpt>
      <trkpt lat="47.48116" lon="0.65239">
        <ele>102</ele>
        <time>2023-07-14T08:36:18Z</time>
      </trkpt>
      <trkpt lat="47.48108" lon="0.65243">
        <ele>101.6</ele>
        <time>2023-07-14T08:36:19Z</time>
      </trkpt>
      <trkpt lat="47.48098" lon="0.65246">
        <ele>101.2</ele>
        <time>2023-07-14T08:36:20Z</time>
      </trkpt>
      <trkpt lat="47.48089" lon="0.6525">
        <ele>100.6</ele>
        <time>2023-07-14T08:36:21Z</time>
      </trkpt>
      <trkpt lat="47.4808" lon="0.65253">
        <ele>100.2</ele>
        <time>2023-07-14T08:36:22Z</time>
      </trkpt>
      <trkpt lat="47.4807" lon="0.65257">
        <ele>99.8</ele>
        <time>2023-07-14T08:36:23Z</time>
      </trkpt>
      <trkpt lat="47.48061" lon="0.65261">
        <ele>99.2</ele>
        <time>2023-07-14T08:36:24Z</time>
      </trkpt>
      <trkpt lat="47.48053" lon="0.65264">
        <ele>98.8</ele>
        <time>2023-07-14T08:36:25Z</time>
      </trkpt>
      <trkpt lat="47.48043" lon="0.65266">
        <ele>98</ele>
        <time>2023-07-14T08:36:26Z</time>
      </trkpt>
      <trkpt lat="47.48034" lon="0.65268">
        <ele>97.6</ele>
        <time>2023-07-14T08:36:27Z</time>
      </trkpt>
      <trkpt lat="47.48024" lon="0.65269">
        <ele>97</ele>
        <time>2023-07-14T08:36:28Z</time>
      </trkpt>
      <trkpt lat="47.48014" lon="0.6527">
        <ele>96.6</ele>
        <time>2023-07-14T08:36:29Z</time>
      </trkpt>
      <trkpt lat="47.48005" lon="0.6527">
        <ele>96</ele>
        <time>2023-07-14T08:36:30Z</time>
      </trkpt>
      <trkpt lat="47.47994" lon="0.65269">
        <ele>95.4</ele>
        <time>2023-07-14T08:36:31Z</time>
      </trkpt>
      <trkpt lat="47.47984" lon="0.65269">
        <ele>95.2</ele>
        <time>2023-07-14T08:36:32Z</time>
      </trkpt>
      <trkpt lat="47.47974" lon="0.65269">
        <ele>95</ele>
        <time>2023-07-14T08:36:33Z</time>
      </trkpt>
      <trkpt lat="47.47964" lon="0.65269">
        <ele>94.6</ele>
        <time>2023-07-14T08:36:34Z</time>
      </trkpt>
      <trkpt lat="47.47956" lon="0.65269">
        <ele>94.4</ele>
        <time>2023-07-14T08:36:35Z</time>
      </trkpt>
      <trkpt lat="47.47946" lon="0.65268">
        <ele>94</ele>
        <time>2023-07-14T08:36:36Z</time>
      </trkpt>
      <trkpt lat="47.47936" lon="0.65268">
        <ele>93.6</ele>
        <time>2023-07-14T08:36:37Z</time>
      </trkpt>
      <trkpt lat="47.47927" lon="0.65268">
        <ele>93.2</ele>
        <time>2023-07-14T08:36:38Z</time>
      </trkpt>
      <trkpt lat="47.47918" lon="0.65268">
        <ele>93</ele>
        <time>2023-07-14T08:36:39Z</time>
      </trkpt>
      <trkpt lat="47.47908" lon="0.65268">
        <ele>92.8</ele>
        <time>2023-07-14T08:36:40Z</time>
      </trkpt>
      <trkpt lat="47.47898" lon="0.65267">
        <ele>92.4</ele>
        <time>2023-07-14T08:36:41Z</time>
      </trkpt>
      <trkpt lat="47.47888" lon="0.65266">
        <ele>92.2</ele>
        <time>2023-07-14T08:36:42Z</time>
      </trkpt>
      <trkpt lat="47.47879" lon="0.65263">
        <ele>91.6</ele>
        <time>2023-07-14T08:36:43Z</time>
      </trkpt>
      <trkpt lat="47.47872" lon="0.65257">
        <ele>91.2</ele>
        <time>2023-07-14T08:36:44Z</time>
      </trkpt>
      <trkpt lat="47.47867" lon="0.65248">
        <ele>90.6</ele>
        <time>2023-07-14T08:36:45Z</time>
      </trkpt>
      <trkpt lat="47.47863" lon="0.65236">
        <ele>90.6</ele>
        <time>2023-07-14T08:36:46Z</time>
      </trkpt>
      <trkpt lat="47.47861" lon="0.65224">
        <ele>90.8</ele>
        <time>2023-07-14T08:36:47Z</time>
      </trkpt>
      <trkpt lat="47.47859" lon="0.65211">
        <ele>90.8</ele>
        <time>2023-07-14T08:36:48Z</time>
      </trkpt>
      <trkpt lat="47.47857" lon="0.65199">
        <ele>90.8</ele>
        <time>2023-07-14T08:36:49Z</time>
      </trkpt>
      <trkpt lat="47.47855" lon="0.65186">
        <ele>90.8</ele>
        <time>2023-07-14T08:36:50Z</time>
      </trkpt>
      <trkpt lat="47.47852" lon="0.65171">
        <ele>90.4</ele>
        <time>2023-07-14T08:36:51Z</time>
      </trkpt>
      <trkpt lat="47.47848" lon="0.65158">
        <ele>90.2</ele>
        <time>2023-07-14T08:36:52Z</time>
      </trkpt>
      <trkpt lat="47.47844" lon="0.65145">
        <ele>90.2</ele>
        <time>2023-07-14T08:36:53Z</time>
      </trkpt>
      <trkpt lat="47.47839" lon="0.65134">
        <ele>90</ele>
        <time>2023-07-14T08:36:54Z</time>
      </trkpt>
      <trkpt lat="47.47832" lon="0.65125">
        <ele>89.6</ele>
        <time>2023-07-14T08:36:55Z</time>
      </trkpt>
      <trkpt lat="47.47824" lon="0.65121">
        <ele>89.4</ele>
        <time>2023-07-14T08:36:56Z</time>
      </trkpt>
      <trkpt lat="47.47815" lon="0.65119">
        <ele>89.2</ele>
        <time>2023-07-14T08:36:57Z</time>
      </trkpt>
      <trkpt lat="47.47806" lon="0.6512">
        <ele>89</ele>
        <time>2023-07-14T08:36:58Z</time>
      </trkpt>
      <trkpt lat="47.47797" lon="0.65123">
        <ele>89.2</ele>
        <time>2023-07-14T08:36:59Z</time>
      </trkpt>
      <trkpt lat="47.47787" lon="0.65125">
        <ele>89.2</ele>
        <time>2023-07-14T08:37:00Z</time>
      </trkpt>
      <trkpt lat="47.47778" lon="0.65127">
        <ele>89</ele>
        <time>2023-07-14T08:37:01Z</time>
      </trkpt>
      <trkpt lat="47.47769" lon="0.6513">
        <ele>88.6</ele>
        <time>2023-07-14T08:37:02Z</time>
      </trkpt>
      <trkpt lat="47.4776" lon="0.65132">
        <ele>88</ele>
        <time>2023-07-14T08:37:03Z</time>
      </trkpt>
      <trkpt lat="47.47751" lon="0.65135">
        <ele>87.2</ele>
        <time>2023-07-14T08:37:04Z</time>
      </trkpt>
      <trkpt lat="47.47742" lon="0.65138">
        <ele>87</ele>
        <time>2023-07-14T08:37:05Z</time>
      </trkpt>
      <trkpt lat="47.47732" lon="0.6514">
        <ele>86.6</ele>
        <time>2023-07-14T08:37:06Z</time>
      </trkpt>
      <trkpt lat="47.47723" lon="0.65142">
        <ele>86</ele>
        <time>2023-07-14T08:37:07Z</time>
      </trkpt>
      <trkpt lat="47.47714" lon="0.65143">
        <ele>85.6</ele>
        <time>2023-07-14T08:37:08Z</time>
      </trkpt>
      <trkpt lat="47.47705" lon="0.65143">
        <ele>85.4</ele>
        <time>2023-07-14T08:37:09Z</time>
      </trkpt>
      <trkpt lat="47.47694" lon="0.65142">
        <ele>85.2</ele>
        <time>2023-07-14T08:37:10Z</time>
      </trkpt>
      <trkpt lat="47.47686" lon="0.65143">
        <ele>84.8</ele>
        <time>2023-07-14T08:37:11Z</time>
      </trkpt>
      <trkpt lat="47.47677" lon="0.65145">
        <ele>84.6</ele>
        <time>2023-07-14T08:37:12Z</time>
      </trkpt>
      <trkpt lat="47.47667" lon="0.65149">
        <ele>83.8</ele>
        <time>2023-07-14T08:37:13Z</time>
      </trkpt>
      <trkpt lat="47.47658" lon="0.65152">
        <ele>83.6</ele>
        <time>2023-07-14T08:37:14Z</time>
      </trkpt>
      <trkpt lat="47.47649" lon="0.65156">
        <ele>83.4</ele>
        <time>2023-07-14T08:37:15Z</time>
      </trkpt>
      <trkpt lat="47.47641" lon="0.65159">
        <ele>83.4</ele>
        <time>2023-07-14T08:37:16Z</time>
      </trkpt>
      <trkpt lat="47.47632" lon="0.65162">
        <ele>83.2</ele>
        <time>2023-07-14T08:37:17Z</time>
      </trkpt>
      <trkpt lat="47.47624" lon="0.65163">
        <ele>82.8</ele>
        <time>2023-07-14T08:37:18Z</time>
      </trkpt>
      <trkpt lat="47.47615" lon="0.65164">
        <ele>82.6</ele>
        <time>2023-07-14T08:37:19Z</time>
      </trkpt>
      <trkpt lat="47.47607" lon="0.65162">
        <ele>82.4</ele>
        <time>2023-07-14T08:37:20Z</time>
      </trkpt>
      <trkpt lat="47.47599" lon="0.65158">
        <ele>82.4</ele>
        <time>2023-07-14T08:37:21Z</time>
      </trkpt>
      <trkpt lat="47.47591" lon="0.65153">
        <ele>82.2</ele>
        <time>2023-07-14T08:37:22Z</time>
      </trkpt>
      <trkpt lat="47.47584" lon="0.65147">
        <ele>82.2</ele>
        <time>2023-07-14T08:37:23Z</time>
      </trkpt>
      <trkpt lat="47.47577" lon="0.6514">
        <ele>82</ele>
        <time>2023-07-14T08:37:24Z</time>
      </trkpt>
      <trkpt lat="47.47571" lon="0.65133">
        <ele>82</ele>
        <time>2023-07-14T08:37:25Z</time>
      </trkpt>
      <trkpt lat="47.47565" lon="0.65126">
        <ele>82.2</ele>
        <time>2023-07-14T08:37:26Z</time>
      </trkpt>
      <trkpt lat="47.47559" lon="0.65119">
        <ele>82.4</ele>
        <time>2023-07-14T08:37:27Z</time>
      </trkpt>
      <trkpt lat="47.47554" lon="0.65112">
        <ele>82.6</ele>
        <time>2023-07-14T08:37:28Z</time>
      </trkpt>
      <trkpt lat="47.47549" lon="0.65105">
        <ele>82.8</ele>
        <time>2023-07-14T08:37:29Z</time>
      </trkpt>
      <trkpt lat="47.47543" lon="0.65099">
        <ele>83</ele>
        <time>2023-07-14T08:37:30Z</time>
      </trkpt>
      <trkpt lat="47.47539" lon="0.65093">
        <ele>83.2</ele>
        <time>2023-07-14T08:37:31Z</time>
      </trkpt>
      <trkpt lat="47.47533" lon="0.65087">
        <ele>83.6</ele>
        <time>2023-07-14T08:37:32Z</time>
      </trkpt>
      <trkpt lat="47.47527" lon="0.65081">
        <ele>83.8</ele>
        <time>2023-07-14T08:37:33Z</time>
      </trkpt>
      <trkpt lat="47.47522" lon="0.65078">
        <ele>84.2</ele>
        <time>2023-07-14T08:37:34Z</time>
      </trkpt>
      <trkpt lat="47.47516" lon="0.65075">
        <ele>84.6</ele>
        <time>2023-07-14T08:37:35Z</time>
      </trkpt>
      <trkpt lat="47.47509" lon="0.65071">
        <ele>84.8</ele>
        <time>2023-07-14T08:37:36Z</time>
      </trkpt>
      <trkpt lat="47.47502" lon="0.65068">
        <ele>85.2</ele>
        <time>2023-07-14T08:37:37Z</time>
      </trkpt>
      <trkpt lat="47.47496" lon="0.65064">
        <ele>85.4</ele>
        <time>2023-07-14T08:37:38Z</time>
      </trkpt>
      <trkpt lat="47.4749" lon="0.65059">
        <ele>85.6</ele>
        <time>2023-07-14T08:37:39Z</time>
      </trkpt>
      <trkpt lat="47.47485" lon="0.65054">
        <ele>85.8</ele>
        <time>2023-07-14T08:37:40Z</time>
      </trkpt>
      <trkpt lat="47.47479" lon="0.65047">
        <ele>86</ele>
        <time>2023-07-14T08:37:41Z</time>
      </trkpt>
      <trkpt lat="47.47473" lon="0.6504">
        <ele>86.2</ele>
        <time>2023-07-14T08:37:42Z</time>
      </trkpt>
      <trkpt lat="47.47468" lon="0.65032">
        <ele>86.2</ele>
        <time>2023-07-14T08:37:43Z</time>
      </trkpt>
      <trkpt lat="47.47464" lon="0.65025">
        <ele>86.2</ele>
        <time>2023-07-14T08:37:44Z</time>
      </trkpt>
      <trkpt lat="47.47459" lon="0.65018">
        <ele>86.4</ele>
        <time>2023-07-14T08:37:45Z</time>
      </trkpt>
      <trkpt lat="47.47454" lon="0.65011">
        <ele>86.4</ele>
        <time>2023-07-14T08:37:46Z</time>
      </trkpt>
      <trkpt lat="47.47449" lon="0.65004">
        <ele>86.8</ele>
        <time>2023-07-14T08:37:47Z</time>
      </trkpt>
      <trkpt lat="47.47445" lon="0.64997">
        <ele>87</ele>
        <time>2023-07-14T08:37:48Z</time>
      </trkpt>
      <trkpt lat="47.4744" lon="0.64991">
        <ele>87</ele>
        <time>2023-07-14T08:37:49Z</time>
      </trkpt>
      <trkpt lat="47.47436" lon="0.64984">
        <ele>87.2</ele>
        <time>2023-07-14T08:37:50Z</time>
      </trkpt>
      <trkpt lat="47.4743" lon="0.64976">
        <ele>87</ele>
        <time>2023-07-14T08:37:51Z</time>
      </trkpt>
      <trkpt lat="47.47425" lon="0.64969">
        <ele>87</ele>
        <time>2023-07-14T08:37:52Z</time>
      </trkpt>
      <trkpt lat="47.47421" lon="0.64963">
        <ele>87</ele>
        <time>2023-07-14T08:37:53Z</time>
      </trkpt>
      <trkpt lat="47.47417" lon="0.64956">
        <ele>87.2</ele>
        <time>2023-07-14T08:37:54Z</time>
      </trkpt>
      <trkpt lat="47.47411" lon="0.64949">
        <ele>87.2</ele>
        <time>2023-07-14T08:37:55Z</time>
      </trkpt>
      <trkpt lat="47.47406" lon="0.64942">
        <ele>87.2</ele>
        <time>2023-07-14T08:37:56Z</time>
      </trkpt>
      <trkpt lat="47.47401" lon="0.64934">
        <ele>87.4</ele>
        <time>2023-07-14T08:37:57Z</time>
      </trkpt>
      <trkpt lat="47.47396" lon="0.64926">
        <ele>87.8</ele>
        <time>2023-07-14T08:37:58Z</time>
      </trkpt>
      <trkpt lat="47.47391" lon="0.6492">
        <ele>87.8</ele>
        <time>2023-07-14T08:37:59Z</time>
      </trkpt>
      <trkpt lat="47.47387" lon="0.64914">
        <ele>88</ele>
        <time>2023-07-14T08:38:00Z</time>
      </trkpt>
      <trkpt lat="47.47381" lon="0.64906">
        <ele>88</ele>
        <time>2023-07-14T08:38:01Z</time>
      </trkpt>
      <trkpt lat="47.47377" lon="0.64899">
        <ele>88.4</ele>
        <time>2023-07-14T08:38:02Z</time>
      </trkpt>
      <trkpt lat="47.47372" lon="0.64892">
        <ele>88.6</ele>
        <time>2023-07-14T08:38:03Z</time>
      </trkpt>
      <trkpt lat="47.47367" lon="0.64886">
        <ele>88.4</ele>
        <time>2023-07-14T08:38:04Z</time>
      </trkpt>
      <trkpt lat="47.47361" lon="0.64879">
        <ele>88</ele>
        <time>2023-07-14T08:38:05Z</time>
      </trkpt>
      <trkpt lat="47.47356" lon="0.64872">
        <ele>88</ele>
        <time>2023-07-14T08:38:06Z</time>
      </trkpt>
      <trkpt lat="47.47351" lon="0.64865">
        <ele>88</ele>
        <time>2023-07-14T08:38:07Z</time>
      </trkpt>
      <trkpt lat="47.47346" lon="0.64858">
        <ele>88</ele>
        <time>2023-07-14T08:38:08Z</time>
      </trkpt>
      <trkpt lat="47.47341" lon="0.64851">
        <ele>88</ele>
        <time>2023-07-14T08:38:09Z</time>
      </trkpt>
      <trkpt lat="47.47336" lon="0.64844">
        <ele>87.8</ele>
        <time>2023-07-14T08:38:10Z</time>
      </trkpt>
      <trkpt lat="47.47331" lon="0.64837">
        <ele>87.8</ele>
        <time>2023-07-14T08:38:11Z</time>
      </trkpt>
      <trkpt lat="47.47327" lon="0.64831">
        <ele>87.8</ele>
        <time>2023-07-14T08:38:12Z</time>
      </trkpt>
      <trkpt lat="47.47323" lon="0.64826">
        <ele>88</ele>
        <time>2023-07-14T08:38:13Z</time>
      </trkpt>
      <trkpt lat="47.47318" lon="0.64819">
        <ele>88.2</ele>
        <time>2023-07-14T08:38:14Z</time>
      </trkpt>
      <trkpt lat="47.47313" lon="0.64811">
        <ele>88.4</ele>
        <time>2023-07-14T08:38:15Z</time>
      </trkpt>
      <trkpt lat="47.47308" lon="0.64805">
        <ele>88.4</ele>
        <time>2023-07-14T08:38:16Z</time>
      </trkpt>
      <trkpt lat="47.47304" lon="0.648">
        <ele>88.4</ele>
        <time>2023-07-14T08:38:17Z</time>
      </trkpt>
      <trkpt lat="47.473" lon="0.64793">
        <ele>88.2</ele>
        <time>2023-07-14T08:38:18Z</time>
      </trkpt>
      <trkpt lat="47.47294" lon="0.64786">
        <ele>88.4</ele>
        <time>2023-07-14T08:38:19Z</time>
      </trkpt>
      <trkpt lat="47.4729" lon="0.6478">
        <ele>88.4</ele>
        <time>2023-07-14T08:38:20Z</time>
      </trkpt>
      <trkpt lat="47.47285" lon="0.64773">
        <ele>88.6</ele>
        <time>2023-07-14T08:38:21Z</time>
      </trkpt>
      <trkpt lat="47.47281" lon="0.64767">
        <ele>88.6</ele>
        <time>2023-07-14T08:38:22Z</time>
      </trkpt>
      <trkpt lat="47.47276" lon="0.6476">
        <ele>88.6</ele>
        <time>2023-07-14T08:38:23Z</time>
      </trkpt>
      <trkpt lat="47.47272" lon="0.64754">
        <ele>88.4</ele>
        <time>2023-07-14T08:38:24Z</time>
      </trkpt>
      <trkpt lat="47.47267" lon="0.64748">
        <ele>88.4</ele>
        <time>2023-07-14T08:38:25Z</time>
      </trkpt>
      <trkpt lat="47.47263" lon="0.64742">
        <ele>88.4</ele>
        <time>2023-07-14T08:38:26Z</time>
      </trkpt>
      <trkpt lat="47.47258" lon="0.64735">
        <ele>88.2</ele>
        <time>2023-07-14T08:38:27Z</time>
      </trkpt>
      <trkpt lat="47.47253" lon="0.64728">
        <ele>88.4</ele>
        <time>2023-07-14T08:38:28Z</time>
      </trkpt>
      <trkpt lat="47.47249" lon="0.64722">
        <ele>88.2</ele>
        <time>2023-07-14T08:38:29Z</time>
      </trkpt>
      <trkpt lat="47.47245" lon="0.64716">
        <ele>88.2</ele>
        <time>2023-07-14T08:38:30Z</time>
      </trkpt>
      <trkpt lat="47.47242" lon="0.6471">
        <ele>88.2</ele>
        <time>2023-07-14T08:38:31Z</time>
      </trkpt>
      <trkpt lat="47.47237" lon="0.64704">
        <ele>88</ele>
        <time>2023-07-14T08:38:32Z</time>
      </trkpt>
      <trkpt lat="47.47233" lon="0.64698">
        <ele>88</ele>
        <time>2023-07-14T08:38:33Z</time>
      </trkpt>
      <trkpt lat="47.47229" lon="0.64693">
        <ele>88</ele>
        <time>2023-07-14T08:38:34Z</time>
      </trkpt>
      <trkpt lat="47.47224" lon="0.64687">
        <ele>87.8</ele>
        <time>2023-07-14T08:38:35Z</time>
      </trkpt>
      <trkpt lat="47.4722" lon="0.64681">
        <ele>87.8</ele>
        <time>2023-07-14T08:38:36Z</time>
      </trkpt>
      <trkpt lat="47.47216" lon="0.64675">
        <ele>87.6</ele>
        <time>2023-07-14T08:38:37Z</time>
      </trkpt>
      <trkpt lat="47.47212" lon="0.64669">
        <ele>87.6</ele>
        <time>2023-07-14T08:38:38Z</time>
      </trkpt>
      <trkpt lat="47.47208" lon="0.64663">
        <ele>87.6</ele>
        <time>2023-07-14T08:38:39Z</time>
      </trkpt>
      <trkpt lat="47.47204" lon="0.64657">
        <ele>87.8</ele>
        <time>2023-07-14T08:38:40Z</time>
      </trkpt>
      <trkpt lat="47.472" lon="0.64652">
        <ele>87.8</ele>
        <time>2023-07-14T08:38:41Z</time>
      </trkpt>
      <trkpt lat="47.47196" lon="0.64645">
        <ele>87.8</ele>
        <time>2023-07-14T08:38:42Z</time>
      </trkpt>
      <trkpt lat="47.47192" lon="0.64638">
        <ele>87.8</ele>
        <time>2023-07-14T08:38:43Z</time>
      </trkpt>
      <trkpt lat="47.47188" lon="0.64632">
        <ele>87.8</ele>
        <time>2023-07-14T08:38:44Z</time>
      </trkpt>
      <trkpt lat="47.47185" lon="0.64626">
        <ele>87.8</ele>
        <time>2023-07-14T08:38:45Z</time>
      </trkpt>
      <trkpt lat="47.47181" lon="0.6462">
        <ele>87.6</ele>
        <time>2023-07-14T08:38:46Z</time>
      </trkpt>
      <trkpt lat="47.47177" lon="0.64613">
        <ele>87.4</ele>
        <time>2023-07-14T08:38:47Z</time>
      </trkpt>
      <trkpt lat="47.47174" lon="0.64607">
        <ele>87.2</ele>
        <time>2023-07-14T08:38:48Z</time>
      </trkpt>
      <trkpt lat="47.47171" lon="0.64601">
        <ele>87.2</ele>
        <time>2023-07-14T08:38:49Z</time>
      </trkpt>
      <trkpt lat="47.47168" lon="0.64596">
        <ele>87</ele>
        <time>2023-07-14T08:38:50Z</time>
      </trkpt>
      <trkpt lat="47.47165" lon="0.64592">
        <ele>86.8</ele>
        <time>2023-07-14T08:38:51Z</time>
      </trkpt>
      <trkpt lat="47.47162" lon="0.64587">
        <ele>86.6</ele>
        <time>2023-07-14T08:38:52Z</time>
      </trkpt>
      <trkpt lat="47.47161" lon="0.64583">
        <ele>86.4</ele>
        <time>2023-07-14T08:38:53Z</time>
      </trkpt>
      <trkpt lat="47.4716" lon="0.64579">
        <ele>86.4</ele>
        <time>2023-07-14T08:38:54Z</time>
      </trkpt>
      <trkpt lat="47.47158" lon="0.64577">
        <ele>86.2</ele>
        <time>2023-07-14T08:38:55Z</time>
      </trkpt>
      <trkpt lat="47.47157" lon="0.64575">
        <ele>86.2</ele>
        <time>2023-07-14T08:38:56Z</time>
      </trkpt>
      <trkpt lat="47.47154" lon="0.64574">
        <ele>86</ele>
        <time>2023-07-14T08:38:57Z</time>
      </trkpt>
      <trkpt lat="47.47151" lon="0.64573">
        <ele>86.2</ele>
        <time>2023-07-14T08:38:58Z</time>
      </trkpt>
      <trkpt lat="47.47146" lon="0.64574">
        <ele>86</ele>
        <time>2023-07-14T08:38:59Z</time>
      </trkpt>
      <trkpt lat="47.47141" lon="0.64576">
        <ele>86</ele>
        <time>2023-07-14T08:39:00Z</time>
      </trkpt>
      <trkpt lat="47.47135" lon="0.64579">
        <ele>86.2</ele>
        <time>2023-07-14T08:39:01Z</time>
      </trkpt>
      <trkpt lat="47.4713" lon="0.64581">
        <ele>86.2</ele>
        <time>2023-07-14T08:39:02Z</time>
      </trkpt>
      <trkpt lat="47.47125" lon="0.64583">
        <ele>86.4</ele>
        <time>2023-07-14T08:39:03Z</time>
      </trkpt>
      <trkpt lat="47.47119" lon="0.64585">
        <ele>86.2</ele>
        <time>2023-07-14T08:39:04Z</time>
      </trkpt>
      <trkpt lat="47.47113" lon="0.64587">
        <ele>86</ele>
        <time>2023-07-14T08:39:05Z</time>
      </trkpt>
      <trkpt lat="47.47106" lon="0.64591">
        <ele>85.8</ele>
        <time>2023-07-14T08:39:06Z</time>
      </trkpt>
      <trkpt lat="47.471" lon="0.64594">
        <ele>85.6</ele>
        <time>2023-07-14T08:39:07Z</time>
      </trkpt>
      <trkpt lat="47.47095" lon="0.64596">
        <ele>85.4</ele>
        <time>2023-07-14T08:39:08Z</time>
      </trkpt>
      <trkpt lat="47.47091" lon="0.64597">
        <ele>85</ele>
        <time>2023-07-14T08:39:09Z</time>
      </trkpt>
      <trkpt lat="47.47088" lon="0.64598">
        <ele>84.8</ele>
        <time>2023-07-14T08:39:10Z</time>
      </trkpt>
      <trkpt lat="47.47087" lon="0.64599">
        <ele>84.4</ele>
        <time>2023-07-14T08:39:11Z</time>
      </trkpt>
      <trkpt lat="47.47084" lon="0.646">
        <ele>83.6</ele>
        <time>2023-07-14T08:39:54Z</time>
      </trkpt>
      <trkpt lat="47.47082" lon="0.64601">
        <ele>83.6</ele>
        <time>2023-07-14T08:39:55Z</time>
      </trkpt>
      <trkpt lat="47.4708" lon="0.64602">
        <ele>83.6</ele>
        <time>2023-07-14T08:39:56Z</time>
      </trkpt>
      <trkpt lat="47.47077" lon="0.64604">
        <ele>83.6</ele>
        <time>2023-07-14T08:39:57Z</time>
      </trkpt>
      <trkpt lat="47.47075" lon="0.64605">
        <ele>83.6</ele>
        <time>2023-07-14T08:39:58Z</time>
      </trkpt>
      <trkpt lat="47.47072" lon="0.64606">
        <ele>83.6</ele>
        <time>2023-07-14T08:39:59Z</time>
      </trkpt>
      <trkpt lat="47.47069" lon="0.64608">
        <ele>83.6</ele>
        <time>2023-07-14T08:40:00Z</time>
      </trkpt>
      <trkpt lat="47.47065" lon="0.64609">
        <ele>83.4</ele>
        <time>2023-07-14T08:40:01Z</time>
      </trkpt>
      <trkpt lat="47.4706" lon="0.64611">
        <ele>83.4</ele>
        <time>2023-07-14T08:40:02Z</time>
      </trkpt>
      <trkpt lat="47.47055" lon="0.64613">
        <ele>83.4</ele>
        <time>2023-07-14T08:40:03Z</time>
      </trkpt>
      <trkpt lat="47.4705" lon="0.64615">
        <ele>83.4</ele>
        <time>2023-07-14T08:40:04Z</time>
      </trkpt>
      <trkpt lat="47.47045" lon="0.64618">
        <ele>83.4</ele>
        <time>2023-07-14T08:40:05Z</time>
      </trkpt>
      <trkpt lat="47.47039" lon="0.6462">
        <ele>83.4</ele>
        <time>2023-07-14T08:40:06Z</time>
      </trkpt>
      <trkpt lat="47.47033" lon="0.64623">
        <ele>83.6</ele>
        <time>2023-07-14T08:40:07Z</time>
      </trkpt>
      <trkpt lat="47.47026" lon="0.64626">
        <ele>83.6</ele>
        <time>2023-07-14T08:40:08Z</time>
      </trkpt>
      <trkpt lat="47.4702" lon="0.64628">
        <ele>83.6</ele>
        <time>2023-07-14T08:40:09Z</time>
      </trkpt>
      <trkpt lat="47.47013" lon="0.64631">
        <ele>83.4</ele>
        <time>2023-07-14T08:40:10Z</time>
      </trkpt>
      <trkpt lat="47.47007" lon="0.64634">
        <ele>83.4</ele>
        <time>2023-07-14T08:40:11Z</time>
      </trkpt>
      <trkpt lat="47.47001" lon="0.64638">
        <ele>83.2</ele>
        <time>2023-07-14T08:40:12Z</time>
      </trkpt>
      <trkpt lat="47.46994" lon="0.64641">
        <ele>83.2</ele>
        <time>2023-07-14T08:40:13Z</time>
      </trkpt>
      <trkpt lat="47.46988" lon="0.64645">
        <ele>83</ele>
        <time>2023-07-14T08:40:14Z</time>
      </trkpt>
      <trkpt lat="47.46981" lon="0.64649">
        <ele>82.8</ele>
        <time>2023-07-14T08:40:15Z</time>
      </trkpt>
      <trkpt lat="47.46975" lon="0.64653">
        <ele>82.6</ele>
        <time>2023-07-14T08:40:16Z</time>
      </trkpt>
      <trkpt lat="47.46968" lon="0.64657">
        <ele>82.4</ele>
        <time>2023-07-14T08:40:17Z</time>
      </trkpt>
      <trkpt lat="47.46962" lon="0.64662">
        <ele>82.2</ele>
        <time>2023-07-14T08:40:18Z</time>
      </trkpt>
      <trkpt lat="47.46956" lon="0.64666">
        <ele>82.2</ele>
        <time>2023-07-14T08:40:19Z</time>
      </trkpt>
      <trkpt lat="47.4695" lon="0.64671">
        <ele>82</ele>
        <time>2023-07-14T08:40:20Z</time>
      </trkpt>
      <trkpt lat="47.46944" lon="0.64676">
        <ele>81.8</ele>
        <time>2023-07-14T08:40:21Z</time>
      </trkpt>
      <trkpt lat="47.46938" lon="0.6468">
        <ele>82</ele>
        <time>2023-07-14T08:40:22Z</time>
      </trkpt>
      <trkpt lat="47.46931" lon="0.64685">
        <ele>82</ele>
        <time>2023-07-14T08:40:23Z</time>
      </trkpt>
      <trkpt lat="47.46925" lon="0.64691">
        <ele>82.2</ele>
        <time>2023-07-14T08:40:24Z</time>
      </trkpt>
      <trkpt lat="47.4692" lon="0.64695">
        <ele>82.4</ele>
        <time>2023-07-14T08:40:25Z</time>
      </trkpt>
      <trkpt lat="47.46914" lon="0.64701">
        <ele>82.6</ele>
        <time>2023-07-14T08:40:26Z</time>
      </trkpt>
      <trkpt lat="47.46908" lon="0.64706">
        <ele>82.8</ele>
        <time>2023-07-14T08:40:27Z</time>
      </trkpt>
      <trkpt lat="47.46902" lon="0.64711">
        <ele>82.6</ele>
        <time>2023-07-14T08:40:28Z</time>
      </trkpt>
      <trkpt lat="47.46897" lon="0.64715">
        <ele>82.4</ele>
        <time>2023-07-14T08:40:29Z</time>
      </trkpt>
      <trkpt lat="47.46891" lon="0.6472">
        <ele>82.4</ele>
        <time>2023-07-14T08:40:30Z</time>
      </trkpt>
      <trkpt lat="47.46886" lon="0.64724">
        <ele>82.4</ele>
        <time>2023-07-14T08:40:31Z</time>
      </trkpt>
      <trkpt lat="47.4688" lon="0.64729">
        <ele>82.2</ele>
        <time>2023-07-14T08:40:32Z</time>
      </trkpt>
      <trkpt lat="47.46875" lon="0.64734">
        <ele>82</ele>
        <time>2023-07-14T08:40:33Z</time>
      </trkpt>
      <trkpt lat="47.46869" lon="0.64738">
        <ele>81.8</ele>
        <time>2023-07-14T08:40:34Z</time>
      </trkpt>
      <trkpt lat="47.46863" lon="0.64743">
        <ele>81.6</ele>
        <time>2023-07-14T08:40:35Z</time>
      </trkpt>
      <trkpt lat="47.46857" lon="0.64748">
        <ele>81.6</ele>
        <time>2023-07-14T08:40:36Z</time>
      </trkpt>
      <trkpt lat="47.46853" lon="0.64752">
        <ele>81.4</ele>
        <time>2023-07-14T08:40:37Z</time>
      </trkpt>
      <trkpt lat="47.46847" lon="0.64756">
        <ele>81.4</ele>
        <time>2023-07-14T08:40:38Z</time>
      </trkpt>
      <trkpt lat="47.46841" lon="0.64761">
        <ele>81.2</ele>
        <time>2023-07-14T08:40:39Z</time>
      </trkpt>
      <trkpt lat="47.46834" lon="0.64765">
        <ele>81.2</ele>
        <time>2023-07-14T08:40:40Z</time>
      </trkpt>
      <trkpt lat="47.46827" lon="0.64769">
        <ele>81</ele>
        <time>2023-07-14T08:40:41Z</time>
      </trkpt>
      <trkpt lat="47.4682" lon="0.64772">
        <ele>81.2</ele>
        <time>2023-07-14T08:40:42Z</time>
      </trkpt>
      <trkpt lat="47.46814" lon="0.64775">
        <ele>81.6</ele>
        <time>2023-07-14T08:40:43Z</time>
      </trkpt>
      <trkpt lat="47.46806" lon="0.64778">
        <ele>82</ele>
        <time>2023-07-14T08:40:44Z</time>
      </trkpt>
      <trkpt lat="47.46798" lon="0.64779">
        <ele>82.2</ele>
        <time>2023-07-14T08:40:45Z</time>
      </trkpt>
      <trkpt lat="47.46791" lon="0.64781">
        <ele>82.2</ele>
        <time>2023-07-14T08:40:46Z</time>
      </trkpt>
      <trkpt lat="47.46785" lon="0.64781">
        <ele>81.8</ele>
        <time>2023-07-14T08:40:47Z</time>
      </trkpt>
      <trkpt lat="47.46778" lon="0.64781">
        <ele>81.4</ele>
        <time>2023-07-14T08:40:48Z</time>
      </trkpt>
      <trkpt lat="47.46772" lon="0.64781">
        <ele>81.2</ele>
        <time>2023-07-14T08:40:49Z</time>
      </trkpt>
      <trkpt lat="47.46765" lon="0.6478">
        <ele>81</ele>
        <time>2023-07-14T08:40:50Z</time>
      </trkpt>
      <trkpt lat="47.46759" lon="0.6478">
        <ele>81</ele>
        <time>2023-07-14T08:40:51Z</time>
      </trkpt>
      <trkpt lat="47.46753" lon="0.64779">
        <ele>81</ele>
        <time>2023-07-14T08:40:52Z</time>
      </trkpt>
      <trkpt lat="47.46747" lon="0.64779">
        <ele>81</ele>
        <time>2023-07-14T08:40:53Z</time>
      </trkpt>
      <trkpt lat="47.4674" lon="0.64778">
        <ele>80.8</ele>
        <time>2023-07-14T08:40:54Z</time>
      </trkpt>
      <trkpt lat="47.46734" lon="0.64778">
        <ele>81</ele>
        <time>2023-07-14T08:40:55Z</time>
      </trkpt>
      <trkpt lat="47.46729" lon="0.64777">
        <ele>81</ele>
        <time>2023-07-14T08:40:56Z</time>
      </trkpt>
      <trkpt lat="47.46722" lon="0.64777">
        <ele>81</ele>
        <time>2023-07-14T08:40:57Z</time>
      </trkpt>
      <trkpt lat="47.46717" lon="0.64777">
        <ele>81</ele>
        <time>2023-07-14T08:40:58Z</time>
      </trkpt>
      <trkpt lat="47.46711" lon="0.64776">
        <ele>81</ele>
        <time>2023-07-14T08:40:59Z</time>
      </trkpt>
      <trkpt lat="47.46705" lon="0.64776">
        <ele>81</ele>
        <time>2023-07-14T08:41:00Z</time>
      </trkpt>
      <trkpt lat="47.46699" lon="0.64775">
        <ele>81</ele>
        <time>2023-07-14T08:41:01Z</time>
      </trkpt>
      <trkpt lat="47.46693" lon="0.64774">
        <ele>81</ele>
        <time>2023-07-14T08:41:02Z</time>
      </trkpt>
      <trkpt lat="47.46688" lon="0.64773">
        <ele>81.2</ele>
        <time>2023-07-14T08:41:03Z</time>
      </trkpt>
      <trkpt lat="47.46682" lon="0.64773">
        <ele>81.2</ele>
        <time>2023-07-14T08:41:04Z</time>
      </trkpt>
      <trkpt lat="47.46677" lon="0.64773">
        <ele>81.4</ele>
        <time>2023-07-14T08:41:05Z</time>
      </trkpt>
      <trkpt lat="47.46672" lon="0.64772">
        <ele>81.6</ele>
        <time>2023-07-14T08:41:06Z</time>
      </trkpt>
      <trkpt lat="47.46666" lon="0.64772">
        <ele>81.6</ele>
        <time>2023-07-14T08:41:07Z</time>
      </trkpt>
      <trkpt lat="47.4666" lon="0.64771">
        <ele>81.8</ele>
        <time>2023-07-14T08:41:08Z</time>
      </trkpt>
      <trkpt lat="47.46655" lon="0.6477">
        <ele>81.8</ele>
        <time>2023-07-14T08:41:09Z</time>
      </trkpt>
      <trkpt lat="47.4665" lon="0.64769">
        <ele>82</ele>
        <time>2023-07-14T08:41:10Z</time>
      </trkpt>
      <trkpt lat="47.46645" lon="0.64769">
        <ele>82</ele>
        <time>2023-07-14T08:41:11Z</time>
      </trkpt>
      <trkpt lat="47.4664" lon="0.64768">
        <ele>82.2</ele>
        <time>2023-07-14T08:41:12Z</time>
      </trkpt>
      <trkpt lat="47.46634" lon="0.64768">
        <ele>82.6</ele>
        <time>2023-07-14T08:41:13Z</time>
      </trkpt>
      <trkpt lat="47.46628" lon="0.64767">
        <ele>82.8</ele>
        <time>2023-07-14T08:41:14Z</time>
      </trkpt>
      <trkpt lat="47.46624" lon="0.64767">
        <ele>82.8</ele>
        <time>2023-07-14T08:41:15Z</time>
      </trkpt>
      <trkpt lat="47.46619" lon="0.64767">
        <ele>83</ele>
        <time>2023-07-14T08:41:16Z</time>
      </trkpt>
      <trkpt lat="47.46614" lon="0.64766">
        <ele>83.2</ele>
        <time>2023-07-14T08:41:17Z</time>
      </trkpt>
      <trkpt lat="47.46608" lon="0.64766">
        <ele>83.2</ele>
        <time>2023-07-14T08:41:18Z</time>
      </trkpt>
      <trkpt lat="47.46603" lon="0.64765">
        <ele>83.4</ele>
        <time>2023-07-14T08:41:19Z</time>
      </trkpt>
      <trkpt lat="47.46599" lon="0.64764">
        <ele>83.4</ele>
        <time>2023-07-14T08:41:20Z</time>
      </trkpt>
      <trkpt lat="47.46594" lon="0.64764">
        <ele>83.4</ele>
        <time>2023-07-14T08:41:21Z</time>
      </trkpt>
      <trkpt lat="47.46589" lon="0.64764">
        <ele>83.6</ele>
        <time>2023-07-14T08:41:22Z</time>
      </trkpt>
      <trkpt lat="47.46584" lon="0.64763">
        <ele>84</ele>
        <time>2023-07-14T08:41:23Z</time>
      </trkpt>
      <trkpt lat="47.46578" lon="0.64763">
        <ele>84.4</ele>
        <time>2023-07-14T08:41:24Z</time>
      </trkpt>
      <trkpt lat="47.46573" lon="0.64762">
        <ele>84.6</ele>
        <time>2023-07-14T08:41:25Z</time>
      </trkpt>
      <trkpt lat="47.46568" lon="0.64762">
        <ele>84.6</ele>
        <time>2023-07-14T08:41:26Z</time>
      </trkpt>
      <trkpt lat="47.46563" lon="0.64761">
        <ele>84.6</ele>
        <time>2023-07-14T08:41:27Z</time>
      </trkpt>
      <trkpt lat="47.46558" lon="0.6476">
        <ele>84.6</ele>
        <time>2023-07-14T08:41:28Z</time>
      </trkpt>
      <trkpt lat="47.46553" lon="0.6476">
        <ele>84.8</ele>
        <time>2023-07-14T08:41:29Z</time>
      </trkpt>
      <trkpt lat="47.46547" lon="0.64759">
        <ele>85</ele>
        <time>2023-07-14T08:41:30Z</time>
      </trkpt>
      <trkpt lat="47.46542" lon="0.64759">
        <ele>85.2</ele>
        <time>2023-07-14T08:41:31Z</time>
      </trkpt>
      <trkpt lat="47.46538" lon="0.64758">
        <ele>85.2</ele>
        <time>2023-07-14T08:41:32Z</time>
      </trkpt>
      <trkpt lat="47.46533" lon="0.64758">
        <ele>85.4</ele>
        <time>2023-07-14T08:41:33Z</time>
      </trkpt>
      <trkpt lat="47.46528" lon="0.64758">
        <ele>85.4</ele>
        <time>2023-07-14T08:41:34Z</time>
      </trkpt>
      <trkpt lat="47.46523" lon="0.64757">
        <ele>85.8</ele>
        <time>2023-07-14T08:41:35Z</time>
      </trkpt>
      <trkpt lat="47.46518" lon="0.64757">
        <ele>85.8</ele>
        <time>2023-07-14T08:41:36Z</time>
      </trkpt>
      <trkpt lat="47.46513" lon="0.64757">
        <ele>86</ele>
        <time>2023-07-14T08:41:37Z</time>
      </trkpt>
      <trkpt lat="47.46508" lon="0.64756">
        <ele>86</ele>
        <time>2023-07-14T08:41:38Z</time>
      </trkpt>
      <trkpt lat="47.46504" lon="0.64756">
        <ele>86.4</ele>
        <time>2023-07-14T08:41:39Z</time>
      </trkpt>
      <trkpt lat="47.46498" lon="0.64755">
        <ele>86.6</ele>
        <time>2023-07-14T08:41:40Z</time>
      </trkpt>
      <trkpt lat="47.46494" lon="0.64754">
        <ele>86.8</ele>
        <time>2023-07-14T08:41:41Z</time>
      </trkpt>
      <trkpt lat="47.4649" lon="0.64754">
        <ele>87</ele>
        <time>2023-07-14T08:41:42Z</time>
      </trkpt>
      <trkpt lat="47.46485" lon="0.64754">
        <ele>87.2</ele>
        <time>2023-07-14T08:41:43Z</time>
      </trkpt>
      <trkpt lat="47.46479" lon="0.64753">
        <ele>87.6</ele>
        <time>2023-07-14T08:41:44Z</time>
      </trkpt>
      <trkpt lat="47.46474" lon="0.64753">
        <ele>87.8</ele>
        <time>2023-07-14T08:41:45Z</time>
      </trkpt>
      <trkpt lat="47.4647" lon="0.64753">
        <ele>88.2</ele>
        <time>2023-07-14T08:41:46Z</time>
      </trkpt>
      <trkpt lat="47.46465" lon="0.64753">
        <ele>88.4</ele>
        <time>2023-07-14T08:41:47Z</time>
      </trkpt>
      <trkpt lat="47.4646" lon="0.64752">
        <ele>88.4</ele>
        <time>2023-07-14T08:41:48Z</time>
      </trkpt>
      <trkpt lat="47.46456" lon="0.64751">
        <ele>88.4</ele>
        <time>2023-07-14T08:41:49Z</time>
      </trkpt>
      <trkpt lat="47.46451" lon="0.64751">
        <ele>88.4</ele>
        <time>2023-07-14T08:41:50Z</time>
      </trkpt>
      <trkpt lat="47.46445" lon="0.6475">
        <ele>88.6</ele>
        <time>2023-07-14T08:41:51Z</time>
      </trkpt>
      <trkpt lat="47.4644" lon="0.64748">
        <ele>88.6</ele>
        <time>2023-07-14T08:41:52Z</time>
      </trkpt>
      <trkpt lat="47.46434" lon="0.64747">
        <ele>88.6</ele>
        <time>2023-07-14T08:41:53Z</time>
      </trkpt>
      <trkpt lat="47.46429" lon="0.64746">
        <ele>88.6</ele>
        <time>2023-07-14T08:41:54Z</time>
      </trkpt>
      <trkpt lat="47.46424" lon="0.64745">
        <ele>88.6</ele>
        <time>2023-07-14T08:41:55Z</time>
      </trkpt>
      <trkpt lat="47.46418" lon="0.64744">
        <ele>88.4</ele>
        <time>2023-07-14T08:41:56Z</time>
      </trkpt>
      <trkpt lat="47.46412" lon="0.64742">
        <ele>88.2</ele>
        <time>2023-07-14T08:41:57Z</time>
      </trkpt>
      <trkpt lat="47.46407" lon="0.64741">
        <ele>88</ele>
        <time>2023-07-14T08:41:58Z</time>
      </trkpt>
      <trkpt lat="47.46401" lon="0.6474">
        <ele>87.8</ele>
        <time>2023-07-14T08:41:59Z</time>
      </trkpt>
      <trkpt lat="47.46394" lon="0.64738">
        <ele>87.6</ele>
        <time>2023-07-14T08:42:00Z</time>
      </trkpt>
      <trkpt lat="47.46388" lon="0.64735">
        <ele>87.4</ele>
        <time>2023-07-14T08:42:01Z</time>
      </trkpt>
      <trkpt lat="47.46381" lon="0.64733">
        <ele>87</ele>
        <time>2023-07-14T08:42:02Z</time>
      </trkpt>
      <trkpt lat="47.46375" lon="0.64731">
        <ele>86.8</ele>
        <time>2023-07-14T08:42:03Z</time>
      </trkpt>
      <trkpt lat="47.46369" lon="0.64729">
        <ele>86.2</ele>
        <time>2023-07-14T08:42:04Z</time>
      </trkpt>
      <trkpt lat="47.46362" lon="0.64727">
        <ele>86</ele>
        <time>2023-07-14T08:42:05Z</time>
      </trkpt>
      <trkpt lat="47.46356" lon="0.64724">
        <ele>85.6</ele>
        <time>2023-07-14T08:42:06Z</time>
      </trkpt>
      <trkpt lat="47.46349" lon="0.64722">
        <ele>85.6</ele>
        <time>2023-07-14T08:42:07Z</time>
      </trkpt>
      <trkpt lat="47.46342" lon="0.6472">
        <ele>85.6</ele>
        <time>2023-07-14T08:42:08Z</time>
      </trkpt>
      <trkpt lat="47.46334" lon="0.64717">
        <ele>85.4</ele>
        <time>2023-07-14T08:42:09Z</time>
      </trkpt>
      <trkpt lat="47.46327" lon="0.64715">
        <ele>85.2</ele>
        <time>2023-07-14T08:42:10Z</time>
      </trkpt>
      <trkpt lat="47.4632" lon="0.64713">
        <ele>85</ele>
        <time>2023-07-14T08:42:11Z</time>
      </trkpt>
      <trkpt lat="47.46312" lon="0.6471">
        <ele>85</ele>
        <time>2023-07-14T08:42:12Z</time>
      </trkpt>
      <trkpt lat="47.46305" lon="0.64708">
        <ele>84.6</ele>
        <time>2023-07-14T08:42:13Z</time>
      </trkpt>
      <trkpt lat="47.46298" lon="0.64705">
        <ele>84.4</ele>
        <time>2023-07-14T08:42:14Z</time>
      </trkpt>
      <trkpt lat="47.46291" lon="0.64703">
        <ele>84.4</ele>
        <time>2023-07-14T08:42:15Z</time>
      </trkpt>
      <trkpt lat="47.46284" lon="0.647">
        <ele>84.2</ele>
        <time>2023-07-14T08:42:16Z</time>
      </trkpt>
      <trkpt lat="47.46278" lon="0.64697">
        <ele>84.2</ele>
        <time>2023-07-14T08:42:17Z</time>
      </trkpt>
      <trkpt lat="47.46273" lon="0.64695">
        <ele>84</ele>
        <time>2023-07-14T08:42:18Z</time>
      </trkpt>
      <trkpt lat="47.46267" lon="0.64692">
        <ele>84.2</ele>
        <time>2023-07-14T08:42:19Z</time>
      </trkpt>
      <trkpt lat="47.46261" lon="0.6469">
        <ele>84.2</ele>
        <time>2023-07-14T08:42:20Z</time>
      </trkpt>
      <trkpt lat="47.46255" lon="0.64687">
        <ele>84.2</ele>
        <time>2023-07-14T08:42:21Z</time>
      </trkpt>
      <trkpt lat="47.46249" lon="0.64684">
        <ele>84.4</ele>
        <time>2023-07-14T08:42:22Z</time>
      </trkpt>
      <trkpt lat="47.46244" lon="0.64681">
        <ele>84.4</ele>
        <time>2023-07-14T08:42:23Z</time>
      </trkpt>
      <trkpt lat="47.46238" lon="0.64678">
        <ele>84.6</ele>
        <time>2023-07-14T08:42:24Z</time>
      </trkpt>
      <trkpt lat="47.46233" lon="0.64675">
        <ele>84.8</ele>
        <time>2023-07-14T08:42:25Z</time>
      </trkpt>
      <trkpt lat="47.46227" lon="0.64672">
        <ele>85</ele>
        <time>2023-07-14T08:42:26Z</time>
      </trkpt>
      <trkpt lat="47.46221" lon="0.6467">
        <ele>85.2</ele>
        <time>2023-07-14T08:42:27Z</time>
      </trkpt>
      <trkpt lat="47.46217" lon="0.64668">
        <ele>85.4</ele>
        <time>2023-07-14T08:42:28Z</time>
      </trkpt>
      <trkpt lat="47.46212" lon="0.64666">
        <ele>85.6</ele>
        <time>2023-07-14T08:42:29Z</time>
      </trkpt>
      <trkpt lat="47.46206" lon="0.64663">
        <ele>85.6</ele>
        <time>2023-07-14T08:42:30Z</time>
      </trkpt>
      <trkpt lat="47.46201" lon="0.6466">
        <ele>85.6</ele>
        <time>2023-07-14T08:42:31Z</time>
      </trkpt>
      <trkpt lat="47.46196" lon="0.64657">
        <ele>85.6</ele>
        <time>2023-07-14T08:42:32Z</time>
      </trkpt>
      <trkpt lat="47.46191" lon="0.64655">
        <ele>85.6</ele>
        <time>2023-07-14T08:42:33Z</time>
      </trkpt>
      <trkpt lat="47.46186" lon="0.64652">
        <ele>85.8</ele>
        <time>2023-07-14T08:42:34Z</time>
      </trkpt>
      <trkpt lat="47.4618" lon="0.6465">
        <ele>85.8</ele>
        <time>2023-07-14T08:42:35Z</time>
      </trkpt>
      <trkpt lat="47.46175" lon="0.64647">
        <ele>86</ele>
        <time>2023-07-14T08:42:36Z</time>
      </trkpt>
      <trkpt lat="47.4617" lon="0.64644">
        <ele>86.2</ele>
        <time>2023-07-14T08:42:37Z</time>
      </trkpt>
      <trkpt lat="47.46165" lon="0.64642">
        <ele>86.2</ele>
        <time>2023-07-14T08:42:38Z</time>
      </trkpt>
      <trkpt lat="47.46159" lon="0.64639">
        <ele>86.4</ele>
        <time>2023-07-14T08:42:39Z</time>
      </trkpt>
      <trkpt lat="47.46154" lon="0.64636">
        <ele>86.4</ele>
        <time>2023-07-14T08:42:40Z</time>
      </trkpt>
      <trkpt lat="47.46149" lon="0.64633">
        <ele>86.6</ele>
        <time>2023-07-14T08:42:41Z</time>
      </trkpt>
      <trkpt lat="47.46143" lon="0.6463">
        <ele>86.8</ele>
        <time>2023-07-14T08:42:42Z</time>
      </trkpt>
      <trkpt lat="47.46137" lon="0.64628">
        <ele>86.8</ele>
        <time>2023-07-14T08:42:43Z</time>
      </trkpt>
      <trkpt lat="47.46131" lon="0.64625">
        <ele>86.8</ele>
        <time>2023-07-14T08:42:44Z</time>
      </trkpt>
      <trkpt lat="47.46127" lon="0.64623">
        <ele>86.8</ele>
        <time>2023-07-14T08:42:45Z</time>
      </trkpt>
      <trkpt lat="47.46121" lon="0.6462">
        <ele>86.6</ele>
        <time>2023-07-14T08:42:46Z</time>
      </trkpt>
      <trkpt lat="47.46115" lon="0.64618">
        <ele>86.6</ele>
        <time>2023-07-14T08:42:47Z</time>
      </trkpt>
      <trkpt lat="47.46109" lon="0.64615">
        <ele>86.4</ele>
        <time>2023-07-14T08:42:48Z</time>
      </trkpt>
      <trkpt lat="47.46104" lon="0.64612">
        <ele>86.4</ele>
        <time>2023-07-14T08:42:49Z</time>
      </trkpt>
      <trkpt lat="47.46098" lon="0.6461">
        <ele>86.4</ele>
        <time>2023-07-14T08:42:50Z</time>
      </trkpt>
      <trkpt lat="47.46092" lon="0.64607">
        <ele>86.2</ele>
        <time>2023-07-14T08:42:51Z</time>
      </trkpt>
      <trkpt lat="47.46086" lon="0.64604">
        <ele>86</ele>
        <time>2023-07-14T08:42:52Z</time>
      </trkpt>
      <trkpt lat="47.4608" lon="0.64601">
        <ele>85.8</ele>
        <time>2023-07-14T08:42:53Z</time>
      </trkpt>
      <trkpt lat="47.46074" lon="0.64598">
        <ele>85.8</ele>
        <time>2023-07-14T08:42:54Z</time>
      </trkpt>
      <trkpt lat="47.46069" lon="0.64596">
        <ele>85.8</ele>
        <time>2023-07-14T08:42:55Z</time>
      </trkpt>
      <trkpt lat="47.46063" lon="0.64593">
        <ele>85.8</ele>
        <time>2023-07-14T08:42:56Z</time>
      </trkpt>
      <trkpt lat="47.46058" lon="0.64591">
        <ele>85.8</ele>
        <time>2023-07-14T08:42:57Z</time>
      </trkpt>
      <trkpt lat="47.46051" lon="0.64588">
        <ele>85.8</ele>
        <time>2023-07-14T08:42:58Z</time>
      </trkpt>
      <trkpt lat="47.46045" lon="0.64585">
        <ele>85.8</ele>
        <time>2023-07-14T08:42:59Z</time>
      </trkpt>
      <trkpt lat="47.4604" lon="0.64582">
        <ele>85.6</ele>
        <time>2023-07-14T08:43:00Z</time>
      </trkpt>
      <trkpt lat="47.46034" lon="0.6458">
        <ele>85.8</ele>
        <time>2023-07-14T08:43:01Z</time>
      </trkpt>
      <trkpt lat="47.46028" lon="0.64576">
        <ele>85.8</ele>
        <time>2023-07-14T08:43:02Z</time>
      </trkpt>
      <trkpt lat="47.46022" lon="0.64573">
        <ele>85.8</ele>
        <time>2023-07-14T08:43:03Z</time>
      </trkpt>
      <trkpt lat="47.46017" lon="0.64571">
        <ele>85.8</ele>
        <time>2023-07-14T08:43:04Z</time>
      </trkpt>
      <trkpt lat="47.46011" lon="0.64568">
        <ele>86</ele>
        <time>2023-07-14T08:43:05Z</time>
      </trkpt>
      <trkpt lat="47.46006" lon="0.64565">
        <ele>86.2</ele>
        <time>2023-07-14T08:43:06Z</time>
      </trkpt>
      <trkpt lat="47.46" lon="0.64562">
        <ele>86.4</ele>
        <time>2023-07-14T08:43:07Z</time>
      </trkpt>
      <trkpt lat="47.45995" lon="0.6456">
        <ele>86.4</ele>
        <time>2023-07-14T08:43:08Z</time>
      </trkpt>
      <trkpt lat="47.4599" lon="0.64558">
        <ele>86.4</ele>
        <time>2023-07-14T08:43:09Z</time>
      </trkpt>
      <trkpt lat="47.45985" lon="0.64555">
        <ele>86.6</ele>
        <time>2023-07-14T08:43:10Z</time>
      </trkpt>
      <trkpt lat="47.4598" lon="0.64553">
        <ele>86.8</ele>
        <time>2023-07-14T08:43:11Z</time>
      </trkpt>
      <trkpt lat="47.45974" lon="0.6455">
        <ele>87</ele>
        <time>2023-07-14T08:43:12Z</time>
      </trkpt>
      <trkpt lat="47.45969" lon="0.64547">
        <ele>87.2</ele>
        <time>2023-07-14T08:43:13Z</time>
      </trkpt>
      <trkpt lat="47.45965" lon="0.64545">
        <ele>87.2</ele>
        <time>2023-07-14T08:43:14Z</time>
      </trkpt>
      <trkpt lat="47.45961" lon="0.64543">
        <ele>87.4</ele>
        <time>2023-07-14T08:43:15Z</time>
      </trkpt>
      <trkpt lat="47.45956" lon="0.64541">
        <ele>87.6</ele>
        <time>2023-07-14T08:43:16Z</time>
      </trkpt>
      <trkpt lat="47.45951" lon="0.64539">
        <ele>87.8</ele>
        <time>2023-07-14T08:43:17Z</time>
      </trkpt>
      <trkpt lat="47.45945" lon="0.64537">
        <ele>88</ele>
        <time>2023-07-14T08:43:18Z</time>
      </trkpt>
      <trkpt lat="47.4594" lon="0.64534">
        <ele>88.2</ele>
        <time>2023-07-14T08:43:19Z</time>
      </trkpt>
      <trkpt lat="47.45935" lon="0.64532">
        <ele>88.4</ele>
        <time>2023-07-14T08:43:20Z</time>
      </trkpt>
      <trkpt lat="47.4593" lon="0.6453">
        <ele>88.6</ele>
        <time>2023-07-14T08:43:21Z</time>
      </trkpt>
      <trkpt lat="47.45926" lon="0.64527">
        <ele>89</ele>
        <time>2023-07-14T08:43:22Z</time>
      </trkpt>
      <trkpt lat="47.4592" lon="0.64524">
        <ele>89.2</ele>
        <time>2023-07-14T08:43:23Z</time>
      </trkpt>
      <trkpt lat="47.45915" lon="0.64522">
        <ele>89.4</ele>
        <time>2023-07-14T08:43:24Z</time>
      </trkpt>
      <trkpt lat="47.45911" lon="0.64519">
        <ele>89.6</ele>
        <time>2023-07-14T08:43:25Z</time>
      </trkpt>
      <trkpt lat="47.45906" lon="0.64517">
        <ele>89.8</ele>
        <time>2023-07-14T08:43:26Z</time>
      </trkpt>
      <trkpt lat="47.45901" lon="0.64515">
        <ele>89.8</ele>
        <time>2023-07-14T08:43:27Z</time>
      </trkpt>
      <trkpt lat="47.45896" lon="0.64513">
        <ele>90</ele>
        <time>2023-07-14T08:43:28Z</time>
      </trkpt>
      <trkpt lat="47.45891" lon="0.6451">
        <ele>90.2</ele>
        <time>2023-07-14T08:43:29Z</time>
      </trkpt>
      <trkpt lat="47.45885" lon="0.64508">
        <ele>90.2</ele>
        <time>2023-07-14T08:43:30Z</time>
      </trkpt>
      <trkpt lat="47.4588" lon="0.64506">
        <ele>90.6</ele>
        <time>2023-07-14T08:43:31Z</time>
      </trkpt>
      <trkpt lat="47.45875" lon="0.64504">
        <ele>90.8</ele>
        <time>2023-07-14T08:43:32Z</time>
      </trkpt>
      <trkpt lat="47.45869" lon="0.64503">
        <ele>91</ele>
        <time>2023-07-14T08:43:33Z</time>
      </trkpt>
      <trkpt lat="47.45864" lon="0.64502">
        <ele>91</ele>
        <time>2023-07-14T08:43:34Z</time>
      </trkpt>
      <trkpt lat="47.45858" lon="0.64502">
        <ele>90.8</ele>
        <time>2023-07-14T08:43:35Z</time>
      </trkpt>
      <trkpt lat="47.45852" lon="0.64502">
        <ele>90.8</ele>
        <time>2023-07-14T08:43:36Z</time>
      </trkpt>
      <trkpt lat="47.45846" lon="0.64503">
        <ele>90.6</ele>
        <time>2023-07-14T08:43:37Z</time>
      </trkpt>
      <trkpt lat="47.45839" lon="0.64504">
        <ele>90.4</ele>
        <time>2023-07-14T08:43:38Z</time>
      </trkpt>
      <trkpt lat="47.45832" lon="0.64505">
        <ele>90.2</ele>
        <time>2023-07-14T08:43:39Z</time>
      </trkpt>
      <trkpt lat="47.45825" lon="0.64507">
        <ele>89.8</ele>
        <time>2023-07-14T08:43:40Z</time>
      </trkpt>
      <trkpt lat="47.45818" lon="0.64509">
        <ele>89.8</ele>
        <time>2023-07-14T08:43:41Z</time>
      </trkpt>
      <trkpt lat="47.4581" lon="0.64511">
        <ele>89.6</ele>
        <time>2023-07-14T08:43:42Z</time>
      </trkpt>
      <trkpt lat="47.45803" lon="0.64513">
        <ele>89.6</ele>
        <time>2023-07-14T08:43:43Z</time>
      </trkpt>
      <trkpt lat="47.45795" lon="0.64515">
        <ele>89.2</ele>
        <time>2023-07-14T08:43:44Z</time>
      </trkpt>
      <trkpt lat="47.45788" lon="0.64516">
        <ele>88.8</ele>
        <time>2023-07-14T08:43:45Z</time>
      </trkpt>
      <trkpt lat="47.45781" lon="0.64518">
        <ele>88.6</ele>
        <time>2023-07-14T08:43:46Z</time>
      </trkpt>
      <trkpt lat="47.45772" lon="0.6452">
        <ele>88</ele>
        <time>2023-07-14T08:43:47Z</time>
      </trkpt>
      <trkpt lat="47.45765" lon="0.64522">
        <ele>87.8</ele>
        <time>2023-07-14T08:43:48Z</time>
      </trkpt>
      <trkpt lat="47.45758" lon="0.64523">
        <ele>87.4</ele>
        <time>2023-07-14T08:43:49Z</time>
      </trkpt>
      <trkpt lat="47.4575" lon="0.64525">
        <ele>87</ele>
        <time>2023-07-14T08:43:50Z</time>
      </trkpt>
      <trkpt lat="47.45742" lon="0.64527">
        <ele>86.8</ele>
        <time>2023-07-14T08:43:51Z</time>
      </trkpt>
      <trkpt lat="47.45734" lon="0.64529">
        <ele>86.6</ele>
        <time>2023-07-14T08:43:52Z</time>
      </trkpt>
      <trkpt lat="47.45728" lon="0.6453">
        <ele>86.2</ele>
        <time>2023-07-14T08:43:53Z</time>
      </trkpt>
      <trkpt lat="47.4572" lon="0.64532">
        <ele>85.8</ele>
        <time>2023-07-14T08:43:54Z</time>
      </trkpt>
      <trkpt lat="47.45713" lon="0.64534">
        <ele>85.4</ele>
        <time>2023-07-14T08:43:55Z</time>
      </trkpt>
      <trkpt lat="47.45705" lon="0.64536">
        <ele>85</ele>
        <time>2023-07-14T08:43:56Z</time>
      </trkpt>
      <trkpt lat="47.45698" lon="0.64537">
        <ele>84.8</ele>
        <time>2023-07-14T08:43:57Z</time>
      </trkpt>
      <trkpt lat="47.45692" lon="0.6454">
        <ele>84.8</ele>
        <time>2023-07-14T08:43:58Z</time>
      </trkpt>
      <trkpt lat="47.45685" lon="0.64542">
        <ele>84.6</ele>
        <time>2023-07-14T08:43:59Z</time>
      </trkpt>
      <trkpt lat="47.45678" lon="0.64545">
        <ele>84.4</ele>
        <time>2023-07-14T08:44:00Z</time>
      </trkpt>
      <trkpt lat="47.45671" lon="0.64549">
        <ele>84.4</ele>
        <time>2023-07-14T08:44:01Z</time>
      </trkpt>
      <trkpt lat="47.45666" lon="0.64552">
        <ele>84.2</ele>
        <time>2023-07-14T08:44:02Z</time>
      </trkpt>
      <trkpt lat="47.45661" lon="0.64555">
        <ele>84.2</ele>
        <time>2023-07-14T08:44:03Z</time>
      </trkpt>
      <trkpt lat="47.45655" lon="0.64558">
        <ele>84.2</ele>
        <time>2023-07-14T08:44:04Z</time>
      </trkpt>
      <trkpt lat="47.4565" lon="0.64561">
        <ele>84.4</ele>
        <time>2023-07-14T08:44:05Z</time>
      </trkpt>
      <trkpt lat="47.45646" lon="0.64564">
        <ele>84.6</ele>
        <time>2023-07-14T08:44:06Z</time>
      </trkpt>
      <trkpt lat="47.45641" lon="0.64567">
        <ele>85</ele>
        <time>2023-07-14T08:44:07Z</time>
      </trkpt>
      <trkpt lat="47.45636" lon="0.64569">
        <ele>85.2</ele>
        <time>2023-07-14T08:44:08Z</time>
      </trkpt>
      <trkpt lat="47.45631" lon="0.64571">
        <ele>85.4</ele>
        <time>2023-07-14T08:44:09Z</time>
      </trkpt>
      <trkpt lat="47.45626" lon="0.64574">
        <ele>85.8</ele>
        <time>2023-07-14T08:44:10Z</time>
      </trkpt>
      <trkpt lat="47.45621" lon="0.64576">
        <ele>86</ele>
        <time>2023-07-14T08:44:11Z</time>
      </trkpt>
      <trkpt lat="47.45617" lon="0.64577">
        <ele>86.4</ele>
        <time>2023-07-14T08:44:12Z</time>
      </trkpt>
      <trkpt lat="47.45612" lon="0.64579">
        <ele>86.6</ele>
        <time>2023-07-14T08:44:13Z</time>
      </trkpt>
      <trkpt lat="47.45607" lon="0.6458">
        <ele>87</ele>
        <time>2023-07-14T08:44:14Z</time>
      </trkpt>
      <trkpt lat="47.45603" lon="0.64582">
        <ele>87.2</ele>
        <time>2023-07-14T08:44:15Z</time>
      </trkpt>
      <trkpt lat="47.45599" lon="0.64583">
        <ele>87.2</ele>
        <time>2023-07-14T08:44:16Z</time>
      </trkpt>
      <trkpt lat="47.45594" lon="0.64584">
        <ele>87.4</ele>
        <time>2023-07-14T08:44:17Z</time>
      </trkpt>
      <trkpt lat="47.45589" lon="0.64585">
        <ele>87.6</ele>
        <time>2023-07-14T08:44:18Z</time>
      </trkpt>
      <trkpt lat="47.45584" lon="0.64585">
        <ele>87.8</ele>
        <time>2023-07-14T08:44:19Z</time>
      </trkpt>
      <trkpt lat="47.4558" lon="0.64586">
        <ele>88.2</ele>
        <time>2023-07-14T08:44:20Z</time>
      </trkpt>
      <trkpt lat="47.45575" lon="0.64587">
        <ele>88.4</ele>
        <time>2023-07-14T08:44:21Z</time>
      </trkpt>
      <trkpt lat="47.45571" lon="0.64588">
        <ele>88.6</ele>
        <time>2023-07-14T08:44:22Z</time>
      </trkpt>
      <trkpt lat="47.45567" lon="0.64589">
        <ele>89</ele>
        <time>2023-07-14T08:44:23Z</time>
      </trkpt>
      <trkpt lat="47.45562" lon="0.6459">
        <ele>89.2</ele>
        <time>2023-07-14T08:44:24Z</time>
      </trkpt>
      <trkpt lat="47.45556" lon="0.64591">
        <ele>89.4</ele>
        <time>2023-07-14T08:44:25Z</time>
      </trkpt>
      <trkpt lat="47.45552" lon="0.64591">
        <ele>89.4</ele>
        <time>2023-07-14T08:44:26Z</time>
      </trkpt>
      <trkpt lat="47.45547" lon="0.64592">
        <ele>89.6</ele>
        <time>2023-07-14T08:44:27Z</time>
      </trkpt>
      <trkpt lat="47.45542" lon="0.64593">
        <ele>89.6</ele>
        <time>2023-07-14T08:44:28Z</time>
      </trkpt>
      <trkpt lat="47.45536" lon="0.64594">
        <ele>89.8</ele>
        <time>2023-07-14T08:44:29Z</time>
      </trkpt>
      <trkpt lat="47.45531" lon="0.64595">
        <ele>90</ele>
        <time>2023-07-14T08:44:30Z</time>
      </trkpt>
      <trkpt lat="47.45526" lon="0.64596">
        <ele>90.2</ele>
        <time>2023-07-14T08:44:31Z</time>
      </trkpt>
      <trkpt lat="47.45521" lon="0.64597">
        <ele>90.2</ele>
        <time>2023-07-14T08:44:32Z</time>
      </trkpt>
      <trkpt lat="47.45515" lon="0.64598">
        <ele>90.2</ele>
        <time>2023-07-14T08:44:33Z</time>
      </trkpt>
      <trkpt lat="47.45511" lon="0.64598">
        <ele>90.2</ele>
        <time>2023-07-14T08:44:34Z</time>
      </trkpt>
      <trkpt lat="47.45506" lon="0.64599">
        <ele>90.2</ele>
        <time>2023-07-14T08:44:35Z</time>
      </trkpt>
      <trkpt lat="47.455" lon="0.64598">
        <ele>90.2</ele>
        <time>2023-07-14T08:44:36Z</time>
      </trkpt>
      <trkpt lat="47.45495" lon="0.64597">
        <ele>90.2</ele>
        <time>2023-07-14T08:44:37Z</time>
      </trkpt>
      <trkpt lat="47.4549" lon="0.64594">
        <ele>90.2</ele>
        <time>2023-07-14T08:44:38Z</time>
      </trkpt>
      <trkpt lat="47.45486" lon="0.64589">
        <ele>90.4</ele>
        <time>2023-07-14T08:44:39Z</time>
      </trkpt>
      <trkpt lat="47.45483" lon="0.64585">
        <ele>90.6</ele>
        <time>2023-07-14T08:44:40Z</time>
      </trkpt>
      <trkpt lat="47.4548" lon="0.6458">
        <ele>91</ele>
        <time>2023-07-14T08:44:41Z</time>
      </trkpt>
      <trkpt lat="47.45478" lon="0.64574">
        <ele>91.2</ele>
        <time>2023-07-14T08:44:42Z</time>
      </trkpt>
      <trkpt lat="47.45474" lon="0.64568">
        <ele>91.2</ele>
        <time>2023-07-14T08:44:43Z</time>
      </trkpt>
      <trkpt lat="47.45471" lon="0.64562">
        <ele>91.6</ele>
        <time>2023-07-14T08:44:44Z</time>
      </trkpt>
      <trkpt lat="47.45468" lon="0.64559">
        <ele>91.8</ele>
        <time>2023-07-14T08:44:45Z</time>
      </trkpt>
      <trkpt lat="47.45464" lon="0.64555">
        <ele>91.8</ele>
        <time>2023-07-14T08:44:46Z</time>
      </trkpt>
      <trkpt lat="47.45459" lon="0.64552">
        <ele>91.8</ele>
        <time>2023-07-14T08:44:47Z</time>
      </trkpt>
      <trkpt lat="47.45454" lon="0.64551">
        <ele>92</ele>
        <time>2023-07-14T08:44:48Z</time>
      </trkpt>
      <trkpt lat="47.45449" lon="0.64549">
        <ele>92</ele>
        <time>2023-07-14T08:44:49Z</time>
      </trkpt>
      <trkpt lat="47.45444" lon="0.64549">
        <ele>91.8</ele>
        <time>2023-07-14T08:44:50Z</time>
      </trkpt>
      <trkpt lat="47.45439" lon="0.64548">
        <ele>91.8</ele>
        <time>2023-07-14T08:44:51Z</time>
      </trkpt>
      <trkpt lat="47.45432" lon="0.64547">
        <ele>91.8</ele>
        <time>2023-07-14T08:44:52Z</time>
      </trkpt>
      <trkpt lat="47.45426" lon="0.64546">
        <ele>91.8</ele>
        <time>2023-07-14T08:44:53Z</time>
      </trkpt>
      <trkpt lat="47.45421" lon="0.64545">
        <ele>91.6</ele>
        <time>2023-07-14T08:44:54Z</time>
      </trkpt>
      <trkpt lat="47.45415" lon="0.64543">
        <ele>91.4</ele>
        <time>2023-07-14T08:44:55Z</time>
      </trkpt>
      <trkpt lat="47.45409" lon="0.6454">
        <ele>91.2</ele>
        <time>2023-07-14T08:44:56Z</time>
      </trkpt>
      <trkpt lat="47.45404" lon="0.64535">
        <ele>91</ele>
        <time>2023-07-14T08:44:57Z</time>
      </trkpt>
      <trkpt lat="47.45399" lon="0.64529">
        <ele>90.8</ele>
        <time>2023-07-14T08:44:58Z</time>
      </trkpt>
      <trkpt lat="47.45394" lon="0.64522">
        <ele>90.6</ele>
        <time>2023-07-14T08:44:59Z</time>
      </trkpt>
      <trkpt lat="47.45389" lon="0.64515">
        <ele>90.4</ele>
        <time>2023-07-14T08:45:00Z</time>
      </trkpt>
      <trkpt lat="47.45384" lon="0.64508">
        <ele>90.2</ele>
        <time>2023-07-14T08:45:01Z</time>
      </trkpt>
      <trkpt lat="47.45379" lon="0.64501">
        <ele>90</ele>
        <time>2023-07-14T08:45:02Z</time>
      </trkpt>
      <trkpt lat="47.45373" lon="0.64495">
        <ele>90</ele>
        <time>2023-07-14T08:45:03Z</time>
      </trkpt>
      <trkpt lat="47.45367" lon="0.6449">
        <ele>89.8</ele>
        <time>2023-07-14T08:45:04Z</time>
      </trkpt>
      <trkpt lat="47.45361" lon="0.64486">
        <ele>89.6</ele>
        <time>2023-07-14T08:45:05Z</time>
      </trkpt>
      <trkpt lat="47.45355" lon="0.64483">
        <ele>89.4</ele>
        <time>2023-07-14T08:45:06Z</time>
      </trkpt>
      <trkpt lat="47.45348" lon="0.64481">
        <ele>89.2</ele>
        <time>2023-07-14T08:45:07Z</time>
      </trkpt>
      <trkpt lat="47.45342" lon="0.64479">
        <ele>89</ele>
        <time>2023-07-14T08:45:08Z</time>
      </trkpt>
      <trkpt lat="47.45336" lon="0.64477">
        <ele>89</ele>
        <time>2023-07-14T08:45:09Z</time>
      </trkpt>
      <trkpt lat="47.45329" lon="0.64476">
        <ele>88.8</ele>
        <time>2023-07-14T08:45:10Z</time>
      </trkpt>
      <trkpt lat="47.45323" lon="0.64475">
        <ele>88.6</ele>
        <time>2023-07-14T08:45:11Z</time>
      </trkpt>
      <trkpt lat="47.45317" lon="0.64474">
        <ele>88.8</ele>
        <time>2023-07-14T08:45:12Z</time>
      </trkpt>
      <trkpt lat="47.45311" lon="0.64473">
        <ele>88.6</ele>
        <time>2023-07-14T08:45:13Z</time>
      </trkpt>
      <trkpt lat="47.45305" lon="0.64472">
        <ele>88.6</ele>
        <time>2023-07-14T08:45:14Z</time>
      </trkpt>
      <trkpt lat="47.453" lon="0.64471">
        <ele>88.6</ele>
        <time>2023-07-14T08:45:15Z</time>
      </trkpt>
      <trkpt lat="47.45294" lon="0.64471">
        <ele>88.6</ele>
        <time>2023-07-14T08:45:16Z</time>
      </trkpt>
      <trkpt lat="47.4529" lon="0.6447">
        <ele>88.6</ele>
        <time>2023-07-14T08:45:17Z</time>
      </trkpt>
      <trkpt lat="47.45284" lon="0.6447">
        <ele>88.6</ele>
        <time>2023-07-14T08:45:18Z</time>
      </trkpt>
      <trkpt lat="47.4528" lon="0.6447">
        <ele>88.6</ele>
        <time>2023-07-14T08:45:19Z</time>
      </trkpt>
      <trkpt lat="47.45275" lon="0.64471">
        <ele>88.4</ele>
        <time>2023-07-14T08:45:20Z</time>
      </trkpt>
      <trkpt lat="47.45269" lon="0.64473">
        <ele>88.4</ele>
        <time>2023-07-14T08:45:21Z</time>
      </trkpt>
      <trkpt lat="47.45263" lon="0.64475">
        <ele>88.2</ele>
        <time>2023-07-14T08:45:22Z</time>
      </trkpt>
      <trkpt lat="47.45256" lon="0.64478">
        <ele>88.2</ele>
        <time>2023-07-14T08:45:23Z</time>
      </trkpt>
      <trkpt lat="47.45249" lon="0.64479">
        <ele>87.8</ele>
        <time>2023-07-14T08:45:24Z</time>
      </trkpt>
      <trkpt lat="47.45243" lon="0.64481">
        <ele>87.8</ele>
        <time>2023-07-14T08:45:25Z</time>
      </trkpt>
      <trkpt lat="47.45236" lon="0.64482">
        <ele>87.8</ele>
        <time>2023-07-14T08:45:26Z</time>
      </trkpt>
      <trkpt lat="47.45228" lon="0.64483">
        <ele>87.6</ele>
        <time>2023-07-14T08:45:27Z</time>
      </trkpt>
      <trkpt lat="47.45221" lon="0.64485">
        <ele>87.4</ele>
        <time>2023-07-14T08:45:28Z</time>
      </trkpt>
      <trkpt lat="47.45215" lon="0.64486">
        <ele>87.4</ele>
        <time>2023-07-14T08:45:29Z</time>
      </trkpt>
      <trkpt lat="47.45208" lon="0.64488">
        <ele>87.2</ele>
        <time>2023-07-14T08:45:30Z</time>
      </trkpt>
      <trkpt lat="47.452" lon="0.6449">
        <ele>86.8</ele>
        <time>2023-07-14T08:45:31Z</time>
      </trkpt>
      <trkpt lat="47.45192" lon="0.64492">
        <ele>86.2</ele>
        <time>2023-07-14T08:45:32Z</time>
      </trkpt>
      <trkpt lat="47.45184" lon="0.64494">
        <ele>85.4</ele>
        <time>2023-07-14T08:45:33Z</time>
      </trkpt>
      <trkpt lat="47.45176" lon="0.64495">
        <ele>85</ele>
        <time>2023-07-14T08:45:34Z</time>
      </trkpt>
      <trkpt lat="47.45169" lon="0.64497">
        <ele>84.4</ele>
        <time>2023-07-14T08:45:35Z</time>
      </trkpt>
      <trkpt lat="47.4516" lon="0.64499">
        <ele>83.8</ele>
        <time>2023-07-14T08:45:36Z</time>
      </trkpt>
      <trkpt lat="47.45152" lon="0.64501">
        <ele>82.8</ele>
        <time>2023-07-14T08:45:37Z</time>
      </trkpt>
      <trkpt lat="47.45143" lon="0.64502">
        <ele>82</ele>
        <time>2023-07-14T08:45:38Z</time>
      </trkpt>
      <trkpt lat="47.45134" lon="0.64504">
        <ele>80.8</ele>
        <time>2023-07-14T08:45:39Z</time>
      </trkpt>
      <trkpt lat="47.45126" lon="0.64506">
        <ele>79.8</ele>
        <time>2023-07-14T08:45:40Z</time>
      </trkpt>
      <trkpt lat="47.45119" lon="0.64508">
        <ele>78.6</ele>
        <time>2023-07-14T08:45:41Z</time>
      </trkpt>
      <trkpt lat="47.45111" lon="0.64509">
        <ele>77.6</ele>
        <time>2023-07-14T08:45:42Z</time>
      </trkpt>
      <trkpt lat="47.45105" lon="0.64509">
        <ele>76.8</ele>
        <time>2023-07-14T08:45:43Z</time>
      </trkpt>
      <trkpt lat="47.451" lon="0.64509">
        <ele>76</ele>
        <time>2023-07-14T08:45:44Z</time>
      </trkpt>
      <trkpt lat="47.45095" lon="0.64507">
        <ele>75.4</ele>
        <time>2023-07-14T08:45:45Z</time>
      </trkpt>
      <trkpt lat="47.45089" lon="0.64504">
        <ele>75</ele>
        <time>2023-07-14T08:45:46Z</time>
      </trkpt>
      <trkpt lat="47.45084" lon="0.64499">
        <ele>74.8</ele>
        <time>2023-07-14T08:45:47Z</time>
      </trkpt>
      <trkpt lat="47.45079" lon="0.64494">
        <ele>74.8</ele>
        <time>2023-07-14T08:45:48Z</time>
      </trkpt>
      <trkpt lat="47.45074" lon="0.64489">
        <ele>74.4</ele>
        <time>2023-07-14T08:45:49Z</time>
      </trkpt>
      <trkpt lat="47.45068" lon="0.64482">
        <ele>74.4</ele>
        <time>2023-07-14T08:45:50Z</time>
      </trkpt>
      <trkpt lat="47.45062" lon="0.64476">
        <ele>74.4</ele>
        <time>2023-07-14T08:45:51Z</time>
      </trkpt>
      <trkpt lat="47.45057" lon="0.64471">
        <ele>74.2</ele>
        <time>2023-07-14T08:45:52Z</time>
      </trkpt>
      <trkpt lat="47.45052" lon="0.64466">
        <ele>74.2</ele>
        <time>2023-07-14T08:45:53Z</time>
      </trkpt>
      <trkpt lat="47.45046" lon="0.64459">
        <ele>74.2</ele>
        <time>2023-07-14T08:45:54Z</time>
      </trkpt>
      <trkpt lat="47.45042" lon="0.64454">
        <ele>74.2</ele>
        <time>2023-07-14T08:45:55Z</time>
      </trkpt>
      <trkpt lat="47.45036" lon="0.6445">
        <ele>74</ele>
        <time>2023-07-14T08:45:56Z</time>
      </trkpt>
      <trkpt lat="47.45031" lon="0.64445">
        <ele>73.8</ele>
        <time>2023-07-14T08:45:57Z</time>
      </trkpt>
      <trkpt lat="47.45025" lon="0.64442">
        <ele>73.6</ele>
        <time>2023-07-14T08:45:58Z</time>
      </trkpt>
      <trkpt lat="47.4502" lon="0.64439">
        <ele>73.2</ele>
        <time>2023-07-14T08:45:59Z</time>
      </trkpt>
      <trkpt lat="47.45014" lon="0.64437">
        <ele>73.2</ele>
        <time>2023-07-14T08:46:00Z</time>
      </trkpt>
      <trkpt lat="47.45007" lon="0.64436">
        <ele>73.2</ele>
        <time>2023-07-14T08:46:01Z</time>
      </trkpt>
      <trkpt lat="47.45001" lon="0.64436">
        <ele>73.2</ele>
        <time>2023-07-14T08:46:02Z</time>
      </trkpt>
      <trkpt lat="47.44996" lon="0.64436">
        <ele>73.2</ele>
        <time>2023-07-14T08:46:03Z</time>
      </trkpt>
      <trkpt lat="47.4499" lon="0.64437">
        <ele>73.4</ele>
        <time>2023-07-14T08:46:04Z</time>
      </trkpt>
      <trkpt lat="47.44983" lon="0.64438">
        <ele>73.6</ele>
        <time>2023-07-14T08:46:05Z</time>
      </trkpt>
      <trkpt lat="47.44977" lon="0.64439">
        <ele>73.6</ele>
        <time>2023-07-14T08:46:06Z</time>
      </trkpt>
      <trkpt lat="47.44972" lon="0.64439">
        <ele>73.6</ele>
        <time>2023-07-14T08:46:07Z</time>
      </trkpt>
      <trkpt lat="47.44967" lon="0.64439">
        <ele>73.6</ele>
        <time>2023-07-14T08:46:08Z</time>
      </trkpt>
      <trkpt lat="47.44962" lon="0.64439">
        <ele>73.6</ele>
        <time>2023-07-14T08:46:09Z</time>
      </trkpt>
      <trkpt lat="47.44955" lon="0.64439">
        <ele>73.4</ele>
        <time>2023-07-14T08:46:10Z</time>
      </trkpt>
      <trkpt lat="47.4495" lon="0.6444">
        <ele>73.4</ele>
        <time>2023-07-14T08:46:11Z</time>
      </trkpt>
      <trkpt lat="47.44944" lon="0.64441">
        <ele>73.6</ele>
        <time>2023-07-14T08:46:12Z</time>
      </trkpt>
      <trkpt lat="47.44938" lon="0.64442">
        <ele>73.6</ele>
        <time>2023-07-14T08:46:13Z</time>
      </trkpt>
      <trkpt lat="47.44931" lon="0.64443">
        <ele>73.6</ele>
        <time>2023-07-14T08:46:14Z</time>
      </trkpt>
      <trkpt lat="47.44925" lon="0.64444">
        <ele>73.6</ele>
        <time>2023-07-14T08:46:15Z</time>
      </trkpt>
      <trkpt lat="47.44918" lon="0.64445">
        <ele>73.6</ele>
        <time>2023-07-14T08:46:16Z</time>
      </trkpt>
      <trkpt lat="47.44913" lon="0.64446">
        <ele>73.6</ele>
        <time>2023-07-14T08:46:17Z</time>
      </trkpt>
      <trkpt lat="47.44907" lon="0.64447">
        <ele>73.6</ele>
        <time>2023-07-14T08:46:18Z</time>
      </trkpt>
      <trkpt lat="47.44902" lon="0.64448">
        <ele>73.6</ele>
        <time>2023-07-14T08:46:19Z</time>
      </trkpt>
      <trkpt lat="47.44896" lon="0.64449">
        <ele>73.6</ele>
        <time>2023-07-14T08:46:20Z</time>
      </trkpt>
      <trkpt lat="47.44889" lon="0.6445">
        <ele>73.6</ele>
        <time>2023-07-14T08:46:21Z</time>
      </trkpt>
      <trkpt lat="47.44883" lon="0.64451">
        <ele>73.6</ele>
        <time>2023-07-14T08:46:22Z</time>
      </trkpt>
      <trkpt lat="47.44877" lon="0.64452">
        <ele>73.4</ele>
        <time>2023-07-14T08:46:23Z</time>
      </trkpt>
      <trkpt lat="47.44871" lon="0.64453">
        <ele>73.4</ele>
        <time>2023-07-14T08:46:24Z</time>
      </trkpt>
      <trkpt lat="47.44865" lon="0.64455">
        <ele>73.4</ele>
        <time>2023-07-14T08:46:25Z</time>
      </trkpt>
      <trkpt lat="47.44858" lon="0.64456">
        <ele>73.4</ele>
        <time>2023-07-14T08:46:26Z</time>
      </trkpt>
      <trkpt lat="47.44852" lon="0.64457">
        <ele>73.4</ele>
        <time>2023-07-14T08:46:27Z</time>
      </trkpt>
      <trkpt lat="47.44846" lon="0.64458">
        <ele>73.6</ele>
        <time>2023-07-14T08:46:28Z</time>
      </trkpt>
      <trkpt lat="47.4484" lon="0.6446">
        <ele>73.6</ele>
        <time>2023-07-14T08:46:29Z</time>
      </trkpt>
      <trkpt lat="47.44835" lon="0.6446">
        <ele>73.8</ele>
        <time>2023-07-14T08:46:30Z</time>
      </trkpt>
      <trkpt lat="47.4483" lon="0.64459">
        <ele>73.8</ele>
        <time>2023-07-14T08:46:31Z</time>
      </trkpt>
      <trkpt lat="47.44825" lon="0.64456">
        <ele>74</ele>
        <time>2023-07-14T08:46:32Z</time>
      </trkpt>
      <trkpt lat="47.4482" lon="0.64452">
        <ele>74</ele>
        <time>2023-07-14T08:46:33Z</time>
      </trkpt>
      <trkpt lat="47.44815" lon="0.64448">
        <ele>74.2</ele>
        <time>2023-07-14T08:46:34Z</time>
      </trkpt>
      <trkpt lat="47.4481" lon="0.64445">
        <ele>74.4</ele>
        <time>2023-07-14T08:46:35Z</time>
      </trkpt>
      <trkpt lat="47.44804" lon="0.64442">
        <ele>74.6</ele>
        <time>2023-07-14T08:46:36Z</time>
      </trkpt>
      <trkpt lat="47.44799" lon="0.64442">
        <ele>74.6</ele>
        <time>2023-07-14T08:46:37Z</time>
      </trkpt>
      <trkpt lat="47.44794" lon="0.64442">
        <ele>75</ele>
        <time>2023-07-14T08:46:38Z</time>
      </trkpt>
      <trkpt lat="47.44788" lon="0.64441">
        <ele>75.2</ele>
        <time>2023-07-14T08:46:39Z</time>
      </trkpt>
      <trkpt lat="47.44783" lon="0.64441">
        <ele>75.4</ele>
        <time>2023-07-14T08:46:40Z</time>
      </trkpt>
      <trkpt lat="47.44778" lon="0.6444">
        <ele>75.8</ele>
        <time>2023-07-14T08:46:41Z</time>
      </trkpt>
      <trkpt lat="47.44773" lon="0.64439">
        <ele>76</ele>
        <time>2023-07-14T08:46:42Z</time>
      </trkpt>
      <trkpt lat="47.44767" lon="0.64438">
        <ele>76.4</ele>
        <time>2023-07-14T08:46:43Z</time>
      </trkpt>
      <trkpt lat="47.44762" lon="0.64436">
        <ele>76.6</ele>
        <time>2023-07-14T08:46:44Z</time>
      </trkpt>
      <trkpt lat="47.44757" lon="0.64434">
        <ele>77</ele>
        <time>2023-07-14T08:46:45Z</time>
      </trkpt>
      <trkpt lat="47.44753" lon="0.64432">
        <ele>77.2</ele>
        <time>2023-07-14T08:46:46Z</time>
      </trkpt>
      <trkpt lat="47.44748" lon="0.6443">
        <ele>77.4</ele>
        <time>2023-07-14T08:46:47Z</time>
      </trkpt>
      <trkpt lat="47.44743" lon="0.64428">
        <ele>77.6</ele>
        <time>2023-07-14T08:46:48Z</time>
      </trkpt>
      <trkpt lat="47.44738" lon="0.64426">
        <ele>77.8</ele>
        <time>2023-07-14T08:46:49Z</time>
      </trkpt>
      <trkpt lat="47.44734" lon="0.64425">
        <ele>78</ele>
        <time>2023-07-14T08:46:50Z</time>
      </trkpt>
      <trkpt lat="47.44729" lon="0.64423">
        <ele>78.4</ele>
        <time>2023-07-14T08:46:51Z</time>
      </trkpt>
      <trkpt lat="47.44724" lon="0.64422">
        <ele>78.6</ele>
        <time>2023-07-14T08:46:52Z</time>
      </trkpt>
      <trkpt lat="47.4472" lon="0.6442">
        <ele>78.8</ele>
        <time>2023-07-14T08:46:53Z</time>
      </trkpt>
      <trkpt lat="47.44714" lon="0.64419">
        <ele>79.2</ele>
        <time>2023-07-14T08:46:54Z</time>
      </trkpt>
      <trkpt lat="47.4471" lon="0.64417">
        <ele>79.4</ele>
        <time>2023-07-14T08:46:55Z</time>
      </trkpt>
      <trkpt lat="47.44706" lon="0.64416">
        <ele>79.8</ele>
        <time>2023-07-14T08:46:56Z</time>
      </trkpt>
      <trkpt lat="47.44701" lon="0.64415">
        <ele>80</ele>
        <time>2023-07-14T08:46:57Z</time>
      </trkpt>
      <trkpt lat="47.44696" lon="0.64413">
        <ele>80.4</ele>
        <time>2023-07-14T08:46:58Z</time>
      </trkpt>
      <trkpt lat="47.44691" lon="0.64412">
        <ele>80.6</ele>
        <time>2023-07-14T08:46:59Z</time>
      </trkpt>
      <trkpt lat="47.44687" lon="0.6441">
        <ele>81</ele>
        <time>2023-07-14T08:47:00Z</time>
      </trkpt>
      <trkpt lat="47.44683" lon="0.64409">
        <ele>81.2</ele>
        <time>2023-07-14T08:47:01Z</time>
      </trkpt>
      <trkpt lat="47.44678" lon="0.64408">
        <ele>81.4</ele>
        <time>2023-07-14T08:47:02Z</time>
      </trkpt>
      <trkpt lat="47.44674" lon="0.64407">
        <ele>81.6</ele>
        <time>2023-07-14T08:47:03Z</time>
      </trkpt>
      <trkpt lat="47.44669" lon="0.64406">
        <ele>82</ele>
        <time>2023-07-14T08:47:04Z</time>
      </trkpt>
      <trkpt lat="47.44665" lon="0.64405">
        <ele>82.2</ele>
        <time>2023-07-14T08:47:05Z</time>
      </trkpt>
      <trkpt lat="47.4466" lon="0.64404">
        <ele>82.4</ele>
        <time>2023-07-14T08:47:06Z</time>
      </trkpt>
      <trkpt lat="47.44655" lon="0.64404">
        <ele>82.6</ele>
        <time>2023-07-14T08:47:07Z</time>
      </trkpt>
      <trkpt lat="47.4465" lon="0.64403">
        <ele>83</ele>
        <time>2023-07-14T08:47:08Z</time>
      </trkpt>
      <trkpt lat="47.44645" lon="0.64403">
        <ele>83.2</ele>
        <time>2023-07-14T08:47:09Z</time>
      </trkpt>
      <trkpt lat="47.44641" lon="0.64404">
        <ele>83.4</ele>
        <time>2023-07-14T08:47:10Z</time>
      </trkpt>
      <trkpt lat="47.44637" lon="0.64404">
        <ele>83.6</ele>
        <time>2023-07-14T08:47:11Z</time>
      </trkpt>
      <trkpt lat="47.44632" lon="0.64405">
        <ele>83.8</ele>
        <time>2023-07-14T08:47:12Z</time>
      </trkpt>
      <trkpt lat="47.44628" lon="0.64406">
        <ele>84</ele>
        <time>2023-07-14T08:47:13Z</time>
      </trkpt>
      <trkpt lat="47.44623" lon="0.64407">
        <ele>84.4</ele>
        <time>2023-07-14T08:47:14Z</time>
      </trkpt>
      <trkpt lat="47.44619" lon="0.64408">
        <ele>84.6</ele>
        <time>2023-07-14T08:47:15Z</time>
      </trkpt>
      <trkpt lat="47.44615" lon="0.64409">
        <ele>85</ele>
        <time>2023-07-14T08:47:16Z</time>
      </trkpt>
      <trkpt lat="47.44611" lon="0.64411">
        <ele>85.2</ele>
        <time>2023-07-14T08:47:17Z</time>
      </trkpt>
      <trkpt lat="47.44606" lon="0.64413">
        <ele>85.4</ele>
        <time>2023-07-14T08:47:18Z</time>
      </trkpt>
      <trkpt lat="47.44601" lon="0.64415">
        <ele>85.6</ele>
        <time>2023-07-14T08:47:19Z</time>
      </trkpt>
      <trkpt lat="47.44597" lon="0.64417">
        <ele>85.8</ele>
        <time>2023-07-14T08:47:20Z</time>
      </trkpt>
      <trkpt lat="47.44594" lon="0.64419">
        <ele>86</ele>
        <time>2023-07-14T08:47:21Z</time>
      </trkpt>
      <trkpt lat="47.44589" lon="0.64422">
        <ele>86.2</ele>
        <time>2023-07-14T08:47:22Z</time>
      </trkpt>
      <trkpt lat="47.44585" lon="0.64425">
        <ele>86.4</ele>
        <time>2023-07-14T08:47:23Z</time>
      </trkpt>
      <trkpt lat="47.44581" lon="0.64427">
        <ele>86.6</ele>
        <time>2023-07-14T08:47:24Z</time>
      </trkpt>
      <trkpt lat="47.44576" lon="0.64428">
        <ele>86.8</ele>
        <time>2023-07-14T08:47:25Z</time>
      </trkpt>
      <trkpt lat="47.44571" lon="0.64428">
        <ele>86.8</ele>
        <time>2023-07-14T08:47:26Z</time>
      </trkpt>
      <trkpt lat="47.44565" lon="0.64427">
        <ele>86.8</ele>
        <time>2023-07-14T08:47:27Z</time>
      </trkpt>
      <trkpt lat="47.44561" lon="0.64426">
        <ele>86.8</ele>
        <time>2023-07-14T08:47:28Z</time>
      </trkpt>
      <trkpt lat="47.44556" lon="0.64423">
        <ele>86.8</ele>
        <time>2023-07-14T08:47:29Z</time>
      </trkpt>
      <trkpt lat="47.44551" lon="0.64418">
        <ele>87</ele>
        <time>2023-07-14T08:47:30Z</time>
      </trkpt>
      <trkpt lat="47.44547" lon="0.64412">
        <ele>87</ele>
        <time>2023-07-14T08:47:31Z</time>
      </trkpt>
      <trkpt lat="47.44543" lon="0.64406">
        <ele>87</ele>
        <time>2023-07-14T08:47:32Z</time>
      </trkpt>
      <trkpt lat="47.4454" lon="0.644">
        <ele>87</ele>
        <time>2023-07-14T08:47:33Z</time>
      </trkpt>
      <trkpt lat="47.44537" lon="0.64394">
        <ele>86.8</ele>
        <time>2023-07-14T08:47:34Z</time>
      </trkpt>
      <trkpt lat="47.44534" lon="0.6439">
        <ele>86.8</ele>
        <time>2023-07-14T08:47:35Z</time>
      </trkpt>
      <trkpt lat="47.44529" lon="0.64384">
        <ele>87</ele>
        <time>2023-07-14T08:47:36Z</time>
      </trkpt>
      <trkpt lat="47.44524" lon="0.64381">
        <ele>87</ele>
        <time>2023-07-14T08:47:37Z</time>
      </trkpt>
      <trkpt lat="47.44519" lon="0.6438">
        <ele>87</ele>
        <time>2023-07-14T08:47:38Z</time>
      </trkpt>
      <trkpt lat="47.44513" lon="0.6438">
        <ele>87</ele>
        <time>2023-07-14T08:47:39Z</time>
      </trkpt>
      <trkpt lat="47.44507" lon="0.64381">
        <ele>87</ele>
        <time>2023-07-14T08:47:40Z</time>
      </trkpt>
      <trkpt lat="47.44501" lon="0.64382">
        <ele>87</ele>
        <time>2023-07-14T08:47:41Z</time>
      </trkpt>
      <trkpt lat="47.44495" lon="0.64383">
        <ele>86.8</ele>
        <time>2023-07-14T08:47:42Z</time>
      </trkpt>
      <trkpt lat="47.44489" lon="0.64384">
        <ele>86.6</ele>
        <time>2023-07-14T08:47:43Z</time>
      </trkpt>
      <trkpt lat="47.44482" lon="0.64385">
        <ele>86.4</ele>
        <time>2023-07-14T08:47:44Z</time>
      </trkpt>
      <trkpt lat="47.44476" lon="0.64385">
        <ele>86.4</ele>
        <time>2023-07-14T08:47:45Z</time>
      </trkpt>
      <trkpt lat="47.44469" lon="0.64385">
        <ele>86.2</ele>
        <time>2023-07-14T08:47:46Z</time>
      </trkpt>
      <trkpt lat="47.44462" lon="0.64385">
        <ele>85.8</ele>
        <time>2023-07-14T08:47:47Z</time>
      </trkpt>
      <trkpt lat="47.44456" lon="0.64386">
        <ele>85.6</ele>
        <time>2023-07-14T08:47:48Z</time>
      </trkpt>
      <trkpt lat="47.44448" lon="0.64388">
        <ele>85.4</ele>
        <time>2023-07-14T08:47:49Z</time>
      </trkpt>
      <trkpt lat="47.4444" lon="0.64389">
        <ele>85.2</ele>
        <time>2023-07-14T08:47:50Z</time>
      </trkpt>
      <trkpt lat="47.44434" lon="0.6439">
        <ele>85</ele>
        <time>2023-07-14T08:47:51Z</time>
      </trkpt>
      <trkpt lat="47.44426" lon="0.6439">
        <ele>84.8</ele>
        <time>2023-07-14T08:47:52Z</time>
      </trkpt>
      <trkpt lat="47.44418" lon="0.6439">
        <ele>84.6</ele>
        <time>2023-07-14T08:47:53Z</time>
      </trkpt>
      <trkpt lat="47.4441" lon="0.64391">
        <ele>84.2</ele>
        <time>2023-07-14T08:47:54Z</time>
      </trkpt>
      <trkpt lat="47.44402" lon="0.64391">
        <ele>83.6</ele>
        <time>2023-07-14T08:47:55Z</time>
      </trkpt>
      <trkpt lat="47.44396" lon="0.64391">
        <ele>83.4</ele>
        <time>2023-07-14T08:47:56Z</time>
      </trkpt>
      <trkpt lat="47.44388" lon="0.6439">
        <ele>83</ele>
        <time>2023-07-14T08:47:57Z</time>
      </trkpt>
      <trkpt lat="47.4438" lon="0.64386">
        <ele>82.6</ele>
        <time>2023-07-14T08:47:58Z</time>
      </trkpt>
      <trkpt lat="47.44372" lon="0.64381">
        <ele>82.2</ele>
        <time>2023-07-14T08:47:59Z</time>
      </trkpt>
      <trkpt lat="47.44365" lon="0.64375">
        <ele>82</ele>
        <time>2023-07-14T08:48:00Z</time>
      </trkpt>
      <trkpt lat="47.44359" lon="0.64369">
        <ele>81.4</ele>
        <time>2023-07-14T08:48:01Z</time>
      </trkpt>
      <trkpt lat="47.44352" lon="0.64362">
        <ele>80.8</ele>
        <time>2023-07-14T08:48:02Z</time>
      </trkpt>
      <trkpt lat="47.44345" lon="0.64354">
        <ele>80.4</ele>
        <time>2023-07-14T08:48:03Z</time>
      </trkpt>
      <trkpt lat="47.44338" lon="0.64347">
        <ele>80</ele>
        <time>2023-07-14T08:48:04Z</time>
      </trkpt>
      <trkpt lat="47.4433" lon="0.64339">
        <ele>79.6</ele>
        <time>2023-07-14T08:48:05Z</time>
      </trkpt>
      <trkpt lat="47.44324" lon="0.64332">
        <ele>79.2</ele>
        <time>2023-07-14T08:48:06Z</time>
      </trkpt>
      <trkpt lat="47.44317" lon="0.64323">
        <ele>79</ele>
        <time>2023-07-14T08:48:07Z</time>
      </trkpt>
      <trkpt lat="47.44309" lon="0.64315">
        <ele>78.6</ele>
        <time>2023-07-14T08:48:08Z</time>
      </trkpt>
      <trkpt lat="47.44302" lon="0.64306">
        <ele>78.4</ele>
        <time>2023-07-14T08:48:09Z</time>
      </trkpt>
      <trkpt lat="47.44295" lon="0.64299">
        <ele>78.2</ele>
        <time>2023-07-14T08:48:10Z</time>
      </trkpt>
      <trkpt lat="47.44287" lon="0.6429">
        <ele>77.8</ele>
        <time>2023-07-14T08:48:11Z</time>
      </trkpt>
      <trkpt lat="47.44279" lon="0.64281">
        <ele>77.4</ele>
        <time>2023-07-14T08:48:12Z</time>
      </trkpt>
      <trkpt lat="47.4427" lon="0.64272">
        <ele>77</ele>
        <time>2023-07-14T08:48:13Z</time>
      </trkpt>
      <trkpt lat="47.44263" lon="0.64266">
        <ele>76.6</ele>
        <time>2023-07-14T08:48:14Z</time>
      </trkpt>
      <trkpt lat="47.44256" lon="0.64259">
        <ele>76.2</ele>
        <time>2023-07-14T08:48:15Z</time>
      </trkpt>
      <trkpt lat="47.44248" lon="0.6425">
        <ele>75.8</ele>
        <time>2023-07-14T08:48:16Z</time>
      </trkpt>
      <trkpt lat="47.44241" lon="0.64242">
        <ele>75.4</ele>
        <time>2023-07-14T08:48:17Z</time>
      </trkpt>
      <trkpt lat="47.44234" lon="0.64235">
        <ele>75</ele>
        <time>2023-07-14T08:48:18Z</time>
      </trkpt>
      <trkpt lat="47.44228" lon="0.64227">
        <ele>74.8</ele>
        <time>2023-07-14T08:48:19Z</time>
      </trkpt>
      <trkpt lat="47.44221" lon="0.64219">
        <ele>74.6</ele>
        <time>2023-07-14T08:48:20Z</time>
      </trkpt>
      <trkpt lat="47.44215" lon="0.64212">
        <ele>74.6</ele>
        <time>2023-07-14T08:48:21Z</time>
      </trkpt>
      <trkpt lat="47.44207" lon="0.64204">
        <ele>74.2</ele>
        <time>2023-07-14T08:48:22Z</time>
      </trkpt>
      <trkpt lat="47.44201" lon="0.64197">
        <ele>74</ele>
        <time>2023-07-14T08:48:23Z</time>
      </trkpt>
      <trkpt lat="47.44194" lon="0.6419">
        <ele>73.8</ele>
        <time>2023-07-14T08:48:24Z</time>
      </trkpt>
      <trkpt lat="47.44189" lon="0.64184">
        <ele>73.8</ele>
        <time>2023-07-14T08:48:25Z</time>
      </trkpt>
      <trkpt lat="47.44183" lon="0.64177">
        <ele>73.8</ele>
        <time>2023-07-14T08:48:26Z</time>
      </trkpt>
      <trkpt lat="47.44177" lon="0.6417">
        <ele>73.8</ele>
        <time>2023-07-14T08:48:27Z</time>
      </trkpt>
      <trkpt lat="47.44171" lon="0.64163">
        <ele>74</ele>
        <time>2023-07-14T08:48:28Z</time>
      </trkpt>
      <trkpt lat="47.44165" lon="0.64156">
        <ele>74.2</ele>
        <time>2023-07-14T08:48:29Z</time>
      </trkpt>
      <trkpt lat="47.4416" lon="0.6415">
        <ele>74.2</ele>
        <time>2023-07-14T08:48:30Z</time>
      </trkpt>
      <trkpt lat="47.44154" lon="0.64143">
        <ele>74.2</ele>
        <time>2023-07-14T08:48:31Z</time>
      </trkpt>
      <trkpt lat="47.44149" lon="0.64137">
        <ele>74.2</ele>
        <time>2023-07-14T08:48:32Z</time>
      </trkpt>
      <trkpt lat="47.44144" lon="0.64132">
        <ele>74.2</ele>
        <time>2023-07-14T08:48:33Z</time>
      </trkpt>
      <trkpt lat="47.44138" lon="0.64126">
        <ele>74.2</ele>
        <time>2023-07-14T08:48:34Z</time>
      </trkpt>
      <trkpt lat="47.44133" lon="0.64121">
        <ele>74.2</ele>
        <time>2023-07-14T08:48:35Z</time>
      </trkpt>
      <trkpt lat="47.44128" lon="0.64114">
        <ele>74.2</ele>
        <time>2023-07-14T08:48:36Z</time>
      </trkpt>
      <trkpt lat="47.44123" lon="0.64107">
        <ele>74.2</ele>
        <time>2023-07-14T08:48:37Z</time>
      </trkpt>
      <trkpt lat="47.44119" lon="0.64101">
        <ele>74.4</ele>
        <time>2023-07-14T08:48:38Z</time>
      </trkpt>
      <trkpt lat="47.44115" lon="0.64094">
        <ele>74.2</ele>
        <time>2023-07-14T08:48:39Z</time>
      </trkpt>
      <trkpt lat="47.44111" lon="0.64086">
        <ele>74.2</ele>
        <time>2023-07-14T08:48:40Z</time>
      </trkpt>
      <trkpt lat="47.44107" lon="0.64079">
        <ele>74.2</ele>
        <time>2023-07-14T08:48:41Z</time>
      </trkpt>
      <trkpt lat="47.44103" lon="0.64072">
        <ele>74.2</ele>
        <time>2023-07-14T08:48:42Z</time>
      </trkpt>
      <trkpt lat="47.44099" lon="0.64064">
        <ele>74.2</ele>
        <time>2023-07-14T08:48:43Z</time>
      </trkpt>
      <trkpt lat="47.44096" lon="0.64056">
        <ele>74.4</ele>
        <time>2023-07-14T08:48:44Z</time>
      </trkpt>
      <trkpt lat="47.44092" lon="0.64048">
        <ele>74.6</ele>
        <time>2023-07-14T08:48:45Z</time>
      </trkpt>
      <trkpt lat="47.4409" lon="0.6404">
        <ele>74.6</ele>
        <time>2023-07-14T08:48:46Z</time>
      </trkpt>
      <trkpt lat="47.44086" lon="0.64032">
        <ele>74.6</ele>
        <time>2023-07-14T08:48:47Z</time>
      </trkpt>
      <trkpt lat="47.44083" lon="0.64023">
        <ele>74.8</ele>
        <time>2023-07-14T08:48:48Z</time>
      </trkpt>
      <trkpt lat="47.44081" lon="0.64015">
        <ele>74.8</ele>
        <time>2023-07-14T08:48:49Z</time>
      </trkpt>
      <trkpt lat="47.44077" lon="0.64007">
        <ele>74.8</ele>
        <time>2023-07-14T08:48:50Z</time>
      </trkpt>
      <trkpt lat="47.44073" lon="0.63998">
        <ele>74.8</ele>
        <time>2023-07-14T08:48:51Z</time>
      </trkpt>
      <trkpt lat="47.44069" lon="0.6399">
        <ele>74.8</ele>
        <time>2023-07-14T08:48:52Z</time>
      </trkpt>
      <trkpt lat="47.44065" lon="0.63983">
        <ele>74.8</ele>
        <time>2023-07-14T08:48:53Z</time>
      </trkpt>
      <trkpt lat="47.4406" lon="0.63978">
        <ele>74.6</ele>
        <time>2023-07-14T08:48:54Z</time>
      </trkpt>
      <trkpt lat="47.44055" lon="0.63973">
        <ele>74.6</ele>
        <time>2023-07-14T08:48:55Z</time>
      </trkpt>
      <trkpt lat="47.4405" lon="0.6397">
        <ele>74.6</ele>
        <time>2023-07-14T08:48:56Z</time>
      </trkpt>
      <trkpt lat="47.44044" lon="0.63967">
        <ele>74.6</ele>
        <time>2023-07-14T08:48:57Z</time>
      </trkpt>
      <trkpt lat="47.4404" lon="0.63966">
        <ele>74.6</ele>
        <time>2023-07-14T08:48:58Z</time>
      </trkpt>
      <trkpt lat="47.44035" lon="0.63966">
        <ele>74.6</ele>
        <time>2023-07-14T08:48:59Z</time>
      </trkpt>
      <trkpt lat="47.4403" lon="0.63965">
        <ele>74.6</ele>
        <time>2023-07-14T08:49:00Z</time>
      </trkpt>
      <trkpt lat="47.44025" lon="0.63964">
        <ele>74.6</ele>
        <time>2023-07-14T08:49:01Z</time>
      </trkpt>
      <trkpt lat="47.44021" lon="0.63963">
        <ele>74.6</ele>
        <time>2023-07-14T08:49:02Z</time>
      </trkpt>
      <trkpt lat="47.44018" lon="0.63962">
        <ele>74.6</ele>
        <time>2023-07-14T08:49:03Z</time>
      </trkpt>
      <trkpt lat="47.44014" lon="0.6396">
        <ele>74.6</ele>
        <time>2023-07-14T08:49:04Z</time>
      </trkpt>
      <trkpt lat="47.44011" lon="0.63958">
        <ele>74.4</ele>
        <time>2023-07-14T08:49:05Z</time>
      </trkpt>
      <trkpt lat="47.44009" lon="0.63957">
        <ele>74.4</ele>
        <time>2023-07-14T08:49:06Z</time>
      </trkpt>
      <trkpt lat="47.44008" lon="0.63956">
        <ele>74.4</ele>
        <time>2023-07-14T08:49:07Z</time>
      </trkpt>
      <trkpt lat="47.44006" lon="0.63954">
        <ele>74.2</ele>
        <time>2023-07-14T08:49:12Z</time>
      </trkpt>
      <trkpt lat="47.44004" lon="0.63951">
        <ele>74.2</ele>
        <time>2023-07-14T08:49:13Z</time>
      </trkpt>
      <trkpt lat="47.44003" lon="0.63948">
        <ele>74.2</ele>
        <time>2023-07-14T08:49:14Z</time>
      </trkpt>
      <trkpt lat="47.44001" lon="0.63944">
        <ele>74.4</ele>
        <time>2023-07-14T08:49:15Z</time>
      </trkpt>
      <trkpt lat="47.43999" lon="0.63939">
        <ele>74.4</ele>
        <time>2023-07-14T08:49:16Z</time>
      </trkpt>
      <trkpt lat="47.43998" lon="0.63933">
        <ele>74.4</ele>
        <time>2023-07-14T08:49:17Z</time>
      </trkpt>
      <trkpt lat="47.43999" lon="0.63927">
        <ele>74.4</ele>
        <time>2023-07-14T08:49:18Z</time>
      </trkpt>
      <trkpt lat="47.44001" lon="0.63921">
        <ele>74.4</ele>
        <time>2023-07-14T08:49:19Z</time>
      </trkpt>
      <trkpt lat="47.44003" lon="0.63916">
        <ele>74.6</ele>
        <time>2023-07-14T08:49:20Z</time>
      </trkpt>
      <trkpt lat="47.44005" lon="0.63911">
        <ele>74.6</ele>
        <time>2023-07-14T08:49:21Z</time>
      </trkpt>
      <trkpt lat="47.44007" lon="0.63906">
        <ele>74.6</ele>
        <time>2023-07-14T08:49:22Z</time>
      </trkpt>
      <trkpt lat="47.44009" lon="0.63901">
        <ele>74.6</ele>
        <time>2023-07-14T08:49:23Z</time>
      </trkpt>
      <trkpt lat="47.4401" lon="0.63896">
        <ele>74.6</ele>
        <time>2023-07-14T08:49:24Z</time>
      </trkpt>
      <trkpt lat="47.44011" lon="0.63892">
        <ele>74.8</ele>
        <time>2023-07-14T08:49:25Z</time>
      </trkpt>
      <trkpt lat="47.44012" lon="0.63888">
        <ele>74.8</ele>
        <time>2023-07-14T08:49:26Z</time>
      </trkpt>
      <trkpt lat="47.44013" lon="0.63885">
        <ele>74.8</ele>
        <time>2023-07-14T08:49:27Z</time>
      </trkpt>
      <trkpt lat="47.44014" lon="0.63882">
        <ele>74.8</ele>
        <time>2023-07-14T08:49:28Z</time>
      </trkpt>
      <trkpt lat="47.44014" lon="0.63881">
        <ele>74.8</ele>
        <time>2023-07-14T08:49:29Z</time>
      </trkpt>
      <trkpt lat="47.44014" lon="0.63881">
        <ele>74.8</ele>
        <time>2023-07-14T08:49:30Z</time>
      </trkpt>
      <trkpt lat="47.44014" lon="0.63881">
        <ele>74.8</ele>
        <time>2023-07-14T08:49:31Z</time>
      </trkpt>
      <trkpt lat="47.44014" lon="0.63881">
        <ele>74.8</ele>
        <time>2023-07-14T08:49:32Z</time>
      </trkpt>
      <trkpt lat="47.44014" lon="0.63881">
        <ele>74.8</ele>
        <time>2023-07-14T08:49:33Z</time>
      </trkpt>
      <trkpt lat="47.44014" lon="0.63881">
        <ele>74.8</ele>
        <time>2023-07-14T08:49:34Z</time>
      </trkpt>
      <trkpt lat="47.44015" lon="0.63877">
        <ele>74.8</ele>
        <time>2023-07-14T08:50:31Z</time>
      </trkpt>
      <trkpt lat="47.44017" lon="0.63875">
        <ele>74.8</ele>
        <time>2023-07-14T08:50:32Z</time>
      </trkpt>
      <trkpt lat="47.44018" lon="0.63872">
        <ele>74.8</ele>
        <time>2023-07-14T08:50:33Z</time>
      </trkpt>
      <trkpt lat="47.44019" lon="0.6387">
        <ele>74.8</ele>
        <time>2023-07-14T08:50:34Z</time>
      </trkpt>
      <trkpt lat="47.44019" lon="0.63867">
        <ele>74.8</ele>
        <time>2023-07-14T08:50:35Z</time>
      </trkpt>
      <trkpt lat="47.4402" lon="0.63864">
        <ele>74.8</ele>
        <time>2023-07-14T08:50:36Z</time>
      </trkpt>
      <trkpt lat="47.44021" lon="0.63862">
        <ele>74.8</ele>
        <time>2023-07-14T08:50:37Z</time>
      </trkpt>
      <trkpt lat="47.44022" lon="0.6386">
        <ele>74.8</ele>
        <time>2023-07-14T08:50:38Z</time>
      </trkpt>
      <trkpt lat="47.44022" lon="0.63857">
        <ele>74.8</ele>
        <time>2023-07-14T08:50:39Z</time>
      </trkpt>
      <trkpt lat="47.44023" lon="0.63855">
        <ele>74.8</ele>
        <time>2023-07-14T08:50:40Z</time>
      </trkpt>
      <trkpt lat="47.44023" lon="0.63852">
        <ele>74.8</ele>
        <time>2023-07-14T08:50:41Z</time>
      </trkpt>
      <trkpt lat="47.44022" lon="0.63849">
        <ele>74.8</ele>
        <time>2023-07-14T08:50:42Z</time>
      </trkpt>
      <trkpt lat="47.4402" lon="0.63846">
        <ele>74.8</ele>
        <time>2023-07-14T08:50:43Z</time>
      </trkpt>
      <trkpt lat="47.44017" lon="0.63844">
        <ele>74.8</ele>
        <time>2023-07-14T08:50:44Z</time>
      </trkpt>
      <trkpt lat="47.44012" lon="0.63843">
        <ele>74.8</ele>
        <time>2023-07-14T08:50:45Z</time>
      </trkpt>
      <trkpt lat="47.44007" lon="0.63844">
        <ele>75</ele>
        <time>2023-07-14T08:50:46Z</time>
      </trkpt>
      <trkpt lat="47.44002" lon="0.63844">
        <ele>75</ele>
        <time>2023-07-14T08:50:47Z</time>
      </trkpt>
      <trkpt lat="47.43997" lon="0.63844">
        <ele>75</ele>
        <time>2023-07-14T08:50:48Z</time>
      </trkpt>
      <trkpt lat="47.43991" lon="0.63845">
        <ele>75.2</ele>
        <time>2023-07-14T08:50:49Z</time>
      </trkpt>
      <trkpt lat="47.43985" lon="0.63844">
        <ele>75.2</ele>
        <time>2023-07-14T08:50:50Z</time>
      </trkpt>
      <trkpt lat="47.43979" lon="0.63844">
        <ele>75.2</ele>
        <time>2023-07-14T08:50:51Z</time>
      </trkpt>
      <trkpt lat="47.43973" lon="0.63844">
        <ele>75</ele>
        <time>2023-07-14T08:50:52Z</time>
      </trkpt>
      <trkpt lat="47.43966" lon="0.63844">
        <ele>75</ele>
        <time>2023-07-14T08:50:53Z</time>
      </trkpt>
      <trkpt lat="47.4396" lon="0.63844">
        <ele>75</ele>
        <time>2023-07-14T08:50:54Z</time>
      </trkpt>
      <trkpt lat="47.43954" lon="0.63844">
        <ele>74.8</ele>
        <time>2023-07-14T08:50:55Z</time>
      </trkpt>
      <trkpt lat="47.43947" lon="0.63844">
        <ele>74.8</ele>
        <time>2023-07-14T08:50:56Z</time>
      </trkpt>
      <trkpt lat="47.43941" lon="0.63844">
        <ele>75</ele>
        <time>2023-07-14T08:50:57Z</time>
      </trkpt>
      <trkpt lat="47.43935" lon="0.63843">
        <ele>75.2</ele>
        <time>2023-07-14T08:50:58Z</time>
      </trkpt>
      <trkpt lat="47.43928" lon="0.63844">
        <ele>75.4</ele>
        <time>2023-07-14T08:50:59Z</time>
      </trkpt>
      <trkpt lat="47.43922" lon="0.63844">
        <ele>75.6</ele>
        <time>2023-07-14T08:51:00Z</time>
      </trkpt>
      <trkpt lat="47.43916" lon="0.63844">
        <ele>75.8</ele>
        <time>2023-07-14T08:51:01Z</time>
      </trkpt>
      <trkpt lat="47.43911" lon="0.63843">
        <ele>75.6</ele>
        <time>2023-07-14T08:51:02Z</time>
      </trkpt>
      <trkpt lat="47.43906" lon="0.63843">
        <ele>75.4</ele>
        <time>2023-07-14T08:51:03Z</time>
      </trkpt>
      <trkpt lat="47.43901" lon="0.63842">
        <ele>75.2</ele>
        <time>2023-07-14T08:51:04Z</time>
      </trkpt>
      <trkpt lat="47.43897" lon="0.63842">
        <ele>74.8</ele>
        <time>2023-07-14T08:51:05Z</time>
      </trkpt>
      <trkpt lat="47.43893" lon="0.63842">
        <ele>74.6</ele>
        <time>2023-07-14T08:51:06Z</time>
      </trkpt>
      <trkpt lat="47.43889" lon="0.63842">
        <ele>74.6</ele>
        <time>2023-07-14T08:51:07Z</time>
      </trkpt>
      <trkpt lat="47.43886" lon="0.6384">
        <ele>74.4</ele>
        <time>2023-07-14T08:51:08Z</time>
      </trkpt>
      <trkpt lat="47.43883" lon="0.63839">
        <ele>74.4</ele>
        <time>2023-07-14T08:51:09Z</time>
      </trkpt>
      <trkpt lat="47.4388" lon="0.63838">
        <ele>74.4</ele>
        <time>2023-07-14T08:51:10Z</time>
      </trkpt>
      <trkpt lat="47.43876" lon="0.63839">
        <ele>74.4</ele>
        <time>2023-07-14T08:51:11Z</time>
      </trkpt>
      <trkpt lat="47.43872" lon="0.63841">
        <ele>74.4</ele>
        <time>2023-07-14T08:51:12Z</time>
      </trkpt>
      <trkpt lat="47.43868" lon="0.63844">
        <ele>74.4</ele>
        <time>2023-07-14T08:51:13Z</time>
      </trkpt>
      <trkpt lat="47.43864" lon="0.63848">
        <ele>74.4</ele>
        <time>2023-07-14T08:51:14Z</time>
      </trkpt>
      <trkpt lat="47.43859" lon="0.63851">
        <ele>74.4</ele>
        <time>2023-07-14T08:51:15Z</time>
      </trkpt>
      <trkpt lat="47.43854" lon="0.63853">
        <ele>74.4</ele>
        <time>2023-07-14T08:51:16Z</time>
      </trkpt>
      <trkpt lat="47.43849" lon="0.63856">
        <ele>74.4</ele>
        <time>2023-07-14T08:51:17Z</time>
      </trkpt>
      <trkpt lat="47.43844" lon="0.63858">
        <ele>74.2</ele>
        <time>2023-07-14T08:51:18Z</time>
      </trkpt>
      <trkpt lat="47.43839" lon="0.63861">
        <ele>74.2</ele>
        <time>2023-07-14T08:51:19Z</time>
      </trkpt>
      <trkpt lat="47.43834" lon="0.63863">
        <ele>74</ele>
        <time>2023-07-14T08:51:20Z</time>
      </trkpt>
      <trkpt lat="47.43829" lon="0.63866">
        <ele>74</ele>
        <time>2023-07-14T08:51:21Z</time>
      </trkpt>
      <trkpt lat="47.43824" lon="0.63868">
        <ele>74</ele>
        <time>2023-07-14T08:51:22Z</time>
      </trkpt>
      <trkpt lat="47.43819" lon="0.63871">
        <ele>74</ele>
        <time>2023-07-14T08:51:23Z</time>
      </trkpt>
      <trkpt lat="47.43813" lon="0.63874">
        <ele>74</ele>
        <time>2023-07-14T08:51:24Z</time>
      </trkpt>
      <trkpt lat="47.43807" lon="0.63877">
        <ele>74</ele>
        <time>2023-07-14T08:51:25Z</time>
      </trkpt>
      <trkpt lat="47.43801" lon="0.6388">
        <ele>73.8</ele>
        <time>2023-07-14T08:51:26Z</time>
      </trkpt>
      <trkpt lat="47.43796" lon="0.63883">
        <ele>73.8</ele>
        <time>2023-07-14T08:51:27Z</time>
      </trkpt>
      <trkpt lat="47.4379" lon="0.63885">
        <ele>73.8</ele>
        <time>2023-07-14T08:51:28Z</time>
      </trkpt>
      <trkpt lat="47.43785" lon="0.63889">
        <ele>73.6</ele>
        <time>2023-07-14T08:51:29Z</time>
      </trkpt>
      <trkpt lat="47.43779" lon="0.63892">
        <ele>73.4</ele>
        <time>2023-07-14T08:51:30Z</time>
      </trkpt>
      <trkpt lat="47.43774" lon="0.63895">
        <ele>73.4</ele>
        <time>2023-07-14T08:51:31Z</time>
      </trkpt>
      <trkpt lat="47.43768" lon="0.63898">
        <ele>73.4</ele>
        <time>2023-07-14T08:51:32Z</time>
      </trkpt>
      <trkpt lat="47.43762" lon="0.63901">
        <ele>73.2</ele>
        <time>2023-07-14T08:51:33Z</time>
      </trkpt>
      <trkpt lat="47.43757" lon="0.63904">
        <ele>73</ele>
        <time>2023-07-14T08:51:34Z</time>
      </trkpt>
      <trkpt lat="47.43752" lon="0.63907">
        <ele>72.8</ele>
        <time>2023-07-14T08:51:35Z</time>
      </trkpt>
      <trkpt lat="47.43747" lon="0.63911">
        <ele>72.6</ele>
        <time>2023-07-14T08:51:36Z</time>
      </trkpt>
      <trkpt lat="47.43742" lon="0.63913">
        <ele>72.2</ele>
        <time>2023-07-14T08:51:37Z</time>
      </trkpt>
      <trkpt lat="47.43739" lon="0.63913">
        <ele>72</ele>
        <time>2023-07-14T08:51:38Z</time>
      </trkpt>
      <trkpt lat="47.43736" lon="0.6391">
        <ele>71.8</ele>
        <time>2023-07-14T08:51:39Z</time>
      </trkpt>
      <trkpt lat="47.43735" lon="0.63904">
        <ele>71.8</ele>
        <time>2023-07-14T08:51:40Z</time>
      </trkpt>
      <trkpt lat="47.43734" lon="0.63898">
        <ele>71.8</ele>
        <time>2023-07-14T08:51:41Z</time>
      </trkpt>
      <trkpt lat="47.43733" lon="0.63891">
        <ele>72</ele>
        <time>2023-07-14T08:51:42Z</time>
      </trkpt>
      <trkpt lat="47.43732" lon="0.63885">
        <ele>72.2</ele>
        <time>2023-07-14T08:51:43Z</time>
      </trkpt>
      <trkpt lat="47.4373" lon="0.63879">
        <ele>72.2</ele>
        <time>2023-07-14T08:51:44Z</time>
      </trkpt>
      <trkpt lat="47.43729" lon="0.63873">
        <ele>72.4</ele>
        <time>2023-07-14T08:51:45Z</time>
      </trkpt>
      <trkpt lat="47.43727" lon="0.63867">
        <ele>72.4</ele>
        <time>2023-07-14T08:51:46Z</time>
      </trkpt>
      <trkpt lat="47.43726" lon="0.63861">
        <ele>72.4</ele>
        <time>2023-07-14T08:51:47Z</time>
      </trkpt>
      <trkpt lat="47.43724" lon="0.63855">
        <ele>72.8</ele>
        <time>2023-07-14T08:51:48Z</time>
      </trkpt>
      <trkpt lat="47.43722" lon="0.63848">
        <ele>72.8</ele>
        <time>2023-07-14T08:51:49Z</time>
      </trkpt>
      <trkpt lat="47.4372" lon="0.63841">
        <ele>72.8</ele>
        <time>2023-07-14T08:51:50Z</time>
      </trkpt>
      <trkpt lat="47.43719" lon="0.63834">
        <ele>72.8</ele>
        <time>2023-07-14T08:51:51Z</time>
      </trkpt>
      <trkpt lat="47.43718" lon="0.63827">
        <ele>73</ele>
        <time>2023-07-14T08:51:52Z</time>
      </trkpt>
      <trkpt lat="47.43716" lon="0.6382">
        <ele>73.2</ele>
        <time>2023-07-14T08:51:53Z</time>
      </trkpt>
      <trkpt lat="47.43715" lon="0.63813">
        <ele>73.4</ele>
        <time>2023-07-14T08:51:54Z</time>
      </trkpt>
      <trkpt lat="47.43713" lon="0.63805">
        <ele>73.4</ele>
        <time>2023-07-14T08:51:55Z</time>
      </trkpt>
      <trkpt lat="47.43711" lon="0.63797">
        <ele>73.4</ele>
        <time>2023-07-14T08:51:56Z</time>
      </trkpt>
      <trkpt lat="47.4371" lon="0.6379">
        <ele>73.4</ele>
        <time>2023-07-14T08:51:57Z</time>
      </trkpt>
      <trkpt lat="47.43708" lon="0.63783">
        <ele>73.2</ele>
        <time>2023-07-14T08:51:58Z</time>
      </trkpt>
      <trkpt lat="47.43706" lon="0.63778">
        <ele>73.2</ele>
        <time>2023-07-14T08:51:59Z</time>
      </trkpt>
      <trkpt lat="47.43702" lon="0.63775">
        <ele>73.2</ele>
        <time>2023-07-14T08:52:00Z</time>
      </trkpt>
      <trkpt lat="47.43698" lon="0.63775">
        <ele>73.2</ele>
        <time>2023-07-14T08:52:01Z</time>
      </trkpt>
      <trkpt lat="47.43694" lon="0.63778">
        <ele>73.2</ele>
        <time>2023-07-14T08:52:02Z</time>
      </trkpt>
      <trkpt lat="47.4369" lon="0.63782">
        <ele>73</ele>
        <time>2023-07-14T08:52:03Z</time>
      </trkpt>
      <trkpt lat="47.43686" lon="0.63788">
        <ele>72.8</ele>
        <time>2023-07-14T08:52:04Z</time>
      </trkpt>
      <trkpt lat="47.43682" lon="0.63795">
        <ele>72.8</ele>
        <time>2023-07-14T08:52:05Z</time>
      </trkpt>
      <trkpt lat="47.43678" lon="0.63802">
        <ele>72.8</ele>
        <time>2023-07-14T08:52:06Z</time>
      </trkpt>
      <trkpt lat="47.43674" lon="0.63809">
        <ele>72.8</ele>
        <time>2023-07-14T08:52:07Z</time>
      </trkpt>
      <trkpt lat="47.4367" lon="0.63816">
        <ele>72.6</ele>
        <time>2023-07-14T08:52:08Z</time>
      </trkpt>
      <trkpt lat="47.43664" lon="0.63823">
        <ele>72.4</ele>
        <time>2023-07-14T08:52:09Z</time>
      </trkpt>
      <trkpt lat="47.43658" lon="0.63828">
        <ele>72</ele>
        <time>2023-07-14T08:52:10Z</time>
      </trkpt>
      <trkpt lat="47.43653" lon="0.63832">
        <ele>71.6</ele>
        <time>2023-07-14T08:52:11Z</time>
      </trkpt>
      <trkpt lat="47.43647" lon="0.63835">
        <ele>71.2</ele>
        <time>2023-07-14T08:52:12Z</time>
      </trkpt>
      <trkpt lat="47.43642" lon="0.63835">
        <ele>70.8</ele>
        <time>2023-07-14T08:52:13Z</time>
      </trkpt>
      <trkpt lat="47.43637" lon="0.63833">
        <ele>70.6</ele>
        <time>2023-07-14T08:52:14Z</time>
      </trkpt>
      <trkpt lat="47.43634" lon="0.63827">
        <ele>70.6</ele>
        <time>2023-07-14T08:52:15Z</time>
      </trkpt>
      <trkpt lat="47.4363" lon="0.63819">
        <ele>70.4</ele>
        <time>2023-07-14T08:52:16Z</time>
      </trkpt>
      <trkpt lat="47.43628" lon="0.6381">
        <ele>70.4</ele>
        <time>2023-07-14T08:52:17Z</time>
      </trkpt>
      <trkpt lat="47.43624" lon="0.63803">
        <ele>70.4</ele>
        <time>2023-07-14T08:52:18Z</time>
      </trkpt>
      <trkpt lat="47.4362" lon="0.63795">
        <ele>70.2</ele>
        <time>2023-07-14T08:52:19Z</time>
      </trkpt>
      <trkpt lat="47.43617" lon="0.63788">
        <ele>70</ele>
        <time>2023-07-14T08:52:20Z</time>
      </trkpt>
      <trkpt lat="47.43613" lon="0.63781">
        <ele>69.8</ele>
        <time>2023-07-14T08:52:21Z</time>
      </trkpt>
      <trkpt lat="47.43609" lon="0.63773">
        <ele>69.8</ele>
        <time>2023-07-14T08:52:22Z</time>
      </trkpt>
      <trkpt lat="47.43605" lon="0.63766">
        <ele>70</ele>
        <time>2023-07-14T08:52:23Z</time>
      </trkpt>
      <trkpt lat="47.43601" lon="0.63759">
        <ele>70</ele>
        <time>2023-07-14T08:52:24Z</time>
      </trkpt>
      <trkpt lat="47.43597" lon="0.63751">
        <ele>70</ele>
        <time>2023-07-14T08:52:25Z</time>
      </trkpt>
      <trkpt lat="47.43593" lon="0.63743">
        <ele>70</ele>
        <time>2023-07-14T08:52:26Z</time>
      </trkpt>
      <trkpt lat="47.4359" lon="0.63734">
        <ele>70</ele>
        <time>2023-07-14T08:52:27Z</time>
      </trkpt>
      <trkpt lat="47.43586" lon="0.63725">
        <ele>69.8</ele>
        <time>2023-07-14T08:52:28Z</time>
      </trkpt>
      <trkpt lat="47.43583" lon="0.63718">
        <ele>69.8</ele>
        <time>2023-07-14T08:52:29Z</time>
      </trkpt>
      <trkpt lat="47.43579" lon="0.63711">
        <ele>70</ele>
        <time>2023-07-14T08:52:30Z</time>
      </trkpt>
      <trkpt lat="47.43575" lon="0.63704">
        <ele>70</ele>
        <time>2023-07-14T08:52:31Z</time>
      </trkpt>
      <trkpt lat="47.43571" lon="0.63697">
        <ele>70.2</ele>
        <time>2023-07-14T08:52:32Z</time>
      </trkpt>
      <trkpt lat="47.43567" lon="0.63691">
        <ele>70.6</ele>
        <time>2023-07-14T08:52:33Z</time>
      </trkpt>
      <trkpt lat="47.43562" lon="0.63686">
        <ele>70.8</ele>
        <time>2023-07-14T08:52:34Z</time>
      </trkpt>
      <trkpt lat="47.43556" lon="0.63681">
        <ele>70.8</ele>
        <time>2023-07-14T08:52:35Z</time>
      </trkpt>
      <trkpt lat="47.4355" lon="0.63677">
        <ele>70.8</ele>
        <time>2023-07-14T08:52:36Z</time>
      </trkpt>
      <trkpt lat="47.43545" lon="0.63673">
        <ele>70.6</ele>
        <time>2023-07-14T08:52:37Z</time>
      </trkpt>
      <trkpt lat="47.4354" lon="0.6367">
        <ele>70.8</ele>
        <time>2023-07-14T08:52:38Z</time>
      </trkpt>
      <trkpt lat="47.43535" lon="0.63666">
        <ele>70.8</ele>
        <time>2023-07-14T08:52:39Z</time>
      </trkpt>
      <trkpt lat="47.43529" lon="0.63662">
        <ele>70.6</ele>
        <time>2023-07-14T08:52:40Z</time>
      </trkpt>
      <trkpt lat="47.43524" lon="0.63657">
        <ele>70.6</ele>
        <time>2023-07-14T08:52:41Z</time>
      </trkpt>
      <trkpt lat="47.43518" lon="0.63652">
        <ele>70.4</ele>
        <time>2023-07-14T08:52:42Z</time>
      </trkpt>
      <trkpt lat="47.43513" lon="0.63648">
        <ele>70.4</ele>
        <time>2023-07-14T08:52:43Z</time>
      </trkpt>
      <trkpt lat="47.43508" lon="0.63644">
        <ele>70.4</ele>
        <time>2023-07-14T08:52:44Z</time>
      </trkpt>
      <trkpt lat="47.43503" lon="0.63639">
        <ele>70.4</ele>
        <time>2023-07-14T08:52:45Z</time>
      </trkpt>
      <trkpt lat="47.43497" lon="0.63635">
        <ele>70.6</ele>
        <time>2023-07-14T08:52:46Z</time>
      </trkpt>
      <trkpt lat="47.43491" lon="0.6363">
        <ele>70.6</ele>
        <time>2023-07-14T08:52:47Z</time>
      </trkpt>
      <trkpt lat="47.43485" lon="0.63626">
        <ele>70.6</ele>
        <time>2023-07-14T08:52:48Z</time>
      </trkpt>
      <trkpt lat="47.43479" lon="0.63623">
        <ele>70.4</ele>
        <time>2023-07-14T08:52:49Z</time>
      </trkpt>
      <trkpt lat="47.43473" lon="0.6362">
        <ele>70.2</ele>
        <time>2023-07-14T08:52:50Z</time>
      </trkpt>
      <trkpt lat="47.43467" lon="0.63618">
        <ele>70</ele>
        <time>2023-07-14T08:52:51Z</time>
      </trkpt>
      <trkpt lat="47.4346" lon="0.63616">
        <ele>70</ele>
        <time>2023-07-14T08:52:52Z</time>
      </trkpt>
      <trkpt lat="47.43453" lon="0.63615">
        <ele>70</ele>
        <time>2023-07-14T08:52:53Z</time>
      </trkpt>
      <trkpt lat="47.43447" lon="0.63614">
        <ele>70</ele>
        <time>2023-07-14T08:52:54Z</time>
      </trkpt>
      <trkpt lat="47.4344" lon="0.63615">
        <ele>70</ele>
        <time>2023-07-14T08:52:55Z</time>
      </trkpt>
      <trkpt lat="47.43433" lon="0.63615">
        <ele>70.2</ele>
        <time>2023-07-14T08:52:56Z</time>
      </trkpt>
      <trkpt lat="47.43427" lon="0.63616">
        <ele>70.2</ele>
        <time>2023-07-14T08:52:57Z</time>
      </trkpt>
      <trkpt lat="47.43421" lon="0.63617">
        <ele>70.2</ele>
        <time>2023-07-14T08:52:58Z</time>
      </trkpt>
      <trkpt lat="47.43414" lon="0.63618">
        <ele>70.2</ele>
        <time>2023-07-14T08:52:59Z</time>
      </trkpt>
      <trkpt lat="47.43407" lon="0.6362">
        <ele>70.2</ele>
        <time>2023-07-14T08:53:00Z</time>
      </trkpt>
      <trkpt lat="47.43401" lon="0.63622">
        <ele>70</ele>
        <time>2023-07-14T08:53:01Z</time>
      </trkpt>
      <trkpt lat="47.43394" lon="0.63624">
        <ele>70</ele>
        <time>2023-07-14T08:53:02Z</time>
      </trkpt>
      <trkpt lat="47.43388" lon="0.63625">
        <ele>69.8</ele>
        <time>2023-07-14T08:53:03Z</time>
      </trkpt>
      <trkpt lat="47.43382" lon="0.63627">
        <ele>70</ele>
        <time>2023-07-14T08:53:04Z</time>
      </trkpt>
      <trkpt lat="47.43375" lon="0.63628">
        <ele>70</ele>
        <time>2023-07-14T08:53:05Z</time>
      </trkpt>
      <trkpt lat="47.43367" lon="0.6363">
        <ele>70</ele>
        <time>2023-07-14T08:53:06Z</time>
      </trkpt>
      <trkpt lat="47.43361" lon="0.63632">
        <ele>70.2</ele>
        <time>2023-07-14T08:53:07Z</time>
      </trkpt>
      <trkpt lat="47.43355" lon="0.63633">
        <ele>70.2</ele>
        <time>2023-07-14T08:53:08Z</time>
      </trkpt>
      <trkpt lat="47.43349" lon="0.63634">
        <ele>70.2</ele>
        <time>2023-07-14T08:53:09Z</time>
      </trkpt>
      <trkpt lat="47.43343" lon="0.63636">
        <ele>70.4</ele>
        <time>2023-07-14T08:53:10Z</time>
      </trkpt>
      <trkpt lat="47.43335" lon="0.63637">
        <ele>70.6</ele>
        <time>2023-07-14T08:53:11Z</time>
      </trkpt>
      <trkpt lat="47.4333" lon="0.63639">
        <ele>70.6</ele>
        <time>2023-07-14T08:53:12Z</time>
      </trkpt>
      <trkpt lat="47.43324" lon="0.6364">
        <ele>70.6</ele>
        <time>2023-07-14T08:53:13Z</time>
      </trkpt>
      <trkpt lat="47.43317" lon="0.63641">
        <ele>70.4</ele>
        <time>2023-07-14T08:53:14Z</time>
      </trkpt>
      <trkpt lat="47.4331" lon="0.63642">
        <ele>70.4</ele>
        <time>2023-07-14T08:53:15Z</time>
      </trkpt>
      <trkpt lat="47.43304" lon="0.63644">
        <ele>70.4</ele>
        <time>2023-07-14T08:53:16Z</time>
      </trkpt>
      <trkpt lat="47.43299" lon="0.63645">
        <ele>70.8</ele>
        <time>2023-07-14T08:53:17Z</time>
      </trkpt>
      <trkpt lat="47.43293" lon="0.63646">
        <ele>71</ele>
        <time>2023-07-14T08:53:18Z</time>
      </trkpt>
      <trkpt lat="47.43287" lon="0.63648">
        <ele>71</ele>
        <time>2023-07-14T08:53:19Z</time>
      </trkpt>
      <trkpt lat="47.43282" lon="0.6365">
        <ele>71</ele>
        <time>2023-07-14T08:53:20Z</time>
      </trkpt>
      <trkpt lat="47.43277" lon="0.63651">
        <ele>70.8</ele>
        <time>2023-07-14T08:53:21Z</time>
      </trkpt>
      <trkpt lat="47.43271" lon="0.63653">
        <ele>71</ele>
        <time>2023-07-14T08:53:22Z</time>
      </trkpt>
      <trkpt lat="47.43266" lon="0.63656">
        <ele>71</ele>
        <time>2023-07-14T08:53:23Z</time>
      </trkpt>
      <trkpt lat="47.43261" lon="0.63659">
        <ele>70.8</ele>
        <time>2023-07-14T08:53:24Z</time>
      </trkpt>
      <trkpt lat="47.43256" lon="0.63662">
        <ele>70.8</ele>
        <time>2023-07-14T08:53:25Z</time>
      </trkpt>
      <trkpt lat="47.43251" lon="0.63665">
        <ele>70.8</ele>
        <time>2023-07-14T08:53:26Z</time>
      </trkpt>
      <trkpt lat="47.43246" lon="0.63668">
        <ele>70.6</ele>
        <time>2023-07-14T08:53:27Z</time>
      </trkpt>
      <trkpt lat="47.43241" lon="0.63672">
        <ele>70.8</ele>
        <time>2023-07-14T08:53:28Z</time>
      </trkpt>
      <trkpt lat="47.43237" lon="0.63676">
        <ele>70.8</ele>
        <time>2023-07-14T08:53:29Z</time>
      </trkpt>
      <trkpt lat="47.43231" lon="0.6368">
        <ele>71</ele>
        <time>2023-07-14T08:53:30Z</time>
      </trkpt>
      <trkpt lat="47.43226" lon="0.63683">
        <ele>71.2</ele>
        <time>2023-07-14T08:53:31Z</time>
      </trkpt>
      <trkpt lat="47.43221" lon="0.63687">
        <ele>71.2</ele>
        <time>2023-07-14T08:53:32Z</time>
      </trkpt>
      <trkpt lat="47.43217" lon="0.6369">
        <ele>71.4</ele>
        <time>2023-07-14T08:53:33Z</time>
      </trkpt>
      <trkpt lat="47.43211" lon="0.63694">
        <ele>71.8</ele>
        <time>2023-07-14T08:53:34Z</time>
      </trkpt>
      <trkpt lat="47.43205" lon="0.63698">
        <ele>72</ele>
        <time>2023-07-14T08:53:35Z</time>
      </trkpt>
      <trkpt lat="47.432" lon="0.637">
        <ele>72.2</ele>
        <time>2023-07-14T08:53:36Z</time>
      </trkpt>
      <trkpt lat="47.43196" lon="0.63702">
        <ele>72.2</ele>
        <time>2023-07-14T08:53:37Z</time>
      </trkpt>
      <trkpt lat="47.4319" lon="0.63704">
        <ele>72.4</ele>
        <time>2023-07-14T08:53:38Z</time>
      </trkpt>
      <trkpt lat="47.43185" lon="0.63705">
        <ele>72.6</ele>
        <time>2023-07-14T08:53:39Z</time>
      </trkpt>
      <trkpt lat="47.4318" lon="0.63706">
        <ele>72.8</ele>
        <time>2023-07-14T08:53:40Z</time>
      </trkpt>
      <trkpt lat="47.43176" lon="0.63705">
        <ele>73</ele>
        <time>2023-07-14T08:53:41Z</time>
      </trkpt>
      <trkpt lat="47.43171" lon="0.63703">
        <ele>73</ele>
        <time>2023-07-14T08:53:42Z</time>
      </trkpt>
      <trkpt lat="47.43167" lon="0.637">
        <ele>73</ele>
        <time>2023-07-14T08:53:43Z</time>
      </trkpt>
      <trkpt lat="47.43163" lon="0.63696">
        <ele>73.2</ele>
        <time>2023-07-14T08:53:44Z</time>
      </trkpt>
      <trkpt lat="47.4316" lon="0.63692">
        <ele>73.4</ele>
        <time>2023-07-14T08:53:45Z</time>
      </trkpt>
      <trkpt lat="47.43156" lon="0.63688">
        <ele>73.6</ele>
        <time>2023-07-14T08:53:46Z</time>
      </trkpt>
      <trkpt lat="47.43152" lon="0.63683">
        <ele>74</ele>
        <time>2023-07-14T08:53:47Z</time>
      </trkpt>
      <trkpt lat="47.43148" lon="0.63678">
        <ele>74.4</ele>
        <time>2023-07-14T08:53:48Z</time>
      </trkpt>
      <trkpt lat="47.43144" lon="0.63673">
        <ele>75</ele>
        <time>2023-07-14T08:53:49Z</time>
      </trkpt>
      <trkpt lat="47.43141" lon="0.63668">
        <ele>75.4</ele>
        <time>2023-07-14T08:53:50Z</time>
      </trkpt>
      <trkpt lat="47.43137" lon="0.63664">
        <ele>75.6</ele>
        <time>2023-07-14T08:53:51Z</time>
      </trkpt>
      <trkpt lat="47.43133" lon="0.63659">
        <ele>76</ele>
        <time>2023-07-14T08:53:52Z</time>
      </trkpt>
      <trkpt lat="47.43129" lon="0.63653">
        <ele>76.2</ele>
        <time>2023-07-14T08:53:53Z</time>
      </trkpt>
      <trkpt lat="47.43126" lon="0.63648">
        <ele>76.4</ele>
        <time>2023-07-14T08:53:54Z</time>
      </trkpt>
      <trkpt lat="47.43122" lon="0.63644">
        <ele>76.6</ele>
        <time>2023-07-14T08:53:55Z</time>
      </trkpt>
      <trkpt lat="47.43118" lon="0.6364">
        <ele>76.8</ele>
        <time>2023-07-14T08:53:56Z</time>
      </trkpt>
      <trkpt lat="47.43115" lon="0.63634">
        <ele>77</ele>
        <time>2023-07-14T08:53:57Z</time>
      </trkpt>
      <trkpt lat="47.43112" lon="0.63629">
        <ele>77.2</ele>
        <time>2023-07-14T08:53:58Z</time>
      </trkpt>
      <trkpt lat="47.43109" lon="0.63625">
        <ele>77.2</ele>
        <time>2023-07-14T08:53:59Z</time>
      </trkpt>
      <trkpt lat="47.43106" lon="0.6362">
        <ele>77.2</ele>
        <time>2023-07-14T08:54:00Z</time>
      </trkpt>
      <trkpt lat="47.43103" lon="0.63616">
        <ele>77.2</ele>
        <time>2023-07-14T08:54:01Z</time>
      </trkpt>
      <trkpt lat="47.43101" lon="0.63611">
        <ele>77.4</ele>
        <time>2023-07-14T08:54:02Z</time>
      </trkpt>
      <trkpt lat="47.43099" lon="0.63606">
        <ele>77.4</ele>
        <time>2023-07-14T08:54:03Z</time>
      </trkpt>
      <trkpt lat="47.43097" lon="0.63601">
        <ele>77.6</ele>
        <time>2023-07-14T08:54:04Z</time>
      </trkpt>
      <trkpt lat="47.43095" lon="0.63596">
        <ele>77.6</ele>
        <time>2023-07-14T08:54:05Z</time>
      </trkpt>
      <trkpt lat="47.43093" lon="0.6359">
        <ele>77.4</ele>
        <time>2023-07-14T08:54:06Z</time>
      </trkpt>
      <trkpt lat="47.43091" lon="0.63584">
        <ele>77.6</ele>
        <time>2023-07-14T08:54:07Z</time>
      </trkpt>
      <trkpt lat="47.43089" lon="0.6358">
        <ele>77.6</ele>
        <time>2023-07-14T08:54:08Z</time>
      </trkpt>
      <trkpt lat="47.43087" lon="0.63574">
        <ele>77.8</ele>
        <time>2023-07-14T08:54:09Z</time>
      </trkpt>
      <trkpt lat="47.43085" lon="0.63568">
        <ele>77.8</ele>
        <time>2023-07-14T08:54:10Z</time>
      </trkpt>
      <trkpt lat="47.43084" lon="0.63562">
        <ele>77.8</ele>
        <time>2023-07-14T08:54:11Z</time>
      </trkpt>
      <trkpt lat="47.43082" lon="0.63556">
        <ele>78</ele>
        <time>2023-07-14T08:54:12Z</time>
      </trkpt>
      <trkpt lat="47.43081" lon="0.6355">
        <ele>78.2</ele>
        <time>2023-07-14T08:54:13Z</time>
      </trkpt>
      <trkpt lat="47.43079" lon="0.63544">
        <ele>78.4</ele>
        <time>2023-07-14T08:54:14Z</time>
      </trkpt>
      <trkpt lat="47.43077" lon="0.63538">
        <ele>78.8</ele>
        <time>2023-07-14T08:54:15Z</time>
      </trkpt>
      <trkpt lat="47.43074" lon="0.63532">
        <ele>79</ele>
        <time>2023-07-14T08:54:16Z</time>
      </trkpt>
      <trkpt lat="47.43073" lon="0.63526">
        <ele>79.2</ele>
        <time>2023-07-14T08:54:17Z</time>
      </trkpt>
      <trkpt lat="47.4307" lon="0.63519">
        <ele>79.2</ele>
        <time>2023-07-14T08:54:18Z</time>
      </trkpt>
      <trkpt lat="47.43068" lon="0.63513">
        <ele>79.4</ele>
        <time>2023-07-14T08:54:19Z</time>
      </trkpt>
      <trkpt lat="47.43066" lon="0.63507">
        <ele>79.6</ele>
        <time>2023-07-14T08:54:20Z</time>
      </trkpt>
      <trkpt lat="47.43064" lon="0.635">
        <ele>79.8</ele>
        <time>2023-07-14T08:54:21Z</time>
      </trkpt>
      <trkpt lat="47.43061" lon="0.63493">
        <ele>80</ele>
        <time>2023-07-14T08:54:22Z</time>
      </trkpt>
      <trkpt lat="47.43059" lon="0.63487">
        <ele>80</ele>
        <time>2023-07-14T08:54:23Z</time>
      </trkpt>
      <trkpt lat="47.43056" lon="0.6348">
        <ele>80.2</ele>
        <time>2023-07-14T08:54:24Z</time>
      </trkpt>
      <trkpt lat="47.43054" lon="0.63472">
        <ele>80.2</ele>
        <time>2023-07-14T08:54:25Z</time>
      </trkpt>
      <trkpt lat="47.43052" lon="0.63464">
        <ele>80.2</ele>
        <time>2023-07-14T08:54:26Z</time>
      </trkpt>
      <trkpt lat="47.4305" lon="0.63457">
        <ele>80.2</ele>
        <time>2023-07-14T08:54:27Z</time>
      </trkpt>
      <trkpt lat="47.43048" lon="0.6345">
        <ele>80.2</ele>
        <time>2023-07-14T08:54:28Z</time>
      </trkpt>
      <trkpt lat="47.43046" lon="0.63442">
        <ele>80.2</ele>
        <time>2023-07-14T08:54:29Z</time>
      </trkpt>
      <trkpt lat="47.43045" lon="0.63432">
        <ele>80</ele>
        <time>2023-07-14T08:54:30Z</time>
      </trkpt>
      <trkpt lat="47.43043" lon="0.63423">
        <ele>80</ele>
        <time>2023-07-14T08:54:31Z</time>
      </trkpt>
      <trkpt lat="47.43042" lon="0.63414">
        <ele>79.8</ele>
        <time>2023-07-14T08:54:32Z</time>
      </trkpt>
      <trkpt lat="47.43042" lon="0.63404">
        <ele>79.8</ele>
        <time>2023-07-14T08:54:33Z</time>
      </trkpt>
      <trkpt lat="47.43043" lon="0.63393">
        <ele>79.6</ele>
        <time>2023-07-14T08:54:34Z</time>
      </trkpt>
      <trkpt lat="47.43044" lon="0.63381">
        <ele>79.4</ele>
        <time>2023-07-14T08:54:35Z</time>
      </trkpt>
      <trkpt lat="47.43047" lon="0.63371">
        <ele>79.2</ele>
        <time>2023-07-14T08:54:36Z</time>
      </trkpt>
      <trkpt lat="47.4305" lon="0.6336">
        <ele>79</ele>
        <time>2023-07-14T08:54:37Z</time>
      </trkpt>
      <trkpt lat="47.43054" lon="0.63348">
        <ele>78.8</ele>
        <time>2023-07-14T08:54:38Z</time>
      </trkpt>
      <trkpt lat="47.43059" lon="0.63338">
        <ele>78.4</ele>
        <time>2023-07-14T08:54:39Z</time>
      </trkpt>
      <trkpt lat="47.43064" lon="0.63328">
        <ele>77.8</ele>
        <time>2023-07-14T08:54:40Z</time>
      </trkpt>
      <trkpt lat="47.43071" lon="0.63318">
        <ele>77.2</ele>
        <time>2023-07-14T08:54:41Z</time>
      </trkpt>
      <trkpt lat="47.43077" lon="0.63308">
        <ele>76.8</ele>
        <time>2023-07-14T08:54:42Z</time>
      </trkpt>
      <trkpt lat="47.43083" lon="0.63298">
        <ele>76.2</ele>
        <time>2023-07-14T08:54:43Z</time>
      </trkpt>
      <trkpt lat="47.4309" lon="0.63287">
        <ele>75.8</ele>
        <time>2023-07-14T08:54:44Z</time>
      </trkpt>
      <trkpt lat="47.43097" lon="0.63277">
        <ele>75.6</ele>
        <time>2023-07-14T08:54:45Z</time>
      </trkpt>
      <trkpt lat="47.43103" lon="0.63267">
        <ele>75.4</ele>
        <time>2023-07-14T08:54:46Z</time>
      </trkpt>
      <trkpt lat="47.4311" lon="0.63256">
        <ele>75</ele>
        <time>2023-07-14T08:54:47Z</time>
      </trkpt>
      <trkpt lat="47.43117" lon="0.63244">
        <ele>74.4</ele>
        <time>2023-07-14T08:54:48Z</time>
      </trkpt>
      <trkpt lat="47.43126" lon="0.63232">
        <ele>74</ele>
        <time>2023-07-14T08:54:49Z</time>
      </trkpt>
      <trkpt lat="47.43133" lon="0.63217">
        <ele>73.6</ele>
        <time>2023-07-14T08:54:50Z</time>
      </trkpt>
      <trkpt lat="47.43139" lon="0.63204">
        <ele>73.4</ele>
        <time>2023-07-14T08:54:51Z</time>
      </trkpt>
      <trkpt lat="47.43142" lon="0.63191">
        <ele>73.2</ele>
        <time>2023-07-14T08:54:52Z</time>
      </trkpt>
      <trkpt lat="47.43143" lon="0.63178">
        <ele>73.2</ele>
        <time>2023-07-14T08:54:53Z</time>
      </trkpt>
      <trkpt lat="47.43143" lon="0.63164">
        <ele>73</ele>
        <time>2023-07-14T08:54:54Z</time>
      </trkpt>
      <trkpt lat="47.43141" lon="0.63149">
        <ele>72.8</ele>
        <time>2023-07-14T08:54:55Z</time>
      </trkpt>
      <trkpt lat="47.43137" lon="0.63137">
        <ele>72.8</ele>
        <time>2023-07-14T08:54:56Z</time>
      </trkpt>
      <trkpt lat="47.43133" lon="0.63127">
        <ele>72.6</ele>
        <time>2023-07-14T08:54:57Z</time>
      </trkpt>
      <trkpt lat="47.43128" lon="0.63117">
        <ele>72.8</ele>
        <time>2023-07-14T08:54:58Z</time>
      </trkpt>
      <trkpt lat="47.43123" lon="0.63109">
        <ele>72.6</ele>
        <time>2023-07-14T08:54:59Z</time>
      </trkpt>
      <trkpt lat="47.4312" lon="0.63102">
        <ele>72.8</ele>
        <time>2023-07-14T08:55:00Z</time>
      </trkpt>
      <trkpt lat="47.43116" lon="0.63095">
        <ele>73</ele>
        <time>2023-07-14T08:55:01Z</time>
      </trkpt>
      <trkpt lat="47.43112" lon="0.63088">
        <ele>73.2</ele>
        <time>2023-07-14T08:55:02Z</time>
      </trkpt>
      <trkpt lat="47.43108" lon="0.63081">
        <ele>73.6</ele>
        <time>2023-07-14T08:55:03Z</time>
      </trkpt>
      <trkpt lat="47.43104" lon="0.63074">
        <ele>73.8</ele>
        <time>2023-07-14T08:55:04Z</time>
      </trkpt>
      <trkpt lat="47.43102" lon="0.63069">
        <ele>74</ele>
        <time>2023-07-14T08:55:05Z</time>
      </trkpt>
      <trkpt lat="47.43098" lon="0.63063">
        <ele>74.6</ele>
        <time>2023-07-14T08:55:06Z</time>
      </trkpt>
      <trkpt lat="47.43095" lon="0.63057">
        <ele>74.8</ele>
        <time>2023-07-14T08:55:07Z</time>
      </trkpt>
      <trkpt lat="47.43092" lon="0.63051">
        <ele>75</ele>
        <time>2023-07-14T08:55:08Z</time>
      </trkpt>
      <trkpt lat="47.43089" lon="0.63045">
        <ele>75.2</ele>
        <time>2023-07-14T08:55:09Z</time>
      </trkpt>
      <trkpt lat="47.43086" lon="0.63038">
        <ele>75.4</ele>
        <time>2023-07-14T08:55:10Z</time>
      </trkpt>
      <trkpt lat="47.43084" lon="0.63033">
        <ele>75.6</ele>
        <time>2023-07-14T08:55:11Z</time>
      </trkpt>
      <trkpt lat="47.43081" lon="0.63027">
        <ele>75.8</ele>
        <time>2023-07-14T08:55:12Z</time>
      </trkpt>
      <trkpt lat="47.43079" lon="0.63021">
        <ele>76</ele>
        <time>2023-07-14T08:55:13Z</time>
      </trkpt>
      <trkpt lat="47.43076" lon="0.63016">
        <ele>76.2</ele>
        <time>2023-07-14T08:55:14Z</time>
      </trkpt>
      <trkpt lat="47.43075" lon="0.63011">
        <ele>76.4</ele>
        <time>2023-07-14T08:55:15Z</time>
      </trkpt>
      <trkpt lat="47.43073" lon="0.63004">
        <ele>76.8</ele>
        <time>2023-07-14T08:55:16Z</time>
      </trkpt>
      <trkpt lat="47.43072" lon="0.62998">
        <ele>76.8</ele>
        <time>2023-07-14T08:55:17Z</time>
      </trkpt>
      <trkpt lat="47.43071" lon="0.62991">
        <ele>77.2</ele>
        <time>2023-07-14T08:55:18Z</time>
      </trkpt>
      <trkpt lat="47.43071" lon="0.62984">
        <ele>77.2</ele>
        <time>2023-07-14T08:55:19Z</time>
      </trkpt>
      <trkpt lat="47.4307" lon="0.62977">
        <ele>77.4</ele>
        <time>2023-07-14T08:55:20Z</time>
      </trkpt>
      <trkpt lat="47.4307" lon="0.62971">
        <ele>77.6</ele>
        <time>2023-07-14T08:55:21Z</time>
      </trkpt>
      <trkpt lat="47.4307" lon="0.62964">
        <ele>77.8</ele>
        <time>2023-07-14T08:55:22Z</time>
      </trkpt>
      <trkpt lat="47.43071" lon="0.62956">
        <ele>78</ele>
        <time>2023-07-14T08:55:23Z</time>
      </trkpt>
      <trkpt lat="47.43071" lon="0.62949">
        <ele>78.2</ele>
        <time>2023-07-14T08:55:24Z</time>
      </trkpt>
      <trkpt lat="47.43073" lon="0.62942">
        <ele>78.4</ele>
        <time>2023-07-14T08:55:25Z</time>
      </trkpt>
      <trkpt lat="47.43074" lon="0.62935">
        <ele>78.6</ele>
        <time>2023-07-14T08:55:26Z</time>
      </trkpt>
      <trkpt lat="47.43075" lon="0.62927">
        <ele>78.8</ele>
        <time>2023-07-14T08:55:27Z</time>
      </trkpt>
      <trkpt lat="47.43077" lon="0.6292">
        <ele>79</ele>
        <time>2023-07-14T08:55:28Z</time>
      </trkpt>
      <trkpt lat="47.43078" lon="0.62914">
        <ele>79</ele>
        <time>2023-07-14T08:55:29Z</time>
      </trkpt>
      <trkpt lat="47.4308" lon="0.62907">
        <ele>79.2</ele>
        <time>2023-07-14T08:55:30Z</time>
      </trkpt>
      <trkpt lat="47.43082" lon="0.62899">
        <ele>79.4</ele>
        <time>2023-07-14T08:55:31Z</time>
      </trkpt>
      <trkpt lat="47.43084" lon="0.62892">
        <ele>79.6</ele>
        <time>2023-07-14T08:55:32Z</time>
      </trkpt>
      <trkpt lat="47.43086" lon="0.62885">
        <ele>79.6</ele>
        <time>2023-07-14T08:55:33Z</time>
      </trkpt>
      <trkpt lat="47.43089" lon="0.62877">
        <ele>79.8</ele>
        <time>2023-07-14T08:55:34Z</time>
      </trkpt>
      <trkpt lat="47.4309" lon="0.62871">
        <ele>80</ele>
        <time>2023-07-14T08:55:35Z</time>
      </trkpt>
      <trkpt lat="47.43092" lon="0.62863">
        <ele>80.4</ele>
        <time>2023-07-14T08:55:36Z</time>
      </trkpt>
      <trkpt lat="47.43094" lon="0.62855">
        <ele>80.6</ele>
        <time>2023-07-14T08:55:37Z</time>
      </trkpt>
      <trkpt lat="47.43096" lon="0.62847">
        <ele>80.6</ele>
        <time>2023-07-14T08:55:38Z</time>
      </trkpt>
      <trkpt lat="47.43097" lon="0.62841">
        <ele>80.8</ele>
        <time>2023-07-14T08:55:39Z</time>
      </trkpt>
      <trkpt lat="47.43099" lon="0.62833">
        <ele>80.8</ele>
        <time>2023-07-14T08:55:40Z</time>
      </trkpt>
      <trkpt lat="47.43101" lon="0.62825">
        <ele>80.8</ele>
        <time>2023-07-14T08:55:41Z</time>
      </trkpt>
      <trkpt lat="47.43103" lon="0.62819">
        <ele>81</ele>
        <time>2023-07-14T08:55:42Z</time>
      </trkpt>
      <trkpt lat="47.43105" lon="0.62812">
        <ele>81</ele>
        <time>2023-07-14T08:55:43Z</time>
      </trkpt>
      <trkpt lat="47.43108" lon="0.62806">
        <ele>81.2</ele>
        <time>2023-07-14T08:55:44Z</time>
      </trkpt>
      <trkpt lat="47.43111" lon="0.62799">
        <ele>81.2</ele>
        <time>2023-07-14T08:55:45Z</time>
      </trkpt>
      <trkpt lat="47.43113" lon="0.62791">
        <ele>81.4</ele>
        <time>2023-07-14T08:55:46Z</time>
      </trkpt>
      <trkpt lat="47.43116" lon="0.62784">
        <ele>81.4</ele>
        <time>2023-07-14T08:55:47Z</time>
      </trkpt>
      <trkpt lat="47.43118" lon="0.62778">
        <ele>81.6</ele>
        <time>2023-07-14T08:55:48Z</time>
      </trkpt>
      <trkpt lat="47.4312" lon="0.62771">
        <ele>81.8</ele>
        <time>2023-07-14T08:55:49Z</time>
      </trkpt>
      <trkpt lat="47.43122" lon="0.62764">
        <ele>82</ele>
        <time>2023-07-14T08:55:50Z</time>
      </trkpt>
      <trkpt lat="47.43124" lon="0.62757">
        <ele>82.2</ele>
        <time>2023-07-14T08:55:51Z</time>
      </trkpt>
      <trkpt lat="47.43126" lon="0.6275">
        <ele>82.4</ele>
        <time>2023-07-14T08:55:52Z</time>
      </trkpt>
      <trkpt lat="47.43128" lon="0.62743">
        <ele>82.6</ele>
        <time>2023-07-14T08:55:53Z</time>
      </trkpt>
      <trkpt lat="47.43131" lon="0.62737">
        <ele>82.6</ele>
        <time>2023-07-14T08:55:54Z</time>
      </trkpt>
      <trkpt lat="47.43133" lon="0.6273">
        <ele>82.8</ele>
        <time>2023-07-14T08:55:55Z</time>
      </trkpt>
      <trkpt lat="47.43135" lon="0.62723">
        <ele>83</ele>
        <time>2023-07-14T08:55:56Z</time>
      </trkpt>
      <trkpt lat="47.43137" lon="0.62717">
        <ele>83.4</ele>
        <time>2023-07-14T08:55:57Z</time>
      </trkpt>
      <trkpt lat="47.43139" lon="0.6271">
        <ele>83.6</ele>
        <time>2023-07-14T08:55:58Z</time>
      </trkpt>
      <trkpt lat="47.4314" lon="0.62703">
        <ele>83.8</ele>
        <time>2023-07-14T08:55:59Z</time>
      </trkpt>
      <trkpt lat="47.43142" lon="0.62696">
        <ele>84</ele>
        <time>2023-07-14T08:56:00Z</time>
      </trkpt>
      <trkpt lat="47.43144" lon="0.62689">
        <ele>84.2</ele>
        <time>2023-07-14T08:56:01Z</time>
      </trkpt>
      <trkpt lat="47.43146" lon="0.62682">
        <ele>84.4</ele>
        <time>2023-07-14T08:56:02Z</time>
      </trkpt>
      <trkpt lat="47.43148" lon="0.62676">
        <ele>84.4</ele>
        <time>2023-07-14T08:56:03Z</time>
      </trkpt>
      <trkpt lat="47.4315" lon="0.62669">
        <ele>84.8</ele>
        <time>2023-07-14T08:56:04Z</time>
      </trkpt>
      <trkpt lat="47.43152" lon="0.62663">
        <ele>84.8</ele>
        <time>2023-07-14T08:56:05Z</time>
      </trkpt>
      <trkpt lat="47.43154" lon="0.62656">
        <ele>85</ele>
        <time>2023-07-14T08:56:06Z</time>
      </trkpt>
      <trkpt lat="47.43156" lon="0.6265">
        <ele>85.2</ele>
        <time>2023-07-14T08:56:07Z</time>
      </trkpt>
      <trkpt lat="47.43158" lon="0.62644">
        <ele>85.4</ele>
        <time>2023-07-14T08:56:08Z</time>
      </trkpt>
      <trkpt lat="47.4316" lon="0.62637">
        <ele>85.6</ele>
        <time>2023-07-14T08:56:09Z</time>
      </trkpt>
      <trkpt lat="47.43162" lon="0.62631">
        <ele>85.8</ele>
        <time>2023-07-14T08:56:10Z</time>
      </trkpt>
      <trkpt lat="47.43163" lon="0.62625">
        <ele>86</ele>
        <time>2023-07-14T08:56:11Z</time>
      </trkpt>
      <trkpt lat="47.43165" lon="0.62619">
        <ele>86.2</ele>
        <time>2023-07-14T08:56:12Z</time>
      </trkpt>
      <trkpt lat="47.43167" lon="0.62613">
        <ele>86.6</ele>
        <time>2023-07-14T08:56:13Z</time>
      </trkpt>
      <trkpt lat="47.43168" lon="0.62607">
        <ele>86.8</ele>
        <time>2023-07-14T08:56:14Z</time>
      </trkpt>
      <trkpt lat="47.4317" lon="0.62601">
        <ele>87</ele>
        <time>2023-07-14T08:56:15Z</time>
      </trkpt>
      <trkpt lat="47.43171" lon="0.62595">
        <ele>87.2</ele>
        <time>2023-07-14T08:56:16Z</time>
      </trkpt>
      <trkpt lat="47.43172" lon="0.62589">
        <ele>87.4</ele>
        <time>2023-07-14T08:56:17Z</time>
      </trkpt>
      <trkpt lat="47.43174" lon="0.62582">
        <ele>87.6</ele>
        <time>2023-07-14T08:56:18Z</time>
      </trkpt>
      <trkpt lat="47.43174" lon="0.62575">
        <ele>87.8</ele>
        <time>2023-07-14T08:56:19Z</time>
      </trkpt>
      <trkpt lat="47.43174" lon="0.62569">
        <ele>88</ele>
        <time>2023-07-14T08:56:20Z</time>
      </trkpt>
      <trkpt lat="47.43174" lon="0.62564">
        <ele>88.4</ele>
        <time>2023-07-14T08:56:21Z</time>
      </trkpt>
      <trkpt lat="47.43175" lon="0.62558">
        <ele>88.4</ele>
        <time>2023-07-14T08:56:22Z</time>
      </trkpt>
      <trkpt lat="47.43174" lon="0.62551">
        <ele>88.6</ele>
        <time>2023-07-14T08:56:23Z</time>
      </trkpt>
      <trkpt lat="47.43174" lon="0.62545">
        <ele>88.8</ele>
        <time>2023-07-14T08:56:24Z</time>
      </trkpt>
      <trkpt lat="47.43172" lon="0.62539">
        <ele>89</ele>
        <time>2023-07-14T08:56:25Z</time>
      </trkpt>
      <trkpt lat="47.43171" lon="0.62534">
        <ele>89.2</ele>
        <time>2023-07-14T08:56:26Z</time>
      </trkpt>
      <trkpt lat="47.43169" lon="0.62529">
        <ele>89.4</ele>
        <time>2023-07-14T08:56:27Z</time>
      </trkpt>
      <trkpt lat="47.43166" lon="0.62524">
        <ele>89.6</ele>
        <time>2023-07-14T08:56:28Z</time>
      </trkpt>
      <trkpt lat="47.43163" lon="0.62519">
        <ele>89.8</ele>
        <time>2023-07-14T08:56:29Z</time>
      </trkpt>
      <trkpt lat="47.4316" lon="0.62514">
        <ele>90</ele>
        <time>2023-07-14T08:56:30Z</time>
      </trkpt>
      <trkpt lat="47.43157" lon="0.62508">
        <ele>90.2</ele>
        <time>2023-07-14T08:56:31Z</time>
      </trkpt>
      <trkpt lat="47.43154" lon="0.62502">
        <ele>90.4</ele>
        <time>2023-07-14T08:56:32Z</time>
      </trkpt>
      <trkpt lat="47.43151" lon="0.62496">
        <ele>90.6</ele>
        <time>2023-07-14T08:56:33Z</time>
      </trkpt>
      <trkpt lat="47.43148" lon="0.62491">
        <ele>90.8</ele>
        <time>2023-07-14T08:56:34Z</time>
      </trkpt>
      <trkpt lat="47.43145" lon="0.62485">
        <ele>91</ele>
        <time>2023-07-14T08:56:35Z</time>
      </trkpt>
      <trkpt lat="47.43142" lon="0.62479">
        <ele>91</ele>
        <time>2023-07-14T08:56:36Z</time>
      </trkpt>
      <trkpt lat="47.43139" lon="0.62473">
        <ele>91.2</ele>
        <time>2023-07-14T08:56:37Z</time>
      </trkpt>
      <trkpt lat="47.43135" lon="0.62466">
        <ele>91.4</ele>
        <time>2023-07-14T08:56:38Z</time>
      </trkpt>
      <trkpt lat="47.43132" lon="0.62459">
        <ele>91.6</ele>
        <time>2023-07-14T08:56:39Z</time>
      </trkpt>
      <trkpt lat="47.43129" lon="0.62454">
        <ele>91.8</ele>
        <time>2023-07-14T08:56:40Z</time>
      </trkpt>
      <trkpt lat="47.43126" lon="0.62448">
        <ele>91.8</ele>
        <time>2023-07-14T08:56:41Z</time>
      </trkpt>
      <trkpt lat="47.43122" lon="0.62442">
        <ele>92</ele>
        <time>2023-07-14T08:56:42Z</time>
      </trkpt>
      <trkpt lat="47.43119" lon="0.62436">
        <ele>92</ele>
        <time>2023-07-14T08:56:43Z</time>
      </trkpt>
      <trkpt lat="47.43116" lon="0.62429">
        <ele>92.2</ele>
        <time>2023-07-14T08:56:44Z</time>
      </trkpt>
      <trkpt lat="47.43113" lon="0.62423">
        <ele>92.2</ele>
        <time>2023-07-14T08:56:45Z</time>
      </trkpt>
      <trkpt lat="47.43109" lon="0.62416">
        <ele>92.4</ele>
        <time>2023-07-14T08:56:46Z</time>
      </trkpt>
      <trkpt lat="47.43105" lon="0.62408">
        <ele>92.4</ele>
        <time>2023-07-14T08:56:47Z</time>
      </trkpt>
      <trkpt lat="47.43102" lon="0.62402">
        <ele>92.6</ele>
        <time>2023-07-14T08:56:48Z</time>
      </trkpt>
      <trkpt lat="47.43098" lon="0.62396">
        <ele>92.8</ele>
        <time>2023-07-14T08:56:49Z</time>
      </trkpt>
      <trkpt lat="47.43094" lon="0.6239">
        <ele>92.8</ele>
        <time>2023-07-14T08:56:50Z</time>
      </trkpt>
      <trkpt lat="47.4309" lon="0.62386">
        <ele>93</ele>
        <time>2023-07-14T08:56:51Z</time>
      </trkpt>
      <trkpt lat="47.43087" lon="0.62383">
        <ele>93.6</ele>
        <time>2023-07-14T08:56:52Z</time>
      </trkpt>
      <trkpt lat="47.43083" lon="0.62379">
        <ele>94</ele>
        <time>2023-07-14T08:56:53Z</time>
      </trkpt>
      <trkpt lat="47.43079" lon="0.62374">
        <ele>94.2</ele>
        <time>2023-07-14T08:56:54Z</time>
      </trkpt>
      <trkpt lat="47.43075" lon="0.62371">
        <ele>94.6</ele>
        <time>2023-07-14T08:56:55Z</time>
      </trkpt>
      <trkpt lat="47.43071" lon="0.62368">
        <ele>94.4</ele>
        <time>2023-07-14T08:56:56Z</time>
      </trkpt>
      <trkpt lat="47.43067" lon="0.62365">
        <ele>94.6</ele>
        <time>2023-07-14T08:56:57Z</time>
      </trkpt>
      <trkpt lat="47.43063" lon="0.62362">
        <ele>95.2</ele>
        <time>2023-07-14T08:56:58Z</time>
      </trkpt>
      <trkpt lat="47.4306" lon="0.62359">
        <ele>95.2</ele>
        <time>2023-07-14T08:56:59Z</time>
      </trkpt>
      <trkpt lat="47.43056" lon="0.62356">
        <ele>95.4</ele>
        <time>2023-07-14T08:57:00Z</time>
      </trkpt>
      <trkpt lat="47.43052" lon="0.62352">
        <ele>95.6</ele>
        <time>2023-07-14T08:57:01Z</time>
      </trkpt>
      <trkpt lat="47.43048" lon="0.62349">
        <ele>95.6</ele>
        <time>2023-07-14T08:57:02Z</time>
      </trkpt>
      <trkpt lat="47.43045" lon="0.62346">
        <ele>95.6</ele>
        <time>2023-07-14T08:57:03Z</time>
      </trkpt>
      <trkpt lat="47.43041" lon="0.62343">
        <ele>95.8</ele>
        <time>2023-07-14T08:57:04Z</time>
      </trkpt>
      <trkpt lat="47.43038" lon="0.6234">
        <ele>95.6</ele>
        <time>2023-07-14T08:57:05Z</time>
      </trkpt>
      <trkpt lat="47.43034" lon="0.62336">
        <ele>95.4</ele>
        <time>2023-07-14T08:57:06Z</time>
      </trkpt>
      <trkpt lat="47.4303" lon="0.62332">
        <ele>95.6</ele>
        <time>2023-07-14T08:57:07Z</time>
      </trkpt>
      <trkpt lat="47.43026" lon="0.62329">
        <ele>95.6</ele>
        <time>2023-07-14T08:57:08Z</time>
      </trkpt>
      <trkpt lat="47.43023" lon="0.62325">
        <ele>95.6</ele>
        <time>2023-07-14T08:57:09Z</time>
      </trkpt>
      <trkpt lat="47.43019" lon="0.62321">
        <ele>95.8</ele>
        <time>2023-07-14T08:57:10Z</time>
      </trkpt>
      <trkpt lat="47.43015" lon="0.62318">
        <ele>95.8</ele>
        <time>2023-07-14T08:57:11Z</time>
      </trkpt>
      <trkpt lat="47.43011" lon="0.62315">
        <ele>96</ele>
        <time>2023-07-14T08:57:12Z</time>
      </trkpt>
      <trkpt lat="47.43007" lon="0.62312">
        <ele>96</ele>
        <time>2023-07-14T08:57:13Z</time>
      </trkpt>
      <trkpt lat="47.43004" lon="0.62309">
        <ele>96.2</ele>
        <time>2023-07-14T08:57:14Z</time>
      </trkpt>
      <trkpt lat="47.43" lon="0.62306">
        <ele>96.6</ele>
        <time>2023-07-14T08:57:15Z</time>
      </trkpt>
      <trkpt lat="47.42996" lon="0.62302">
        <ele>96.8</ele>
        <time>2023-07-14T08:57:16Z</time>
      </trkpt>
      <trkpt lat="47.42992" lon="0.62298">
        <ele>97</ele>
        <time>2023-07-14T08:57:17Z</time>
      </trkpt>
      <trkpt lat="47.42988" lon="0.62295">
        <ele>97</ele>
        <time>2023-07-14T08:57:18Z</time>
      </trkpt>
      <trkpt lat="47.42985" lon="0.62292">
        <ele>97.2</ele>
        <time>2023-07-14T08:57:19Z</time>
      </trkpt>
      <trkpt lat="47.42981" lon="0.62288">
        <ele>97.4</ele>
        <time>2023-07-14T08:57:20Z</time>
      </trkpt>
      <trkpt lat="47.42977" lon="0.62284">
        <ele>97.4</ele>
        <time>2023-07-14T08:57:21Z</time>
      </trkpt>
      <trkpt lat="47.42973" lon="0.62281">
        <ele>97.4</ele>
        <time>2023-07-14T08:57:22Z</time>
      </trkpt>
      <trkpt lat="47.42969" lon="0.62277">
        <ele>97.4</ele>
        <time>2023-07-14T08:57:23Z</time>
      </trkpt>
      <trkpt lat="47.42965" lon="0.62274">
        <ele>97.4</ele>
        <time>2023-07-14T08:57:24Z</time>
      </trkpt>
      <trkpt lat="47.42961" lon="0.62271">
        <ele>97.6</ele>
        <time>2023-07-14T08:57:25Z</time>
      </trkpt>
      <trkpt lat="47.42957" lon="0.62268">
        <ele>97.8</ele>
        <time>2023-07-14T08:57:26Z</time>
      </trkpt>
      <trkpt lat="47.42953" lon="0.62264">
        <ele>98.2</ele>
        <time>2023-07-14T08:57:27Z</time>
      </trkpt>
      <trkpt lat="47.42949" lon="0.62261">
        <ele>98.6</ele>
        <time>2023-07-14T08:57:28Z</time>
      </trkpt>
      <trkpt lat="47.42945" lon="0.62259">
        <ele>99</ele>
        <time>2023-07-14T08:57:29Z</time>
      </trkpt>
      <trkpt lat="47.42942" lon="0.62256">
        <ele>99</ele>
        <time>2023-07-14T08:57:30Z</time>
      </trkpt>
      <trkpt lat="47.42938" lon="0.62253">
        <ele>99.2</ele>
        <time>2023-07-14T08:57:31Z</time>
      </trkpt>
      <trkpt lat="47.42934" lon="0.62251">
        <ele>99.4</ele>
        <time>2023-07-14T08:57:32Z</time>
      </trkpt>
      <trkpt lat="47.42931" lon="0.62249">
        <ele>99.8</ele>
        <time>2023-07-14T08:57:33Z</time>
      </trkpt>
      <trkpt lat="47.42927" lon="0.62248">
        <ele>100</ele>
        <time>2023-07-14T08:57:34Z</time>
      </trkpt>
      <trkpt lat="47.42923" lon="0.62246">
        <ele>100.2</ele>
        <time>2023-07-14T08:57:35Z</time>
      </trkpt>
      <trkpt lat="47.42919" lon="0.62244">
        <ele>100.2</ele>
        <time>2023-07-14T08:57:36Z</time>
      </trkpt>
      <trkpt lat="47.42915" lon="0.62242">
        <ele>100.2</ele>
        <time>2023-07-14T08:57:37Z</time>
      </trkpt>
      <trkpt lat="47.42911" lon="0.6224">
        <ele>100.4</ele>
        <time>2023-07-14T08:57:38Z</time>
      </trkpt>
      <trkpt lat="47.42907" lon="0.62238">
        <ele>100.6</ele>
        <time>2023-07-14T08:57:39Z</time>
      </trkpt>
      <trkpt lat="47.42902" lon="0.62236">
        <ele>100.6</ele>
        <time>2023-07-14T08:57:40Z</time>
      </trkpt>
      <trkpt lat="47.42898" lon="0.62233">
        <ele>100.8</ele>
        <time>2023-07-14T08:57:41Z</time>
      </trkpt>
      <trkpt lat="47.42894" lon="0.62231">
        <ele>100.6</ele>
        <time>2023-07-14T08:57:42Z</time>
      </trkpt>
      <trkpt lat="47.42891" lon="0.62229">
        <ele>100.6</ele>
        <time>2023-07-14T08:57:43Z</time>
      </trkpt>
      <trkpt lat="47.42886" lon="0.62227">
        <ele>100.4</ele>
        <time>2023-07-14T08:57:44Z</time>
      </trkpt>
      <trkpt lat="47.42882" lon="0.62225">
        <ele>100.2</ele>
        <time>2023-07-14T08:57:45Z</time>
      </trkpt>
      <trkpt lat="47.42878" lon="0.62223">
        <ele>100.2</ele>
        <time>2023-07-14T08:57:46Z</time>
      </trkpt>
      <trkpt lat="47.42874" lon="0.62221">
        <ele>100</ele>
        <time>2023-07-14T08:57:47Z</time>
      </trkpt>
      <trkpt lat="47.4287" lon="0.62219">
        <ele>100</ele>
        <time>2023-07-14T08:57:48Z</time>
      </trkpt>
      <trkpt lat="47.42865" lon="0.62217">
        <ele>100</ele>
        <time>2023-07-14T08:57:49Z</time>
      </trkpt>
      <trkpt lat="47.42861" lon="0.62215">
        <ele>100</ele>
        <time>2023-07-14T08:57:50Z</time>
      </trkpt>
      <trkpt lat="47.42856" lon="0.62213">
        <ele>100</ele>
        <time>2023-07-14T08:57:51Z</time>
      </trkpt>
      <trkpt lat="47.42852" lon="0.6221">
        <ele>100.2</ele>
        <time>2023-07-14T08:57:52Z</time>
      </trkpt>
      <trkpt lat="47.42847" lon="0.62208">
        <ele>100.6</ele>
        <time>2023-07-14T08:57:53Z</time>
      </trkpt>
      <trkpt lat="47.42843" lon="0.62206">
        <ele>100.6</ele>
        <time>2023-07-14T08:57:54Z</time>
      </trkpt>
      <trkpt lat="47.42839" lon="0.62203">
        <ele>100.8</ele>
        <time>2023-07-14T08:57:55Z</time>
      </trkpt>
      <trkpt lat="47.42834" lon="0.62201">
        <ele>100.8</ele>
        <time>2023-07-14T08:57:56Z</time>
      </trkpt>
      <trkpt lat="47.4283" lon="0.62198">
        <ele>101</ele>
        <time>2023-07-14T08:57:57Z</time>
      </trkpt>
      <trkpt lat="47.42825" lon="0.62196">
        <ele>101.2</ele>
        <time>2023-07-14T08:57:58Z</time>
      </trkpt>
      <trkpt lat="47.42821" lon="0.62194">
        <ele>101.4</ele>
        <time>2023-07-14T08:57:59Z</time>
      </trkpt>
      <trkpt lat="47.42817" lon="0.62191">
        <ele>101.6</ele>
        <time>2023-07-14T08:58:00Z</time>
      </trkpt>
      <trkpt lat="47.42812" lon="0.62189">
        <ele>101.8</ele>
        <time>2023-07-14T08:58:01Z</time>
      </trkpt>
      <trkpt lat="47.42808" lon="0.62186">
        <ele>102</ele>
        <time>2023-07-14T08:58:02Z</time>
      </trkpt>
      <trkpt lat="47.42804" lon="0.62184">
        <ele>101.8</ele>
        <time>2023-07-14T08:58:03Z</time>
      </trkpt>
      <trkpt lat="47.428" lon="0.62181">
        <ele>101.8</ele>
        <time>2023-07-14T08:58:04Z</time>
      </trkpt>
      <trkpt lat="47.42796" lon="0.62178">
        <ele>101.8</ele>
        <time>2023-07-14T08:58:05Z</time>
      </trkpt>
      <trkpt lat="47.42791" lon="0.62175">
        <ele>102</ele>
        <time>2023-07-14T08:58:06Z</time>
      </trkpt>
      <trkpt lat="47.42787" lon="0.62172">
        <ele>102.2</ele>
        <time>2023-07-14T08:58:07Z</time>
      </trkpt>
      <trkpt lat="47.42783" lon="0.62169">
        <ele>102.2</ele>
        <time>2023-07-14T08:58:08Z</time>
      </trkpt>
      <trkpt lat="47.42778" lon="0.62165">
        <ele>102.4</ele>
        <time>2023-07-14T08:58:09Z</time>
      </trkpt>
      <trkpt lat="47.42775" lon="0.62162">
        <ele>102.4</ele>
        <time>2023-07-14T08:58:10Z</time>
      </trkpt>
      <trkpt lat="47.4277" lon="0.62159">
        <ele>102.6</ele>
        <time>2023-07-14T08:58:11Z</time>
      </trkpt>
      <trkpt lat="47.42766" lon="0.62156">
        <ele>102.6</ele>
        <time>2023-07-14T08:58:12Z</time>
      </trkpt>
      <trkpt lat="47.42762" lon="0.62152">
        <ele>102.6</ele>
        <time>2023-07-14T08:58:13Z</time>
      </trkpt>
      <trkpt lat="47.42758" lon="0.62148">
        <ele>102.6</ele>
        <time>2023-07-14T08:58:14Z</time>
      </trkpt>
      <trkpt lat="47.42754" lon="0.62144">
        <ele>102.8</ele>
        <time>2023-07-14T08:58:15Z</time>
      </trkpt>
      <trkpt lat="47.4275" lon="0.62141">
        <ele>103</ele>
        <time>2023-07-14T08:58:16Z</time>
      </trkpt>
      <trkpt lat="47.42746" lon="0.62137">
        <ele>103</ele>
        <time>2023-07-14T08:58:17Z</time>
      </trkpt>
      <trkpt lat="47.42742" lon="0.62133">
        <ele>103</ele>
        <time>2023-07-14T08:58:18Z</time>
      </trkpt>
      <trkpt lat="47.42738" lon="0.62129">
        <ele>103</ele>
        <time>2023-07-14T08:58:19Z</time>
      </trkpt>
      <trkpt lat="47.42733" lon="0.62125">
        <ele>103</ele>
        <time>2023-07-14T08:58:20Z</time>
      </trkpt>
      <trkpt lat="47.42729" lon="0.62122">
        <ele>103</ele>
        <time>2023-07-14T08:58:21Z</time>
      </trkpt>
      <trkpt lat="47.42725" lon="0.62118">
        <ele>103</ele>
        <time>2023-07-14T08:58:22Z</time>
      </trkpt>
      <trkpt lat="47.4272" lon="0.62114">
        <ele>103.2</ele>
        <time>2023-07-14T08:58:23Z</time>
      </trkpt>
      <trkpt lat="47.42716" lon="0.6211">
        <ele>103.2</ele>
        <time>2023-07-14T08:58:24Z</time>
      </trkpt>
      <trkpt lat="47.42712" lon="0.62106">
        <ele>103.2</ele>
        <time>2023-07-14T08:58:25Z</time>
      </trkpt>
      <trkpt lat="47.42707" lon="0.62101">
        <ele>103.2</ele>
        <time>2023-07-14T08:58:26Z</time>
      </trkpt>
      <trkpt lat="47.42703" lon="0.62097">
        <ele>103.6</ele>
        <time>2023-07-14T08:58:27Z</time>
      </trkpt>
      <trkpt lat="47.42698" lon="0.62093">
        <ele>103.6</ele>
        <time>2023-07-14T08:58:28Z</time>
      </trkpt>
      <trkpt lat="47.42694" lon="0.62089">
        <ele>103.6</ele>
        <time>2023-07-14T08:58:29Z</time>
      </trkpt>
      <trkpt lat="47.4269" lon="0.62085">
        <ele>103.6</ele>
        <time>2023-07-14T08:58:30Z</time>
      </trkpt>
      <trkpt lat="47.42686" lon="0.62081">
        <ele>103.6</ele>
        <time>2023-07-14T08:58:31Z</time>
      </trkpt>
      <trkpt lat="47.42681" lon="0.62077">
        <ele>103.6</ele>
        <time>2023-07-14T08:58:32Z</time>
      </trkpt>
      <trkpt lat="47.42677" lon="0.62073">
        <ele>103.8</ele>
        <time>2023-07-14T08:58:33Z</time>
      </trkpt>
      <trkpt lat="47.42672" lon="0.62069">
        <ele>103.8</ele>
        <time>2023-07-14T08:58:34Z</time>
      </trkpt>
      <trkpt lat="47.42668" lon="0.62064">
        <ele>104</ele>
        <time>2023-07-14T08:58:35Z</time>
      </trkpt>
      <trkpt lat="47.42664" lon="0.62059">
        <ele>104.2</ele>
        <time>2023-07-14T08:58:36Z</time>
      </trkpt>
      <trkpt lat="47.4266" lon="0.62054">
        <ele>104.2</ele>
        <time>2023-07-14T08:58:37Z</time>
      </trkpt>
      <trkpt lat="47.42656" lon="0.62049">
        <ele>104.2</ele>
        <time>2023-07-14T08:58:38Z</time>
      </trkpt>
      <trkpt lat="47.42652" lon="0.62043">
        <ele>104.4</ele>
        <time>2023-07-14T08:58:39Z</time>
      </trkpt>
      <trkpt lat="47.42648" lon="0.62038">
        <ele>104.4</ele>
        <time>2023-07-14T08:58:40Z</time>
      </trkpt>
      <trkpt lat="47.42644" lon="0.62032">
        <ele>104.6</ele>
        <time>2023-07-14T08:58:41Z</time>
      </trkpt>
      <trkpt lat="47.4264" lon="0.62026">
        <ele>104.6</ele>
        <time>2023-07-14T08:58:42Z</time>
      </trkpt>
      <trkpt lat="47.42636" lon="0.62021">
        <ele>104.6</ele>
        <time>2023-07-14T08:58:43Z</time>
      </trkpt>
      <trkpt lat="47.42633" lon="0.62015">
        <ele>104.8</ele>
        <time>2023-07-14T08:58:44Z</time>
      </trkpt>
      <trkpt lat="47.42629" lon="0.62009">
        <ele>104.8</ele>
        <time>2023-07-14T08:58:45Z</time>
      </trkpt>
      <trkpt lat="47.42625" lon="0.62002">
        <ele>104.8</ele>
        <time>2023-07-14T08:58:46Z</time>
      </trkpt>
      <trkpt lat="47.42622" lon="0.61996">
        <ele>105</ele>
        <time>2023-07-14T08:58:47Z</time>
      </trkpt>
      <trkpt lat="47.42618" lon="0.6199">
        <ele>105</ele>
        <time>2023-07-14T08:58:48Z</time>
      </trkpt>
      <trkpt lat="47.42614" lon="0.61985">
        <ele>105</ele>
        <time>2023-07-14T08:58:49Z</time>
      </trkpt>
      <trkpt lat="47.42611" lon="0.61979">
        <ele>105</ele>
        <time>2023-07-14T08:58:50Z</time>
      </trkpt>
      <trkpt lat="47.42607" lon="0.61972">
        <ele>105</ele>
        <time>2023-07-14T08:58:51Z</time>
      </trkpt>
      <trkpt lat="47.42603" lon="0.61966">
        <ele>105.2</ele>
        <time>2023-07-14T08:58:52Z</time>
      </trkpt>
      <trkpt lat="47.426" lon="0.61961">
        <ele>105.2</ele>
        <time>2023-07-14T08:58:53Z</time>
      </trkpt>
      <trkpt lat="47.42596" lon="0.61955">
        <ele>105</ele>
        <time>2023-07-14T08:58:54Z</time>
      </trkpt>
      <trkpt lat="47.42591" lon="0.61949">
        <ele>105.2</ele>
        <time>2023-07-14T08:58:55Z</time>
      </trkpt>
      <trkpt lat="47.42588" lon="0.61943">
        <ele>105.4</ele>
        <time>2023-07-14T08:58:56Z</time>
      </trkpt>
      <trkpt lat="47.42584" lon="0.61937">
        <ele>105.4</ele>
        <time>2023-07-14T08:58:57Z</time>
      </trkpt>
      <trkpt lat="47.4258" lon="0.61931">
        <ele>105.6</ele>
        <time>2023-07-14T08:58:58Z</time>
      </trkpt>
      <trkpt lat="47.42577" lon="0.61926">
        <ele>105.8</ele>
        <time>2023-07-14T08:58:59Z</time>
      </trkpt>
      <trkpt lat="47.42573" lon="0.6192">
        <ele>106</ele>
        <time>2023-07-14T08:59:00Z</time>
      </trkpt>
      <trkpt lat="47.42569" lon="0.61914">
        <ele>106</ele>
        <time>2023-07-14T08:59:01Z</time>
      </trkpt>
      <trkpt lat="47.42564" lon="0.61909">
        <ele>106</ele>
        <time>2023-07-14T08:59:02Z</time>
      </trkpt>
      <trkpt lat="47.4256" lon="0.61903">
        <ele>105.8</ele>
        <time>2023-07-14T08:59:03Z</time>
      </trkpt>
      <trkpt lat="47.42555" lon="0.61898">
        <ele>106</ele>
        <time>2023-07-14T08:59:04Z</time>
      </trkpt>
      <trkpt lat="47.42551" lon="0.61893">
        <ele>105.8</ele>
        <time>2023-07-14T08:59:05Z</time>
      </trkpt>
      <trkpt lat="47.42546" lon="0.61888">
        <ele>105.8</ele>
        <time>2023-07-14T08:59:06Z</time>
      </trkpt>
      <trkpt lat="47.42541" lon="0.61883">
        <ele>105.8</ele>
        <time>2023-07-14T08:59:07Z</time>
      </trkpt>
      <trkpt lat="47.42536" lon="0.61878">
        <ele>106</ele>
        <time>2023-07-14T08:59:08Z</time>
      </trkpt>
      <trkpt lat="47.42532" lon="0.61873">
        <ele>106</ele>
        <time>2023-07-14T08:59:09Z</time>
      </trkpt>
      <trkpt lat="47.42526" lon="0.61869">
        <ele>106</ele>
        <time>2023-07-14T08:59:10Z</time>
      </trkpt>
      <trkpt lat="47.42521" lon="0.61864">
        <ele>106</ele>
        <time>2023-07-14T08:59:11Z</time>
      </trkpt>
      <trkpt lat="47.42516" lon="0.61859">
        <ele>106</ele>
        <time>2023-07-14T08:59:12Z</time>
      </trkpt>
      <trkpt lat="47.42511" lon="0.61855">
        <ele>106</ele>
        <time>2023-07-14T08:59:13Z</time>
      </trkpt>
      <trkpt lat="47.42506" lon="0.6185">
        <ele>105.8</ele>
        <time>2023-07-14T08:59:14Z</time>
      </trkpt>
      <trkpt lat="47.42501" lon="0.61846">
        <ele>106.2</ele>
        <time>2023-07-14T08:59:15Z</time>
      </trkpt>
      <trkpt lat="47.42496" lon="0.61841">
        <ele>106.4</ele>
        <time>2023-07-14T08:59:16Z</time>
      </trkpt>
      <trkpt lat="47.4249" lon="0.61837">
        <ele>106.2</ele>
        <time>2023-07-14T08:59:17Z</time>
      </trkpt>
      <trkpt lat="47.42485" lon="0.61832">
        <ele>106.2</ele>
        <time>2023-07-14T08:59:18Z</time>
      </trkpt>
      <trkpt lat="47.4248" lon="0.61828">
        <ele>106</ele>
        <time>2023-07-14T08:59:19Z</time>
      </trkpt>
      <trkpt lat="47.42474" lon="0.61824">
        <ele>105.8</ele>
        <time>2023-07-14T08:59:20Z</time>
      </trkpt>
      <trkpt lat="47.42469" lon="0.61819">
        <ele>105.4</ele>
        <time>2023-07-14T08:59:21Z</time>
      </trkpt>
      <trkpt lat="47.42463" lon="0.61815">
        <ele>105.4</ele>
        <time>2023-07-14T08:59:22Z</time>
      </trkpt>
      <trkpt lat="47.42457" lon="0.61812">
        <ele>105.2</ele>
        <time>2023-07-14T08:59:23Z</time>
      </trkpt>
      <trkpt lat="47.42451" lon="0.61808">
        <ele>105.2</ele>
        <time>2023-07-14T08:59:24Z</time>
      </trkpt>
      <trkpt lat="47.42445" lon="0.61805">
        <ele>105.2</ele>
        <time>2023-07-14T08:59:25Z</time>
      </trkpt>
      <trkpt lat="47.42438" lon="0.61803">
        <ele>105.2</ele>
        <time>2023-07-14T08:59:26Z</time>
      </trkpt>
      <trkpt lat="47.42432" lon="0.61801">
        <ele>105</ele>
        <time>2023-07-14T08:59:27Z</time>
      </trkpt>
      <trkpt lat="47.42425" lon="0.618">
        <ele>104.8</ele>
        <time>2023-07-14T08:59:28Z</time>
      </trkpt>
      <trkpt lat="47.42419" lon="0.61799">
        <ele>105</ele>
        <time>2023-07-14T08:59:29Z</time>
      </trkpt>
      <trkpt lat="47.42413" lon="0.61799">
        <ele>105</ele>
        <time>2023-07-14T08:59:30Z</time>
      </trkpt>
      <trkpt lat="47.42407" lon="0.61798">
        <ele>105</ele>
        <time>2023-07-14T08:59:31Z</time>
      </trkpt>
      <trkpt lat="47.42401" lon="0.61798">
        <ele>105.2</ele>
        <time>2023-07-14T08:59:32Z</time>
      </trkpt>
      <trkpt lat="47.42395" lon="0.61798">
        <ele>105</ele>
        <time>2023-07-14T08:59:33Z</time>
      </trkpt>
      <trkpt lat="47.42389" lon="0.61798">
        <ele>105</ele>
        <time>2023-07-14T08:59:34Z</time>
      </trkpt>
      <trkpt lat="47.42382" lon="0.61798">
        <ele>105.2</ele>
        <time>2023-07-14T08:59:35Z</time>
      </trkpt>
      <trkpt lat="47.42375" lon="0.61799">
        <ele>105</ele>
        <time>2023-07-14T08:59:36Z</time>
      </trkpt>
      <trkpt lat="47.42369" lon="0.61799">
        <ele>104.8</ele>
        <time>2023-07-14T08:59:37Z</time>
      </trkpt>
      <trkpt lat="47.42363" lon="0.618">
        <ele>104.6</ele>
        <time>2023-07-14T08:59:38Z</time>
      </trkpt>
      <trkpt lat="47.42356" lon="0.618">
        <ele>104.4</ele>
        <time>2023-07-14T08:59:39Z</time>
      </trkpt>
      <trkpt lat="47.4235" lon="0.61801">
        <ele>104.2</ele>
        <time>2023-07-14T08:59:40Z</time>
      </trkpt>
      <trkpt lat="47.42343" lon="0.61801">
        <ele>103.6</ele>
        <time>2023-07-14T08:59:41Z</time>
      </trkpt>
      <trkpt lat="47.42336" lon="0.618">
        <ele>103.2</ele>
        <time>2023-07-14T08:59:42Z</time>
      </trkpt>
      <trkpt lat="47.42329" lon="0.61798">
        <ele>102.8</ele>
        <time>2023-07-14T08:59:43Z</time>
      </trkpt>
      <trkpt lat="47.42323" lon="0.61795">
        <ele>102.4</ele>
        <time>2023-07-14T08:59:44Z</time>
      </trkpt>
      <trkpt lat="47.42316" lon="0.61791">
        <ele>101.6</ele>
        <time>2023-07-14T08:59:45Z</time>
      </trkpt>
      <trkpt lat="47.4231" lon="0.61787">
        <ele>101</ele>
        <time>2023-07-14T08:59:46Z</time>
      </trkpt>
      <trkpt lat="47.42303" lon="0.61781">
        <ele>100.8</ele>
        <time>2023-07-14T08:59:47Z</time>
      </trkpt>
      <trkpt lat="47.42297" lon="0.61774">
        <ele>100.6</ele>
        <time>2023-07-14T08:59:48Z</time>
      </trkpt>
      <trkpt lat="47.42291" lon="0.61767">
        <ele>100.2</ele>
        <time>2023-07-14T08:59:49Z</time>
      </trkpt>
      <trkpt lat="47.42286" lon="0.61759">
        <ele>100.2</ele>
        <time>2023-07-14T08:59:50Z</time>
      </trkpt>
      <trkpt lat="47.4228" lon="0.6175">
        <ele>99.8</ele>
        <time>2023-07-14T08:59:51Z</time>
      </trkpt>
      <trkpt lat="47.42274" lon="0.6174">
        <ele>99</ele>
        <time>2023-07-14T08:59:52Z</time>
      </trkpt>
      <trkpt lat="47.42268" lon="0.6173">
        <ele>98.6</ele>
        <time>2023-07-14T08:59:53Z</time>
      </trkpt>
      <trkpt lat="47.42262" lon="0.6172">
        <ele>98.4</ele>
        <time>2023-07-14T08:59:54Z</time>
      </trkpt>
      <trkpt lat="47.42255" lon="0.6171">
        <ele>98.2</ele>
        <time>2023-07-14T08:59:55Z</time>
      </trkpt>
      <trkpt lat="47.42249" lon="0.61701">
        <ele>98</ele>
        <time>2023-07-14T08:59:56Z</time>
      </trkpt>
      <trkpt lat="47.42243" lon="0.61693">
        <ele>97.8</ele>
        <time>2023-07-14T08:59:57Z</time>
      </trkpt>
      <trkpt lat="47.42237" lon="0.61685">
        <ele>97.8</ele>
        <time>2023-07-14T08:59:58Z</time>
      </trkpt>
      <trkpt lat="47.42231" lon="0.61677">
        <ele>98</ele>
        <time>2023-07-14T08:59:59Z</time>
      </trkpt>
      <trkpt lat="47.42225" lon="0.6167">
        <ele>98</ele>
        <time>2023-07-14T09:00:00Z</time>
      </trkpt>
      <trkpt lat="47.42219" lon="0.61662">
        <ele>98.4</ele>
        <time>2023-07-14T09:00:01Z</time>
      </trkpt>
      <trkpt lat="47.42213" lon="0.61655">
        <ele>98.6</ele>
        <time>2023-07-14T09:00:02Z</time>
      </trkpt>
      <trkpt lat="47.42208" lon="0.61648">
        <ele>99</ele>
        <time>2023-07-14T09:00:03Z</time>
      </trkpt>
      <trkpt lat="47.42203" lon="0.61642">
        <ele>99.2</ele>
        <time>2023-07-14T09:00:04Z</time>
      </trkpt>
      <trkpt lat="47.42198" lon="0.61636">
        <ele>99.2</ele>
        <time>2023-07-14T09:00:05Z</time>
      </trkpt>
      <trkpt lat="47.42194" lon="0.6163">
        <ele>99.6</ele>
        <time>2023-07-14T09:00:06Z</time>
      </trkpt>
      <trkpt lat="47.42189" lon="0.61625">
        <ele>99.8</ele>
        <time>2023-07-14T09:00:07Z</time>
      </trkpt>
      <trkpt lat="47.42184" lon="0.6162">
        <ele>100</ele>
        <time>2023-07-14T09:00:08Z</time>
      </trkpt>
      <trkpt lat="47.42179" lon="0.61616">
        <ele>100.4</ele>
        <time>2023-07-14T09:00:09Z</time>
      </trkpt>
      <trkpt lat="47.42175" lon="0.61612">
        <ele>100.6</ele>
        <time>2023-07-14T09:00:10Z</time>
      </trkpt>
      <trkpt lat="47.4217" lon="0.61607">
        <ele>101</ele>
        <time>2023-07-14T09:00:11Z</time>
      </trkpt>
      <trkpt lat="47.42165" lon="0.61603">
        <ele>101.2</ele>
        <time>2023-07-14T09:00:12Z</time>
      </trkpt>
      <trkpt lat="47.4216" lon="0.61599">
        <ele>101.4</ele>
        <time>2023-07-14T09:00:13Z</time>
      </trkpt>
      <trkpt lat="47.42155" lon="0.61596">
        <ele>101.6</ele>
        <time>2023-07-14T09:00:14Z</time>
      </trkpt>
      <trkpt lat="47.4215" lon="0.61592">
        <ele>102</ele>
        <time>2023-07-14T09:00:15Z</time>
      </trkpt>
      <trkpt lat="47.42146" lon="0.61588">
        <ele>102.4</ele>
        <time>2023-07-14T09:00:16Z</time>
      </trkpt>
      <trkpt lat="47.4214" lon="0.61584">
        <ele>102.8</ele>
        <time>2023-07-14T09:00:17Z</time>
      </trkpt>
      <trkpt lat="47.42136" lon="0.61581">
        <ele>103</ele>
        <time>2023-07-14T09:00:18Z</time>
      </trkpt>
      <trkpt lat="47.42131" lon="0.61578">
        <ele>103.2</ele>
        <time>2023-07-14T09:00:19Z</time>
      </trkpt>
      <trkpt lat="47.42126" lon="0.61575">
        <ele>103.4</ele>
        <time>2023-07-14T09:00:20Z</time>
      </trkpt>
      <trkpt lat="47.42121" lon="0.61572">
        <ele>103.6</ele>
        <time>2023-07-14T09:00:21Z</time>
      </trkpt>
      <trkpt lat="47.42117" lon="0.6157">
        <ele>103.8</ele>
        <time>2023-07-14T09:00:22Z</time>
      </trkpt>
      <trkpt lat="47.42112" lon="0.61568">
        <ele>104.2</ele>
        <time>2023-07-14T09:00:23Z</time>
      </trkpt>
      <trkpt lat="47.42107" lon="0.61566">
        <ele>104.2</ele>
        <time>2023-07-14T09:00:24Z</time>
      </trkpt>
      <trkpt lat="47.42102" lon="0.61565">
        <ele>104.4</ele>
        <time>2023-07-14T09:00:25Z</time>
      </trkpt>
      <trkpt lat="47.42097" lon="0.61563">
        <ele>104.4</ele>
        <time>2023-07-14T09:00:26Z</time>
      </trkpt>
      <trkpt lat="47.42092" lon="0.61562">
        <ele>104.8</ele>
        <time>2023-07-14T09:00:27Z</time>
      </trkpt>
      <trkpt lat="47.42087" lon="0.61561">
        <ele>105</ele>
        <time>2023-07-14T09:00:28Z</time>
      </trkpt>
      <trkpt lat="47.42082" lon="0.6156">
        <ele>105</ele>
        <time>2023-07-14T09:00:29Z</time>
      </trkpt>
      <trkpt lat="47.42077" lon="0.61559">
        <ele>105.4</ele>
        <time>2023-07-14T09:00:30Z</time>
      </trkpt>
      <trkpt lat="47.42072" lon="0.61558">
        <ele>105.6</ele>
        <time>2023-07-14T09:00:31Z</time>
      </trkpt>
      <trkpt lat="47.42066" lon="0.61557">
        <ele>105.8</ele>
        <time>2023-07-14T09:00:32Z</time>
      </trkpt>
      <trkpt lat="47.42061" lon="0.61556">
        <ele>106</ele>
        <time>2023-07-14T09:00:33Z</time>
      </trkpt>
      <trkpt lat="47.42056" lon="0.61555">
        <ele>105.8</ele>
        <time>2023-07-14T09:00:34Z</time>
      </trkpt>
      <trkpt lat="47.4205" lon="0.61553">
        <ele>105.8</ele>
        <time>2023-07-14T09:00:35Z</time>
      </trkpt>
      <trkpt lat="47.42044" lon="0.61551">
        <ele>105.8</ele>
        <time>2023-07-14T09:00:36Z</time>
      </trkpt>
      <trkpt lat="47.42039" lon="0.6155">
        <ele>105.8</ele>
        <time>2023-07-14T09:00:37Z</time>
      </trkpt>
      <trkpt lat="47.42033" lon="0.61548">
        <ele>105.8</ele>
        <time>2023-07-14T09:00:38Z</time>
      </trkpt>
      <trkpt lat="47.42027" lon="0.61546">
        <ele>105.8</ele>
        <time>2023-07-14T09:00:39Z</time>
      </trkpt>
      <trkpt lat="47.42021" lon="0.61545">
        <ele>105.6</ele>
        <time>2023-07-14T09:00:40Z</time>
      </trkpt>
      <trkpt lat="47.42015" lon="0.61543">
        <ele>105.4</ele>
        <time>2023-07-14T09:00:41Z</time>
      </trkpt>
      <trkpt lat="47.4201" lon="0.61541">
        <ele>105.4</ele>
        <time>2023-07-14T09:00:42Z</time>
      </trkpt>
      <trkpt lat="47.42004" lon="0.61539">
        <ele>105</ele>
        <time>2023-07-14T09:00:43Z</time>
      </trkpt>
      <trkpt lat="47.41998" lon="0.61538">
        <ele>104.8</ele>
        <time>2023-07-14T09:00:44Z</time>
      </trkpt>
      <trkpt lat="47.41993" lon="0.61536">
        <ele>104.4</ele>
        <time>2023-07-14T09:00:45Z</time>
      </trkpt>
      <trkpt lat="47.41987" lon="0.61535">
        <ele>103.8</ele>
        <time>2023-07-14T09:00:46Z</time>
      </trkpt>
      <trkpt lat="47.41981" lon="0.61533">
        <ele>103.6</ele>
        <time>2023-07-14T09:00:47Z</time>
      </trkpt>
      <trkpt lat="47.41975" lon="0.61531">
        <ele>103.6</ele>
        <time>2023-07-14T09:00:48Z</time>
      </trkpt>
      <trkpt lat="47.4197" lon="0.61529">
        <ele>103.4</ele>
        <time>2023-07-14T09:00:49Z</time>
      </trkpt>
      <trkpt lat="47.41964" lon="0.61527">
        <ele>103.2</ele>
        <time>2023-07-14T09:00:50Z</time>
      </trkpt>
      <trkpt lat="47.41959" lon="0.61524">
        <ele>103</ele>
        <time>2023-07-14T09:00:51Z</time>
      </trkpt>
      <trkpt lat="47.41954" lon="0.61521">
        <ele>102.8</ele>
        <time>2023-07-14T09:00:52Z</time>
      </trkpt>
      <trkpt lat="47.41948" lon="0.61518">
        <ele>102.6</ele>
        <time>2023-07-14T09:00:53Z</time>
      </trkpt>
      <trkpt lat="47.41944" lon="0.61514">
        <ele>102.6</ele>
        <time>2023-07-14T09:00:54Z</time>
      </trkpt>
      <trkpt lat="47.41939" lon="0.6151">
        <ele>102.4</ele>
        <time>2023-07-14T09:00:55Z</time>
      </trkpt>
      <trkpt lat="47.41933" lon="0.61509">
        <ele>102.4</ele>
        <time>2023-07-14T09:00:56Z</time>
      </trkpt>
      <trkpt lat="47.41928" lon="0.61511">
        <ele>102.2</ele>
        <time>2023-07-14T09:00:57Z</time>
      </trkpt>
      <trkpt lat="47.41922" lon="0.61515">
        <ele>102.2</ele>
        <time>2023-07-14T09:00:58Z</time>
      </trkpt>
      <trkpt lat="47.41917" lon="0.61518">
        <ele>102.2</ele>
        <time>2023-07-14T09:00:59Z</time>
      </trkpt>
      <trkpt lat="47.41911" lon="0.61522">
        <ele>102.2</ele>
        <time>2023-07-14T09:01:00Z</time>
      </trkpt>
      <trkpt lat="47.41905" lon="0.61525">
        <ele>102</ele>
        <time>2023-07-14T09:01:01Z</time>
      </trkpt>
      <trkpt lat="47.419" lon="0.61528">
        <ele>102</ele>
        <time>2023-07-14T09:01:02Z</time>
      </trkpt>
      <trkpt lat="47.41894" lon="0.61531">
        <ele>101.8</ele>
        <time>2023-07-14T09:01:03Z</time>
      </trkpt>
      <trkpt lat="47.41888" lon="0.61535">
        <ele>101.6</ele>
        <time>2023-07-14T09:01:04Z</time>
      </trkpt>
      <trkpt lat="47.41883" lon="0.61538">
        <ele>101.2</ele>
        <time>2023-07-14T09:01:05Z</time>
      </trkpt>
      <trkpt lat="47.41877" lon="0.61541">
        <ele>101.2</ele>
        <time>2023-07-14T09:01:06Z</time>
      </trkpt>
      <trkpt lat="47.41871" lon="0.61544">
        <ele>101.2</ele>
        <time>2023-07-14T09:01:07Z</time>
      </trkpt>
      <trkpt lat="47.41865" lon="0.61547">
        <ele>101.2</ele>
        <time>2023-07-14T09:01:08Z</time>
      </trkpt>
      <trkpt lat="47.41859" lon="0.61551">
        <ele>101.2</ele>
        <time>2023-07-14T09:01:09Z</time>
      </trkpt>
      <trkpt lat="47.41854" lon="0.61554">
        <ele>101</ele>
        <time>2023-07-14T09:01:10Z</time>
      </trkpt>
      <trkpt lat="47.41848" lon="0.61557">
        <ele>101</ele>
        <time>2023-07-14T09:01:11Z</time>
      </trkpt>
      <trkpt lat="47.41842" lon="0.6156">
        <ele>101.2</ele>
        <time>2023-07-14T09:01:12Z</time>
      </trkpt>
      <trkpt lat="47.41837" lon="0.61563">
        <ele>101.4</ele>
        <time>2023-07-14T09:01:13Z</time>
      </trkpt>
      <trkpt lat="47.41832" lon="0.61566">
        <ele>101</ele>
        <time>2023-07-14T09:01:14Z</time>
      </trkpt>
      <trkpt lat="47.41826" lon="0.61568">
        <ele>100.8</ele>
        <time>2023-07-14T09:01:15Z</time>
      </trkpt>
      <trkpt lat="47.41821" lon="0.6157">
        <ele>100.6</ele>
        <time>2023-07-14T09:01:16Z</time>
      </trkpt>
      <trkpt lat="47.41816" lon="0.61572">
        <ele>100.8</ele>
        <time>2023-07-14T09:01:17Z</time>
      </trkpt>
      <trkpt lat="47.41811" lon="0.61575">
        <ele>101</ele>
        <time>2023-07-14T09:01:18Z</time>
      </trkpt>
      <trkpt lat="47.41806" lon="0.61578">
        <ele>101.2</ele>
        <time>2023-07-14T09:01:19Z</time>
      </trkpt>
      <trkpt lat="47.41801" lon="0.6158">
        <ele>101.4</ele>
        <time>2023-07-14T09:01:20Z</time>
      </trkpt>
      <trkpt lat="47.41796" lon="0.61583">
        <ele>101.4</ele>
        <time>2023-07-14T09:01:21Z</time>
      </trkpt>
      <trkpt lat="47.41791" lon="0.61586">
        <ele>101.4</ele>
        <time>2023-07-14T09:01:22Z</time>
      </trkpt>
      <trkpt lat="47.41786" lon="0.61589">
        <ele>101.4</ele>
        <time>2023-07-14T09:01:23Z</time>
      </trkpt>
      <trkpt lat="47.41781" lon="0.61592">
        <ele>101.4</ele>
        <time>2023-07-14T09:01:24Z</time>
      </trkpt>
      <trkpt lat="47.41777" lon="0.61594">
        <ele>101.6</ele>
        <time>2023-07-14T09:01:25Z</time>
      </trkpt>
      <trkpt lat="47.41772" lon="0.61597">
        <ele>101.8</ele>
        <time>2023-07-14T09:01:26Z</time>
      </trkpt>
      <trkpt lat="47.41767" lon="0.61599">
        <ele>102</ele>
        <time>2023-07-14T09:01:27Z</time>
      </trkpt>
      <trkpt lat="47.41763" lon="0.61602">
        <ele>102.4</ele>
        <time>2023-07-14T09:01:28Z</time>
      </trkpt>
      <trkpt lat="47.41758" lon="0.61604">
        <ele>102.6</ele>
        <time>2023-07-14T09:01:29Z</time>
      </trkpt>
      <trkpt lat="47.41753" lon="0.61607">
        <ele>102.6</ele>
        <time>2023-07-14T09:01:30Z</time>
      </trkpt>
      <trkpt lat="47.41749" lon="0.61609">
        <ele>102.8</ele>
        <time>2023-07-14T09:01:31Z</time>
      </trkpt>
      <trkpt lat="47.41744" lon="0.61612">
        <ele>103</ele>
        <time>2023-07-14T09:01:32Z</time>
      </trkpt>
      <trkpt lat="47.41739" lon="0.61614">
        <ele>103</ele>
        <time>2023-07-14T09:01:33Z</time>
      </trkpt>
      <trkpt lat="47.41735" lon="0.61617">
        <ele>102.8</ele>
        <time>2023-07-14T09:01:34Z</time>
      </trkpt>
      <trkpt lat="47.41731" lon="0.61619">
        <ele>103.2</ele>
        <time>2023-07-14T09:01:35Z</time>
      </trkpt>
      <trkpt lat="47.41726" lon="0.61622">
        <ele>103.2</ele>
        <time>2023-07-14T09:01:36Z</time>
      </trkpt>
      <trkpt lat="47.41722" lon="0.61625">
        <ele>103.4</ele>
        <time>2023-07-14T09:01:37Z</time>
      </trkpt>
      <trkpt lat="47.41717" lon="0.61627">
        <ele>103.4</ele>
        <time>2023-07-14T09:01:38Z</time>
      </trkpt>
      <trkpt lat="47.41713" lon="0.61629">
        <ele>103.6</ele>
        <time>2023-07-14T09:01:39Z</time>
      </trkpt>
      <trkpt lat="47.41708" lon="0.61631">
        <ele>103.8</ele>
        <time>2023-07-14T09:01:40Z</time>
      </trkpt>
      <trkpt lat="47.41703" lon="0.61633">
        <ele>103.8</ele>
        <time>2023-07-14T09:01:41Z</time>
      </trkpt>
      <trkpt lat="47.41699" lon="0.61636">
        <ele>104</ele>
        <time>2023-07-14T09:01:42Z</time>
      </trkpt>
      <trkpt lat="47.41695" lon="0.61639">
        <ele>104.2</ele>
        <time>2023-07-14T09:01:43Z</time>
      </trkpt>
      <trkpt lat="47.4169" lon="0.61641">
        <ele>104.4</ele>
        <time>2023-07-14T09:01:44Z</time>
      </trkpt>
      <trkpt lat="47.41685" lon="0.61644">
        <ele>104.4</ele>
        <time>2023-07-14T09:01:45Z</time>
      </trkpt>
      <trkpt lat="47.41681" lon="0.61646">
        <ele>104.8</ele>
        <time>2023-07-14T09:01:46Z</time>
      </trkpt>
      <trkpt lat="47.41676" lon="0.61648">
        <ele>104.8</ele>
        <time>2023-07-14T09:01:47Z</time>
      </trkpt>
      <trkpt lat="47.41672" lon="0.61651">
        <ele>105</ele>
        <time>2023-07-14T09:01:48Z</time>
      </trkpt>
      <trkpt lat="47.41668" lon="0.61653">
        <ele>105.2</ele>
        <time>2023-07-14T09:01:49Z</time>
      </trkpt>
      <trkpt lat="47.41663" lon="0.61655">
        <ele>105.2</ele>
        <time>2023-07-14T09:01:50Z</time>
      </trkpt>
      <trkpt lat="47.41659" lon="0.61658">
        <ele>105.4</ele>
        <time>2023-07-14T09:01:51Z</time>
      </trkpt>
      <trkpt lat="47.41655" lon="0.6166">
        <ele>105.4</ele>
        <time>2023-07-14T09:01:52Z</time>
      </trkpt>
      <trkpt lat="47.4165" lon="0.61662">
        <ele>105.6</ele>
        <time>2023-07-14T09:01:53Z</time>
      </trkpt>
      <trkpt lat="47.41645" lon="0.61665">
        <ele>105.6</ele>
        <time>2023-07-14T09:01:54Z</time>
      </trkpt>
      <trkpt lat="47.41641" lon="0.61667">
        <ele>105.8</ele>
        <time>2023-07-14T09:01:55Z</time>
      </trkpt>
      <trkpt lat="47.41636" lon="0.6167">
        <ele>106</ele>
        <time>2023-07-14T09:01:56Z</time>
      </trkpt>
      <trkpt lat="47.41631" lon="0.61672">
        <ele>106.2</ele>
        <time>2023-07-14T09:01:57Z</time>
      </trkpt>
      <trkpt lat="47.41627" lon="0.61675">
        <ele>106.4</ele>
        <time>2023-07-14T09:01:58Z</time>
      </trkpt>
      <trkpt lat="47.41622" lon="0.61677">
        <ele>106.6</ele>
        <time>2023-07-14T09:01:59Z</time>
      </trkpt>
      <trkpt lat="47.41618" lon="0.61679">
        <ele>106.8</ele>
        <time>2023-07-14T09:02:00Z</time>
      </trkpt>
      <trkpt lat="47.41614" lon="0.61682">
        <ele>107</ele>
        <time>2023-07-14T09:02:01Z</time>
      </trkpt>
      <trkpt lat="47.4161" lon="0.61684">
        <ele>107.2</ele>
        <time>2023-07-14T09:02:02Z</time>
      </trkpt>
      <trkpt lat="47.41605" lon="0.61687">
        <ele>107.4</ele>
        <time>2023-07-14T09:02:03Z</time>
      </trkpt>
      <trkpt lat="47.41601" lon="0.61689">
        <ele>107.2</ele>
        <time>2023-07-14T09:02:04Z</time>
      </trkpt>
      <trkpt lat="47.41596" lon="0.61692">
        <ele>107.4</ele>
        <time>2023-07-14T09:02:05Z</time>
      </trkpt>
      <trkpt lat="47.41592" lon="0.61695">
        <ele>107.4</ele>
        <time>2023-07-14T09:02:06Z</time>
      </trkpt>
      <trkpt lat="47.41587" lon="0.61697">
        <ele>107.6</ele>
        <time>2023-07-14T09:02:07Z</time>
      </trkpt>
      <trkpt lat="47.41582" lon="0.61699">
        <ele>107.8</ele>
        <time>2023-07-14T09:02:08Z</time>
      </trkpt>
      <trkpt lat="47.41578" lon="0.61701">
        <ele>107.8</ele>
        <time>2023-07-14T09:02:09Z</time>
      </trkpt>
      <trkpt lat="47.41573" lon="0.61704">
        <ele>108</ele>
        <time>2023-07-14T09:02:10Z</time>
      </trkpt>
      <trkpt lat="47.41568" lon="0.61707">
        <ele>108</ele>
        <time>2023-07-14T09:02:11Z</time>
      </trkpt>
      <trkpt lat="47.41564" lon="0.61709">
        <ele>108.2</ele>
        <time>2023-07-14T09:02:12Z</time>
      </trkpt>
      <trkpt lat="47.41559" lon="0.61712">
        <ele>108.2</ele>
        <time>2023-07-14T09:02:13Z</time>
      </trkpt>
      <trkpt lat="47.41555" lon="0.61714">
        <ele>108.4</ele>
        <time>2023-07-14T09:02:14Z</time>
      </trkpt>
      <trkpt lat="47.4155" lon="0.61716">
        <ele>108.4</ele>
        <time>2023-07-14T09:02:15Z</time>
      </trkpt>
      <trkpt lat="47.41545" lon="0.61717">
        <ele>108.4</ele>
        <time>2023-07-14T09:02:16Z</time>
      </trkpt>
      <trkpt lat="47.41541" lon="0.61715">
        <ele>108.4</ele>
        <time>2023-07-14T09:02:17Z</time>
      </trkpt>
      <trkpt lat="47.41537" lon="0.61711">
        <ele>108.4</ele>
        <time>2023-07-14T09:02:18Z</time>
      </trkpt>
      <trkpt lat="47.41535" lon="0.61705">
        <ele>108.4</ele>
        <time>2023-07-14T09:02:19Z</time>
      </trkpt>
      <trkpt lat="47.41533" lon="0.61699">
        <ele>108.4</ele>
        <time>2023-07-14T09:02:20Z</time>
      </trkpt>
      <trkpt lat="47.4153" lon="0.61692">
        <ele>108.6</ele>
        <time>2023-07-14T09:02:21Z</time>
      </trkpt>
      <trkpt lat="47.41528" lon="0.61685">
        <ele>108.6</ele>
        <time>2023-07-14T09:02:22Z</time>
      </trkpt>
      <trkpt lat="47.41526" lon="0.61678">
        <ele>108.6</ele>
        <time>2023-07-14T09:02:23Z</time>
      </trkpt>
      <trkpt lat="47.41524" lon="0.61671">
        <ele>108.6</ele>
        <time>2023-07-14T09:02:24Z</time>
      </trkpt>
      <trkpt lat="47.41522" lon="0.61664">
        <ele>108.8</ele>
        <time>2023-07-14T09:02:25Z</time>
      </trkpt>
      <trkpt lat="47.4152" lon="0.61657">
        <ele>109</ele>
        <time>2023-07-14T09:02:26Z</time>
      </trkpt>
      <trkpt lat="47.41518" lon="0.6165">
        <ele>109.2</ele>
        <time>2023-07-14T09:02:27Z</time>
      </trkpt>
      <trkpt lat="47.41516" lon="0.61644">
        <ele>109.4</ele>
        <time>2023-07-14T09:02:28Z</time>
      </trkpt>
      <trkpt lat="47.41514" lon="0.61637">
        <ele>109.6</ele>
        <time>2023-07-14T09:02:29Z</time>
      </trkpt>
      <trkpt lat="47.41512" lon="0.61631">
        <ele>109.6</ele>
        <time>2023-07-14T09:02:30Z</time>
      </trkpt>
      <trkpt lat="47.4151" lon="0.61624">
        <ele>109.6</ele>
        <time>2023-07-14T09:02:31Z</time>
      </trkpt>
      <trkpt lat="47.41508" lon="0.61617">
        <ele>109.6</ele>
        <time>2023-07-14T09:02:32Z</time>
      </trkpt>
      <trkpt lat="47.41507" lon="0.6161">
        <ele>109.4</ele>
        <time>2023-07-14T09:02:33Z</time>
      </trkpt>
      <trkpt lat="47.41505" lon="0.61603">
        <ele>109.4</ele>
        <time>2023-07-14T09:02:34Z</time>
      </trkpt>
      <trkpt lat="47.41504" lon="0.61596">
        <ele>109.4</ele>
        <time>2023-07-14T09:02:35Z</time>
      </trkpt>
      <trkpt lat="47.41502" lon="0.61588">
        <ele>109.2</ele>
        <time>2023-07-14T09:02:36Z</time>
      </trkpt>
      <trkpt lat="47.415" lon="0.61581">
        <ele>109</ele>
        <time>2023-07-14T09:02:37Z</time>
      </trkpt>
      <trkpt lat="47.41499" lon="0.61574">
        <ele>109</ele>
        <time>2023-07-14T09:02:38Z</time>
      </trkpt>
      <trkpt lat="47.41496" lon="0.61567">
        <ele>109</ele>
        <time>2023-07-14T09:02:39Z</time>
      </trkpt>
      <trkpt lat="47.41494" lon="0.61559">
        <ele>109.6</ele>
        <time>2023-07-14T09:02:40Z</time>
      </trkpt>
      <trkpt lat="47.41491" lon="0.61552">
        <ele>109.6</ele>
        <time>2023-07-14T09:02:41Z</time>
      </trkpt>
      <trkpt lat="47.41489" lon="0.61545">
        <ele>109.8</ele>
        <time>2023-07-14T09:02:42Z</time>
      </trkpt>
      <trkpt lat="47.41486" lon="0.61537">
        <ele>109.8</ele>
        <time>2023-07-14T09:02:43Z</time>
      </trkpt>
      <trkpt lat="47.41484" lon="0.6153">
        <ele>109.8</ele>
        <time>2023-07-14T09:02:44Z</time>
      </trkpt>
      <trkpt lat="47.41481" lon="0.61523">
        <ele>109.6</ele>
        <time>2023-07-14T09:02:45Z</time>
      </trkpt>
      <trkpt lat="47.41478" lon="0.61516">
        <ele>109.8</ele>
        <time>2023-07-14T09:02:46Z</time>
      </trkpt>
      <trkpt lat="47.41476" lon="0.61508">
        <ele>109.8</ele>
        <time>2023-07-14T09:02:47Z</time>
      </trkpt>
      <trkpt lat="47.41473" lon="0.61501">
        <ele>109.6</ele>
        <time>2023-07-14T09:02:48Z</time>
      </trkpt>
      <trkpt lat="47.41471" lon="0.61493">
        <ele>109.4</ele>
        <time>2023-07-14T09:02:49Z</time>
      </trkpt>
      <trkpt lat="47.41469" lon="0.61484">
        <ele>109.2</ele>
        <time>2023-07-14T09:02:50Z</time>
      </trkpt>
      <trkpt lat="47.41467" lon="0.61476">
        <ele>109.2</ele>
        <time>2023-07-14T09:02:51Z</time>
      </trkpt>
      <trkpt lat="47.41465" lon="0.61468">
        <ele>109</ele>
        <time>2023-07-14T09:02:52Z</time>
      </trkpt>
      <trkpt lat="47.41464" lon="0.61459">
        <ele>108.8</ele>
        <time>2023-07-14T09:02:53Z</time>
      </trkpt>
      <trkpt lat="47.41462" lon="0.6145">
        <ele>108.6</ele>
        <time>2023-07-14T09:02:54Z</time>
      </trkpt>
      <trkpt lat="47.4146" lon="0.61441">
        <ele>108.6</ele>
        <time>2023-07-14T09:02:55Z</time>
      </trkpt>
      <trkpt lat="47.41459" lon="0.61432">
        <ele>108.4</ele>
        <time>2023-07-14T09:02:56Z</time>
      </trkpt>
      <trkpt lat="47.41457" lon="0.61423">
        <ele>108.4</ele>
        <time>2023-07-14T09:02:57Z</time>
      </trkpt>
      <trkpt lat="47.41454" lon="0.61413">
        <ele>108.2</ele>
        <time>2023-07-14T09:02:58Z</time>
      </trkpt>
      <trkpt lat="47.41452" lon="0.61404">
        <ele>108.2</ele>
        <time>2023-07-14T09:02:59Z</time>
      </trkpt>
      <trkpt lat="47.4145" lon="0.61394">
        <ele>108</ele>
        <time>2023-07-14T09:03:00Z</time>
      </trkpt>
      <trkpt lat="47.41448" lon="0.61385">
        <ele>108</ele>
        <time>2023-07-14T09:03:01Z</time>
      </trkpt>
      <trkpt lat="47.41445" lon="0.61376">
        <ele>108</ele>
        <time>2023-07-14T09:03:02Z</time>
      </trkpt>
      <trkpt lat="47.41442" lon="0.61368">
        <ele>107.8</ele>
        <time>2023-07-14T09:03:03Z</time>
      </trkpt>
      <trkpt lat="47.41439" lon="0.61359">
        <ele>107.8</ele>
        <time>2023-07-14T09:03:04Z</time>
      </trkpt>
      <trkpt lat="47.41436" lon="0.6135">
        <ele>107.6</ele>
        <time>2023-07-14T09:03:05Z</time>
      </trkpt>
      <trkpt lat="47.41433" lon="0.61342">
        <ele>107.2</ele>
        <time>2023-07-14T09:03:06Z</time>
      </trkpt>
      <trkpt lat="47.41429" lon="0.61333">
        <ele>107.2</ele>
        <time>2023-07-14T09:03:07Z</time>
      </trkpt>
      <trkpt lat="47.41426" lon="0.61325">
        <ele>107</ele>
        <time>2023-07-14T09:03:08Z</time>
      </trkpt>
      <trkpt lat="47.41422" lon="0.61318">
        <ele>107.2</ele>
        <time>2023-07-14T09:03:09Z</time>
      </trkpt>
      <trkpt lat="47.41418" lon="0.6131">
        <ele>107.2</ele>
        <time>2023-07-14T09:03:10Z</time>
      </trkpt>
      <trkpt lat="47.41414" lon="0.61303">
        <ele>107.2</ele>
        <time>2023-07-14T09:03:11Z</time>
      </trkpt>
      <trkpt lat="47.4141" lon="0.61297">
        <ele>107</ele>
        <time>2023-07-14T09:03:12Z</time>
      </trkpt>
      <trkpt lat="47.41406" lon="0.6129">
        <ele>107</ele>
        <time>2023-07-14T09:03:13Z</time>
      </trkpt>
      <trkpt lat="47.41401" lon="0.61284">
        <ele>106.8</ele>
        <time>2023-07-14T09:03:14Z</time>
      </trkpt>
      <trkpt lat="47.41397" lon="0.61277">
        <ele>106.8</ele>
        <time>2023-07-14T09:03:15Z</time>
      </trkpt>
      <trkpt lat="47.41393" lon="0.61271">
        <ele>107</ele>
        <time>2023-07-14T09:03:16Z</time>
      </trkpt>
      <trkpt lat="47.41389" lon="0.61265">
        <ele>107</ele>
        <time>2023-07-14T09:03:17Z</time>
      </trkpt>
      <trkpt lat="47.41385" lon="0.61259">
        <ele>107.2</ele>
        <time>2023-07-14T09:03:18Z</time>
      </trkpt>
      <trkpt lat="47.41381" lon="0.61253">
        <ele>107.2</ele>
        <time>2023-07-14T09:03:19Z</time>
      </trkpt>
      <trkpt lat="47.41377" lon="0.61247">
        <ele>107</ele>
        <time>2023-07-14T09:03:20Z</time>
      </trkpt>
      <trkpt lat="47.41373" lon="0.61242">
        <ele>107</ele>
        <time>2023-07-14T09:03:21Z</time>
      </trkpt>
      <trkpt lat="47.41369" lon="0.61236">
        <ele>107.2</ele>
        <time>2023-07-14T09:03:22Z</time>
      </trkpt>
      <trkpt lat="47.41365" lon="0.61231">
        <ele>107.2</ele>
        <time>2023-07-14T09:03:23Z</time>
      </trkpt>
      <trkpt lat="47.4136" lon="0.61226">
        <ele>107.4</ele>
        <time>2023-07-14T09:03:24Z</time>
      </trkpt>
      <trkpt lat="47.41356" lon="0.61222">
        <ele>107.6</ele>
        <time>2023-07-14T09:03:25Z</time>
      </trkpt>
      <trkpt lat="47.41351" lon="0.61218">
        <ele>107.6</ele>
        <time>2023-07-14T09:03:26Z</time>
      </trkpt>
      <trkpt lat="47.41346" lon="0.61215">
        <ele>107.8</ele>
        <time>2023-07-14T09:03:27Z</time>
      </trkpt>
      <trkpt lat="47.41341" lon="0.61211">
        <ele>107.6</ele>
        <time>2023-07-14T09:03:28Z</time>
      </trkpt>
      <trkpt lat="47.41338" lon="0.61207">
        <ele>107.6</ele>
        <time>2023-07-14T09:03:29Z</time>
      </trkpt>
      <trkpt lat="47.41336" lon="0.61202">
        <ele>107.6</ele>
        <time>2023-07-14T09:03:30Z</time>
      </trkpt>
      <trkpt lat="47.41335" lon="0.61195">
        <ele>107.6</ele>
        <time>2023-07-14T09:03:31Z</time>
      </trkpt>
      <trkpt lat="47.41333" lon="0.61188">
        <ele>107.6</ele>
        <time>2023-07-14T09:03:32Z</time>
      </trkpt>
      <trkpt lat="47.4133" lon="0.61182">
        <ele>107.6</ele>
        <time>2023-07-14T09:03:33Z</time>
      </trkpt>
      <trkpt lat="47.41327" lon="0.61177">
        <ele>107.8</ele>
        <time>2023-07-14T09:03:34Z</time>
      </trkpt>
      <trkpt lat="47.41322" lon="0.61172">
        <ele>107.8</ele>
        <time>2023-07-14T09:03:35Z</time>
      </trkpt>
      <trkpt lat="47.41318" lon="0.61167">
        <ele>107.8</ele>
        <time>2023-07-14T09:03:36Z</time>
      </trkpt>
      <trkpt lat="47.41314" lon="0.61161">
        <ele>108</ele>
        <time>2023-07-14T09:03:37Z</time>
      </trkpt>
      <trkpt lat="47.4131" lon="0.61156">
        <ele>108</ele>
        <time>2023-07-14T09:03:38Z</time>
      </trkpt>
      <trkpt lat="47.41307" lon="0.61151">
        <ele>108.2</ele>
        <time>2023-07-14T09:03:39Z</time>
      </trkpt>
      <trkpt lat="47.41303" lon="0.61145">
        <ele>108.2</ele>
        <time>2023-07-14T09:03:40Z</time>
      </trkpt>
      <trkpt lat="47.41299" lon="0.6114">
        <ele>108.4</ele>
        <time>2023-07-14T09:03:41Z</time>
      </trkpt>
      <trkpt lat="47.41295" lon="0.61134">
        <ele>108.4</ele>
        <time>2023-07-14T09:03:42Z</time>
      </trkpt>
      <trkpt lat="47.41291" lon="0.61129">
        <ele>108.6</ele>
        <time>2023-07-14T09:03:43Z</time>
      </trkpt>
      <trkpt lat="47.41288" lon="0.61123">
        <ele>108.6</ele>
        <time>2023-07-14T09:03:44Z</time>
      </trkpt>
      <trkpt lat="47.41284" lon="0.61118">
        <ele>108.6</ele>
        <time>2023-07-14T09:03:45Z</time>
      </trkpt>
      <trkpt lat="47.41279" lon="0.61112">
        <ele>108.6</ele>
        <time>2023-07-14T09:03:46Z</time>
      </trkpt>
      <trkpt lat="47.41276" lon="0.61106">
        <ele>108.8</ele>
        <time>2023-07-14T09:03:47Z</time>
      </trkpt>
      <trkpt lat="47.41273" lon="0.61101">
        <ele>108.8</ele>
        <time>2023-07-14T09:03:48Z</time>
      </trkpt>
      <trkpt lat="47.4127" lon="0.61095">
        <ele>108.8</ele>
        <time>2023-07-14T09:03:49Z</time>
      </trkpt>
      <trkpt lat="47.41267" lon="0.61088">
        <ele>109</ele>
        <time>2023-07-14T09:03:50Z</time>
      </trkpt>
      <trkpt lat="47.41265" lon="0.61082">
        <ele>109</ele>
        <time>2023-07-14T09:03:51Z</time>
      </trkpt>
      <trkpt lat="47.41263" lon="0.61075">
        <ele>109.2</ele>
        <time>2023-07-14T09:03:52Z</time>
      </trkpt>
      <trkpt lat="47.41261" lon="0.61068">
        <ele>109.2</ele>
        <time>2023-07-14T09:03:53Z</time>
      </trkpt>
      <trkpt lat="47.41257" lon="0.61061">
        <ele>109.2</ele>
        <time>2023-07-14T09:03:54Z</time>
      </trkpt>
      <trkpt lat="47.41255" lon="0.61056">
        <ele>109.4</ele>
        <time>2023-07-14T09:03:55Z</time>
      </trkpt>
      <trkpt lat="47.41253" lon="0.6105">
        <ele>109.4</ele>
        <time>2023-07-14T09:03:56Z</time>
      </trkpt>
      <trkpt lat="47.41251" lon="0.61044">
        <ele>109.6</ele>
        <time>2023-07-14T09:03:57Z</time>
      </trkpt>
      <trkpt lat="47.41248" lon="0.61039">
        <ele>109.6</ele>
        <time>2023-07-14T09:03:58Z</time>
      </trkpt>
      <trkpt lat="47.41245" lon="0.61038">
        <ele>109.4</ele>
        <time>2023-07-14T09:03:59Z</time>
      </trkpt>
      <trkpt lat="47.41242" lon="0.61039">
        <ele>109.6</ele>
        <time>2023-07-14T09:04:00Z</time>
      </trkpt>
      <trkpt lat="47.41239" lon="0.61041">
        <ele>109.6</ele>
        <time>2023-07-14T09:04:01Z</time>
      </trkpt>
      <trkpt lat="47.41235" lon="0.61043">
        <ele>109.6</ele>
        <time>2023-07-14T09:04:02Z</time>
      </trkpt>
      <trkpt lat="47.41232" lon="0.61044">
        <ele>109.6</ele>
        <time>2023-07-14T09:04:03Z</time>
      </trkpt>
      <trkpt lat="47.41228" lon="0.61044">
        <ele>109.6</ele>
        <time>2023-07-14T09:04:04Z</time>
      </trkpt>
      <trkpt lat="47.41224" lon="0.61043">
        <ele>109.6</ele>
        <time>2023-07-14T09:04:05Z</time>
      </trkpt>
      <trkpt lat="47.41219" lon="0.61042">
        <ele>109.6</ele>
        <time>2023-07-14T09:04:06Z</time>
      </trkpt>
      <trkpt lat="47.41215" lon="0.61041">
        <ele>109.8</ele>
        <time>2023-07-14T09:04:07Z</time>
      </trkpt>
      <trkpt lat="47.41211" lon="0.61041">
        <ele>109.8</ele>
        <time>2023-07-14T09:04:08Z</time>
      </trkpt>
      <trkpt lat="47.41208" lon="0.61039">
        <ele>109.8</ele>
        <time>2023-07-14T09:04:09Z</time>
      </trkpt>
      <trkpt lat="47.41204" lon="0.61036">
        <ele>109.8</ele>
        <time>2023-07-14T09:04:10Z</time>
      </trkpt>
      <trkpt lat="47.41202" lon="0.61031">
        <ele>109.8</ele>
        <time>2023-07-14T09:04:11Z</time>
      </trkpt>
      <trkpt lat="47.41201" lon="0.61024">
        <ele>109.8</ele>
        <time>2023-07-14T09:04:12Z</time>
      </trkpt>
      <trkpt lat="47.41201" lon="0.61017">
        <ele>109.8</ele>
        <time>2023-07-14T09:04:13Z</time>
      </trkpt>
      <trkpt lat="47.41199" lon="0.61011">
        <ele>110</ele>
        <time>2023-07-14T09:04:14Z</time>
      </trkpt>
      <trkpt lat="47.41196" lon="0.61005">
        <ele>110</ele>
        <time>2023-07-14T09:04:15Z</time>
      </trkpt>
      <trkpt lat="47.41193" lon="0.61002">
        <ele>110</ele>
        <time>2023-07-14T09:04:16Z</time>
      </trkpt>
      <trkpt lat="47.41188" lon="0.60999">
        <ele>110</ele>
        <time>2023-07-14T09:04:17Z</time>
      </trkpt>
      <trkpt lat="47.41183" lon="0.60996">
        <ele>110</ele>
        <time>2023-07-14T09:04:18Z</time>
      </trkpt>
      <trkpt lat="47.41178" lon="0.60993">
        <ele>110.2</ele>
        <time>2023-07-14T09:04:19Z</time>
      </trkpt>
      <trkpt lat="47.41174" lon="0.60989">
        <ele>110.2</ele>
        <time>2023-07-14T09:04:20Z</time>
      </trkpt>
      <trkpt lat="47.41168" lon="0.60985">
        <ele>110.2</ele>
        <time>2023-07-14T09:04:21Z</time>
      </trkpt>
      <trkpt lat="47.41162" lon="0.60981">
        <ele>110.2</ele>
        <time>2023-07-14T09:04:22Z</time>
      </trkpt>
      <trkpt lat="47.41158" lon="0.60977">
        <ele>110.2</ele>
        <time>2023-07-14T09:04:23Z</time>
      </trkpt>
      <trkpt lat="47.41152" lon="0.60973">
        <ele>110.2</ele>
        <time>2023-07-14T09:04:24Z</time>
      </trkpt>
      <trkpt lat="47.41147" lon="0.60969">
        <ele>110.4</ele>
        <time>2023-07-14T09:04:25Z</time>
      </trkpt>
      <trkpt lat="47.41142" lon="0.60965">
        <ele>110.4</ele>
        <time>2023-07-14T09:04:26Z</time>
      </trkpt>
      <trkpt lat="47.41137" lon="0.60961">
        <ele>110.4</ele>
        <time>2023-07-14T09:04:27Z</time>
      </trkpt>
      <trkpt lat="47.41132" lon="0.60958">
        <ele>110.4</ele>
        <time>2023-07-14T09:04:28Z</time>
      </trkpt>
      <trkpt lat="47.41127" lon="0.60955">
        <ele>110.2</ele>
        <time>2023-07-14T09:04:29Z</time>
      </trkpt>
      <trkpt lat="47.41122" lon="0.60952">
        <ele>110.2</ele>
        <time>2023-07-14T09:04:30Z</time>
      </trkpt>
      <trkpt lat="47.41117" lon="0.60949">
        <ele>110.2</ele>
        <time>2023-07-14T09:04:31Z</time>
      </trkpt>
      <trkpt lat="47.41113" lon="0.60946">
        <ele>110.2</ele>
        <time>2023-07-14T09:04:32Z</time>
      </trkpt>
      <trkpt lat="47.41108" lon="0.60942">
        <ele>110.2</ele>
        <time>2023-07-14T09:04:33Z</time>
      </trkpt>
      <trkpt lat="47.41103" lon="0.60938">
        <ele>110</ele>
        <time>2023-07-14T09:04:34Z</time>
      </trkpt>
      <trkpt lat="47.41098" lon="0.60934">
        <ele>110</ele>
        <time>2023-07-14T09:04:35Z</time>
      </trkpt>
      <trkpt lat="47.41093" lon="0.60931">
        <ele>109.8</ele>
        <time>2023-07-14T09:04:36Z</time>
      </trkpt>
      <trkpt lat="47.41088" lon="0.60927">
        <ele>109.8</ele>
        <time>2023-07-14T09:04:37Z</time>
      </trkpt>
      <trkpt lat="47.41084" lon="0.60923">
        <ele>109.8</ele>
        <time>2023-07-14T09:04:38Z</time>
      </trkpt>
      <trkpt lat="47.4108" lon="0.6092">
        <ele>109.6</ele>
        <time>2023-07-14T09:04:39Z</time>
      </trkpt>
      <trkpt lat="47.41075" lon="0.60917">
        <ele>109.6</ele>
        <time>2023-07-14T09:04:40Z</time>
      </trkpt>
      <trkpt lat="47.41071" lon="0.60914">
        <ele>109.6</ele>
        <time>2023-07-14T09:04:41Z</time>
      </trkpt>
      <trkpt lat="47.41066" lon="0.60911">
        <ele>109.6</ele>
        <time>2023-07-14T09:04:42Z</time>
      </trkpt>
      <trkpt lat="47.41061" lon="0.60908">
        <ele>109.8</ele>
        <time>2023-07-14T09:04:43Z</time>
      </trkpt>
      <trkpt lat="47.41056" lon="0.60904">
        <ele>109.6</ele>
        <time>2023-07-14T09:04:44Z</time>
      </trkpt>
      <trkpt lat="47.41051" lon="0.609">
        <ele>109.6</ele>
        <time>2023-07-14T09:04:45Z</time>
      </trkpt>
      <trkpt lat="47.41047" lon="0.60896">
        <ele>109.6</ele>
        <time>2023-07-14T09:04:46Z</time>
      </trkpt>
      <trkpt lat="47.41042" lon="0.60892">
        <ele>109.6</ele>
        <time>2023-07-14T09:04:47Z</time>
      </trkpt>
      <trkpt lat="47.41037" lon="0.60889">
        <ele>109.6</ele>
        <time>2023-07-14T09:04:48Z</time>
      </trkpt>
      <trkpt lat="47.41032" lon="0.60885">
        <ele>109.6</ele>
        <time>2023-07-14T09:04:49Z</time>
      </trkpt>
      <trkpt lat="47.41028" lon="0.60882">
        <ele>109.6</ele>
        <time>2023-07-14T09:04:50Z</time>
      </trkpt>
      <trkpt lat="47.41023" lon="0.60878">
        <ele>109.6</ele>
        <time>2023-07-14T09:04:51Z</time>
      </trkpt>
      <trkpt lat="47.41018" lon="0.60874">
        <ele>109.6</ele>
        <time>2023-07-14T09:04:52Z</time>
      </trkpt>
      <trkpt lat="47.41013" lon="0.6087">
        <ele>109.8</ele>
        <time>2023-07-14T09:04:53Z</time>
      </trkpt>
      <trkpt lat="47.41009" lon="0.60866">
        <ele>109.6</ele>
        <time>2023-07-14T09:04:54Z</time>
      </trkpt>
      <trkpt lat="47.41004" lon="0.60863">
        <ele>109.6</ele>
        <time>2023-07-14T09:04:55Z</time>
      </trkpt>
      <trkpt lat="47.40999" lon="0.60859">
        <ele>109.4</ele>
        <time>2023-07-14T09:04:56Z</time>
      </trkpt>
      <trkpt lat="47.40994" lon="0.60855">
        <ele>109.4</ele>
        <time>2023-07-14T09:04:57Z</time>
      </trkpt>
      <trkpt lat="47.40989" lon="0.60852">
        <ele>109.4</ele>
        <time>2023-07-14T09:04:58Z</time>
      </trkpt>
      <trkpt lat="47.40984" lon="0.60848">
        <ele>109.4</ele>
        <time>2023-07-14T09:04:59Z</time>
      </trkpt>
      <trkpt lat="47.40979" lon="0.60844">
        <ele>109.4</ele>
        <time>2023-07-14T09:05:00Z</time>
      </trkpt>
      <trkpt lat="47.40974" lon="0.60841">
        <ele>109.2</ele>
        <time>2023-07-14T09:05:01Z</time>
      </trkpt>
      <trkpt lat="47.40969" lon="0.60837">
        <ele>109.2</ele>
        <time>2023-07-14T09:05:02Z</time>
      </trkpt>
      <trkpt lat="47.40965" lon="0.60833">
        <ele>109.2</ele>
        <time>2023-07-14T09:05:03Z</time>
      </trkpt>
      <trkpt lat="47.40959" lon="0.60829">
        <ele>109.2</ele>
        <time>2023-07-14T09:05:04Z</time>
      </trkpt>
      <trkpt lat="47.40954" lon="0.60826">
        <ele>109.2</ele>
        <time>2023-07-14T09:05:05Z</time>
      </trkpt>
      <trkpt lat="47.4095" lon="0.60823">
        <ele>109.4</ele>
        <time>2023-07-14T09:05:06Z</time>
      </trkpt>
      <trkpt lat="47.40945" lon="0.60819">
        <ele>109.6</ele>
        <time>2023-07-14T09:05:07Z</time>
      </trkpt>
      <trkpt lat="47.40941" lon="0.60816">
        <ele>109.4</ele>
        <time>2023-07-14T09:05:08Z</time>
      </trkpt>
      <trkpt lat="47.40936" lon="0.60813">
        <ele>109.4</ele>
        <time>2023-07-14T09:05:09Z</time>
      </trkpt>
      <trkpt lat="47.40931" lon="0.6081">
        <ele>109.4</ele>
        <time>2023-07-14T09:05:10Z</time>
      </trkpt>
      <trkpt lat="47.40927" lon="0.60807">
        <ele>109.4</ele>
        <time>2023-07-14T09:05:11Z</time>
      </trkpt>
      <trkpt lat="47.40922" lon="0.60804">
        <ele>109.2</ele>
        <time>2023-07-14T09:05:12Z</time>
      </trkpt>
      <trkpt lat="47.40918" lon="0.608">
        <ele>109</ele>
        <time>2023-07-14T09:05:13Z</time>
      </trkpt>
      <trkpt lat="47.40914" lon="0.60797">
        <ele>109</ele>
        <time>2023-07-14T09:05:14Z</time>
      </trkpt>
      <trkpt lat="47.40909" lon="0.60794">
        <ele>108.8</ele>
        <time>2023-07-14T09:05:15Z</time>
      </trkpt>
      <trkpt lat="47.40905" lon="0.6079">
        <ele>108.8</ele>
        <time>2023-07-14T09:05:16Z</time>
      </trkpt>
      <trkpt lat="47.40902" lon="0.60787">
        <ele>108.6</ele>
        <time>2023-07-14T09:05:17Z</time>
      </trkpt>
      <trkpt lat="47.40898" lon="0.60786">
        <ele>108.6</ele>
        <time>2023-07-14T09:05:18Z</time>
      </trkpt>
      <trkpt lat="47.40895" lon="0.60785">
        <ele>108.6</ele>
        <time>2023-07-14T09:05:19Z</time>
      </trkpt>
      <trkpt lat="47.40892" lon="0.60785">
        <ele>108.6</ele>
        <time>2023-07-14T09:05:20Z</time>
      </trkpt>
      <trkpt lat="47.40889" lon="0.60786">
        <ele>108.8</ele>
        <time>2023-07-14T09:05:21Z</time>
      </trkpt>
      <trkpt lat="47.40886" lon="0.60789">
        <ele>108.8</ele>
        <time>2023-07-14T09:05:22Z</time>
      </trkpt>
      <trkpt lat="47.40883" lon="0.60792">
        <ele>108.6</ele>
        <time>2023-07-14T09:05:23Z</time>
      </trkpt>
      <trkpt lat="47.4088" lon="0.60797">
        <ele>108.6</ele>
        <time>2023-07-14T09:05:24Z</time>
      </trkpt>
      <trkpt lat="47.40878" lon="0.60803">
        <ele>108.6</ele>
        <time>2023-07-14T09:05:25Z</time>
      </trkpt>
      <trkpt lat="47.40875" lon="0.60807">
        <ele>108.4</ele>
        <time>2023-07-14T09:05:26Z</time>
      </trkpt>
      <trkpt lat="47.40872" lon="0.60812">
        <ele>108.4</ele>
        <time>2023-07-14T09:05:27Z</time>
      </trkpt>
      <trkpt lat="47.40869" lon="0.60816">
        <ele>108.4</ele>
        <time>2023-07-14T09:05:28Z</time>
      </trkpt>
      <trkpt lat="47.40866" lon="0.6082">
        <ele>108.4</ele>
        <time>2023-07-14T09:05:29Z</time>
      </trkpt>
      <trkpt lat="47.40863" lon="0.60825">
        <ele>108.4</ele>
        <time>2023-07-14T09:05:30Z</time>
      </trkpt>
      <trkpt lat="47.4086" lon="0.60829">
        <ele>108.4</ele>
        <time>2023-07-14T09:05:31Z</time>
      </trkpt>
      <trkpt lat="47.40858" lon="0.60833">
        <ele>108.2</ele>
        <time>2023-07-14T09:05:32Z</time>
      </trkpt>
      <trkpt lat="47.40857" lon="0.60837">
        <ele>108.2</ele>
        <time>2023-07-14T09:05:33Z</time>
      </trkpt>
      <trkpt lat="47.40855" lon="0.6084">
        <ele>108.2</ele>
        <time>2023-07-14T09:05:34Z</time>
      </trkpt>
      <trkpt lat="47.40854" lon="0.60842">
        <ele>108.2</ele>
        <time>2023-07-14T09:05:35Z</time>
      </trkpt>
      <trkpt lat="47.40852" lon="0.60843">
        <ele>108.2</ele>
        <time>2023-07-14T09:05:36Z</time>
      </trkpt>
      <trkpt lat="47.4085" lon="0.60843">
        <ele>108</ele>
        <time>2023-07-14T09:05:37Z</time>
      </trkpt>
      <trkpt lat="47.40849" lon="0.60842">
        <ele>108.2</ele>
        <time>2023-07-14T09:05:38Z</time>
      </trkpt>
      <trkpt lat="47.40848" lon="0.60842">
        <ele>108.2</ele>
        <time>2023-07-14T09:05:39Z</time>
      </trkpt>
      <trkpt lat="47.40847" lon="0.60841">
        <ele>108.2</ele>
        <time>2023-07-14T09:05:40Z</time>
      </trkpt>
      <trkpt lat="47.40846" lon="0.60841">
        <ele>108.2</ele>
        <time>2023-07-14T09:05:50Z</time>
      </trkpt>
      <trkpt lat="47.40845" lon="0.6084">
        <ele>108.2</ele>
        <time>2023-07-14T09:05:51Z</time>
      </trkpt>
      <trkpt lat="47.40844" lon="0.60839">
        <ele>108</ele>
        <time>2023-07-14T09:05:52Z</time>
      </trkpt>
      <trkpt lat="47.40843" lon="0.60839">
        <ele>108</ele>
        <time>2023-07-14T09:05:53Z</time>
      </trkpt>
      <trkpt lat="47.40842" lon="0.60838">
        <ele>108</ele>
        <time>2023-07-14T09:05:54Z</time>
      </trkpt>
      <trkpt lat="47.40841" lon="0.60837">
        <ele>108</ele>
        <time>2023-07-14T09:05:55Z</time>
      </trkpt>
      <trkpt lat="47.4084" lon="0.60836">
        <ele>108</ele>
        <time>2023-07-14T09:05:56Z</time>
      </trkpt>
      <trkpt lat="47.40838" lon="0.60834">
        <ele>108</ele>
        <time>2023-07-14T09:05:57Z</time>
      </trkpt>
      <trkpt lat="47.40837" lon="0.60833">
        <ele>108</ele>
        <time>2023-07-14T09:05:58Z</time>
      </trkpt>
      <trkpt lat="47.40836" lon="0.60831">
        <ele>108</ele>
        <time>2023-07-14T09:05:59Z</time>
      </trkpt>
      <trkpt lat="47.40836" lon="0.60829">
        <ele>108</ele>
        <time>2023-07-14T09:06:00Z</time>
      </trkpt>
      <trkpt lat="47.40835" lon="0.60828">
        <ele>108</ele>
        <time>2023-07-14T09:06:01Z</time>
      </trkpt>
      <trkpt lat="47.40835" lon="0.60826">
        <ele>108</ele>
        <time>2023-07-14T09:06:02Z</time>
      </trkpt>
      <trkpt lat="47.40835" lon="0.60825">
        <ele>108</ele>
        <time>2023-07-14T09:06:03Z</time>
      </trkpt>
      <trkpt lat="47.40835" lon="0.60823">
        <ele>108</ele>
        <time>2023-07-14T09:06:04Z</time>
      </trkpt>
      <trkpt lat="47.40836" lon="0.60822">
        <ele>108</ele>
        <time>2023-07-14T09:06:05Z</time>
      </trkpt>
      <trkpt lat="47.40836" lon="0.6082">
        <ele>108</ele>
        <time>2023-07-14T09:06:06Z</time>
      </trkpt>
      <trkpt lat="47.40837" lon="0.60819">
        <ele>108</ele>
        <time>2023-07-14T09:06:07Z</time>
      </trkpt>
      <trkpt lat="47.40838" lon="0.60817">
        <ele>108</ele>
        <time>2023-07-14T09:06:08Z</time>
      </trkpt>
      <trkpt lat="47.40837" lon="0.60816">
        <ele>108</ele>
        <time>2023-07-14T09:06:09Z</time>
      </trkpt>
      <trkpt lat="47.40836" lon="0.60816">
        <ele>107.8</ele>
        <time>2023-07-14T09:06:10Z</time>
      </trkpt>
      <trkpt lat="47.40835" lon="0.60817">
        <ele>107.8</ele>
        <time>2023-07-14T09:06:11Z</time>
      </trkpt>
      <trkpt lat="47.40834" lon="0.60818">
        <ele>107.8</ele>
        <time>2023-07-14T09:06:12Z</time>
      </trkpt>
      <trkpt lat="47.40834" lon="0.60819">
        <ele>107.8</ele>
        <time>2023-07-14T09:06:13Z</time>
      </trkpt>
      <trkpt lat="47.40833" lon="0.6082">
        <ele>107.8</ele>
        <time>2023-07-14T09:06:14Z</time>
      </trkpt>
      <trkpt lat="47.40834" lon="0.6082">
        <ele>107.8</ele>
        <time>2023-07-14T09:06:15Z</time>
      </trkpt>
      <trkpt lat="47.40834" lon="0.6082">
        <ele>107.8</ele>
        <time>2023-07-14T09:06:16Z</time>
      </trkpt>
      <trkpt lat="47.40834" lon="0.6082">
        <ele>107.8</ele>
        <time>2023-07-14T09:06:17Z</time>
      </trkpt>
      <trkpt lat="47.40834" lon="0.6082">
        <ele>107.8</ele>
        <time>2023-07-14T09:06:18Z</time>
      </trkpt>
    </trkseg>
  </trk>
</gpx>